<?xml version="1.0" encoding="UTF-8" standalone="no" ?>
<gpx xmlns="http://www.topografix.com/GPX/1/1" xmlns:xsi="http://www.w3.org/2001/XMLSchema-instance" xsi:schemaLocation="http://www.topografix.com/GPX/1/1 http://www.topografix.com/GPX/1/1/gpx.xsd" version="1.1" creator="VisuGPX - https://www.visugpx.com">
  <metadata>
    <name>12/02/2022</name>
    <desc><![CDATA[boucle autour du Béout à Lourdes]]></desc>
  </metadata>
  <trk>
    <name><![CDATA[12/02/2022_1]]></name>
    <trkseg>
      <trkpt lat="43.09666" lon="-0.06903">
        <ele>402.8</ele>
        <time>2022-02-12T07:36:45Z</time>
      </trkpt>
      <trkpt lat="43.09666" lon="-0.06903">
        <ele>423</ele>
        <time>2022-02-12T07:36:46Z</time>
      </trkpt>
      <trkpt lat="43.09665" lon="-0.06903">
        <ele>425.2</ele>
        <time>2022-02-12T07:36:47Z</time>
      </trkpt>
      <trkpt lat="43.09665" lon="-0.06903">
        <ele>427</ele>
        <time>2022-02-12T07:36:48Z</time>
      </trkpt>
      <trkpt lat="43.09665" lon="-0.06902">
        <ele>427.4</ele>
        <time>2022-02-12T07:36:49Z</time>
      </trkpt>
      <trkpt lat="43.09664" lon="-0.06903">
        <ele>427.8</ele>
        <time>2022-02-12T07:36:50Z</time>
      </trkpt>
      <trkpt lat="43.09664" lon="-0.06903">
        <ele>427.8</ele>
        <time>2022-02-12T07:36:51Z</time>
      </trkpt>
      <trkpt lat="43.09664" lon="-0.06903">
        <ele>427.8</ele>
        <time>2022-02-12T07:36:52Z</time>
      </trkpt>
      <trkpt lat="43.09663" lon="-0.06902">
        <ele>427.8</ele>
        <time>2022-02-12T07:36:53Z</time>
      </trkpt>
      <trkpt lat="43.09663" lon="-0.06903">
        <ele>427.8</ele>
        <time>2022-02-12T07:36:54Z</time>
      </trkpt>
      <trkpt lat="43.09663" lon="-0.06904">
        <ele>428</ele>
        <time>2022-02-12T07:36:55Z</time>
      </trkpt>
      <trkpt lat="43.09663" lon="-0.06904">
        <ele>428</ele>
        <time>2022-02-12T07:36:56Z</time>
      </trkpt>
      <trkpt lat="43.09663" lon="-0.06905">
        <ele>428</ele>
        <time>2022-02-12T07:36:57Z</time>
      </trkpt>
      <trkpt lat="43.09663" lon="-0.06905">
        <ele>428</ele>
        <time>2022-02-12T07:36:58Z</time>
      </trkpt>
      <trkpt lat="43.09662" lon="-0.06906">
        <ele>428</ele>
        <time>2022-02-12T07:36:59Z</time>
      </trkpt>
      <trkpt lat="43.09662" lon="-0.06906">
        <ele>428</ele>
        <time>2022-02-12T07:37:00Z</time>
      </trkpt>
      <trkpt lat="43.09662" lon="-0.06906">
        <ele>428</ele>
        <time>2022-02-12T07:37:01Z</time>
      </trkpt>
      <trkpt lat="43.09663" lon="-0.06907">
        <ele>427.8</ele>
        <time>2022-02-12T07:37:02Z</time>
      </trkpt>
      <trkpt lat="43.09663" lon="-0.06907">
        <ele>427.8</ele>
        <time>2022-02-12T07:37:03Z</time>
      </trkpt>
      <trkpt lat="43.09663" lon="-0.06907">
        <ele>427.8</ele>
        <time>2022-02-12T07:37:04Z</time>
      </trkpt>
      <trkpt lat="43.09663" lon="-0.06907">
        <ele>427.8</ele>
        <time>2022-02-12T07:37:05Z</time>
      </trkpt>
      <trkpt lat="43.09663" lon="-0.06907">
        <ele>427.8</ele>
        <time>2022-02-12T07:37:06Z</time>
      </trkpt>
      <trkpt lat="43.09664" lon="-0.06908">
        <ele>427.8</ele>
        <time>2022-02-12T07:37:07Z</time>
      </trkpt>
      <trkpt lat="43.09664" lon="-0.06909">
        <ele>427.8</ele>
        <time>2022-02-12T07:37:08Z</time>
      </trkpt>
      <trkpt lat="43.09664" lon="-0.06909">
        <ele>427.6</ele>
        <time>2022-02-12T07:37:09Z</time>
      </trkpt>
      <trkpt lat="43.09664" lon="-0.06909">
        <ele>427.6</ele>
        <time>2022-02-12T07:37:10Z</time>
      </trkpt>
      <trkpt lat="43.09664" lon="-0.06909">
        <ele>427.6</ele>
        <time>2022-02-12T07:37:11Z</time>
      </trkpt>
      <trkpt lat="43.09664" lon="-0.06909">
        <ele>427.6</ele>
        <time>2022-02-12T07:37:12Z</time>
      </trkpt>
      <trkpt lat="43.09664" lon="-0.06909">
        <ele>427.6</ele>
        <time>2022-02-12T07:37:13Z</time>
      </trkpt>
      <trkpt lat="43.09664" lon="-0.06909">
        <ele>427.6</ele>
        <time>2022-02-12T07:37:14Z</time>
      </trkpt>
      <trkpt lat="43.09666" lon="-0.06912">
        <ele>427.6</ele>
        <time>2022-02-12T07:37:15Z</time>
      </trkpt>
      <trkpt lat="43.09667" lon="-0.06914">
        <ele>427.6</ele>
        <time>2022-02-12T07:37:16Z</time>
      </trkpt>
      <trkpt lat="43.09668" lon="-0.06918">
        <ele>427.6</ele>
        <time>2022-02-12T07:37:17Z</time>
      </trkpt>
      <trkpt lat="43.09669" lon="-0.06923">
        <ele>427.6</ele>
        <time>2022-02-12T07:37:18Z</time>
      </trkpt>
      <trkpt lat="43.0967" lon="-0.06928">
        <ele>427.6</ele>
        <time>2022-02-12T07:37:19Z</time>
      </trkpt>
      <trkpt lat="43.0967" lon="-0.06932">
        <ele>427.6</ele>
        <time>2022-02-12T07:37:20Z</time>
      </trkpt>
      <trkpt lat="43.09668" lon="-0.06936">
        <ele>427.4</ele>
        <time>2022-02-12T07:37:21Z</time>
      </trkpt>
      <trkpt lat="43.09666" lon="-0.06941">
        <ele>427.4</ele>
        <time>2022-02-12T07:37:22Z</time>
      </trkpt>
      <trkpt lat="43.09666" lon="-0.06945">
        <ele>427.2</ele>
        <time>2022-02-12T07:37:23Z</time>
      </trkpt>
      <trkpt lat="43.09666" lon="-0.06949">
        <ele>427.2</ele>
        <time>2022-02-12T07:37:24Z</time>
      </trkpt>
      <trkpt lat="43.09666" lon="-0.06954">
        <ele>427.2</ele>
        <time>2022-02-12T07:37:25Z</time>
      </trkpt>
      <trkpt lat="43.09667" lon="-0.06958">
        <ele>427.2</ele>
        <time>2022-02-12T07:37:26Z</time>
      </trkpt>
      <trkpt lat="43.09667" lon="-0.06962">
        <ele>427.2</ele>
        <time>2022-02-12T07:37:27Z</time>
      </trkpt>
      <trkpt lat="43.09668" lon="-0.06966">
        <ele>427.2</ele>
        <time>2022-02-12T07:37:28Z</time>
      </trkpt>
      <trkpt lat="43.09669" lon="-0.06969">
        <ele>427.2</ele>
        <time>2022-02-12T07:37:29Z</time>
      </trkpt>
      <trkpt lat="43.09671" lon="-0.06973">
        <ele>427.2</ele>
        <time>2022-02-12T07:37:30Z</time>
      </trkpt>
      <trkpt lat="43.09672" lon="-0.06978">
        <ele>427.4</ele>
        <time>2022-02-12T07:37:31Z</time>
      </trkpt>
      <trkpt lat="43.09673" lon="-0.06982">
        <ele>427.4</ele>
        <time>2022-02-12T07:37:32Z</time>
      </trkpt>
      <trkpt lat="43.09674" lon="-0.06986">
        <ele>427.6</ele>
        <time>2022-02-12T07:37:33Z</time>
      </trkpt>
      <trkpt lat="43.09674" lon="-0.06991">
        <ele>427.6</ele>
        <time>2022-02-12T07:37:34Z</time>
      </trkpt>
      <trkpt lat="43.09674" lon="-0.06995">
        <ele>428</ele>
        <time>2022-02-12T07:37:35Z</time>
      </trkpt>
      <trkpt lat="43.09675" lon="-0.06998">
        <ele>428.2</ele>
        <time>2022-02-12T07:37:36Z</time>
      </trkpt>
      <trkpt lat="43.09674" lon="-0.07001">
        <ele>428.2</ele>
        <time>2022-02-12T07:37:37Z</time>
      </trkpt>
      <trkpt lat="43.09674" lon="-0.07003">
        <ele>428.4</ele>
        <time>2022-02-12T07:37:38Z</time>
      </trkpt>
      <trkpt lat="43.09672" lon="-0.07006">
        <ele>428.6</ele>
        <time>2022-02-12T07:37:39Z</time>
      </trkpt>
      <trkpt lat="43.09673" lon="-0.07008">
        <ele>428.6</ele>
        <time>2022-02-12T07:37:40Z</time>
      </trkpt>
      <trkpt lat="43.09673" lon="-0.07011">
        <ele>428.8</ele>
        <time>2022-02-12T07:37:41Z</time>
      </trkpt>
      <trkpt lat="43.09673" lon="-0.07014">
        <ele>429</ele>
        <time>2022-02-12T07:37:42Z</time>
      </trkpt>
      <trkpt lat="43.09673" lon="-0.07018">
        <ele>429</ele>
        <time>2022-02-12T07:37:43Z</time>
      </trkpt>
      <trkpt lat="43.09672" lon="-0.07021">
        <ele>429.2</ele>
        <time>2022-02-12T07:37:44Z</time>
      </trkpt>
      <trkpt lat="43.0967" lon="-0.07024">
        <ele>429.2</ele>
        <time>2022-02-12T07:37:45Z</time>
      </trkpt>
      <trkpt lat="43.09665" lon="-0.07027">
        <ele>429.4</ele>
        <time>2022-02-12T07:37:46Z</time>
      </trkpt>
      <trkpt lat="43.0966" lon="-0.07029">
        <ele>429.4</ele>
        <time>2022-02-12T07:37:47Z</time>
      </trkpt>
      <trkpt lat="43.09658" lon="-0.07031">
        <ele>429.6</ele>
        <time>2022-02-12T07:37:48Z</time>
      </trkpt>
      <trkpt lat="43.09657" lon="-0.07034">
        <ele>429.6</ele>
        <time>2022-02-12T07:37:49Z</time>
      </trkpt>
      <trkpt lat="43.09656" lon="-0.07036">
        <ele>430.2</ele>
        <time>2022-02-12T07:37:50Z</time>
      </trkpt>
      <trkpt lat="43.09655" lon="-0.07038">
        <ele>430.2</ele>
        <time>2022-02-12T07:37:51Z</time>
      </trkpt>
      <trkpt lat="43.09653" lon="-0.07041">
        <ele>430.4</ele>
        <time>2022-02-12T07:37:52Z</time>
      </trkpt>
      <trkpt lat="43.09652" lon="-0.07044">
        <ele>430.4</ele>
        <time>2022-02-12T07:37:53Z</time>
      </trkpt>
      <trkpt lat="43.09651" lon="-0.07047">
        <ele>430.4</ele>
        <time>2022-02-12T07:37:54Z</time>
      </trkpt>
      <trkpt lat="43.09652" lon="-0.07049">
        <ele>430.6</ele>
        <time>2022-02-12T07:37:55Z</time>
      </trkpt>
      <trkpt lat="43.09652" lon="-0.07052">
        <ele>430.6</ele>
        <time>2022-02-12T07:37:56Z</time>
      </trkpt>
      <trkpt lat="43.09652" lon="-0.07055">
        <ele>431</ele>
        <time>2022-02-12T07:37:57Z</time>
      </trkpt>
      <trkpt lat="43.09651" lon="-0.07057">
        <ele>431</ele>
        <time>2022-02-12T07:37:58Z</time>
      </trkpt>
      <trkpt lat="43.0965" lon="-0.0706">
        <ele>431.2</ele>
        <time>2022-02-12T07:37:59Z</time>
      </trkpt>
      <trkpt lat="43.09649" lon="-0.07063">
        <ele>431.4</ele>
        <time>2022-02-12T07:38:00Z</time>
      </trkpt>
      <trkpt lat="43.09649" lon="-0.07065">
        <ele>431.4</ele>
        <time>2022-02-12T07:38:01Z</time>
      </trkpt>
      <trkpt lat="43.09648" lon="-0.07067">
        <ele>431.6</ele>
        <time>2022-02-12T07:38:02Z</time>
      </trkpt>
      <trkpt lat="43.09648" lon="-0.0707">
        <ele>431.8</ele>
        <time>2022-02-12T07:38:03Z</time>
      </trkpt>
      <trkpt lat="43.09647" lon="-0.07073">
        <ele>431.8</ele>
        <time>2022-02-12T07:38:04Z</time>
      </trkpt>
      <trkpt lat="43.09646" lon="-0.07076">
        <ele>432</ele>
        <time>2022-02-12T07:38:05Z</time>
      </trkpt>
      <trkpt lat="43.09645" lon="-0.0708">
        <ele>432.4</ele>
        <time>2022-02-12T07:38:06Z</time>
      </trkpt>
      <trkpt lat="43.09644" lon="-0.07083">
        <ele>432.4</ele>
        <time>2022-02-12T07:38:07Z</time>
      </trkpt>
      <trkpt lat="43.09643" lon="-0.07086">
        <ele>432.6</ele>
        <time>2022-02-12T07:38:08Z</time>
      </trkpt>
      <trkpt lat="43.09642" lon="-0.07089">
        <ele>432.8</ele>
        <time>2022-02-12T07:38:09Z</time>
      </trkpt>
      <trkpt lat="43.0964" lon="-0.07092">
        <ele>433</ele>
        <time>2022-02-12T07:38:10Z</time>
      </trkpt>
      <trkpt lat="43.09639" lon="-0.07096">
        <ele>433.4</ele>
        <time>2022-02-12T07:38:11Z</time>
      </trkpt>
      <trkpt lat="43.09638" lon="-0.07098">
        <ele>433.6</ele>
        <time>2022-02-12T07:38:12Z</time>
      </trkpt>
      <trkpt lat="43.09637" lon="-0.07102">
        <ele>433.8</ele>
        <time>2022-02-12T07:38:13Z</time>
      </trkpt>
      <trkpt lat="43.09636" lon="-0.07105">
        <ele>434</ele>
        <time>2022-02-12T07:38:14Z</time>
      </trkpt>
      <trkpt lat="43.09636" lon="-0.07108">
        <ele>434.2</ele>
        <time>2022-02-12T07:38:15Z</time>
      </trkpt>
      <trkpt lat="43.09635" lon="-0.07111">
        <ele>434.4</ele>
        <time>2022-02-12T07:38:16Z</time>
      </trkpt>
      <trkpt lat="43.09634" lon="-0.07114">
        <ele>434.6</ele>
        <time>2022-02-12T07:38:17Z</time>
      </trkpt>
      <trkpt lat="43.09633" lon="-0.07117">
        <ele>434.8</ele>
        <time>2022-02-12T07:38:18Z</time>
      </trkpt>
      <trkpt lat="43.09632" lon="-0.0712">
        <ele>435</ele>
        <time>2022-02-12T07:38:19Z</time>
      </trkpt>
      <trkpt lat="43.09631" lon="-0.07123">
        <ele>435.2</ele>
        <time>2022-02-12T07:38:20Z</time>
      </trkpt>
      <trkpt lat="43.09631" lon="-0.07126">
        <ele>435.4</ele>
        <time>2022-02-12T07:38:21Z</time>
      </trkpt>
      <trkpt lat="43.0963" lon="-0.07129">
        <ele>435.6</ele>
        <time>2022-02-12T07:38:22Z</time>
      </trkpt>
      <trkpt lat="43.0963" lon="-0.07132">
        <ele>435.8</ele>
        <time>2022-02-12T07:38:23Z</time>
      </trkpt>
      <trkpt lat="43.0963" lon="-0.07135">
        <ele>436</ele>
        <time>2022-02-12T07:38:24Z</time>
      </trkpt>
      <trkpt lat="43.09629" lon="-0.07138">
        <ele>436.2</ele>
        <time>2022-02-12T07:38:25Z</time>
      </trkpt>
      <trkpt lat="43.09629" lon="-0.07141">
        <ele>436.4</ele>
        <time>2022-02-12T07:38:26Z</time>
      </trkpt>
      <trkpt lat="43.09628" lon="-0.07144">
        <ele>436.4</ele>
        <time>2022-02-12T07:38:27Z</time>
      </trkpt>
      <trkpt lat="43.09627" lon="-0.07147">
        <ele>436.6</ele>
        <time>2022-02-12T07:38:28Z</time>
      </trkpt>
      <trkpt lat="43.09625" lon="-0.0715">
        <ele>436.6</ele>
        <time>2022-02-12T07:38:29Z</time>
      </trkpt>
      <trkpt lat="43.09623" lon="-0.07153">
        <ele>436.8</ele>
        <time>2022-02-12T07:38:30Z</time>
      </trkpt>
      <trkpt lat="43.09622" lon="-0.07155">
        <ele>437.2</ele>
        <time>2022-02-12T07:38:31Z</time>
      </trkpt>
      <trkpt lat="43.0962" lon="-0.07157">
        <ele>437.2</ele>
        <time>2022-02-12T07:38:32Z</time>
      </trkpt>
      <trkpt lat="43.09618" lon="-0.07159">
        <ele>437.2</ele>
        <time>2022-02-12T07:38:33Z</time>
      </trkpt>
      <trkpt lat="43.09616" lon="-0.07161">
        <ele>437.6</ele>
        <time>2022-02-12T07:38:34Z</time>
      </trkpt>
      <trkpt lat="43.09614" lon="-0.07162">
        <ele>437.8</ele>
        <time>2022-02-12T07:38:35Z</time>
      </trkpt>
      <trkpt lat="43.09613" lon="-0.07164">
        <ele>438.2</ele>
        <time>2022-02-12T07:38:36Z</time>
      </trkpt>
      <trkpt lat="43.09612" lon="-0.07166">
        <ele>438.2</ele>
        <time>2022-02-12T07:38:37Z</time>
      </trkpt>
      <trkpt lat="43.0961" lon="-0.07167">
        <ele>438.4</ele>
        <time>2022-02-12T07:38:38Z</time>
      </trkpt>
      <trkpt lat="43.09609" lon="-0.07169">
        <ele>438.4</ele>
        <time>2022-02-12T07:38:39Z</time>
      </trkpt>
      <trkpt lat="43.09607" lon="-0.07171">
        <ele>438.8</ele>
        <time>2022-02-12T07:38:40Z</time>
      </trkpt>
      <trkpt lat="43.09606" lon="-0.07172">
        <ele>438.8</ele>
        <time>2022-02-12T07:38:41Z</time>
      </trkpt>
      <trkpt lat="43.09605" lon="-0.07174">
        <ele>439.4</ele>
        <time>2022-02-12T07:38:42Z</time>
      </trkpt>
      <trkpt lat="43.09603" lon="-0.07177">
        <ele>439.4</ele>
        <time>2022-02-12T07:38:43Z</time>
      </trkpt>
      <trkpt lat="43.09602" lon="-0.07179">
        <ele>439.6</ele>
        <time>2022-02-12T07:38:44Z</time>
      </trkpt>
      <trkpt lat="43.09601" lon="-0.07181">
        <ele>439.8</ele>
        <time>2022-02-12T07:38:45Z</time>
      </trkpt>
      <trkpt lat="43.096" lon="-0.07184">
        <ele>440</ele>
        <time>2022-02-12T07:38:46Z</time>
      </trkpt>
      <trkpt lat="43.096" lon="-0.07186">
        <ele>440.2</ele>
        <time>2022-02-12T07:38:47Z</time>
      </trkpt>
      <trkpt lat="43.09599" lon="-0.07189">
        <ele>440.6</ele>
        <time>2022-02-12T07:38:48Z</time>
      </trkpt>
      <trkpt lat="43.09598" lon="-0.07191">
        <ele>440.6</ele>
        <time>2022-02-12T07:38:49Z</time>
      </trkpt>
      <trkpt lat="43.09597" lon="-0.07194">
        <ele>440.8</ele>
        <time>2022-02-12T07:38:50Z</time>
      </trkpt>
      <trkpt lat="43.09596" lon="-0.07197">
        <ele>441</ele>
        <time>2022-02-12T07:38:51Z</time>
      </trkpt>
      <trkpt lat="43.09596" lon="-0.07199">
        <ele>441.4</ele>
        <time>2022-02-12T07:38:52Z</time>
      </trkpt>
      <trkpt lat="43.09596" lon="-0.07202">
        <ele>441.6</ele>
        <time>2022-02-12T07:38:53Z</time>
      </trkpt>
      <trkpt lat="43.09596" lon="-0.07204">
        <ele>441.8</ele>
        <time>2022-02-12T07:38:54Z</time>
      </trkpt>
      <trkpt lat="43.09596" lon="-0.07207">
        <ele>442.4</ele>
        <time>2022-02-12T07:38:55Z</time>
      </trkpt>
      <trkpt lat="43.09595" lon="-0.0721">
        <ele>442.4</ele>
        <time>2022-02-12T07:38:56Z</time>
      </trkpt>
      <trkpt lat="43.09595" lon="-0.07212">
        <ele>442.6</ele>
        <time>2022-02-12T07:38:57Z</time>
      </trkpt>
      <trkpt lat="43.09594" lon="-0.07215">
        <ele>442.6</ele>
        <time>2022-02-12T07:38:58Z</time>
      </trkpt>
      <trkpt lat="43.09594" lon="-0.07218">
        <ele>442.8</ele>
        <time>2022-02-12T07:38:59Z</time>
      </trkpt>
      <trkpt lat="43.09593" lon="-0.07221">
        <ele>442.8</ele>
        <time>2022-02-12T07:39:00Z</time>
      </trkpt>
      <trkpt lat="43.09592" lon="-0.07224">
        <ele>443.2</ele>
        <time>2022-02-12T07:39:01Z</time>
      </trkpt>
      <trkpt lat="43.09592" lon="-0.07227">
        <ele>443.2</ele>
        <time>2022-02-12T07:39:02Z</time>
      </trkpt>
      <trkpt lat="43.09591" lon="-0.0723">
        <ele>443.4</ele>
        <time>2022-02-12T07:39:03Z</time>
      </trkpt>
      <trkpt lat="43.09591" lon="-0.07233">
        <ele>443.6</ele>
        <time>2022-02-12T07:39:04Z</time>
      </trkpt>
      <trkpt lat="43.0959" lon="-0.07236">
        <ele>444</ele>
        <time>2022-02-12T07:39:05Z</time>
      </trkpt>
      <trkpt lat="43.0959" lon="-0.0724">
        <ele>444</ele>
        <time>2022-02-12T07:39:06Z</time>
      </trkpt>
      <trkpt lat="43.0959" lon="-0.07242">
        <ele>444.4</ele>
        <time>2022-02-12T07:39:07Z</time>
      </trkpt>
      <trkpt lat="43.09589" lon="-0.07245">
        <ele>444.6</ele>
        <time>2022-02-12T07:39:08Z</time>
      </trkpt>
      <trkpt lat="43.09589" lon="-0.07248">
        <ele>444.8</ele>
        <time>2022-02-12T07:39:09Z</time>
      </trkpt>
      <trkpt lat="43.09589" lon="-0.0725">
        <ele>445</ele>
        <time>2022-02-12T07:39:10Z</time>
      </trkpt>
      <trkpt lat="43.09588" lon="-0.07253">
        <ele>445</ele>
        <time>2022-02-12T07:39:11Z</time>
      </trkpt>
      <trkpt lat="43.09588" lon="-0.07255">
        <ele>445.2</ele>
        <time>2022-02-12T07:39:12Z</time>
      </trkpt>
      <trkpt lat="43.09587" lon="-0.07257">
        <ele>445.4</ele>
        <time>2022-02-12T07:39:13Z</time>
      </trkpt>
      <trkpt lat="43.09586" lon="-0.0726">
        <ele>445.6</ele>
        <time>2022-02-12T07:39:14Z</time>
      </trkpt>
      <trkpt lat="43.09586" lon="-0.07263">
        <ele>445.8</ele>
        <time>2022-02-12T07:39:15Z</time>
      </trkpt>
      <trkpt lat="43.09586" lon="-0.07265">
        <ele>446</ele>
        <time>2022-02-12T07:39:16Z</time>
      </trkpt>
      <trkpt lat="43.09586" lon="-0.07268">
        <ele>446</ele>
        <time>2022-02-12T07:39:17Z</time>
      </trkpt>
      <trkpt lat="43.09585" lon="-0.0727">
        <ele>446.2</ele>
        <time>2022-02-12T07:39:18Z</time>
      </trkpt>
      <trkpt lat="43.09585" lon="-0.07273">
        <ele>446.4</ele>
        <time>2022-02-12T07:39:19Z</time>
      </trkpt>
      <trkpt lat="43.09586" lon="-0.07276">
        <ele>446.6</ele>
        <time>2022-02-12T07:39:20Z</time>
      </trkpt>
      <trkpt lat="43.09585" lon="-0.07279">
        <ele>446.8</ele>
        <time>2022-02-12T07:39:21Z</time>
      </trkpt>
      <trkpt lat="43.09585" lon="-0.07282">
        <ele>447</ele>
        <time>2022-02-12T07:39:22Z</time>
      </trkpt>
      <trkpt lat="43.09584" lon="-0.07285">
        <ele>447</ele>
        <time>2022-02-12T07:39:23Z</time>
      </trkpt>
      <trkpt lat="43.09583" lon="-0.07288">
        <ele>447.2</ele>
        <time>2022-02-12T07:39:24Z</time>
      </trkpt>
      <trkpt lat="43.09581" lon="-0.07291">
        <ele>447.6</ele>
        <time>2022-02-12T07:39:25Z</time>
      </trkpt>
      <trkpt lat="43.09581" lon="-0.07294">
        <ele>447.6</ele>
        <time>2022-02-12T07:39:26Z</time>
      </trkpt>
      <trkpt lat="43.0958" lon="-0.07297">
        <ele>448</ele>
        <time>2022-02-12T07:39:27Z</time>
      </trkpt>
      <trkpt lat="43.09579" lon="-0.073">
        <ele>448</ele>
        <time>2022-02-12T07:39:28Z</time>
      </trkpt>
      <trkpt lat="43.09578" lon="-0.07303">
        <ele>448.4</ele>
        <time>2022-02-12T07:39:29Z</time>
      </trkpt>
      <trkpt lat="43.09577" lon="-0.07306">
        <ele>448.4</ele>
        <time>2022-02-12T07:39:30Z</time>
      </trkpt>
      <trkpt lat="43.09576" lon="-0.07309">
        <ele>448.6</ele>
        <time>2022-02-12T07:39:31Z</time>
      </trkpt>
      <trkpt lat="43.09575" lon="-0.07312">
        <ele>448.8</ele>
        <time>2022-02-12T07:39:32Z</time>
      </trkpt>
      <trkpt lat="43.09575" lon="-0.07315">
        <ele>449</ele>
        <time>2022-02-12T07:39:33Z</time>
      </trkpt>
      <trkpt lat="43.09575" lon="-0.07318">
        <ele>449</ele>
        <time>2022-02-12T07:39:34Z</time>
      </trkpt>
      <trkpt lat="43.09574" lon="-0.07321">
        <ele>449.2</ele>
        <time>2022-02-12T07:39:35Z</time>
      </trkpt>
      <trkpt lat="43.09574" lon="-0.07324">
        <ele>449.2</ele>
        <time>2022-02-12T07:39:36Z</time>
      </trkpt>
      <trkpt lat="43.09573" lon="-0.07327">
        <ele>449.4</ele>
        <time>2022-02-12T07:39:37Z</time>
      </trkpt>
      <trkpt lat="43.09573" lon="-0.0733">
        <ele>449.4</ele>
        <time>2022-02-12T07:39:38Z</time>
      </trkpt>
      <trkpt lat="43.09572" lon="-0.07333">
        <ele>449.8</ele>
        <time>2022-02-12T07:39:39Z</time>
      </trkpt>
      <trkpt lat="43.09571" lon="-0.07336">
        <ele>450</ele>
        <time>2022-02-12T07:39:40Z</time>
      </trkpt>
      <trkpt lat="43.09571" lon="-0.07339">
        <ele>450</ele>
        <time>2022-02-12T07:39:41Z</time>
      </trkpt>
      <trkpt lat="43.09571" lon="-0.07342">
        <ele>450.2</ele>
        <time>2022-02-12T07:39:42Z</time>
      </trkpt>
      <trkpt lat="43.0957" lon="-0.07345">
        <ele>450.4</ele>
        <time>2022-02-12T07:39:43Z</time>
      </trkpt>
      <trkpt lat="43.0957" lon="-0.07348">
        <ele>450.6</ele>
        <time>2022-02-12T07:39:44Z</time>
      </trkpt>
      <trkpt lat="43.0957" lon="-0.07351">
        <ele>450.8</ele>
        <time>2022-02-12T07:39:45Z</time>
      </trkpt>
      <trkpt lat="43.0957" lon="-0.07353">
        <ele>451.2</ele>
        <time>2022-02-12T07:39:46Z</time>
      </trkpt>
      <trkpt lat="43.09569" lon="-0.07356">
        <ele>451.2</ele>
        <time>2022-02-12T07:39:47Z</time>
      </trkpt>
      <trkpt lat="43.09569" lon="-0.07359">
        <ele>451.4</ele>
        <time>2022-02-12T07:39:48Z</time>
      </trkpt>
      <trkpt lat="43.09569" lon="-0.07362">
        <ele>451.6</ele>
        <time>2022-02-12T07:39:49Z</time>
      </trkpt>
      <trkpt lat="43.09569" lon="-0.07365">
        <ele>451.8</ele>
        <time>2022-02-12T07:39:50Z</time>
      </trkpt>
      <trkpt lat="43.09569" lon="-0.07368">
        <ele>451.8</ele>
        <time>2022-02-12T07:39:51Z</time>
      </trkpt>
      <trkpt lat="43.09569" lon="-0.07371">
        <ele>452</ele>
        <time>2022-02-12T07:39:52Z</time>
      </trkpt>
      <trkpt lat="43.0957" lon="-0.07374">
        <ele>452</ele>
        <time>2022-02-12T07:39:53Z</time>
      </trkpt>
      <trkpt lat="43.0957" lon="-0.07377">
        <ele>452.4</ele>
        <time>2022-02-12T07:39:54Z</time>
      </trkpt>
      <trkpt lat="43.09571" lon="-0.07379">
        <ele>452.6</ele>
        <time>2022-02-12T07:39:55Z</time>
      </trkpt>
      <trkpt lat="43.09571" lon="-0.07382">
        <ele>452.8</ele>
        <time>2022-02-12T07:39:56Z</time>
      </trkpt>
      <trkpt lat="43.09571" lon="-0.07385">
        <ele>452.8</ele>
        <time>2022-02-12T07:39:57Z</time>
      </trkpt>
      <trkpt lat="43.09571" lon="-0.07388">
        <ele>453</ele>
        <time>2022-02-12T07:39:58Z</time>
      </trkpt>
      <trkpt lat="43.09571" lon="-0.07391">
        <ele>453</ele>
        <time>2022-02-12T07:39:59Z</time>
      </trkpt>
      <trkpt lat="43.09571" lon="-0.07394">
        <ele>453.2</ele>
        <time>2022-02-12T07:40:00Z</time>
      </trkpt>
      <trkpt lat="43.09571" lon="-0.07397">
        <ele>453.4</ele>
        <time>2022-02-12T07:40:01Z</time>
      </trkpt>
      <trkpt lat="43.09571" lon="-0.07399">
        <ele>453.6</ele>
        <time>2022-02-12T07:40:02Z</time>
      </trkpt>
      <trkpt lat="43.09571" lon="-0.07401">
        <ele>453.8</ele>
        <time>2022-02-12T07:40:03Z</time>
      </trkpt>
      <trkpt lat="43.09571" lon="-0.07404">
        <ele>454</ele>
        <time>2022-02-12T07:40:04Z</time>
      </trkpt>
      <trkpt lat="43.09571" lon="-0.07406">
        <ele>454.2</ele>
        <time>2022-02-12T07:40:05Z</time>
      </trkpt>
      <trkpt lat="43.09571" lon="-0.07409">
        <ele>454.2</ele>
        <time>2022-02-12T07:40:06Z</time>
      </trkpt>
      <trkpt lat="43.09571" lon="-0.07412">
        <ele>454.4</ele>
        <time>2022-02-12T07:40:07Z</time>
      </trkpt>
      <trkpt lat="43.09571" lon="-0.07415">
        <ele>454.6</ele>
        <time>2022-02-12T07:40:08Z</time>
      </trkpt>
      <trkpt lat="43.09571" lon="-0.07418">
        <ele>454.8</ele>
        <time>2022-02-12T07:40:09Z</time>
      </trkpt>
      <trkpt lat="43.09572" lon="-0.0742">
        <ele>454.8</ele>
        <time>2022-02-12T07:40:10Z</time>
      </trkpt>
      <trkpt lat="43.09572" lon="-0.07422">
        <ele>455.2</ele>
        <time>2022-02-12T07:40:11Z</time>
      </trkpt>
      <trkpt lat="43.09572" lon="-0.07424">
        <ele>455.4</ele>
        <time>2022-02-12T07:40:12Z</time>
      </trkpt>
      <trkpt lat="43.09573" lon="-0.07427">
        <ele>455.6</ele>
        <time>2022-02-12T07:40:13Z</time>
      </trkpt>
      <trkpt lat="43.09573" lon="-0.07429">
        <ele>455.8</ele>
        <time>2022-02-12T07:40:14Z</time>
      </trkpt>
      <trkpt lat="43.09572" lon="-0.07431">
        <ele>455.8</ele>
        <time>2022-02-12T07:40:15Z</time>
      </trkpt>
      <trkpt lat="43.09571" lon="-0.07434">
        <ele>456</ele>
        <time>2022-02-12T07:40:16Z</time>
      </trkpt>
      <trkpt lat="43.09571" lon="-0.07438">
        <ele>456.2</ele>
        <time>2022-02-12T07:40:17Z</time>
      </trkpt>
      <trkpt lat="43.0957" lon="-0.07441">
        <ele>456.8</ele>
        <time>2022-02-12T07:40:18Z</time>
      </trkpt>
      <trkpt lat="43.09571" lon="-0.07444">
        <ele>456.8</ele>
        <time>2022-02-12T07:40:19Z</time>
      </trkpt>
      <trkpt lat="43.0957" lon="-0.07447">
        <ele>457</ele>
        <time>2022-02-12T07:40:20Z</time>
      </trkpt>
      <trkpt lat="43.0957" lon="-0.0745">
        <ele>457</ele>
        <time>2022-02-12T07:40:21Z</time>
      </trkpt>
      <trkpt lat="43.09568" lon="-0.07453">
        <ele>457.2</ele>
        <time>2022-02-12T07:40:22Z</time>
      </trkpt>
      <trkpt lat="43.09567" lon="-0.07455">
        <ele>457.4</ele>
        <time>2022-02-12T07:40:23Z</time>
      </trkpt>
      <trkpt lat="43.09567" lon="-0.07458">
        <ele>457.6</ele>
        <time>2022-02-12T07:40:24Z</time>
      </trkpt>
      <trkpt lat="43.09566" lon="-0.07461">
        <ele>457.6</ele>
        <time>2022-02-12T07:40:25Z</time>
      </trkpt>
      <trkpt lat="43.09565" lon="-0.07464">
        <ele>457.8</ele>
        <time>2022-02-12T07:40:26Z</time>
      </trkpt>
      <trkpt lat="43.09565" lon="-0.07466">
        <ele>457.8</ele>
        <time>2022-02-12T07:40:27Z</time>
      </trkpt>
      <trkpt lat="43.09565" lon="-0.07468">
        <ele>458</ele>
        <time>2022-02-12T07:40:28Z</time>
      </trkpt>
      <trkpt lat="43.09565" lon="-0.07471">
        <ele>458.2</ele>
        <time>2022-02-12T07:40:29Z</time>
      </trkpt>
      <trkpt lat="43.09565" lon="-0.07473">
        <ele>458.2</ele>
        <time>2022-02-12T07:40:30Z</time>
      </trkpt>
      <trkpt lat="43.09565" lon="-0.07476">
        <ele>458.4</ele>
        <time>2022-02-12T07:40:31Z</time>
      </trkpt>
      <trkpt lat="43.09565" lon="-0.07478">
        <ele>458.6</ele>
        <time>2022-02-12T07:40:32Z</time>
      </trkpt>
      <trkpt lat="43.09565" lon="-0.07481">
        <ele>458.8</ele>
        <time>2022-02-12T07:40:33Z</time>
      </trkpt>
      <trkpt lat="43.09564" lon="-0.07484">
        <ele>459</ele>
        <time>2022-02-12T07:40:34Z</time>
      </trkpt>
      <trkpt lat="43.09564" lon="-0.07487">
        <ele>459</ele>
        <time>2022-02-12T07:40:35Z</time>
      </trkpt>
      <trkpt lat="43.09564" lon="-0.07489">
        <ele>459.2</ele>
        <time>2022-02-12T07:40:36Z</time>
      </trkpt>
      <trkpt lat="43.09563" lon="-0.07492">
        <ele>459.4</ele>
        <time>2022-02-12T07:40:37Z</time>
      </trkpt>
      <trkpt lat="43.09563" lon="-0.07494">
        <ele>459.6</ele>
        <time>2022-02-12T07:40:38Z</time>
      </trkpt>
      <trkpt lat="43.09562" lon="-0.07496">
        <ele>459.8</ele>
        <time>2022-02-12T07:40:39Z</time>
      </trkpt>
      <trkpt lat="43.09561" lon="-0.07499">
        <ele>460</ele>
        <time>2022-02-12T07:40:40Z</time>
      </trkpt>
      <trkpt lat="43.0956" lon="-0.07502">
        <ele>460</ele>
        <time>2022-02-12T07:40:41Z</time>
      </trkpt>
      <trkpt lat="43.0956" lon="-0.07504">
        <ele>460.2</ele>
        <time>2022-02-12T07:40:42Z</time>
      </trkpt>
      <trkpt lat="43.09559" lon="-0.07506">
        <ele>460.2</ele>
        <time>2022-02-12T07:40:43Z</time>
      </trkpt>
      <trkpt lat="43.09558" lon="-0.07508">
        <ele>460.2</ele>
        <time>2022-02-12T07:40:44Z</time>
      </trkpt>
      <trkpt lat="43.09558" lon="-0.0751">
        <ele>460.4</ele>
        <time>2022-02-12T07:40:45Z</time>
      </trkpt>
      <trkpt lat="43.09557" lon="-0.07511">
        <ele>460.4</ele>
        <time>2022-02-12T07:40:46Z</time>
      </trkpt>
      <trkpt lat="43.09557" lon="-0.07512">
        <ele>460.8</ele>
        <time>2022-02-12T07:40:47Z</time>
      </trkpt>
      <trkpt lat="43.09556" lon="-0.07514">
        <ele>460.8</ele>
        <time>2022-02-12T07:40:48Z</time>
      </trkpt>
      <trkpt lat="43.09555" lon="-0.07516">
        <ele>461</ele>
        <time>2022-02-12T07:40:49Z</time>
      </trkpt>
      <trkpt lat="43.09554" lon="-0.07518">
        <ele>461.2</ele>
        <time>2022-02-12T07:40:50Z</time>
      </trkpt>
      <trkpt lat="43.09553" lon="-0.07521">
        <ele>461.2</ele>
        <time>2022-02-12T07:40:51Z</time>
      </trkpt>
      <trkpt lat="43.09553" lon="-0.07523">
        <ele>461.4</ele>
        <time>2022-02-12T07:40:52Z</time>
      </trkpt>
      <trkpt lat="43.09552" lon="-0.07526">
        <ele>461.4</ele>
        <time>2022-02-12T07:40:53Z</time>
      </trkpt>
      <trkpt lat="43.09551" lon="-0.07528">
        <ele>461.6</ele>
        <time>2022-02-12T07:40:54Z</time>
      </trkpt>
      <trkpt lat="43.0955" lon="-0.07531">
        <ele>461.6</ele>
        <time>2022-02-12T07:40:55Z</time>
      </trkpt>
      <trkpt lat="43.09549" lon="-0.07533">
        <ele>461.8</ele>
        <time>2022-02-12T07:40:56Z</time>
      </trkpt>
      <trkpt lat="43.09548" lon="-0.07536">
        <ele>461.8</ele>
        <time>2022-02-12T07:40:57Z</time>
      </trkpt>
      <trkpt lat="43.09548" lon="-0.07539">
        <ele>462</ele>
        <time>2022-02-12T07:40:58Z</time>
      </trkpt>
      <trkpt lat="43.09547" lon="-0.07542">
        <ele>462</ele>
        <time>2022-02-12T07:40:59Z</time>
      </trkpt>
      <trkpt lat="43.09545" lon="-0.07544">
        <ele>462.2</ele>
        <time>2022-02-12T07:41:00Z</time>
      </trkpt>
      <trkpt lat="43.09544" lon="-0.07547">
        <ele>462.2</ele>
        <time>2022-02-12T07:41:01Z</time>
      </trkpt>
      <trkpt lat="43.09542" lon="-0.07548">
        <ele>462.2</ele>
        <time>2022-02-12T07:41:02Z</time>
      </trkpt>
      <trkpt lat="43.09541" lon="-0.07552">
        <ele>462.2</ele>
        <time>2022-02-12T07:41:03Z</time>
      </trkpt>
      <trkpt lat="43.09539" lon="-0.07556">
        <ele>462.2</ele>
        <time>2022-02-12T07:41:04Z</time>
      </trkpt>
      <trkpt lat="43.09537" lon="-0.07562">
        <ele>462.2</ele>
        <time>2022-02-12T07:41:05Z</time>
      </trkpt>
      <trkpt lat="43.09535" lon="-0.07567">
        <ele>462.2</ele>
        <time>2022-02-12T07:41:06Z</time>
      </trkpt>
      <trkpt lat="43.09532" lon="-0.07576">
        <ele>462.2</ele>
        <time>2022-02-12T07:41:07Z</time>
      </trkpt>
      <trkpt lat="43.0953" lon="-0.07582">
        <ele>462.2</ele>
        <time>2022-02-12T07:41:08Z</time>
      </trkpt>
      <trkpt lat="43.09527" lon="-0.07589">
        <ele>462</ele>
        <time>2022-02-12T07:41:09Z</time>
      </trkpt>
      <trkpt lat="43.09523" lon="-0.07597">
        <ele>462</ele>
        <time>2022-02-12T07:41:10Z</time>
      </trkpt>
      <trkpt lat="43.0952" lon="-0.07602">
        <ele>461.6</ele>
        <time>2022-02-12T07:41:11Z</time>
      </trkpt>
      <trkpt lat="43.09516" lon="-0.07608">
        <ele>461.6</ele>
        <time>2022-02-12T07:41:12Z</time>
      </trkpt>
      <trkpt lat="43.09513" lon="-0.07613">
        <ele>461.6</ele>
        <time>2022-02-12T07:41:13Z</time>
      </trkpt>
      <trkpt lat="43.09509" lon="-0.07618">
        <ele>461.4</ele>
        <time>2022-02-12T07:41:14Z</time>
      </trkpt>
      <trkpt lat="43.09504" lon="-0.07622">
        <ele>461.2</ele>
        <time>2022-02-12T07:41:15Z</time>
      </trkpt>
      <trkpt lat="43.09499" lon="-0.07627">
        <ele>461</ele>
        <time>2022-02-12T07:41:16Z</time>
      </trkpt>
      <trkpt lat="43.09495" lon="-0.07629">
        <ele>461</ele>
        <time>2022-02-12T07:41:17Z</time>
      </trkpt>
      <trkpt lat="43.0949" lon="-0.07631">
        <ele>460.8</ele>
        <time>2022-02-12T07:41:18Z</time>
      </trkpt>
      <trkpt lat="43.09484" lon="-0.07633">
        <ele>460.8</ele>
        <time>2022-02-12T07:41:19Z</time>
      </trkpt>
      <trkpt lat="43.09479" lon="-0.07636">
        <ele>460.6</ele>
        <time>2022-02-12T07:41:20Z</time>
      </trkpt>
      <trkpt lat="43.09476" lon="-0.0764">
        <ele>460.6</ele>
        <time>2022-02-12T07:41:21Z</time>
      </trkpt>
      <trkpt lat="43.09472" lon="-0.07645">
        <ele>460.4</ele>
        <time>2022-02-12T07:41:22Z</time>
      </trkpt>
      <trkpt lat="43.09469" lon="-0.07653">
        <ele>460.4</ele>
        <time>2022-02-12T07:41:23Z</time>
      </trkpt>
      <trkpt lat="43.09467" lon="-0.07658">
        <ele>460.2</ele>
        <time>2022-02-12T07:41:24Z</time>
      </trkpt>
      <trkpt lat="43.09466" lon="-0.07665">
        <ele>460</ele>
        <time>2022-02-12T07:41:25Z</time>
      </trkpt>
      <trkpt lat="43.09466" lon="-0.07671">
        <ele>459.6</ele>
        <time>2022-02-12T07:41:26Z</time>
      </trkpt>
      <trkpt lat="43.09466" lon="-0.07678">
        <ele>459.4</ele>
        <time>2022-02-12T07:41:27Z</time>
      </trkpt>
      <trkpt lat="43.09468" lon="-0.07684">
        <ele>459</ele>
        <time>2022-02-12T07:41:28Z</time>
      </trkpt>
      <trkpt lat="43.0947" lon="-0.0769">
        <ele>458.8</ele>
        <time>2022-02-12T07:41:29Z</time>
      </trkpt>
      <trkpt lat="43.09472" lon="-0.07696">
        <ele>458.4</ele>
        <time>2022-02-12T07:41:30Z</time>
      </trkpt>
      <trkpt lat="43.09474" lon="-0.07701">
        <ele>458.2</ele>
        <time>2022-02-12T07:41:31Z</time>
      </trkpt>
      <trkpt lat="43.09476" lon="-0.07705">
        <ele>458.2</ele>
        <time>2022-02-12T07:41:32Z</time>
      </trkpt>
      <trkpt lat="43.09478" lon="-0.07708">
        <ele>458</ele>
        <time>2022-02-12T07:41:33Z</time>
      </trkpt>
      <trkpt lat="43.0948" lon="-0.07712">
        <ele>458</ele>
        <time>2022-02-12T07:41:34Z</time>
      </trkpt>
      <trkpt lat="43.09483" lon="-0.07714">
        <ele>458</ele>
        <time>2022-02-12T07:41:35Z</time>
      </trkpt>
      <trkpt lat="43.09485" lon="-0.07717">
        <ele>457.8</ele>
        <time>2022-02-12T07:41:36Z</time>
      </trkpt>
      <trkpt lat="43.09489" lon="-0.0772">
        <ele>457.8</ele>
        <time>2022-02-12T07:41:37Z</time>
      </trkpt>
      <trkpt lat="43.09493" lon="-0.07723">
        <ele>457.6</ele>
        <time>2022-02-12T07:41:38Z</time>
      </trkpt>
      <trkpt lat="43.09497" lon="-0.07727">
        <ele>457.6</ele>
        <time>2022-02-12T07:41:39Z</time>
      </trkpt>
      <trkpt lat="43.09501" lon="-0.07732">
        <ele>457.6</ele>
        <time>2022-02-12T07:41:40Z</time>
      </trkpt>
      <trkpt lat="43.09504" lon="-0.07737">
        <ele>457.4</ele>
        <time>2022-02-12T07:41:41Z</time>
      </trkpt>
      <trkpt lat="43.09506" lon="-0.07741">
        <ele>457.4</ele>
        <time>2022-02-12T07:41:42Z</time>
      </trkpt>
      <trkpt lat="43.09507" lon="-0.07745">
        <ele>457.4</ele>
        <time>2022-02-12T07:41:43Z</time>
      </trkpt>
      <trkpt lat="43.09509" lon="-0.0775">
        <ele>457.4</ele>
        <time>2022-02-12T07:41:44Z</time>
      </trkpt>
      <trkpt lat="43.0951" lon="-0.07753">
        <ele>457.4</ele>
        <time>2022-02-12T07:41:45Z</time>
      </trkpt>
      <trkpt lat="43.09512" lon="-0.07757">
        <ele>457.4</ele>
        <time>2022-02-12T07:41:46Z</time>
      </trkpt>
      <trkpt lat="43.09515" lon="-0.07761">
        <ele>457.4</ele>
        <time>2022-02-12T07:41:47Z</time>
      </trkpt>
      <trkpt lat="43.09517" lon="-0.07766">
        <ele>457.4</ele>
        <time>2022-02-12T07:41:48Z</time>
      </trkpt>
      <trkpt lat="43.09521" lon="-0.07772">
        <ele>457.6</ele>
        <time>2022-02-12T07:41:49Z</time>
      </trkpt>
      <trkpt lat="43.09523" lon="-0.07777">
        <ele>457.6</ele>
        <time>2022-02-12T07:41:50Z</time>
      </trkpt>
      <trkpt lat="43.09525" lon="-0.07783">
        <ele>457.4</ele>
        <time>2022-02-12T07:41:51Z</time>
      </trkpt>
      <trkpt lat="43.09527" lon="-0.07789">
        <ele>457.6</ele>
        <time>2022-02-12T07:41:52Z</time>
      </trkpt>
      <trkpt lat="43.09529" lon="-0.07795">
        <ele>457.6</ele>
        <time>2022-02-12T07:41:53Z</time>
      </trkpt>
      <trkpt lat="43.09531" lon="-0.07801">
        <ele>457.6</ele>
        <time>2022-02-12T07:41:54Z</time>
      </trkpt>
      <trkpt lat="43.09534" lon="-0.07806">
        <ele>457.6</ele>
        <time>2022-02-12T07:41:55Z</time>
      </trkpt>
      <trkpt lat="43.09536" lon="-0.07811">
        <ele>457.8</ele>
        <time>2022-02-12T07:41:56Z</time>
      </trkpt>
      <trkpt lat="43.09538" lon="-0.07816">
        <ele>457.8</ele>
        <time>2022-02-12T07:41:57Z</time>
      </trkpt>
      <trkpt lat="43.09539" lon="-0.07821">
        <ele>458</ele>
        <time>2022-02-12T07:41:58Z</time>
      </trkpt>
      <trkpt lat="43.0954" lon="-0.07827">
        <ele>458</ele>
        <time>2022-02-12T07:41:59Z</time>
      </trkpt>
      <trkpt lat="43.0954" lon="-0.07833">
        <ele>458</ele>
        <time>2022-02-12T07:42:00Z</time>
      </trkpt>
      <trkpt lat="43.09539" lon="-0.07839">
        <ele>458</ele>
        <time>2022-02-12T07:42:01Z</time>
      </trkpt>
      <trkpt lat="43.09539" lon="-0.07845">
        <ele>458</ele>
        <time>2022-02-12T07:42:02Z</time>
      </trkpt>
      <trkpt lat="43.09539" lon="-0.0785">
        <ele>458</ele>
        <time>2022-02-12T07:42:03Z</time>
      </trkpt>
      <trkpt lat="43.09539" lon="-0.07855">
        <ele>458</ele>
        <time>2022-02-12T07:42:04Z</time>
      </trkpt>
      <trkpt lat="43.09539" lon="-0.0786">
        <ele>458</ele>
        <time>2022-02-12T07:42:05Z</time>
      </trkpt>
      <trkpt lat="43.09539" lon="-0.07864">
        <ele>458</ele>
        <time>2022-02-12T07:42:06Z</time>
      </trkpt>
      <trkpt lat="43.0954" lon="-0.07868">
        <ele>458</ele>
        <time>2022-02-12T07:42:07Z</time>
      </trkpt>
      <trkpt lat="43.0954" lon="-0.07871">
        <ele>458</ele>
        <time>2022-02-12T07:42:08Z</time>
      </trkpt>
      <trkpt lat="43.0954" lon="-0.07874">
        <ele>458</ele>
        <time>2022-02-12T07:42:09Z</time>
      </trkpt>
      <trkpt lat="43.09541" lon="-0.07877">
        <ele>458</ele>
        <time>2022-02-12T07:42:10Z</time>
      </trkpt>
      <trkpt lat="43.0954" lon="-0.07879">
        <ele>458</ele>
        <time>2022-02-12T07:42:11Z</time>
      </trkpt>
      <trkpt lat="43.0954" lon="-0.07882">
        <ele>458</ele>
        <time>2022-02-12T07:42:12Z</time>
      </trkpt>
      <trkpt lat="43.0954" lon="-0.07885">
        <ele>458.2</ele>
        <time>2022-02-12T07:42:13Z</time>
      </trkpt>
      <trkpt lat="43.09541" lon="-0.07887">
        <ele>458.4</ele>
        <time>2022-02-12T07:42:14Z</time>
      </trkpt>
      <trkpt lat="43.09541" lon="-0.0789">
        <ele>458.8</ele>
        <time>2022-02-12T07:42:15Z</time>
      </trkpt>
      <trkpt lat="43.09541" lon="-0.07893">
        <ele>459</ele>
        <time>2022-02-12T07:42:16Z</time>
      </trkpt>
      <trkpt lat="43.09542" lon="-0.07896">
        <ele>459.4</ele>
        <time>2022-02-12T07:42:17Z</time>
      </trkpt>
      <trkpt lat="43.09542" lon="-0.07898">
        <ele>459.6</ele>
        <time>2022-02-12T07:42:18Z</time>
      </trkpt>
      <trkpt lat="43.09541" lon="-0.079">
        <ele>459.6</ele>
        <time>2022-02-12T07:42:19Z</time>
      </trkpt>
      <trkpt lat="43.09541" lon="-0.07902">
        <ele>459.8</ele>
        <time>2022-02-12T07:42:20Z</time>
      </trkpt>
      <trkpt lat="43.0954" lon="-0.07904">
        <ele>460</ele>
        <time>2022-02-12T07:42:21Z</time>
      </trkpt>
      <trkpt lat="43.0954" lon="-0.07907">
        <ele>460.2</ele>
        <time>2022-02-12T07:42:22Z</time>
      </trkpt>
      <trkpt lat="43.09539" lon="-0.0791">
        <ele>460.4</ele>
        <time>2022-02-12T07:42:23Z</time>
      </trkpt>
      <trkpt lat="43.09539" lon="-0.07913">
        <ele>460.4</ele>
        <time>2022-02-12T07:42:24Z</time>
      </trkpt>
      <trkpt lat="43.09539" lon="-0.07917">
        <ele>460.6</ele>
        <time>2022-02-12T07:42:25Z</time>
      </trkpt>
      <trkpt lat="43.09539" lon="-0.07921">
        <ele>460.6</ele>
        <time>2022-02-12T07:42:26Z</time>
      </trkpt>
      <trkpt lat="43.0954" lon="-0.07924">
        <ele>460.6</ele>
        <time>2022-02-12T07:42:27Z</time>
      </trkpt>
      <trkpt lat="43.09541" lon="-0.07928">
        <ele>460.6</ele>
        <time>2022-02-12T07:42:28Z</time>
      </trkpt>
      <trkpt lat="43.09542" lon="-0.07931">
        <ele>460.8</ele>
        <time>2022-02-12T07:42:29Z</time>
      </trkpt>
      <trkpt lat="43.09542" lon="-0.07935">
        <ele>461</ele>
        <time>2022-02-12T07:42:30Z</time>
      </trkpt>
      <trkpt lat="43.09544" lon="-0.07939">
        <ele>461</ele>
        <time>2022-02-12T07:42:31Z</time>
      </trkpt>
      <trkpt lat="43.09542" lon="-0.07943">
        <ele>461</ele>
        <time>2022-02-12T07:42:32Z</time>
      </trkpt>
      <trkpt lat="43.09542" lon="-0.07947">
        <ele>461</ele>
        <time>2022-02-12T07:42:33Z</time>
      </trkpt>
      <trkpt lat="43.09542" lon="-0.0795">
        <ele>461.2</ele>
        <time>2022-02-12T07:42:34Z</time>
      </trkpt>
      <trkpt lat="43.09543" lon="-0.07954">
        <ele>461.2</ele>
        <time>2022-02-12T07:42:35Z</time>
      </trkpt>
      <trkpt lat="43.09541" lon="-0.07958">
        <ele>461.4</ele>
        <time>2022-02-12T07:42:36Z</time>
      </trkpt>
      <trkpt lat="43.09541" lon="-0.07961">
        <ele>461.6</ele>
        <time>2022-02-12T07:42:37Z</time>
      </trkpt>
      <trkpt lat="43.09541" lon="-0.07964">
        <ele>461.8</ele>
        <time>2022-02-12T07:42:38Z</time>
      </trkpt>
      <trkpt lat="43.09543" lon="-0.07967">
        <ele>461.8</ele>
        <time>2022-02-12T07:42:39Z</time>
      </trkpt>
      <trkpt lat="43.09544" lon="-0.07969">
        <ele>462</ele>
        <time>2022-02-12T07:42:40Z</time>
      </trkpt>
      <trkpt lat="43.09545" lon="-0.07974">
        <ele>462</ele>
        <time>2022-02-12T07:42:41Z</time>
      </trkpt>
      <trkpt lat="43.09544" lon="-0.07978">
        <ele>462.2</ele>
        <time>2022-02-12T07:42:42Z</time>
      </trkpt>
      <trkpt lat="43.09543" lon="-0.07982">
        <ele>462.4</ele>
        <time>2022-02-12T07:42:43Z</time>
      </trkpt>
      <trkpt lat="43.09543" lon="-0.07984">
        <ele>462.4</ele>
        <time>2022-02-12T07:42:44Z</time>
      </trkpt>
      <trkpt lat="43.09544" lon="-0.07987">
        <ele>462.4</ele>
        <time>2022-02-12T07:42:45Z</time>
      </trkpt>
      <trkpt lat="43.09545" lon="-0.07991">
        <ele>462.6</ele>
        <time>2022-02-12T07:42:46Z</time>
      </trkpt>
      <trkpt lat="43.09546" lon="-0.07996">
        <ele>462.6</ele>
        <time>2022-02-12T07:42:47Z</time>
      </trkpt>
      <trkpt lat="43.09547" lon="-0.07998">
        <ele>463</ele>
        <time>2022-02-12T07:42:48Z</time>
      </trkpt>
      <trkpt lat="43.09547" lon="-0.07998">
        <ele>463</ele>
        <time>2022-02-12T07:42:49Z</time>
      </trkpt>
      <trkpt lat="43.09548" lon="-0.08001">
        <ele>463.2</ele>
        <time>2022-02-12T07:42:50Z</time>
      </trkpt>
      <trkpt lat="43.09548" lon="-0.08005">
        <ele>463.2</ele>
        <time>2022-02-12T07:42:51Z</time>
      </trkpt>
      <trkpt lat="43.09549" lon="-0.08008">
        <ele>463.4</ele>
        <time>2022-02-12T07:42:52Z</time>
      </trkpt>
      <trkpt lat="43.0955" lon="-0.08012">
        <ele>463.6</ele>
        <time>2022-02-12T07:42:53Z</time>
      </trkpt>
      <trkpt lat="43.09551" lon="-0.08015">
        <ele>463.6</ele>
        <time>2022-02-12T07:42:54Z</time>
      </trkpt>
      <trkpt lat="43.09551" lon="-0.08019">
        <ele>463.8</ele>
        <time>2022-02-12T07:42:55Z</time>
      </trkpt>
      <trkpt lat="43.09552" lon="-0.08024">
        <ele>463.8</ele>
        <time>2022-02-12T07:42:56Z</time>
      </trkpt>
      <trkpt lat="43.09554" lon="-0.08029">
        <ele>464</ele>
        <time>2022-02-12T07:42:57Z</time>
      </trkpt>
      <trkpt lat="43.09554" lon="-0.08034">
        <ele>464.2</ele>
        <time>2022-02-12T07:42:58Z</time>
      </trkpt>
      <trkpt lat="43.09555" lon="-0.08038">
        <ele>464.2</ele>
        <time>2022-02-12T07:42:59Z</time>
      </trkpt>
      <trkpt lat="43.09556" lon="-0.08042">
        <ele>464.4</ele>
        <time>2022-02-12T07:43:00Z</time>
      </trkpt>
      <trkpt lat="43.09556" lon="-0.08047">
        <ele>464.6</ele>
        <time>2022-02-12T07:43:01Z</time>
      </trkpt>
      <trkpt lat="43.09556" lon="-0.08051">
        <ele>464.6</ele>
        <time>2022-02-12T07:43:02Z</time>
      </trkpt>
      <trkpt lat="43.09555" lon="-0.08055">
        <ele>464.6</ele>
        <time>2022-02-12T07:43:03Z</time>
      </trkpt>
      <trkpt lat="43.09555" lon="-0.08059">
        <ele>464.6</ele>
        <time>2022-02-12T07:43:04Z</time>
      </trkpt>
      <trkpt lat="43.09556" lon="-0.08062">
        <ele>464.8</ele>
        <time>2022-02-12T07:43:05Z</time>
      </trkpt>
      <trkpt lat="43.09556" lon="-0.08065">
        <ele>465</ele>
        <time>2022-02-12T07:43:06Z</time>
      </trkpt>
      <trkpt lat="43.09557" lon="-0.08068">
        <ele>465</ele>
        <time>2022-02-12T07:43:07Z</time>
      </trkpt>
      <trkpt lat="43.09559" lon="-0.08071">
        <ele>465.2</ele>
        <time>2022-02-12T07:43:08Z</time>
      </trkpt>
      <trkpt lat="43.09561" lon="-0.08073">
        <ele>465.2</ele>
        <time>2022-02-12T07:43:09Z</time>
      </trkpt>
      <trkpt lat="43.09563" lon="-0.08077">
        <ele>465.2</ele>
        <time>2022-02-12T07:43:10Z</time>
      </trkpt>
      <trkpt lat="43.09563" lon="-0.08079">
        <ele>465.4</ele>
        <time>2022-02-12T07:43:11Z</time>
      </trkpt>
      <trkpt lat="43.09562" lon="-0.08082">
        <ele>465.4</ele>
        <time>2022-02-12T07:43:12Z</time>
      </trkpt>
      <trkpt lat="43.09562" lon="-0.08084">
        <ele>465.6</ele>
        <time>2022-02-12T07:43:13Z</time>
      </trkpt>
      <trkpt lat="43.09563" lon="-0.08087">
        <ele>465.6</ele>
        <time>2022-02-12T07:43:14Z</time>
      </trkpt>
      <trkpt lat="43.09564" lon="-0.0809">
        <ele>465.8</ele>
        <time>2022-02-12T07:43:15Z</time>
      </trkpt>
      <trkpt lat="43.09565" lon="-0.08093">
        <ele>466</ele>
        <time>2022-02-12T07:43:16Z</time>
      </trkpt>
      <trkpt lat="43.09566" lon="-0.08097">
        <ele>466</ele>
        <time>2022-02-12T07:43:17Z</time>
      </trkpt>
      <trkpt lat="43.09565" lon="-0.08101">
        <ele>466.2</ele>
        <time>2022-02-12T07:43:18Z</time>
      </trkpt>
      <trkpt lat="43.09567" lon="-0.08103">
        <ele>466.2</ele>
        <time>2022-02-12T07:43:19Z</time>
      </trkpt>
      <trkpt lat="43.09568" lon="-0.08106">
        <ele>466.4</ele>
        <time>2022-02-12T07:43:20Z</time>
      </trkpt>
      <trkpt lat="43.09568" lon="-0.08109">
        <ele>466.4</ele>
        <time>2022-02-12T07:43:21Z</time>
      </trkpt>
      <trkpt lat="43.09569" lon="-0.08112">
        <ele>466.6</ele>
        <time>2022-02-12T07:43:22Z</time>
      </trkpt>
      <trkpt lat="43.09569" lon="-0.08115">
        <ele>466.6</ele>
        <time>2022-02-12T07:43:23Z</time>
      </trkpt>
      <trkpt lat="43.09569" lon="-0.08117">
        <ele>466.8</ele>
        <time>2022-02-12T07:43:24Z</time>
      </trkpt>
      <trkpt lat="43.09565" lon="-0.08119">
        <ele>467</ele>
        <time>2022-02-12T07:43:25Z</time>
      </trkpt>
      <trkpt lat="43.09563" lon="-0.08121">
        <ele>467</ele>
        <time>2022-02-12T07:43:26Z</time>
      </trkpt>
      <trkpt lat="43.09563" lon="-0.08124">
        <ele>467.2</ele>
        <time>2022-02-12T07:43:27Z</time>
      </trkpt>
      <trkpt lat="43.09563" lon="-0.08127">
        <ele>467.4</ele>
        <time>2022-02-12T07:43:28Z</time>
      </trkpt>
      <trkpt lat="43.09561" lon="-0.0813">
        <ele>467.4</ele>
        <time>2022-02-12T07:43:29Z</time>
      </trkpt>
      <trkpt lat="43.09562" lon="-0.08133">
        <ele>467.6</ele>
        <time>2022-02-12T07:43:30Z</time>
      </trkpt>
      <trkpt lat="43.09562" lon="-0.08135">
        <ele>467.6</ele>
        <time>2022-02-12T07:43:31Z</time>
      </trkpt>
      <trkpt lat="43.09562" lon="-0.08137">
        <ele>467.6</ele>
        <time>2022-02-12T07:43:32Z</time>
      </trkpt>
      <trkpt lat="43.09563" lon="-0.0814">
        <ele>467.6</ele>
        <time>2022-02-12T07:43:33Z</time>
      </trkpt>
      <trkpt lat="43.09563" lon="-0.08142">
        <ele>467.8</ele>
        <time>2022-02-12T07:43:34Z</time>
      </trkpt>
      <trkpt lat="43.09563" lon="-0.08142">
        <ele>468</ele>
        <time>2022-02-12T07:43:35Z</time>
      </trkpt>
      <trkpt lat="43.09563" lon="-0.08143">
        <ele>468.2</ele>
        <time>2022-02-12T07:43:36Z</time>
      </trkpt>
      <trkpt lat="43.09564" lon="-0.08145">
        <ele>468.4</ele>
        <time>2022-02-12T07:43:37Z</time>
      </trkpt>
      <trkpt lat="43.09564" lon="-0.08147">
        <ele>468.4</ele>
        <time>2022-02-12T07:43:38Z</time>
      </trkpt>
      <trkpt lat="43.09564" lon="-0.08149">
        <ele>468.6</ele>
        <time>2022-02-12T07:43:39Z</time>
      </trkpt>
      <trkpt lat="43.09565" lon="-0.08151">
        <ele>468.6</ele>
        <time>2022-02-12T07:43:40Z</time>
      </trkpt>
      <trkpt lat="43.09565" lon="-0.08153">
        <ele>469</ele>
        <time>2022-02-12T07:43:41Z</time>
      </trkpt>
      <trkpt lat="43.09565" lon="-0.08155">
        <ele>469</ele>
        <time>2022-02-12T07:43:42Z</time>
      </trkpt>
      <trkpt lat="43.09566" lon="-0.08158">
        <ele>469.2</ele>
        <time>2022-02-12T07:43:43Z</time>
      </trkpt>
      <trkpt lat="43.09566" lon="-0.0816">
        <ele>469.4</ele>
        <time>2022-02-12T07:43:44Z</time>
      </trkpt>
      <trkpt lat="43.09566" lon="-0.08162">
        <ele>469.8</ele>
        <time>2022-02-12T07:43:45Z</time>
      </trkpt>
      <trkpt lat="43.09567" lon="-0.08164">
        <ele>470.2</ele>
        <time>2022-02-12T07:43:46Z</time>
      </trkpt>
      <trkpt lat="43.09567" lon="-0.08166">
        <ele>470.4</ele>
        <time>2022-02-12T07:43:47Z</time>
      </trkpt>
      <trkpt lat="43.09568" lon="-0.08169">
        <ele>470.6</ele>
        <time>2022-02-12T07:43:48Z</time>
      </trkpt>
      <trkpt lat="43.09568" lon="-0.08171">
        <ele>470.6</ele>
        <time>2022-02-12T07:43:49Z</time>
      </trkpt>
      <trkpt lat="43.09568" lon="-0.08173">
        <ele>470.8</ele>
        <time>2022-02-12T07:43:50Z</time>
      </trkpt>
      <trkpt lat="43.09568" lon="-0.08175">
        <ele>471</ele>
        <time>2022-02-12T07:43:51Z</time>
      </trkpt>
      <trkpt lat="43.09569" lon="-0.08177">
        <ele>471.4</ele>
        <time>2022-02-12T07:43:52Z</time>
      </trkpt>
      <trkpt lat="43.0957" lon="-0.08178">
        <ele>471.6</ele>
        <time>2022-02-12T07:43:53Z</time>
      </trkpt>
      <trkpt lat="43.0957" lon="-0.0818">
        <ele>471.6</ele>
        <time>2022-02-12T07:43:54Z</time>
      </trkpt>
      <trkpt lat="43.0957" lon="-0.08182">
        <ele>471.8</ele>
        <time>2022-02-12T07:43:55Z</time>
      </trkpt>
      <trkpt lat="43.0957" lon="-0.08183">
        <ele>471.8</ele>
        <time>2022-02-12T07:43:56Z</time>
      </trkpt>
      <trkpt lat="43.0957" lon="-0.08185">
        <ele>472</ele>
        <time>2022-02-12T07:43:57Z</time>
      </trkpt>
      <trkpt lat="43.09572" lon="-0.08189">
        <ele>472.2</ele>
        <time>2022-02-12T07:43:58Z</time>
      </trkpt>
      <trkpt lat="43.09572" lon="-0.08192">
        <ele>472.2</ele>
        <time>2022-02-12T07:43:59Z</time>
      </trkpt>
      <trkpt lat="43.09572" lon="-0.08194">
        <ele>472.6</ele>
        <time>2022-02-12T07:44:00Z</time>
      </trkpt>
      <trkpt lat="43.09572" lon="-0.08197">
        <ele>472.8</ele>
        <time>2022-02-12T07:44:01Z</time>
      </trkpt>
      <trkpt lat="43.09572" lon="-0.082">
        <ele>472.8</ele>
        <time>2022-02-12T07:44:02Z</time>
      </trkpt>
      <trkpt lat="43.09573" lon="-0.08202">
        <ele>473</ele>
        <time>2022-02-12T07:44:03Z</time>
      </trkpt>
      <trkpt lat="43.09574" lon="-0.08203">
        <ele>473.2</ele>
        <time>2022-02-12T07:44:04Z</time>
      </trkpt>
      <trkpt lat="43.09575" lon="-0.08208">
        <ele>473.4</ele>
        <time>2022-02-12T07:44:05Z</time>
      </trkpt>
      <trkpt lat="43.09575" lon="-0.08209">
        <ele>473.6</ele>
        <time>2022-02-12T07:44:06Z</time>
      </trkpt>
      <trkpt lat="43.09575" lon="-0.08209">
        <ele>473.8</ele>
        <time>2022-02-12T07:44:07Z</time>
      </trkpt>
      <trkpt lat="43.09575" lon="-0.08211">
        <ele>474</ele>
        <time>2022-02-12T07:44:08Z</time>
      </trkpt>
      <trkpt lat="43.09575" lon="-0.08213">
        <ele>474.2</ele>
        <time>2022-02-12T07:44:09Z</time>
      </trkpt>
      <trkpt lat="43.09575" lon="-0.08215">
        <ele>474.2</ele>
        <time>2022-02-12T07:44:10Z</time>
      </trkpt>
      <trkpt lat="43.09575" lon="-0.08215">
        <ele>474.4</ele>
        <time>2022-02-12T07:44:11Z</time>
      </trkpt>
      <trkpt lat="43.09574" lon="-0.08221">
        <ele>474.4</ele>
        <time>2022-02-12T07:44:12Z</time>
      </trkpt>
      <trkpt lat="43.09571" lon="-0.08223">
        <ele>474.6</ele>
        <time>2022-02-12T07:44:13Z</time>
      </trkpt>
      <trkpt lat="43.09571" lon="-0.08226">
        <ele>474.8</ele>
        <time>2022-02-12T07:44:14Z</time>
      </trkpt>
      <trkpt lat="43.09572" lon="-0.08228">
        <ele>475</ele>
        <time>2022-02-12T07:44:15Z</time>
      </trkpt>
      <trkpt lat="43.09572" lon="-0.08228">
        <ele>475.2</ele>
        <time>2022-02-12T07:44:16Z</time>
      </trkpt>
      <trkpt lat="43.09573" lon="-0.08233">
        <ele>475.4</ele>
        <time>2022-02-12T07:44:17Z</time>
      </trkpt>
      <trkpt lat="43.09572" lon="-0.08234">
        <ele>475.6</ele>
        <time>2022-02-12T07:44:18Z</time>
      </trkpt>
      <trkpt lat="43.09572" lon="-0.08237">
        <ele>475.8</ele>
        <time>2022-02-12T07:44:19Z</time>
      </trkpt>
      <trkpt lat="43.09571" lon="-0.08238">
        <ele>475.8</ele>
        <time>2022-02-12T07:44:20Z</time>
      </trkpt>
      <trkpt lat="43.0957" lon="-0.08239">
        <ele>476</ele>
        <time>2022-02-12T07:44:21Z</time>
      </trkpt>
      <trkpt lat="43.09569" lon="-0.08242">
        <ele>476.2</ele>
        <time>2022-02-12T07:44:22Z</time>
      </trkpt>
      <trkpt lat="43.0957" lon="-0.08245">
        <ele>476.2</ele>
        <time>2022-02-12T07:44:23Z</time>
      </trkpt>
      <trkpt lat="43.09568" lon="-0.08247">
        <ele>476.4</ele>
        <time>2022-02-12T07:44:24Z</time>
      </trkpt>
      <trkpt lat="43.09568" lon="-0.08249">
        <ele>476.6</ele>
        <time>2022-02-12T07:44:25Z</time>
      </trkpt>
      <trkpt lat="43.09568" lon="-0.08251">
        <ele>476.8</ele>
        <time>2022-02-12T07:44:26Z</time>
      </trkpt>
      <trkpt lat="43.09568" lon="-0.08254">
        <ele>477</ele>
        <time>2022-02-12T07:44:27Z</time>
      </trkpt>
      <trkpt lat="43.09567" lon="-0.08257">
        <ele>477.2</ele>
        <time>2022-02-12T07:44:28Z</time>
      </trkpt>
      <trkpt lat="43.09567" lon="-0.08257">
        <ele>477.2</ele>
        <time>2022-02-12T07:44:29Z</time>
      </trkpt>
      <trkpt lat="43.09568" lon="-0.08263">
        <ele>477.6</ele>
        <time>2022-02-12T07:44:30Z</time>
      </trkpt>
      <trkpt lat="43.09568" lon="-0.08265">
        <ele>477.6</ele>
        <time>2022-02-12T07:44:31Z</time>
      </trkpt>
      <trkpt lat="43.09566" lon="-0.08267">
        <ele>477.6</ele>
        <time>2022-02-12T07:44:32Z</time>
      </trkpt>
      <trkpt lat="43.09567" lon="-0.08269">
        <ele>477.8</ele>
        <time>2022-02-12T07:44:33Z</time>
      </trkpt>
      <trkpt lat="43.09568" lon="-0.0827">
        <ele>478</ele>
        <time>2022-02-12T07:44:34Z</time>
      </trkpt>
      <trkpt lat="43.09569" lon="-0.08272">
        <ele>478.2</ele>
        <time>2022-02-12T07:44:35Z</time>
      </trkpt>
      <trkpt lat="43.09569" lon="-0.08275">
        <ele>478.4</ele>
        <time>2022-02-12T07:44:36Z</time>
      </trkpt>
      <trkpt lat="43.09569" lon="-0.08277">
        <ele>478.4</ele>
        <time>2022-02-12T07:44:37Z</time>
      </trkpt>
      <trkpt lat="43.0957" lon="-0.0828">
        <ele>478.6</ele>
        <time>2022-02-12T07:44:38Z</time>
      </trkpt>
      <trkpt lat="43.0957" lon="-0.08282">
        <ele>478.8</ele>
        <time>2022-02-12T07:44:39Z</time>
      </trkpt>
      <trkpt lat="43.09569" lon="-0.08284">
        <ele>479</ele>
        <time>2022-02-12T07:44:40Z</time>
      </trkpt>
      <trkpt lat="43.0957" lon="-0.08286">
        <ele>479.2</ele>
        <time>2022-02-12T07:44:41Z</time>
      </trkpt>
      <trkpt lat="43.0957" lon="-0.08286">
        <ele>479.4</ele>
        <time>2022-02-12T07:44:42Z</time>
      </trkpt>
      <trkpt lat="43.0957" lon="-0.08291">
        <ele>479.6</ele>
        <time>2022-02-12T07:44:43Z</time>
      </trkpt>
      <trkpt lat="43.0957" lon="-0.08292">
        <ele>479.6</ele>
        <time>2022-02-12T07:44:44Z</time>
      </trkpt>
      <trkpt lat="43.09571" lon="-0.08294">
        <ele>479.8</ele>
        <time>2022-02-12T07:44:45Z</time>
      </trkpt>
      <trkpt lat="43.09571" lon="-0.08296">
        <ele>479.8</ele>
        <time>2022-02-12T07:44:46Z</time>
      </trkpt>
      <trkpt lat="43.09571" lon="-0.08297">
        <ele>480</ele>
        <time>2022-02-12T07:44:47Z</time>
      </trkpt>
      <trkpt lat="43.09572" lon="-0.08299">
        <ele>480.2</ele>
        <time>2022-02-12T07:44:48Z</time>
      </trkpt>
      <trkpt lat="43.09572" lon="-0.083">
        <ele>480.4</ele>
        <time>2022-02-12T07:44:49Z</time>
      </trkpt>
      <trkpt lat="43.09572" lon="-0.08302">
        <ele>480.4</ele>
        <time>2022-02-12T07:44:50Z</time>
      </trkpt>
      <trkpt lat="43.09572" lon="-0.08304">
        <ele>480.6</ele>
        <time>2022-02-12T07:44:51Z</time>
      </trkpt>
      <trkpt lat="43.09572" lon="-0.08306">
        <ele>480.8</ele>
        <time>2022-02-12T07:44:52Z</time>
      </trkpt>
      <trkpt lat="43.0957" lon="-0.08307">
        <ele>480.8</ele>
        <time>2022-02-12T07:44:53Z</time>
      </trkpt>
      <trkpt lat="43.09569" lon="-0.08309">
        <ele>481</ele>
        <time>2022-02-12T07:44:54Z</time>
      </trkpt>
      <trkpt lat="43.09569" lon="-0.0831">
        <ele>481.2</ele>
        <time>2022-02-12T07:44:55Z</time>
      </trkpt>
      <trkpt lat="43.09569" lon="-0.08312">
        <ele>481.2</ele>
        <time>2022-02-12T07:44:56Z</time>
      </trkpt>
      <trkpt lat="43.09569" lon="-0.08313">
        <ele>481.4</ele>
        <time>2022-02-12T07:44:57Z</time>
      </trkpt>
      <trkpt lat="43.09569" lon="-0.08315">
        <ele>481.4</ele>
        <time>2022-02-12T07:44:58Z</time>
      </trkpt>
      <trkpt lat="43.09569" lon="-0.08315">
        <ele>481.6</ele>
        <time>2022-02-12T07:44:59Z</time>
      </trkpt>
      <trkpt lat="43.09569" lon="-0.08316">
        <ele>481.8</ele>
        <time>2022-02-12T07:45:00Z</time>
      </trkpt>
      <trkpt lat="43.09569" lon="-0.08318">
        <ele>481.8</ele>
        <time>2022-02-12T07:45:01Z</time>
      </trkpt>
      <trkpt lat="43.09569" lon="-0.08319">
        <ele>482.2</ele>
        <time>2022-02-12T07:45:02Z</time>
      </trkpt>
      <trkpt lat="43.09569" lon="-0.08321">
        <ele>482.4</ele>
        <time>2022-02-12T07:45:03Z</time>
      </trkpt>
      <trkpt lat="43.09569" lon="-0.08321">
        <ele>482.8</ele>
        <time>2022-02-12T07:45:04Z</time>
      </trkpt>
      <trkpt lat="43.09569" lon="-0.08324">
        <ele>482.8</ele>
        <time>2022-02-12T07:45:05Z</time>
      </trkpt>
      <trkpt lat="43.09569" lon="-0.08326">
        <ele>483</ele>
        <time>2022-02-12T07:45:06Z</time>
      </trkpt>
      <trkpt lat="43.0957" lon="-0.08328">
        <ele>483.2</ele>
        <time>2022-02-12T07:45:07Z</time>
      </trkpt>
      <trkpt lat="43.0957" lon="-0.0833">
        <ele>483.4</ele>
        <time>2022-02-12T07:45:08Z</time>
      </trkpt>
      <trkpt lat="43.09571" lon="-0.08333">
        <ele>483.6</ele>
        <time>2022-02-12T07:45:09Z</time>
      </trkpt>
      <trkpt lat="43.09571" lon="-0.08335">
        <ele>483.6</ele>
        <time>2022-02-12T07:45:10Z</time>
      </trkpt>
      <trkpt lat="43.0957" lon="-0.08338">
        <ele>483.8</ele>
        <time>2022-02-12T07:45:11Z</time>
      </trkpt>
      <trkpt lat="43.09568" lon="-0.0834">
        <ele>484</ele>
        <time>2022-02-12T07:45:12Z</time>
      </trkpt>
      <trkpt lat="43.09568" lon="-0.08341">
        <ele>484.2</ele>
        <time>2022-02-12T07:45:13Z</time>
      </trkpt>
      <trkpt lat="43.09568" lon="-0.08343">
        <ele>484.2</ele>
        <time>2022-02-12T07:45:14Z</time>
      </trkpt>
      <trkpt lat="43.09568" lon="-0.08345">
        <ele>484.4</ele>
        <time>2022-02-12T07:45:15Z</time>
      </trkpt>
      <trkpt lat="43.09567" lon="-0.08347">
        <ele>484.6</ele>
        <time>2022-02-12T07:45:16Z</time>
      </trkpt>
      <trkpt lat="43.09567" lon="-0.0835">
        <ele>484.8</ele>
        <time>2022-02-12T07:45:17Z</time>
      </trkpt>
      <trkpt lat="43.09567" lon="-0.08351">
        <ele>485.2</ele>
        <time>2022-02-12T07:45:18Z</time>
      </trkpt>
      <trkpt lat="43.09567" lon="-0.08353">
        <ele>485.4</ele>
        <time>2022-02-12T07:45:19Z</time>
      </trkpt>
      <trkpt lat="43.09567" lon="-0.08355">
        <ele>485.6</ele>
        <time>2022-02-12T07:45:20Z</time>
      </trkpt>
      <trkpt lat="43.09568" lon="-0.08357">
        <ele>485.8</ele>
        <time>2022-02-12T07:45:21Z</time>
      </trkpt>
      <trkpt lat="43.09567" lon="-0.08359">
        <ele>485.8</ele>
        <time>2022-02-12T07:45:22Z</time>
      </trkpt>
      <trkpt lat="43.09566" lon="-0.08361">
        <ele>486</ele>
        <time>2022-02-12T07:45:23Z</time>
      </trkpt>
      <trkpt lat="43.09567" lon="-0.08363">
        <ele>486.2</ele>
        <time>2022-02-12T07:45:24Z</time>
      </trkpt>
      <trkpt lat="43.09568" lon="-0.08365">
        <ele>486.6</ele>
        <time>2022-02-12T07:45:25Z</time>
      </trkpt>
      <trkpt lat="43.09568" lon="-0.08366">
        <ele>486.6</ele>
        <time>2022-02-12T07:45:26Z</time>
      </trkpt>
      <trkpt lat="43.09569" lon="-0.08369">
        <ele>486.8</ele>
        <time>2022-02-12T07:45:27Z</time>
      </trkpt>
      <trkpt lat="43.09568" lon="-0.08371">
        <ele>487</ele>
        <time>2022-02-12T07:45:28Z</time>
      </trkpt>
      <trkpt lat="43.09566" lon="-0.08373">
        <ele>487.2</ele>
        <time>2022-02-12T07:45:29Z</time>
      </trkpt>
      <trkpt lat="43.09567" lon="-0.08375">
        <ele>487.2</ele>
        <time>2022-02-12T07:45:30Z</time>
      </trkpt>
      <trkpt lat="43.09567" lon="-0.08378">
        <ele>487.4</ele>
        <time>2022-02-12T07:45:31Z</time>
      </trkpt>
      <trkpt lat="43.09568" lon="-0.0838">
        <ele>487.6</ele>
        <time>2022-02-12T07:45:32Z</time>
      </trkpt>
      <trkpt lat="43.09569" lon="-0.08383">
        <ele>487.8</ele>
        <time>2022-02-12T07:45:33Z</time>
      </trkpt>
      <trkpt lat="43.09569" lon="-0.08386">
        <ele>488</ele>
        <time>2022-02-12T07:45:34Z</time>
      </trkpt>
      <trkpt lat="43.0957" lon="-0.08389">
        <ele>488</ele>
        <time>2022-02-12T07:45:35Z</time>
      </trkpt>
      <trkpt lat="43.09571" lon="-0.08392">
        <ele>488</ele>
        <time>2022-02-12T07:45:36Z</time>
      </trkpt>
      <trkpt lat="43.09571" lon="-0.08394">
        <ele>488.2</ele>
        <time>2022-02-12T07:45:37Z</time>
      </trkpt>
      <trkpt lat="43.09571" lon="-0.08396">
        <ele>488.4</ele>
        <time>2022-02-12T07:45:38Z</time>
      </trkpt>
      <trkpt lat="43.09572" lon="-0.08399">
        <ele>488.4</ele>
        <time>2022-02-12T07:45:39Z</time>
      </trkpt>
      <trkpt lat="43.09572" lon="-0.08401">
        <ele>488.6</ele>
        <time>2022-02-12T07:45:40Z</time>
      </trkpt>
      <trkpt lat="43.09573" lon="-0.08402">
        <ele>488.6</ele>
        <time>2022-02-12T07:45:41Z</time>
      </trkpt>
      <trkpt lat="43.09573" lon="-0.08403">
        <ele>488.8</ele>
        <time>2022-02-12T07:45:42Z</time>
      </trkpt>
      <trkpt lat="43.09573" lon="-0.08405">
        <ele>489</ele>
        <time>2022-02-12T07:45:43Z</time>
      </trkpt>
      <trkpt lat="43.09574" lon="-0.08406">
        <ele>489</ele>
        <time>2022-02-12T07:45:44Z</time>
      </trkpt>
      <trkpt lat="43.09574" lon="-0.08408">
        <ele>489.2</ele>
        <time>2022-02-12T07:45:45Z</time>
      </trkpt>
      <trkpt lat="43.09574" lon="-0.08409">
        <ele>489.4</ele>
        <time>2022-02-12T07:45:46Z</time>
      </trkpt>
      <trkpt lat="43.09574" lon="-0.0841">
        <ele>489.4</ele>
        <time>2022-02-12T07:45:47Z</time>
      </trkpt>
      <trkpt lat="43.09574" lon="-0.08411">
        <ele>489.6</ele>
        <time>2022-02-12T07:45:48Z</time>
      </trkpt>
      <trkpt lat="43.09574" lon="-0.08412">
        <ele>489.6</ele>
        <time>2022-02-12T07:45:49Z</time>
      </trkpt>
      <trkpt lat="43.09573" lon="-0.08414">
        <ele>489.8</ele>
        <time>2022-02-12T07:45:50Z</time>
      </trkpt>
      <trkpt lat="43.09573" lon="-0.08415">
        <ele>489.8</ele>
        <time>2022-02-12T07:45:51Z</time>
      </trkpt>
      <trkpt lat="43.09573" lon="-0.08415">
        <ele>490</ele>
        <time>2022-02-12T07:45:52Z</time>
      </trkpt>
      <trkpt lat="43.09573" lon="-0.08417">
        <ele>490.2</ele>
        <time>2022-02-12T07:45:53Z</time>
      </trkpt>
      <trkpt lat="43.09573" lon="-0.08418">
        <ele>490.2</ele>
        <time>2022-02-12T07:45:54Z</time>
      </trkpt>
      <trkpt lat="43.09574" lon="-0.0842">
        <ele>490.4</ele>
        <time>2022-02-12T07:45:55Z</time>
      </trkpt>
      <trkpt lat="43.09574" lon="-0.08421">
        <ele>490.6</ele>
        <time>2022-02-12T07:45:56Z</time>
      </trkpt>
      <trkpt lat="43.09573" lon="-0.08423">
        <ele>490.8</ele>
        <time>2022-02-12T07:45:57Z</time>
      </trkpt>
      <trkpt lat="43.09573" lon="-0.08425">
        <ele>491</ele>
        <time>2022-02-12T07:45:58Z</time>
      </trkpt>
      <trkpt lat="43.09573" lon="-0.08427">
        <ele>491.2</ele>
        <time>2022-02-12T07:45:59Z</time>
      </trkpt>
      <trkpt lat="43.09573" lon="-0.08429">
        <ele>491.4</ele>
        <time>2022-02-12T07:46:00Z</time>
      </trkpt>
      <trkpt lat="43.09573" lon="-0.08431">
        <ele>491.8</ele>
        <time>2022-02-12T07:46:01Z</time>
      </trkpt>
      <trkpt lat="43.09573" lon="-0.08433">
        <ele>492</ele>
        <time>2022-02-12T07:46:02Z</time>
      </trkpt>
      <trkpt lat="43.09574" lon="-0.08436">
        <ele>492.4</ele>
        <time>2022-02-12T07:46:03Z</time>
      </trkpt>
      <trkpt lat="43.09574" lon="-0.08439">
        <ele>492.4</ele>
        <time>2022-02-12T07:46:04Z</time>
      </trkpt>
      <trkpt lat="43.09574" lon="-0.08442">
        <ele>492.6</ele>
        <time>2022-02-12T07:46:05Z</time>
      </trkpt>
      <trkpt lat="43.09575" lon="-0.08444">
        <ele>492.6</ele>
        <time>2022-02-12T07:46:06Z</time>
      </trkpt>
      <trkpt lat="43.09575" lon="-0.08446">
        <ele>493</ele>
        <time>2022-02-12T07:46:07Z</time>
      </trkpt>
      <trkpt lat="43.09576" lon="-0.08449">
        <ele>493</ele>
        <time>2022-02-12T07:46:08Z</time>
      </trkpt>
      <trkpt lat="43.09576" lon="-0.0845">
        <ele>493.2</ele>
        <time>2022-02-12T07:46:09Z</time>
      </trkpt>
      <trkpt lat="43.09577" lon="-0.08452">
        <ele>493.2</ele>
        <time>2022-02-12T07:46:10Z</time>
      </trkpt>
      <trkpt lat="43.09577" lon="-0.08453">
        <ele>493.6</ele>
        <time>2022-02-12T07:46:11Z</time>
      </trkpt>
      <trkpt lat="43.09578" lon="-0.08455">
        <ele>493.6</ele>
        <time>2022-02-12T07:46:12Z</time>
      </trkpt>
      <trkpt lat="43.09578" lon="-0.08457">
        <ele>493.8</ele>
        <time>2022-02-12T07:46:13Z</time>
      </trkpt>
      <trkpt lat="43.09579" lon="-0.08459">
        <ele>493.8</ele>
        <time>2022-02-12T07:46:14Z</time>
      </trkpt>
      <trkpt lat="43.0958" lon="-0.0846">
        <ele>494</ele>
        <time>2022-02-12T07:46:15Z</time>
      </trkpt>
      <trkpt lat="43.09581" lon="-0.08462">
        <ele>494.2</ele>
        <time>2022-02-12T07:46:16Z</time>
      </trkpt>
      <trkpt lat="43.09582" lon="-0.08465">
        <ele>494.4</ele>
        <time>2022-02-12T07:46:17Z</time>
      </trkpt>
      <trkpt lat="43.09581" lon="-0.08467">
        <ele>494.4</ele>
        <time>2022-02-12T07:46:18Z</time>
      </trkpt>
      <trkpt lat="43.09582" lon="-0.08469">
        <ele>494.8</ele>
        <time>2022-02-12T07:46:19Z</time>
      </trkpt>
      <trkpt lat="43.0958" lon="-0.08471">
        <ele>494.8</ele>
        <time>2022-02-12T07:46:20Z</time>
      </trkpt>
      <trkpt lat="43.09581" lon="-0.08473">
        <ele>495.2</ele>
        <time>2022-02-12T07:46:21Z</time>
      </trkpt>
      <trkpt lat="43.09581" lon="-0.08474">
        <ele>495.4</ele>
        <time>2022-02-12T07:46:22Z</time>
      </trkpt>
      <trkpt lat="43.09582" lon="-0.08476">
        <ele>495.4</ele>
        <time>2022-02-12T07:46:23Z</time>
      </trkpt>
      <trkpt lat="43.0958" lon="-0.08479">
        <ele>495.8</ele>
        <time>2022-02-12T07:46:24Z</time>
      </trkpt>
      <trkpt lat="43.0958" lon="-0.0848">
        <ele>495.8</ele>
        <time>2022-02-12T07:46:25Z</time>
      </trkpt>
      <trkpt lat="43.0958" lon="-0.08483">
        <ele>496</ele>
        <time>2022-02-12T07:46:26Z</time>
      </trkpt>
      <trkpt lat="43.09579" lon="-0.08485">
        <ele>496</ele>
        <time>2022-02-12T07:46:27Z</time>
      </trkpt>
      <trkpt lat="43.0958" lon="-0.08487">
        <ele>496.2</ele>
        <time>2022-02-12T07:46:28Z</time>
      </trkpt>
      <trkpt lat="43.09579" lon="-0.08489">
        <ele>496.4</ele>
        <time>2022-02-12T07:46:29Z</time>
      </trkpt>
      <trkpt lat="43.09577" lon="-0.08491">
        <ele>496.6</ele>
        <time>2022-02-12T07:46:30Z</time>
      </trkpt>
      <trkpt lat="43.09577" lon="-0.08493">
        <ele>496.6</ele>
        <time>2022-02-12T07:46:31Z</time>
      </trkpt>
      <trkpt lat="43.09576" lon="-0.08495">
        <ele>496.8</ele>
        <time>2022-02-12T07:46:32Z</time>
      </trkpt>
      <trkpt lat="43.09576" lon="-0.08498">
        <ele>496.8</ele>
        <time>2022-02-12T07:46:33Z</time>
      </trkpt>
      <trkpt lat="43.09577" lon="-0.085">
        <ele>497</ele>
        <time>2022-02-12T07:46:34Z</time>
      </trkpt>
      <trkpt lat="43.09578" lon="-0.08502">
        <ele>497.2</ele>
        <time>2022-02-12T07:46:35Z</time>
      </trkpt>
      <trkpt lat="43.09578" lon="-0.08502">
        <ele>497.4</ele>
        <time>2022-02-12T07:46:36Z</time>
      </trkpt>
      <trkpt lat="43.09579" lon="-0.08506">
        <ele>497.4</ele>
        <time>2022-02-12T07:46:37Z</time>
      </trkpt>
      <trkpt lat="43.09579" lon="-0.08507">
        <ele>497.8</ele>
        <time>2022-02-12T07:46:38Z</time>
      </trkpt>
      <trkpt lat="43.0958" lon="-0.08509">
        <ele>498</ele>
        <time>2022-02-12T07:46:39Z</time>
      </trkpt>
      <trkpt lat="43.09578" lon="-0.08511">
        <ele>498.2</ele>
        <time>2022-02-12T07:46:40Z</time>
      </trkpt>
      <trkpt lat="43.09577" lon="-0.08513">
        <ele>498.2</ele>
        <time>2022-02-12T07:46:41Z</time>
      </trkpt>
      <trkpt lat="43.09576" lon="-0.08514">
        <ele>498.4</ele>
        <time>2022-02-12T07:46:42Z</time>
      </trkpt>
      <trkpt lat="43.09576" lon="-0.08516">
        <ele>498.6</ele>
        <time>2022-02-12T07:46:43Z</time>
      </trkpt>
      <trkpt lat="43.09576" lon="-0.08517">
        <ele>498.8</ele>
        <time>2022-02-12T07:46:44Z</time>
      </trkpt>
      <trkpt lat="43.09576" lon="-0.08518">
        <ele>499.2</ele>
        <time>2022-02-12T07:46:45Z</time>
      </trkpt>
      <trkpt lat="43.09576" lon="-0.0852">
        <ele>499.2</ele>
        <time>2022-02-12T07:46:46Z</time>
      </trkpt>
      <trkpt lat="43.09576" lon="-0.08522">
        <ele>499.4</ele>
        <time>2022-02-12T07:46:47Z</time>
      </trkpt>
      <trkpt lat="43.09576" lon="-0.08523">
        <ele>499.6</ele>
        <time>2022-02-12T07:46:48Z</time>
      </trkpt>
      <trkpt lat="43.09576" lon="-0.08525">
        <ele>499.8</ele>
        <time>2022-02-12T07:46:49Z</time>
      </trkpt>
      <trkpt lat="43.09576" lon="-0.08526">
        <ele>499.8</ele>
        <time>2022-02-12T07:46:50Z</time>
      </trkpt>
      <trkpt lat="43.09576" lon="-0.08527">
        <ele>499.8</ele>
        <time>2022-02-12T07:46:51Z</time>
      </trkpt>
      <trkpt lat="43.09575" lon="-0.08529">
        <ele>500</ele>
        <time>2022-02-12T07:46:52Z</time>
      </trkpt>
      <trkpt lat="43.09576" lon="-0.08531">
        <ele>500</ele>
        <time>2022-02-12T07:46:53Z</time>
      </trkpt>
      <trkpt lat="43.09576" lon="-0.08533">
        <ele>500.2</ele>
        <time>2022-02-12T07:46:54Z</time>
      </trkpt>
      <trkpt lat="43.09575" lon="-0.08534">
        <ele>500.4</ele>
        <time>2022-02-12T07:46:55Z</time>
      </trkpt>
      <trkpt lat="43.09575" lon="-0.08536">
        <ele>500.4</ele>
        <time>2022-02-12T07:46:56Z</time>
      </trkpt>
      <trkpt lat="43.09575" lon="-0.08538">
        <ele>500.8</ele>
        <time>2022-02-12T07:46:57Z</time>
      </trkpt>
      <trkpt lat="43.09575" lon="-0.0854">
        <ele>500.8</ele>
        <time>2022-02-12T07:46:58Z</time>
      </trkpt>
      <trkpt lat="43.09575" lon="-0.08542">
        <ele>501</ele>
        <time>2022-02-12T07:46:59Z</time>
      </trkpt>
      <trkpt lat="43.09575" lon="-0.08544">
        <ele>501.2</ele>
        <time>2022-02-12T07:47:00Z</time>
      </trkpt>
      <trkpt lat="43.09575" lon="-0.08545">
        <ele>501.4</ele>
        <time>2022-02-12T07:47:01Z</time>
      </trkpt>
      <trkpt lat="43.09575" lon="-0.08545">
        <ele>501.6</ele>
        <time>2022-02-12T07:47:02Z</time>
      </trkpt>
      <trkpt lat="43.09574" lon="-0.08548">
        <ele>501.8</ele>
        <time>2022-02-12T07:47:03Z</time>
      </trkpt>
      <trkpt lat="43.09573" lon="-0.08549">
        <ele>502</ele>
        <time>2022-02-12T07:47:04Z</time>
      </trkpt>
      <trkpt lat="43.09573" lon="-0.08551">
        <ele>502.2</ele>
        <time>2022-02-12T07:47:05Z</time>
      </trkpt>
      <trkpt lat="43.09572" lon="-0.08553">
        <ele>502.4</ele>
        <time>2022-02-12T07:47:06Z</time>
      </trkpt>
      <trkpt lat="43.09572" lon="-0.08556">
        <ele>502.4</ele>
        <time>2022-02-12T07:47:07Z</time>
      </trkpt>
      <trkpt lat="43.09573" lon="-0.08558">
        <ele>502.6</ele>
        <time>2022-02-12T07:47:08Z</time>
      </trkpt>
      <trkpt lat="43.09573" lon="-0.0856">
        <ele>502.8</ele>
        <time>2022-02-12T07:47:09Z</time>
      </trkpt>
      <trkpt lat="43.09574" lon="-0.08562">
        <ele>503</ele>
        <time>2022-02-12T07:47:10Z</time>
      </trkpt>
      <trkpt lat="43.09574" lon="-0.08564">
        <ele>503.2</ele>
        <time>2022-02-12T07:47:11Z</time>
      </trkpt>
      <trkpt lat="43.09574" lon="-0.08566">
        <ele>503.8</ele>
        <time>2022-02-12T07:47:12Z</time>
      </trkpt>
      <trkpt lat="43.09575" lon="-0.08567">
        <ele>504</ele>
        <time>2022-02-12T07:47:13Z</time>
      </trkpt>
      <trkpt lat="43.09575" lon="-0.08569">
        <ele>504.4</ele>
        <time>2022-02-12T07:47:14Z</time>
      </trkpt>
      <trkpt lat="43.09574" lon="-0.0857">
        <ele>504.4</ele>
        <time>2022-02-12T07:47:15Z</time>
      </trkpt>
      <trkpt lat="43.09574" lon="-0.08572">
        <ele>504.6</ele>
        <time>2022-02-12T07:47:16Z</time>
      </trkpt>
      <trkpt lat="43.09574" lon="-0.08574">
        <ele>504.6</ele>
        <time>2022-02-12T07:47:17Z</time>
      </trkpt>
      <trkpt lat="43.09575" lon="-0.08576">
        <ele>504.8</ele>
        <time>2022-02-12T07:47:18Z</time>
      </trkpt>
      <trkpt lat="43.09575" lon="-0.08578">
        <ele>504.8</ele>
        <time>2022-02-12T07:47:19Z</time>
      </trkpt>
      <trkpt lat="43.09576" lon="-0.08579">
        <ele>505</ele>
        <time>2022-02-12T07:47:20Z</time>
      </trkpt>
      <trkpt lat="43.09576" lon="-0.08581">
        <ele>505.4</ele>
        <time>2022-02-12T07:47:21Z</time>
      </trkpt>
      <trkpt lat="43.09576" lon="-0.08583">
        <ele>505.8</ele>
        <time>2022-02-12T07:47:22Z</time>
      </trkpt>
      <trkpt lat="43.09576" lon="-0.08584">
        <ele>505.8</ele>
        <time>2022-02-12T07:47:23Z</time>
      </trkpt>
      <trkpt lat="43.09576" lon="-0.08586">
        <ele>506.2</ele>
        <time>2022-02-12T07:47:24Z</time>
      </trkpt>
      <trkpt lat="43.09576" lon="-0.08587">
        <ele>506.2</ele>
        <time>2022-02-12T07:47:25Z</time>
      </trkpt>
      <trkpt lat="43.09576" lon="-0.08588">
        <ele>506.4</ele>
        <time>2022-02-12T07:47:26Z</time>
      </trkpt>
      <trkpt lat="43.09576" lon="-0.08589">
        <ele>506.8</ele>
        <time>2022-02-12T07:47:27Z</time>
      </trkpt>
      <trkpt lat="43.09575" lon="-0.08591">
        <ele>506.8</ele>
        <time>2022-02-12T07:47:28Z</time>
      </trkpt>
      <trkpt lat="43.09575" lon="-0.08592">
        <ele>507</ele>
        <time>2022-02-12T07:47:29Z</time>
      </trkpt>
      <trkpt lat="43.09575" lon="-0.08593">
        <ele>507.2</ele>
        <time>2022-02-12T07:47:30Z</time>
      </trkpt>
      <trkpt lat="43.09573" lon="-0.08595">
        <ele>507.2</ele>
        <time>2022-02-12T07:47:31Z</time>
      </trkpt>
      <trkpt lat="43.09572" lon="-0.08597">
        <ele>507.4</ele>
        <time>2022-02-12T07:47:32Z</time>
      </trkpt>
      <trkpt lat="43.09572" lon="-0.08599">
        <ele>507.6</ele>
        <time>2022-02-12T07:47:33Z</time>
      </trkpt>
      <trkpt lat="43.09572" lon="-0.08601">
        <ele>507.6</ele>
        <time>2022-02-12T07:47:34Z</time>
      </trkpt>
      <trkpt lat="43.09572" lon="-0.08603">
        <ele>507.8</ele>
        <time>2022-02-12T07:47:35Z</time>
      </trkpt>
      <trkpt lat="43.09571" lon="-0.08605">
        <ele>508</ele>
        <time>2022-02-12T07:47:36Z</time>
      </trkpt>
      <trkpt lat="43.09571" lon="-0.08606">
        <ele>508.2</ele>
        <time>2022-02-12T07:47:37Z</time>
      </trkpt>
      <trkpt lat="43.09571" lon="-0.08608">
        <ele>508.4</ele>
        <time>2022-02-12T07:47:38Z</time>
      </trkpt>
      <trkpt lat="43.09572" lon="-0.08609">
        <ele>508.8</ele>
        <time>2022-02-12T07:47:39Z</time>
      </trkpt>
      <trkpt lat="43.09572" lon="-0.08612">
        <ele>508.8</ele>
        <time>2022-02-12T07:47:40Z</time>
      </trkpt>
      <trkpt lat="43.09573" lon="-0.08614">
        <ele>509</ele>
        <time>2022-02-12T07:47:41Z</time>
      </trkpt>
      <trkpt lat="43.09573" lon="-0.08614">
        <ele>509.2</ele>
        <time>2022-02-12T07:47:42Z</time>
      </trkpt>
      <trkpt lat="43.09573" lon="-0.08616">
        <ele>509.4</ele>
        <time>2022-02-12T07:47:43Z</time>
      </trkpt>
      <trkpt lat="43.09572" lon="-0.08619">
        <ele>509.6</ele>
        <time>2022-02-12T07:47:44Z</time>
      </trkpt>
      <trkpt lat="43.09569" lon="-0.08621">
        <ele>509.6</ele>
        <time>2022-02-12T07:47:45Z</time>
      </trkpt>
      <trkpt lat="43.09568" lon="-0.08625">
        <ele>509.8</ele>
        <time>2022-02-12T07:47:46Z</time>
      </trkpt>
      <trkpt lat="43.09568" lon="-0.08627">
        <ele>510</ele>
        <time>2022-02-12T07:47:47Z</time>
      </trkpt>
      <trkpt lat="43.09568" lon="-0.08629">
        <ele>510</ele>
        <time>2022-02-12T07:47:48Z</time>
      </trkpt>
      <trkpt lat="43.09568" lon="-0.0863">
        <ele>510.2</ele>
        <time>2022-02-12T07:47:49Z</time>
      </trkpt>
      <trkpt lat="43.09567" lon="-0.08632">
        <ele>510.4</ele>
        <time>2022-02-12T07:47:50Z</time>
      </trkpt>
      <trkpt lat="43.09567" lon="-0.08633">
        <ele>510.6</ele>
        <time>2022-02-12T07:47:51Z</time>
      </trkpt>
      <trkpt lat="43.09566" lon="-0.08635">
        <ele>510.8</ele>
        <time>2022-02-12T07:47:52Z</time>
      </trkpt>
      <trkpt lat="43.09565" lon="-0.08636">
        <ele>510.8</ele>
        <time>2022-02-12T07:47:53Z</time>
      </trkpt>
      <trkpt lat="43.09565" lon="-0.08638">
        <ele>511</ele>
        <time>2022-02-12T07:47:54Z</time>
      </trkpt>
      <trkpt lat="43.09565" lon="-0.08638">
        <ele>511</ele>
        <time>2022-02-12T07:47:55Z</time>
      </trkpt>
      <trkpt lat="43.09564" lon="-0.08639">
        <ele>511.4</ele>
        <time>2022-02-12T07:47:56Z</time>
      </trkpt>
      <trkpt lat="43.09564" lon="-0.0864">
        <ele>511.4</ele>
        <time>2022-02-12T07:47:57Z</time>
      </trkpt>
      <trkpt lat="43.09564" lon="-0.08642">
        <ele>511.8</ele>
        <time>2022-02-12T07:47:58Z</time>
      </trkpt>
      <trkpt lat="43.09563" lon="-0.08643">
        <ele>511.8</ele>
        <time>2022-02-12T07:47:59Z</time>
      </trkpt>
      <trkpt lat="43.09562" lon="-0.08644">
        <ele>512</ele>
        <time>2022-02-12T07:48:00Z</time>
      </trkpt>
      <trkpt lat="43.09562" lon="-0.08645">
        <ele>512</ele>
        <time>2022-02-12T07:48:01Z</time>
      </trkpt>
      <trkpt lat="43.09561" lon="-0.08647">
        <ele>512.2</ele>
        <time>2022-02-12T07:48:02Z</time>
      </trkpt>
      <trkpt lat="43.09561" lon="-0.08647">
        <ele>512.4</ele>
        <time>2022-02-12T07:48:03Z</time>
      </trkpt>
      <trkpt lat="43.0956" lon="-0.08648">
        <ele>512.6</ele>
        <time>2022-02-12T07:48:04Z</time>
      </trkpt>
      <trkpt lat="43.0956" lon="-0.08649">
        <ele>512.8</ele>
        <time>2022-02-12T07:48:05Z</time>
      </trkpt>
      <trkpt lat="43.0956" lon="-0.0865">
        <ele>513</ele>
        <time>2022-02-12T07:48:06Z</time>
      </trkpt>
      <trkpt lat="43.0956" lon="-0.08651">
        <ele>513</ele>
        <time>2022-02-12T07:48:07Z</time>
      </trkpt>
      <trkpt lat="43.09559" lon="-0.08652">
        <ele>513.2</ele>
        <time>2022-02-12T07:48:08Z</time>
      </trkpt>
      <trkpt lat="43.09559" lon="-0.08653">
        <ele>513.4</ele>
        <time>2022-02-12T07:48:09Z</time>
      </trkpt>
      <trkpt lat="43.09559" lon="-0.08655">
        <ele>513.8</ele>
        <time>2022-02-12T07:48:10Z</time>
      </trkpt>
      <trkpt lat="43.09559" lon="-0.08656">
        <ele>514.2</ele>
        <time>2022-02-12T07:48:11Z</time>
      </trkpt>
      <trkpt lat="43.09559" lon="-0.08657">
        <ele>514.4</ele>
        <time>2022-02-12T07:48:12Z</time>
      </trkpt>
      <trkpt lat="43.09559" lon="-0.08659">
        <ele>514.6</ele>
        <time>2022-02-12T07:48:13Z</time>
      </trkpt>
      <trkpt lat="43.09559" lon="-0.0866">
        <ele>514.6</ele>
        <time>2022-02-12T07:48:14Z</time>
      </trkpt>
      <trkpt lat="43.09559" lon="-0.08661">
        <ele>515</ele>
        <time>2022-02-12T07:48:15Z</time>
      </trkpt>
      <trkpt lat="43.0956" lon="-0.08662">
        <ele>515</ele>
        <time>2022-02-12T07:48:16Z</time>
      </trkpt>
      <trkpt lat="43.0956" lon="-0.08663">
        <ele>515.2</ele>
        <time>2022-02-12T07:48:17Z</time>
      </trkpt>
      <trkpt lat="43.0956" lon="-0.08664">
        <ele>515.4</ele>
        <time>2022-02-12T07:48:18Z</time>
      </trkpt>
      <trkpt lat="43.09559" lon="-0.08666">
        <ele>515.6</ele>
        <time>2022-02-12T07:48:19Z</time>
      </trkpt>
      <trkpt lat="43.09559" lon="-0.08666">
        <ele>515.8</ele>
        <time>2022-02-12T07:48:20Z</time>
      </trkpt>
      <trkpt lat="43.09558" lon="-0.08667">
        <ele>516</ele>
        <time>2022-02-12T07:48:21Z</time>
      </trkpt>
      <trkpt lat="43.09559" lon="-0.08669">
        <ele>516.2</ele>
        <time>2022-02-12T07:48:22Z</time>
      </trkpt>
      <trkpt lat="43.09559" lon="-0.08669">
        <ele>516.4</ele>
        <time>2022-02-12T07:48:23Z</time>
      </trkpt>
      <trkpt lat="43.09559" lon="-0.0867">
        <ele>516.6</ele>
        <time>2022-02-12T07:48:24Z</time>
      </trkpt>
      <trkpt lat="43.09559" lon="-0.08673">
        <ele>517</ele>
        <time>2022-02-12T07:48:25Z</time>
      </trkpt>
      <trkpt lat="43.09559" lon="-0.08673">
        <ele>517.2</ele>
        <time>2022-02-12T07:48:26Z</time>
      </trkpt>
      <trkpt lat="43.0956" lon="-0.08675">
        <ele>517.4</ele>
        <time>2022-02-12T07:48:27Z</time>
      </trkpt>
      <trkpt lat="43.0956" lon="-0.08677">
        <ele>517.4</ele>
        <time>2022-02-12T07:48:28Z</time>
      </trkpt>
      <trkpt lat="43.09561" lon="-0.08679">
        <ele>517.6</ele>
        <time>2022-02-12T07:48:29Z</time>
      </trkpt>
      <trkpt lat="43.09561" lon="-0.08681">
        <ele>517.6</ele>
        <time>2022-02-12T07:48:30Z</time>
      </trkpt>
      <trkpt lat="43.09562" lon="-0.08681">
        <ele>517.8</ele>
        <time>2022-02-12T07:48:31Z</time>
      </trkpt>
      <trkpt lat="43.09562" lon="-0.08683">
        <ele>518</ele>
        <time>2022-02-12T07:48:32Z</time>
      </trkpt>
      <trkpt lat="43.09563" lon="-0.08686">
        <ele>518</ele>
        <time>2022-02-12T07:48:33Z</time>
      </trkpt>
      <trkpt lat="43.09563" lon="-0.08689">
        <ele>518.2</ele>
        <time>2022-02-12T07:48:34Z</time>
      </trkpt>
      <trkpt lat="43.09561" lon="-0.08692">
        <ele>518.4</ele>
        <time>2022-02-12T07:48:35Z</time>
      </trkpt>
      <trkpt lat="43.09561" lon="-0.08695">
        <ele>518.8</ele>
        <time>2022-02-12T07:48:36Z</time>
      </trkpt>
      <trkpt lat="43.09561" lon="-0.08697">
        <ele>518.8</ele>
        <time>2022-02-12T07:48:37Z</time>
      </trkpt>
      <trkpt lat="43.0956" lon="-0.08698">
        <ele>519</ele>
        <time>2022-02-12T07:48:38Z</time>
      </trkpt>
      <trkpt lat="43.09557" lon="-0.087">
        <ele>519</ele>
        <time>2022-02-12T07:48:39Z</time>
      </trkpt>
      <trkpt lat="43.09556" lon="-0.08701">
        <ele>519.4</ele>
        <time>2022-02-12T07:48:40Z</time>
      </trkpt>
      <trkpt lat="43.09556" lon="-0.08703">
        <ele>519.4</ele>
        <time>2022-02-12T07:48:41Z</time>
      </trkpt>
      <trkpt lat="43.09556" lon="-0.08705">
        <ele>519.6</ele>
        <time>2022-02-12T07:48:42Z</time>
      </trkpt>
      <trkpt lat="43.09556" lon="-0.08707">
        <ele>519.8</ele>
        <time>2022-02-12T07:48:43Z</time>
      </trkpt>
      <trkpt lat="43.09556" lon="-0.0871">
        <ele>519.8</ele>
        <time>2022-02-12T07:48:44Z</time>
      </trkpt>
      <trkpt lat="43.09557" lon="-0.08712">
        <ele>520</ele>
        <time>2022-02-12T07:48:45Z</time>
      </trkpt>
      <trkpt lat="43.09557" lon="-0.08713">
        <ele>520.4</ele>
        <time>2022-02-12T07:48:46Z</time>
      </trkpt>
      <trkpt lat="43.09557" lon="-0.08715">
        <ele>520.6</ele>
        <time>2022-02-12T07:48:47Z</time>
      </trkpt>
      <trkpt lat="43.09556" lon="-0.08717">
        <ele>520.8</ele>
        <time>2022-02-12T07:48:48Z</time>
      </trkpt>
      <trkpt lat="43.09556" lon="-0.08719">
        <ele>520.8</ele>
        <time>2022-02-12T07:48:49Z</time>
      </trkpt>
      <trkpt lat="43.09554" lon="-0.08721">
        <ele>521</ele>
        <time>2022-02-12T07:48:50Z</time>
      </trkpt>
      <trkpt lat="43.09554" lon="-0.08722">
        <ele>521</ele>
        <time>2022-02-12T07:48:51Z</time>
      </trkpt>
      <trkpt lat="43.09554" lon="-0.08722">
        <ele>521.4</ele>
        <time>2022-02-12T07:48:52Z</time>
      </trkpt>
      <trkpt lat="43.09555" lon="-0.08724">
        <ele>521.6</ele>
        <time>2022-02-12T07:48:53Z</time>
      </trkpt>
      <trkpt lat="43.09555" lon="-0.08726">
        <ele>521.8</ele>
        <time>2022-02-12T07:48:54Z</time>
      </trkpt>
      <trkpt lat="43.09555" lon="-0.08727">
        <ele>522</ele>
        <time>2022-02-12T07:48:55Z</time>
      </trkpt>
      <trkpt lat="43.09553" lon="-0.08728">
        <ele>522.2</ele>
        <time>2022-02-12T07:48:56Z</time>
      </trkpt>
      <trkpt lat="43.09553" lon="-0.08729">
        <ele>522.6</ele>
        <time>2022-02-12T07:48:57Z</time>
      </trkpt>
      <trkpt lat="43.09554" lon="-0.08731">
        <ele>522.6</ele>
        <time>2022-02-12T07:48:58Z</time>
      </trkpt>
      <trkpt lat="43.09552" lon="-0.08732">
        <ele>522.8</ele>
        <time>2022-02-12T07:48:59Z</time>
      </trkpt>
      <trkpt lat="43.0955" lon="-0.08734">
        <ele>522.8</ele>
        <time>2022-02-12T07:49:00Z</time>
      </trkpt>
      <trkpt lat="43.09548" lon="-0.08735">
        <ele>523.2</ele>
        <time>2022-02-12T07:49:01Z</time>
      </trkpt>
      <trkpt lat="43.09548" lon="-0.08735">
        <ele>523.2</ele>
        <time>2022-02-12T07:49:02Z</time>
      </trkpt>
      <trkpt lat="43.09548" lon="-0.08737">
        <ele>523.6</ele>
        <time>2022-02-12T07:49:03Z</time>
      </trkpt>
      <trkpt lat="43.09549" lon="-0.08739">
        <ele>523.6</ele>
        <time>2022-02-12T07:49:04Z</time>
      </trkpt>
      <trkpt lat="43.09549" lon="-0.08741">
        <ele>524</ele>
        <time>2022-02-12T07:49:05Z</time>
      </trkpt>
      <trkpt lat="43.09549" lon="-0.08741">
        <ele>524</ele>
        <time>2022-02-12T07:49:06Z</time>
      </trkpt>
      <trkpt lat="43.09549" lon="-0.08742">
        <ele>524.4</ele>
        <time>2022-02-12T07:49:07Z</time>
      </trkpt>
      <trkpt lat="43.09548" lon="-0.08743">
        <ele>524.6</ele>
        <time>2022-02-12T07:49:08Z</time>
      </trkpt>
      <trkpt lat="43.09548" lon="-0.08743">
        <ele>524.8</ele>
        <time>2022-02-12T07:49:09Z</time>
      </trkpt>
      <trkpt lat="43.09547" lon="-0.08744">
        <ele>525.2</ele>
        <time>2022-02-12T07:49:10Z</time>
      </trkpt>
      <trkpt lat="43.09546" lon="-0.08747">
        <ele>525.4</ele>
        <time>2022-02-12T07:49:11Z</time>
      </trkpt>
      <trkpt lat="43.09546" lon="-0.08749">
        <ele>525.2</ele>
        <time>2022-02-12T07:49:12Z</time>
      </trkpt>
      <trkpt lat="43.09545" lon="-0.08749">
        <ele>525.6</ele>
        <time>2022-02-12T07:49:13Z</time>
      </trkpt>
      <trkpt lat="43.09545" lon="-0.08749">
        <ele>525.8</ele>
        <time>2022-02-12T07:49:14Z</time>
      </trkpt>
      <trkpt lat="43.09545" lon="-0.0875">
        <ele>526.2</ele>
        <time>2022-02-12T07:49:15Z</time>
      </trkpt>
      <trkpt lat="43.09544" lon="-0.08752">
        <ele>526.2</ele>
        <time>2022-02-12T07:49:16Z</time>
      </trkpt>
      <trkpt lat="43.09544" lon="-0.08752">
        <ele>526.4</ele>
        <time>2022-02-12T07:49:17Z</time>
      </trkpt>
      <trkpt lat="43.09544" lon="-0.08752">
        <ele>527</ele>
        <time>2022-02-12T07:49:18Z</time>
      </trkpt>
      <trkpt lat="43.09543" lon="-0.08753">
        <ele>527.2</ele>
        <time>2022-02-12T07:49:19Z</time>
      </trkpt>
      <trkpt lat="43.09543" lon="-0.08755">
        <ele>527.6</ele>
        <time>2022-02-12T07:49:20Z</time>
      </trkpt>
      <trkpt lat="43.09542" lon="-0.08756">
        <ele>527.6</ele>
        <time>2022-02-12T07:49:21Z</time>
      </trkpt>
      <trkpt lat="43.0954" lon="-0.08758">
        <ele>527.8</ele>
        <time>2022-02-12T07:49:22Z</time>
      </trkpt>
      <trkpt lat="43.09539" lon="-0.08759">
        <ele>528</ele>
        <time>2022-02-12T07:49:23Z</time>
      </trkpt>
      <trkpt lat="43.09538" lon="-0.08761">
        <ele>528</ele>
        <time>2022-02-12T07:49:24Z</time>
      </trkpt>
      <trkpt lat="43.09537" lon="-0.08762">
        <ele>528.2</ele>
        <time>2022-02-12T07:49:25Z</time>
      </trkpt>
      <trkpt lat="43.09537" lon="-0.08763">
        <ele>528.2</ele>
        <time>2022-02-12T07:49:26Z</time>
      </trkpt>
      <trkpt lat="43.09537" lon="-0.08765">
        <ele>528.2</ele>
        <time>2022-02-12T07:49:27Z</time>
      </trkpt>
      <trkpt lat="43.09537" lon="-0.08766">
        <ele>528.6</ele>
        <time>2022-02-12T07:49:28Z</time>
      </trkpt>
      <trkpt lat="43.09536" lon="-0.08768">
        <ele>528.6</ele>
        <time>2022-02-12T07:49:29Z</time>
      </trkpt>
      <trkpt lat="43.09534" lon="-0.08769">
        <ele>529</ele>
        <time>2022-02-12T07:49:30Z</time>
      </trkpt>
      <trkpt lat="43.09534" lon="-0.08771">
        <ele>529</ele>
        <time>2022-02-12T07:49:31Z</time>
      </trkpt>
      <trkpt lat="43.09534" lon="-0.08772">
        <ele>529.2</ele>
        <time>2022-02-12T07:49:32Z</time>
      </trkpt>
      <trkpt lat="43.09533" lon="-0.08774">
        <ele>529.2</ele>
        <time>2022-02-12T07:49:33Z</time>
      </trkpt>
      <trkpt lat="43.09531" lon="-0.08775">
        <ele>529.4</ele>
        <time>2022-02-12T07:49:34Z</time>
      </trkpt>
      <trkpt lat="43.0953" lon="-0.08777">
        <ele>529.6</ele>
        <time>2022-02-12T07:49:35Z</time>
      </trkpt>
      <trkpt lat="43.0953" lon="-0.08777">
        <ele>529.6</ele>
        <time>2022-02-12T07:49:36Z</time>
      </trkpt>
      <trkpt lat="43.0953" lon="-0.08778">
        <ele>529.8</ele>
        <time>2022-02-12T07:49:37Z</time>
      </trkpt>
      <trkpt lat="43.09528" lon="-0.0878">
        <ele>529.8</ele>
        <time>2022-02-12T07:49:38Z</time>
      </trkpt>
      <trkpt lat="43.09528" lon="-0.0878">
        <ele>530</ele>
        <time>2022-02-12T07:49:39Z</time>
      </trkpt>
      <trkpt lat="43.09526" lon="-0.08781">
        <ele>530</ele>
        <time>2022-02-12T07:49:40Z</time>
      </trkpt>
      <trkpt lat="43.09526" lon="-0.08784">
        <ele>530.2</ele>
        <time>2022-02-12T07:49:41Z</time>
      </trkpt>
      <trkpt lat="43.09526" lon="-0.08785">
        <ele>530.2</ele>
        <time>2022-02-12T07:49:42Z</time>
      </trkpt>
      <trkpt lat="43.09526" lon="-0.08785">
        <ele>530.2</ele>
        <time>2022-02-12T07:49:43Z</time>
      </trkpt>
      <trkpt lat="43.09526" lon="-0.08785">
        <ele>530.4</ele>
        <time>2022-02-12T07:49:44Z</time>
      </trkpt>
      <trkpt lat="43.09527" lon="-0.08787">
        <ele>530.6</ele>
        <time>2022-02-12T07:49:45Z</time>
      </trkpt>
      <trkpt lat="43.0953" lon="-0.0879">
        <ele>530.6</ele>
        <time>2022-02-12T07:49:46Z</time>
      </trkpt>
      <trkpt lat="43.09531" lon="-0.08793">
        <ele>530.8</ele>
        <time>2022-02-12T07:49:47Z</time>
      </trkpt>
      <trkpt lat="43.09531" lon="-0.08796">
        <ele>530.8</ele>
        <time>2022-02-12T07:49:48Z</time>
      </trkpt>
      <trkpt lat="43.09531" lon="-0.08799">
        <ele>531</ele>
        <time>2022-02-12T07:49:49Z</time>
      </trkpt>
      <trkpt lat="43.09531" lon="-0.08801">
        <ele>531</ele>
        <time>2022-02-12T07:49:50Z</time>
      </trkpt>
      <trkpt lat="43.0953" lon="-0.08804">
        <ele>531.2</ele>
        <time>2022-02-12T07:49:51Z</time>
      </trkpt>
      <trkpt lat="43.09529" lon="-0.08806">
        <ele>531.4</ele>
        <time>2022-02-12T07:49:52Z</time>
      </trkpt>
      <trkpt lat="43.09527" lon="-0.08807">
        <ele>531.6</ele>
        <time>2022-02-12T07:49:53Z</time>
      </trkpt>
      <trkpt lat="43.09525" lon="-0.0881">
        <ele>531.6</ele>
        <time>2022-02-12T07:49:54Z</time>
      </trkpt>
      <trkpt lat="43.09525" lon="-0.08812">
        <ele>531.8</ele>
        <time>2022-02-12T07:49:55Z</time>
      </trkpt>
      <trkpt lat="43.09522" lon="-0.08813">
        <ele>531.8</ele>
        <time>2022-02-12T07:49:56Z</time>
      </trkpt>
      <trkpt lat="43.09522" lon="-0.08815">
        <ele>532</ele>
        <time>2022-02-12T07:49:57Z</time>
      </trkpt>
      <trkpt lat="43.09522" lon="-0.08818">
        <ele>532.2</ele>
        <time>2022-02-12T07:49:58Z</time>
      </trkpt>
      <trkpt lat="43.09522" lon="-0.0882">
        <ele>532.6</ele>
        <time>2022-02-12T07:49:59Z</time>
      </trkpt>
      <trkpt lat="43.09523" lon="-0.08823">
        <ele>532.6</ele>
        <time>2022-02-12T07:50:00Z</time>
      </trkpt>
      <trkpt lat="43.09523" lon="-0.08824">
        <ele>532.8</ele>
        <time>2022-02-12T07:50:01Z</time>
      </trkpt>
      <trkpt lat="43.09522" lon="-0.08826">
        <ele>532.8</ele>
        <time>2022-02-12T07:50:02Z</time>
      </trkpt>
      <trkpt lat="43.09521" lon="-0.08828">
        <ele>532.8</ele>
        <time>2022-02-12T07:50:03Z</time>
      </trkpt>
      <trkpt lat="43.09521" lon="-0.0883">
        <ele>533</ele>
        <time>2022-02-12T07:50:04Z</time>
      </trkpt>
      <trkpt lat="43.09522" lon="-0.08831">
        <ele>533</ele>
        <time>2022-02-12T07:50:05Z</time>
      </trkpt>
      <trkpt lat="43.09522" lon="-0.08833">
        <ele>533.4</ele>
        <time>2022-02-12T07:50:06Z</time>
      </trkpt>
      <trkpt lat="43.09522" lon="-0.08835">
        <ele>533.2</ele>
        <time>2022-02-12T07:50:07Z</time>
      </trkpt>
      <trkpt lat="43.09522" lon="-0.08837">
        <ele>533.8</ele>
        <time>2022-02-12T07:50:08Z</time>
      </trkpt>
      <trkpt lat="43.09522" lon="-0.08839">
        <ele>533.8</ele>
        <time>2022-02-12T07:50:09Z</time>
      </trkpt>
      <trkpt lat="43.0952" lon="-0.08842">
        <ele>534</ele>
        <time>2022-02-12T07:50:10Z</time>
      </trkpt>
      <trkpt lat="43.0952" lon="-0.08843">
        <ele>534</ele>
        <time>2022-02-12T07:50:11Z</time>
      </trkpt>
      <trkpt lat="43.09518" lon="-0.08844">
        <ele>534.2</ele>
        <time>2022-02-12T07:50:12Z</time>
      </trkpt>
      <trkpt lat="43.09517" lon="-0.08845">
        <ele>534.2</ele>
        <time>2022-02-12T07:50:13Z</time>
      </trkpt>
      <trkpt lat="43.09517" lon="-0.08847">
        <ele>534.4</ele>
        <time>2022-02-12T07:50:14Z</time>
      </trkpt>
      <trkpt lat="43.09516" lon="-0.08848">
        <ele>534.4</ele>
        <time>2022-02-12T07:50:15Z</time>
      </trkpt>
      <trkpt lat="43.09515" lon="-0.08848">
        <ele>534.6</ele>
        <time>2022-02-12T07:50:16Z</time>
      </trkpt>
      <trkpt lat="43.09514" lon="-0.0885">
        <ele>534.8</ele>
        <time>2022-02-12T07:50:17Z</time>
      </trkpt>
      <trkpt lat="43.09514" lon="-0.08852">
        <ele>534.8</ele>
        <time>2022-02-12T07:50:18Z</time>
      </trkpt>
      <trkpt lat="43.09514" lon="-0.08854">
        <ele>534.8</ele>
        <time>2022-02-12T07:50:19Z</time>
      </trkpt>
      <trkpt lat="43.09514" lon="-0.08854">
        <ele>535</ele>
        <time>2022-02-12T07:50:20Z</time>
      </trkpt>
      <trkpt lat="43.09513" lon="-0.08857">
        <ele>535</ele>
        <time>2022-02-12T07:50:21Z</time>
      </trkpt>
      <trkpt lat="43.09512" lon="-0.08859">
        <ele>535</ele>
        <time>2022-02-12T07:50:22Z</time>
      </trkpt>
      <trkpt lat="43.09512" lon="-0.0886">
        <ele>535.2</ele>
        <time>2022-02-12T07:50:23Z</time>
      </trkpt>
      <trkpt lat="43.09512" lon="-0.0886">
        <ele>535.2</ele>
        <time>2022-02-12T07:50:24Z</time>
      </trkpt>
      <trkpt lat="43.09512" lon="-0.0886">
        <ele>535.4</ele>
        <time>2022-02-12T07:50:25Z</time>
      </trkpt>
      <trkpt lat="43.09512" lon="-0.0886">
        <ele>535.4</ele>
        <time>2022-02-12T07:50:26Z</time>
      </trkpt>
      <trkpt lat="43.09512" lon="-0.0886">
        <ele>535.4</ele>
        <time>2022-02-12T07:50:27Z</time>
      </trkpt>
      <trkpt lat="43.09512" lon="-0.0886">
        <ele>535.4</ele>
        <time>2022-02-12T07:50:28Z</time>
      </trkpt>
      <trkpt lat="43.09512" lon="-0.0886">
        <ele>535.4</ele>
        <time>2022-02-12T07:50:29Z</time>
      </trkpt>
      <trkpt lat="43.09512" lon="-0.0886">
        <ele>535.4</ele>
        <time>2022-02-12T07:50:30Z</time>
      </trkpt>
      <trkpt lat="43.09512" lon="-0.0886">
        <ele>535.6</ele>
        <time>2022-02-12T07:50:31Z</time>
      </trkpt>
      <trkpt lat="43.09512" lon="-0.0886">
        <ele>535.8</ele>
        <time>2022-02-12T07:50:32Z</time>
      </trkpt>
      <trkpt lat="43.09512" lon="-0.0886">
        <ele>535.8</ele>
        <time>2022-02-12T07:50:33Z</time>
      </trkpt>
      <trkpt lat="43.09512" lon="-0.0886">
        <ele>535.6</ele>
        <time>2022-02-12T07:50:34Z</time>
      </trkpt>
      <trkpt lat="43.09512" lon="-0.0886">
        <ele>535.8</ele>
        <time>2022-02-12T07:50:35Z</time>
      </trkpt>
      <trkpt lat="43.09512" lon="-0.0886">
        <ele>535.8</ele>
        <time>2022-02-12T07:50:36Z</time>
      </trkpt>
      <trkpt lat="43.09512" lon="-0.0886">
        <ele>535.8</ele>
        <time>2022-02-12T07:50:37Z</time>
      </trkpt>
      <trkpt lat="43.09512" lon="-0.0886">
        <ele>535.8</ele>
        <time>2022-02-12T07:50:38Z</time>
      </trkpt>
      <trkpt lat="43.09512" lon="-0.0886">
        <ele>535.8</ele>
        <time>2022-02-12T07:50:39Z</time>
      </trkpt>
      <trkpt lat="43.09512" lon="-0.0886">
        <ele>535.8</ele>
        <time>2022-02-12T07:50:40Z</time>
      </trkpt>
      <trkpt lat="43.09512" lon="-0.0886">
        <ele>535.8</ele>
        <time>2022-02-12T07:50:41Z</time>
      </trkpt>
      <trkpt lat="43.09512" lon="-0.0886">
        <ele>535.8</ele>
        <time>2022-02-12T07:50:42Z</time>
      </trkpt>
      <trkpt lat="43.09512" lon="-0.0886">
        <ele>535.8</ele>
        <time>2022-02-12T07:50:43Z</time>
      </trkpt>
      <trkpt lat="43.09512" lon="-0.0886">
        <ele>535.8</ele>
        <time>2022-02-12T07:50:44Z</time>
      </trkpt>
      <trkpt lat="43.09512" lon="-0.0886">
        <ele>535.8</ele>
        <time>2022-02-12T07:50:45Z</time>
      </trkpt>
      <trkpt lat="43.09512" lon="-0.0886">
        <ele>535.8</ele>
        <time>2022-02-12T07:50:46Z</time>
      </trkpt>
      <trkpt lat="43.09512" lon="-0.0886">
        <ele>535.8</ele>
        <time>2022-02-12T07:50:47Z</time>
      </trkpt>
      <trkpt lat="43.09512" lon="-0.0886">
        <ele>535.8</ele>
        <time>2022-02-12T07:50:48Z</time>
      </trkpt>
      <trkpt lat="43.09512" lon="-0.0886">
        <ele>535.8</ele>
        <time>2022-02-12T07:50:49Z</time>
      </trkpt>
      <trkpt lat="43.09512" lon="-0.0886">
        <ele>535.8</ele>
        <time>2022-02-12T07:50:50Z</time>
      </trkpt>
      <trkpt lat="43.09512" lon="-0.0886">
        <ele>535.8</ele>
        <time>2022-02-12T07:50:51Z</time>
      </trkpt>
      <trkpt lat="43.09512" lon="-0.0886">
        <ele>535.8</ele>
        <time>2022-02-12T07:50:52Z</time>
      </trkpt>
      <trkpt lat="43.09512" lon="-0.0886">
        <ele>535.8</ele>
        <time>2022-02-12T07:50:53Z</time>
      </trkpt>
      <trkpt lat="43.09512" lon="-0.0886">
        <ele>535.8</ele>
        <time>2022-02-12T07:50:54Z</time>
      </trkpt>
      <trkpt lat="43.09512" lon="-0.0886">
        <ele>535.8</ele>
        <time>2022-02-12T07:50:55Z</time>
      </trkpt>
      <trkpt lat="43.09512" lon="-0.0886">
        <ele>535.8</ele>
        <time>2022-02-12T07:50:56Z</time>
      </trkpt>
      <trkpt lat="43.09512" lon="-0.0886">
        <ele>535.8</ele>
        <time>2022-02-12T07:50:57Z</time>
      </trkpt>
      <trkpt lat="43.09512" lon="-0.0886">
        <ele>535.6</ele>
        <time>2022-02-12T07:50:58Z</time>
      </trkpt>
      <trkpt lat="43.09512" lon="-0.0886">
        <ele>535.6</ele>
        <time>2022-02-12T07:50:59Z</time>
      </trkpt>
      <trkpt lat="43.09512" lon="-0.0886">
        <ele>535.6</ele>
        <time>2022-02-12T07:51:00Z</time>
      </trkpt>
      <trkpt lat="43.09511" lon="-0.0886">
        <ele>535.6</ele>
        <time>2022-02-12T07:51:01Z</time>
      </trkpt>
      <trkpt lat="43.09509" lon="-0.0886">
        <ele>535.8</ele>
        <time>2022-02-12T07:51:02Z</time>
      </trkpt>
      <trkpt lat="43.09508" lon="-0.08859">
        <ele>535.8</ele>
        <time>2022-02-12T07:51:03Z</time>
      </trkpt>
      <trkpt lat="43.09507" lon="-0.08859">
        <ele>535.8</ele>
        <time>2022-02-12T07:51:04Z</time>
      </trkpt>
      <trkpt lat="43.09506" lon="-0.08859">
        <ele>535.8</ele>
        <time>2022-02-12T07:51:05Z</time>
      </trkpt>
      <trkpt lat="43.09505" lon="-0.08858">
        <ele>535.8</ele>
        <time>2022-02-12T07:51:06Z</time>
      </trkpt>
      <trkpt lat="43.09504" lon="-0.08857">
        <ele>535.8</ele>
        <time>2022-02-12T07:51:07Z</time>
      </trkpt>
      <trkpt lat="43.09503" lon="-0.08857">
        <ele>535.8</ele>
        <time>2022-02-12T07:51:08Z</time>
      </trkpt>
      <trkpt lat="43.09502" lon="-0.08856">
        <ele>535.8</ele>
        <time>2022-02-12T07:51:09Z</time>
      </trkpt>
      <trkpt lat="43.09501" lon="-0.08856">
        <ele>536</ele>
        <time>2022-02-12T07:51:10Z</time>
      </trkpt>
      <trkpt lat="43.09501" lon="-0.08855">
        <ele>536</ele>
        <time>2022-02-12T07:51:11Z</time>
      </trkpt>
      <trkpt lat="43.095" lon="-0.08854">
        <ele>536</ele>
        <time>2022-02-12T07:51:12Z</time>
      </trkpt>
      <trkpt lat="43.09498" lon="-0.08854">
        <ele>536.2</ele>
        <time>2022-02-12T07:51:13Z</time>
      </trkpt>
      <trkpt lat="43.09498" lon="-0.08854">
        <ele>536.2</ele>
        <time>2022-02-12T07:51:14Z</time>
      </trkpt>
      <trkpt lat="43.09496" lon="-0.08855">
        <ele>536.8</ele>
        <time>2022-02-12T07:51:15Z</time>
      </trkpt>
      <trkpt lat="43.09495" lon="-0.08854">
        <ele>536.8</ele>
        <time>2022-02-12T07:51:16Z</time>
      </trkpt>
      <trkpt lat="43.09494" lon="-0.08854">
        <ele>537</ele>
        <time>2022-02-12T07:51:17Z</time>
      </trkpt>
      <trkpt lat="43.09493" lon="-0.08853">
        <ele>537</ele>
        <time>2022-02-12T07:51:18Z</time>
      </trkpt>
      <trkpt lat="43.09491" lon="-0.08854">
        <ele>537.2</ele>
        <time>2022-02-12T07:51:19Z</time>
      </trkpt>
      <trkpt lat="43.0949" lon="-0.08854">
        <ele>537.4</ele>
        <time>2022-02-12T07:51:20Z</time>
      </trkpt>
      <trkpt lat="43.09489" lon="-0.08855">
        <ele>537.6</ele>
        <time>2022-02-12T07:51:21Z</time>
      </trkpt>
      <trkpt lat="43.09488" lon="-0.08855">
        <ele>537.8</ele>
        <time>2022-02-12T07:51:22Z</time>
      </trkpt>
      <trkpt lat="43.09488" lon="-0.08855">
        <ele>538</ele>
        <time>2022-02-12T07:51:23Z</time>
      </trkpt>
      <trkpt lat="43.09488" lon="-0.08856">
        <ele>538</ele>
        <time>2022-02-12T07:51:24Z</time>
      </trkpt>
      <trkpt lat="43.09488" lon="-0.08856">
        <ele>538.2</ele>
        <time>2022-02-12T07:51:25Z</time>
      </trkpt>
      <trkpt lat="43.09487" lon="-0.08856">
        <ele>538.2</ele>
        <time>2022-02-12T07:51:26Z</time>
      </trkpt>
      <trkpt lat="43.09486" lon="-0.08856">
        <ele>538.4</ele>
        <time>2022-02-12T07:51:27Z</time>
      </trkpt>
      <trkpt lat="43.09483" lon="-0.08857">
        <ele>538.4</ele>
        <time>2022-02-12T07:51:28Z</time>
      </trkpt>
      <trkpt lat="43.09482" lon="-0.08857">
        <ele>538.6</ele>
        <time>2022-02-12T07:51:29Z</time>
      </trkpt>
      <trkpt lat="43.09481" lon="-0.08857">
        <ele>538.8</ele>
        <time>2022-02-12T07:51:30Z</time>
      </trkpt>
      <trkpt lat="43.0948" lon="-0.08858">
        <ele>538.8</ele>
        <time>2022-02-12T07:51:31Z</time>
      </trkpt>
      <trkpt lat="43.09479" lon="-0.08859">
        <ele>539</ele>
        <time>2022-02-12T07:51:32Z</time>
      </trkpt>
      <trkpt lat="43.09477" lon="-0.0886">
        <ele>539.2</ele>
        <time>2022-02-12T07:51:33Z</time>
      </trkpt>
      <trkpt lat="43.09475" lon="-0.08861">
        <ele>539.4</ele>
        <time>2022-02-12T07:51:34Z</time>
      </trkpt>
      <trkpt lat="43.09475" lon="-0.08861">
        <ele>539.4</ele>
        <time>2022-02-12T07:51:35Z</time>
      </trkpt>
      <trkpt lat="43.09473" lon="-0.08863">
        <ele>539.8</ele>
        <time>2022-02-12T07:51:36Z</time>
      </trkpt>
      <trkpt lat="43.09472" lon="-0.08864">
        <ele>539.8</ele>
        <time>2022-02-12T07:51:37Z</time>
      </trkpt>
      <trkpt lat="43.09471" lon="-0.08865">
        <ele>540</ele>
        <time>2022-02-12T07:51:38Z</time>
      </trkpt>
      <trkpt lat="43.0947" lon="-0.08866">
        <ele>540</ele>
        <time>2022-02-12T07:51:39Z</time>
      </trkpt>
      <trkpt lat="43.09469" lon="-0.08867">
        <ele>540</ele>
        <time>2022-02-12T07:51:40Z</time>
      </trkpt>
      <trkpt lat="43.09468" lon="-0.08868">
        <ele>540.2</ele>
        <time>2022-02-12T07:51:41Z</time>
      </trkpt>
      <trkpt lat="43.09466" lon="-0.08869">
        <ele>540.4</ele>
        <time>2022-02-12T07:51:42Z</time>
      </trkpt>
      <trkpt lat="43.09464" lon="-0.0887">
        <ele>540.4</ele>
        <time>2022-02-12T07:51:43Z</time>
      </trkpt>
      <trkpt lat="43.09463" lon="-0.08872">
        <ele>540.6</ele>
        <time>2022-02-12T07:51:44Z</time>
      </trkpt>
      <trkpt lat="43.09462" lon="-0.08873">
        <ele>540.8</ele>
        <time>2022-02-12T07:51:45Z</time>
      </trkpt>
      <trkpt lat="43.09462" lon="-0.08875">
        <ele>540.8</ele>
        <time>2022-02-12T07:51:46Z</time>
      </trkpt>
      <trkpt lat="43.09461" lon="-0.08876">
        <ele>540.8</ele>
        <time>2022-02-12T07:51:47Z</time>
      </trkpt>
      <trkpt lat="43.0946" lon="-0.08877">
        <ele>541</ele>
        <time>2022-02-12T07:51:48Z</time>
      </trkpt>
      <trkpt lat="43.09458" lon="-0.08878">
        <ele>541</ele>
        <time>2022-02-12T07:51:49Z</time>
      </trkpt>
      <trkpt lat="43.09458" lon="-0.0888">
        <ele>541.2</ele>
        <time>2022-02-12T07:51:50Z</time>
      </trkpt>
      <trkpt lat="43.09457" lon="-0.08881">
        <ele>541.2</ele>
        <time>2022-02-12T07:51:51Z</time>
      </trkpt>
      <trkpt lat="43.09457" lon="-0.08882">
        <ele>541.4</ele>
        <time>2022-02-12T07:51:52Z</time>
      </trkpt>
      <trkpt lat="43.09456" lon="-0.08884">
        <ele>541.6</ele>
        <time>2022-02-12T07:51:53Z</time>
      </trkpt>
      <trkpt lat="43.09456" lon="-0.08886">
        <ele>541.8</ele>
        <time>2022-02-12T07:51:54Z</time>
      </trkpt>
      <trkpt lat="43.09456" lon="-0.0889">
        <ele>541.8</ele>
        <time>2022-02-12T07:51:55Z</time>
      </trkpt>
      <trkpt lat="43.09455" lon="-0.08891">
        <ele>542</ele>
        <time>2022-02-12T07:51:56Z</time>
      </trkpt>
      <trkpt lat="43.09454" lon="-0.08892">
        <ele>542.2</ele>
        <time>2022-02-12T07:51:57Z</time>
      </trkpt>
      <trkpt lat="43.09454" lon="-0.08893">
        <ele>542.2</ele>
        <time>2022-02-12T07:51:58Z</time>
      </trkpt>
      <trkpt lat="43.09453" lon="-0.08895">
        <ele>542.2</ele>
        <time>2022-02-12T07:51:59Z</time>
      </trkpt>
      <trkpt lat="43.09453" lon="-0.08896">
        <ele>542.4</ele>
        <time>2022-02-12T07:52:00Z</time>
      </trkpt>
      <trkpt lat="43.09453" lon="-0.08896">
        <ele>542.6</ele>
        <time>2022-02-12T07:52:01Z</time>
      </trkpt>
      <trkpt lat="43.09452" lon="-0.08898">
        <ele>542.6</ele>
        <time>2022-02-12T07:52:02Z</time>
      </trkpt>
      <trkpt lat="43.09451" lon="-0.08899">
        <ele>542.8</ele>
        <time>2022-02-12T07:52:03Z</time>
      </trkpt>
      <trkpt lat="43.0945" lon="-0.089">
        <ele>543</ele>
        <time>2022-02-12T07:52:04Z</time>
      </trkpt>
      <trkpt lat="43.09449" lon="-0.08901">
        <ele>543.2</ele>
        <time>2022-02-12T07:52:05Z</time>
      </trkpt>
      <trkpt lat="43.09449" lon="-0.08902">
        <ele>543.4</ele>
        <time>2022-02-12T07:52:06Z</time>
      </trkpt>
      <trkpt lat="43.09448" lon="-0.08903">
        <ele>543.4</ele>
        <time>2022-02-12T07:52:07Z</time>
      </trkpt>
      <trkpt lat="43.09448" lon="-0.08905">
        <ele>543.6</ele>
        <time>2022-02-12T07:52:08Z</time>
      </trkpt>
      <trkpt lat="43.09447" lon="-0.08906">
        <ele>543.8</ele>
        <time>2022-02-12T07:52:09Z</time>
      </trkpt>
      <trkpt lat="43.09447" lon="-0.08907">
        <ele>543.8</ele>
        <time>2022-02-12T07:52:10Z</time>
      </trkpt>
      <trkpt lat="43.09446" lon="-0.08907">
        <ele>544</ele>
        <time>2022-02-12T07:52:11Z</time>
      </trkpt>
      <trkpt lat="43.09445" lon="-0.08908">
        <ele>544</ele>
        <time>2022-02-12T07:52:12Z</time>
      </trkpt>
      <trkpt lat="43.09445" lon="-0.0891">
        <ele>544.2</ele>
        <time>2022-02-12T07:52:13Z</time>
      </trkpt>
      <trkpt lat="43.09444" lon="-0.08911">
        <ele>544.4</ele>
        <time>2022-02-12T07:52:14Z</time>
      </trkpt>
      <trkpt lat="43.09442" lon="-0.08912">
        <ele>544.4</ele>
        <time>2022-02-12T07:52:15Z</time>
      </trkpt>
      <trkpt lat="43.09441" lon="-0.08914">
        <ele>544.6</ele>
        <time>2022-02-12T07:52:16Z</time>
      </trkpt>
      <trkpt lat="43.0944" lon="-0.08916">
        <ele>544.8</ele>
        <time>2022-02-12T07:52:17Z</time>
      </trkpt>
      <trkpt lat="43.09439" lon="-0.08917">
        <ele>544.8</ele>
        <time>2022-02-12T07:52:18Z</time>
      </trkpt>
      <trkpt lat="43.09438" lon="-0.08919">
        <ele>545</ele>
        <time>2022-02-12T07:52:19Z</time>
      </trkpt>
      <trkpt lat="43.09438" lon="-0.0892">
        <ele>545.2</ele>
        <time>2022-02-12T07:52:20Z</time>
      </trkpt>
      <trkpt lat="43.09437" lon="-0.08922">
        <ele>545.2</ele>
        <time>2022-02-12T07:52:21Z</time>
      </trkpt>
      <trkpt lat="43.09436" lon="-0.08924">
        <ele>545.4</ele>
        <time>2022-02-12T07:52:22Z</time>
      </trkpt>
      <trkpt lat="43.09436" lon="-0.08925">
        <ele>545.4</ele>
        <time>2022-02-12T07:52:23Z</time>
      </trkpt>
      <trkpt lat="43.09436" lon="-0.08926">
        <ele>545.6</ele>
        <time>2022-02-12T07:52:24Z</time>
      </trkpt>
      <trkpt lat="43.09435" lon="-0.08927">
        <ele>545.6</ele>
        <time>2022-02-12T07:52:25Z</time>
      </trkpt>
      <trkpt lat="43.09434" lon="-0.08929">
        <ele>545.8</ele>
        <time>2022-02-12T07:52:26Z</time>
      </trkpt>
      <trkpt lat="43.09433" lon="-0.0893">
        <ele>546</ele>
        <time>2022-02-12T07:52:27Z</time>
      </trkpt>
      <trkpt lat="43.09433" lon="-0.08932">
        <ele>546.2</ele>
        <time>2022-02-12T07:52:28Z</time>
      </trkpt>
      <trkpt lat="43.09432" lon="-0.08934">
        <ele>546.4</ele>
        <time>2022-02-12T07:52:29Z</time>
      </trkpt>
      <trkpt lat="43.09432" lon="-0.08937">
        <ele>546.6</ele>
        <time>2022-02-12T07:52:30Z</time>
      </trkpt>
      <trkpt lat="43.09432" lon="-0.08938">
        <ele>546.6</ele>
        <time>2022-02-12T07:52:31Z</time>
      </trkpt>
      <trkpt lat="43.09431" lon="-0.0894">
        <ele>546.8</ele>
        <time>2022-02-12T07:52:32Z</time>
      </trkpt>
      <trkpt lat="43.09428" lon="-0.08942">
        <ele>546.8</ele>
        <time>2022-02-12T07:52:33Z</time>
      </trkpt>
      <trkpt lat="43.09427" lon="-0.08943">
        <ele>547.2</ele>
        <time>2022-02-12T07:52:34Z</time>
      </trkpt>
      <trkpt lat="43.09425" lon="-0.08944">
        <ele>547.2</ele>
        <time>2022-02-12T07:52:35Z</time>
      </trkpt>
      <trkpt lat="43.09425" lon="-0.08946">
        <ele>547.4</ele>
        <time>2022-02-12T07:52:36Z</time>
      </trkpt>
      <trkpt lat="43.09425" lon="-0.08947">
        <ele>547.6</ele>
        <time>2022-02-12T07:52:37Z</time>
      </trkpt>
      <trkpt lat="43.09425" lon="-0.08948">
        <ele>547.6</ele>
        <time>2022-02-12T07:52:38Z</time>
      </trkpt>
      <trkpt lat="43.09426" lon="-0.0895">
        <ele>547.6</ele>
        <time>2022-02-12T07:52:39Z</time>
      </trkpt>
      <trkpt lat="43.09425" lon="-0.08951">
        <ele>547.8</ele>
        <time>2022-02-12T07:52:40Z</time>
      </trkpt>
      <trkpt lat="43.09425" lon="-0.08953">
        <ele>548</ele>
        <time>2022-02-12T07:52:41Z</time>
      </trkpt>
      <trkpt lat="43.09425" lon="-0.08954">
        <ele>548</ele>
        <time>2022-02-12T07:52:42Z</time>
      </trkpt>
      <trkpt lat="43.09424" lon="-0.08956">
        <ele>548.2</ele>
        <time>2022-02-12T07:52:43Z</time>
      </trkpt>
      <trkpt lat="43.09423" lon="-0.08958">
        <ele>548.2</ele>
        <time>2022-02-12T07:52:44Z</time>
      </trkpt>
      <trkpt lat="43.09423" lon="-0.08959">
        <ele>548.4</ele>
        <time>2022-02-12T07:52:45Z</time>
      </trkpt>
      <trkpt lat="43.09423" lon="-0.0896">
        <ele>548.4</ele>
        <time>2022-02-12T07:52:46Z</time>
      </trkpt>
      <trkpt lat="43.09422" lon="-0.08962">
        <ele>548.6</ele>
        <time>2022-02-12T07:52:47Z</time>
      </trkpt>
      <trkpt lat="43.09422" lon="-0.08963">
        <ele>548.8</ele>
        <time>2022-02-12T07:52:48Z</time>
      </trkpt>
      <trkpt lat="43.09422" lon="-0.08965">
        <ele>548.8</ele>
        <time>2022-02-12T07:52:49Z</time>
      </trkpt>
      <trkpt lat="43.09421" lon="-0.08966">
        <ele>549</ele>
        <time>2022-02-12T07:52:50Z</time>
      </trkpt>
      <trkpt lat="43.09421" lon="-0.08968">
        <ele>549.2</ele>
        <time>2022-02-12T07:52:51Z</time>
      </trkpt>
      <trkpt lat="43.0942" lon="-0.0897">
        <ele>549.2</ele>
        <time>2022-02-12T07:52:52Z</time>
      </trkpt>
      <trkpt lat="43.09419" lon="-0.08971">
        <ele>549.4</ele>
        <time>2022-02-12T07:52:53Z</time>
      </trkpt>
      <trkpt lat="43.09419" lon="-0.08973">
        <ele>549.6</ele>
        <time>2022-02-12T07:52:54Z</time>
      </trkpt>
      <trkpt lat="43.09418" lon="-0.08975">
        <ele>549.8</ele>
        <time>2022-02-12T07:52:55Z</time>
      </trkpt>
      <trkpt lat="43.09418" lon="-0.08976">
        <ele>549.8</ele>
        <time>2022-02-12T07:52:56Z</time>
      </trkpt>
      <trkpt lat="43.09417" lon="-0.08978">
        <ele>550</ele>
        <time>2022-02-12T07:52:57Z</time>
      </trkpt>
      <trkpt lat="43.09416" lon="-0.08979">
        <ele>550.2</ele>
        <time>2022-02-12T07:52:58Z</time>
      </trkpt>
      <trkpt lat="43.09416" lon="-0.08981">
        <ele>550.4</ele>
        <time>2022-02-12T07:52:59Z</time>
      </trkpt>
      <trkpt lat="43.09414" lon="-0.08982">
        <ele>550.6</ele>
        <time>2022-02-12T07:53:00Z</time>
      </trkpt>
      <trkpt lat="43.09414" lon="-0.08983">
        <ele>550.8</ele>
        <time>2022-02-12T07:53:01Z</time>
      </trkpt>
      <trkpt lat="43.09414" lon="-0.08985">
        <ele>550.8</ele>
        <time>2022-02-12T07:53:02Z</time>
      </trkpt>
      <trkpt lat="43.09413" lon="-0.08986">
        <ele>551</ele>
        <time>2022-02-12T07:53:03Z</time>
      </trkpt>
      <trkpt lat="43.09413" lon="-0.08988">
        <ele>551</ele>
        <time>2022-02-12T07:53:04Z</time>
      </trkpt>
      <trkpt lat="43.09413" lon="-0.0899">
        <ele>551.2</ele>
        <time>2022-02-12T07:53:05Z</time>
      </trkpt>
      <trkpt lat="43.09413" lon="-0.08992">
        <ele>551.4</ele>
        <time>2022-02-12T07:53:06Z</time>
      </trkpt>
      <trkpt lat="43.09413" lon="-0.08994">
        <ele>551.4</ele>
        <time>2022-02-12T07:53:07Z</time>
      </trkpt>
      <trkpt lat="43.09413" lon="-0.08997">
        <ele>551.6</ele>
        <time>2022-02-12T07:53:08Z</time>
      </trkpt>
      <trkpt lat="43.09413" lon="-0.09">
        <ele>551.6</ele>
        <time>2022-02-12T07:53:09Z</time>
      </trkpt>
      <trkpt lat="43.09413" lon="-0.09001">
        <ele>551.8</ele>
        <time>2022-02-12T07:53:10Z</time>
      </trkpt>
      <trkpt lat="43.09413" lon="-0.09003">
        <ele>551.8</ele>
        <time>2022-02-12T07:53:11Z</time>
      </trkpt>
      <trkpt lat="43.09413" lon="-0.09005">
        <ele>552</ele>
        <time>2022-02-12T07:53:12Z</time>
      </trkpt>
      <trkpt lat="43.09413" lon="-0.09006">
        <ele>552</ele>
        <time>2022-02-12T07:53:13Z</time>
      </trkpt>
      <trkpt lat="43.09413" lon="-0.09007">
        <ele>552.2</ele>
        <time>2022-02-12T07:53:14Z</time>
      </trkpt>
      <trkpt lat="43.09413" lon="-0.09009">
        <ele>552.4</ele>
        <time>2022-02-12T07:53:15Z</time>
      </trkpt>
      <trkpt lat="43.09413" lon="-0.0901">
        <ele>552.6</ele>
        <time>2022-02-12T07:53:16Z</time>
      </trkpt>
      <trkpt lat="43.09413" lon="-0.09011">
        <ele>553</ele>
        <time>2022-02-12T07:53:17Z</time>
      </trkpt>
      <trkpt lat="43.09414" lon="-0.09013">
        <ele>553.2</ele>
        <time>2022-02-12T07:53:18Z</time>
      </trkpt>
      <trkpt lat="43.09414" lon="-0.09016">
        <ele>553.4</ele>
        <time>2022-02-12T07:53:19Z</time>
      </trkpt>
      <trkpt lat="43.09414" lon="-0.09017">
        <ele>553.6</ele>
        <time>2022-02-12T07:53:20Z</time>
      </trkpt>
      <trkpt lat="43.09414" lon="-0.09018">
        <ele>553.6</ele>
        <time>2022-02-12T07:53:21Z</time>
      </trkpt>
      <trkpt lat="43.09415" lon="-0.09018">
        <ele>553.8</ele>
        <time>2022-02-12T07:53:22Z</time>
      </trkpt>
      <trkpt lat="43.09415" lon="-0.09019">
        <ele>554.2</ele>
        <time>2022-02-12T07:53:23Z</time>
      </trkpt>
      <trkpt lat="43.09415" lon="-0.09021">
        <ele>554.2</ele>
        <time>2022-02-12T07:53:24Z</time>
      </trkpt>
      <trkpt lat="43.09413" lon="-0.09023">
        <ele>554.4</ele>
        <time>2022-02-12T07:53:25Z</time>
      </trkpt>
      <trkpt lat="43.09413" lon="-0.09024">
        <ele>554.6</ele>
        <time>2022-02-12T07:53:26Z</time>
      </trkpt>
      <trkpt lat="43.09413" lon="-0.09024">
        <ele>554.8</ele>
        <time>2022-02-12T07:53:27Z</time>
      </trkpt>
      <trkpt lat="43.09413" lon="-0.09024">
        <ele>555</ele>
        <time>2022-02-12T07:53:28Z</time>
      </trkpt>
      <trkpt lat="43.09413" lon="-0.09025">
        <ele>555.2</ele>
        <time>2022-02-12T07:53:29Z</time>
      </trkpt>
      <trkpt lat="43.09413" lon="-0.09027">
        <ele>555.2</ele>
        <time>2022-02-12T07:53:30Z</time>
      </trkpt>
      <trkpt lat="43.09412" lon="-0.09028">
        <ele>555.4</ele>
        <time>2022-02-12T07:53:31Z</time>
      </trkpt>
      <trkpt lat="43.09412" lon="-0.09029">
        <ele>555.4</ele>
        <time>2022-02-12T07:53:32Z</time>
      </trkpt>
      <trkpt lat="43.09412" lon="-0.09031">
        <ele>555.6</ele>
        <time>2022-02-12T07:53:33Z</time>
      </trkpt>
      <trkpt lat="43.09412" lon="-0.09032">
        <ele>555.6</ele>
        <time>2022-02-12T07:53:34Z</time>
      </trkpt>
      <trkpt lat="43.09412" lon="-0.09032">
        <ele>555.8</ele>
        <time>2022-02-12T07:53:35Z</time>
      </trkpt>
      <trkpt lat="43.09412" lon="-0.09033">
        <ele>556</ele>
        <time>2022-02-12T07:53:36Z</time>
      </trkpt>
      <trkpt lat="43.09411" lon="-0.09034">
        <ele>556.2</ele>
        <time>2022-02-12T07:53:37Z</time>
      </trkpt>
      <trkpt lat="43.0941" lon="-0.09036">
        <ele>556.2</ele>
        <time>2022-02-12T07:53:38Z</time>
      </trkpt>
      <trkpt lat="43.0941" lon="-0.09037">
        <ele>556.4</ele>
        <time>2022-02-12T07:53:39Z</time>
      </trkpt>
      <trkpt lat="43.09409" lon="-0.09039">
        <ele>556.4</ele>
        <time>2022-02-12T07:53:40Z</time>
      </trkpt>
      <trkpt lat="43.09409" lon="-0.09039">
        <ele>556.8</ele>
        <time>2022-02-12T07:53:41Z</time>
      </trkpt>
      <trkpt lat="43.09409" lon="-0.0904">
        <ele>557</ele>
        <time>2022-02-12T07:53:42Z</time>
      </trkpt>
      <trkpt lat="43.09409" lon="-0.09041">
        <ele>557.2</ele>
        <time>2022-02-12T07:53:43Z</time>
      </trkpt>
      <trkpt lat="43.09409" lon="-0.09041">
        <ele>557.2</ele>
        <time>2022-02-12T07:53:44Z</time>
      </trkpt>
      <trkpt lat="43.09409" lon="-0.09042">
        <ele>557.4</ele>
        <time>2022-02-12T07:53:45Z</time>
      </trkpt>
      <trkpt lat="43.09409" lon="-0.09042">
        <ele>557.4</ele>
        <time>2022-02-12T07:53:46Z</time>
      </trkpt>
      <trkpt lat="43.09409" lon="-0.09044">
        <ele>557.6</ele>
        <time>2022-02-12T07:53:47Z</time>
      </trkpt>
      <trkpt lat="43.09409" lon="-0.09046">
        <ele>557.6</ele>
        <time>2022-02-12T07:53:48Z</time>
      </trkpt>
      <trkpt lat="43.09409" lon="-0.09048">
        <ele>557.6</ele>
        <time>2022-02-12T07:53:49Z</time>
      </trkpt>
      <trkpt lat="43.09409" lon="-0.0905">
        <ele>557.8</ele>
        <time>2022-02-12T07:53:50Z</time>
      </trkpt>
      <trkpt lat="43.09409" lon="-0.09052">
        <ele>558</ele>
        <time>2022-02-12T07:53:51Z</time>
      </trkpt>
      <trkpt lat="43.09407" lon="-0.09055">
        <ele>558.2</ele>
        <time>2022-02-12T07:53:52Z</time>
      </trkpt>
      <trkpt lat="43.09406" lon="-0.09056">
        <ele>558.4</ele>
        <time>2022-02-12T07:53:53Z</time>
      </trkpt>
      <trkpt lat="43.09402" lon="-0.09059">
        <ele>558.6</ele>
        <time>2022-02-12T07:53:54Z</time>
      </trkpt>
      <trkpt lat="43.094" lon="-0.09062">
        <ele>558.8</ele>
        <time>2022-02-12T07:53:55Z</time>
      </trkpt>
      <trkpt lat="43.09399" lon="-0.09064">
        <ele>559</ele>
        <time>2022-02-12T07:53:56Z</time>
      </trkpt>
      <trkpt lat="43.09398" lon="-0.09068">
        <ele>559.2</ele>
        <time>2022-02-12T07:53:57Z</time>
      </trkpt>
      <trkpt lat="43.09397" lon="-0.0907">
        <ele>559.4</ele>
        <time>2022-02-12T07:53:58Z</time>
      </trkpt>
      <trkpt lat="43.09395" lon="-0.09073">
        <ele>559.6</ele>
        <time>2022-02-12T07:53:59Z</time>
      </trkpt>
      <trkpt lat="43.09396" lon="-0.09075">
        <ele>559.8</ele>
        <time>2022-02-12T07:54:00Z</time>
      </trkpt>
      <trkpt lat="43.09395" lon="-0.09077">
        <ele>559.8</ele>
        <time>2022-02-12T07:54:01Z</time>
      </trkpt>
      <trkpt lat="43.09396" lon="-0.0908">
        <ele>560</ele>
        <time>2022-02-12T07:54:02Z</time>
      </trkpt>
      <trkpt lat="43.09396" lon="-0.09081">
        <ele>560.2</ele>
        <time>2022-02-12T07:54:03Z</time>
      </trkpt>
      <trkpt lat="43.09396" lon="-0.09082">
        <ele>560.2</ele>
        <time>2022-02-12T07:54:04Z</time>
      </trkpt>
      <trkpt lat="43.09395" lon="-0.09082">
        <ele>560.2</ele>
        <time>2022-02-12T07:54:05Z</time>
      </trkpt>
      <trkpt lat="43.09396" lon="-0.09083">
        <ele>560.4</ele>
        <time>2022-02-12T07:54:06Z</time>
      </trkpt>
      <trkpt lat="43.09397" lon="-0.09085">
        <ele>560.6</ele>
        <time>2022-02-12T07:54:07Z</time>
      </trkpt>
      <trkpt lat="43.09397" lon="-0.09087">
        <ele>560.8</ele>
        <time>2022-02-12T07:54:08Z</time>
      </trkpt>
      <trkpt lat="43.09398" lon="-0.09089">
        <ele>561</ele>
        <time>2022-02-12T07:54:09Z</time>
      </trkpt>
      <trkpt lat="43.09398" lon="-0.0909">
        <ele>561.2</ele>
        <time>2022-02-12T07:54:10Z</time>
      </trkpt>
      <trkpt lat="43.09397" lon="-0.09091">
        <ele>561.2</ele>
        <time>2022-02-12T07:54:11Z</time>
      </trkpt>
      <trkpt lat="43.09397" lon="-0.09093">
        <ele>561.4</ele>
        <time>2022-02-12T07:54:12Z</time>
      </trkpt>
      <trkpt lat="43.09397" lon="-0.09094">
        <ele>561.6</ele>
        <time>2022-02-12T07:54:13Z</time>
      </trkpt>
      <trkpt lat="43.09397" lon="-0.09095">
        <ele>561.8</ele>
        <time>2022-02-12T07:54:14Z</time>
      </trkpt>
      <trkpt lat="43.09397" lon="-0.09097">
        <ele>562</ele>
        <time>2022-02-12T07:54:15Z</time>
      </trkpt>
      <trkpt lat="43.09396" lon="-0.09098">
        <ele>562</ele>
        <time>2022-02-12T07:54:16Z</time>
      </trkpt>
      <trkpt lat="43.09396" lon="-0.09099">
        <ele>562.4</ele>
        <time>2022-02-12T07:54:17Z</time>
      </trkpt>
      <trkpt lat="43.09396" lon="-0.09101">
        <ele>562.6</ele>
        <time>2022-02-12T07:54:18Z</time>
      </trkpt>
      <trkpt lat="43.09396" lon="-0.09103">
        <ele>562.8</ele>
        <time>2022-02-12T07:54:19Z</time>
      </trkpt>
      <trkpt lat="43.09396" lon="-0.09103">
        <ele>563</ele>
        <time>2022-02-12T07:54:20Z</time>
      </trkpt>
      <trkpt lat="43.09396" lon="-0.09104">
        <ele>563.2</ele>
        <time>2022-02-12T07:54:21Z</time>
      </trkpt>
      <trkpt lat="43.09394" lon="-0.09105">
        <ele>563.2</ele>
        <time>2022-02-12T07:54:22Z</time>
      </trkpt>
      <trkpt lat="43.09394" lon="-0.09106">
        <ele>563.6</ele>
        <time>2022-02-12T07:54:23Z</time>
      </trkpt>
      <trkpt lat="43.09394" lon="-0.09107">
        <ele>563.6</ele>
        <time>2022-02-12T07:54:24Z</time>
      </trkpt>
      <trkpt lat="43.09395" lon="-0.09109">
        <ele>563.8</ele>
        <time>2022-02-12T07:54:25Z</time>
      </trkpt>
      <trkpt lat="43.09395" lon="-0.09111">
        <ele>563.8</ele>
        <time>2022-02-12T07:54:26Z</time>
      </trkpt>
      <trkpt lat="43.09395" lon="-0.09112">
        <ele>564.2</ele>
        <time>2022-02-12T07:54:27Z</time>
      </trkpt>
      <trkpt lat="43.09395" lon="-0.09113">
        <ele>564.4</ele>
        <time>2022-02-12T07:54:28Z</time>
      </trkpt>
      <trkpt lat="43.09394" lon="-0.09115">
        <ele>564.4</ele>
        <time>2022-02-12T07:54:29Z</time>
      </trkpt>
      <trkpt lat="43.09394" lon="-0.09117">
        <ele>564.8</ele>
        <time>2022-02-12T07:54:30Z</time>
      </trkpt>
      <trkpt lat="43.09395" lon="-0.09118">
        <ele>564.8</ele>
        <time>2022-02-12T07:54:31Z</time>
      </trkpt>
      <trkpt lat="43.09393" lon="-0.0912">
        <ele>565.2</ele>
        <time>2022-02-12T07:54:32Z</time>
      </trkpt>
      <trkpt lat="43.09393" lon="-0.09122">
        <ele>565.4</ele>
        <time>2022-02-12T07:54:33Z</time>
      </trkpt>
      <trkpt lat="43.09393" lon="-0.09124">
        <ele>565.4</ele>
        <time>2022-02-12T07:54:34Z</time>
      </trkpt>
      <trkpt lat="43.09394" lon="-0.09126">
        <ele>565.6</ele>
        <time>2022-02-12T07:54:35Z</time>
      </trkpt>
      <trkpt lat="43.09394" lon="-0.09129">
        <ele>565.8</ele>
        <time>2022-02-12T07:54:36Z</time>
      </trkpt>
      <trkpt lat="43.09394" lon="-0.09131">
        <ele>565.8</ele>
        <time>2022-02-12T07:54:37Z</time>
      </trkpt>
      <trkpt lat="43.09393" lon="-0.09132">
        <ele>566</ele>
        <time>2022-02-12T07:54:38Z</time>
      </trkpt>
      <trkpt lat="43.09393" lon="-0.09134">
        <ele>566.2</ele>
        <time>2022-02-12T07:54:39Z</time>
      </trkpt>
      <trkpt lat="43.09394" lon="-0.09137">
        <ele>566.4</ele>
        <time>2022-02-12T07:54:40Z</time>
      </trkpt>
      <trkpt lat="43.09393" lon="-0.09138">
        <ele>566.4</ele>
        <time>2022-02-12T07:54:41Z</time>
      </trkpt>
      <trkpt lat="43.09393" lon="-0.0914">
        <ele>566.6</ele>
        <time>2022-02-12T07:54:42Z</time>
      </trkpt>
      <trkpt lat="43.09393" lon="-0.09142">
        <ele>566.6</ele>
        <time>2022-02-12T07:54:43Z</time>
      </trkpt>
      <trkpt lat="43.09393" lon="-0.09144">
        <ele>566.8</ele>
        <time>2022-02-12T07:54:44Z</time>
      </trkpt>
      <trkpt lat="43.09394" lon="-0.09146">
        <ele>567</ele>
        <time>2022-02-12T07:54:45Z</time>
      </trkpt>
      <trkpt lat="43.09394" lon="-0.09147">
        <ele>567.2</ele>
        <time>2022-02-12T07:54:46Z</time>
      </trkpt>
      <trkpt lat="43.09393" lon="-0.09149">
        <ele>567.2</ele>
        <time>2022-02-12T07:54:47Z</time>
      </trkpt>
      <trkpt lat="43.09394" lon="-0.09151">
        <ele>567.4</ele>
        <time>2022-02-12T07:54:48Z</time>
      </trkpt>
      <trkpt lat="43.09394" lon="-0.09153">
        <ele>567.4</ele>
        <time>2022-02-12T07:54:49Z</time>
      </trkpt>
      <trkpt lat="43.09394" lon="-0.09156">
        <ele>567.6</ele>
        <time>2022-02-12T07:54:50Z</time>
      </trkpt>
      <trkpt lat="43.09393" lon="-0.09158">
        <ele>567.6</ele>
        <time>2022-02-12T07:54:51Z</time>
      </trkpt>
      <trkpt lat="43.09392" lon="-0.0916">
        <ele>567.6</ele>
        <time>2022-02-12T07:54:52Z</time>
      </trkpt>
      <trkpt lat="43.09391" lon="-0.09161">
        <ele>567.8</ele>
        <time>2022-02-12T07:54:53Z</time>
      </trkpt>
      <trkpt lat="43.09392" lon="-0.09161">
        <ele>567.8</ele>
        <time>2022-02-12T07:54:54Z</time>
      </trkpt>
      <trkpt lat="43.09391" lon="-0.09162">
        <ele>567.8</ele>
        <time>2022-02-12T07:54:55Z</time>
      </trkpt>
      <trkpt lat="43.09392" lon="-0.09162">
        <ele>568</ele>
        <time>2022-02-12T07:54:56Z</time>
      </trkpt>
      <trkpt lat="43.0939" lon="-0.09164">
        <ele>568</ele>
        <time>2022-02-12T07:54:57Z</time>
      </trkpt>
      <trkpt lat="43.09388" lon="-0.09166">
        <ele>568</ele>
        <time>2022-02-12T07:54:58Z</time>
      </trkpt>
      <trkpt lat="43.09386" lon="-0.09169">
        <ele>568</ele>
        <time>2022-02-12T07:54:59Z</time>
      </trkpt>
      <trkpt lat="43.09386" lon="-0.0917">
        <ele>568</ele>
        <time>2022-02-12T07:55:00Z</time>
      </trkpt>
      <trkpt lat="43.09386" lon="-0.09172">
        <ele>568.2</ele>
        <time>2022-02-12T07:55:01Z</time>
      </trkpt>
      <trkpt lat="43.09385" lon="-0.09173">
        <ele>568.2</ele>
        <time>2022-02-12T07:55:02Z</time>
      </trkpt>
      <trkpt lat="43.09384" lon="-0.09175">
        <ele>568.2</ele>
        <time>2022-02-12T07:55:03Z</time>
      </trkpt>
      <trkpt lat="43.09383" lon="-0.09176">
        <ele>568.4</ele>
        <time>2022-02-12T07:55:04Z</time>
      </trkpt>
      <trkpt lat="43.09383" lon="-0.09178">
        <ele>568.6</ele>
        <time>2022-02-12T07:55:05Z</time>
      </trkpt>
      <trkpt lat="43.09383" lon="-0.09179">
        <ele>568.6</ele>
        <time>2022-02-12T07:55:06Z</time>
      </trkpt>
      <trkpt lat="43.09382" lon="-0.09181">
        <ele>568.8</ele>
        <time>2022-02-12T07:55:07Z</time>
      </trkpt>
      <trkpt lat="43.09382" lon="-0.09182">
        <ele>568.8</ele>
        <time>2022-02-12T07:55:08Z</time>
      </trkpt>
      <trkpt lat="43.09382" lon="-0.09184">
        <ele>569</ele>
        <time>2022-02-12T07:55:09Z</time>
      </trkpt>
      <trkpt lat="43.09382" lon="-0.09184">
        <ele>569</ele>
        <time>2022-02-12T07:55:10Z</time>
      </trkpt>
      <trkpt lat="43.09382" lon="-0.09184">
        <ele>569.2</ele>
        <time>2022-02-12T07:55:11Z</time>
      </trkpt>
      <trkpt lat="43.09381" lon="-0.09185">
        <ele>569.2</ele>
        <time>2022-02-12T07:55:12Z</time>
      </trkpt>
      <trkpt lat="43.0938" lon="-0.09185">
        <ele>569.4</ele>
        <time>2022-02-12T07:55:13Z</time>
      </trkpt>
      <trkpt lat="43.0938" lon="-0.09185">
        <ele>569.4</ele>
        <time>2022-02-12T07:55:14Z</time>
      </trkpt>
      <trkpt lat="43.0938" lon="-0.09186">
        <ele>569.6</ele>
        <time>2022-02-12T07:55:15Z</time>
      </trkpt>
      <trkpt lat="43.09379" lon="-0.09188">
        <ele>569.6</ele>
        <time>2022-02-12T07:55:16Z</time>
      </trkpt>
      <trkpt lat="43.0938" lon="-0.0919">
        <ele>569.8</ele>
        <time>2022-02-12T07:55:17Z</time>
      </trkpt>
      <trkpt lat="43.0938" lon="-0.09192">
        <ele>570</ele>
        <time>2022-02-12T07:55:18Z</time>
      </trkpt>
      <trkpt lat="43.0938" lon="-0.09194">
        <ele>570</ele>
        <time>2022-02-12T07:55:19Z</time>
      </trkpt>
      <trkpt lat="43.0938" lon="-0.09196">
        <ele>570.2</ele>
        <time>2022-02-12T07:55:20Z</time>
      </trkpt>
      <trkpt lat="43.09379" lon="-0.09199">
        <ele>570.2</ele>
        <time>2022-02-12T07:55:21Z</time>
      </trkpt>
      <trkpt lat="43.09377" lon="-0.09201">
        <ele>570.6</ele>
        <time>2022-02-12T07:55:22Z</time>
      </trkpt>
      <trkpt lat="43.09377" lon="-0.09203">
        <ele>570.6</ele>
        <time>2022-02-12T07:55:23Z</time>
      </trkpt>
      <trkpt lat="43.09375" lon="-0.09206">
        <ele>570.8</ele>
        <time>2022-02-12T07:55:24Z</time>
      </trkpt>
      <trkpt lat="43.09375" lon="-0.09206">
        <ele>570.8</ele>
        <time>2022-02-12T07:55:25Z</time>
      </trkpt>
      <trkpt lat="43.09376" lon="-0.09207">
        <ele>571</ele>
        <time>2022-02-12T07:55:26Z</time>
      </trkpt>
      <trkpt lat="43.09376" lon="-0.09208">
        <ele>571</ele>
        <time>2022-02-12T07:55:27Z</time>
      </trkpt>
      <trkpt lat="43.09373" lon="-0.09209">
        <ele>571.2</ele>
        <time>2022-02-12T07:55:28Z</time>
      </trkpt>
      <trkpt lat="43.0937" lon="-0.09211">
        <ele>571.4</ele>
        <time>2022-02-12T07:55:29Z</time>
      </trkpt>
      <trkpt lat="43.09367" lon="-0.09214">
        <ele>571.6</ele>
        <time>2022-02-12T07:55:30Z</time>
      </trkpt>
      <trkpt lat="43.09368" lon="-0.09217">
        <ele>571.6</ele>
        <time>2022-02-12T07:55:31Z</time>
      </trkpt>
      <trkpt lat="43.09369" lon="-0.0922">
        <ele>571.8</ele>
        <time>2022-02-12T07:55:32Z</time>
      </trkpt>
      <trkpt lat="43.09367" lon="-0.09223">
        <ele>571.8</ele>
        <time>2022-02-12T07:55:33Z</time>
      </trkpt>
      <trkpt lat="43.09366" lon="-0.09227">
        <ele>572</ele>
        <time>2022-02-12T07:55:34Z</time>
      </trkpt>
      <trkpt lat="43.09366" lon="-0.0923">
        <ele>572.2</ele>
        <time>2022-02-12T07:55:35Z</time>
      </trkpt>
      <trkpt lat="43.09367" lon="-0.09232">
        <ele>572.4</ele>
        <time>2022-02-12T07:55:36Z</time>
      </trkpt>
      <trkpt lat="43.09367" lon="-0.09234">
        <ele>572.4</ele>
        <time>2022-02-12T07:55:37Z</time>
      </trkpt>
      <trkpt lat="43.09367" lon="-0.09234">
        <ele>572.6</ele>
        <time>2022-02-12T07:55:38Z</time>
      </trkpt>
      <trkpt lat="43.09367" lon="-0.09236">
        <ele>572.8</ele>
        <time>2022-02-12T07:55:39Z</time>
      </trkpt>
      <trkpt lat="43.09366" lon="-0.09239">
        <ele>573</ele>
        <time>2022-02-12T07:55:40Z</time>
      </trkpt>
      <trkpt lat="43.09364" lon="-0.0924">
        <ele>573.2</ele>
        <time>2022-02-12T07:55:41Z</time>
      </trkpt>
      <trkpt lat="43.09363" lon="-0.09241">
        <ele>573.2</ele>
        <time>2022-02-12T07:55:42Z</time>
      </trkpt>
      <trkpt lat="43.09363" lon="-0.09242">
        <ele>573.4</ele>
        <time>2022-02-12T07:55:43Z</time>
      </trkpt>
      <trkpt lat="43.09363" lon="-0.09244">
        <ele>573.4</ele>
        <time>2022-02-12T07:55:44Z</time>
      </trkpt>
      <trkpt lat="43.09361" lon="-0.09246">
        <ele>573.6</ele>
        <time>2022-02-12T07:55:45Z</time>
      </trkpt>
      <trkpt lat="43.0936" lon="-0.09249">
        <ele>573.6</ele>
        <time>2022-02-12T07:55:46Z</time>
      </trkpt>
      <trkpt lat="43.0936" lon="-0.09251">
        <ele>574</ele>
        <time>2022-02-12T07:55:47Z</time>
      </trkpt>
      <trkpt lat="43.09359" lon="-0.09252">
        <ele>574</ele>
        <time>2022-02-12T07:55:48Z</time>
      </trkpt>
      <trkpt lat="43.09358" lon="-0.09253">
        <ele>574.2</ele>
        <time>2022-02-12T07:55:49Z</time>
      </trkpt>
      <trkpt lat="43.09357" lon="-0.09253">
        <ele>574.2</ele>
        <time>2022-02-12T07:55:50Z</time>
      </trkpt>
      <trkpt lat="43.09356" lon="-0.09253">
        <ele>574.4</ele>
        <time>2022-02-12T07:55:51Z</time>
      </trkpt>
      <trkpt lat="43.09354" lon="-0.09254">
        <ele>574.6</ele>
        <time>2022-02-12T07:55:52Z</time>
      </trkpt>
      <trkpt lat="43.09353" lon="-0.09253">
        <ele>574.8</ele>
        <time>2022-02-12T07:55:53Z</time>
      </trkpt>
      <trkpt lat="43.09353" lon="-0.09253">
        <ele>575</ele>
        <time>2022-02-12T07:55:54Z</time>
      </trkpt>
      <trkpt lat="43.09353" lon="-0.09253">
        <ele>575.2</ele>
        <time>2022-02-12T07:55:55Z</time>
      </trkpt>
      <trkpt lat="43.09353" lon="-0.09253">
        <ele>575.4</ele>
        <time>2022-02-12T07:55:56Z</time>
      </trkpt>
      <trkpt lat="43.09353" lon="-0.09252">
        <ele>575.6</ele>
        <time>2022-02-12T07:55:57Z</time>
      </trkpt>
      <trkpt lat="43.09353" lon="-0.09251">
        <ele>575.8</ele>
        <time>2022-02-12T07:55:58Z</time>
      </trkpt>
      <trkpt lat="43.09352" lon="-0.0925">
        <ele>576</ele>
        <time>2022-02-12T07:55:59Z</time>
      </trkpt>
      <trkpt lat="43.09353" lon="-0.09249">
        <ele>576</ele>
        <time>2022-02-12T07:56:00Z</time>
      </trkpt>
      <trkpt lat="43.09353" lon="-0.09247">
        <ele>576.4</ele>
        <time>2022-02-12T07:56:01Z</time>
      </trkpt>
      <trkpt lat="43.09353" lon="-0.09246">
        <ele>576.4</ele>
        <time>2022-02-12T07:56:02Z</time>
      </trkpt>
      <trkpt lat="43.09353" lon="-0.09244">
        <ele>576.6</ele>
        <time>2022-02-12T07:56:03Z</time>
      </trkpt>
      <trkpt lat="43.09354" lon="-0.09242">
        <ele>576.6</ele>
        <time>2022-02-12T07:56:04Z</time>
      </trkpt>
      <trkpt lat="43.09354" lon="-0.0924">
        <ele>576.8</ele>
        <time>2022-02-12T07:56:05Z</time>
      </trkpt>
      <trkpt lat="43.09354" lon="-0.09239">
        <ele>577</ele>
        <time>2022-02-12T07:56:06Z</time>
      </trkpt>
      <trkpt lat="43.09354" lon="-0.09238">
        <ele>577.2</ele>
        <time>2022-02-12T07:56:07Z</time>
      </trkpt>
      <trkpt lat="43.09354" lon="-0.09236">
        <ele>577.2</ele>
        <time>2022-02-12T07:56:08Z</time>
      </trkpt>
      <trkpt lat="43.09354" lon="-0.09235">
        <ele>577.2</ele>
        <time>2022-02-12T07:56:09Z</time>
      </trkpt>
      <trkpt lat="43.09354" lon="-0.09233">
        <ele>577.4</ele>
        <time>2022-02-12T07:56:10Z</time>
      </trkpt>
      <trkpt lat="43.09354" lon="-0.09233">
        <ele>577.4</ele>
        <time>2022-02-12T07:56:11Z</time>
      </trkpt>
      <trkpt lat="43.09353" lon="-0.09231">
        <ele>577.6</ele>
        <time>2022-02-12T07:56:12Z</time>
      </trkpt>
      <trkpt lat="43.09353" lon="-0.0923">
        <ele>577.8</ele>
        <time>2022-02-12T07:56:13Z</time>
      </trkpt>
      <trkpt lat="43.09352" lon="-0.09228">
        <ele>578</ele>
        <time>2022-02-12T07:56:14Z</time>
      </trkpt>
      <trkpt lat="43.09353" lon="-0.09226">
        <ele>578</ele>
        <time>2022-02-12T07:56:15Z</time>
      </trkpt>
      <trkpt lat="43.09353" lon="-0.09223">
        <ele>578.2</ele>
        <time>2022-02-12T07:56:16Z</time>
      </trkpt>
      <trkpt lat="43.09353" lon="-0.09222">
        <ele>578.2</ele>
        <time>2022-02-12T07:56:17Z</time>
      </trkpt>
      <trkpt lat="43.09352" lon="-0.09219">
        <ele>578.2</ele>
        <time>2022-02-12T07:56:18Z</time>
      </trkpt>
      <trkpt lat="43.09352" lon="-0.09217">
        <ele>578.4</ele>
        <time>2022-02-12T07:56:19Z</time>
      </trkpt>
      <trkpt lat="43.09352" lon="-0.09215">
        <ele>578.4</ele>
        <time>2022-02-12T07:56:20Z</time>
      </trkpt>
      <trkpt lat="43.09351" lon="-0.09213">
        <ele>578.6</ele>
        <time>2022-02-12T07:56:21Z</time>
      </trkpt>
      <trkpt lat="43.0935" lon="-0.0921">
        <ele>578.8</ele>
        <time>2022-02-12T07:56:22Z</time>
      </trkpt>
      <trkpt lat="43.09349" lon="-0.09209">
        <ele>578.8</ele>
        <time>2022-02-12T07:56:23Z</time>
      </trkpt>
      <trkpt lat="43.09348" lon="-0.09208">
        <ele>579</ele>
        <time>2022-02-12T07:56:24Z</time>
      </trkpt>
      <trkpt lat="43.09347" lon="-0.09207">
        <ele>579.2</ele>
        <time>2022-02-12T07:56:25Z</time>
      </trkpt>
      <trkpt lat="43.09347" lon="-0.09206">
        <ele>579.6</ele>
        <time>2022-02-12T07:56:26Z</time>
      </trkpt>
      <trkpt lat="43.09346" lon="-0.09205">
        <ele>579.8</ele>
        <time>2022-02-12T07:56:27Z</time>
      </trkpt>
      <trkpt lat="43.09345" lon="-0.09204">
        <ele>580</ele>
        <time>2022-02-12T07:56:28Z</time>
      </trkpt>
      <trkpt lat="43.09345" lon="-0.09204">
        <ele>580</ele>
        <time>2022-02-12T07:56:29Z</time>
      </trkpt>
      <trkpt lat="43.09346" lon="-0.09203">
        <ele>580.4</ele>
        <time>2022-02-12T07:56:30Z</time>
      </trkpt>
      <trkpt lat="43.09347" lon="-0.09202">
        <ele>580.6</ele>
        <time>2022-02-12T07:56:31Z</time>
      </trkpt>
      <trkpt lat="43.09346" lon="-0.09202">
        <ele>580.8</ele>
        <time>2022-02-12T07:56:32Z</time>
      </trkpt>
      <trkpt lat="43.09346" lon="-0.09202">
        <ele>581.2</ele>
        <time>2022-02-12T07:56:33Z</time>
      </trkpt>
      <trkpt lat="43.09346" lon="-0.09202">
        <ele>581.2</ele>
        <time>2022-02-12T07:56:34Z</time>
      </trkpt>
      <trkpt lat="43.09347" lon="-0.092">
        <ele>581.4</ele>
        <time>2022-02-12T07:56:35Z</time>
      </trkpt>
      <trkpt lat="43.09346" lon="-0.092">
        <ele>581.4</ele>
        <time>2022-02-12T07:56:36Z</time>
      </trkpt>
      <trkpt lat="43.09344" lon="-0.09201">
        <ele>581.6</ele>
        <time>2022-02-12T07:56:37Z</time>
      </trkpt>
      <trkpt lat="43.09343" lon="-0.09201">
        <ele>581.8</ele>
        <time>2022-02-12T07:56:38Z</time>
      </trkpt>
      <trkpt lat="43.09343" lon="-0.09201">
        <ele>582</ele>
        <time>2022-02-12T07:56:39Z</time>
      </trkpt>
      <trkpt lat="43.09342" lon="-0.09202">
        <ele>582.2</ele>
        <time>2022-02-12T07:56:40Z</time>
      </trkpt>
      <trkpt lat="43.09341" lon="-0.09203">
        <ele>582.4</ele>
        <time>2022-02-12T07:56:41Z</time>
      </trkpt>
      <trkpt lat="43.0934" lon="-0.09204">
        <ele>582.4</ele>
        <time>2022-02-12T07:56:42Z</time>
      </trkpt>
      <trkpt lat="43.09338" lon="-0.09204">
        <ele>582.6</ele>
        <time>2022-02-12T07:56:43Z</time>
      </trkpt>
      <trkpt lat="43.09337" lon="-0.09205">
        <ele>582.8</ele>
        <time>2022-02-12T07:56:44Z</time>
      </trkpt>
      <trkpt lat="43.09336" lon="-0.09206">
        <ele>582.8</ele>
        <time>2022-02-12T07:56:45Z</time>
      </trkpt>
      <trkpt lat="43.09335" lon="-0.09206">
        <ele>583</ele>
        <time>2022-02-12T07:56:46Z</time>
      </trkpt>
      <trkpt lat="43.09334" lon="-0.09207">
        <ele>583</ele>
        <time>2022-02-12T07:56:47Z</time>
      </trkpt>
      <trkpt lat="43.09333" lon="-0.09208">
        <ele>583.2</ele>
        <time>2022-02-12T07:56:48Z</time>
      </trkpt>
      <trkpt lat="43.09332" lon="-0.09209">
        <ele>583.2</ele>
        <time>2022-02-12T07:56:49Z</time>
      </trkpt>
      <trkpt lat="43.09329" lon="-0.0921">
        <ele>583.4</ele>
        <time>2022-02-12T07:56:50Z</time>
      </trkpt>
      <trkpt lat="43.09328" lon="-0.09211">
        <ele>583.6</ele>
        <time>2022-02-12T07:56:51Z</time>
      </trkpt>
      <trkpt lat="43.09327" lon="-0.09211">
        <ele>583.6</ele>
        <time>2022-02-12T07:56:52Z</time>
      </trkpt>
      <trkpt lat="43.09325" lon="-0.09212">
        <ele>583.6</ele>
        <time>2022-02-12T07:56:53Z</time>
      </trkpt>
      <trkpt lat="43.09324" lon="-0.09213">
        <ele>583.8</ele>
        <time>2022-02-12T07:56:54Z</time>
      </trkpt>
      <trkpt lat="43.09323" lon="-0.09214">
        <ele>583.8</ele>
        <time>2022-02-12T07:56:55Z</time>
      </trkpt>
      <trkpt lat="43.09321" lon="-0.09214">
        <ele>584</ele>
        <time>2022-02-12T07:56:56Z</time>
      </trkpt>
      <trkpt lat="43.09319" lon="-0.09215">
        <ele>584</ele>
        <time>2022-02-12T07:56:57Z</time>
      </trkpt>
      <trkpt lat="43.09317" lon="-0.09217">
        <ele>584.2</ele>
        <time>2022-02-12T07:56:58Z</time>
      </trkpt>
      <trkpt lat="43.09317" lon="-0.09217">
        <ele>584.2</ele>
        <time>2022-02-12T07:56:59Z</time>
      </trkpt>
      <trkpt lat="43.09316" lon="-0.09217">
        <ele>584.4</ele>
        <time>2022-02-12T07:57:00Z</time>
      </trkpt>
      <trkpt lat="43.09314" lon="-0.09218">
        <ele>584.4</ele>
        <time>2022-02-12T07:57:01Z</time>
      </trkpt>
      <trkpt lat="43.09312" lon="-0.09219">
        <ele>584.6</ele>
        <time>2022-02-12T07:57:02Z</time>
      </trkpt>
      <trkpt lat="43.09311" lon="-0.0922">
        <ele>584.6</ele>
        <time>2022-02-12T07:57:03Z</time>
      </trkpt>
      <trkpt lat="43.0931" lon="-0.09221">
        <ele>584.8</ele>
        <time>2022-02-12T07:57:04Z</time>
      </trkpt>
      <trkpt lat="43.09308" lon="-0.09223">
        <ele>585.2</ele>
        <time>2022-02-12T07:57:05Z</time>
      </trkpt>
      <trkpt lat="43.09307" lon="-0.09225">
        <ele>585.4</ele>
        <time>2022-02-12T07:57:06Z</time>
      </trkpt>
      <trkpt lat="43.09306" lon="-0.09225">
        <ele>585.4</ele>
        <time>2022-02-12T07:57:07Z</time>
      </trkpt>
      <trkpt lat="43.09305" lon="-0.09227">
        <ele>585.6</ele>
        <time>2022-02-12T07:57:08Z</time>
      </trkpt>
      <trkpt lat="43.09305" lon="-0.09228">
        <ele>585.8</ele>
        <time>2022-02-12T07:57:09Z</time>
      </trkpt>
      <trkpt lat="43.09304" lon="-0.09229">
        <ele>586</ele>
        <time>2022-02-12T07:57:10Z</time>
      </trkpt>
      <trkpt lat="43.09303" lon="-0.0923">
        <ele>586</ele>
        <time>2022-02-12T07:57:11Z</time>
      </trkpt>
      <trkpt lat="43.09302" lon="-0.09232">
        <ele>586.4</ele>
        <time>2022-02-12T07:57:12Z</time>
      </trkpt>
      <trkpt lat="43.09302" lon="-0.09233">
        <ele>586.8</ele>
        <time>2022-02-12T07:57:13Z</time>
      </trkpt>
      <trkpt lat="43.09302" lon="-0.09234">
        <ele>586.8</ele>
        <time>2022-02-12T07:57:14Z</time>
      </trkpt>
      <trkpt lat="43.09301" lon="-0.09235">
        <ele>587</ele>
        <time>2022-02-12T07:57:15Z</time>
      </trkpt>
      <trkpt lat="43.09299" lon="-0.09236">
        <ele>587.2</ele>
        <time>2022-02-12T07:57:16Z</time>
      </trkpt>
      <trkpt lat="43.09298" lon="-0.09238">
        <ele>587.4</ele>
        <time>2022-02-12T07:57:17Z</time>
      </trkpt>
      <trkpt lat="43.09297" lon="-0.09239">
        <ele>587.6</ele>
        <time>2022-02-12T07:57:18Z</time>
      </trkpt>
      <trkpt lat="43.09297" lon="-0.0924">
        <ele>587.8</ele>
        <time>2022-02-12T07:57:19Z</time>
      </trkpt>
      <trkpt lat="43.09296" lon="-0.09241">
        <ele>587.8</ele>
        <time>2022-02-12T07:57:20Z</time>
      </trkpt>
      <trkpt lat="43.09295" lon="-0.09242">
        <ele>588.2</ele>
        <time>2022-02-12T07:57:21Z</time>
      </trkpt>
      <trkpt lat="43.09295" lon="-0.09243">
        <ele>588.4</ele>
        <time>2022-02-12T07:57:22Z</time>
      </trkpt>
      <trkpt lat="43.09294" lon="-0.09244">
        <ele>588.6</ele>
        <time>2022-02-12T07:57:23Z</time>
      </trkpt>
      <trkpt lat="43.09293" lon="-0.09246">
        <ele>588.6</ele>
        <time>2022-02-12T07:57:24Z</time>
      </trkpt>
      <trkpt lat="43.09292" lon="-0.09247">
        <ele>588.6</ele>
        <time>2022-02-12T07:57:25Z</time>
      </trkpt>
      <trkpt lat="43.09291" lon="-0.09248">
        <ele>588.8</ele>
        <time>2022-02-12T07:57:26Z</time>
      </trkpt>
      <trkpt lat="43.09291" lon="-0.09249">
        <ele>589</ele>
        <time>2022-02-12T07:57:27Z</time>
      </trkpt>
      <trkpt lat="43.0929" lon="-0.09251">
        <ele>589.2</ele>
        <time>2022-02-12T07:57:28Z</time>
      </trkpt>
      <trkpt lat="43.09289" lon="-0.09252">
        <ele>589.4</ele>
        <time>2022-02-12T07:57:29Z</time>
      </trkpt>
      <trkpt lat="43.09289" lon="-0.09253">
        <ele>589.4</ele>
        <time>2022-02-12T07:57:30Z</time>
      </trkpt>
      <trkpt lat="43.09288" lon="-0.09254">
        <ele>589.4</ele>
        <time>2022-02-12T07:57:31Z</time>
      </trkpt>
      <trkpt lat="43.09287" lon="-0.09255">
        <ele>589.6</ele>
        <time>2022-02-12T07:57:32Z</time>
      </trkpt>
      <trkpt lat="43.09286" lon="-0.09256">
        <ele>589.6</ele>
        <time>2022-02-12T07:57:33Z</time>
      </trkpt>
      <trkpt lat="43.09286" lon="-0.09257">
        <ele>589.6</ele>
        <time>2022-02-12T07:57:34Z</time>
      </trkpt>
      <trkpt lat="43.09285" lon="-0.09258">
        <ele>589.8</ele>
        <time>2022-02-12T07:57:35Z</time>
      </trkpt>
      <trkpt lat="43.09285" lon="-0.09259">
        <ele>590</ele>
        <time>2022-02-12T07:57:36Z</time>
      </trkpt>
      <trkpt lat="43.09284" lon="-0.09261">
        <ele>590.2</ele>
        <time>2022-02-12T07:57:37Z</time>
      </trkpt>
      <trkpt lat="43.09284" lon="-0.09262">
        <ele>590.4</ele>
        <time>2022-02-12T07:57:38Z</time>
      </trkpt>
      <trkpt lat="43.09284" lon="-0.09263">
        <ele>590.6</ele>
        <time>2022-02-12T07:57:39Z</time>
      </trkpt>
      <trkpt lat="43.09283" lon="-0.09265">
        <ele>590.8</ele>
        <time>2022-02-12T07:57:40Z</time>
      </trkpt>
      <trkpt lat="43.09282" lon="-0.09266">
        <ele>590.8</ele>
        <time>2022-02-12T07:57:41Z</time>
      </trkpt>
      <trkpt lat="43.09282" lon="-0.09267">
        <ele>591.2</ele>
        <time>2022-02-12T07:57:42Z</time>
      </trkpt>
      <trkpt lat="43.09282" lon="-0.09269">
        <ele>591.2</ele>
        <time>2022-02-12T07:57:43Z</time>
      </trkpt>
      <trkpt lat="43.09281" lon="-0.0927">
        <ele>591.4</ele>
        <time>2022-02-12T07:57:44Z</time>
      </trkpt>
      <trkpt lat="43.0928" lon="-0.09271">
        <ele>591.4</ele>
        <time>2022-02-12T07:57:45Z</time>
      </trkpt>
      <trkpt lat="43.09279" lon="-0.09273">
        <ele>591.4</ele>
        <time>2022-02-12T07:57:46Z</time>
      </trkpt>
      <trkpt lat="43.09278" lon="-0.09275">
        <ele>591.8</ele>
        <time>2022-02-12T07:57:47Z</time>
      </trkpt>
      <trkpt lat="43.09278" lon="-0.09276">
        <ele>591.8</ele>
        <time>2022-02-12T07:57:48Z</time>
      </trkpt>
      <trkpt lat="43.09276" lon="-0.09278">
        <ele>591.8</ele>
        <time>2022-02-12T07:57:49Z</time>
      </trkpt>
      <trkpt lat="43.09275" lon="-0.09279">
        <ele>592</ele>
        <time>2022-02-12T07:57:50Z</time>
      </trkpt>
      <trkpt lat="43.09275" lon="-0.09281">
        <ele>592</ele>
        <time>2022-02-12T07:57:51Z</time>
      </trkpt>
      <trkpt lat="43.09274" lon="-0.09282">
        <ele>592.2</ele>
        <time>2022-02-12T07:57:52Z</time>
      </trkpt>
      <trkpt lat="43.09273" lon="-0.09283">
        <ele>592.2</ele>
        <time>2022-02-12T07:57:53Z</time>
      </trkpt>
      <trkpt lat="43.09272" lon="-0.09284">
        <ele>592.4</ele>
        <time>2022-02-12T07:57:54Z</time>
      </trkpt>
      <trkpt lat="43.09272" lon="-0.09285">
        <ele>592.6</ele>
        <time>2022-02-12T07:57:55Z</time>
      </trkpt>
      <trkpt lat="43.09271" lon="-0.09286">
        <ele>592.6</ele>
        <time>2022-02-12T07:57:56Z</time>
      </trkpt>
      <trkpt lat="43.0927" lon="-0.09287">
        <ele>592.8</ele>
        <time>2022-02-12T07:57:57Z</time>
      </trkpt>
      <trkpt lat="43.0927" lon="-0.09289">
        <ele>593</ele>
        <time>2022-02-12T07:57:58Z</time>
      </trkpt>
      <trkpt lat="43.09269" lon="-0.0929">
        <ele>593.2</ele>
        <time>2022-02-12T07:57:59Z</time>
      </trkpt>
      <trkpt lat="43.09269" lon="-0.09291">
        <ele>593.4</ele>
        <time>2022-02-12T07:58:00Z</time>
      </trkpt>
      <trkpt lat="43.09268" lon="-0.09293">
        <ele>593.6</ele>
        <time>2022-02-12T07:58:01Z</time>
      </trkpt>
      <trkpt lat="43.09268" lon="-0.09294">
        <ele>593.8</ele>
        <time>2022-02-12T07:58:02Z</time>
      </trkpt>
      <trkpt lat="43.09267" lon="-0.09295">
        <ele>594</ele>
        <time>2022-02-12T07:58:03Z</time>
      </trkpt>
      <trkpt lat="43.09266" lon="-0.09297">
        <ele>594.2</ele>
        <time>2022-02-12T07:58:04Z</time>
      </trkpt>
      <trkpt lat="43.09265" lon="-0.09298">
        <ele>594.4</ele>
        <time>2022-02-12T07:58:05Z</time>
      </trkpt>
      <trkpt lat="43.09265" lon="-0.09299">
        <ele>594.4</ele>
        <time>2022-02-12T07:58:06Z</time>
      </trkpt>
      <trkpt lat="43.09264" lon="-0.093">
        <ele>594.6</ele>
        <time>2022-02-12T07:58:07Z</time>
      </trkpt>
      <trkpt lat="43.09264" lon="-0.09301">
        <ele>594.6</ele>
        <time>2022-02-12T07:58:08Z</time>
      </trkpt>
      <trkpt lat="43.09264" lon="-0.09303">
        <ele>594.8</ele>
        <time>2022-02-12T07:58:09Z</time>
      </trkpt>
      <trkpt lat="43.09263" lon="-0.09304">
        <ele>595</ele>
        <time>2022-02-12T07:58:10Z</time>
      </trkpt>
      <trkpt lat="43.09263" lon="-0.09306">
        <ele>595.2</ele>
        <time>2022-02-12T07:58:11Z</time>
      </trkpt>
      <trkpt lat="43.09263" lon="-0.09307">
        <ele>595.4</ele>
        <time>2022-02-12T07:58:12Z</time>
      </trkpt>
      <trkpt lat="43.09262" lon="-0.09308">
        <ele>595.6</ele>
        <time>2022-02-12T07:58:13Z</time>
      </trkpt>
      <trkpt lat="43.09262" lon="-0.09309">
        <ele>595.6</ele>
        <time>2022-02-12T07:58:14Z</time>
      </trkpt>
      <trkpt lat="43.09262" lon="-0.09311">
        <ele>595.6</ele>
        <time>2022-02-12T07:58:15Z</time>
      </trkpt>
      <trkpt lat="43.09261" lon="-0.09312">
        <ele>595.8</ele>
        <time>2022-02-12T07:58:16Z</time>
      </trkpt>
      <trkpt lat="43.09261" lon="-0.09313">
        <ele>596</ele>
        <time>2022-02-12T07:58:17Z</time>
      </trkpt>
      <trkpt lat="43.0926" lon="-0.09314">
        <ele>596</ele>
        <time>2022-02-12T07:58:18Z</time>
      </trkpt>
      <trkpt lat="43.0926" lon="-0.09316">
        <ele>596.4</ele>
        <time>2022-02-12T07:58:19Z</time>
      </trkpt>
      <trkpt lat="43.0926" lon="-0.09318">
        <ele>596.6</ele>
        <time>2022-02-12T07:58:20Z</time>
      </trkpt>
      <trkpt lat="43.09259" lon="-0.09319">
        <ele>596.6</ele>
        <time>2022-02-12T07:58:21Z</time>
      </trkpt>
      <trkpt lat="43.09259" lon="-0.0932">
        <ele>596.8</ele>
        <time>2022-02-12T07:58:22Z</time>
      </trkpt>
      <trkpt lat="43.09258" lon="-0.09321">
        <ele>597</ele>
        <time>2022-02-12T07:58:23Z</time>
      </trkpt>
      <trkpt lat="43.09257" lon="-0.09323">
        <ele>597</ele>
        <time>2022-02-12T07:58:24Z</time>
      </trkpt>
      <trkpt lat="43.09256" lon="-0.09324">
        <ele>597.2</ele>
        <time>2022-02-12T07:58:25Z</time>
      </trkpt>
      <trkpt lat="43.09256" lon="-0.09325">
        <ele>597.2</ele>
        <time>2022-02-12T07:58:26Z</time>
      </trkpt>
      <trkpt lat="43.09256" lon="-0.09326">
        <ele>597.4</ele>
        <time>2022-02-12T07:58:27Z</time>
      </trkpt>
      <trkpt lat="43.09255" lon="-0.09328">
        <ele>597.4</ele>
        <time>2022-02-12T07:58:28Z</time>
      </trkpt>
      <trkpt lat="43.09255" lon="-0.0933">
        <ele>597.6</ele>
        <time>2022-02-12T07:58:29Z</time>
      </trkpt>
      <trkpt lat="43.09254" lon="-0.09332">
        <ele>597.8</ele>
        <time>2022-02-12T07:58:30Z</time>
      </trkpt>
      <trkpt lat="43.09253" lon="-0.09333">
        <ele>597.8</ele>
        <time>2022-02-12T07:58:31Z</time>
      </trkpt>
      <trkpt lat="43.09252" lon="-0.09335">
        <ele>598.2</ele>
        <time>2022-02-12T07:58:32Z</time>
      </trkpt>
      <trkpt lat="43.09252" lon="-0.09337">
        <ele>598.2</ele>
        <time>2022-02-12T07:58:33Z</time>
      </trkpt>
      <trkpt lat="43.09251" lon="-0.09339">
        <ele>598.4</ele>
        <time>2022-02-12T07:58:34Z</time>
      </trkpt>
      <trkpt lat="43.0925" lon="-0.09341">
        <ele>598.4</ele>
        <time>2022-02-12T07:58:35Z</time>
      </trkpt>
      <trkpt lat="43.0925" lon="-0.09342">
        <ele>598.6</ele>
        <time>2022-02-12T07:58:36Z</time>
      </trkpt>
      <trkpt lat="43.0925" lon="-0.09344">
        <ele>598.6</ele>
        <time>2022-02-12T07:58:37Z</time>
      </trkpt>
      <trkpt lat="43.0925" lon="-0.09345">
        <ele>598.8</ele>
        <time>2022-02-12T07:58:38Z</time>
      </trkpt>
      <trkpt lat="43.0925" lon="-0.09347">
        <ele>599</ele>
        <time>2022-02-12T07:58:39Z</time>
      </trkpt>
      <trkpt lat="43.0925" lon="-0.09349">
        <ele>599.2</ele>
        <time>2022-02-12T07:58:40Z</time>
      </trkpt>
      <trkpt lat="43.09248" lon="-0.0935">
        <ele>599.4</ele>
        <time>2022-02-12T07:58:41Z</time>
      </trkpt>
      <trkpt lat="43.09248" lon="-0.09352">
        <ele>599.4</ele>
        <time>2022-02-12T07:58:42Z</time>
      </trkpt>
      <trkpt lat="43.09247" lon="-0.09354">
        <ele>599.6</ele>
        <time>2022-02-12T07:58:43Z</time>
      </trkpt>
      <trkpt lat="43.09247" lon="-0.09355">
        <ele>599.8</ele>
        <time>2022-02-12T07:58:44Z</time>
      </trkpt>
      <trkpt lat="43.09247" lon="-0.09357">
        <ele>599.8</ele>
        <time>2022-02-12T07:58:45Z</time>
      </trkpt>
      <trkpt lat="43.09247" lon="-0.09359">
        <ele>600</ele>
        <time>2022-02-12T07:58:46Z</time>
      </trkpt>
      <trkpt lat="43.09246" lon="-0.0936">
        <ele>600.2</ele>
        <time>2022-02-12T07:58:47Z</time>
      </trkpt>
      <trkpt lat="43.09246" lon="-0.09362">
        <ele>600.4</ele>
        <time>2022-02-12T07:58:48Z</time>
      </trkpt>
      <trkpt lat="43.09246" lon="-0.09363">
        <ele>600.6</ele>
        <time>2022-02-12T07:58:49Z</time>
      </trkpt>
      <trkpt lat="43.09245" lon="-0.09365">
        <ele>600.6</ele>
        <time>2022-02-12T07:58:50Z</time>
      </trkpt>
      <trkpt lat="43.09245" lon="-0.09366">
        <ele>600.8</ele>
        <time>2022-02-12T07:58:51Z</time>
      </trkpt>
      <trkpt lat="43.09245" lon="-0.09368">
        <ele>600.8</ele>
        <time>2022-02-12T07:58:52Z</time>
      </trkpt>
      <trkpt lat="43.09245" lon="-0.0937">
        <ele>601.2</ele>
        <time>2022-02-12T07:58:53Z</time>
      </trkpt>
      <trkpt lat="43.09244" lon="-0.09371">
        <ele>601.2</ele>
        <time>2022-02-12T07:58:54Z</time>
      </trkpt>
      <trkpt lat="43.09244" lon="-0.09373">
        <ele>601.4</ele>
        <time>2022-02-12T07:58:55Z</time>
      </trkpt>
      <trkpt lat="43.09243" lon="-0.09374">
        <ele>601.6</ele>
        <time>2022-02-12T07:58:56Z</time>
      </trkpt>
      <trkpt lat="43.09243" lon="-0.09376">
        <ele>601.6</ele>
        <time>2022-02-12T07:58:57Z</time>
      </trkpt>
      <trkpt lat="43.09243" lon="-0.09378">
        <ele>601.6</ele>
        <time>2022-02-12T07:58:58Z</time>
      </trkpt>
      <trkpt lat="43.09242" lon="-0.09379">
        <ele>601.8</ele>
        <time>2022-02-12T07:58:59Z</time>
      </trkpt>
      <trkpt lat="43.09242" lon="-0.09381">
        <ele>602</ele>
        <time>2022-02-12T07:59:00Z</time>
      </trkpt>
      <trkpt lat="43.09242" lon="-0.09383">
        <ele>602</ele>
        <time>2022-02-12T07:59:01Z</time>
      </trkpt>
      <trkpt lat="43.09242" lon="-0.09385">
        <ele>602.2</ele>
        <time>2022-02-12T07:59:02Z</time>
      </trkpt>
      <trkpt lat="43.09241" lon="-0.09386">
        <ele>602.2</ele>
        <time>2022-02-12T07:59:03Z</time>
      </trkpt>
      <trkpt lat="43.09241" lon="-0.09388">
        <ele>602.4</ele>
        <time>2022-02-12T07:59:04Z</time>
      </trkpt>
      <trkpt lat="43.09241" lon="-0.09389">
        <ele>602.6</ele>
        <time>2022-02-12T07:59:05Z</time>
      </trkpt>
      <trkpt lat="43.09241" lon="-0.09391">
        <ele>602.8</ele>
        <time>2022-02-12T07:59:06Z</time>
      </trkpt>
      <trkpt lat="43.09241" lon="-0.09393">
        <ele>602.8</ele>
        <time>2022-02-12T07:59:07Z</time>
      </trkpt>
      <trkpt lat="43.0924" lon="-0.09394">
        <ele>603</ele>
        <time>2022-02-12T07:59:08Z</time>
      </trkpt>
      <trkpt lat="43.0924" lon="-0.09395">
        <ele>603.2</ele>
        <time>2022-02-12T07:59:09Z</time>
      </trkpt>
      <trkpt lat="43.09239" lon="-0.09397">
        <ele>603.4</ele>
        <time>2022-02-12T07:59:10Z</time>
      </trkpt>
      <trkpt lat="43.09239" lon="-0.09398">
        <ele>603.4</ele>
        <time>2022-02-12T07:59:11Z</time>
      </trkpt>
      <trkpt lat="43.09239" lon="-0.09399">
        <ele>603.6</ele>
        <time>2022-02-12T07:59:12Z</time>
      </trkpt>
      <trkpt lat="43.09239" lon="-0.094">
        <ele>603.6</ele>
        <time>2022-02-12T07:59:13Z</time>
      </trkpt>
      <trkpt lat="43.09238" lon="-0.094">
        <ele>603.6</ele>
        <time>2022-02-12T07:59:14Z</time>
      </trkpt>
      <trkpt lat="43.09238" lon="-0.09402">
        <ele>603.8</ele>
        <time>2022-02-12T07:59:15Z</time>
      </trkpt>
      <trkpt lat="43.09238" lon="-0.09403">
        <ele>604</ele>
        <time>2022-02-12T07:59:16Z</time>
      </trkpt>
      <trkpt lat="43.09237" lon="-0.09404">
        <ele>604.2</ele>
        <time>2022-02-12T07:59:17Z</time>
      </trkpt>
      <trkpt lat="43.09237" lon="-0.09405">
        <ele>604.6</ele>
        <time>2022-02-12T07:59:18Z</time>
      </trkpt>
      <trkpt lat="43.09236" lon="-0.09406">
        <ele>604.6</ele>
        <time>2022-02-12T07:59:19Z</time>
      </trkpt>
      <trkpt lat="43.09236" lon="-0.09407">
        <ele>604.6</ele>
        <time>2022-02-12T07:59:20Z</time>
      </trkpt>
      <trkpt lat="43.09236" lon="-0.09409">
        <ele>604.8</ele>
        <time>2022-02-12T07:59:21Z</time>
      </trkpt>
      <trkpt lat="43.09236" lon="-0.0941">
        <ele>605.2</ele>
        <time>2022-02-12T07:59:22Z</time>
      </trkpt>
      <trkpt lat="43.09235" lon="-0.09411">
        <ele>605.2</ele>
        <time>2022-02-12T07:59:23Z</time>
      </trkpt>
      <trkpt lat="43.09235" lon="-0.09413">
        <ele>605.4</ele>
        <time>2022-02-12T07:59:24Z</time>
      </trkpt>
      <trkpt lat="43.09234" lon="-0.09414">
        <ele>605.8</ele>
        <time>2022-02-12T07:59:25Z</time>
      </trkpt>
      <trkpt lat="43.09234" lon="-0.09415">
        <ele>605.8</ele>
        <time>2022-02-12T07:59:26Z</time>
      </trkpt>
      <trkpt lat="43.09234" lon="-0.09416">
        <ele>606</ele>
        <time>2022-02-12T07:59:27Z</time>
      </trkpt>
      <trkpt lat="43.09233" lon="-0.09418">
        <ele>606.2</ele>
        <time>2022-02-12T07:59:28Z</time>
      </trkpt>
      <trkpt lat="43.09233" lon="-0.09419">
        <ele>606.2</ele>
        <time>2022-02-12T07:59:29Z</time>
      </trkpt>
      <trkpt lat="43.09232" lon="-0.0942">
        <ele>606.2</ele>
        <time>2022-02-12T07:59:30Z</time>
      </trkpt>
      <trkpt lat="43.09232" lon="-0.09421">
        <ele>606.4</ele>
        <time>2022-02-12T07:59:31Z</time>
      </trkpt>
      <trkpt lat="43.09231" lon="-0.09423">
        <ele>606.4</ele>
        <time>2022-02-12T07:59:32Z</time>
      </trkpt>
      <trkpt lat="43.0923" lon="-0.09424">
        <ele>606.4</ele>
        <time>2022-02-12T07:59:33Z</time>
      </trkpt>
      <trkpt lat="43.0923" lon="-0.09425">
        <ele>606.6</ele>
        <time>2022-02-12T07:59:34Z</time>
      </trkpt>
      <trkpt lat="43.09229" lon="-0.09427">
        <ele>606.8</ele>
        <time>2022-02-12T07:59:35Z</time>
      </trkpt>
      <trkpt lat="43.09229" lon="-0.09428">
        <ele>606.8</ele>
        <time>2022-02-12T07:59:36Z</time>
      </trkpt>
      <trkpt lat="43.09228" lon="-0.09429">
        <ele>607</ele>
        <time>2022-02-12T07:59:37Z</time>
      </trkpt>
      <trkpt lat="43.09228" lon="-0.09431">
        <ele>607.2</ele>
        <time>2022-02-12T07:59:38Z</time>
      </trkpt>
      <trkpt lat="43.09227" lon="-0.09432">
        <ele>607.2</ele>
        <time>2022-02-12T07:59:39Z</time>
      </trkpt>
      <trkpt lat="43.09226" lon="-0.09433">
        <ele>607.4</ele>
        <time>2022-02-12T07:59:40Z</time>
      </trkpt>
      <trkpt lat="43.09225" lon="-0.09434">
        <ele>607.4</ele>
        <time>2022-02-12T07:59:41Z</time>
      </trkpt>
      <trkpt lat="43.09225" lon="-0.09436">
        <ele>607.6</ele>
        <time>2022-02-12T07:59:42Z</time>
      </trkpt>
      <trkpt lat="43.09224" lon="-0.09437">
        <ele>607.6</ele>
        <time>2022-02-12T07:59:43Z</time>
      </trkpt>
      <trkpt lat="43.09223" lon="-0.09438">
        <ele>607.8</ele>
        <time>2022-02-12T07:59:44Z</time>
      </trkpt>
      <trkpt lat="43.09222" lon="-0.09439">
        <ele>607.8</ele>
        <time>2022-02-12T07:59:45Z</time>
      </trkpt>
      <trkpt lat="43.09221" lon="-0.0944">
        <ele>607.8</ele>
        <time>2022-02-12T07:59:46Z</time>
      </trkpt>
      <trkpt lat="43.0922" lon="-0.09441">
        <ele>608</ele>
        <time>2022-02-12T07:59:47Z</time>
      </trkpt>
      <trkpt lat="43.0922" lon="-0.09442">
        <ele>608</ele>
        <time>2022-02-12T07:59:48Z</time>
      </trkpt>
      <trkpt lat="43.09219" lon="-0.09443">
        <ele>608.2</ele>
        <time>2022-02-12T07:59:49Z</time>
      </trkpt>
      <trkpt lat="43.09218" lon="-0.09444">
        <ele>608.2</ele>
        <time>2022-02-12T07:59:50Z</time>
      </trkpt>
      <trkpt lat="43.09218" lon="-0.09445">
        <ele>608.4</ele>
        <time>2022-02-12T07:59:51Z</time>
      </trkpt>
      <trkpt lat="43.09217" lon="-0.09446">
        <ele>608.6</ele>
        <time>2022-02-12T07:59:52Z</time>
      </trkpt>
      <trkpt lat="43.09216" lon="-0.09448">
        <ele>608.6</ele>
        <time>2022-02-12T07:59:53Z</time>
      </trkpt>
      <trkpt lat="43.09215" lon="-0.09449">
        <ele>608.8</ele>
        <time>2022-02-12T07:59:54Z</time>
      </trkpt>
      <trkpt lat="43.09214" lon="-0.09449">
        <ele>608.8</ele>
        <time>2022-02-12T07:59:55Z</time>
      </trkpt>
      <trkpt lat="43.09214" lon="-0.0945">
        <ele>609</ele>
        <time>2022-02-12T07:59:56Z</time>
      </trkpt>
      <trkpt lat="43.09213" lon="-0.09451">
        <ele>609</ele>
        <time>2022-02-12T07:59:57Z</time>
      </trkpt>
      <trkpt lat="43.09213" lon="-0.09451">
        <ele>609.2</ele>
        <time>2022-02-12T07:59:58Z</time>
      </trkpt>
      <trkpt lat="43.09212" lon="-0.09452">
        <ele>609.2</ele>
        <time>2022-02-12T07:59:59Z</time>
      </trkpt>
      <trkpt lat="43.09212" lon="-0.09452">
        <ele>609.4</ele>
        <time>2022-02-12T08:00:00Z</time>
      </trkpt>
      <trkpt lat="43.09211" lon="-0.09453">
        <ele>609.4</ele>
        <time>2022-02-12T08:00:01Z</time>
      </trkpt>
      <trkpt lat="43.09211" lon="-0.09454">
        <ele>609.6</ele>
        <time>2022-02-12T08:00:02Z</time>
      </trkpt>
      <trkpt lat="43.0921" lon="-0.09455">
        <ele>609.8</ele>
        <time>2022-02-12T08:00:03Z</time>
      </trkpt>
      <trkpt lat="43.0921" lon="-0.09455">
        <ele>610</ele>
        <time>2022-02-12T08:00:04Z</time>
      </trkpt>
      <trkpt lat="43.0921" lon="-0.09455">
        <ele>610</ele>
        <time>2022-02-12T08:00:05Z</time>
      </trkpt>
      <trkpt lat="43.0921" lon="-0.09455">
        <ele>610</ele>
        <time>2022-02-12T08:00:06Z</time>
      </trkpt>
      <trkpt lat="43.0921" lon="-0.09455">
        <ele>610</ele>
        <time>2022-02-12T08:00:07Z</time>
      </trkpt>
      <trkpt lat="43.0921" lon="-0.09455">
        <ele>610.2</ele>
        <time>2022-02-12T08:00:08Z</time>
      </trkpt>
      <trkpt lat="43.0921" lon="-0.09455">
        <ele>610.2</ele>
        <time>2022-02-12T08:00:09Z</time>
      </trkpt>
      <trkpt lat="43.0921" lon="-0.09455">
        <ele>610.4</ele>
        <time>2022-02-12T08:00:10Z</time>
      </trkpt>
      <trkpt lat="43.0921" lon="-0.09455">
        <ele>610.4</ele>
        <time>2022-02-12T08:00:11Z</time>
      </trkpt>
      <trkpt lat="43.0921" lon="-0.09455">
        <ele>610.6</ele>
        <time>2022-02-12T08:00:12Z</time>
      </trkpt>
      <trkpt lat="43.0921" lon="-0.09455">
        <ele>610.6</ele>
        <time>2022-02-12T08:00:13Z</time>
      </trkpt>
      <trkpt lat="43.0921" lon="-0.09455">
        <ele>610.6</ele>
        <time>2022-02-12T08:00:14Z</time>
      </trkpt>
      <trkpt lat="43.0921" lon="-0.09455">
        <ele>610.6</ele>
        <time>2022-02-12T08:00:15Z</time>
      </trkpt>
      <trkpt lat="43.0921" lon="-0.09455">
        <ele>610.6</ele>
        <time>2022-02-12T08:00:16Z</time>
      </trkpt>
      <trkpt lat="43.0921" lon="-0.09455">
        <ele>610.6</ele>
        <time>2022-02-12T08:00:17Z</time>
      </trkpt>
      <trkpt lat="43.0921" lon="-0.09455">
        <ele>610.6</ele>
        <time>2022-02-12T08:00:18Z</time>
      </trkpt>
      <trkpt lat="43.0921" lon="-0.09455">
        <ele>610.6</ele>
        <time>2022-02-12T08:00:19Z</time>
      </trkpt>
      <trkpt lat="43.0921" lon="-0.09455">
        <ele>610.6</ele>
        <time>2022-02-12T08:00:20Z</time>
      </trkpt>
      <trkpt lat="43.0921" lon="-0.09455">
        <ele>610.6</ele>
        <time>2022-02-12T08:00:21Z</time>
      </trkpt>
      <trkpt lat="43.0921" lon="-0.09455">
        <ele>610.6</ele>
        <time>2022-02-12T08:00:22Z</time>
      </trkpt>
      <trkpt lat="43.0921" lon="-0.09455">
        <ele>610.6</ele>
        <time>2022-02-12T08:00:23Z</time>
      </trkpt>
      <trkpt lat="43.0921" lon="-0.09455">
        <ele>610.6</ele>
        <time>2022-02-12T08:00:24Z</time>
      </trkpt>
      <trkpt lat="43.0921" lon="-0.09455">
        <ele>610.6</ele>
        <time>2022-02-12T08:00:25Z</time>
      </trkpt>
      <trkpt lat="43.0921" lon="-0.09455">
        <ele>610.6</ele>
        <time>2022-02-12T08:00:26Z</time>
      </trkpt>
      <trkpt lat="43.0921" lon="-0.09455">
        <ele>610.6</ele>
        <time>2022-02-12T08:00:27Z</time>
      </trkpt>
      <trkpt lat="43.0921" lon="-0.09455">
        <ele>610.6</ele>
        <time>2022-02-12T08:00:28Z</time>
      </trkpt>
      <trkpt lat="43.0921" lon="-0.09455">
        <ele>610.6</ele>
        <time>2022-02-12T08:00:29Z</time>
      </trkpt>
      <trkpt lat="43.0921" lon="-0.09455">
        <ele>610.6</ele>
        <time>2022-02-12T08:00:30Z</time>
      </trkpt>
      <trkpt lat="43.0921" lon="-0.09455">
        <ele>610.6</ele>
        <time>2022-02-12T08:00:31Z</time>
      </trkpt>
      <trkpt lat="43.0921" lon="-0.09455">
        <ele>610.6</ele>
        <time>2022-02-12T08:00:32Z</time>
      </trkpt>
      <trkpt lat="43.0921" lon="-0.09455">
        <ele>610.6</ele>
        <time>2022-02-12T08:00:33Z</time>
      </trkpt>
      <trkpt lat="43.0921" lon="-0.09455">
        <ele>610.6</ele>
        <time>2022-02-12T08:00:34Z</time>
      </trkpt>
      <trkpt lat="43.0921" lon="-0.09455">
        <ele>610.6</ele>
        <time>2022-02-12T08:00:35Z</time>
      </trkpt>
      <trkpt lat="43.0921" lon="-0.09455">
        <ele>610.6</ele>
        <time>2022-02-12T08:00:36Z</time>
      </trkpt>
      <trkpt lat="43.0921" lon="-0.09455">
        <ele>610.6</ele>
        <time>2022-02-12T08:00:37Z</time>
      </trkpt>
      <trkpt lat="43.0921" lon="-0.09455">
        <ele>610.6</ele>
        <time>2022-02-12T08:00:38Z</time>
      </trkpt>
      <trkpt lat="43.0921" lon="-0.09455">
        <ele>610.6</ele>
        <time>2022-02-12T08:00:39Z</time>
      </trkpt>
      <trkpt lat="43.0921" lon="-0.09455">
        <ele>610.6</ele>
        <time>2022-02-12T08:00:40Z</time>
      </trkpt>
      <trkpt lat="43.0921" lon="-0.09455">
        <ele>610.6</ele>
        <time>2022-02-12T08:00:41Z</time>
      </trkpt>
      <trkpt lat="43.0921" lon="-0.09455">
        <ele>610.6</ele>
        <time>2022-02-12T08:00:42Z</time>
      </trkpt>
      <trkpt lat="43.0921" lon="-0.09455">
        <ele>610.8</ele>
        <time>2022-02-12T08:00:43Z</time>
      </trkpt>
      <trkpt lat="43.0921" lon="-0.09455">
        <ele>610.8</ele>
        <time>2022-02-12T08:00:44Z</time>
      </trkpt>
      <trkpt lat="43.0921" lon="-0.09455">
        <ele>610.8</ele>
        <time>2022-02-12T08:00:45Z</time>
      </trkpt>
      <trkpt lat="43.0921" lon="-0.09455">
        <ele>610.8</ele>
        <time>2022-02-12T08:00:46Z</time>
      </trkpt>
      <trkpt lat="43.0921" lon="-0.09455">
        <ele>610.8</ele>
        <time>2022-02-12T08:00:47Z</time>
      </trkpt>
      <trkpt lat="43.0921" lon="-0.09455">
        <ele>610.8</ele>
        <time>2022-02-12T08:00:48Z</time>
      </trkpt>
      <trkpt lat="43.0921" lon="-0.09455">
        <ele>610.8</ele>
        <time>2022-02-12T08:00:49Z</time>
      </trkpt>
      <trkpt lat="43.0921" lon="-0.09455">
        <ele>610.8</ele>
        <time>2022-02-12T08:00:50Z</time>
      </trkpt>
      <trkpt lat="43.0921" lon="-0.09455">
        <ele>610.8</ele>
        <time>2022-02-12T08:00:51Z</time>
      </trkpt>
      <trkpt lat="43.0921" lon="-0.09455">
        <ele>610.8</ele>
        <time>2022-02-12T08:00:52Z</time>
      </trkpt>
      <trkpt lat="43.0921" lon="-0.09455">
        <ele>610.8</ele>
        <time>2022-02-12T08:00:53Z</time>
      </trkpt>
      <trkpt lat="43.0921" lon="-0.09455">
        <ele>610.8</ele>
        <time>2022-02-12T08:00:54Z</time>
      </trkpt>
      <trkpt lat="43.0921" lon="-0.09455">
        <ele>610.8</ele>
        <time>2022-02-12T08:00:55Z</time>
      </trkpt>
      <trkpt lat="43.0921" lon="-0.09455">
        <ele>610.8</ele>
        <time>2022-02-12T08:00:56Z</time>
      </trkpt>
      <trkpt lat="43.0921" lon="-0.09455">
        <ele>610.8</ele>
        <time>2022-02-12T08:00:57Z</time>
      </trkpt>
      <trkpt lat="43.0921" lon="-0.09455">
        <ele>610.8</ele>
        <time>2022-02-12T08:00:58Z</time>
      </trkpt>
      <trkpt lat="43.0921" lon="-0.09455">
        <ele>610.8</ele>
        <time>2022-02-12T08:00:59Z</time>
      </trkpt>
      <trkpt lat="43.0921" lon="-0.09455">
        <ele>610.8</ele>
        <time>2022-02-12T08:01:00Z</time>
      </trkpt>
      <trkpt lat="43.0921" lon="-0.09455">
        <ele>610.8</ele>
        <time>2022-02-12T08:01:01Z</time>
      </trkpt>
      <trkpt lat="43.0921" lon="-0.09455">
        <ele>610.8</ele>
        <time>2022-02-12T08:01:02Z</time>
      </trkpt>
      <trkpt lat="43.0921" lon="-0.09455">
        <ele>610.8</ele>
        <time>2022-02-12T08:01:03Z</time>
      </trkpt>
      <trkpt lat="43.0921" lon="-0.09455">
        <ele>610.8</ele>
        <time>2022-02-12T08:01:04Z</time>
      </trkpt>
      <trkpt lat="43.0921" lon="-0.09455">
        <ele>610.8</ele>
        <time>2022-02-12T08:01:05Z</time>
      </trkpt>
      <trkpt lat="43.0921" lon="-0.09455">
        <ele>610.8</ele>
        <time>2022-02-12T08:01:06Z</time>
      </trkpt>
      <trkpt lat="43.0921" lon="-0.09455">
        <ele>610.8</ele>
        <time>2022-02-12T08:01:07Z</time>
      </trkpt>
      <trkpt lat="43.0921" lon="-0.09455">
        <ele>610.8</ele>
        <time>2022-02-12T08:01:08Z</time>
      </trkpt>
      <trkpt lat="43.0921" lon="-0.09455">
        <ele>610.8</ele>
        <time>2022-02-12T08:01:09Z</time>
      </trkpt>
      <trkpt lat="43.0921" lon="-0.09455">
        <ele>610.8</ele>
        <time>2022-02-12T08:01:10Z</time>
      </trkpt>
      <trkpt lat="43.0921" lon="-0.09455">
        <ele>610.8</ele>
        <time>2022-02-12T08:01:11Z</time>
      </trkpt>
      <trkpt lat="43.09209" lon="-0.09457">
        <ele>610.8</ele>
        <time>2022-02-12T08:01:12Z</time>
      </trkpt>
      <trkpt lat="43.09208" lon="-0.09458">
        <ele>610.8</ele>
        <time>2022-02-12T08:01:13Z</time>
      </trkpt>
      <trkpt lat="43.09207" lon="-0.09458">
        <ele>610.8</ele>
        <time>2022-02-12T08:01:14Z</time>
      </trkpt>
      <trkpt lat="43.09206" lon="-0.09459">
        <ele>610.8</ele>
        <time>2022-02-12T08:01:15Z</time>
      </trkpt>
      <trkpt lat="43.09205" lon="-0.0946">
        <ele>610.8</ele>
        <time>2022-02-12T08:01:16Z</time>
      </trkpt>
      <trkpt lat="43.09204" lon="-0.09461">
        <ele>611</ele>
        <time>2022-02-12T08:01:17Z</time>
      </trkpt>
      <trkpt lat="43.09203" lon="-0.09462">
        <ele>611</ele>
        <time>2022-02-12T08:01:18Z</time>
      </trkpt>
      <trkpt lat="43.09203" lon="-0.09462">
        <ele>611</ele>
        <time>2022-02-12T08:01:19Z</time>
      </trkpt>
      <trkpt lat="43.09202" lon="-0.09463">
        <ele>611.2</ele>
        <time>2022-02-12T08:01:20Z</time>
      </trkpt>
      <trkpt lat="43.09201" lon="-0.09464">
        <ele>611.4</ele>
        <time>2022-02-12T08:01:21Z</time>
      </trkpt>
      <trkpt lat="43.092" lon="-0.09464">
        <ele>611.6</ele>
        <time>2022-02-12T08:01:22Z</time>
      </trkpt>
      <trkpt lat="43.09199" lon="-0.09465">
        <ele>611.6</ele>
        <time>2022-02-12T08:01:23Z</time>
      </trkpt>
      <trkpt lat="43.09199" lon="-0.09465">
        <ele>611.6</ele>
        <time>2022-02-12T08:01:24Z</time>
      </trkpt>
      <trkpt lat="43.09198" lon="-0.09465">
        <ele>612</ele>
        <time>2022-02-12T08:01:25Z</time>
      </trkpt>
      <trkpt lat="43.09197" lon="-0.09466">
        <ele>612</ele>
        <time>2022-02-12T08:01:26Z</time>
      </trkpt>
      <trkpt lat="43.09196" lon="-0.09467">
        <ele>612.2</ele>
        <time>2022-02-12T08:01:27Z</time>
      </trkpt>
      <trkpt lat="43.09195" lon="-0.09468">
        <ele>612.4</ele>
        <time>2022-02-12T08:01:28Z</time>
      </trkpt>
      <trkpt lat="43.09194" lon="-0.09469">
        <ele>612.6</ele>
        <time>2022-02-12T08:01:29Z</time>
      </trkpt>
      <trkpt lat="43.09193" lon="-0.0947">
        <ele>612.6</ele>
        <time>2022-02-12T08:01:30Z</time>
      </trkpt>
      <trkpt lat="43.09192" lon="-0.0947">
        <ele>612.6</ele>
        <time>2022-02-12T08:01:31Z</time>
      </trkpt>
      <trkpt lat="43.09191" lon="-0.09471">
        <ele>612.8</ele>
        <time>2022-02-12T08:01:32Z</time>
      </trkpt>
      <trkpt lat="43.0919" lon="-0.09472">
        <ele>612.8</ele>
        <time>2022-02-12T08:01:33Z</time>
      </trkpt>
      <trkpt lat="43.09189" lon="-0.09473">
        <ele>613</ele>
        <time>2022-02-12T08:01:34Z</time>
      </trkpt>
      <trkpt lat="43.09188" lon="-0.09474">
        <ele>613</ele>
        <time>2022-02-12T08:01:35Z</time>
      </trkpt>
      <trkpt lat="43.09187" lon="-0.09475">
        <ele>613.2</ele>
        <time>2022-02-12T08:01:36Z</time>
      </trkpt>
      <trkpt lat="43.09186" lon="-0.09475">
        <ele>613.2</ele>
        <time>2022-02-12T08:01:37Z</time>
      </trkpt>
      <trkpt lat="43.09184" lon="-0.09476">
        <ele>613.4</ele>
        <time>2022-02-12T08:01:38Z</time>
      </trkpt>
      <trkpt lat="43.09183" lon="-0.09477">
        <ele>613.6</ele>
        <time>2022-02-12T08:01:39Z</time>
      </trkpt>
      <trkpt lat="43.0918" lon="-0.09478">
        <ele>613.8</ele>
        <time>2022-02-12T08:01:40Z</time>
      </trkpt>
      <trkpt lat="43.09179" lon="-0.09478">
        <ele>614</ele>
        <time>2022-02-12T08:01:41Z</time>
      </trkpt>
      <trkpt lat="43.09178" lon="-0.09478">
        <ele>614.2</ele>
        <time>2022-02-12T08:01:42Z</time>
      </trkpt>
      <trkpt lat="43.09177" lon="-0.09478">
        <ele>614.4</ele>
        <time>2022-02-12T08:01:43Z</time>
      </trkpt>
      <trkpt lat="43.09176" lon="-0.09479">
        <ele>614.6</ele>
        <time>2022-02-12T08:01:44Z</time>
      </trkpt>
      <trkpt lat="43.09174" lon="-0.0948">
        <ele>614.6</ele>
        <time>2022-02-12T08:01:45Z</time>
      </trkpt>
      <trkpt lat="43.09173" lon="-0.09482">
        <ele>615</ele>
        <time>2022-02-12T08:01:46Z</time>
      </trkpt>
      <trkpt lat="43.09172" lon="-0.09483">
        <ele>615.2</ele>
        <time>2022-02-12T08:01:47Z</time>
      </trkpt>
      <trkpt lat="43.09172" lon="-0.09484">
        <ele>615.4</ele>
        <time>2022-02-12T08:01:48Z</time>
      </trkpt>
      <trkpt lat="43.09171" lon="-0.09485">
        <ele>615.4</ele>
        <time>2022-02-12T08:01:49Z</time>
      </trkpt>
      <trkpt lat="43.09171" lon="-0.09485">
        <ele>615.6</ele>
        <time>2022-02-12T08:01:50Z</time>
      </trkpt>
      <trkpt lat="43.09171" lon="-0.09485">
        <ele>615.6</ele>
        <time>2022-02-12T08:01:51Z</time>
      </trkpt>
      <trkpt lat="43.09171" lon="-0.09485">
        <ele>615.8</ele>
        <time>2022-02-12T08:01:52Z</time>
      </trkpt>
      <trkpt lat="43.09171" lon="-0.09485">
        <ele>615.8</ele>
        <time>2022-02-12T08:01:53Z</time>
      </trkpt>
      <trkpt lat="43.09171" lon="-0.09485">
        <ele>616</ele>
        <time>2022-02-12T08:01:54Z</time>
      </trkpt>
      <trkpt lat="43.09171" lon="-0.09485">
        <ele>616</ele>
        <time>2022-02-12T08:01:55Z</time>
      </trkpt>
      <trkpt lat="43.09171" lon="-0.09485">
        <ele>616.2</ele>
        <time>2022-02-12T08:01:56Z</time>
      </trkpt>
      <trkpt lat="43.09171" lon="-0.09485">
        <ele>616.2</ele>
        <time>2022-02-12T08:01:57Z</time>
      </trkpt>
      <trkpt lat="43.09171" lon="-0.09485">
        <ele>616.2</ele>
        <time>2022-02-12T08:01:58Z</time>
      </trkpt>
      <trkpt lat="43.09171" lon="-0.09485">
        <ele>616.2</ele>
        <time>2022-02-12T08:01:59Z</time>
      </trkpt>
      <trkpt lat="43.09171" lon="-0.09485">
        <ele>616.2</ele>
        <time>2022-02-12T08:02:00Z</time>
      </trkpt>
      <trkpt lat="43.09171" lon="-0.09485">
        <ele>616.4</ele>
        <time>2022-02-12T08:02:01Z</time>
      </trkpt>
      <trkpt lat="43.09171" lon="-0.09485">
        <ele>616.4</ele>
        <time>2022-02-12T08:02:02Z</time>
      </trkpt>
      <trkpt lat="43.09171" lon="-0.09485">
        <ele>616.6</ele>
        <time>2022-02-12T08:02:03Z</time>
      </trkpt>
      <trkpt lat="43.09171" lon="-0.09485">
        <ele>616.6</ele>
        <time>2022-02-12T08:02:04Z</time>
      </trkpt>
      <trkpt lat="43.09171" lon="-0.09485">
        <ele>616.6</ele>
        <time>2022-02-12T08:02:05Z</time>
      </trkpt>
      <trkpt lat="43.09171" lon="-0.09485">
        <ele>616.6</ele>
        <time>2022-02-12T08:02:06Z</time>
      </trkpt>
      <trkpt lat="43.09171" lon="-0.09485">
        <ele>616.6</ele>
        <time>2022-02-12T08:02:07Z</time>
      </trkpt>
      <trkpt lat="43.09171" lon="-0.09485">
        <ele>616.6</ele>
        <time>2022-02-12T08:02:08Z</time>
      </trkpt>
      <trkpt lat="43.09171" lon="-0.09485">
        <ele>616.6</ele>
        <time>2022-02-12T08:02:09Z</time>
      </trkpt>
      <trkpt lat="43.09171" lon="-0.09485">
        <ele>616.6</ele>
        <time>2022-02-12T08:02:10Z</time>
      </trkpt>
      <trkpt lat="43.09171" lon="-0.09485">
        <ele>616.6</ele>
        <time>2022-02-12T08:02:11Z</time>
      </trkpt>
      <trkpt lat="43.09171" lon="-0.09485">
        <ele>616.6</ele>
        <time>2022-02-12T08:02:12Z</time>
      </trkpt>
      <trkpt lat="43.09171" lon="-0.09485">
        <ele>616.6</ele>
        <time>2022-02-12T08:02:13Z</time>
      </trkpt>
      <trkpt lat="43.09171" lon="-0.09485">
        <ele>616.6</ele>
        <time>2022-02-12T08:02:14Z</time>
      </trkpt>
      <trkpt lat="43.09171" lon="-0.09485">
        <ele>616.6</ele>
        <time>2022-02-12T08:02:15Z</time>
      </trkpt>
      <trkpt lat="43.09171" lon="-0.09485">
        <ele>616.6</ele>
        <time>2022-02-12T08:02:16Z</time>
      </trkpt>
      <trkpt lat="43.09171" lon="-0.09485">
        <ele>616.6</ele>
        <time>2022-02-12T08:02:17Z</time>
      </trkpt>
      <trkpt lat="43.09171" lon="-0.09485">
        <ele>616.6</ele>
        <time>2022-02-12T08:02:18Z</time>
      </trkpt>
      <trkpt lat="43.09171" lon="-0.09485">
        <ele>616.6</ele>
        <time>2022-02-12T08:02:19Z</time>
      </trkpt>
      <trkpt lat="43.09171" lon="-0.09485">
        <ele>616.6</ele>
        <time>2022-02-12T08:02:20Z</time>
      </trkpt>
      <trkpt lat="43.09171" lon="-0.09485">
        <ele>616.6</ele>
        <time>2022-02-12T08:02:21Z</time>
      </trkpt>
      <trkpt lat="43.09171" lon="-0.09485">
        <ele>616.4</ele>
        <time>2022-02-12T08:02:22Z</time>
      </trkpt>
      <trkpt lat="43.09171" lon="-0.09485">
        <ele>616.4</ele>
        <time>2022-02-12T08:02:23Z</time>
      </trkpt>
      <trkpt lat="43.09171" lon="-0.09485">
        <ele>616.6</ele>
        <time>2022-02-12T08:02:24Z</time>
      </trkpt>
      <trkpt lat="43.09171" lon="-0.09485">
        <ele>616.4</ele>
        <time>2022-02-12T08:02:25Z</time>
      </trkpt>
      <trkpt lat="43.09171" lon="-0.09485">
        <ele>616.4</ele>
        <time>2022-02-12T08:02:26Z</time>
      </trkpt>
      <trkpt lat="43.09171" lon="-0.09485">
        <ele>616.4</ele>
        <time>2022-02-12T08:02:27Z</time>
      </trkpt>
      <trkpt lat="43.09171" lon="-0.09485">
        <ele>616.6</ele>
        <time>2022-02-12T08:02:28Z</time>
      </trkpt>
      <trkpt lat="43.09171" lon="-0.09485">
        <ele>616.6</ele>
        <time>2022-02-12T08:02:29Z</time>
      </trkpt>
      <trkpt lat="43.09171" lon="-0.09485">
        <ele>616.6</ele>
        <time>2022-02-12T08:02:30Z</time>
      </trkpt>
      <trkpt lat="43.09171" lon="-0.09485">
        <ele>616.6</ele>
        <time>2022-02-12T08:02:31Z</time>
      </trkpt>
      <trkpt lat="43.09171" lon="-0.09485">
        <ele>616.6</ele>
        <time>2022-02-12T08:02:32Z</time>
      </trkpt>
      <trkpt lat="43.09171" lon="-0.09485">
        <ele>616.8</ele>
        <time>2022-02-12T08:02:33Z</time>
      </trkpt>
      <trkpt lat="43.09171" lon="-0.09485">
        <ele>616.8</ele>
        <time>2022-02-12T08:02:34Z</time>
      </trkpt>
      <trkpt lat="43.09171" lon="-0.09485">
        <ele>617</ele>
        <time>2022-02-12T08:02:35Z</time>
      </trkpt>
      <trkpt lat="43.09171" lon="-0.09485">
        <ele>617</ele>
        <time>2022-02-12T08:02:36Z</time>
      </trkpt>
      <trkpt lat="43.09171" lon="-0.09485">
        <ele>617.2</ele>
        <time>2022-02-12T08:02:37Z</time>
      </trkpt>
      <trkpt lat="43.09171" lon="-0.09485">
        <ele>617.2</ele>
        <time>2022-02-12T08:02:38Z</time>
      </trkpt>
      <trkpt lat="43.09171" lon="-0.09486">
        <ele>617.2</ele>
        <time>2022-02-12T08:02:39Z</time>
      </trkpt>
      <trkpt lat="43.0917" lon="-0.09486">
        <ele>617.4</ele>
        <time>2022-02-12T08:02:40Z</time>
      </trkpt>
      <trkpt lat="43.0917" lon="-0.09487">
        <ele>617.4</ele>
        <time>2022-02-12T08:02:41Z</time>
      </trkpt>
      <trkpt lat="43.09169" lon="-0.09489">
        <ele>617.4</ele>
        <time>2022-02-12T08:02:42Z</time>
      </trkpt>
      <trkpt lat="43.09168" lon="-0.0949">
        <ele>617.4</ele>
        <time>2022-02-12T08:02:43Z</time>
      </trkpt>
      <trkpt lat="43.09168" lon="-0.0949">
        <ele>617.4</ele>
        <time>2022-02-12T08:02:44Z</time>
      </trkpt>
      <trkpt lat="43.09168" lon="-0.0949">
        <ele>617.4</ele>
        <time>2022-02-12T08:02:45Z</time>
      </trkpt>
      <trkpt lat="43.09167" lon="-0.09492">
        <ele>617.4</ele>
        <time>2022-02-12T08:02:46Z</time>
      </trkpt>
      <trkpt lat="43.09166" lon="-0.09493">
        <ele>617.6</ele>
        <time>2022-02-12T08:02:47Z</time>
      </trkpt>
      <trkpt lat="43.09165" lon="-0.09495">
        <ele>617.6</ele>
        <time>2022-02-12T08:02:48Z</time>
      </trkpt>
      <trkpt lat="43.09163" lon="-0.09496">
        <ele>617.8</ele>
        <time>2022-02-12T08:02:49Z</time>
      </trkpt>
      <trkpt lat="43.09162" lon="-0.09498">
        <ele>617.8</ele>
        <time>2022-02-12T08:02:50Z</time>
      </trkpt>
      <trkpt lat="43.09161" lon="-0.095">
        <ele>618</ele>
        <time>2022-02-12T08:02:51Z</time>
      </trkpt>
      <trkpt lat="43.0916" lon="-0.09502">
        <ele>618</ele>
        <time>2022-02-12T08:02:52Z</time>
      </trkpt>
      <trkpt lat="43.09158" lon="-0.09505">
        <ele>618</ele>
        <time>2022-02-12T08:02:53Z</time>
      </trkpt>
      <trkpt lat="43.09157" lon="-0.09507">
        <ele>618.2</ele>
        <time>2022-02-12T08:02:54Z</time>
      </trkpt>
      <trkpt lat="43.09156" lon="-0.09508">
        <ele>618.2</ele>
        <time>2022-02-12T08:02:55Z</time>
      </trkpt>
      <trkpt lat="43.09155" lon="-0.09509">
        <ele>618.2</ele>
        <time>2022-02-12T08:02:56Z</time>
      </trkpt>
      <trkpt lat="43.09154" lon="-0.0951">
        <ele>618.4</ele>
        <time>2022-02-12T08:02:57Z</time>
      </trkpt>
      <trkpt lat="43.09152" lon="-0.09511">
        <ele>618.6</ele>
        <time>2022-02-12T08:02:58Z</time>
      </trkpt>
      <trkpt lat="43.09151" lon="-0.09513">
        <ele>618.8</ele>
        <time>2022-02-12T08:02:59Z</time>
      </trkpt>
      <trkpt lat="43.0915" lon="-0.09515">
        <ele>619</ele>
        <time>2022-02-12T08:03:00Z</time>
      </trkpt>
      <trkpt lat="43.09149" lon="-0.09517">
        <ele>619.2</ele>
        <time>2022-02-12T08:03:01Z</time>
      </trkpt>
      <trkpt lat="43.09148" lon="-0.09519">
        <ele>619.4</ele>
        <time>2022-02-12T08:03:02Z</time>
      </trkpt>
      <trkpt lat="43.09148" lon="-0.0952">
        <ele>619.4</ele>
        <time>2022-02-12T08:03:03Z</time>
      </trkpt>
      <trkpt lat="43.09147" lon="-0.09521">
        <ele>619.6</ele>
        <time>2022-02-12T08:03:04Z</time>
      </trkpt>
      <trkpt lat="43.09146" lon="-0.09523">
        <ele>619.6</ele>
        <time>2022-02-12T08:03:05Z</time>
      </trkpt>
      <trkpt lat="43.09144" lon="-0.09523">
        <ele>619.6</ele>
        <time>2022-02-12T08:03:06Z</time>
      </trkpt>
      <trkpt lat="43.09143" lon="-0.09525">
        <ele>619.6</ele>
        <time>2022-02-12T08:03:07Z</time>
      </trkpt>
      <trkpt lat="43.09142" lon="-0.09526">
        <ele>619.8</ele>
        <time>2022-02-12T08:03:08Z</time>
      </trkpt>
      <trkpt lat="43.09141" lon="-0.09528">
        <ele>619.8</ele>
        <time>2022-02-12T08:03:09Z</time>
      </trkpt>
      <trkpt lat="43.09141" lon="-0.09529">
        <ele>620</ele>
        <time>2022-02-12T08:03:10Z</time>
      </trkpt>
      <trkpt lat="43.09138" lon="-0.0953">
        <ele>620</ele>
        <time>2022-02-12T08:03:11Z</time>
      </trkpt>
      <trkpt lat="43.09137" lon="-0.09531">
        <ele>620.2</ele>
        <time>2022-02-12T08:03:12Z</time>
      </trkpt>
      <trkpt lat="43.09136" lon="-0.09532">
        <ele>620.2</ele>
        <time>2022-02-12T08:03:13Z</time>
      </trkpt>
      <trkpt lat="43.09135" lon="-0.09533">
        <ele>620.2</ele>
        <time>2022-02-12T08:03:14Z</time>
      </trkpt>
      <trkpt lat="43.09134" lon="-0.09534">
        <ele>620.4</ele>
        <time>2022-02-12T08:03:15Z</time>
      </trkpt>
      <trkpt lat="43.09133" lon="-0.09535">
        <ele>620.4</ele>
        <time>2022-02-12T08:03:16Z</time>
      </trkpt>
      <trkpt lat="43.09132" lon="-0.09536">
        <ele>620.6</ele>
        <time>2022-02-12T08:03:17Z</time>
      </trkpt>
      <trkpt lat="43.09131" lon="-0.09536">
        <ele>620.6</ele>
        <time>2022-02-12T08:03:18Z</time>
      </trkpt>
      <trkpt lat="43.0913" lon="-0.09537">
        <ele>620.8</ele>
        <time>2022-02-12T08:03:19Z</time>
      </trkpt>
      <trkpt lat="43.09129" lon="-0.09539">
        <ele>620.8</ele>
        <time>2022-02-12T08:03:20Z</time>
      </trkpt>
      <trkpt lat="43.09128" lon="-0.0954">
        <ele>621</ele>
        <time>2022-02-12T08:03:21Z</time>
      </trkpt>
      <trkpt lat="43.09128" lon="-0.09541">
        <ele>621</ele>
        <time>2022-02-12T08:03:22Z</time>
      </trkpt>
      <trkpt lat="43.09127" lon="-0.09542">
        <ele>621</ele>
        <time>2022-02-12T08:03:23Z</time>
      </trkpt>
      <trkpt lat="43.09127" lon="-0.09543">
        <ele>621.2</ele>
        <time>2022-02-12T08:03:24Z</time>
      </trkpt>
      <trkpt lat="43.09127" lon="-0.09544">
        <ele>621.2</ele>
        <time>2022-02-12T08:03:25Z</time>
      </trkpt>
      <trkpt lat="43.09126" lon="-0.09545">
        <ele>621.2</ele>
        <time>2022-02-12T08:03:26Z</time>
      </trkpt>
      <trkpt lat="43.09126" lon="-0.09547">
        <ele>621.2</ele>
        <time>2022-02-12T08:03:27Z</time>
      </trkpt>
      <trkpt lat="43.09125" lon="-0.09549">
        <ele>621.2</ele>
        <time>2022-02-12T08:03:28Z</time>
      </trkpt>
      <trkpt lat="43.09126" lon="-0.0955">
        <ele>621.2</ele>
        <time>2022-02-12T08:03:29Z</time>
      </trkpt>
      <trkpt lat="43.09125" lon="-0.09552">
        <ele>621.2</ele>
        <time>2022-02-12T08:03:30Z</time>
      </trkpt>
      <trkpt lat="43.09126" lon="-0.09553">
        <ele>621.2</ele>
        <time>2022-02-12T08:03:31Z</time>
      </trkpt>
      <trkpt lat="43.09126" lon="-0.09555">
        <ele>621.4</ele>
        <time>2022-02-12T08:03:32Z</time>
      </trkpt>
      <trkpt lat="43.09126" lon="-0.09557">
        <ele>621.6</ele>
        <time>2022-02-12T08:03:33Z</time>
      </trkpt>
      <trkpt lat="43.09127" lon="-0.09558">
        <ele>621.6</ele>
        <time>2022-02-12T08:03:34Z</time>
      </trkpt>
      <trkpt lat="43.09127" lon="-0.09559">
        <ele>621.6</ele>
        <time>2022-02-12T08:03:35Z</time>
      </trkpt>
      <trkpt lat="43.09127" lon="-0.09561">
        <ele>621.6</ele>
        <time>2022-02-12T08:03:36Z</time>
      </trkpt>
      <trkpt lat="43.09128" lon="-0.09562">
        <ele>621.8</ele>
        <time>2022-02-12T08:03:37Z</time>
      </trkpt>
      <trkpt lat="43.09128" lon="-0.09563">
        <ele>621.8</ele>
        <time>2022-02-12T08:03:38Z</time>
      </trkpt>
      <trkpt lat="43.09128" lon="-0.09564">
        <ele>621.8</ele>
        <time>2022-02-12T08:03:39Z</time>
      </trkpt>
      <trkpt lat="43.09128" lon="-0.09566">
        <ele>621.8</ele>
        <time>2022-02-12T08:03:40Z</time>
      </trkpt>
      <trkpt lat="43.09128" lon="-0.09568">
        <ele>621.8</ele>
        <time>2022-02-12T08:03:41Z</time>
      </trkpt>
      <trkpt lat="43.09129" lon="-0.0957">
        <ele>622</ele>
        <time>2022-02-12T08:03:42Z</time>
      </trkpt>
      <trkpt lat="43.09129" lon="-0.09572">
        <ele>622</ele>
        <time>2022-02-12T08:03:43Z</time>
      </trkpt>
      <trkpt lat="43.0913" lon="-0.09574">
        <ele>622</ele>
        <time>2022-02-12T08:03:44Z</time>
      </trkpt>
      <trkpt lat="43.0913" lon="-0.09576">
        <ele>622</ele>
        <time>2022-02-12T08:03:45Z</time>
      </trkpt>
      <trkpt lat="43.0913" lon="-0.09577">
        <ele>622</ele>
        <time>2022-02-12T08:03:46Z</time>
      </trkpt>
      <trkpt lat="43.0913" lon="-0.09578">
        <ele>622.2</ele>
        <time>2022-02-12T08:03:47Z</time>
      </trkpt>
      <trkpt lat="43.09131" lon="-0.0958">
        <ele>622.2</ele>
        <time>2022-02-12T08:03:48Z</time>
      </trkpt>
      <trkpt lat="43.09131" lon="-0.09581">
        <ele>622.4</ele>
        <time>2022-02-12T08:03:49Z</time>
      </trkpt>
      <trkpt lat="43.09132" lon="-0.09583">
        <ele>622.4</ele>
        <time>2022-02-12T08:03:50Z</time>
      </trkpt>
      <trkpt lat="43.09132" lon="-0.09585">
        <ele>622.6</ele>
        <time>2022-02-12T08:03:51Z</time>
      </trkpt>
      <trkpt lat="43.09133" lon="-0.09587">
        <ele>622.6</ele>
        <time>2022-02-12T08:03:52Z</time>
      </trkpt>
      <trkpt lat="43.09133" lon="-0.09588">
        <ele>622.6</ele>
        <time>2022-02-12T08:03:53Z</time>
      </trkpt>
      <trkpt lat="43.09135" lon="-0.0959">
        <ele>622.8</ele>
        <time>2022-02-12T08:03:54Z</time>
      </trkpt>
      <trkpt lat="43.09135" lon="-0.09592">
        <ele>622.8</ele>
        <time>2022-02-12T08:03:55Z</time>
      </trkpt>
      <trkpt lat="43.09136" lon="-0.09593">
        <ele>623</ele>
        <time>2022-02-12T08:03:56Z</time>
      </trkpt>
      <trkpt lat="43.09136" lon="-0.09594">
        <ele>623</ele>
        <time>2022-02-12T08:03:57Z</time>
      </trkpt>
      <trkpt lat="43.09136" lon="-0.09596">
        <ele>623.4</ele>
        <time>2022-02-12T08:03:58Z</time>
      </trkpt>
      <trkpt lat="43.09137" lon="-0.09598">
        <ele>623.4</ele>
        <time>2022-02-12T08:03:59Z</time>
      </trkpt>
      <trkpt lat="43.09138" lon="-0.096">
        <ele>623.6</ele>
        <time>2022-02-12T08:04:00Z</time>
      </trkpt>
      <trkpt lat="43.09138" lon="-0.09602">
        <ele>623.6</ele>
        <time>2022-02-12T08:04:01Z</time>
      </trkpt>
      <trkpt lat="43.09139" lon="-0.09604">
        <ele>624</ele>
        <time>2022-02-12T08:04:02Z</time>
      </trkpt>
      <trkpt lat="43.09139" lon="-0.09607">
        <ele>624</ele>
        <time>2022-02-12T08:04:03Z</time>
      </trkpt>
      <trkpt lat="43.09139" lon="-0.09608">
        <ele>624.4</ele>
        <time>2022-02-12T08:04:04Z</time>
      </trkpt>
      <trkpt lat="43.09139" lon="-0.09608">
        <ele>624.4</ele>
        <time>2022-02-12T08:04:05Z</time>
      </trkpt>
      <trkpt lat="43.0914" lon="-0.09609">
        <ele>624.8</ele>
        <time>2022-02-12T08:04:06Z</time>
      </trkpt>
      <trkpt lat="43.0914" lon="-0.09611">
        <ele>624.8</ele>
        <time>2022-02-12T08:04:07Z</time>
      </trkpt>
      <trkpt lat="43.0914" lon="-0.09611">
        <ele>625</ele>
        <time>2022-02-12T08:04:08Z</time>
      </trkpt>
      <trkpt lat="43.0914" lon="-0.09611">
        <ele>625</ele>
        <time>2022-02-12T08:04:09Z</time>
      </trkpt>
      <trkpt lat="43.09141" lon="-0.09613">
        <ele>625.2</ele>
        <time>2022-02-12T08:04:10Z</time>
      </trkpt>
      <trkpt lat="43.09141" lon="-0.09615">
        <ele>625.2</ele>
        <time>2022-02-12T08:04:11Z</time>
      </trkpt>
      <trkpt lat="43.09142" lon="-0.09618">
        <ele>625.2</ele>
        <time>2022-02-12T08:04:12Z</time>
      </trkpt>
      <trkpt lat="43.09142" lon="-0.09619">
        <ele>625.2</ele>
        <time>2022-02-12T08:04:13Z</time>
      </trkpt>
      <trkpt lat="43.09143" lon="-0.09621">
        <ele>625.2</ele>
        <time>2022-02-12T08:04:14Z</time>
      </trkpt>
      <trkpt lat="43.09143" lon="-0.09623">
        <ele>625.2</ele>
        <time>2022-02-12T08:04:15Z</time>
      </trkpt>
      <trkpt lat="43.09143" lon="-0.09623">
        <ele>625.4</ele>
        <time>2022-02-12T08:04:16Z</time>
      </trkpt>
      <trkpt lat="43.09143" lon="-0.09623">
        <ele>625.4</ele>
        <time>2022-02-12T08:04:17Z</time>
      </trkpt>
      <trkpt lat="43.09143" lon="-0.09623">
        <ele>625.4</ele>
        <time>2022-02-12T08:04:18Z</time>
      </trkpt>
      <trkpt lat="43.09143" lon="-0.09623">
        <ele>625.4</ele>
        <time>2022-02-12T08:04:19Z</time>
      </trkpt>
      <trkpt lat="43.09143" lon="-0.09623">
        <ele>625.2</ele>
        <time>2022-02-12T08:04:20Z</time>
      </trkpt>
      <trkpt lat="43.09143" lon="-0.09623">
        <ele>625.2</ele>
        <time>2022-02-12T08:04:21Z</time>
      </trkpt>
      <trkpt lat="43.09143" lon="-0.09623">
        <ele>625.2</ele>
        <time>2022-02-12T08:04:22Z</time>
      </trkpt>
      <trkpt lat="43.09143" lon="-0.09623">
        <ele>625</ele>
        <time>2022-02-12T08:04:23Z</time>
      </trkpt>
      <trkpt lat="43.09143" lon="-0.09623">
        <ele>625</ele>
        <time>2022-02-12T08:04:24Z</time>
      </trkpt>
      <trkpt lat="43.09143" lon="-0.09623">
        <ele>625</ele>
        <time>2022-02-12T08:04:25Z</time>
      </trkpt>
      <trkpt lat="43.09143" lon="-0.09623">
        <ele>625</ele>
        <time>2022-02-12T08:04:26Z</time>
      </trkpt>
      <trkpt lat="43.09143" lon="-0.09623">
        <ele>624.8</ele>
        <time>2022-02-12T08:04:27Z</time>
      </trkpt>
      <trkpt lat="43.09143" lon="-0.09623">
        <ele>624.8</ele>
        <time>2022-02-12T08:04:28Z</time>
      </trkpt>
      <trkpt lat="43.09143" lon="-0.09623">
        <ele>624.8</ele>
        <time>2022-02-12T08:04:29Z</time>
      </trkpt>
      <trkpt lat="43.09143" lon="-0.09623">
        <ele>624.8</ele>
        <time>2022-02-12T08:04:30Z</time>
      </trkpt>
      <trkpt lat="43.09143" lon="-0.09623">
        <ele>624.8</ele>
        <time>2022-02-12T08:04:31Z</time>
      </trkpt>
      <trkpt lat="43.09143" lon="-0.09623">
        <ele>624.8</ele>
        <time>2022-02-12T08:04:32Z</time>
      </trkpt>
      <trkpt lat="43.09143" lon="-0.09623">
        <ele>624.8</ele>
        <time>2022-02-12T08:04:33Z</time>
      </trkpt>
      <trkpt lat="43.09143" lon="-0.09623">
        <ele>624.8</ele>
        <time>2022-02-12T08:04:34Z</time>
      </trkpt>
      <trkpt lat="43.09143" lon="-0.09623">
        <ele>624.8</ele>
        <time>2022-02-12T08:04:35Z</time>
      </trkpt>
      <trkpt lat="43.09143" lon="-0.09623">
        <ele>624.8</ele>
        <time>2022-02-12T08:04:36Z</time>
      </trkpt>
      <trkpt lat="43.09143" lon="-0.09623">
        <ele>624.8</ele>
        <time>2022-02-12T08:04:37Z</time>
      </trkpt>
      <trkpt lat="43.09143" lon="-0.09623">
        <ele>624.8</ele>
        <time>2022-02-12T08:04:38Z</time>
      </trkpt>
      <trkpt lat="43.09143" lon="-0.09623">
        <ele>624.8</ele>
        <time>2022-02-12T08:04:39Z</time>
      </trkpt>
      <trkpt lat="43.09143" lon="-0.09623">
        <ele>624.8</ele>
        <time>2022-02-12T08:04:40Z</time>
      </trkpt>
      <trkpt lat="43.09143" lon="-0.09623">
        <ele>624.8</ele>
        <time>2022-02-12T08:04:41Z</time>
      </trkpt>
      <trkpt lat="43.09143" lon="-0.09623">
        <ele>625</ele>
        <time>2022-02-12T08:04:42Z</time>
      </trkpt>
      <trkpt lat="43.09141" lon="-0.09625">
        <ele>625</ele>
        <time>2022-02-12T08:04:43Z</time>
      </trkpt>
      <trkpt lat="43.09139" lon="-0.09626">
        <ele>625</ele>
        <time>2022-02-12T08:04:44Z</time>
      </trkpt>
      <trkpt lat="43.09139" lon="-0.09627">
        <ele>625</ele>
        <time>2022-02-12T08:04:45Z</time>
      </trkpt>
      <trkpt lat="43.09138" lon="-0.09629">
        <ele>625</ele>
        <time>2022-02-12T08:04:46Z</time>
      </trkpt>
      <trkpt lat="43.09137" lon="-0.0963">
        <ele>625</ele>
        <time>2022-02-12T08:04:47Z</time>
      </trkpt>
      <trkpt lat="43.09137" lon="-0.09631">
        <ele>625.4</ele>
        <time>2022-02-12T08:04:48Z</time>
      </trkpt>
      <trkpt lat="43.09136" lon="-0.09633">
        <ele>625.4</ele>
        <time>2022-02-12T08:04:49Z</time>
      </trkpt>
      <trkpt lat="43.09135" lon="-0.09634">
        <ele>625.6</ele>
        <time>2022-02-12T08:04:50Z</time>
      </trkpt>
      <trkpt lat="43.09135" lon="-0.09635">
        <ele>625.8</ele>
        <time>2022-02-12T08:04:51Z</time>
      </trkpt>
      <trkpt lat="43.09134" lon="-0.09636">
        <ele>626</ele>
        <time>2022-02-12T08:04:52Z</time>
      </trkpt>
      <trkpt lat="43.09134" lon="-0.09636">
        <ele>626.2</ele>
        <time>2022-02-12T08:04:53Z</time>
      </trkpt>
      <trkpt lat="43.09134" lon="-0.09636">
        <ele>626.4</ele>
        <time>2022-02-12T08:04:54Z</time>
      </trkpt>
      <trkpt lat="43.09134" lon="-0.09636">
        <ele>626.4</ele>
        <time>2022-02-12T08:04:55Z</time>
      </trkpt>
      <trkpt lat="43.09134" lon="-0.09637">
        <ele>626.6</ele>
        <time>2022-02-12T08:04:56Z</time>
      </trkpt>
      <trkpt lat="43.09133" lon="-0.09638">
        <ele>626.6</ele>
        <time>2022-02-12T08:04:57Z</time>
      </trkpt>
      <trkpt lat="43.09132" lon="-0.09639">
        <ele>626.8</ele>
        <time>2022-02-12T08:04:58Z</time>
      </trkpt>
      <trkpt lat="43.0913" lon="-0.0964">
        <ele>627</ele>
        <time>2022-02-12T08:04:59Z</time>
      </trkpt>
      <trkpt lat="43.09129" lon="-0.09641">
        <ele>627</ele>
        <time>2022-02-12T08:05:00Z</time>
      </trkpt>
      <trkpt lat="43.09128" lon="-0.09642">
        <ele>627.2</ele>
        <time>2022-02-12T08:05:01Z</time>
      </trkpt>
      <trkpt lat="43.09128" lon="-0.09643">
        <ele>627.4</ele>
        <time>2022-02-12T08:05:02Z</time>
      </trkpt>
      <trkpt lat="43.09125" lon="-0.09645">
        <ele>627.4</ele>
        <time>2022-02-12T08:05:03Z</time>
      </trkpt>
      <trkpt lat="43.09122" lon="-0.09647">
        <ele>627.6</ele>
        <time>2022-02-12T08:05:04Z</time>
      </trkpt>
      <trkpt lat="43.09119" lon="-0.09649">
        <ele>627.8</ele>
        <time>2022-02-12T08:05:05Z</time>
      </trkpt>
      <trkpt lat="43.09119" lon="-0.0965">
        <ele>628</ele>
        <time>2022-02-12T08:05:06Z</time>
      </trkpt>
      <trkpt lat="43.09117" lon="-0.09652">
        <ele>628.4</ele>
        <time>2022-02-12T08:05:07Z</time>
      </trkpt>
      <trkpt lat="43.09114" lon="-0.09654">
        <ele>628.6</ele>
        <time>2022-02-12T08:05:08Z</time>
      </trkpt>
      <trkpt lat="43.09113" lon="-0.09654">
        <ele>629</ele>
        <time>2022-02-12T08:05:09Z</time>
      </trkpt>
      <trkpt lat="43.09111" lon="-0.09655">
        <ele>629</ele>
        <time>2022-02-12T08:05:10Z</time>
      </trkpt>
      <trkpt lat="43.0911" lon="-0.09656">
        <ele>629.4</ele>
        <time>2022-02-12T08:05:11Z</time>
      </trkpt>
      <trkpt lat="43.0911" lon="-0.09656">
        <ele>629.4</ele>
        <time>2022-02-12T08:05:12Z</time>
      </trkpt>
      <trkpt lat="43.09107" lon="-0.09657">
        <ele>629.8</ele>
        <time>2022-02-12T08:05:13Z</time>
      </trkpt>
      <trkpt lat="43.09107" lon="-0.09658">
        <ele>630</ele>
        <time>2022-02-12T08:05:14Z</time>
      </trkpt>
      <trkpt lat="43.09106" lon="-0.09658">
        <ele>630.4</ele>
        <time>2022-02-12T08:05:15Z</time>
      </trkpt>
      <trkpt lat="43.09105" lon="-0.09658">
        <ele>630.6</ele>
        <time>2022-02-12T08:05:16Z</time>
      </trkpt>
      <trkpt lat="43.09103" lon="-0.09659">
        <ele>631</ele>
        <time>2022-02-12T08:05:17Z</time>
      </trkpt>
      <trkpt lat="43.09102" lon="-0.09662">
        <ele>631.2</ele>
        <time>2022-02-12T08:05:18Z</time>
      </trkpt>
      <trkpt lat="43.09101" lon="-0.09662">
        <ele>631.4</ele>
        <time>2022-02-12T08:05:19Z</time>
      </trkpt>
      <trkpt lat="43.09101" lon="-0.09662">
        <ele>631.6</ele>
        <time>2022-02-12T08:05:20Z</time>
      </trkpt>
      <trkpt lat="43.09101" lon="-0.09662">
        <ele>631.8</ele>
        <time>2022-02-12T08:05:21Z</time>
      </trkpt>
      <trkpt lat="43.09101" lon="-0.09662">
        <ele>632</ele>
        <time>2022-02-12T08:05:22Z</time>
      </trkpt>
      <trkpt lat="43.09101" lon="-0.09662">
        <ele>632.2</ele>
        <time>2022-02-12T08:05:23Z</time>
      </trkpt>
      <trkpt lat="43.09101" lon="-0.09662">
        <ele>632.2</ele>
        <time>2022-02-12T08:05:24Z</time>
      </trkpt>
      <trkpt lat="43.09101" lon="-0.09662">
        <ele>632.4</ele>
        <time>2022-02-12T08:05:25Z</time>
      </trkpt>
      <trkpt lat="43.09101" lon="-0.09662">
        <ele>632.4</ele>
        <time>2022-02-12T08:05:26Z</time>
      </trkpt>
      <trkpt lat="43.091" lon="-0.09662">
        <ele>632.6</ele>
        <time>2022-02-12T08:05:27Z</time>
      </trkpt>
      <trkpt lat="43.09099" lon="-0.09662">
        <ele>632.6</ele>
        <time>2022-02-12T08:05:28Z</time>
      </trkpt>
      <trkpt lat="43.09099" lon="-0.09662">
        <ele>632.6</ele>
        <time>2022-02-12T08:05:29Z</time>
      </trkpt>
      <trkpt lat="43.09099" lon="-0.09662">
        <ele>632.6</ele>
        <time>2022-02-12T08:05:30Z</time>
      </trkpt>
      <trkpt lat="43.09099" lon="-0.09661">
        <ele>632.8</ele>
        <time>2022-02-12T08:05:31Z</time>
      </trkpt>
      <trkpt lat="43.09098" lon="-0.09661">
        <ele>632.8</ele>
        <time>2022-02-12T08:05:32Z</time>
      </trkpt>
      <trkpt lat="43.09098" lon="-0.09661">
        <ele>632.8</ele>
        <time>2022-02-12T08:05:33Z</time>
      </trkpt>
      <trkpt lat="43.09098" lon="-0.09661">
        <ele>633</ele>
        <time>2022-02-12T08:05:34Z</time>
      </trkpt>
      <trkpt lat="43.09098" lon="-0.09661">
        <ele>633</ele>
        <time>2022-02-12T08:05:35Z</time>
      </trkpt>
      <trkpt lat="43.09098" lon="-0.09661">
        <ele>633.2</ele>
        <time>2022-02-12T08:05:36Z</time>
      </trkpt>
      <trkpt lat="43.09098" lon="-0.09661">
        <ele>633.2</ele>
        <time>2022-02-12T08:05:37Z</time>
      </trkpt>
      <trkpt lat="43.09098" lon="-0.09661">
        <ele>633.4</ele>
        <time>2022-02-12T08:05:38Z</time>
      </trkpt>
      <trkpt lat="43.09098" lon="-0.09661">
        <ele>633.6</ele>
        <time>2022-02-12T08:05:39Z</time>
      </trkpt>
      <trkpt lat="43.09098" lon="-0.09661">
        <ele>633.6</ele>
        <time>2022-02-12T08:05:40Z</time>
      </trkpt>
      <trkpt lat="43.09098" lon="-0.09661">
        <ele>633.8</ele>
        <time>2022-02-12T08:05:41Z</time>
      </trkpt>
      <trkpt lat="43.09098" lon="-0.09661">
        <ele>633.8</ele>
        <time>2022-02-12T08:05:42Z</time>
      </trkpt>
      <trkpt lat="43.09098" lon="-0.09661">
        <ele>634</ele>
        <time>2022-02-12T08:05:43Z</time>
      </trkpt>
      <trkpt lat="43.09098" lon="-0.09661">
        <ele>634</ele>
        <time>2022-02-12T08:05:44Z</time>
      </trkpt>
      <trkpt lat="43.09098" lon="-0.09661">
        <ele>634</ele>
        <time>2022-02-12T08:05:45Z</time>
      </trkpt>
      <trkpt lat="43.09098" lon="-0.09661">
        <ele>634.2</ele>
        <time>2022-02-12T08:05:46Z</time>
      </trkpt>
      <trkpt lat="43.09098" lon="-0.09661">
        <ele>634.2</ele>
        <time>2022-02-12T08:05:47Z</time>
      </trkpt>
      <trkpt lat="43.09098" lon="-0.09661">
        <ele>634.4</ele>
        <time>2022-02-12T08:05:48Z</time>
      </trkpt>
      <trkpt lat="43.09098" lon="-0.09661">
        <ele>634.4</ele>
        <time>2022-02-12T08:05:49Z</time>
      </trkpt>
      <trkpt lat="43.09098" lon="-0.09661">
        <ele>634.4</ele>
        <time>2022-02-12T08:05:50Z</time>
      </trkpt>
      <trkpt lat="43.09098" lon="-0.09661">
        <ele>634.6</ele>
        <time>2022-02-12T08:05:51Z</time>
      </trkpt>
      <trkpt lat="43.09098" lon="-0.09661">
        <ele>634.6</ele>
        <time>2022-02-12T08:05:52Z</time>
      </trkpt>
      <trkpt lat="43.09098" lon="-0.09661">
        <ele>634.6</ele>
        <time>2022-02-12T08:05:53Z</time>
      </trkpt>
      <trkpt lat="43.09098" lon="-0.09661">
        <ele>634.8</ele>
        <time>2022-02-12T08:05:54Z</time>
      </trkpt>
      <trkpt lat="43.09098" lon="-0.09661">
        <ele>634.8</ele>
        <time>2022-02-12T08:05:55Z</time>
      </trkpt>
      <trkpt lat="43.09098" lon="-0.09661">
        <ele>635.2</ele>
        <time>2022-02-12T08:05:56Z</time>
      </trkpt>
      <trkpt lat="43.09098" lon="-0.09661">
        <ele>635</ele>
        <time>2022-02-12T08:05:57Z</time>
      </trkpt>
      <trkpt lat="43.09098" lon="-0.09661">
        <ele>635.4</ele>
        <time>2022-02-12T08:05:58Z</time>
      </trkpt>
      <trkpt lat="43.09098" lon="-0.09661">
        <ele>635.4</ele>
        <time>2022-02-12T08:05:59Z</time>
      </trkpt>
      <trkpt lat="43.09098" lon="-0.09661">
        <ele>635.4</ele>
        <time>2022-02-12T08:06:00Z</time>
      </trkpt>
      <trkpt lat="43.09098" lon="-0.09661">
        <ele>635.4</ele>
        <time>2022-02-12T08:06:01Z</time>
      </trkpt>
      <trkpt lat="43.09098" lon="-0.09661">
        <ele>635.4</ele>
        <time>2022-02-12T08:06:02Z</time>
      </trkpt>
      <trkpt lat="43.09098" lon="-0.09661">
        <ele>635.4</ele>
        <time>2022-02-12T08:06:03Z</time>
      </trkpt>
      <trkpt lat="43.09098" lon="-0.09661">
        <ele>635.6</ele>
        <time>2022-02-12T08:06:04Z</time>
      </trkpt>
      <trkpt lat="43.09098" lon="-0.09661">
        <ele>635.6</ele>
        <time>2022-02-12T08:06:05Z</time>
      </trkpt>
      <trkpt lat="43.09098" lon="-0.09661">
        <ele>635.6</ele>
        <time>2022-02-12T08:06:06Z</time>
      </trkpt>
      <trkpt lat="43.09098" lon="-0.09661">
        <ele>635.8</ele>
        <time>2022-02-12T08:06:07Z</time>
      </trkpt>
      <trkpt lat="43.09098" lon="-0.09661">
        <ele>636</ele>
        <time>2022-02-12T08:06:08Z</time>
      </trkpt>
      <trkpt lat="43.09098" lon="-0.09661">
        <ele>636.2</ele>
        <time>2022-02-12T08:06:09Z</time>
      </trkpt>
      <trkpt lat="43.09098" lon="-0.09661">
        <ele>636.2</ele>
        <time>2022-02-12T08:06:10Z</time>
      </trkpt>
      <trkpt lat="43.09098" lon="-0.09661">
        <ele>636.2</ele>
        <time>2022-02-12T08:06:11Z</time>
      </trkpt>
      <trkpt lat="43.09098" lon="-0.09661">
        <ele>636.4</ele>
        <time>2022-02-12T08:06:12Z</time>
      </trkpt>
      <trkpt lat="43.09098" lon="-0.09661">
        <ele>636.4</ele>
        <time>2022-02-12T08:06:13Z</time>
      </trkpt>
      <trkpt lat="43.09098" lon="-0.09661">
        <ele>636.6</ele>
        <time>2022-02-12T08:06:14Z</time>
      </trkpt>
      <trkpt lat="43.09098" lon="-0.09661">
        <ele>636.8</ele>
        <time>2022-02-12T08:06:15Z</time>
      </trkpt>
      <trkpt lat="43.09098" lon="-0.09661">
        <ele>636.8</ele>
        <time>2022-02-12T08:06:16Z</time>
      </trkpt>
      <trkpt lat="43.09098" lon="-0.09661">
        <ele>637</ele>
        <time>2022-02-12T08:06:17Z</time>
      </trkpt>
      <trkpt lat="43.09098" lon="-0.0966">
        <ele>637.2</ele>
        <time>2022-02-12T08:06:18Z</time>
      </trkpt>
      <trkpt lat="43.09098" lon="-0.0966">
        <ele>637.6</ele>
        <time>2022-02-12T08:06:19Z</time>
      </trkpt>
      <trkpt lat="43.09098" lon="-0.0966">
        <ele>637.6</ele>
        <time>2022-02-12T08:06:20Z</time>
      </trkpt>
      <trkpt lat="43.09098" lon="-0.0966">
        <ele>637.8</ele>
        <time>2022-02-12T08:06:21Z</time>
      </trkpt>
      <trkpt lat="43.09098" lon="-0.0966">
        <ele>637.8</ele>
        <time>2022-02-12T08:06:22Z</time>
      </trkpt>
      <trkpt lat="43.09098" lon="-0.09659">
        <ele>637.8</ele>
        <time>2022-02-12T08:06:23Z</time>
      </trkpt>
      <trkpt lat="43.09097" lon="-0.09658">
        <ele>638</ele>
        <time>2022-02-12T08:06:24Z</time>
      </trkpt>
      <trkpt lat="43.09097" lon="-0.09657">
        <ele>638</ele>
        <time>2022-02-12T08:06:25Z</time>
      </trkpt>
      <trkpt lat="43.09097" lon="-0.09657">
        <ele>638.2</ele>
        <time>2022-02-12T08:06:26Z</time>
      </trkpt>
      <trkpt lat="43.09097" lon="-0.09656">
        <ele>638.2</ele>
        <time>2022-02-12T08:06:27Z</time>
      </trkpt>
      <trkpt lat="43.09097" lon="-0.09655">
        <ele>638.4</ele>
        <time>2022-02-12T08:06:28Z</time>
      </trkpt>
      <trkpt lat="43.09097" lon="-0.09655">
        <ele>638.4</ele>
        <time>2022-02-12T08:06:29Z</time>
      </trkpt>
      <trkpt lat="43.09097" lon="-0.09654">
        <ele>638.6</ele>
        <time>2022-02-12T08:06:30Z</time>
      </trkpt>
      <trkpt lat="43.09097" lon="-0.09654">
        <ele>638.8</ele>
        <time>2022-02-12T08:06:31Z</time>
      </trkpt>
      <trkpt lat="43.09096" lon="-0.09653">
        <ele>638.8</ele>
        <time>2022-02-12T08:06:32Z</time>
      </trkpt>
      <trkpt lat="43.09096" lon="-0.09653">
        <ele>639</ele>
        <time>2022-02-12T08:06:33Z</time>
      </trkpt>
      <trkpt lat="43.09096" lon="-0.09653">
        <ele>639</ele>
        <time>2022-02-12T08:06:34Z</time>
      </trkpt>
      <trkpt lat="43.09096" lon="-0.09653">
        <ele>639.2</ele>
        <time>2022-02-12T08:06:35Z</time>
      </trkpt>
      <trkpt lat="43.09096" lon="-0.09653">
        <ele>639.4</ele>
        <time>2022-02-12T08:06:36Z</time>
      </trkpt>
      <trkpt lat="43.09096" lon="-0.09653">
        <ele>639.4</ele>
        <time>2022-02-12T08:06:37Z</time>
      </trkpt>
      <trkpt lat="43.09096" lon="-0.09653">
        <ele>639.6</ele>
        <time>2022-02-12T08:06:38Z</time>
      </trkpt>
      <trkpt lat="43.09096" lon="-0.09652">
        <ele>639.6</ele>
        <time>2022-02-12T08:06:39Z</time>
      </trkpt>
      <trkpt lat="43.09096" lon="-0.0965">
        <ele>639.8</ele>
        <time>2022-02-12T08:06:40Z</time>
      </trkpt>
      <trkpt lat="43.09096" lon="-0.0965">
        <ele>639.8</ele>
        <time>2022-02-12T08:06:41Z</time>
      </trkpt>
      <trkpt lat="43.09096" lon="-0.09648">
        <ele>639.8</ele>
        <time>2022-02-12T08:06:42Z</time>
      </trkpt>
      <trkpt lat="43.09096" lon="-0.09648">
        <ele>640</ele>
        <time>2022-02-12T08:06:43Z</time>
      </trkpt>
      <trkpt lat="43.09096" lon="-0.09648">
        <ele>640</ele>
        <time>2022-02-12T08:06:44Z</time>
      </trkpt>
      <trkpt lat="43.09096" lon="-0.09647">
        <ele>640</ele>
        <time>2022-02-12T08:06:45Z</time>
      </trkpt>
      <trkpt lat="43.09096" lon="-0.09647">
        <ele>640</ele>
        <time>2022-02-12T08:06:46Z</time>
      </trkpt>
      <trkpt lat="43.09096" lon="-0.09647">
        <ele>640.2</ele>
        <time>2022-02-12T08:06:47Z</time>
      </trkpt>
      <trkpt lat="43.09096" lon="-0.09647">
        <ele>640.6</ele>
        <time>2022-02-12T08:06:48Z</time>
      </trkpt>
      <trkpt lat="43.09096" lon="-0.09647">
        <ele>640.6</ele>
        <time>2022-02-12T08:06:49Z</time>
      </trkpt>
      <trkpt lat="43.09096" lon="-0.09647">
        <ele>640.6</ele>
        <time>2022-02-12T08:06:50Z</time>
      </trkpt>
      <trkpt lat="43.09096" lon="-0.09647">
        <ele>640.8</ele>
        <time>2022-02-12T08:06:51Z</time>
      </trkpt>
      <trkpt lat="43.09096" lon="-0.09647">
        <ele>640.8</ele>
        <time>2022-02-12T08:06:52Z</time>
      </trkpt>
      <trkpt lat="43.09096" lon="-0.09647">
        <ele>641</ele>
        <time>2022-02-12T08:06:53Z</time>
      </trkpt>
      <trkpt lat="43.09096" lon="-0.09647">
        <ele>641</ele>
        <time>2022-02-12T08:06:54Z</time>
      </trkpt>
      <trkpt lat="43.09096" lon="-0.09647">
        <ele>641.2</ele>
        <time>2022-02-12T08:06:55Z</time>
      </trkpt>
      <trkpt lat="43.09096" lon="-0.09647">
        <ele>641.2</ele>
        <time>2022-02-12T08:06:56Z</time>
      </trkpt>
      <trkpt lat="43.09096" lon="-0.09647">
        <ele>641.2</ele>
        <time>2022-02-12T08:06:57Z</time>
      </trkpt>
      <trkpt lat="43.09096" lon="-0.09647">
        <ele>641.4</ele>
        <time>2022-02-12T08:06:58Z</time>
      </trkpt>
      <trkpt lat="43.09096" lon="-0.09647">
        <ele>641.4</ele>
        <time>2022-02-12T08:06:59Z</time>
      </trkpt>
      <trkpt lat="43.09096" lon="-0.09647">
        <ele>641.4</ele>
        <time>2022-02-12T08:07:00Z</time>
      </trkpt>
      <trkpt lat="43.09096" lon="-0.09647">
        <ele>641.4</ele>
        <time>2022-02-12T08:07:01Z</time>
      </trkpt>
      <trkpt lat="43.09096" lon="-0.09647">
        <ele>641.6</ele>
        <time>2022-02-12T08:07:02Z</time>
      </trkpt>
      <trkpt lat="43.09096" lon="-0.09646">
        <ele>641.8</ele>
        <time>2022-02-12T08:07:03Z</time>
      </trkpt>
      <trkpt lat="43.09096" lon="-0.09646">
        <ele>641.8</ele>
        <time>2022-02-12T08:07:04Z</time>
      </trkpt>
      <trkpt lat="43.09096" lon="-0.09646">
        <ele>642.2</ele>
        <time>2022-02-12T08:07:05Z</time>
      </trkpt>
      <trkpt lat="43.09096" lon="-0.09646">
        <ele>642.2</ele>
        <time>2022-02-12T08:07:06Z</time>
      </trkpt>
      <trkpt lat="43.09096" lon="-0.09646">
        <ele>642.2</ele>
        <time>2022-02-12T08:07:07Z</time>
      </trkpt>
      <trkpt lat="43.09096" lon="-0.09645">
        <ele>642.4</ele>
        <time>2022-02-12T08:07:08Z</time>
      </trkpt>
      <trkpt lat="43.09096" lon="-0.09644">
        <ele>642.4</ele>
        <time>2022-02-12T08:07:09Z</time>
      </trkpt>
      <trkpt lat="43.09096" lon="-0.09644">
        <ele>642.6</ele>
        <time>2022-02-12T08:07:10Z</time>
      </trkpt>
      <trkpt lat="43.09096" lon="-0.09643">
        <ele>642.8</ele>
        <time>2022-02-12T08:07:11Z</time>
      </trkpt>
      <trkpt lat="43.09096" lon="-0.09643">
        <ele>643</ele>
        <time>2022-02-12T08:07:12Z</time>
      </trkpt>
      <trkpt lat="43.09096" lon="-0.09642">
        <ele>643</ele>
        <time>2022-02-12T08:07:13Z</time>
      </trkpt>
      <trkpt lat="43.09095" lon="-0.09641">
        <ele>643</ele>
        <time>2022-02-12T08:07:14Z</time>
      </trkpt>
      <trkpt lat="43.09095" lon="-0.09638">
        <ele>643.2</ele>
        <time>2022-02-12T08:07:15Z</time>
      </trkpt>
      <trkpt lat="43.09095" lon="-0.09636">
        <ele>643.2</ele>
        <time>2022-02-12T08:07:16Z</time>
      </trkpt>
      <trkpt lat="43.09095" lon="-0.09635">
        <ele>643.4</ele>
        <time>2022-02-12T08:07:17Z</time>
      </trkpt>
      <trkpt lat="43.09095" lon="-0.09635">
        <ele>643.6</ele>
        <time>2022-02-12T08:07:18Z</time>
      </trkpt>
      <trkpt lat="43.09095" lon="-0.09635">
        <ele>643.6</ele>
        <time>2022-02-12T08:07:19Z</time>
      </trkpt>
      <trkpt lat="43.09095" lon="-0.09635">
        <ele>643.8</ele>
        <time>2022-02-12T08:07:20Z</time>
      </trkpt>
      <trkpt lat="43.09095" lon="-0.09635">
        <ele>643.8</ele>
        <time>2022-02-12T08:07:21Z</time>
      </trkpt>
      <trkpt lat="43.09095" lon="-0.09635">
        <ele>643.8</ele>
        <time>2022-02-12T08:07:22Z</time>
      </trkpt>
      <trkpt lat="43.09095" lon="-0.09635">
        <ele>644</ele>
        <time>2022-02-12T08:07:23Z</time>
      </trkpt>
      <trkpt lat="43.09095" lon="-0.09635">
        <ele>644.2</ele>
        <time>2022-02-12T08:07:24Z</time>
      </trkpt>
      <trkpt lat="43.09095" lon="-0.09635">
        <ele>644.4</ele>
        <time>2022-02-12T08:07:25Z</time>
      </trkpt>
      <trkpt lat="43.09095" lon="-0.09635">
        <ele>644.4</ele>
        <time>2022-02-12T08:07:26Z</time>
      </trkpt>
      <trkpt lat="43.09094" lon="-0.09634">
        <ele>644.6</ele>
        <time>2022-02-12T08:07:27Z</time>
      </trkpt>
      <trkpt lat="43.09094" lon="-0.09634">
        <ele>644.8</ele>
        <time>2022-02-12T08:07:28Z</time>
      </trkpt>
      <trkpt lat="43.09094" lon="-0.09634">
        <ele>644.8</ele>
        <time>2022-02-12T08:07:29Z</time>
      </trkpt>
      <trkpt lat="43.09094" lon="-0.09632">
        <ele>645</ele>
        <time>2022-02-12T08:07:30Z</time>
      </trkpt>
      <trkpt lat="43.09094" lon="-0.09632">
        <ele>645</ele>
        <time>2022-02-12T08:07:31Z</time>
      </trkpt>
      <trkpt lat="43.09094" lon="-0.09632">
        <ele>645.2</ele>
        <time>2022-02-12T08:07:32Z</time>
      </trkpt>
      <trkpt lat="43.09094" lon="-0.09632">
        <ele>645.2</ele>
        <time>2022-02-12T08:07:33Z</time>
      </trkpt>
      <trkpt lat="43.09094" lon="-0.09632">
        <ele>645.2</ele>
        <time>2022-02-12T08:07:34Z</time>
      </trkpt>
      <trkpt lat="43.09094" lon="-0.09632">
        <ele>645.4</ele>
        <time>2022-02-12T08:07:35Z</time>
      </trkpt>
      <trkpt lat="43.09094" lon="-0.09632">
        <ele>645.4</ele>
        <time>2022-02-12T08:07:36Z</time>
      </trkpt>
      <trkpt lat="43.09094" lon="-0.0963">
        <ele>645.4</ele>
        <time>2022-02-12T08:07:37Z</time>
      </trkpt>
      <trkpt lat="43.09094" lon="-0.0963">
        <ele>645.4</ele>
        <time>2022-02-12T08:07:38Z</time>
      </trkpt>
      <trkpt lat="43.09094" lon="-0.0963">
        <ele>645.4</ele>
        <time>2022-02-12T08:07:39Z</time>
      </trkpt>
      <trkpt lat="43.09094" lon="-0.0963">
        <ele>645.4</ele>
        <time>2022-02-12T08:07:40Z</time>
      </trkpt>
      <trkpt lat="43.09094" lon="-0.0963">
        <ele>645.6</ele>
        <time>2022-02-12T08:07:41Z</time>
      </trkpt>
      <trkpt lat="43.09094" lon="-0.0963">
        <ele>645.6</ele>
        <time>2022-02-12T08:07:42Z</time>
      </trkpt>
      <trkpt lat="43.09094" lon="-0.0963">
        <ele>645.6</ele>
        <time>2022-02-12T08:07:43Z</time>
      </trkpt>
      <trkpt lat="43.09094" lon="-0.0963">
        <ele>645.6</ele>
        <time>2022-02-12T08:07:44Z</time>
      </trkpt>
      <trkpt lat="43.09093" lon="-0.0963">
        <ele>645.8</ele>
        <time>2022-02-12T08:07:45Z</time>
      </trkpt>
      <trkpt lat="43.09093" lon="-0.0963">
        <ele>645.8</ele>
        <time>2022-02-12T08:07:46Z</time>
      </trkpt>
      <trkpt lat="43.09093" lon="-0.09627">
        <ele>645.6</ele>
        <time>2022-02-12T08:07:47Z</time>
      </trkpt>
      <trkpt lat="43.09093" lon="-0.09627">
        <ele>645.8</ele>
        <time>2022-02-12T08:07:48Z</time>
      </trkpt>
      <trkpt lat="43.09093" lon="-0.09627">
        <ele>645.8</ele>
        <time>2022-02-12T08:07:49Z</time>
      </trkpt>
      <trkpt lat="43.09093" lon="-0.09627">
        <ele>645.8</ele>
        <time>2022-02-12T08:07:50Z</time>
      </trkpt>
      <trkpt lat="43.09093" lon="-0.09627">
        <ele>645.8</ele>
        <time>2022-02-12T08:07:51Z</time>
      </trkpt>
      <trkpt lat="43.09093" lon="-0.09627">
        <ele>645.8</ele>
        <time>2022-02-12T08:07:52Z</time>
      </trkpt>
      <trkpt lat="43.09093" lon="-0.09627">
        <ele>645.8</ele>
        <time>2022-02-12T08:07:53Z</time>
      </trkpt>
      <trkpt lat="43.09093" lon="-0.09627">
        <ele>645.8</ele>
        <time>2022-02-12T08:07:54Z</time>
      </trkpt>
      <trkpt lat="43.09093" lon="-0.09627">
        <ele>646</ele>
        <time>2022-02-12T08:07:55Z</time>
      </trkpt>
      <trkpt lat="43.09093" lon="-0.09627">
        <ele>646</ele>
        <time>2022-02-12T08:07:56Z</time>
      </trkpt>
      <trkpt lat="43.09093" lon="-0.09627">
        <ele>646</ele>
        <time>2022-02-12T08:07:57Z</time>
      </trkpt>
      <trkpt lat="43.09093" lon="-0.09627">
        <ele>646</ele>
        <time>2022-02-12T08:07:58Z</time>
      </trkpt>
      <trkpt lat="43.09093" lon="-0.09627">
        <ele>646</ele>
        <time>2022-02-12T08:07:59Z</time>
      </trkpt>
      <trkpt lat="43.09093" lon="-0.09627">
        <ele>646</ele>
        <time>2022-02-12T08:08:00Z</time>
      </trkpt>
      <trkpt lat="43.09093" lon="-0.09627">
        <ele>646.2</ele>
        <time>2022-02-12T08:08:01Z</time>
      </trkpt>
      <trkpt lat="43.09093" lon="-0.09627">
        <ele>646.2</ele>
        <time>2022-02-12T08:08:02Z</time>
      </trkpt>
      <trkpt lat="43.09093" lon="-0.09627">
        <ele>646.2</ele>
        <time>2022-02-12T08:08:03Z</time>
      </trkpt>
      <trkpt lat="43.09093" lon="-0.09627">
        <ele>646.2</ele>
        <time>2022-02-12T08:08:04Z</time>
      </trkpt>
      <trkpt lat="43.09093" lon="-0.09627">
        <ele>646.2</ele>
        <time>2022-02-12T08:08:05Z</time>
      </trkpt>
      <trkpt lat="43.09093" lon="-0.09627">
        <ele>646.4</ele>
        <time>2022-02-12T08:08:06Z</time>
      </trkpt>
      <trkpt lat="43.09093" lon="-0.09627">
        <ele>646.4</ele>
        <time>2022-02-12T08:08:07Z</time>
      </trkpt>
      <trkpt lat="43.09093" lon="-0.09627">
        <ele>646.6</ele>
        <time>2022-02-12T08:08:08Z</time>
      </trkpt>
      <trkpt lat="43.09093" lon="-0.09627">
        <ele>646.6</ele>
        <time>2022-02-12T08:08:09Z</time>
      </trkpt>
      <trkpt lat="43.09093" lon="-0.09627">
        <ele>646.8</ele>
        <time>2022-02-12T08:08:10Z</time>
      </trkpt>
      <trkpt lat="43.09093" lon="-0.09627">
        <ele>646.8</ele>
        <time>2022-02-12T08:08:11Z</time>
      </trkpt>
      <trkpt lat="43.09093" lon="-0.09627">
        <ele>646.8</ele>
        <time>2022-02-12T08:08:12Z</time>
      </trkpt>
      <trkpt lat="43.09092" lon="-0.09626">
        <ele>647</ele>
        <time>2022-02-12T08:08:13Z</time>
      </trkpt>
      <trkpt lat="43.09092" lon="-0.09626">
        <ele>647.2</ele>
        <time>2022-02-12T08:08:14Z</time>
      </trkpt>
      <trkpt lat="43.09092" lon="-0.09626">
        <ele>647.4</ele>
        <time>2022-02-12T08:08:15Z</time>
      </trkpt>
      <trkpt lat="43.09092" lon="-0.09626">
        <ele>647.6</ele>
        <time>2022-02-12T08:08:16Z</time>
      </trkpt>
      <trkpt lat="43.09092" lon="-0.09626">
        <ele>647.6</ele>
        <time>2022-02-12T08:08:17Z</time>
      </trkpt>
      <trkpt lat="43.09092" lon="-0.09626">
        <ele>647.8</ele>
        <time>2022-02-12T08:08:18Z</time>
      </trkpt>
      <trkpt lat="43.09091" lon="-0.09626">
        <ele>648</ele>
        <time>2022-02-12T08:08:19Z</time>
      </trkpt>
      <trkpt lat="43.0909" lon="-0.09626">
        <ele>648</ele>
        <time>2022-02-12T08:08:20Z</time>
      </trkpt>
      <trkpt lat="43.0909" lon="-0.09626">
        <ele>648.2</ele>
        <time>2022-02-12T08:08:21Z</time>
      </trkpt>
      <trkpt lat="43.09089" lon="-0.09626">
        <ele>648.2</ele>
        <time>2022-02-12T08:08:22Z</time>
      </trkpt>
      <trkpt lat="43.09088" lon="-0.09626">
        <ele>648.4</ele>
        <time>2022-02-12T08:08:23Z</time>
      </trkpt>
      <trkpt lat="43.09088" lon="-0.09626">
        <ele>648.6</ele>
        <time>2022-02-12T08:08:24Z</time>
      </trkpt>
      <trkpt lat="43.09087" lon="-0.09626">
        <ele>648.6</ele>
        <time>2022-02-12T08:08:25Z</time>
      </trkpt>
      <trkpt lat="43.09087" lon="-0.09626">
        <ele>648.6</ele>
        <time>2022-02-12T08:08:26Z</time>
      </trkpt>
      <trkpt lat="43.09086" lon="-0.09625">
        <ele>648.6</ele>
        <time>2022-02-12T08:08:27Z</time>
      </trkpt>
      <trkpt lat="43.09086" lon="-0.09625">
        <ele>648.8</ele>
        <time>2022-02-12T08:08:28Z</time>
      </trkpt>
      <trkpt lat="43.09086" lon="-0.09625">
        <ele>649</ele>
        <time>2022-02-12T08:08:29Z</time>
      </trkpt>
      <trkpt lat="43.09086" lon="-0.09625">
        <ele>649.2</ele>
        <time>2022-02-12T08:08:30Z</time>
      </trkpt>
      <trkpt lat="43.09086" lon="-0.09625">
        <ele>649.4</ele>
        <time>2022-02-12T08:08:31Z</time>
      </trkpt>
      <trkpt lat="43.09086" lon="-0.09625">
        <ele>649.4</ele>
        <time>2022-02-12T08:08:32Z</time>
      </trkpt>
      <trkpt lat="43.09086" lon="-0.09625">
        <ele>649.6</ele>
        <time>2022-02-12T08:08:33Z</time>
      </trkpt>
      <trkpt lat="43.09086" lon="-0.09625">
        <ele>649.6</ele>
        <time>2022-02-12T08:08:34Z</time>
      </trkpt>
      <trkpt lat="43.09085" lon="-0.09625">
        <ele>649.8</ele>
        <time>2022-02-12T08:08:35Z</time>
      </trkpt>
      <trkpt lat="43.09085" lon="-0.09625">
        <ele>649.8</ele>
        <time>2022-02-12T08:08:36Z</time>
      </trkpt>
      <trkpt lat="43.09085" lon="-0.09625">
        <ele>650</ele>
        <time>2022-02-12T08:08:37Z</time>
      </trkpt>
      <trkpt lat="43.09085" lon="-0.09625">
        <ele>650</ele>
        <time>2022-02-12T08:08:38Z</time>
      </trkpt>
      <trkpt lat="43.09085" lon="-0.09625">
        <ele>650.2</ele>
        <time>2022-02-12T08:08:39Z</time>
      </trkpt>
      <trkpt lat="43.09085" lon="-0.09625">
        <ele>650.4</ele>
        <time>2022-02-12T08:08:40Z</time>
      </trkpt>
      <trkpt lat="43.09085" lon="-0.09625">
        <ele>650.6</ele>
        <time>2022-02-12T08:08:41Z</time>
      </trkpt>
      <trkpt lat="43.09085" lon="-0.09625">
        <ele>650.6</ele>
        <time>2022-02-12T08:08:42Z</time>
      </trkpt>
      <trkpt lat="43.09085" lon="-0.09625">
        <ele>650.8</ele>
        <time>2022-02-12T08:08:43Z</time>
      </trkpt>
      <trkpt lat="43.09085" lon="-0.09625">
        <ele>650.8</ele>
        <time>2022-02-12T08:08:44Z</time>
      </trkpt>
      <trkpt lat="43.09085" lon="-0.09625">
        <ele>651</ele>
        <time>2022-02-12T08:08:45Z</time>
      </trkpt>
      <trkpt lat="43.09085" lon="-0.09625">
        <ele>651.2</ele>
        <time>2022-02-12T08:08:46Z</time>
      </trkpt>
      <trkpt lat="43.09085" lon="-0.09625">
        <ele>651.2</ele>
        <time>2022-02-12T08:08:47Z</time>
      </trkpt>
      <trkpt lat="43.09085" lon="-0.09625">
        <ele>651.2</ele>
        <time>2022-02-12T08:08:48Z</time>
      </trkpt>
      <trkpt lat="43.09083" lon="-0.09625">
        <ele>651.4</ele>
        <time>2022-02-12T08:08:49Z</time>
      </trkpt>
      <trkpt lat="43.09083" lon="-0.09625">
        <ele>651.6</ele>
        <time>2022-02-12T08:08:50Z</time>
      </trkpt>
      <trkpt lat="43.09083" lon="-0.09625">
        <ele>651.6</ele>
        <time>2022-02-12T08:08:51Z</time>
      </trkpt>
      <trkpt lat="43.09083" lon="-0.09625">
        <ele>651.8</ele>
        <time>2022-02-12T08:08:52Z</time>
      </trkpt>
      <trkpt lat="43.09083" lon="-0.09625">
        <ele>651.8</ele>
        <time>2022-02-12T08:08:53Z</time>
      </trkpt>
      <trkpt lat="43.09083" lon="-0.09625">
        <ele>652.2</ele>
        <time>2022-02-12T08:08:54Z</time>
      </trkpt>
      <trkpt lat="43.09083" lon="-0.09625">
        <ele>652.2</ele>
        <time>2022-02-12T08:08:55Z</time>
      </trkpt>
      <trkpt lat="43.09083" lon="-0.09625">
        <ele>652.4</ele>
        <time>2022-02-12T08:08:56Z</time>
      </trkpt>
      <trkpt lat="43.09083" lon="-0.09625">
        <ele>652.4</ele>
        <time>2022-02-12T08:08:57Z</time>
      </trkpt>
      <trkpt lat="43.09083" lon="-0.09625">
        <ele>652.6</ele>
        <time>2022-02-12T08:08:58Z</time>
      </trkpt>
      <trkpt lat="43.09082" lon="-0.09626">
        <ele>652.6</ele>
        <time>2022-02-12T08:08:59Z</time>
      </trkpt>
      <trkpt lat="43.09079" lon="-0.09626">
        <ele>652.6</ele>
        <time>2022-02-12T08:09:00Z</time>
      </trkpt>
      <trkpt lat="43.09076" lon="-0.09625">
        <ele>652.6</ele>
        <time>2022-02-12T08:09:01Z</time>
      </trkpt>
      <trkpt lat="43.09074" lon="-0.09625">
        <ele>652.8</ele>
        <time>2022-02-12T08:09:02Z</time>
      </trkpt>
      <trkpt lat="43.09073" lon="-0.09625">
        <ele>652.8</ele>
        <time>2022-02-12T08:09:03Z</time>
      </trkpt>
      <trkpt lat="43.09072" lon="-0.09626">
        <ele>653</ele>
        <time>2022-02-12T08:09:04Z</time>
      </trkpt>
      <trkpt lat="43.09071" lon="-0.09626">
        <ele>653.2</ele>
        <time>2022-02-12T08:09:05Z</time>
      </trkpt>
      <trkpt lat="43.09069" lon="-0.09626">
        <ele>653.4</ele>
        <time>2022-02-12T08:09:06Z</time>
      </trkpt>
      <trkpt lat="43.09068" lon="-0.09626">
        <ele>653.4</ele>
        <time>2022-02-12T08:09:07Z</time>
      </trkpt>
      <trkpt lat="43.09067" lon="-0.09626">
        <ele>653.8</ele>
        <time>2022-02-12T08:09:08Z</time>
      </trkpt>
      <trkpt lat="43.09065" lon="-0.09626">
        <ele>653.8</ele>
        <time>2022-02-12T08:09:09Z</time>
      </trkpt>
      <trkpt lat="43.09063" lon="-0.09625">
        <ele>653.8</ele>
        <time>2022-02-12T08:09:10Z</time>
      </trkpt>
      <trkpt lat="43.09063" lon="-0.09624">
        <ele>653.8</ele>
        <time>2022-02-12T08:09:11Z</time>
      </trkpt>
      <trkpt lat="43.09061" lon="-0.09624">
        <ele>654</ele>
        <time>2022-02-12T08:09:12Z</time>
      </trkpt>
      <trkpt lat="43.09061" lon="-0.09624">
        <ele>654</ele>
        <time>2022-02-12T08:09:13Z</time>
      </trkpt>
      <trkpt lat="43.09061" lon="-0.09624">
        <ele>654</ele>
        <time>2022-02-12T08:09:14Z</time>
      </trkpt>
      <trkpt lat="43.0906" lon="-0.09623">
        <ele>654</ele>
        <time>2022-02-12T08:09:15Z</time>
      </trkpt>
      <trkpt lat="43.0906" lon="-0.09623">
        <ele>654.2</ele>
        <time>2022-02-12T08:09:16Z</time>
      </trkpt>
      <trkpt lat="43.0906" lon="-0.09623">
        <ele>654.4</ele>
        <time>2022-02-12T08:09:17Z</time>
      </trkpt>
      <trkpt lat="43.09058" lon="-0.09622">
        <ele>654.4</ele>
        <time>2022-02-12T08:09:18Z</time>
      </trkpt>
      <trkpt lat="43.09055" lon="-0.0962">
        <ele>654.6</ele>
        <time>2022-02-12T08:09:19Z</time>
      </trkpt>
      <trkpt lat="43.09054" lon="-0.09619">
        <ele>654.6</ele>
        <time>2022-02-12T08:09:20Z</time>
      </trkpt>
      <trkpt lat="43.09054" lon="-0.09618">
        <ele>654.8</ele>
        <time>2022-02-12T08:09:21Z</time>
      </trkpt>
      <trkpt lat="43.09054" lon="-0.09618">
        <ele>654.8</ele>
        <time>2022-02-12T08:09:22Z</time>
      </trkpt>
      <trkpt lat="43.09054" lon="-0.09618">
        <ele>655</ele>
        <time>2022-02-12T08:09:23Z</time>
      </trkpt>
      <trkpt lat="43.09054" lon="-0.09618">
        <ele>655.2</ele>
        <time>2022-02-12T08:09:24Z</time>
      </trkpt>
      <trkpt lat="43.09053" lon="-0.09618">
        <ele>655.4</ele>
        <time>2022-02-12T08:09:25Z</time>
      </trkpt>
      <trkpt lat="43.09053" lon="-0.09618">
        <ele>655.6</ele>
        <time>2022-02-12T08:09:26Z</time>
      </trkpt>
      <trkpt lat="43.09053" lon="-0.09618">
        <ele>655.6</ele>
        <time>2022-02-12T08:09:27Z</time>
      </trkpt>
      <trkpt lat="43.09053" lon="-0.09618">
        <ele>655.8</ele>
        <time>2022-02-12T08:09:28Z</time>
      </trkpt>
      <trkpt lat="43.09052" lon="-0.09617">
        <ele>655.8</ele>
        <time>2022-02-12T08:09:29Z</time>
      </trkpt>
      <trkpt lat="43.09053" lon="-0.09617">
        <ele>655.8</ele>
        <time>2022-02-12T08:09:30Z</time>
      </trkpt>
      <trkpt lat="43.09053" lon="-0.09617">
        <ele>656</ele>
        <time>2022-02-12T08:09:31Z</time>
      </trkpt>
      <trkpt lat="43.09053" lon="-0.09617">
        <ele>656</ele>
        <time>2022-02-12T08:09:32Z</time>
      </trkpt>
      <trkpt lat="43.09053" lon="-0.09617">
        <ele>656</ele>
        <time>2022-02-12T08:09:33Z</time>
      </trkpt>
      <trkpt lat="43.09053" lon="-0.09617">
        <ele>656.2</ele>
        <time>2022-02-12T08:09:34Z</time>
      </trkpt>
      <trkpt lat="43.09053" lon="-0.09617">
        <ele>656.2</ele>
        <time>2022-02-12T08:09:35Z</time>
      </trkpt>
      <trkpt lat="43.09053" lon="-0.09617">
        <ele>656.4</ele>
        <time>2022-02-12T08:09:36Z</time>
      </trkpt>
      <trkpt lat="43.09053" lon="-0.09617">
        <ele>656.4</ele>
        <time>2022-02-12T08:09:37Z</time>
      </trkpt>
      <trkpt lat="43.09053" lon="-0.09617">
        <ele>656.6</ele>
        <time>2022-02-12T08:09:38Z</time>
      </trkpt>
      <trkpt lat="43.09053" lon="-0.09617">
        <ele>656.6</ele>
        <time>2022-02-12T08:09:39Z</time>
      </trkpt>
      <trkpt lat="43.09053" lon="-0.09617">
        <ele>656.8</ele>
        <time>2022-02-12T08:09:40Z</time>
      </trkpt>
      <trkpt lat="43.09053" lon="-0.09617">
        <ele>656.8</ele>
        <time>2022-02-12T08:09:41Z</time>
      </trkpt>
      <trkpt lat="43.09053" lon="-0.09617">
        <ele>657.2</ele>
        <time>2022-02-12T08:09:42Z</time>
      </trkpt>
      <trkpt lat="43.09053" lon="-0.09617">
        <ele>657.2</ele>
        <time>2022-02-12T08:09:43Z</time>
      </trkpt>
      <trkpt lat="43.09053" lon="-0.09617">
        <ele>657.2</ele>
        <time>2022-02-12T08:09:44Z</time>
      </trkpt>
      <trkpt lat="43.09053" lon="-0.09617">
        <ele>657.4</ele>
        <time>2022-02-12T08:09:45Z</time>
      </trkpt>
      <trkpt lat="43.09053" lon="-0.09616">
        <ele>657.6</ele>
        <time>2022-02-12T08:09:46Z</time>
      </trkpt>
      <trkpt lat="43.09053" lon="-0.09616">
        <ele>657.6</ele>
        <time>2022-02-12T08:09:47Z</time>
      </trkpt>
      <trkpt lat="43.09053" lon="-0.09616">
        <ele>657.8</ele>
        <time>2022-02-12T08:09:48Z</time>
      </trkpt>
      <trkpt lat="43.09053" lon="-0.09616">
        <ele>657.8</ele>
        <time>2022-02-12T08:09:49Z</time>
      </trkpt>
      <trkpt lat="43.09053" lon="-0.09616">
        <ele>658</ele>
        <time>2022-02-12T08:09:50Z</time>
      </trkpt>
      <trkpt lat="43.09053" lon="-0.09616">
        <ele>658</ele>
        <time>2022-02-12T08:09:51Z</time>
      </trkpt>
      <trkpt lat="43.09053" lon="-0.09616">
        <ele>658.2</ele>
        <time>2022-02-12T08:09:52Z</time>
      </trkpt>
      <trkpt lat="43.09053" lon="-0.09616">
        <ele>658.2</ele>
        <time>2022-02-12T08:09:53Z</time>
      </trkpt>
      <trkpt lat="43.09053" lon="-0.09616">
        <ele>658.4</ele>
        <time>2022-02-12T08:09:54Z</time>
      </trkpt>
      <trkpt lat="43.09053" lon="-0.09616">
        <ele>658.4</ele>
        <time>2022-02-12T08:09:55Z</time>
      </trkpt>
      <trkpt lat="43.09053" lon="-0.09616">
        <ele>658.4</ele>
        <time>2022-02-12T08:09:56Z</time>
      </trkpt>
      <trkpt lat="43.09053" lon="-0.09616">
        <ele>658.6</ele>
        <time>2022-02-12T08:09:57Z</time>
      </trkpt>
      <trkpt lat="43.09053" lon="-0.09615">
        <ele>658.8</ele>
        <time>2022-02-12T08:09:58Z</time>
      </trkpt>
      <trkpt lat="43.09053" lon="-0.09613">
        <ele>658.8</ele>
        <time>2022-02-12T08:09:59Z</time>
      </trkpt>
      <trkpt lat="43.09053" lon="-0.09612">
        <ele>659</ele>
        <time>2022-02-12T08:10:00Z</time>
      </trkpt>
      <trkpt lat="43.09053" lon="-0.09612">
        <ele>659.2</ele>
        <time>2022-02-12T08:10:01Z</time>
      </trkpt>
      <trkpt lat="43.09053" lon="-0.09612">
        <ele>659.2</ele>
        <time>2022-02-12T08:10:02Z</time>
      </trkpt>
      <trkpt lat="43.09053" lon="-0.09611">
        <ele>659.2</ele>
        <time>2022-02-12T08:10:03Z</time>
      </trkpt>
      <trkpt lat="43.09053" lon="-0.09611">
        <ele>659.4</ele>
        <time>2022-02-12T08:10:04Z</time>
      </trkpt>
      <trkpt lat="43.09053" lon="-0.09611">
        <ele>659.4</ele>
        <time>2022-02-12T08:10:05Z</time>
      </trkpt>
      <trkpt lat="43.09053" lon="-0.09611">
        <ele>659.4</ele>
        <time>2022-02-12T08:10:06Z</time>
      </trkpt>
      <trkpt lat="43.09053" lon="-0.09611">
        <ele>659.4</ele>
        <time>2022-02-12T08:10:07Z</time>
      </trkpt>
      <trkpt lat="43.09053" lon="-0.09611">
        <ele>659.6</ele>
        <time>2022-02-12T08:10:08Z</time>
      </trkpt>
      <trkpt lat="43.09053" lon="-0.09611">
        <ele>659.8</ele>
        <time>2022-02-12T08:10:09Z</time>
      </trkpt>
      <trkpt lat="43.09053" lon="-0.0961">
        <ele>659.8</ele>
        <time>2022-02-12T08:10:10Z</time>
      </trkpt>
      <trkpt lat="43.09053" lon="-0.0961">
        <ele>659.8</ele>
        <time>2022-02-12T08:10:11Z</time>
      </trkpt>
      <trkpt lat="43.09053" lon="-0.0961">
        <ele>660</ele>
        <time>2022-02-12T08:10:12Z</time>
      </trkpt>
      <trkpt lat="43.09053" lon="-0.0961">
        <ele>660</ele>
        <time>2022-02-12T08:10:13Z</time>
      </trkpt>
      <trkpt lat="43.09053" lon="-0.0961">
        <ele>660</ele>
        <time>2022-02-12T08:10:14Z</time>
      </trkpt>
      <trkpt lat="43.09053" lon="-0.0961">
        <ele>660.2</ele>
        <time>2022-02-12T08:10:15Z</time>
      </trkpt>
      <trkpt lat="43.09053" lon="-0.09609">
        <ele>660.2</ele>
        <time>2022-02-12T08:10:16Z</time>
      </trkpt>
      <trkpt lat="43.09053" lon="-0.09609">
        <ele>660.2</ele>
        <time>2022-02-12T08:10:17Z</time>
      </trkpt>
      <trkpt lat="43.09053" lon="-0.09608">
        <ele>660.4</ele>
        <time>2022-02-12T08:10:18Z</time>
      </trkpt>
      <trkpt lat="43.09053" lon="-0.09608">
        <ele>660.4</ele>
        <time>2022-02-12T08:10:19Z</time>
      </trkpt>
      <trkpt lat="43.09053" lon="-0.09608">
        <ele>660.4</ele>
        <time>2022-02-12T08:10:20Z</time>
      </trkpt>
      <trkpt lat="43.09053" lon="-0.09608">
        <ele>660.6</ele>
        <time>2022-02-12T08:10:21Z</time>
      </trkpt>
      <trkpt lat="43.09053" lon="-0.09608">
        <ele>660.6</ele>
        <time>2022-02-12T08:10:22Z</time>
      </trkpt>
      <trkpt lat="43.09053" lon="-0.09608">
        <ele>660.6</ele>
        <time>2022-02-12T08:10:23Z</time>
      </trkpt>
      <trkpt lat="43.09053" lon="-0.09608">
        <ele>660.8</ele>
        <time>2022-02-12T08:10:24Z</time>
      </trkpt>
      <trkpt lat="43.09053" lon="-0.09608">
        <ele>660.8</ele>
        <time>2022-02-12T08:10:25Z</time>
      </trkpt>
      <trkpt lat="43.09053" lon="-0.09608">
        <ele>660.8</ele>
        <time>2022-02-12T08:10:26Z</time>
      </trkpt>
      <trkpt lat="43.09053" lon="-0.09608">
        <ele>660.8</ele>
        <time>2022-02-12T08:10:27Z</time>
      </trkpt>
      <trkpt lat="43.09053" lon="-0.09608">
        <ele>661.2</ele>
        <time>2022-02-12T08:10:28Z</time>
      </trkpt>
      <trkpt lat="43.09053" lon="-0.09608">
        <ele>661.2</ele>
        <time>2022-02-12T08:10:29Z</time>
      </trkpt>
      <trkpt lat="43.09053" lon="-0.09608">
        <ele>661.2</ele>
        <time>2022-02-12T08:10:30Z</time>
      </trkpt>
      <trkpt lat="43.09053" lon="-0.09608">
        <ele>661.2</ele>
        <time>2022-02-12T08:10:31Z</time>
      </trkpt>
      <trkpt lat="43.09053" lon="-0.09608">
        <ele>661.2</ele>
        <time>2022-02-12T08:10:32Z</time>
      </trkpt>
      <trkpt lat="43.09053" lon="-0.09608">
        <ele>661.2</ele>
        <time>2022-02-12T08:10:33Z</time>
      </trkpt>
      <trkpt lat="43.09053" lon="-0.09607">
        <ele>661.2</ele>
        <time>2022-02-12T08:10:34Z</time>
      </trkpt>
      <trkpt lat="43.09053" lon="-0.09607">
        <ele>661.2</ele>
        <time>2022-02-12T08:10:35Z</time>
      </trkpt>
      <trkpt lat="43.09053" lon="-0.09607">
        <ele>661.2</ele>
        <time>2022-02-12T08:10:36Z</time>
      </trkpt>
      <trkpt lat="43.09053" lon="-0.09607">
        <ele>661.2</ele>
        <time>2022-02-12T08:10:37Z</time>
      </trkpt>
      <trkpt lat="43.09053" lon="-0.09607">
        <ele>661.4</ele>
        <time>2022-02-12T08:10:38Z</time>
      </trkpt>
      <trkpt lat="43.09053" lon="-0.09607">
        <ele>661.4</ele>
        <time>2022-02-12T08:10:39Z</time>
      </trkpt>
      <trkpt lat="43.09053" lon="-0.09607">
        <ele>661.4</ele>
        <time>2022-02-12T08:10:40Z</time>
      </trkpt>
      <trkpt lat="43.09053" lon="-0.09607">
        <ele>661.8</ele>
        <time>2022-02-12T08:10:41Z</time>
      </trkpt>
      <trkpt lat="43.09053" lon="-0.09607">
        <ele>661.8</ele>
        <time>2022-02-12T08:10:42Z</time>
      </trkpt>
      <trkpt lat="43.09053" lon="-0.09607">
        <ele>661.8</ele>
        <time>2022-02-12T08:10:43Z</time>
      </trkpt>
      <trkpt lat="43.09053" lon="-0.09607">
        <ele>662</ele>
        <time>2022-02-12T08:10:44Z</time>
      </trkpt>
      <trkpt lat="43.09053" lon="-0.09607">
        <ele>662</ele>
        <time>2022-02-12T08:10:45Z</time>
      </trkpt>
      <trkpt lat="43.09053" lon="-0.09607">
        <ele>662</ele>
        <time>2022-02-12T08:10:46Z</time>
      </trkpt>
      <trkpt lat="43.09053" lon="-0.09607">
        <ele>662.2</ele>
        <time>2022-02-12T08:10:47Z</time>
      </trkpt>
      <trkpt lat="43.09053" lon="-0.09606">
        <ele>662.2</ele>
        <time>2022-02-12T08:10:48Z</time>
      </trkpt>
      <trkpt lat="43.09053" lon="-0.09606">
        <ele>662.2</ele>
        <time>2022-02-12T08:10:49Z</time>
      </trkpt>
      <trkpt lat="43.09053" lon="-0.09606">
        <ele>662.2</ele>
        <time>2022-02-12T08:10:50Z</time>
      </trkpt>
      <trkpt lat="43.09053" lon="-0.09606">
        <ele>662.4</ele>
        <time>2022-02-12T08:10:51Z</time>
      </trkpt>
      <trkpt lat="43.09053" lon="-0.09606">
        <ele>662.4</ele>
        <time>2022-02-12T08:10:52Z</time>
      </trkpt>
      <trkpt lat="43.09053" lon="-0.09606">
        <ele>662.4</ele>
        <time>2022-02-12T08:10:53Z</time>
      </trkpt>
      <trkpt lat="43.09053" lon="-0.09606">
        <ele>662.6</ele>
        <time>2022-02-12T08:10:54Z</time>
      </trkpt>
      <trkpt lat="43.09053" lon="-0.09606">
        <ele>662.8</ele>
        <time>2022-02-12T08:10:55Z</time>
      </trkpt>
      <trkpt lat="43.09053" lon="-0.09604">
        <ele>662.8</ele>
        <time>2022-02-12T08:10:56Z</time>
      </trkpt>
      <trkpt lat="43.09053" lon="-0.09604">
        <ele>663</ele>
        <time>2022-02-12T08:10:57Z</time>
      </trkpt>
      <trkpt lat="43.09053" lon="-0.09603">
        <ele>663</ele>
        <time>2022-02-12T08:10:58Z</time>
      </trkpt>
      <trkpt lat="43.09053" lon="-0.09603">
        <ele>663.2</ele>
        <time>2022-02-12T08:10:59Z</time>
      </trkpt>
      <trkpt lat="43.09053" lon="-0.09603">
        <ele>663.4</ele>
        <time>2022-02-12T08:11:00Z</time>
      </trkpt>
      <trkpt lat="43.09053" lon="-0.09603">
        <ele>663.6</ele>
        <time>2022-02-12T08:11:01Z</time>
      </trkpt>
      <trkpt lat="43.09053" lon="-0.09603">
        <ele>663.6</ele>
        <time>2022-02-12T08:11:02Z</time>
      </trkpt>
      <trkpt lat="43.09053" lon="-0.09603">
        <ele>663.6</ele>
        <time>2022-02-12T08:11:03Z</time>
      </trkpt>
      <trkpt lat="43.09053" lon="-0.09602">
        <ele>663.6</ele>
        <time>2022-02-12T08:11:04Z</time>
      </trkpt>
      <trkpt lat="43.09053" lon="-0.09602">
        <ele>663.8</ele>
        <time>2022-02-12T08:11:05Z</time>
      </trkpt>
      <trkpt lat="43.09053" lon="-0.09602">
        <ele>663.8</ele>
        <time>2022-02-12T08:11:06Z</time>
      </trkpt>
      <trkpt lat="43.09053" lon="-0.09602">
        <ele>663.8</ele>
        <time>2022-02-12T08:11:07Z</time>
      </trkpt>
      <trkpt lat="43.09053" lon="-0.09602">
        <ele>663.8</ele>
        <time>2022-02-12T08:11:08Z</time>
      </trkpt>
      <trkpt lat="43.09053" lon="-0.09602">
        <ele>664</ele>
        <time>2022-02-12T08:11:09Z</time>
      </trkpt>
      <trkpt lat="43.09053" lon="-0.09602">
        <ele>664.2</ele>
        <time>2022-02-12T08:11:10Z</time>
      </trkpt>
      <trkpt lat="43.09053" lon="-0.09602">
        <ele>664.2</ele>
        <time>2022-02-12T08:11:11Z</time>
      </trkpt>
      <trkpt lat="43.09053" lon="-0.09602">
        <ele>664.2</ele>
        <time>2022-02-12T08:11:12Z</time>
      </trkpt>
      <trkpt lat="43.09053" lon="-0.09602">
        <ele>664.2</ele>
        <time>2022-02-12T08:11:13Z</time>
      </trkpt>
      <trkpt lat="43.09053" lon="-0.09602">
        <ele>664.2</ele>
        <time>2022-02-12T08:11:14Z</time>
      </trkpt>
      <trkpt lat="43.09053" lon="-0.09602">
        <ele>664.4</ele>
        <time>2022-02-12T08:11:15Z</time>
      </trkpt>
      <trkpt lat="43.09053" lon="-0.09601">
        <ele>664.4</ele>
        <time>2022-02-12T08:11:16Z</time>
      </trkpt>
      <trkpt lat="43.09053" lon="-0.096">
        <ele>664.4</ele>
        <time>2022-02-12T08:11:17Z</time>
      </trkpt>
      <trkpt lat="43.09053" lon="-0.09598">
        <ele>664.4</ele>
        <time>2022-02-12T08:11:18Z</time>
      </trkpt>
      <trkpt lat="43.09053" lon="-0.09598">
        <ele>664.4</ele>
        <time>2022-02-12T08:11:19Z</time>
      </trkpt>
      <trkpt lat="43.09053" lon="-0.09598">
        <ele>664.4</ele>
        <time>2022-02-12T08:11:20Z</time>
      </trkpt>
      <trkpt lat="43.09053" lon="-0.09598">
        <ele>664.4</ele>
        <time>2022-02-12T08:11:21Z</time>
      </trkpt>
      <trkpt lat="43.09053" lon="-0.09598">
        <ele>664.4</ele>
        <time>2022-02-12T08:11:22Z</time>
      </trkpt>
      <trkpt lat="43.09053" lon="-0.09598">
        <ele>664.4</ele>
        <time>2022-02-12T08:11:23Z</time>
      </trkpt>
      <trkpt lat="43.09053" lon="-0.09598">
        <ele>664.4</ele>
        <time>2022-02-12T08:11:24Z</time>
      </trkpt>
      <trkpt lat="43.09053" lon="-0.09597">
        <ele>664.6</ele>
        <time>2022-02-12T08:11:25Z</time>
      </trkpt>
      <trkpt lat="43.09053" lon="-0.09594">
        <ele>664.6</ele>
        <time>2022-02-12T08:11:26Z</time>
      </trkpt>
      <trkpt lat="43.09053" lon="-0.09593">
        <ele>664.6</ele>
        <time>2022-02-12T08:11:27Z</time>
      </trkpt>
      <trkpt lat="43.09053" lon="-0.09593">
        <ele>664.6</ele>
        <time>2022-02-12T08:11:28Z</time>
      </trkpt>
      <trkpt lat="43.09053" lon="-0.09593">
        <ele>664.6</ele>
        <time>2022-02-12T08:11:29Z</time>
      </trkpt>
      <trkpt lat="43.09053" lon="-0.09593">
        <ele>664.8</ele>
        <time>2022-02-12T08:11:30Z</time>
      </trkpt>
      <trkpt lat="43.09053" lon="-0.09593">
        <ele>665</ele>
        <time>2022-02-12T08:11:31Z</time>
      </trkpt>
      <trkpt lat="43.09052" lon="-0.09592">
        <ele>665</ele>
        <time>2022-02-12T08:11:32Z</time>
      </trkpt>
      <trkpt lat="43.09052" lon="-0.09592">
        <ele>665.2</ele>
        <time>2022-02-12T08:11:33Z</time>
      </trkpt>
      <trkpt lat="43.09052" lon="-0.09592">
        <ele>665.2</ele>
        <time>2022-02-12T08:11:34Z</time>
      </trkpt>
      <trkpt lat="43.09052" lon="-0.09592">
        <ele>665.6</ele>
        <time>2022-02-12T08:11:35Z</time>
      </trkpt>
      <trkpt lat="43.09052" lon="-0.09592">
        <ele>665.6</ele>
        <time>2022-02-12T08:11:36Z</time>
      </trkpt>
      <trkpt lat="43.09052" lon="-0.09591">
        <ele>665.8</ele>
        <time>2022-02-12T08:11:37Z</time>
      </trkpt>
      <trkpt lat="43.09051" lon="-0.09587">
        <ele>665.8</ele>
        <time>2022-02-12T08:11:38Z</time>
      </trkpt>
      <trkpt lat="43.0905" lon="-0.09582">
        <ele>666</ele>
        <time>2022-02-12T08:11:39Z</time>
      </trkpt>
      <trkpt lat="43.0905" lon="-0.0958">
        <ele>666.2</ele>
        <time>2022-02-12T08:11:40Z</time>
      </trkpt>
      <trkpt lat="43.09049" lon="-0.09578">
        <ele>666.4</ele>
        <time>2022-02-12T08:11:41Z</time>
      </trkpt>
      <trkpt lat="43.09049" lon="-0.09577">
        <ele>666.6</ele>
        <time>2022-02-12T08:11:42Z</time>
      </trkpt>
      <trkpt lat="43.09049" lon="-0.09575">
        <ele>666.8</ele>
        <time>2022-02-12T08:11:43Z</time>
      </trkpt>
      <trkpt lat="43.09049" lon="-0.09573">
        <ele>666.8</ele>
        <time>2022-02-12T08:11:44Z</time>
      </trkpt>
      <trkpt lat="43.09048" lon="-0.09572">
        <ele>667</ele>
        <time>2022-02-12T08:11:45Z</time>
      </trkpt>
      <trkpt lat="43.09048" lon="-0.0957">
        <ele>667</ele>
        <time>2022-02-12T08:11:46Z</time>
      </trkpt>
      <trkpt lat="43.09048" lon="-0.0957">
        <ele>667</ele>
        <time>2022-02-12T08:11:47Z</time>
      </trkpt>
      <trkpt lat="43.09048" lon="-0.09569">
        <ele>667</ele>
        <time>2022-02-12T08:11:48Z</time>
      </trkpt>
      <trkpt lat="43.09047" lon="-0.09569">
        <ele>667.2</ele>
        <time>2022-02-12T08:11:49Z</time>
      </trkpt>
      <trkpt lat="43.09047" lon="-0.09569">
        <ele>667.2</ele>
        <time>2022-02-12T08:11:50Z</time>
      </trkpt>
      <trkpt lat="43.09047" lon="-0.09568">
        <ele>667.2</ele>
        <time>2022-02-12T08:11:51Z</time>
      </trkpt>
      <trkpt lat="43.09047" lon="-0.09568">
        <ele>667.2</ele>
        <time>2022-02-12T08:11:52Z</time>
      </trkpt>
      <trkpt lat="43.09047" lon="-0.09568">
        <ele>667.2</ele>
        <time>2022-02-12T08:11:53Z</time>
      </trkpt>
      <trkpt lat="43.09047" lon="-0.09568">
        <ele>667.4</ele>
        <time>2022-02-12T08:11:54Z</time>
      </trkpt>
      <trkpt lat="43.09047" lon="-0.09568">
        <ele>667.4</ele>
        <time>2022-02-12T08:11:55Z</time>
      </trkpt>
      <trkpt lat="43.09047" lon="-0.09568">
        <ele>667.4</ele>
        <time>2022-02-12T08:11:56Z</time>
      </trkpt>
      <trkpt lat="43.09047" lon="-0.09568">
        <ele>667.4</ele>
        <time>2022-02-12T08:11:57Z</time>
      </trkpt>
      <trkpt lat="43.09047" lon="-0.09568">
        <ele>667.6</ele>
        <time>2022-02-12T08:11:58Z</time>
      </trkpt>
      <trkpt lat="43.09047" lon="-0.09568">
        <ele>667.8</ele>
        <time>2022-02-12T08:11:59Z</time>
      </trkpt>
      <trkpt lat="43.09047" lon="-0.09568">
        <ele>668</ele>
        <time>2022-02-12T08:12:00Z</time>
      </trkpt>
      <trkpt lat="43.09047" lon="-0.09568">
        <ele>668.2</ele>
        <time>2022-02-12T08:12:01Z</time>
      </trkpt>
      <trkpt lat="43.09047" lon="-0.09568">
        <ele>668.4</ele>
        <time>2022-02-12T08:12:02Z</time>
      </trkpt>
      <trkpt lat="43.09047" lon="-0.09568">
        <ele>668.6</ele>
        <time>2022-02-12T08:12:03Z</time>
      </trkpt>
      <trkpt lat="43.09047" lon="-0.09568">
        <ele>668.6</ele>
        <time>2022-02-12T08:12:04Z</time>
      </trkpt>
      <trkpt lat="43.09047" lon="-0.09568">
        <ele>668.8</ele>
        <time>2022-02-12T08:12:05Z</time>
      </trkpt>
      <trkpt lat="43.09047" lon="-0.09568">
        <ele>669</ele>
        <time>2022-02-12T08:12:06Z</time>
      </trkpt>
      <trkpt lat="43.09047" lon="-0.09568">
        <ele>669</ele>
        <time>2022-02-12T08:12:07Z</time>
      </trkpt>
      <trkpt lat="43.09047" lon="-0.09568">
        <ele>669.2</ele>
        <time>2022-02-12T08:12:08Z</time>
      </trkpt>
      <trkpt lat="43.09047" lon="-0.09568">
        <ele>669.2</ele>
        <time>2022-02-12T08:12:09Z</time>
      </trkpt>
      <trkpt lat="43.09047" lon="-0.09567">
        <ele>669.4</ele>
        <time>2022-02-12T08:12:10Z</time>
      </trkpt>
      <trkpt lat="43.09047" lon="-0.09567">
        <ele>669.4</ele>
        <time>2022-02-12T08:12:11Z</time>
      </trkpt>
      <trkpt lat="43.09047" lon="-0.09567">
        <ele>669.6</ele>
        <time>2022-02-12T08:12:12Z</time>
      </trkpt>
      <trkpt lat="43.09047" lon="-0.09567">
        <ele>669.6</ele>
        <time>2022-02-12T08:12:13Z</time>
      </trkpt>
      <trkpt lat="43.09046" lon="-0.09566">
        <ele>669.6</ele>
        <time>2022-02-12T08:12:14Z</time>
      </trkpt>
      <trkpt lat="43.09046" lon="-0.09566">
        <ele>669.8</ele>
        <time>2022-02-12T08:12:15Z</time>
      </trkpt>
      <trkpt lat="43.09046" lon="-0.09566">
        <ele>670</ele>
        <time>2022-02-12T08:12:16Z</time>
      </trkpt>
      <trkpt lat="43.09046" lon="-0.09565">
        <ele>670</ele>
        <time>2022-02-12T08:12:17Z</time>
      </trkpt>
      <trkpt lat="43.09044" lon="-0.09565">
        <ele>670</ele>
        <time>2022-02-12T08:12:18Z</time>
      </trkpt>
      <trkpt lat="43.09043" lon="-0.09565">
        <ele>670.2</ele>
        <time>2022-02-12T08:12:19Z</time>
      </trkpt>
      <trkpt lat="43.09042" lon="-0.09565">
        <ele>670.4</ele>
        <time>2022-02-12T08:12:20Z</time>
      </trkpt>
      <trkpt lat="43.09042" lon="-0.09564">
        <ele>670.4</ele>
        <time>2022-02-12T08:12:21Z</time>
      </trkpt>
      <trkpt lat="43.09042" lon="-0.09564">
        <ele>670.6</ele>
        <time>2022-02-12T08:12:22Z</time>
      </trkpt>
      <trkpt lat="43.09042" lon="-0.09564">
        <ele>670.6</ele>
        <time>2022-02-12T08:12:23Z</time>
      </trkpt>
      <trkpt lat="43.09042" lon="-0.09564">
        <ele>671</ele>
        <time>2022-02-12T08:12:24Z</time>
      </trkpt>
      <trkpt lat="43.09042" lon="-0.09564">
        <ele>671</ele>
        <time>2022-02-12T08:12:25Z</time>
      </trkpt>
      <trkpt lat="43.09042" lon="-0.09564">
        <ele>671</ele>
        <time>2022-02-12T08:12:26Z</time>
      </trkpt>
      <trkpt lat="43.09042" lon="-0.09564">
        <ele>671</ele>
        <time>2022-02-12T08:12:27Z</time>
      </trkpt>
      <trkpt lat="43.09042" lon="-0.09563">
        <ele>671.2</ele>
        <time>2022-02-12T08:12:28Z</time>
      </trkpt>
      <trkpt lat="43.09042" lon="-0.09563">
        <ele>671.2</ele>
        <time>2022-02-12T08:12:29Z</time>
      </trkpt>
      <trkpt lat="43.09042" lon="-0.09563">
        <ele>671.2</ele>
        <time>2022-02-12T08:12:30Z</time>
      </trkpt>
      <trkpt lat="43.09042" lon="-0.09563">
        <ele>671.2</ele>
        <time>2022-02-12T08:12:31Z</time>
      </trkpt>
      <trkpt lat="43.09042" lon="-0.09563">
        <ele>671.2</ele>
        <time>2022-02-12T08:12:32Z</time>
      </trkpt>
      <trkpt lat="43.09042" lon="-0.09563">
        <ele>671.2</ele>
        <time>2022-02-12T08:12:33Z</time>
      </trkpt>
      <trkpt lat="43.09042" lon="-0.09563">
        <ele>671.2</ele>
        <time>2022-02-12T08:12:34Z</time>
      </trkpt>
      <trkpt lat="43.09042" lon="-0.09563">
        <ele>671.2</ele>
        <time>2022-02-12T08:12:35Z</time>
      </trkpt>
      <trkpt lat="43.09042" lon="-0.09563">
        <ele>671.2</ele>
        <time>2022-02-12T08:12:36Z</time>
      </trkpt>
      <trkpt lat="43.09042" lon="-0.09563">
        <ele>671.4</ele>
        <time>2022-02-12T08:12:37Z</time>
      </trkpt>
      <trkpt lat="43.09042" lon="-0.09563">
        <ele>671.4</ele>
        <time>2022-02-12T08:12:38Z</time>
      </trkpt>
      <trkpt lat="43.09042" lon="-0.09563">
        <ele>671.4</ele>
        <time>2022-02-12T08:12:39Z</time>
      </trkpt>
      <trkpt lat="43.09041" lon="-0.09563">
        <ele>671.4</ele>
        <time>2022-02-12T08:12:40Z</time>
      </trkpt>
      <trkpt lat="43.0904" lon="-0.09564">
        <ele>671.6</ele>
        <time>2022-02-12T08:12:41Z</time>
      </trkpt>
      <trkpt lat="43.09038" lon="-0.09564">
        <ele>671.6</ele>
        <time>2022-02-12T08:12:42Z</time>
      </trkpt>
      <trkpt lat="43.09038" lon="-0.09564">
        <ele>671.8</ele>
        <time>2022-02-12T08:12:43Z</time>
      </trkpt>
      <trkpt lat="43.09038" lon="-0.09564">
        <ele>671.8</ele>
        <time>2022-02-12T08:12:44Z</time>
      </trkpt>
      <trkpt lat="43.09038" lon="-0.09564">
        <ele>672</ele>
        <time>2022-02-12T08:12:45Z</time>
      </trkpt>
      <trkpt lat="43.09038" lon="-0.09564">
        <ele>672.2</ele>
        <time>2022-02-12T08:12:46Z</time>
      </trkpt>
      <trkpt lat="43.09038" lon="-0.09564">
        <ele>672.2</ele>
        <time>2022-02-12T08:12:47Z</time>
      </trkpt>
      <trkpt lat="43.09038" lon="-0.09564">
        <ele>672.4</ele>
        <time>2022-02-12T08:12:48Z</time>
      </trkpt>
      <trkpt lat="43.09037" lon="-0.09564">
        <ele>672.4</ele>
        <time>2022-02-12T08:12:49Z</time>
      </trkpt>
      <trkpt lat="43.09037" lon="-0.09564">
        <ele>672.4</ele>
        <time>2022-02-12T08:12:50Z</time>
      </trkpt>
      <trkpt lat="43.09037" lon="-0.09564">
        <ele>672.4</ele>
        <time>2022-02-12T08:12:51Z</time>
      </trkpt>
      <trkpt lat="43.09037" lon="-0.09564">
        <ele>672.4</ele>
        <time>2022-02-12T08:12:52Z</time>
      </trkpt>
      <trkpt lat="43.09037" lon="-0.09564">
        <ele>672.6</ele>
        <time>2022-02-12T08:12:53Z</time>
      </trkpt>
      <trkpt lat="43.09037" lon="-0.09564">
        <ele>672.6</ele>
        <time>2022-02-12T08:12:54Z</time>
      </trkpt>
      <trkpt lat="43.09037" lon="-0.09564">
        <ele>672.6</ele>
        <time>2022-02-12T08:12:55Z</time>
      </trkpt>
      <trkpt lat="43.09037" lon="-0.09565">
        <ele>672.8</ele>
        <time>2022-02-12T08:12:56Z</time>
      </trkpt>
      <trkpt lat="43.09036" lon="-0.09565">
        <ele>672.8</ele>
        <time>2022-02-12T08:12:57Z</time>
      </trkpt>
      <trkpt lat="43.09036" lon="-0.09565">
        <ele>672.8</ele>
        <time>2022-02-12T08:12:58Z</time>
      </trkpt>
      <trkpt lat="43.09036" lon="-0.09565">
        <ele>673.2</ele>
        <time>2022-02-12T08:12:59Z</time>
      </trkpt>
      <trkpt lat="43.09035" lon="-0.09565">
        <ele>673.2</ele>
        <time>2022-02-12T08:13:00Z</time>
      </trkpt>
      <trkpt lat="43.09034" lon="-0.09566">
        <ele>673.4</ele>
        <time>2022-02-12T08:13:01Z</time>
      </trkpt>
      <trkpt lat="43.09034" lon="-0.09566">
        <ele>673.6</ele>
        <time>2022-02-12T08:13:02Z</time>
      </trkpt>
      <trkpt lat="43.09034" lon="-0.09566">
        <ele>673.8</ele>
        <time>2022-02-12T08:13:03Z</time>
      </trkpt>
      <trkpt lat="43.09034" lon="-0.09566">
        <ele>673.8</ele>
        <time>2022-02-12T08:13:04Z</time>
      </trkpt>
      <trkpt lat="43.09034" lon="-0.09566">
        <ele>673.8</ele>
        <time>2022-02-12T08:13:05Z</time>
      </trkpt>
      <trkpt lat="43.09034" lon="-0.09566">
        <ele>674</ele>
        <time>2022-02-12T08:13:06Z</time>
      </trkpt>
      <trkpt lat="43.09034" lon="-0.09566">
        <ele>674</ele>
        <time>2022-02-12T08:13:07Z</time>
      </trkpt>
      <trkpt lat="43.09034" lon="-0.09566">
        <ele>674.2</ele>
        <time>2022-02-12T08:13:08Z</time>
      </trkpt>
      <trkpt lat="43.09033" lon="-0.09566">
        <ele>674.2</ele>
        <time>2022-02-12T08:13:09Z</time>
      </trkpt>
      <trkpt lat="43.09033" lon="-0.09566">
        <ele>674.4</ele>
        <time>2022-02-12T08:13:10Z</time>
      </trkpt>
      <trkpt lat="43.09032" lon="-0.09566">
        <ele>674.4</ele>
        <time>2022-02-12T08:13:11Z</time>
      </trkpt>
      <trkpt lat="43.09032" lon="-0.09566">
        <ele>674.6</ele>
        <time>2022-02-12T08:13:12Z</time>
      </trkpt>
      <trkpt lat="43.09032" lon="-0.09567">
        <ele>674.6</ele>
        <time>2022-02-12T08:13:13Z</time>
      </trkpt>
      <trkpt lat="43.09031" lon="-0.09567">
        <ele>674.8</ele>
        <time>2022-02-12T08:13:14Z</time>
      </trkpt>
      <trkpt lat="43.0903" lon="-0.09568">
        <ele>674.8</ele>
        <time>2022-02-12T08:13:15Z</time>
      </trkpt>
      <trkpt lat="43.0903" lon="-0.09568">
        <ele>675</ele>
        <time>2022-02-12T08:13:16Z</time>
      </trkpt>
      <trkpt lat="43.0903" lon="-0.09568">
        <ele>675</ele>
        <time>2022-02-12T08:13:17Z</time>
      </trkpt>
      <trkpt lat="43.09029" lon="-0.09568">
        <ele>675.2</ele>
        <time>2022-02-12T08:13:18Z</time>
      </trkpt>
      <trkpt lat="43.09029" lon="-0.09568">
        <ele>675.4</ele>
        <time>2022-02-12T08:13:19Z</time>
      </trkpt>
      <trkpt lat="43.09029" lon="-0.09568">
        <ele>675.4</ele>
        <time>2022-02-12T08:13:20Z</time>
      </trkpt>
      <trkpt lat="43.09029" lon="-0.09568">
        <ele>675.6</ele>
        <time>2022-02-12T08:13:21Z</time>
      </trkpt>
      <trkpt lat="43.09029" lon="-0.09568">
        <ele>675.6</ele>
        <time>2022-02-12T08:13:22Z</time>
      </trkpt>
      <trkpt lat="43.09028" lon="-0.09569">
        <ele>675.8</ele>
        <time>2022-02-12T08:13:23Z</time>
      </trkpt>
      <trkpt lat="43.09028" lon="-0.09569">
        <ele>676</ele>
        <time>2022-02-12T08:13:24Z</time>
      </trkpt>
      <trkpt lat="43.09028" lon="-0.09569">
        <ele>676</ele>
        <time>2022-02-12T08:13:25Z</time>
      </trkpt>
      <trkpt lat="43.09028" lon="-0.09569">
        <ele>676.2</ele>
        <time>2022-02-12T08:13:26Z</time>
      </trkpt>
      <trkpt lat="43.09027" lon="-0.09569">
        <ele>676.4</ele>
        <time>2022-02-12T08:13:27Z</time>
      </trkpt>
      <trkpt lat="43.09027" lon="-0.09569">
        <ele>676.4</ele>
        <time>2022-02-12T08:13:28Z</time>
      </trkpt>
      <trkpt lat="43.09027" lon="-0.09569">
        <ele>676.6</ele>
        <time>2022-02-12T08:13:29Z</time>
      </trkpt>
      <trkpt lat="43.09027" lon="-0.09569">
        <ele>676.6</ele>
        <time>2022-02-12T08:13:30Z</time>
      </trkpt>
      <trkpt lat="43.09027" lon="-0.09569">
        <ele>676.8</ele>
        <time>2022-02-12T08:13:31Z</time>
      </trkpt>
      <trkpt lat="43.09026" lon="-0.09569">
        <ele>676.8</ele>
        <time>2022-02-12T08:13:32Z</time>
      </trkpt>
      <trkpt lat="43.09026" lon="-0.09568">
        <ele>677</ele>
        <time>2022-02-12T08:13:33Z</time>
      </trkpt>
      <trkpt lat="43.09026" lon="-0.09568">
        <ele>677.2</ele>
        <time>2022-02-12T08:13:34Z</time>
      </trkpt>
      <trkpt lat="43.09026" lon="-0.09568">
        <ele>677.2</ele>
        <time>2022-02-12T08:13:35Z</time>
      </trkpt>
      <trkpt lat="43.09026" lon="-0.09568">
        <ele>677.4</ele>
        <time>2022-02-12T08:13:36Z</time>
      </trkpt>
      <trkpt lat="43.09026" lon="-0.09568">
        <ele>677.6</ele>
        <time>2022-02-12T08:13:37Z</time>
      </trkpt>
      <trkpt lat="43.09026" lon="-0.09568">
        <ele>677.8</ele>
        <time>2022-02-12T08:13:38Z</time>
      </trkpt>
      <trkpt lat="43.09026" lon="-0.09568">
        <ele>677.8</ele>
        <time>2022-02-12T08:13:39Z</time>
      </trkpt>
      <trkpt lat="43.0902" lon="-0.09568">
        <ele>678</ele>
        <time>2022-02-12T08:13:40Z</time>
      </trkpt>
      <trkpt lat="43.0902" lon="-0.09568">
        <ele>678.2</ele>
        <time>2022-02-12T08:13:41Z</time>
      </trkpt>
      <trkpt lat="43.0902" lon="-0.09568">
        <ele>678.2</ele>
        <time>2022-02-12T08:13:42Z</time>
      </trkpt>
      <trkpt lat="43.0902" lon="-0.09568">
        <ele>678.4</ele>
        <time>2022-02-12T08:13:43Z</time>
      </trkpt>
      <trkpt lat="43.0902" lon="-0.09568">
        <ele>678.6</ele>
        <time>2022-02-12T08:13:44Z</time>
      </trkpt>
      <trkpt lat="43.0902" lon="-0.09568">
        <ele>678.6</ele>
        <time>2022-02-12T08:13:45Z</time>
      </trkpt>
      <trkpt lat="43.09019" lon="-0.09568">
        <ele>678.8</ele>
        <time>2022-02-12T08:13:46Z</time>
      </trkpt>
      <trkpt lat="43.09019" lon="-0.09567">
        <ele>679</ele>
        <time>2022-02-12T08:13:47Z</time>
      </trkpt>
      <trkpt lat="43.09019" lon="-0.09567">
        <ele>679.2</ele>
        <time>2022-02-12T08:13:48Z</time>
      </trkpt>
      <trkpt lat="43.09019" lon="-0.09567">
        <ele>679.2</ele>
        <time>2022-02-12T08:13:49Z</time>
      </trkpt>
      <trkpt lat="43.09019" lon="-0.09567">
        <ele>679.2</ele>
        <time>2022-02-12T08:13:50Z</time>
      </trkpt>
      <trkpt lat="43.09019" lon="-0.09566">
        <ele>679.2</ele>
        <time>2022-02-12T08:13:51Z</time>
      </trkpt>
      <trkpt lat="43.09019" lon="-0.09566">
        <ele>679.4</ele>
        <time>2022-02-12T08:13:52Z</time>
      </trkpt>
      <trkpt lat="43.09019" lon="-0.09566">
        <ele>679.4</ele>
        <time>2022-02-12T08:13:53Z</time>
      </trkpt>
      <trkpt lat="43.09019" lon="-0.09566">
        <ele>679.4</ele>
        <time>2022-02-12T08:13:54Z</time>
      </trkpt>
      <trkpt lat="43.09019" lon="-0.09565">
        <ele>679.4</ele>
        <time>2022-02-12T08:13:55Z</time>
      </trkpt>
      <trkpt lat="43.09019" lon="-0.09564">
        <ele>679.4</ele>
        <time>2022-02-12T08:13:56Z</time>
      </trkpt>
      <trkpt lat="43.09019" lon="-0.09564">
        <ele>679.4</ele>
        <time>2022-02-12T08:13:57Z</time>
      </trkpt>
      <trkpt lat="43.09019" lon="-0.09564">
        <ele>679.4</ele>
        <time>2022-02-12T08:13:58Z</time>
      </trkpt>
      <trkpt lat="43.09019" lon="-0.09564">
        <ele>679.4</ele>
        <time>2022-02-12T08:13:59Z</time>
      </trkpt>
      <trkpt lat="43.09019" lon="-0.09564">
        <ele>679.6</ele>
        <time>2022-02-12T08:14:00Z</time>
      </trkpt>
      <trkpt lat="43.09019" lon="-0.09564">
        <ele>679.6</ele>
        <time>2022-02-12T08:14:01Z</time>
      </trkpt>
      <trkpt lat="43.09019" lon="-0.09564">
        <ele>679.8</ele>
        <time>2022-02-12T08:14:02Z</time>
      </trkpt>
      <trkpt lat="43.09019" lon="-0.09564">
        <ele>679.8</ele>
        <time>2022-02-12T08:14:03Z</time>
      </trkpt>
      <trkpt lat="43.09019" lon="-0.09564">
        <ele>679.8</ele>
        <time>2022-02-12T08:14:04Z</time>
      </trkpt>
      <trkpt lat="43.09019" lon="-0.09564">
        <ele>680</ele>
        <time>2022-02-12T08:14:05Z</time>
      </trkpt>
      <trkpt lat="43.09019" lon="-0.09564">
        <ele>680.2</ele>
        <time>2022-02-12T08:14:06Z</time>
      </trkpt>
      <trkpt lat="43.09019" lon="-0.09564">
        <ele>680.2</ele>
        <time>2022-02-12T08:14:07Z</time>
      </trkpt>
      <trkpt lat="43.09019" lon="-0.09563">
        <ele>680.2</ele>
        <time>2022-02-12T08:14:08Z</time>
      </trkpt>
      <trkpt lat="43.09019" lon="-0.09563">
        <ele>680.4</ele>
        <time>2022-02-12T08:14:09Z</time>
      </trkpt>
      <trkpt lat="43.09019" lon="-0.09563">
        <ele>680.6</ele>
        <time>2022-02-12T08:14:10Z</time>
      </trkpt>
      <trkpt lat="43.09019" lon="-0.09563">
        <ele>680.8</ele>
        <time>2022-02-12T08:14:11Z</time>
      </trkpt>
      <trkpt lat="43.09019" lon="-0.09563">
        <ele>680.8</ele>
        <time>2022-02-12T08:14:12Z</time>
      </trkpt>
      <trkpt lat="43.09018" lon="-0.09562">
        <ele>680.8</ele>
        <time>2022-02-12T08:14:13Z</time>
      </trkpt>
      <trkpt lat="43.09018" lon="-0.09562">
        <ele>681</ele>
        <time>2022-02-12T08:14:14Z</time>
      </trkpt>
      <trkpt lat="43.09018" lon="-0.09561">
        <ele>681</ele>
        <time>2022-02-12T08:14:15Z</time>
      </trkpt>
      <trkpt lat="43.09018" lon="-0.09561">
        <ele>681.2</ele>
        <time>2022-02-12T08:14:16Z</time>
      </trkpt>
      <trkpt lat="43.09018" lon="-0.09561">
        <ele>681.2</ele>
        <time>2022-02-12T08:14:17Z</time>
      </trkpt>
      <trkpt lat="43.09018" lon="-0.09561">
        <ele>681.4</ele>
        <time>2022-02-12T08:14:18Z</time>
      </trkpt>
      <trkpt lat="43.09018" lon="-0.0956">
        <ele>681.6</ele>
        <time>2022-02-12T08:14:19Z</time>
      </trkpt>
      <trkpt lat="43.09018" lon="-0.09559">
        <ele>681.8</ele>
        <time>2022-02-12T08:14:20Z</time>
      </trkpt>
      <trkpt lat="43.09018" lon="-0.09559">
        <ele>682</ele>
        <time>2022-02-12T08:14:21Z</time>
      </trkpt>
      <trkpt lat="43.09018" lon="-0.09559">
        <ele>682.2</ele>
        <time>2022-02-12T08:14:22Z</time>
      </trkpt>
      <trkpt lat="43.09018" lon="-0.09559">
        <ele>682.4</ele>
        <time>2022-02-12T08:14:23Z</time>
      </trkpt>
      <trkpt lat="43.09018" lon="-0.09559">
        <ele>682.4</ele>
        <time>2022-02-12T08:14:24Z</time>
      </trkpt>
      <trkpt lat="43.09018" lon="-0.09559">
        <ele>682.6</ele>
        <time>2022-02-12T08:14:25Z</time>
      </trkpt>
      <trkpt lat="43.09018" lon="-0.09559">
        <ele>682.6</ele>
        <time>2022-02-12T08:14:26Z</time>
      </trkpt>
      <trkpt lat="43.09018" lon="-0.09559">
        <ele>682.8</ele>
        <time>2022-02-12T08:14:27Z</time>
      </trkpt>
      <trkpt lat="43.09018" lon="-0.09558">
        <ele>682.8</ele>
        <time>2022-02-12T08:14:28Z</time>
      </trkpt>
      <trkpt lat="43.09018" lon="-0.09556">
        <ele>683</ele>
        <time>2022-02-12T08:14:29Z</time>
      </trkpt>
      <trkpt lat="43.09018" lon="-0.09554">
        <ele>683</ele>
        <time>2022-02-12T08:14:30Z</time>
      </trkpt>
      <trkpt lat="43.09018" lon="-0.09553">
        <ele>683.2</ele>
        <time>2022-02-12T08:14:31Z</time>
      </trkpt>
      <trkpt lat="43.09017" lon="-0.09552">
        <ele>683.4</ele>
        <time>2022-02-12T08:14:32Z</time>
      </trkpt>
      <trkpt lat="43.09017" lon="-0.09551">
        <ele>683.6</ele>
        <time>2022-02-12T08:14:33Z</time>
      </trkpt>
      <trkpt lat="43.09017" lon="-0.0955">
        <ele>683.8</ele>
        <time>2022-02-12T08:14:34Z</time>
      </trkpt>
      <trkpt lat="43.09017" lon="-0.09548">
        <ele>683.8</ele>
        <time>2022-02-12T08:14:35Z</time>
      </trkpt>
      <trkpt lat="43.09017" lon="-0.09546">
        <ele>684</ele>
        <time>2022-02-12T08:14:36Z</time>
      </trkpt>
      <trkpt lat="43.09016" lon="-0.09545">
        <ele>684</ele>
        <time>2022-02-12T08:14:37Z</time>
      </trkpt>
      <trkpt lat="43.09016" lon="-0.09545">
        <ele>684</ele>
        <time>2022-02-12T08:14:38Z</time>
      </trkpt>
      <trkpt lat="43.09016" lon="-0.09543">
        <ele>684.2</ele>
        <time>2022-02-12T08:14:39Z</time>
      </trkpt>
      <trkpt lat="43.09014" lon="-0.09541">
        <ele>684.4</ele>
        <time>2022-02-12T08:14:40Z</time>
      </trkpt>
      <trkpt lat="43.09014" lon="-0.09538">
        <ele>684.4</ele>
        <time>2022-02-12T08:14:41Z</time>
      </trkpt>
      <trkpt lat="43.09014" lon="-0.09538">
        <ele>684.6</ele>
        <time>2022-02-12T08:14:42Z</time>
      </trkpt>
      <trkpt lat="43.09014" lon="-0.09536">
        <ele>684.8</ele>
        <time>2022-02-12T08:14:43Z</time>
      </trkpt>
      <trkpt lat="43.09013" lon="-0.09534">
        <ele>685</ele>
        <time>2022-02-12T08:14:44Z</time>
      </trkpt>
      <trkpt lat="43.09012" lon="-0.09531">
        <ele>685</ele>
        <time>2022-02-12T08:14:45Z</time>
      </trkpt>
      <trkpt lat="43.09012" lon="-0.09531">
        <ele>685.2</ele>
        <time>2022-02-12T08:14:46Z</time>
      </trkpt>
      <trkpt lat="43.09012" lon="-0.0953">
        <ele>685.2</ele>
        <time>2022-02-12T08:14:47Z</time>
      </trkpt>
      <trkpt lat="43.09011" lon="-0.09528">
        <ele>685.4</ele>
        <time>2022-02-12T08:14:48Z</time>
      </trkpt>
      <trkpt lat="43.09011" lon="-0.09528">
        <ele>685.4</ele>
        <time>2022-02-12T08:14:49Z</time>
      </trkpt>
      <trkpt lat="43.09011" lon="-0.09528">
        <ele>685.4</ele>
        <time>2022-02-12T08:14:50Z</time>
      </trkpt>
      <trkpt lat="43.09012" lon="-0.09527">
        <ele>685.4</ele>
        <time>2022-02-12T08:14:51Z</time>
      </trkpt>
      <trkpt lat="43.09012" lon="-0.09526">
        <ele>685.6</ele>
        <time>2022-02-12T08:14:52Z</time>
      </trkpt>
      <trkpt lat="43.09012" lon="-0.09526">
        <ele>685.6</ele>
        <time>2022-02-12T08:14:53Z</time>
      </trkpt>
      <trkpt lat="43.09011" lon="-0.09526">
        <ele>685.8</ele>
        <time>2022-02-12T08:14:54Z</time>
      </trkpt>
      <trkpt lat="43.09011" lon="-0.09525">
        <ele>685.8</ele>
        <time>2022-02-12T08:14:55Z</time>
      </trkpt>
      <trkpt lat="43.09011" lon="-0.09525">
        <ele>686</ele>
        <time>2022-02-12T08:14:56Z</time>
      </trkpt>
      <trkpt lat="43.09012" lon="-0.09522">
        <ele>686</ele>
        <time>2022-02-12T08:14:57Z</time>
      </trkpt>
      <trkpt lat="43.09012" lon="-0.09521">
        <ele>686.2</ele>
        <time>2022-02-12T08:14:58Z</time>
      </trkpt>
      <trkpt lat="43.09012" lon="-0.09521">
        <ele>686.4</ele>
        <time>2022-02-12T08:14:59Z</time>
      </trkpt>
      <trkpt lat="43.09012" lon="-0.09517">
        <ele>686.4</ele>
        <time>2022-02-12T08:15:00Z</time>
      </trkpt>
      <trkpt lat="43.09012" lon="-0.09515">
        <ele>686.6</ele>
        <time>2022-02-12T08:15:01Z</time>
      </trkpt>
      <trkpt lat="43.09012" lon="-0.09514">
        <ele>686.6</ele>
        <time>2022-02-12T08:15:02Z</time>
      </trkpt>
      <trkpt lat="43.09012" lon="-0.09514">
        <ele>686.8</ele>
        <time>2022-02-12T08:15:03Z</time>
      </trkpt>
      <trkpt lat="43.09013" lon="-0.09511">
        <ele>687</ele>
        <time>2022-02-12T08:15:04Z</time>
      </trkpt>
      <trkpt lat="43.09013" lon="-0.09511">
        <ele>687.2</ele>
        <time>2022-02-12T08:15:05Z</time>
      </trkpt>
      <trkpt lat="43.09013" lon="-0.09511">
        <ele>687.2</ele>
        <time>2022-02-12T08:15:06Z</time>
      </trkpt>
      <trkpt lat="43.09013" lon="-0.09511">
        <ele>687.2</ele>
        <time>2022-02-12T08:15:07Z</time>
      </trkpt>
      <trkpt lat="43.09012" lon="-0.0951">
        <ele>687.4</ele>
        <time>2022-02-12T08:15:08Z</time>
      </trkpt>
      <trkpt lat="43.09012" lon="-0.09509">
        <ele>687.6</ele>
        <time>2022-02-12T08:15:09Z</time>
      </trkpt>
      <trkpt lat="43.09011" lon="-0.09509">
        <ele>687.6</ele>
        <time>2022-02-12T08:15:10Z</time>
      </trkpt>
      <trkpt lat="43.09011" lon="-0.09509">
        <ele>687.6</ele>
        <time>2022-02-12T08:15:11Z</time>
      </trkpt>
      <trkpt lat="43.09012" lon="-0.09509">
        <ele>687.8</ele>
        <time>2022-02-12T08:15:12Z</time>
      </trkpt>
      <trkpt lat="43.09012" lon="-0.09509">
        <ele>687.8</ele>
        <time>2022-02-12T08:15:13Z</time>
      </trkpt>
      <trkpt lat="43.09012" lon="-0.09509">
        <ele>687.8</ele>
        <time>2022-02-12T08:15:14Z</time>
      </trkpt>
      <trkpt lat="43.09012" lon="-0.0951">
        <ele>687.8</ele>
        <time>2022-02-12T08:15:15Z</time>
      </trkpt>
      <trkpt lat="43.09012" lon="-0.09511">
        <ele>688</ele>
        <time>2022-02-12T08:15:16Z</time>
      </trkpt>
      <trkpt lat="43.09012" lon="-0.09511">
        <ele>688</ele>
        <time>2022-02-12T08:15:17Z</time>
      </trkpt>
      <trkpt lat="43.09012" lon="-0.09511">
        <ele>688</ele>
        <time>2022-02-12T08:15:18Z</time>
      </trkpt>
      <trkpt lat="43.09011" lon="-0.09511">
        <ele>688.2</ele>
        <time>2022-02-12T08:15:19Z</time>
      </trkpt>
      <trkpt lat="43.09011" lon="-0.09511">
        <ele>688.2</ele>
        <time>2022-02-12T08:15:20Z</time>
      </trkpt>
      <trkpt lat="43.09011" lon="-0.09511">
        <ele>688.4</ele>
        <time>2022-02-12T08:15:21Z</time>
      </trkpt>
      <trkpt lat="43.09011" lon="-0.09511">
        <ele>688.4</ele>
        <time>2022-02-12T08:15:22Z</time>
      </trkpt>
      <trkpt lat="43.09011" lon="-0.09511">
        <ele>688.6</ele>
        <time>2022-02-12T08:15:23Z</time>
      </trkpt>
      <trkpt lat="43.09011" lon="-0.09511">
        <ele>688.6</ele>
        <time>2022-02-12T08:15:24Z</time>
      </trkpt>
      <trkpt lat="43.09011" lon="-0.09511">
        <ele>688.8</ele>
        <time>2022-02-12T08:15:25Z</time>
      </trkpt>
      <trkpt lat="43.09011" lon="-0.09511">
        <ele>688.8</ele>
        <time>2022-02-12T08:15:26Z</time>
      </trkpt>
      <trkpt lat="43.09011" lon="-0.09511">
        <ele>689</ele>
        <time>2022-02-12T08:15:27Z</time>
      </trkpt>
      <trkpt lat="43.09011" lon="-0.09511">
        <ele>689</ele>
        <time>2022-02-12T08:15:28Z</time>
      </trkpt>
      <trkpt lat="43.09011" lon="-0.09511">
        <ele>689.2</ele>
        <time>2022-02-12T08:15:29Z</time>
      </trkpt>
      <trkpt lat="43.09011" lon="-0.09511">
        <ele>689.4</ele>
        <time>2022-02-12T08:15:30Z</time>
      </trkpt>
      <trkpt lat="43.09011" lon="-0.09511">
        <ele>689.4</ele>
        <time>2022-02-12T08:15:31Z</time>
      </trkpt>
      <trkpt lat="43.09011" lon="-0.09511">
        <ele>689.6</ele>
        <time>2022-02-12T08:15:32Z</time>
      </trkpt>
      <trkpt lat="43.09011" lon="-0.09511">
        <ele>689.8</ele>
        <time>2022-02-12T08:15:33Z</time>
      </trkpt>
      <trkpt lat="43.09011" lon="-0.09511">
        <ele>689.8</ele>
        <time>2022-02-12T08:15:34Z</time>
      </trkpt>
      <trkpt lat="43.09011" lon="-0.09511">
        <ele>690</ele>
        <time>2022-02-12T08:15:35Z</time>
      </trkpt>
      <trkpt lat="43.09011" lon="-0.09511">
        <ele>690</ele>
        <time>2022-02-12T08:15:36Z</time>
      </trkpt>
      <trkpt lat="43.09011" lon="-0.09511">
        <ele>690</ele>
        <time>2022-02-12T08:15:37Z</time>
      </trkpt>
      <trkpt lat="43.09011" lon="-0.09511">
        <ele>690.2</ele>
        <time>2022-02-12T08:15:38Z</time>
      </trkpt>
      <trkpt lat="43.09011" lon="-0.09511">
        <ele>690.2</ele>
        <time>2022-02-12T08:15:39Z</time>
      </trkpt>
      <trkpt lat="43.09011" lon="-0.09511">
        <ele>690.4</ele>
        <time>2022-02-12T08:15:40Z</time>
      </trkpt>
      <trkpt lat="43.09011" lon="-0.09511">
        <ele>690.6</ele>
        <time>2022-02-12T08:15:41Z</time>
      </trkpt>
      <trkpt lat="43.09011" lon="-0.09511">
        <ele>690.8</ele>
        <time>2022-02-12T08:15:42Z</time>
      </trkpt>
      <trkpt lat="43.09011" lon="-0.09511">
        <ele>690.8</ele>
        <time>2022-02-12T08:15:43Z</time>
      </trkpt>
      <trkpt lat="43.09011" lon="-0.09512">
        <ele>691</ele>
        <time>2022-02-12T08:15:44Z</time>
      </trkpt>
      <trkpt lat="43.09011" lon="-0.09512">
        <ele>691.2</ele>
        <time>2022-02-12T08:15:45Z</time>
      </trkpt>
      <trkpt lat="43.09009" lon="-0.09512">
        <ele>691.2</ele>
        <time>2022-02-12T08:15:46Z</time>
      </trkpt>
      <trkpt lat="43.09008" lon="-0.09513">
        <ele>691.2</ele>
        <time>2022-02-12T08:15:47Z</time>
      </trkpt>
      <trkpt lat="43.09007" lon="-0.09513">
        <ele>691.4</ele>
        <time>2022-02-12T08:15:48Z</time>
      </trkpt>
      <trkpt lat="43.09007" lon="-0.09514">
        <ele>691.4</ele>
        <time>2022-02-12T08:15:49Z</time>
      </trkpt>
      <trkpt lat="43.09007" lon="-0.09514">
        <ele>691.6</ele>
        <time>2022-02-12T08:15:50Z</time>
      </trkpt>
      <trkpt lat="43.09006" lon="-0.09515">
        <ele>691.8</ele>
        <time>2022-02-12T08:15:51Z</time>
      </trkpt>
      <trkpt lat="43.09006" lon="-0.09515">
        <ele>691.8</ele>
        <time>2022-02-12T08:15:52Z</time>
      </trkpt>
      <trkpt lat="43.09006" lon="-0.09515">
        <ele>692</ele>
        <time>2022-02-12T08:15:53Z</time>
      </trkpt>
      <trkpt lat="43.09006" lon="-0.09515">
        <ele>692</ele>
        <time>2022-02-12T08:15:54Z</time>
      </trkpt>
      <trkpt lat="43.09006" lon="-0.09515">
        <ele>692.2</ele>
        <time>2022-02-12T08:15:55Z</time>
      </trkpt>
      <trkpt lat="43.09006" lon="-0.09515">
        <ele>692.2</ele>
        <time>2022-02-12T08:15:56Z</time>
      </trkpt>
      <trkpt lat="43.09006" lon="-0.09515">
        <ele>692.2</ele>
        <time>2022-02-12T08:15:57Z</time>
      </trkpt>
      <trkpt lat="43.09006" lon="-0.09515">
        <ele>692.4</ele>
        <time>2022-02-12T08:15:58Z</time>
      </trkpt>
      <trkpt lat="43.09005" lon="-0.09515">
        <ele>692.4</ele>
        <time>2022-02-12T08:15:59Z</time>
      </trkpt>
      <trkpt lat="43.09004" lon="-0.09516">
        <ele>692.6</ele>
        <time>2022-02-12T08:16:00Z</time>
      </trkpt>
      <trkpt lat="43.09004" lon="-0.09516">
        <ele>692.6</ele>
        <time>2022-02-12T08:16:01Z</time>
      </trkpt>
      <trkpt lat="43.09003" lon="-0.09517">
        <ele>692.8</ele>
        <time>2022-02-12T08:16:02Z</time>
      </trkpt>
      <trkpt lat="43.09002" lon="-0.09518">
        <ele>692.8</ele>
        <time>2022-02-12T08:16:03Z</time>
      </trkpt>
      <trkpt lat="43.09001" lon="-0.09518">
        <ele>693</ele>
        <time>2022-02-12T08:16:04Z</time>
      </trkpt>
      <trkpt lat="43.09001" lon="-0.09518">
        <ele>693.2</ele>
        <time>2022-02-12T08:16:05Z</time>
      </trkpt>
      <trkpt lat="43.09001" lon="-0.09518">
        <ele>693.2</ele>
        <time>2022-02-12T08:16:06Z</time>
      </trkpt>
      <trkpt lat="43.09001" lon="-0.09518">
        <ele>693.4</ele>
        <time>2022-02-12T08:16:07Z</time>
      </trkpt>
      <trkpt lat="43.09001" lon="-0.09518">
        <ele>693.4</ele>
        <time>2022-02-12T08:16:08Z</time>
      </trkpt>
      <trkpt lat="43.09001" lon="-0.09518">
        <ele>693.6</ele>
        <time>2022-02-12T08:16:09Z</time>
      </trkpt>
      <trkpt lat="43.09001" lon="-0.09518">
        <ele>693.6</ele>
        <time>2022-02-12T08:16:10Z</time>
      </trkpt>
      <trkpt lat="43.09001" lon="-0.09518">
        <ele>693.6</ele>
        <time>2022-02-12T08:16:11Z</time>
      </trkpt>
      <trkpt lat="43.09001" lon="-0.09518">
        <ele>693.8</ele>
        <time>2022-02-12T08:16:12Z</time>
      </trkpt>
      <trkpt lat="43.09001" lon="-0.09518">
        <ele>693.8</ele>
        <time>2022-02-12T08:16:13Z</time>
      </trkpt>
      <trkpt lat="43.09001" lon="-0.09518">
        <ele>693.8</ele>
        <time>2022-02-12T08:16:14Z</time>
      </trkpt>
      <trkpt lat="43.09001" lon="-0.09519">
        <ele>693.8</ele>
        <time>2022-02-12T08:16:15Z</time>
      </trkpt>
      <trkpt lat="43.09" lon="-0.09519">
        <ele>693.8</ele>
        <time>2022-02-12T08:16:16Z</time>
      </trkpt>
      <trkpt lat="43.09" lon="-0.09519">
        <ele>693.8</ele>
        <time>2022-02-12T08:16:17Z</time>
      </trkpt>
      <trkpt lat="43.09" lon="-0.09519">
        <ele>693.8</ele>
        <time>2022-02-12T08:16:18Z</time>
      </trkpt>
      <trkpt lat="43.08999" lon="-0.0952">
        <ele>693.8</ele>
        <time>2022-02-12T08:16:19Z</time>
      </trkpt>
      <trkpt lat="43.08999" lon="-0.0952">
        <ele>694</ele>
        <time>2022-02-12T08:16:20Z</time>
      </trkpt>
      <trkpt lat="43.08999" lon="-0.0952">
        <ele>694</ele>
        <time>2022-02-12T08:16:21Z</time>
      </trkpt>
      <trkpt lat="43.08998" lon="-0.0952">
        <ele>694.2</ele>
        <time>2022-02-12T08:16:22Z</time>
      </trkpt>
      <trkpt lat="43.08998" lon="-0.0952">
        <ele>694.2</ele>
        <time>2022-02-12T08:16:23Z</time>
      </trkpt>
      <trkpt lat="43.08998" lon="-0.0952">
        <ele>694.4</ele>
        <time>2022-02-12T08:16:24Z</time>
      </trkpt>
      <trkpt lat="43.08998" lon="-0.0952">
        <ele>694.6</ele>
        <time>2022-02-12T08:16:25Z</time>
      </trkpt>
      <trkpt lat="43.08998" lon="-0.0952">
        <ele>694.6</ele>
        <time>2022-02-12T08:16:26Z</time>
      </trkpt>
      <trkpt lat="43.08998" lon="-0.0952">
        <ele>694.6</ele>
        <time>2022-02-12T08:16:27Z</time>
      </trkpt>
      <trkpt lat="43.08998" lon="-0.0952">
        <ele>694.8</ele>
        <time>2022-02-12T08:16:28Z</time>
      </trkpt>
      <trkpt lat="43.08998" lon="-0.0952">
        <ele>694.8</ele>
        <time>2022-02-12T08:16:29Z</time>
      </trkpt>
      <trkpt lat="43.08998" lon="-0.0952">
        <ele>695</ele>
        <time>2022-02-12T08:16:30Z</time>
      </trkpt>
      <trkpt lat="43.08998" lon="-0.0952">
        <ele>695</ele>
        <time>2022-02-12T08:16:31Z</time>
      </trkpt>
      <trkpt lat="43.08998" lon="-0.0952">
        <ele>695.2</ele>
        <time>2022-02-12T08:16:32Z</time>
      </trkpt>
      <trkpt lat="43.08998" lon="-0.0952">
        <ele>695.2</ele>
        <time>2022-02-12T08:16:33Z</time>
      </trkpt>
      <trkpt lat="43.08998" lon="-0.0952">
        <ele>695.4</ele>
        <time>2022-02-12T08:16:34Z</time>
      </trkpt>
      <trkpt lat="43.08998" lon="-0.0952">
        <ele>695.4</ele>
        <time>2022-02-12T08:16:35Z</time>
      </trkpt>
      <trkpt lat="43.08998" lon="-0.0952">
        <ele>695.6</ele>
        <time>2022-02-12T08:16:36Z</time>
      </trkpt>
      <trkpt lat="43.08998" lon="-0.0952">
        <ele>695.8</ele>
        <time>2022-02-12T08:16:37Z</time>
      </trkpt>
      <trkpt lat="43.08998" lon="-0.0952">
        <ele>695.8</ele>
        <time>2022-02-12T08:16:38Z</time>
      </trkpt>
      <trkpt lat="43.08998" lon="-0.0952">
        <ele>696</ele>
        <time>2022-02-12T08:16:39Z</time>
      </trkpt>
      <trkpt lat="43.08998" lon="-0.0952">
        <ele>696.2</ele>
        <time>2022-02-12T08:16:40Z</time>
      </trkpt>
      <trkpt lat="43.08998" lon="-0.0952">
        <ele>696.6</ele>
        <time>2022-02-12T08:16:41Z</time>
      </trkpt>
      <trkpt lat="43.08998" lon="-0.0952">
        <ele>696.8</ele>
        <time>2022-02-12T08:16:42Z</time>
      </trkpt>
      <trkpt lat="43.08998" lon="-0.0952">
        <ele>697</ele>
        <time>2022-02-12T08:16:43Z</time>
      </trkpt>
      <trkpt lat="43.08997" lon="-0.0952">
        <ele>697</ele>
        <time>2022-02-12T08:16:44Z</time>
      </trkpt>
      <trkpt lat="43.08995" lon="-0.09521">
        <ele>697.2</ele>
        <time>2022-02-12T08:16:45Z</time>
      </trkpt>
      <trkpt lat="43.08995" lon="-0.09521">
        <ele>697.2</ele>
        <time>2022-02-12T08:16:46Z</time>
      </trkpt>
      <trkpt lat="43.08995" lon="-0.09521">
        <ele>697.4</ele>
        <time>2022-02-12T08:16:47Z</time>
      </trkpt>
      <trkpt lat="43.08995" lon="-0.09521">
        <ele>697.4</ele>
        <time>2022-02-12T08:16:48Z</time>
      </trkpt>
      <trkpt lat="43.08995" lon="-0.09521">
        <ele>697.6</ele>
        <time>2022-02-12T08:16:49Z</time>
      </trkpt>
      <trkpt lat="43.08993" lon="-0.09523">
        <ele>697.6</ele>
        <time>2022-02-12T08:16:50Z</time>
      </trkpt>
      <trkpt lat="43.08993" lon="-0.09523">
        <ele>697.8</ele>
        <time>2022-02-12T08:16:51Z</time>
      </trkpt>
      <trkpt lat="43.08993" lon="-0.09523">
        <ele>698</ele>
        <time>2022-02-12T08:16:52Z</time>
      </trkpt>
      <trkpt lat="43.08992" lon="-0.09525">
        <ele>698.2</ele>
        <time>2022-02-12T08:16:53Z</time>
      </trkpt>
      <trkpt lat="43.08991" lon="-0.09526">
        <ele>698.2</ele>
        <time>2022-02-12T08:16:54Z</time>
      </trkpt>
      <trkpt lat="43.0899" lon="-0.09526">
        <ele>698.4</ele>
        <time>2022-02-12T08:16:55Z</time>
      </trkpt>
      <trkpt lat="43.08988" lon="-0.09528">
        <ele>698.4</ele>
        <time>2022-02-12T08:16:56Z</time>
      </trkpt>
      <trkpt lat="43.08986" lon="-0.09529">
        <ele>698.6</ele>
        <time>2022-02-12T08:16:57Z</time>
      </trkpt>
      <trkpt lat="43.08985" lon="-0.0953">
        <ele>698.6</ele>
        <time>2022-02-12T08:16:58Z</time>
      </trkpt>
      <trkpt lat="43.08985" lon="-0.0953">
        <ele>698.8</ele>
        <time>2022-02-12T08:16:59Z</time>
      </trkpt>
      <trkpt lat="43.08985" lon="-0.0953">
        <ele>699</ele>
        <time>2022-02-12T08:17:00Z</time>
      </trkpt>
      <trkpt lat="43.08985" lon="-0.0953">
        <ele>699.2</ele>
        <time>2022-02-12T08:17:01Z</time>
      </trkpt>
      <trkpt lat="43.08985" lon="-0.0953">
        <ele>699.2</ele>
        <time>2022-02-12T08:17:02Z</time>
      </trkpt>
      <trkpt lat="43.08985" lon="-0.0953">
        <ele>699.4</ele>
        <time>2022-02-12T08:17:03Z</time>
      </trkpt>
      <trkpt lat="43.08985" lon="-0.0953">
        <ele>699.6</ele>
        <time>2022-02-12T08:17:04Z</time>
      </trkpt>
      <trkpt lat="43.08985" lon="-0.0953">
        <ele>699.6</ele>
        <time>2022-02-12T08:17:05Z</time>
      </trkpt>
      <trkpt lat="43.08985" lon="-0.0953">
        <ele>699.8</ele>
        <time>2022-02-12T08:17:06Z</time>
      </trkpt>
      <trkpt lat="43.08985" lon="-0.0953">
        <ele>699.8</ele>
        <time>2022-02-12T08:17:07Z</time>
      </trkpt>
      <trkpt lat="43.08985" lon="-0.0953">
        <ele>700</ele>
        <time>2022-02-12T08:17:08Z</time>
      </trkpt>
      <trkpt lat="43.08985" lon="-0.0953">
        <ele>700</ele>
        <time>2022-02-12T08:17:09Z</time>
      </trkpt>
      <trkpt lat="43.08985" lon="-0.0953">
        <ele>700.2</ele>
        <time>2022-02-12T08:17:10Z</time>
      </trkpt>
      <trkpt lat="43.08984" lon="-0.0953">
        <ele>700.2</ele>
        <time>2022-02-12T08:17:11Z</time>
      </trkpt>
      <trkpt lat="43.08982" lon="-0.09532">
        <ele>700.2</ele>
        <time>2022-02-12T08:17:12Z</time>
      </trkpt>
      <trkpt lat="43.08982" lon="-0.09532">
        <ele>700.2</ele>
        <time>2022-02-12T08:17:13Z</time>
      </trkpt>
      <trkpt lat="43.08982" lon="-0.09532">
        <ele>700.4</ele>
        <time>2022-02-12T08:17:14Z</time>
      </trkpt>
      <trkpt lat="43.08982" lon="-0.09532">
        <ele>700.4</ele>
        <time>2022-02-12T08:17:15Z</time>
      </trkpt>
      <trkpt lat="43.08982" lon="-0.09532">
        <ele>700.4</ele>
        <time>2022-02-12T08:17:16Z</time>
      </trkpt>
      <trkpt lat="43.08981" lon="-0.09533">
        <ele>700.4</ele>
        <time>2022-02-12T08:17:17Z</time>
      </trkpt>
      <trkpt lat="43.08979" lon="-0.09534">
        <ele>700.4</ele>
        <time>2022-02-12T08:17:18Z</time>
      </trkpt>
      <trkpt lat="43.08978" lon="-0.09535">
        <ele>700.4</ele>
        <time>2022-02-12T08:17:19Z</time>
      </trkpt>
      <trkpt lat="43.08978" lon="-0.09536">
        <ele>700.4</ele>
        <time>2022-02-12T08:17:20Z</time>
      </trkpt>
      <trkpt lat="43.08977" lon="-0.09536">
        <ele>700.4</ele>
        <time>2022-02-12T08:17:21Z</time>
      </trkpt>
      <trkpt lat="43.08976" lon="-0.09537">
        <ele>700.4</ele>
        <time>2022-02-12T08:17:22Z</time>
      </trkpt>
      <trkpt lat="43.08976" lon="-0.09537">
        <ele>700.4</ele>
        <time>2022-02-12T08:17:23Z</time>
      </trkpt>
      <trkpt lat="43.08976" lon="-0.09537">
        <ele>700.6</ele>
        <time>2022-02-12T08:17:24Z</time>
      </trkpt>
      <trkpt lat="43.08976" lon="-0.09537">
        <ele>700.6</ele>
        <time>2022-02-12T08:17:25Z</time>
      </trkpt>
      <trkpt lat="43.08976" lon="-0.09537">
        <ele>700.6</ele>
        <time>2022-02-12T08:17:26Z</time>
      </trkpt>
      <trkpt lat="43.08976" lon="-0.09537">
        <ele>700.6</ele>
        <time>2022-02-12T08:17:27Z</time>
      </trkpt>
      <trkpt lat="43.08976" lon="-0.09537">
        <ele>701</ele>
        <time>2022-02-12T08:17:28Z</time>
      </trkpt>
      <trkpt lat="43.08976" lon="-0.09537">
        <ele>701.2</ele>
        <time>2022-02-12T08:17:29Z</time>
      </trkpt>
      <trkpt lat="43.08976" lon="-0.09537">
        <ele>701.2</ele>
        <time>2022-02-12T08:17:30Z</time>
      </trkpt>
      <trkpt lat="43.08976" lon="-0.09537">
        <ele>701.6</ele>
        <time>2022-02-12T08:17:31Z</time>
      </trkpt>
      <trkpt lat="43.08976" lon="-0.09537">
        <ele>701.6</ele>
        <time>2022-02-12T08:17:32Z</time>
      </trkpt>
      <trkpt lat="43.08976" lon="-0.09537">
        <ele>701.8</ele>
        <time>2022-02-12T08:17:33Z</time>
      </trkpt>
      <trkpt lat="43.08976" lon="-0.09538">
        <ele>701.8</ele>
        <time>2022-02-12T08:17:34Z</time>
      </trkpt>
      <trkpt lat="43.08975" lon="-0.09539">
        <ele>702</ele>
        <time>2022-02-12T08:17:35Z</time>
      </trkpt>
      <trkpt lat="43.08975" lon="-0.0954">
        <ele>702.2</ele>
        <time>2022-02-12T08:17:36Z</time>
      </trkpt>
      <trkpt lat="43.08974" lon="-0.09541">
        <ele>702.2</ele>
        <time>2022-02-12T08:17:37Z</time>
      </trkpt>
      <trkpt lat="43.08973" lon="-0.09542">
        <ele>702.2</ele>
        <time>2022-02-12T08:17:38Z</time>
      </trkpt>
      <trkpt lat="43.08973" lon="-0.09542">
        <ele>702.4</ele>
        <time>2022-02-12T08:17:39Z</time>
      </trkpt>
      <trkpt lat="43.08973" lon="-0.09542">
        <ele>702.4</ele>
        <time>2022-02-12T08:17:40Z</time>
      </trkpt>
      <trkpt lat="43.08973" lon="-0.09542">
        <ele>702.8</ele>
        <time>2022-02-12T08:17:41Z</time>
      </trkpt>
      <trkpt lat="43.08973" lon="-0.09542">
        <ele>703</ele>
        <time>2022-02-12T08:17:42Z</time>
      </trkpt>
      <trkpt lat="43.08973" lon="-0.09542">
        <ele>703.2</ele>
        <time>2022-02-12T08:17:43Z</time>
      </trkpt>
      <trkpt lat="43.08973" lon="-0.09542">
        <ele>703.4</ele>
        <time>2022-02-12T08:17:44Z</time>
      </trkpt>
      <trkpt lat="43.08973" lon="-0.09542">
        <ele>703.4</ele>
        <time>2022-02-12T08:17:45Z</time>
      </trkpt>
      <trkpt lat="43.08973" lon="-0.09542">
        <ele>703.6</ele>
        <time>2022-02-12T08:17:46Z</time>
      </trkpt>
      <trkpt lat="43.08973" lon="-0.09542">
        <ele>703.6</ele>
        <time>2022-02-12T08:17:47Z</time>
      </trkpt>
      <trkpt lat="43.08972" lon="-0.09543">
        <ele>703.6</ele>
        <time>2022-02-12T08:17:48Z</time>
      </trkpt>
      <trkpt lat="43.08971" lon="-0.09543">
        <ele>703.8</ele>
        <time>2022-02-12T08:17:49Z</time>
      </trkpt>
      <trkpt lat="43.0897" lon="-0.09544">
        <ele>703.8</ele>
        <time>2022-02-12T08:17:50Z</time>
      </trkpt>
      <trkpt lat="43.08969" lon="-0.09546">
        <ele>704</ele>
        <time>2022-02-12T08:17:51Z</time>
      </trkpt>
      <trkpt lat="43.08968" lon="-0.09547">
        <ele>704.2</ele>
        <time>2022-02-12T08:17:52Z</time>
      </trkpt>
      <trkpt lat="43.08967" lon="-0.0955">
        <ele>704.4</ele>
        <time>2022-02-12T08:17:53Z</time>
      </trkpt>
      <trkpt lat="43.08966" lon="-0.09552">
        <ele>704.4</ele>
        <time>2022-02-12T08:17:54Z</time>
      </trkpt>
      <trkpt lat="43.08965" lon="-0.09554">
        <ele>704.6</ele>
        <time>2022-02-12T08:17:55Z</time>
      </trkpt>
      <trkpt lat="43.08962" lon="-0.09557">
        <ele>704.8</ele>
        <time>2022-02-12T08:17:56Z</time>
      </trkpt>
      <trkpt lat="43.08961" lon="-0.09559">
        <ele>704.8</ele>
        <time>2022-02-12T08:17:57Z</time>
      </trkpt>
      <trkpt lat="43.0896" lon="-0.0956">
        <ele>705</ele>
        <time>2022-02-12T08:17:58Z</time>
      </trkpt>
      <trkpt lat="43.08959" lon="-0.09561">
        <ele>705</ele>
        <time>2022-02-12T08:17:59Z</time>
      </trkpt>
      <trkpt lat="43.08956" lon="-0.09563">
        <ele>705.2</ele>
        <time>2022-02-12T08:18:00Z</time>
      </trkpt>
      <trkpt lat="43.08956" lon="-0.09563">
        <ele>705.2</ele>
        <time>2022-02-12T08:18:01Z</time>
      </trkpt>
      <trkpt lat="43.08956" lon="-0.09563">
        <ele>705.4</ele>
        <time>2022-02-12T08:18:02Z</time>
      </trkpt>
      <trkpt lat="43.08956" lon="-0.09563">
        <ele>705.4</ele>
        <time>2022-02-12T08:18:03Z</time>
      </trkpt>
      <trkpt lat="43.08956" lon="-0.09563">
        <ele>705.6</ele>
        <time>2022-02-12T08:18:04Z</time>
      </trkpt>
      <trkpt lat="43.08956" lon="-0.09563">
        <ele>705.6</ele>
        <time>2022-02-12T08:18:05Z</time>
      </trkpt>
      <trkpt lat="43.08956" lon="-0.09563">
        <ele>705.6</ele>
        <time>2022-02-12T08:18:06Z</time>
      </trkpt>
      <trkpt lat="43.08956" lon="-0.09565">
        <ele>705.6</ele>
        <time>2022-02-12T08:18:07Z</time>
      </trkpt>
      <trkpt lat="43.08955" lon="-0.09565">
        <ele>705.8</ele>
        <time>2022-02-12T08:18:08Z</time>
      </trkpt>
      <trkpt lat="43.08955" lon="-0.09567">
        <ele>705.8</ele>
        <time>2022-02-12T08:18:09Z</time>
      </trkpt>
      <trkpt lat="43.08954" lon="-0.09567">
        <ele>706</ele>
        <time>2022-02-12T08:18:10Z</time>
      </trkpt>
      <trkpt lat="43.08954" lon="-0.09567">
        <ele>706</ele>
        <time>2022-02-12T08:18:11Z</time>
      </trkpt>
      <trkpt lat="43.08954" lon="-0.09567">
        <ele>706.2</ele>
        <time>2022-02-12T08:18:12Z</time>
      </trkpt>
      <trkpt lat="43.08954" lon="-0.09567">
        <ele>706.4</ele>
        <time>2022-02-12T08:18:13Z</time>
      </trkpt>
      <trkpt lat="43.08954" lon="-0.09567">
        <ele>706.6</ele>
        <time>2022-02-12T08:18:14Z</time>
      </trkpt>
      <trkpt lat="43.08954" lon="-0.09567">
        <ele>706.6</ele>
        <time>2022-02-12T08:18:15Z</time>
      </trkpt>
      <trkpt lat="43.08954" lon="-0.09567">
        <ele>706.8</ele>
        <time>2022-02-12T08:18:16Z</time>
      </trkpt>
      <trkpt lat="43.08954" lon="-0.09567">
        <ele>706.8</ele>
        <time>2022-02-12T08:18:17Z</time>
      </trkpt>
      <trkpt lat="43.08954" lon="-0.09567">
        <ele>707</ele>
        <time>2022-02-12T08:18:18Z</time>
      </trkpt>
      <trkpt lat="43.08954" lon="-0.09567">
        <ele>707</ele>
        <time>2022-02-12T08:18:19Z</time>
      </trkpt>
      <trkpt lat="43.08954" lon="-0.09567">
        <ele>707.2</ele>
        <time>2022-02-12T08:18:20Z</time>
      </trkpt>
      <trkpt lat="43.08954" lon="-0.09567">
        <ele>707.2</ele>
        <time>2022-02-12T08:18:21Z</time>
      </trkpt>
      <trkpt lat="43.08954" lon="-0.09567">
        <ele>707.2</ele>
        <time>2022-02-12T08:18:22Z</time>
      </trkpt>
      <trkpt lat="43.08954" lon="-0.09567">
        <ele>707.2</ele>
        <time>2022-02-12T08:18:23Z</time>
      </trkpt>
      <trkpt lat="43.08954" lon="-0.09567">
        <ele>707.4</ele>
        <time>2022-02-12T08:18:24Z</time>
      </trkpt>
      <trkpt lat="43.08954" lon="-0.09567">
        <ele>707.4</ele>
        <time>2022-02-12T08:18:25Z</time>
      </trkpt>
      <trkpt lat="43.08954" lon="-0.09567">
        <ele>707.6</ele>
        <time>2022-02-12T08:18:26Z</time>
      </trkpt>
      <trkpt lat="43.08954" lon="-0.09567">
        <ele>707.6</ele>
        <time>2022-02-12T08:18:27Z</time>
      </trkpt>
      <trkpt lat="43.08954" lon="-0.09567">
        <ele>707.8</ele>
        <time>2022-02-12T08:18:28Z</time>
      </trkpt>
      <trkpt lat="43.08954" lon="-0.09567">
        <ele>708</ele>
        <time>2022-02-12T08:18:29Z</time>
      </trkpt>
      <trkpt lat="43.08954" lon="-0.09568">
        <ele>708</ele>
        <time>2022-02-12T08:18:30Z</time>
      </trkpt>
      <trkpt lat="43.08954" lon="-0.09568">
        <ele>708</ele>
        <time>2022-02-12T08:18:31Z</time>
      </trkpt>
      <trkpt lat="43.08953" lon="-0.09569">
        <ele>708.2</ele>
        <time>2022-02-12T08:18:32Z</time>
      </trkpt>
      <trkpt lat="43.0895" lon="-0.09569">
        <ele>708.4</ele>
        <time>2022-02-12T08:18:33Z</time>
      </trkpt>
      <trkpt lat="43.08949" lon="-0.09569">
        <ele>708.4</ele>
        <time>2022-02-12T08:18:34Z</time>
      </trkpt>
      <trkpt lat="43.08949" lon="-0.0957">
        <ele>708.6</ele>
        <time>2022-02-12T08:18:35Z</time>
      </trkpt>
      <trkpt lat="43.08948" lon="-0.0957">
        <ele>708.6</ele>
        <time>2022-02-12T08:18:36Z</time>
      </trkpt>
      <trkpt lat="43.08948" lon="-0.0957">
        <ele>709</ele>
        <time>2022-02-12T08:18:37Z</time>
      </trkpt>
      <trkpt lat="43.08948" lon="-0.0957">
        <ele>709.2</ele>
        <time>2022-02-12T08:18:38Z</time>
      </trkpt>
      <trkpt lat="43.08948" lon="-0.0957">
        <ele>709.4</ele>
        <time>2022-02-12T08:18:39Z</time>
      </trkpt>
      <trkpt lat="43.08948" lon="-0.0957">
        <ele>709.6</ele>
        <time>2022-02-12T08:18:40Z</time>
      </trkpt>
      <trkpt lat="43.08948" lon="-0.0957">
        <ele>709.8</ele>
        <time>2022-02-12T08:18:41Z</time>
      </trkpt>
      <trkpt lat="43.08948" lon="-0.0957">
        <ele>709.8</ele>
        <time>2022-02-12T08:18:42Z</time>
      </trkpt>
      <trkpt lat="43.08948" lon="-0.0957">
        <ele>710</ele>
        <time>2022-02-12T08:18:43Z</time>
      </trkpt>
      <trkpt lat="43.08948" lon="-0.0957">
        <ele>710.2</ele>
        <time>2022-02-12T08:18:44Z</time>
      </trkpt>
      <trkpt lat="43.08948" lon="-0.0957">
        <ele>710.4</ele>
        <time>2022-02-12T08:18:45Z</time>
      </trkpt>
      <trkpt lat="43.08947" lon="-0.09571">
        <ele>710.4</ele>
        <time>2022-02-12T08:18:46Z</time>
      </trkpt>
      <trkpt lat="43.08947" lon="-0.09571">
        <ele>710.6</ele>
        <time>2022-02-12T08:18:47Z</time>
      </trkpt>
      <trkpt lat="43.08945" lon="-0.09572">
        <ele>710.6</ele>
        <time>2022-02-12T08:18:48Z</time>
      </trkpt>
      <trkpt lat="43.08945" lon="-0.09572">
        <ele>710.6</ele>
        <time>2022-02-12T08:18:49Z</time>
      </trkpt>
      <trkpt lat="43.08945" lon="-0.09572">
        <ele>710.8</ele>
        <time>2022-02-12T08:18:50Z</time>
      </trkpt>
      <trkpt lat="43.08945" lon="-0.09572">
        <ele>710.8</ele>
        <time>2022-02-12T08:18:51Z</time>
      </trkpt>
      <trkpt lat="43.08945" lon="-0.09572">
        <ele>710.8</ele>
        <time>2022-02-12T08:18:52Z</time>
      </trkpt>
      <trkpt lat="43.08945" lon="-0.09572">
        <ele>710.8</ele>
        <time>2022-02-12T08:18:53Z</time>
      </trkpt>
      <trkpt lat="43.08945" lon="-0.09572">
        <ele>711</ele>
        <time>2022-02-12T08:18:54Z</time>
      </trkpt>
      <trkpt lat="43.08945" lon="-0.09572">
        <ele>711</ele>
        <time>2022-02-12T08:18:55Z</time>
      </trkpt>
      <trkpt lat="43.08945" lon="-0.09572">
        <ele>711.2</ele>
        <time>2022-02-12T08:18:56Z</time>
      </trkpt>
      <trkpt lat="43.08945" lon="-0.09572">
        <ele>711.4</ele>
        <time>2022-02-12T08:18:57Z</time>
      </trkpt>
      <trkpt lat="43.08944" lon="-0.09572">
        <ele>711.4</ele>
        <time>2022-02-12T08:18:58Z</time>
      </trkpt>
      <trkpt lat="43.08944" lon="-0.09572">
        <ele>711.4</ele>
        <time>2022-02-12T08:18:59Z</time>
      </trkpt>
      <trkpt lat="43.08944" lon="-0.09572">
        <ele>711.6</ele>
        <time>2022-02-12T08:19:00Z</time>
      </trkpt>
      <trkpt lat="43.08944" lon="-0.09572">
        <ele>711.6</ele>
        <time>2022-02-12T08:19:01Z</time>
      </trkpt>
      <trkpt lat="43.08944" lon="-0.09572">
        <ele>711.6</ele>
        <time>2022-02-12T08:19:02Z</time>
      </trkpt>
      <trkpt lat="43.08944" lon="-0.09572">
        <ele>711.6</ele>
        <time>2022-02-12T08:19:03Z</time>
      </trkpt>
      <trkpt lat="43.08944" lon="-0.09572">
        <ele>711.8</ele>
        <time>2022-02-12T08:19:04Z</time>
      </trkpt>
      <trkpt lat="43.08944" lon="-0.09572">
        <ele>711.8</ele>
        <time>2022-02-12T08:19:05Z</time>
      </trkpt>
      <trkpt lat="43.08944" lon="-0.09572">
        <ele>711.8</ele>
        <time>2022-02-12T08:19:06Z</time>
      </trkpt>
      <trkpt lat="43.08944" lon="-0.09572">
        <ele>711.8</ele>
        <time>2022-02-12T08:19:07Z</time>
      </trkpt>
      <trkpt lat="43.08944" lon="-0.09572">
        <ele>711.8</ele>
        <time>2022-02-12T08:19:08Z</time>
      </trkpt>
      <trkpt lat="43.08944" lon="-0.09572">
        <ele>711.8</ele>
        <time>2022-02-12T08:19:09Z</time>
      </trkpt>
      <trkpt lat="43.08943" lon="-0.09572">
        <ele>711.8</ele>
        <time>2022-02-12T08:19:10Z</time>
      </trkpt>
      <trkpt lat="43.08943" lon="-0.09572">
        <ele>712</ele>
        <time>2022-02-12T08:19:11Z</time>
      </trkpt>
      <trkpt lat="43.08943" lon="-0.09572">
        <ele>712</ele>
        <time>2022-02-12T08:19:12Z</time>
      </trkpt>
      <trkpt lat="43.08943" lon="-0.09572">
        <ele>712.2</ele>
        <time>2022-02-12T08:19:13Z</time>
      </trkpt>
      <trkpt lat="43.08943" lon="-0.09572">
        <ele>712.2</ele>
        <time>2022-02-12T08:19:14Z</time>
      </trkpt>
      <trkpt lat="43.08943" lon="-0.09572">
        <ele>712.4</ele>
        <time>2022-02-12T08:19:15Z</time>
      </trkpt>
      <trkpt lat="43.08943" lon="-0.09572">
        <ele>712.4</ele>
        <time>2022-02-12T08:19:16Z</time>
      </trkpt>
      <trkpt lat="43.08943" lon="-0.09572">
        <ele>712.6</ele>
        <time>2022-02-12T08:19:17Z</time>
      </trkpt>
      <trkpt lat="43.08943" lon="-0.09573">
        <ele>712.6</ele>
        <time>2022-02-12T08:19:18Z</time>
      </trkpt>
      <trkpt lat="43.08943" lon="-0.09573">
        <ele>712.8</ele>
        <time>2022-02-12T08:19:19Z</time>
      </trkpt>
      <trkpt lat="43.08943" lon="-0.09573">
        <ele>712.8</ele>
        <time>2022-02-12T08:19:20Z</time>
      </trkpt>
      <trkpt lat="43.08942" lon="-0.09574">
        <ele>712.8</ele>
        <time>2022-02-12T08:19:21Z</time>
      </trkpt>
      <trkpt lat="43.08941" lon="-0.09576">
        <ele>713</ele>
        <time>2022-02-12T08:19:22Z</time>
      </trkpt>
      <trkpt lat="43.0894" lon="-0.09576">
        <ele>713</ele>
        <time>2022-02-12T08:19:23Z</time>
      </trkpt>
      <trkpt lat="43.0894" lon="-0.09576">
        <ele>713.2</ele>
        <time>2022-02-12T08:19:24Z</time>
      </trkpt>
      <trkpt lat="43.0894" lon="-0.09576">
        <ele>713.2</ele>
        <time>2022-02-12T08:19:25Z</time>
      </trkpt>
      <trkpt lat="43.0894" lon="-0.09576">
        <ele>713.2</ele>
        <time>2022-02-12T08:19:26Z</time>
      </trkpt>
      <trkpt lat="43.0894" lon="-0.09576">
        <ele>713.6</ele>
        <time>2022-02-12T08:19:27Z</time>
      </trkpt>
      <trkpt lat="43.0894" lon="-0.09576">
        <ele>713.6</ele>
        <time>2022-02-12T08:19:28Z</time>
      </trkpt>
      <trkpt lat="43.0894" lon="-0.09576">
        <ele>713.8</ele>
        <time>2022-02-12T08:19:29Z</time>
      </trkpt>
      <trkpt lat="43.0894" lon="-0.09576">
        <ele>714</ele>
        <time>2022-02-12T08:19:30Z</time>
      </trkpt>
      <trkpt lat="43.0894" lon="-0.09576">
        <ele>714</ele>
        <time>2022-02-12T08:19:31Z</time>
      </trkpt>
      <trkpt lat="43.0894" lon="-0.09576">
        <ele>714.2</ele>
        <time>2022-02-12T08:19:32Z</time>
      </trkpt>
      <trkpt lat="43.0894" lon="-0.09577">
        <ele>714.2</ele>
        <time>2022-02-12T08:19:33Z</time>
      </trkpt>
      <trkpt lat="43.08939" lon="-0.09577">
        <ele>714.2</ele>
        <time>2022-02-12T08:19:34Z</time>
      </trkpt>
      <trkpt lat="43.08939" lon="-0.09578">
        <ele>714.4</ele>
        <time>2022-02-12T08:19:35Z</time>
      </trkpt>
      <trkpt lat="43.08939" lon="-0.09578">
        <ele>714.4</ele>
        <time>2022-02-12T08:19:36Z</time>
      </trkpt>
      <trkpt lat="43.08939" lon="-0.09578">
        <ele>714.4</ele>
        <time>2022-02-12T08:19:37Z</time>
      </trkpt>
      <trkpt lat="43.08939" lon="-0.09578">
        <ele>714.4</ele>
        <time>2022-02-12T08:19:38Z</time>
      </trkpt>
      <trkpt lat="43.08939" lon="-0.09578">
        <ele>714.4</ele>
        <time>2022-02-12T08:19:39Z</time>
      </trkpt>
      <trkpt lat="43.08939" lon="-0.09578">
        <ele>714.4</ele>
        <time>2022-02-12T08:19:40Z</time>
      </trkpt>
      <trkpt lat="43.08939" lon="-0.09578">
        <ele>714.4</ele>
        <time>2022-02-12T08:19:41Z</time>
      </trkpt>
      <trkpt lat="43.08939" lon="-0.09578">
        <ele>714.4</ele>
        <time>2022-02-12T08:19:42Z</time>
      </trkpt>
      <trkpt lat="43.08939" lon="-0.09578">
        <ele>714.4</ele>
        <time>2022-02-12T08:19:43Z</time>
      </trkpt>
      <trkpt lat="43.08939" lon="-0.09578">
        <ele>714.6</ele>
        <time>2022-02-12T08:19:44Z</time>
      </trkpt>
      <trkpt lat="43.08939" lon="-0.09578">
        <ele>714.6</ele>
        <time>2022-02-12T08:19:45Z</time>
      </trkpt>
      <trkpt lat="43.08939" lon="-0.09578">
        <ele>714.6</ele>
        <time>2022-02-12T08:19:46Z</time>
      </trkpt>
      <trkpt lat="43.08939" lon="-0.09578">
        <ele>714.6</ele>
        <time>2022-02-12T08:19:47Z</time>
      </trkpt>
      <trkpt lat="43.08939" lon="-0.09578">
        <ele>714.6</ele>
        <time>2022-02-12T08:19:48Z</time>
      </trkpt>
      <trkpt lat="43.08939" lon="-0.09578">
        <ele>714.6</ele>
        <time>2022-02-12T08:19:49Z</time>
      </trkpt>
      <trkpt lat="43.08939" lon="-0.09578">
        <ele>714.8</ele>
        <time>2022-02-12T08:19:50Z</time>
      </trkpt>
      <trkpt lat="43.08939" lon="-0.09578">
        <ele>715</ele>
        <time>2022-02-12T08:19:51Z</time>
      </trkpt>
      <trkpt lat="43.08939" lon="-0.09578">
        <ele>715</ele>
        <time>2022-02-12T08:19:52Z</time>
      </trkpt>
      <trkpt lat="43.08939" lon="-0.09578">
        <ele>715</ele>
        <time>2022-02-12T08:19:53Z</time>
      </trkpt>
      <trkpt lat="43.08939" lon="-0.09578">
        <ele>715.2</ele>
        <time>2022-02-12T08:19:54Z</time>
      </trkpt>
      <trkpt lat="43.08939" lon="-0.09578">
        <ele>715.4</ele>
        <time>2022-02-12T08:19:55Z</time>
      </trkpt>
      <trkpt lat="43.08939" lon="-0.09578">
        <ele>715.6</ele>
        <time>2022-02-12T08:19:56Z</time>
      </trkpt>
      <trkpt lat="43.08939" lon="-0.09578">
        <ele>715.6</ele>
        <time>2022-02-12T08:19:57Z</time>
      </trkpt>
      <trkpt lat="43.08939" lon="-0.09578">
        <ele>715.8</ele>
        <time>2022-02-12T08:19:58Z</time>
      </trkpt>
      <trkpt lat="43.08939" lon="-0.09578">
        <ele>715.8</ele>
        <time>2022-02-12T08:19:59Z</time>
      </trkpt>
      <trkpt lat="43.08939" lon="-0.09578">
        <ele>716</ele>
        <time>2022-02-12T08:20:00Z</time>
      </trkpt>
      <trkpt lat="43.08939" lon="-0.09578">
        <ele>716.2</ele>
        <time>2022-02-12T08:20:01Z</time>
      </trkpt>
      <trkpt lat="43.08939" lon="-0.09578">
        <ele>716.2</ele>
        <time>2022-02-12T08:20:02Z</time>
      </trkpt>
      <trkpt lat="43.08939" lon="-0.09578">
        <ele>716.4</ele>
        <time>2022-02-12T08:20:03Z</time>
      </trkpt>
      <trkpt lat="43.08939" lon="-0.09578">
        <ele>716.4</ele>
        <time>2022-02-12T08:20:04Z</time>
      </trkpt>
      <trkpt lat="43.08939" lon="-0.09578">
        <ele>716.6</ele>
        <time>2022-02-12T08:20:05Z</time>
      </trkpt>
      <trkpt lat="43.08938" lon="-0.09578">
        <ele>716.6</ele>
        <time>2022-02-12T08:20:06Z</time>
      </trkpt>
      <trkpt lat="43.08936" lon="-0.09578">
        <ele>716.6</ele>
        <time>2022-02-12T08:20:07Z</time>
      </trkpt>
      <trkpt lat="43.08935" lon="-0.09579">
        <ele>716.6</ele>
        <time>2022-02-12T08:20:08Z</time>
      </trkpt>
      <trkpt lat="43.08934" lon="-0.09579">
        <ele>716.8</ele>
        <time>2022-02-12T08:20:09Z</time>
      </trkpt>
      <trkpt lat="43.08934" lon="-0.09579">
        <ele>716.8</ele>
        <time>2022-02-12T08:20:10Z</time>
      </trkpt>
      <trkpt lat="43.08934" lon="-0.09579">
        <ele>717</ele>
        <time>2022-02-12T08:20:11Z</time>
      </trkpt>
      <trkpt lat="43.08933" lon="-0.09579">
        <ele>717</ele>
        <time>2022-02-12T08:20:12Z</time>
      </trkpt>
      <trkpt lat="43.08933" lon="-0.09579">
        <ele>717.2</ele>
        <time>2022-02-12T08:20:13Z</time>
      </trkpt>
      <trkpt lat="43.08933" lon="-0.09579">
        <ele>717.2</ele>
        <time>2022-02-12T08:20:14Z</time>
      </trkpt>
      <trkpt lat="43.08933" lon="-0.09579">
        <ele>717.6</ele>
        <time>2022-02-12T08:20:15Z</time>
      </trkpt>
      <trkpt lat="43.08933" lon="-0.0958">
        <ele>717.6</ele>
        <time>2022-02-12T08:20:16Z</time>
      </trkpt>
      <trkpt lat="43.08927" lon="-0.09581">
        <ele>717.8</ele>
        <time>2022-02-12T08:20:17Z</time>
      </trkpt>
      <trkpt lat="43.08926" lon="-0.09582">
        <ele>717.8</ele>
        <time>2022-02-12T08:20:18Z</time>
      </trkpt>
      <trkpt lat="43.08923" lon="-0.09583">
        <ele>718</ele>
        <time>2022-02-12T08:20:19Z</time>
      </trkpt>
      <trkpt lat="43.08921" lon="-0.09583">
        <ele>718</ele>
        <time>2022-02-12T08:20:20Z</time>
      </trkpt>
      <trkpt lat="43.08921" lon="-0.09584">
        <ele>718</ele>
        <time>2022-02-12T08:20:21Z</time>
      </trkpt>
      <trkpt lat="43.0892" lon="-0.09584">
        <ele>718.2</ele>
        <time>2022-02-12T08:20:22Z</time>
      </trkpt>
      <trkpt lat="43.08919" lon="-0.09585">
        <ele>718.2</ele>
        <time>2022-02-12T08:20:23Z</time>
      </trkpt>
      <trkpt lat="43.08918" lon="-0.09586">
        <ele>718.4</ele>
        <time>2022-02-12T08:20:24Z</time>
      </trkpt>
      <trkpt lat="43.08917" lon="-0.09586">
        <ele>718.4</ele>
        <time>2022-02-12T08:20:25Z</time>
      </trkpt>
      <trkpt lat="43.08917" lon="-0.09586">
        <ele>718.6</ele>
        <time>2022-02-12T08:20:26Z</time>
      </trkpt>
      <trkpt lat="43.08917" lon="-0.09586">
        <ele>718.6</ele>
        <time>2022-02-12T08:20:27Z</time>
      </trkpt>
      <trkpt lat="43.08917" lon="-0.09586">
        <ele>718.8</ele>
        <time>2022-02-12T08:20:28Z</time>
      </trkpt>
      <trkpt lat="43.08917" lon="-0.09586">
        <ele>719</ele>
        <time>2022-02-12T08:20:29Z</time>
      </trkpt>
      <trkpt lat="43.08917" lon="-0.09586">
        <ele>719</ele>
        <time>2022-02-12T08:20:30Z</time>
      </trkpt>
      <trkpt lat="43.08916" lon="-0.09587">
        <ele>719</ele>
        <time>2022-02-12T08:20:31Z</time>
      </trkpt>
      <trkpt lat="43.08916" lon="-0.09587">
        <ele>719.4</ele>
        <time>2022-02-12T08:20:32Z</time>
      </trkpt>
      <trkpt lat="43.08916" lon="-0.09587">
        <ele>719.4</ele>
        <time>2022-02-12T08:20:33Z</time>
      </trkpt>
      <trkpt lat="43.08916" lon="-0.09587">
        <ele>719.4</ele>
        <time>2022-02-12T08:20:34Z</time>
      </trkpt>
      <trkpt lat="43.08916" lon="-0.09587">
        <ele>719.6</ele>
        <time>2022-02-12T08:20:35Z</time>
      </trkpt>
      <trkpt lat="43.08916" lon="-0.09587">
        <ele>719.6</ele>
        <time>2022-02-12T08:20:36Z</time>
      </trkpt>
      <trkpt lat="43.08916" lon="-0.09587">
        <ele>719.6</ele>
        <time>2022-02-12T08:20:37Z</time>
      </trkpt>
      <trkpt lat="43.08916" lon="-0.09587">
        <ele>719.6</ele>
        <time>2022-02-12T08:20:38Z</time>
      </trkpt>
      <trkpt lat="43.08916" lon="-0.09587">
        <ele>719.6</ele>
        <time>2022-02-12T08:20:39Z</time>
      </trkpt>
      <trkpt lat="43.08916" lon="-0.09587">
        <ele>719.8</ele>
        <time>2022-02-12T08:20:40Z</time>
      </trkpt>
      <trkpt lat="43.08916" lon="-0.09587">
        <ele>720</ele>
        <time>2022-02-12T08:20:41Z</time>
      </trkpt>
      <trkpt lat="43.08916" lon="-0.09587">
        <ele>720.2</ele>
        <time>2022-02-12T08:20:42Z</time>
      </trkpt>
      <trkpt lat="43.08916" lon="-0.09587">
        <ele>720.4</ele>
        <time>2022-02-12T08:20:43Z</time>
      </trkpt>
      <trkpt lat="43.08916" lon="-0.09587">
        <ele>720.6</ele>
        <time>2022-02-12T08:20:44Z</time>
      </trkpt>
      <trkpt lat="43.08916" lon="-0.09587">
        <ele>720.6</ele>
        <time>2022-02-12T08:20:45Z</time>
      </trkpt>
      <trkpt lat="43.08916" lon="-0.09587">
        <ele>720.8</ele>
        <time>2022-02-12T08:20:46Z</time>
      </trkpt>
      <trkpt lat="43.08916" lon="-0.09587">
        <ele>721</ele>
        <time>2022-02-12T08:20:47Z</time>
      </trkpt>
      <trkpt lat="43.08916" lon="-0.09587">
        <ele>721.2</ele>
        <time>2022-02-12T08:20:48Z</time>
      </trkpt>
      <trkpt lat="43.08916" lon="-0.09587">
        <ele>721.4</ele>
        <time>2022-02-12T08:20:49Z</time>
      </trkpt>
      <trkpt lat="43.08916" lon="-0.09587">
        <ele>721.4</ele>
        <time>2022-02-12T08:20:50Z</time>
      </trkpt>
      <trkpt lat="43.08916" lon="-0.09587">
        <ele>721.6</ele>
        <time>2022-02-12T08:20:51Z</time>
      </trkpt>
      <trkpt lat="43.08916" lon="-0.09587">
        <ele>721.6</ele>
        <time>2022-02-12T08:20:52Z</time>
      </trkpt>
      <trkpt lat="43.08916" lon="-0.09587">
        <ele>721.8</ele>
        <time>2022-02-12T08:20:53Z</time>
      </trkpt>
      <trkpt lat="43.08916" lon="-0.09587">
        <ele>721.8</ele>
        <time>2022-02-12T08:20:54Z</time>
      </trkpt>
      <trkpt lat="43.08916" lon="-0.09587">
        <ele>721.8</ele>
        <time>2022-02-12T08:20:55Z</time>
      </trkpt>
      <trkpt lat="43.08916" lon="-0.09587">
        <ele>721.8</ele>
        <time>2022-02-12T08:20:56Z</time>
      </trkpt>
      <trkpt lat="43.08916" lon="-0.09587">
        <ele>721.8</ele>
        <time>2022-02-12T08:20:57Z</time>
      </trkpt>
      <trkpt lat="43.08916" lon="-0.09587">
        <ele>722</ele>
        <time>2022-02-12T08:20:58Z</time>
      </trkpt>
      <trkpt lat="43.08916" lon="-0.09587">
        <ele>722.2</ele>
        <time>2022-02-12T08:20:59Z</time>
      </trkpt>
      <trkpt lat="43.08916" lon="-0.09587">
        <ele>722.2</ele>
        <time>2022-02-12T08:21:00Z</time>
      </trkpt>
      <trkpt lat="43.08916" lon="-0.09587">
        <ele>722.2</ele>
        <time>2022-02-12T08:21:01Z</time>
      </trkpt>
      <trkpt lat="43.08916" lon="-0.09587">
        <ele>722.2</ele>
        <time>2022-02-12T08:21:02Z</time>
      </trkpt>
      <trkpt lat="43.08916" lon="-0.09587">
        <ele>722.4</ele>
        <time>2022-02-12T08:21:03Z</time>
      </trkpt>
      <trkpt lat="43.08916" lon="-0.09587">
        <ele>722.4</ele>
        <time>2022-02-12T08:21:04Z</time>
      </trkpt>
      <trkpt lat="43.08916" lon="-0.09587">
        <ele>722.4</ele>
        <time>2022-02-12T08:21:05Z</time>
      </trkpt>
      <trkpt lat="43.08916" lon="-0.09587">
        <ele>722.6</ele>
        <time>2022-02-12T08:21:06Z</time>
      </trkpt>
      <trkpt lat="43.08916" lon="-0.09587">
        <ele>722.6</ele>
        <time>2022-02-12T08:21:07Z</time>
      </trkpt>
      <trkpt lat="43.08916" lon="-0.09587">
        <ele>722.6</ele>
        <time>2022-02-12T08:21:08Z</time>
      </trkpt>
      <trkpt lat="43.08916" lon="-0.09587">
        <ele>722.8</ele>
        <time>2022-02-12T08:21:09Z</time>
      </trkpt>
      <trkpt lat="43.08916" lon="-0.09587">
        <ele>722.8</ele>
        <time>2022-02-12T08:21:10Z</time>
      </trkpt>
      <trkpt lat="43.08916" lon="-0.09587">
        <ele>722.8</ele>
        <time>2022-02-12T08:21:11Z</time>
      </trkpt>
      <trkpt lat="43.08916" lon="-0.09587">
        <ele>722.8</ele>
        <time>2022-02-12T08:21:12Z</time>
      </trkpt>
      <trkpt lat="43.08916" lon="-0.09587">
        <ele>722.8</ele>
        <time>2022-02-12T08:21:13Z</time>
      </trkpt>
      <trkpt lat="43.08916" lon="-0.09587">
        <ele>723</ele>
        <time>2022-02-12T08:21:14Z</time>
      </trkpt>
      <trkpt lat="43.08916" lon="-0.09587">
        <ele>723.2</ele>
        <time>2022-02-12T08:21:15Z</time>
      </trkpt>
      <trkpt lat="43.08915" lon="-0.09587">
        <ele>723.2</ele>
        <time>2022-02-12T08:21:16Z</time>
      </trkpt>
      <trkpt lat="43.08915" lon="-0.09587">
        <ele>723.2</ele>
        <time>2022-02-12T08:21:17Z</time>
      </trkpt>
      <trkpt lat="43.08915" lon="-0.09587">
        <ele>723.2</ele>
        <time>2022-02-12T08:21:18Z</time>
      </trkpt>
      <trkpt lat="43.08915" lon="-0.09588">
        <ele>723.2</ele>
        <time>2022-02-12T08:21:19Z</time>
      </trkpt>
      <trkpt lat="43.08915" lon="-0.09588">
        <ele>723.2</ele>
        <time>2022-02-12T08:21:20Z</time>
      </trkpt>
      <trkpt lat="43.08915" lon="-0.09588">
        <ele>723.2</ele>
        <time>2022-02-12T08:21:21Z</time>
      </trkpt>
      <trkpt lat="43.08915" lon="-0.09588">
        <ele>723.2</ele>
        <time>2022-02-12T08:21:22Z</time>
      </trkpt>
      <trkpt lat="43.08915" lon="-0.09588">
        <ele>723.2</ele>
        <time>2022-02-12T08:21:23Z</time>
      </trkpt>
      <trkpt lat="43.08915" lon="-0.09588">
        <ele>723.4</ele>
        <time>2022-02-12T08:21:24Z</time>
      </trkpt>
      <trkpt lat="43.08915" lon="-0.09588">
        <ele>723.6</ele>
        <time>2022-02-12T08:21:25Z</time>
      </trkpt>
      <trkpt lat="43.08915" lon="-0.09588">
        <ele>723.6</ele>
        <time>2022-02-12T08:21:26Z</time>
      </trkpt>
      <trkpt lat="43.08915" lon="-0.09588">
        <ele>723.8</ele>
        <time>2022-02-12T08:21:27Z</time>
      </trkpt>
      <trkpt lat="43.08915" lon="-0.09588">
        <ele>724</ele>
        <time>2022-02-12T08:21:28Z</time>
      </trkpt>
      <trkpt lat="43.08915" lon="-0.09588">
        <ele>724.2</ele>
        <time>2022-02-12T08:21:29Z</time>
      </trkpt>
      <trkpt lat="43.08915" lon="-0.09588">
        <ele>724.2</ele>
        <time>2022-02-12T08:21:30Z</time>
      </trkpt>
      <trkpt lat="43.08915" lon="-0.09588">
        <ele>724.4</ele>
        <time>2022-02-12T08:21:31Z</time>
      </trkpt>
      <trkpt lat="43.08915" lon="-0.09588">
        <ele>724.6</ele>
        <time>2022-02-12T08:21:32Z</time>
      </trkpt>
      <trkpt lat="43.08914" lon="-0.09588">
        <ele>724.6</ele>
        <time>2022-02-12T08:21:33Z</time>
      </trkpt>
      <trkpt lat="43.08913" lon="-0.09588">
        <ele>724.8</ele>
        <time>2022-02-12T08:21:34Z</time>
      </trkpt>
      <trkpt lat="43.08912" lon="-0.09587">
        <ele>725</ele>
        <time>2022-02-12T08:21:35Z</time>
      </trkpt>
      <trkpt lat="43.08912" lon="-0.09587">
        <ele>725</ele>
        <time>2022-02-12T08:21:36Z</time>
      </trkpt>
      <trkpt lat="43.08911" lon="-0.09587">
        <ele>725.4</ele>
        <time>2022-02-12T08:21:37Z</time>
      </trkpt>
      <trkpt lat="43.08909" lon="-0.09587">
        <ele>725.6</ele>
        <time>2022-02-12T08:21:38Z</time>
      </trkpt>
      <trkpt lat="43.08908" lon="-0.09586">
        <ele>725.8</ele>
        <time>2022-02-12T08:21:39Z</time>
      </trkpt>
      <trkpt lat="43.08907" lon="-0.09586">
        <ele>725.8</ele>
        <time>2022-02-12T08:21:40Z</time>
      </trkpt>
      <trkpt lat="43.08904" lon="-0.09585">
        <ele>726</ele>
        <time>2022-02-12T08:21:41Z</time>
      </trkpt>
      <trkpt lat="43.08903" lon="-0.09584">
        <ele>726.2</ele>
        <time>2022-02-12T08:21:42Z</time>
      </trkpt>
      <trkpt lat="43.089" lon="-0.09584">
        <ele>726.2</ele>
        <time>2022-02-12T08:21:43Z</time>
      </trkpt>
      <trkpt lat="43.08898" lon="-0.09583">
        <ele>726.4</ele>
        <time>2022-02-12T08:21:44Z</time>
      </trkpt>
      <trkpt lat="43.08895" lon="-0.09583">
        <ele>726.4</ele>
        <time>2022-02-12T08:21:45Z</time>
      </trkpt>
      <trkpt lat="43.08894" lon="-0.09582">
        <ele>726.4</ele>
        <time>2022-02-12T08:21:46Z</time>
      </trkpt>
      <trkpt lat="43.08893" lon="-0.09582">
        <ele>726.6</ele>
        <time>2022-02-12T08:21:47Z</time>
      </trkpt>
      <trkpt lat="43.08892" lon="-0.09582">
        <ele>726.6</ele>
        <time>2022-02-12T08:21:48Z</time>
      </trkpt>
      <trkpt lat="43.08892" lon="-0.09582">
        <ele>726.8</ele>
        <time>2022-02-12T08:21:49Z</time>
      </trkpt>
      <trkpt lat="43.08891" lon="-0.09583">
        <ele>727</ele>
        <time>2022-02-12T08:21:50Z</time>
      </trkpt>
      <trkpt lat="43.0889" lon="-0.09582">
        <ele>727.2</ele>
        <time>2022-02-12T08:21:51Z</time>
      </trkpt>
      <trkpt lat="43.08889" lon="-0.09582">
        <ele>727.4</ele>
        <time>2022-02-12T08:21:52Z</time>
      </trkpt>
      <trkpt lat="43.08889" lon="-0.09582">
        <ele>727.4</ele>
        <time>2022-02-12T08:21:53Z</time>
      </trkpt>
      <trkpt lat="43.08889" lon="-0.09582">
        <ele>727.4</ele>
        <time>2022-02-12T08:21:54Z</time>
      </trkpt>
      <trkpt lat="43.08889" lon="-0.09582">
        <ele>727.6</ele>
        <time>2022-02-12T08:21:55Z</time>
      </trkpt>
      <trkpt lat="43.08889" lon="-0.09582">
        <ele>727.6</ele>
        <time>2022-02-12T08:21:56Z</time>
      </trkpt>
      <trkpt lat="43.08886" lon="-0.0958">
        <ele>727.8</ele>
        <time>2022-02-12T08:21:57Z</time>
      </trkpt>
      <trkpt lat="43.08883" lon="-0.09579">
        <ele>728</ele>
        <time>2022-02-12T08:21:58Z</time>
      </trkpt>
      <trkpt lat="43.08883" lon="-0.09579">
        <ele>728</ele>
        <time>2022-02-12T08:21:59Z</time>
      </trkpt>
      <trkpt lat="43.0888" lon="-0.09578">
        <ele>728.2</ele>
        <time>2022-02-12T08:22:00Z</time>
      </trkpt>
      <trkpt lat="43.08878" lon="-0.09578">
        <ele>728.4</ele>
        <time>2022-02-12T08:22:01Z</time>
      </trkpt>
      <trkpt lat="43.08875" lon="-0.09578">
        <ele>728.4</ele>
        <time>2022-02-12T08:22:02Z</time>
      </trkpt>
      <trkpt lat="43.08875" lon="-0.09578">
        <ele>728.6</ele>
        <time>2022-02-12T08:22:03Z</time>
      </trkpt>
      <trkpt lat="43.08875" lon="-0.09578">
        <ele>728.6</ele>
        <time>2022-02-12T08:22:04Z</time>
      </trkpt>
      <trkpt lat="43.08875" lon="-0.09578">
        <ele>728.8</ele>
        <time>2022-02-12T08:22:05Z</time>
      </trkpt>
      <trkpt lat="43.08875" lon="-0.09578">
        <ele>728.8</ele>
        <time>2022-02-12T08:22:06Z</time>
      </trkpt>
      <trkpt lat="43.08875" lon="-0.09578">
        <ele>728.8</ele>
        <time>2022-02-12T08:22:07Z</time>
      </trkpt>
      <trkpt lat="43.08875" lon="-0.09578">
        <ele>729</ele>
        <time>2022-02-12T08:22:08Z</time>
      </trkpt>
      <trkpt lat="43.08875" lon="-0.09578">
        <ele>729.2</ele>
        <time>2022-02-12T08:22:09Z</time>
      </trkpt>
      <trkpt lat="43.08875" lon="-0.09578">
        <ele>729.2</ele>
        <time>2022-02-12T08:22:10Z</time>
      </trkpt>
      <trkpt lat="43.08874" lon="-0.09579">
        <ele>729.2</ele>
        <time>2022-02-12T08:22:11Z</time>
      </trkpt>
      <trkpt lat="43.08873" lon="-0.09577">
        <ele>729.4</ele>
        <time>2022-02-12T08:22:12Z</time>
      </trkpt>
      <trkpt lat="43.08872" lon="-0.09577">
        <ele>729.4</ele>
        <time>2022-02-12T08:22:13Z</time>
      </trkpt>
      <trkpt lat="43.08872" lon="-0.09577">
        <ele>729.6</ele>
        <time>2022-02-12T08:22:14Z</time>
      </trkpt>
      <trkpt lat="43.08869" lon="-0.09578">
        <ele>729.6</ele>
        <time>2022-02-12T08:22:15Z</time>
      </trkpt>
      <trkpt lat="43.08869" lon="-0.09578">
        <ele>729.8</ele>
        <time>2022-02-12T08:22:16Z</time>
      </trkpt>
      <trkpt lat="43.08869" lon="-0.09578">
        <ele>729.8</ele>
        <time>2022-02-12T08:22:17Z</time>
      </trkpt>
      <trkpt lat="43.08869" lon="-0.09578">
        <ele>730</ele>
        <time>2022-02-12T08:22:18Z</time>
      </trkpt>
      <trkpt lat="43.08869" lon="-0.09578">
        <ele>730</ele>
        <time>2022-02-12T08:22:19Z</time>
      </trkpt>
      <trkpt lat="43.08869" lon="-0.09578">
        <ele>730.2</ele>
        <time>2022-02-12T08:22:20Z</time>
      </trkpt>
      <trkpt lat="43.08869" lon="-0.09578">
        <ele>730.2</ele>
        <time>2022-02-12T08:22:21Z</time>
      </trkpt>
      <trkpt lat="43.08869" lon="-0.09578">
        <ele>730.2</ele>
        <time>2022-02-12T08:22:22Z</time>
      </trkpt>
      <trkpt lat="43.08869" lon="-0.09578">
        <ele>730.2</ele>
        <time>2022-02-12T08:22:23Z</time>
      </trkpt>
      <trkpt lat="43.08869" lon="-0.09578">
        <ele>730.4</ele>
        <time>2022-02-12T08:22:24Z</time>
      </trkpt>
      <trkpt lat="43.08869" lon="-0.09578">
        <ele>730.4</ele>
        <time>2022-02-12T08:22:25Z</time>
      </trkpt>
      <trkpt lat="43.08869" lon="-0.09578">
        <ele>730.4</ele>
        <time>2022-02-12T08:22:26Z</time>
      </trkpt>
      <trkpt lat="43.08869" lon="-0.09578">
        <ele>730.4</ele>
        <time>2022-02-12T08:22:27Z</time>
      </trkpt>
      <trkpt lat="43.08869" lon="-0.09578">
        <ele>730.4</ele>
        <time>2022-02-12T08:22:28Z</time>
      </trkpt>
      <trkpt lat="43.08869" lon="-0.09578">
        <ele>730.4</ele>
        <time>2022-02-12T08:22:29Z</time>
      </trkpt>
      <trkpt lat="43.08869" lon="-0.09578">
        <ele>730.4</ele>
        <time>2022-02-12T08:22:30Z</time>
      </trkpt>
      <trkpt lat="43.08869" lon="-0.09578">
        <ele>730.6</ele>
        <time>2022-02-12T08:22:31Z</time>
      </trkpt>
      <trkpt lat="43.08869" lon="-0.09578">
        <ele>730.6</ele>
        <time>2022-02-12T08:22:32Z</time>
      </trkpt>
      <trkpt lat="43.08869" lon="-0.09578">
        <ele>730.8</ele>
        <time>2022-02-12T08:22:33Z</time>
      </trkpt>
      <trkpt lat="43.08869" lon="-0.09578">
        <ele>730.8</ele>
        <time>2022-02-12T08:22:34Z</time>
      </trkpt>
      <trkpt lat="43.08869" lon="-0.09578">
        <ele>730.8</ele>
        <time>2022-02-12T08:22:35Z</time>
      </trkpt>
      <trkpt lat="43.08869" lon="-0.09578">
        <ele>730.8</ele>
        <time>2022-02-12T08:22:36Z</time>
      </trkpt>
      <trkpt lat="43.08869" lon="-0.09578">
        <ele>730.8</ele>
        <time>2022-02-12T08:22:37Z</time>
      </trkpt>
      <trkpt lat="43.08869" lon="-0.09578">
        <ele>730.8</ele>
        <time>2022-02-12T08:22:38Z</time>
      </trkpt>
      <trkpt lat="43.08869" lon="-0.09578">
        <ele>730.8</ele>
        <time>2022-02-12T08:22:39Z</time>
      </trkpt>
      <trkpt lat="43.08869" lon="-0.09578">
        <ele>730.8</ele>
        <time>2022-02-12T08:22:40Z</time>
      </trkpt>
      <trkpt lat="43.08869" lon="-0.09578">
        <ele>731</ele>
        <time>2022-02-12T08:22:41Z</time>
      </trkpt>
      <trkpt lat="43.08869" lon="-0.09578">
        <ele>731</ele>
        <time>2022-02-12T08:22:42Z</time>
      </trkpt>
      <trkpt lat="43.08869" lon="-0.09578">
        <ele>731.2</ele>
        <time>2022-02-12T08:22:43Z</time>
      </trkpt>
      <trkpt lat="43.08869" lon="-0.09578">
        <ele>731.2</ele>
        <time>2022-02-12T08:22:44Z</time>
      </trkpt>
      <trkpt lat="43.08869" lon="-0.09578">
        <ele>731.4</ele>
        <time>2022-02-12T08:22:45Z</time>
      </trkpt>
      <trkpt lat="43.08869" lon="-0.09578">
        <ele>731.4</ele>
        <time>2022-02-12T08:22:46Z</time>
      </trkpt>
      <trkpt lat="43.08869" lon="-0.09578">
        <ele>731.6</ele>
        <time>2022-02-12T08:22:47Z</time>
      </trkpt>
      <trkpt lat="43.08869" lon="-0.09578">
        <ele>731.6</ele>
        <time>2022-02-12T08:22:48Z</time>
      </trkpt>
      <trkpt lat="43.08869" lon="-0.09578">
        <ele>731.6</ele>
        <time>2022-02-12T08:22:49Z</time>
      </trkpt>
      <trkpt lat="43.08869" lon="-0.09578">
        <ele>731.6</ele>
        <time>2022-02-12T08:22:50Z</time>
      </trkpt>
      <trkpt lat="43.08869" lon="-0.09578">
        <ele>731.8</ele>
        <time>2022-02-12T08:22:51Z</time>
      </trkpt>
      <trkpt lat="43.08868" lon="-0.09578">
        <ele>731.8</ele>
        <time>2022-02-12T08:22:52Z</time>
      </trkpt>
      <trkpt lat="43.08868" lon="-0.09578">
        <ele>731.8</ele>
        <time>2022-02-12T08:22:53Z</time>
      </trkpt>
      <trkpt lat="43.08868" lon="-0.09578">
        <ele>731.8</ele>
        <time>2022-02-12T08:22:54Z</time>
      </trkpt>
      <trkpt lat="43.08868" lon="-0.09578">
        <ele>731.8</ele>
        <time>2022-02-12T08:22:55Z</time>
      </trkpt>
      <trkpt lat="43.08868" lon="-0.09578">
        <ele>732</ele>
        <time>2022-02-12T08:22:56Z</time>
      </trkpt>
      <trkpt lat="43.08868" lon="-0.09578">
        <ele>732</ele>
        <time>2022-02-12T08:22:57Z</time>
      </trkpt>
      <trkpt lat="43.08868" lon="-0.09578">
        <ele>732.2</ele>
        <time>2022-02-12T08:22:58Z</time>
      </trkpt>
      <trkpt lat="43.08868" lon="-0.09578">
        <ele>732</ele>
        <time>2022-02-12T08:22:59Z</time>
      </trkpt>
      <trkpt lat="43.08868" lon="-0.09578">
        <ele>732</ele>
        <time>2022-02-12T08:23:00Z</time>
      </trkpt>
      <trkpt lat="43.08868" lon="-0.09578">
        <ele>732.2</ele>
        <time>2022-02-12T08:23:01Z</time>
      </trkpt>
      <trkpt lat="43.08868" lon="-0.09578">
        <ele>732.4</ele>
        <time>2022-02-12T08:23:02Z</time>
      </trkpt>
      <trkpt lat="43.08868" lon="-0.09578">
        <ele>732.4</ele>
        <time>2022-02-12T08:23:03Z</time>
      </trkpt>
      <trkpt lat="43.08868" lon="-0.09578">
        <ele>732.4</ele>
        <time>2022-02-12T08:23:04Z</time>
      </trkpt>
      <trkpt lat="43.08868" lon="-0.09578">
        <ele>732.6</ele>
        <time>2022-02-12T08:23:05Z</time>
      </trkpt>
      <trkpt lat="43.08868" lon="-0.09578">
        <ele>732.6</ele>
        <time>2022-02-12T08:23:06Z</time>
      </trkpt>
      <trkpt lat="43.08868" lon="-0.09578">
        <ele>732.6</ele>
        <time>2022-02-12T08:23:07Z</time>
      </trkpt>
      <trkpt lat="43.08868" lon="-0.09578">
        <ele>732.8</ele>
        <time>2022-02-12T08:23:08Z</time>
      </trkpt>
      <trkpt lat="43.08868" lon="-0.09578">
        <ele>733</ele>
        <time>2022-02-12T08:23:09Z</time>
      </trkpt>
      <trkpt lat="43.08868" lon="-0.09578">
        <ele>733</ele>
        <time>2022-02-12T08:23:10Z</time>
      </trkpt>
      <trkpt lat="43.08868" lon="-0.09578">
        <ele>733.2</ele>
        <time>2022-02-12T08:23:11Z</time>
      </trkpt>
      <trkpt lat="43.08868" lon="-0.09577">
        <ele>733.2</ele>
        <time>2022-02-12T08:23:12Z</time>
      </trkpt>
      <trkpt lat="43.08867" lon="-0.09577">
        <ele>733.4</ele>
        <time>2022-02-12T08:23:13Z</time>
      </trkpt>
      <trkpt lat="43.08867" lon="-0.09577">
        <ele>733.4</ele>
        <time>2022-02-12T08:23:14Z</time>
      </trkpt>
      <trkpt lat="43.08867" lon="-0.09577">
        <ele>733.4</ele>
        <time>2022-02-12T08:23:15Z</time>
      </trkpt>
      <trkpt lat="43.08867" lon="-0.09577">
        <ele>734</ele>
        <time>2022-02-12T08:23:16Z</time>
      </trkpt>
      <trkpt lat="43.08867" lon="-0.09577">
        <ele>734.2</ele>
        <time>2022-02-12T08:23:17Z</time>
      </trkpt>
      <trkpt lat="43.08866" lon="-0.09577">
        <ele>734.4</ele>
        <time>2022-02-12T08:23:18Z</time>
      </trkpt>
      <trkpt lat="43.08866" lon="-0.09576">
        <ele>734.4</ele>
        <time>2022-02-12T08:23:19Z</time>
      </trkpt>
      <trkpt lat="43.08866" lon="-0.09576">
        <ele>734.6</ele>
        <time>2022-02-12T08:23:20Z</time>
      </trkpt>
      <trkpt lat="43.08865" lon="-0.09576">
        <ele>734.6</ele>
        <time>2022-02-12T08:23:21Z</time>
      </trkpt>
      <trkpt lat="43.08864" lon="-0.09575">
        <ele>734.8</ele>
        <time>2022-02-12T08:23:22Z</time>
      </trkpt>
      <trkpt lat="43.08863" lon="-0.09575">
        <ele>735</ele>
        <time>2022-02-12T08:23:23Z</time>
      </trkpt>
      <trkpt lat="43.08861" lon="-0.09574">
        <ele>735</ele>
        <time>2022-02-12T08:23:24Z</time>
      </trkpt>
      <trkpt lat="43.0886" lon="-0.09574">
        <ele>735.2</ele>
        <time>2022-02-12T08:23:25Z</time>
      </trkpt>
      <trkpt lat="43.0886" lon="-0.09574">
        <ele>735.2</ele>
        <time>2022-02-12T08:23:26Z</time>
      </trkpt>
      <trkpt lat="43.0886" lon="-0.09574">
        <ele>735.2</ele>
        <time>2022-02-12T08:23:27Z</time>
      </trkpt>
      <trkpt lat="43.0886" lon="-0.09574">
        <ele>735.4</ele>
        <time>2022-02-12T08:23:28Z</time>
      </trkpt>
      <trkpt lat="43.0886" lon="-0.09574">
        <ele>735.4</ele>
        <time>2022-02-12T08:23:29Z</time>
      </trkpt>
      <trkpt lat="43.0886" lon="-0.09574">
        <ele>735.4</ele>
        <time>2022-02-12T08:23:30Z</time>
      </trkpt>
      <trkpt lat="43.0886" lon="-0.09574">
        <ele>735.4</ele>
        <time>2022-02-12T08:23:31Z</time>
      </trkpt>
      <trkpt lat="43.0886" lon="-0.09572">
        <ele>735.4</ele>
        <time>2022-02-12T08:23:32Z</time>
      </trkpt>
      <trkpt lat="43.0886" lon="-0.09572">
        <ele>735.6</ele>
        <time>2022-02-12T08:23:33Z</time>
      </trkpt>
      <trkpt lat="43.0886" lon="-0.09572">
        <ele>735.6</ele>
        <time>2022-02-12T08:23:34Z</time>
      </trkpt>
      <trkpt lat="43.0886" lon="-0.09572">
        <ele>735.6</ele>
        <time>2022-02-12T08:23:35Z</time>
      </trkpt>
      <trkpt lat="43.0886" lon="-0.09572">
        <ele>735.8</ele>
        <time>2022-02-12T08:23:36Z</time>
      </trkpt>
      <trkpt lat="43.0886" lon="-0.09572">
        <ele>736</ele>
        <time>2022-02-12T08:23:37Z</time>
      </trkpt>
      <trkpt lat="43.08859" lon="-0.09572">
        <ele>736</ele>
        <time>2022-02-12T08:23:38Z</time>
      </trkpt>
      <trkpt lat="43.08858" lon="-0.09572">
        <ele>736.2</ele>
        <time>2022-02-12T08:23:39Z</time>
      </trkpt>
      <trkpt lat="43.08858" lon="-0.09572">
        <ele>736.4</ele>
        <time>2022-02-12T08:23:40Z</time>
      </trkpt>
      <trkpt lat="43.08858" lon="-0.09572">
        <ele>736.4</ele>
        <time>2022-02-12T08:23:41Z</time>
      </trkpt>
      <trkpt lat="43.08858" lon="-0.09572">
        <ele>736.6</ele>
        <time>2022-02-12T08:23:42Z</time>
      </trkpt>
      <trkpt lat="43.08858" lon="-0.09572">
        <ele>736.6</ele>
        <time>2022-02-12T08:23:43Z</time>
      </trkpt>
      <trkpt lat="43.08857" lon="-0.09571">
        <ele>736.6</ele>
        <time>2022-02-12T08:23:44Z</time>
      </trkpt>
      <trkpt lat="43.08857" lon="-0.09571">
        <ele>736.6</ele>
        <time>2022-02-12T08:23:45Z</time>
      </trkpt>
      <trkpt lat="43.08857" lon="-0.09571">
        <ele>736.6</ele>
        <time>2022-02-12T08:23:46Z</time>
      </trkpt>
      <trkpt lat="43.08857" lon="-0.09571">
        <ele>736.6</ele>
        <time>2022-02-12T08:23:47Z</time>
      </trkpt>
      <trkpt lat="43.08857" lon="-0.09571">
        <ele>736.6</ele>
        <time>2022-02-12T08:23:48Z</time>
      </trkpt>
      <trkpt lat="43.08857" lon="-0.09571">
        <ele>736.6</ele>
        <time>2022-02-12T08:23:49Z</time>
      </trkpt>
      <trkpt lat="43.08857" lon="-0.0957">
        <ele>736.6</ele>
        <time>2022-02-12T08:23:50Z</time>
      </trkpt>
      <trkpt lat="43.08857" lon="-0.0957">
        <ele>736.8</ele>
        <time>2022-02-12T08:23:51Z</time>
      </trkpt>
      <trkpt lat="43.08857" lon="-0.0957">
        <ele>736.8</ele>
        <time>2022-02-12T08:23:52Z</time>
      </trkpt>
      <trkpt lat="43.08857" lon="-0.0957">
        <ele>736.8</ele>
        <time>2022-02-12T08:23:53Z</time>
      </trkpt>
      <trkpt lat="43.08857" lon="-0.0957">
        <ele>736.8</ele>
        <time>2022-02-12T08:23:54Z</time>
      </trkpt>
      <trkpt lat="43.08857" lon="-0.0957">
        <ele>736.6</ele>
        <time>2022-02-12T08:23:55Z</time>
      </trkpt>
      <trkpt lat="43.08857" lon="-0.0957">
        <ele>736.6</ele>
        <time>2022-02-12T08:23:56Z</time>
      </trkpt>
      <trkpt lat="43.08857" lon="-0.0957">
        <ele>736.8</ele>
        <time>2022-02-12T08:23:57Z</time>
      </trkpt>
      <trkpt lat="43.08857" lon="-0.0957">
        <ele>736.8</ele>
        <time>2022-02-12T08:23:58Z</time>
      </trkpt>
      <trkpt lat="43.08857" lon="-0.0957">
        <ele>736.8</ele>
        <time>2022-02-12T08:23:59Z</time>
      </trkpt>
      <trkpt lat="43.08857" lon="-0.0957">
        <ele>736.8</ele>
        <time>2022-02-12T08:24:00Z</time>
      </trkpt>
      <trkpt lat="43.08857" lon="-0.0957">
        <ele>736.8</ele>
        <time>2022-02-12T08:24:01Z</time>
      </trkpt>
      <trkpt lat="43.08857" lon="-0.0957">
        <ele>736.8</ele>
        <time>2022-02-12T08:24:02Z</time>
      </trkpt>
      <trkpt lat="43.08857" lon="-0.0957">
        <ele>736.8</ele>
        <time>2022-02-12T08:24:03Z</time>
      </trkpt>
      <trkpt lat="43.08857" lon="-0.0957">
        <ele>736.8</ele>
        <time>2022-02-12T08:24:04Z</time>
      </trkpt>
      <trkpt lat="43.08857" lon="-0.0957">
        <ele>736.8</ele>
        <time>2022-02-12T08:24:05Z</time>
      </trkpt>
      <trkpt lat="43.08857" lon="-0.0957">
        <ele>736.8</ele>
        <time>2022-02-12T08:24:06Z</time>
      </trkpt>
      <trkpt lat="43.08857" lon="-0.0957">
        <ele>736.8</ele>
        <time>2022-02-12T08:24:07Z</time>
      </trkpt>
      <trkpt lat="43.08857" lon="-0.0957">
        <ele>736.8</ele>
        <time>2022-02-12T08:24:08Z</time>
      </trkpt>
      <trkpt lat="43.08857" lon="-0.0957">
        <ele>736.8</ele>
        <time>2022-02-12T08:24:09Z</time>
      </trkpt>
      <trkpt lat="43.08857" lon="-0.0957">
        <ele>736.8</ele>
        <time>2022-02-12T08:24:10Z</time>
      </trkpt>
      <trkpt lat="43.08857" lon="-0.0957">
        <ele>736.8</ele>
        <time>2022-02-12T08:24:11Z</time>
      </trkpt>
      <trkpt lat="43.08857" lon="-0.0957">
        <ele>736.8</ele>
        <time>2022-02-12T08:24:12Z</time>
      </trkpt>
      <trkpt lat="43.08857" lon="-0.0957">
        <ele>737</ele>
        <time>2022-02-12T08:24:13Z</time>
      </trkpt>
      <trkpt lat="43.08856" lon="-0.0957">
        <ele>737</ele>
        <time>2022-02-12T08:24:14Z</time>
      </trkpt>
      <trkpt lat="43.08856" lon="-0.0957">
        <ele>737</ele>
        <time>2022-02-12T08:24:15Z</time>
      </trkpt>
      <trkpt lat="43.08856" lon="-0.0957">
        <ele>737.2</ele>
        <time>2022-02-12T08:24:16Z</time>
      </trkpt>
      <trkpt lat="43.08856" lon="-0.0957">
        <ele>737.2</ele>
        <time>2022-02-12T08:24:17Z</time>
      </trkpt>
      <trkpt lat="43.08856" lon="-0.0957">
        <ele>737.2</ele>
        <time>2022-02-12T08:24:18Z</time>
      </trkpt>
      <trkpt lat="43.08856" lon="-0.0957">
        <ele>737.2</ele>
        <time>2022-02-12T08:24:19Z</time>
      </trkpt>
      <trkpt lat="43.08856" lon="-0.0957">
        <ele>737.2</ele>
        <time>2022-02-12T08:24:20Z</time>
      </trkpt>
      <trkpt lat="43.08856" lon="-0.0957">
        <ele>737.2</ele>
        <time>2022-02-12T08:24:21Z</time>
      </trkpt>
      <trkpt lat="43.08856" lon="-0.0957">
        <ele>737.2</ele>
        <time>2022-02-12T08:24:22Z</time>
      </trkpt>
      <trkpt lat="43.08856" lon="-0.0957">
        <ele>737.2</ele>
        <time>2022-02-12T08:24:23Z</time>
      </trkpt>
      <trkpt lat="43.08855" lon="-0.09569">
        <ele>737.2</ele>
        <time>2022-02-12T08:24:24Z</time>
      </trkpt>
      <trkpt lat="43.08855" lon="-0.09569">
        <ele>737.4</ele>
        <time>2022-02-12T08:24:25Z</time>
      </trkpt>
      <trkpt lat="43.08855" lon="-0.09569">
        <ele>737.4</ele>
        <time>2022-02-12T08:24:26Z</time>
      </trkpt>
      <trkpt lat="43.08855" lon="-0.09569">
        <ele>737.4</ele>
        <time>2022-02-12T08:24:27Z</time>
      </trkpt>
      <trkpt lat="43.08855" lon="-0.09569">
        <ele>737.4</ele>
        <time>2022-02-12T08:24:28Z</time>
      </trkpt>
      <trkpt lat="43.08855" lon="-0.09569">
        <ele>737.4</ele>
        <time>2022-02-12T08:24:29Z</time>
      </trkpt>
      <trkpt lat="43.08855" lon="-0.09569">
        <ele>737.4</ele>
        <time>2022-02-12T08:24:30Z</time>
      </trkpt>
      <trkpt lat="43.08855" lon="-0.09569">
        <ele>737.4</ele>
        <time>2022-02-12T08:24:31Z</time>
      </trkpt>
      <trkpt lat="43.08855" lon="-0.09569">
        <ele>737.4</ele>
        <time>2022-02-12T08:24:32Z</time>
      </trkpt>
      <trkpt lat="43.08855" lon="-0.09569">
        <ele>737.4</ele>
        <time>2022-02-12T08:24:33Z</time>
      </trkpt>
      <trkpt lat="43.08855" lon="-0.09569">
        <ele>737.4</ele>
        <time>2022-02-12T08:24:34Z</time>
      </trkpt>
      <trkpt lat="43.08855" lon="-0.09569">
        <ele>737.8</ele>
        <time>2022-02-12T08:24:35Z</time>
      </trkpt>
      <trkpt lat="43.08855" lon="-0.09569">
        <ele>737.8</ele>
        <time>2022-02-12T08:24:36Z</time>
      </trkpt>
      <trkpt lat="43.08855" lon="-0.09569">
        <ele>737.8</ele>
        <time>2022-02-12T08:24:37Z</time>
      </trkpt>
      <trkpt lat="43.08855" lon="-0.09569">
        <ele>737.8</ele>
        <time>2022-02-12T08:24:38Z</time>
      </trkpt>
      <trkpt lat="43.08855" lon="-0.09569">
        <ele>737.8</ele>
        <time>2022-02-12T08:24:39Z</time>
      </trkpt>
      <trkpt lat="43.08855" lon="-0.09569">
        <ele>737.8</ele>
        <time>2022-02-12T08:24:40Z</time>
      </trkpt>
      <trkpt lat="43.08855" lon="-0.09569">
        <ele>737.8</ele>
        <time>2022-02-12T08:24:41Z</time>
      </trkpt>
      <trkpt lat="43.08855" lon="-0.09569">
        <ele>737.8</ele>
        <time>2022-02-12T08:24:42Z</time>
      </trkpt>
      <trkpt lat="43.08855" lon="-0.09569">
        <ele>737.8</ele>
        <time>2022-02-12T08:24:43Z</time>
      </trkpt>
      <trkpt lat="43.08855" lon="-0.09569">
        <ele>737.8</ele>
        <time>2022-02-12T08:24:44Z</time>
      </trkpt>
      <trkpt lat="43.08854" lon="-0.09568">
        <ele>737.8</ele>
        <time>2022-02-12T08:24:45Z</time>
      </trkpt>
      <trkpt lat="43.08854" lon="-0.09568">
        <ele>738</ele>
        <time>2022-02-12T08:24:46Z</time>
      </trkpt>
      <trkpt lat="43.08854" lon="-0.09568">
        <ele>738</ele>
        <time>2022-02-12T08:24:47Z</time>
      </trkpt>
      <trkpt lat="43.08854" lon="-0.09568">
        <ele>738</ele>
        <time>2022-02-12T08:24:48Z</time>
      </trkpt>
      <trkpt lat="43.08854" lon="-0.09568">
        <ele>738</ele>
        <time>2022-02-12T08:24:49Z</time>
      </trkpt>
      <trkpt lat="43.08853" lon="-0.09568">
        <ele>738</ele>
        <time>2022-02-12T08:24:50Z</time>
      </trkpt>
      <trkpt lat="43.08853" lon="-0.09568">
        <ele>737.8</ele>
        <time>2022-02-12T08:24:51Z</time>
      </trkpt>
      <trkpt lat="43.08853" lon="-0.09568">
        <ele>737.8</ele>
        <time>2022-02-12T08:24:52Z</time>
      </trkpt>
      <trkpt lat="43.08853" lon="-0.09568">
        <ele>737.8</ele>
        <time>2022-02-12T08:24:53Z</time>
      </trkpt>
      <trkpt lat="43.08853" lon="-0.09568">
        <ele>737.8</ele>
        <time>2022-02-12T08:24:54Z</time>
      </trkpt>
      <trkpt lat="43.08852" lon="-0.09568">
        <ele>737.8</ele>
        <time>2022-02-12T08:24:55Z</time>
      </trkpt>
      <trkpt lat="43.08852" lon="-0.09567">
        <ele>737.6</ele>
        <time>2022-02-12T08:24:56Z</time>
      </trkpt>
      <trkpt lat="43.08851" lon="-0.09567">
        <ele>737.6</ele>
        <time>2022-02-12T08:24:57Z</time>
      </trkpt>
      <trkpt lat="43.08851" lon="-0.09567">
        <ele>737.6</ele>
        <time>2022-02-12T08:24:58Z</time>
      </trkpt>
      <trkpt lat="43.08851" lon="-0.09567">
        <ele>737.6</ele>
        <time>2022-02-12T08:24:59Z</time>
      </trkpt>
      <trkpt lat="43.08851" lon="-0.09567">
        <ele>737.8</ele>
        <time>2022-02-12T08:25:00Z</time>
      </trkpt>
      <trkpt lat="43.08851" lon="-0.09567">
        <ele>737.8</ele>
        <time>2022-02-12T08:25:01Z</time>
      </trkpt>
      <trkpt lat="43.08851" lon="-0.09567">
        <ele>737.8</ele>
        <time>2022-02-12T08:25:02Z</time>
      </trkpt>
      <trkpt lat="43.08851" lon="-0.09567">
        <ele>737.8</ele>
        <time>2022-02-12T08:25:03Z</time>
      </trkpt>
      <trkpt lat="43.08851" lon="-0.09567">
        <ele>737.8</ele>
        <time>2022-02-12T08:25:04Z</time>
      </trkpt>
      <trkpt lat="43.08851" lon="-0.09567">
        <ele>737.8</ele>
        <time>2022-02-12T08:25:05Z</time>
      </trkpt>
      <trkpt lat="43.08851" lon="-0.09567">
        <ele>737.8</ele>
        <time>2022-02-12T08:25:06Z</time>
      </trkpt>
      <trkpt lat="43.08851" lon="-0.09567">
        <ele>737.8</ele>
        <time>2022-02-12T08:25:07Z</time>
      </trkpt>
      <trkpt lat="43.08851" lon="-0.09567">
        <ele>737.8</ele>
        <time>2022-02-12T08:25:08Z</time>
      </trkpt>
      <trkpt lat="43.08851" lon="-0.09567">
        <ele>737.8</ele>
        <time>2022-02-12T08:25:09Z</time>
      </trkpt>
      <trkpt lat="43.08851" lon="-0.09567">
        <ele>737.8</ele>
        <time>2022-02-12T08:25:10Z</time>
      </trkpt>
      <trkpt lat="43.08851" lon="-0.09567">
        <ele>738</ele>
        <time>2022-02-12T08:25:11Z</time>
      </trkpt>
      <trkpt lat="43.08851" lon="-0.09567">
        <ele>738</ele>
        <time>2022-02-12T08:25:12Z</time>
      </trkpt>
      <trkpt lat="43.08851" lon="-0.09567">
        <ele>738</ele>
        <time>2022-02-12T08:25:13Z</time>
      </trkpt>
      <trkpt lat="43.08851" lon="-0.09567">
        <ele>738.4</ele>
        <time>2022-02-12T08:25:14Z</time>
      </trkpt>
      <trkpt lat="43.08851" lon="-0.09567">
        <ele>738.4</ele>
        <time>2022-02-12T08:25:15Z</time>
      </trkpt>
      <trkpt lat="43.08851" lon="-0.09567">
        <ele>738.4</ele>
        <time>2022-02-12T08:25:16Z</time>
      </trkpt>
      <trkpt lat="43.08851" lon="-0.09567">
        <ele>738.4</ele>
        <time>2022-02-12T08:25:17Z</time>
      </trkpt>
      <trkpt lat="43.08851" lon="-0.09567">
        <ele>738.6</ele>
        <time>2022-02-12T08:25:18Z</time>
      </trkpt>
      <trkpt lat="43.08851" lon="-0.09567">
        <ele>738.6</ele>
        <time>2022-02-12T08:25:19Z</time>
      </trkpt>
      <trkpt lat="43.08851" lon="-0.09567">
        <ele>738.6</ele>
        <time>2022-02-12T08:25:20Z</time>
      </trkpt>
      <trkpt lat="43.08851" lon="-0.09566">
        <ele>738.6</ele>
        <time>2022-02-12T08:25:21Z</time>
      </trkpt>
      <trkpt lat="43.08851" lon="-0.09566">
        <ele>738.6</ele>
        <time>2022-02-12T08:25:22Z</time>
      </trkpt>
      <trkpt lat="43.08851" lon="-0.09565">
        <ele>738.6</ele>
        <time>2022-02-12T08:25:23Z</time>
      </trkpt>
      <trkpt lat="43.08851" lon="-0.09565">
        <ele>738.8</ele>
        <time>2022-02-12T08:25:24Z</time>
      </trkpt>
      <trkpt lat="43.08851" lon="-0.09565">
        <ele>738.8</ele>
        <time>2022-02-12T08:25:25Z</time>
      </trkpt>
      <trkpt lat="43.08851" lon="-0.09565">
        <ele>738.8</ele>
        <time>2022-02-12T08:25:26Z</time>
      </trkpt>
      <trkpt lat="43.08851" lon="-0.09565">
        <ele>738.8</ele>
        <time>2022-02-12T08:25:27Z</time>
      </trkpt>
      <trkpt lat="43.08851" lon="-0.09565">
        <ele>738.8</ele>
        <time>2022-02-12T08:25:28Z</time>
      </trkpt>
      <trkpt lat="43.08851" lon="-0.09565">
        <ele>738.8</ele>
        <time>2022-02-12T08:25:29Z</time>
      </trkpt>
      <trkpt lat="43.0885" lon="-0.09564">
        <ele>738.8</ele>
        <time>2022-02-12T08:25:30Z</time>
      </trkpt>
      <trkpt lat="43.0885" lon="-0.09564">
        <ele>738.8</ele>
        <time>2022-02-12T08:25:31Z</time>
      </trkpt>
      <trkpt lat="43.0885" lon="-0.09564">
        <ele>739</ele>
        <time>2022-02-12T08:25:32Z</time>
      </trkpt>
      <trkpt lat="43.0885" lon="-0.09564">
        <ele>739.2</ele>
        <time>2022-02-12T08:25:33Z</time>
      </trkpt>
      <trkpt lat="43.0885" lon="-0.09563">
        <ele>739.2</ele>
        <time>2022-02-12T08:25:34Z</time>
      </trkpt>
      <trkpt lat="43.0885" lon="-0.09563">
        <ele>739.4</ele>
        <time>2022-02-12T08:25:35Z</time>
      </trkpt>
      <trkpt lat="43.0885" lon="-0.09563">
        <ele>739.6</ele>
        <time>2022-02-12T08:25:36Z</time>
      </trkpt>
      <trkpt lat="43.0885" lon="-0.09563">
        <ele>739.8</ele>
        <time>2022-02-12T08:25:37Z</time>
      </trkpt>
      <trkpt lat="43.0885" lon="-0.09563">
        <ele>740</ele>
        <time>2022-02-12T08:25:38Z</time>
      </trkpt>
      <trkpt lat="43.0885" lon="-0.09563">
        <ele>740</ele>
        <time>2022-02-12T08:25:39Z</time>
      </trkpt>
      <trkpt lat="43.0885" lon="-0.09563">
        <ele>740.2</ele>
        <time>2022-02-12T08:25:40Z</time>
      </trkpt>
      <trkpt lat="43.0885" lon="-0.09563">
        <ele>740.4</ele>
        <time>2022-02-12T08:25:41Z</time>
      </trkpt>
      <trkpt lat="43.0885" lon="-0.09563">
        <ele>740.4</ele>
        <time>2022-02-12T08:25:42Z</time>
      </trkpt>
      <trkpt lat="43.0885" lon="-0.09563">
        <ele>740.6</ele>
        <time>2022-02-12T08:25:43Z</time>
      </trkpt>
      <trkpt lat="43.0885" lon="-0.09563">
        <ele>740.6</ele>
        <time>2022-02-12T08:25:44Z</time>
      </trkpt>
      <trkpt lat="43.0885" lon="-0.09563">
        <ele>741</ele>
        <time>2022-02-12T08:25:45Z</time>
      </trkpt>
      <trkpt lat="43.0885" lon="-0.09562">
        <ele>741</ele>
        <time>2022-02-12T08:25:46Z</time>
      </trkpt>
      <trkpt lat="43.0885" lon="-0.09562">
        <ele>741.2</ele>
        <time>2022-02-12T08:25:47Z</time>
      </trkpt>
      <trkpt lat="43.0885" lon="-0.09562">
        <ele>741.4</ele>
        <time>2022-02-12T08:25:48Z</time>
      </trkpt>
      <trkpt lat="43.08849" lon="-0.09562">
        <ele>741.4</ele>
        <time>2022-02-12T08:25:49Z</time>
      </trkpt>
      <trkpt lat="43.08849" lon="-0.09561">
        <ele>741.6</ele>
        <time>2022-02-12T08:25:50Z</time>
      </trkpt>
      <trkpt lat="43.08849" lon="-0.09561">
        <ele>741.8</ele>
        <time>2022-02-12T08:25:51Z</time>
      </trkpt>
      <trkpt lat="43.08849" lon="-0.09561">
        <ele>741.8</ele>
        <time>2022-02-12T08:25:52Z</time>
      </trkpt>
      <trkpt lat="43.08849" lon="-0.09561">
        <ele>741.8</ele>
        <time>2022-02-12T08:25:53Z</time>
      </trkpt>
      <trkpt lat="43.08848" lon="-0.0956">
        <ele>741.8</ele>
        <time>2022-02-12T08:25:54Z</time>
      </trkpt>
      <trkpt lat="43.08848" lon="-0.0956">
        <ele>742</ele>
        <time>2022-02-12T08:25:55Z</time>
      </trkpt>
      <trkpt lat="43.08848" lon="-0.09559">
        <ele>742</ele>
        <time>2022-02-12T08:25:56Z</time>
      </trkpt>
      <trkpt lat="43.08848" lon="-0.09558">
        <ele>742</ele>
        <time>2022-02-12T08:25:57Z</time>
      </trkpt>
      <trkpt lat="43.08847" lon="-0.09557">
        <ele>742</ele>
        <time>2022-02-12T08:25:58Z</time>
      </trkpt>
      <trkpt lat="43.08847" lon="-0.09557">
        <ele>742</ele>
        <time>2022-02-12T08:25:59Z</time>
      </trkpt>
      <trkpt lat="43.08847" lon="-0.09556">
        <ele>742</ele>
        <time>2022-02-12T08:26:00Z</time>
      </trkpt>
      <trkpt lat="43.08847" lon="-0.09555">
        <ele>742</ele>
        <time>2022-02-12T08:26:01Z</time>
      </trkpt>
      <trkpt lat="43.08846" lon="-0.09555">
        <ele>742</ele>
        <time>2022-02-12T08:26:02Z</time>
      </trkpt>
      <trkpt lat="43.08846" lon="-0.09555">
        <ele>742.2</ele>
        <time>2022-02-12T08:26:03Z</time>
      </trkpt>
      <trkpt lat="43.08846" lon="-0.09554">
        <ele>742.2</ele>
        <time>2022-02-12T08:26:04Z</time>
      </trkpt>
      <trkpt lat="43.08846" lon="-0.09554">
        <ele>742.2</ele>
        <time>2022-02-12T08:26:05Z</time>
      </trkpt>
      <trkpt lat="43.08845" lon="-0.09554">
        <ele>742.2</ele>
        <time>2022-02-12T08:26:06Z</time>
      </trkpt>
      <trkpt lat="43.08845" lon="-0.09554">
        <ele>742.2</ele>
        <time>2022-02-12T08:26:07Z</time>
      </trkpt>
      <trkpt lat="43.08845" lon="-0.09554">
        <ele>742.4</ele>
        <time>2022-02-12T08:26:08Z</time>
      </trkpt>
      <trkpt lat="43.08845" lon="-0.09554">
        <ele>742.4</ele>
        <time>2022-02-12T08:26:09Z</time>
      </trkpt>
      <trkpt lat="43.08845" lon="-0.09553">
        <ele>742.4</ele>
        <time>2022-02-12T08:26:10Z</time>
      </trkpt>
      <trkpt lat="43.08845" lon="-0.09553">
        <ele>742.6</ele>
        <time>2022-02-12T08:26:11Z</time>
      </trkpt>
      <trkpt lat="43.08845" lon="-0.09553">
        <ele>742.6</ele>
        <time>2022-02-12T08:26:12Z</time>
      </trkpt>
      <trkpt lat="43.08845" lon="-0.09553">
        <ele>742.8</ele>
        <time>2022-02-12T08:26:13Z</time>
      </trkpt>
      <trkpt lat="43.08845" lon="-0.09553">
        <ele>743</ele>
        <time>2022-02-12T08:26:14Z</time>
      </trkpt>
      <trkpt lat="43.08845" lon="-0.09553">
        <ele>743.2</ele>
        <time>2022-02-12T08:26:15Z</time>
      </trkpt>
      <trkpt lat="43.08845" lon="-0.09553">
        <ele>743.2</ele>
        <time>2022-02-12T08:26:16Z</time>
      </trkpt>
      <trkpt lat="43.08845" lon="-0.09553">
        <ele>743.2</ele>
        <time>2022-02-12T08:26:17Z</time>
      </trkpt>
      <trkpt lat="43.08845" lon="-0.09553">
        <ele>743.4</ele>
        <time>2022-02-12T08:26:18Z</time>
      </trkpt>
      <trkpt lat="43.08845" lon="-0.09553">
        <ele>743.4</ele>
        <time>2022-02-12T08:26:19Z</time>
      </trkpt>
      <trkpt lat="43.08845" lon="-0.09553">
        <ele>743.4</ele>
        <time>2022-02-12T08:26:20Z</time>
      </trkpt>
      <trkpt lat="43.08844" lon="-0.09553">
        <ele>743.4</ele>
        <time>2022-02-12T08:26:21Z</time>
      </trkpt>
      <trkpt lat="43.08844" lon="-0.09553">
        <ele>743.6</ele>
        <time>2022-02-12T08:26:22Z</time>
      </trkpt>
      <trkpt lat="43.08844" lon="-0.09553">
        <ele>743.6</ele>
        <time>2022-02-12T08:26:23Z</time>
      </trkpt>
      <trkpt lat="43.08844" lon="-0.09553">
        <ele>743.6</ele>
        <time>2022-02-12T08:26:24Z</time>
      </trkpt>
      <trkpt lat="43.08844" lon="-0.09553">
        <ele>743.6</ele>
        <time>2022-02-12T08:26:25Z</time>
      </trkpt>
      <trkpt lat="43.08844" lon="-0.09553">
        <ele>743.8</ele>
        <time>2022-02-12T08:26:26Z</time>
      </trkpt>
      <trkpt lat="43.08844" lon="-0.09553">
        <ele>743.8</ele>
        <time>2022-02-12T08:26:27Z</time>
      </trkpt>
      <trkpt lat="43.08844" lon="-0.09553">
        <ele>743.8</ele>
        <time>2022-02-12T08:26:28Z</time>
      </trkpt>
      <trkpt lat="43.08844" lon="-0.09553">
        <ele>744.2</ele>
        <time>2022-02-12T08:26:29Z</time>
      </trkpt>
      <trkpt lat="43.08844" lon="-0.09553">
        <ele>744.2</ele>
        <time>2022-02-12T08:26:30Z</time>
      </trkpt>
      <trkpt lat="43.08844" lon="-0.09552">
        <ele>744.4</ele>
        <time>2022-02-12T08:26:31Z</time>
      </trkpt>
      <trkpt lat="43.08844" lon="-0.09552">
        <ele>744.4</ele>
        <time>2022-02-12T08:26:32Z</time>
      </trkpt>
      <trkpt lat="43.08844" lon="-0.09552">
        <ele>744.6</ele>
        <time>2022-02-12T08:26:33Z</time>
      </trkpt>
      <trkpt lat="43.08844" lon="-0.09552">
        <ele>744.8</ele>
        <time>2022-02-12T08:26:34Z</time>
      </trkpt>
      <trkpt lat="43.08844" lon="-0.09552">
        <ele>745.2</ele>
        <time>2022-02-12T08:26:35Z</time>
      </trkpt>
      <trkpt lat="43.08844" lon="-0.09552">
        <ele>745.2</ele>
        <time>2022-02-12T08:26:36Z</time>
      </trkpt>
      <trkpt lat="43.08844" lon="-0.09552">
        <ele>745.2</ele>
        <time>2022-02-12T08:26:37Z</time>
      </trkpt>
      <trkpt lat="43.08844" lon="-0.09552">
        <ele>745.4</ele>
        <time>2022-02-12T08:26:38Z</time>
      </trkpt>
      <trkpt lat="43.08843" lon="-0.09552">
        <ele>745.4</ele>
        <time>2022-02-12T08:26:39Z</time>
      </trkpt>
      <trkpt lat="43.08843" lon="-0.09552">
        <ele>745.4</ele>
        <time>2022-02-12T08:26:40Z</time>
      </trkpt>
      <trkpt lat="43.08843" lon="-0.09552">
        <ele>745.4</ele>
        <time>2022-02-12T08:26:41Z</time>
      </trkpt>
      <trkpt lat="43.08843" lon="-0.09552">
        <ele>745.4</ele>
        <time>2022-02-12T08:26:42Z</time>
      </trkpt>
      <trkpt lat="43.08843" lon="-0.09552">
        <ele>745.4</ele>
        <time>2022-02-12T08:26:43Z</time>
      </trkpt>
      <trkpt lat="43.08843" lon="-0.09552">
        <ele>745.4</ele>
        <time>2022-02-12T08:26:44Z</time>
      </trkpt>
      <trkpt lat="43.08843" lon="-0.09552">
        <ele>745.6</ele>
        <time>2022-02-12T08:26:45Z</time>
      </trkpt>
      <trkpt lat="43.08843" lon="-0.09552">
        <ele>745.6</ele>
        <time>2022-02-12T08:26:46Z</time>
      </trkpt>
      <trkpt lat="43.08843" lon="-0.09552">
        <ele>745.6</ele>
        <time>2022-02-12T08:26:47Z</time>
      </trkpt>
      <trkpt lat="43.08843" lon="-0.09552">
        <ele>745.6</ele>
        <time>2022-02-12T08:26:48Z</time>
      </trkpt>
      <trkpt lat="43.08843" lon="-0.09552">
        <ele>745.6</ele>
        <time>2022-02-12T08:26:49Z</time>
      </trkpt>
      <trkpt lat="43.08843" lon="-0.09552">
        <ele>745.8</ele>
        <time>2022-02-12T08:26:50Z</time>
      </trkpt>
      <trkpt lat="43.08843" lon="-0.09552">
        <ele>745.8</ele>
        <time>2022-02-12T08:26:51Z</time>
      </trkpt>
      <trkpt lat="43.08843" lon="-0.09552">
        <ele>745.8</ele>
        <time>2022-02-12T08:26:52Z</time>
      </trkpt>
      <trkpt lat="43.08843" lon="-0.09552">
        <ele>745.8</ele>
        <time>2022-02-12T08:26:53Z</time>
      </trkpt>
      <trkpt lat="43.08843" lon="-0.09552">
        <ele>745.8</ele>
        <time>2022-02-12T08:26:54Z</time>
      </trkpt>
      <trkpt lat="43.08843" lon="-0.09552">
        <ele>745.8</ele>
        <time>2022-02-12T08:26:55Z</time>
      </trkpt>
      <trkpt lat="43.08843" lon="-0.09552">
        <ele>745.8</ele>
        <time>2022-02-12T08:26:56Z</time>
      </trkpt>
      <trkpt lat="43.08843" lon="-0.09552">
        <ele>745.8</ele>
        <time>2022-02-12T08:26:57Z</time>
      </trkpt>
      <trkpt lat="43.08843" lon="-0.09552">
        <ele>745.8</ele>
        <time>2022-02-12T08:26:58Z</time>
      </trkpt>
      <trkpt lat="43.08843" lon="-0.09552">
        <ele>745.8</ele>
        <time>2022-02-12T08:26:59Z</time>
      </trkpt>
      <trkpt lat="43.08843" lon="-0.09552">
        <ele>745.8</ele>
        <time>2022-02-12T08:27:00Z</time>
      </trkpt>
      <trkpt lat="43.08843" lon="-0.09552">
        <ele>745.8</ele>
        <time>2022-02-12T08:27:01Z</time>
      </trkpt>
      <trkpt lat="43.08843" lon="-0.09552">
        <ele>745.6</ele>
        <time>2022-02-12T08:27:02Z</time>
      </trkpt>
      <trkpt lat="43.08843" lon="-0.09552">
        <ele>745.6</ele>
        <time>2022-02-12T08:27:03Z</time>
      </trkpt>
      <trkpt lat="43.08843" lon="-0.09552">
        <ele>745.4</ele>
        <time>2022-02-12T08:27:04Z</time>
      </trkpt>
      <trkpt lat="43.08843" lon="-0.09552">
        <ele>745.6</ele>
        <time>2022-02-12T08:27:05Z</time>
      </trkpt>
      <trkpt lat="43.08843" lon="-0.09552">
        <ele>745.4</ele>
        <time>2022-02-12T08:27:06Z</time>
      </trkpt>
      <trkpt lat="43.08843" lon="-0.09552">
        <ele>745.4</ele>
        <time>2022-02-12T08:27:07Z</time>
      </trkpt>
      <trkpt lat="43.08843" lon="-0.09552">
        <ele>745.4</ele>
        <time>2022-02-12T08:27:08Z</time>
      </trkpt>
      <trkpt lat="43.08843" lon="-0.09552">
        <ele>745.4</ele>
        <time>2022-02-12T08:27:09Z</time>
      </trkpt>
      <trkpt lat="43.08843" lon="-0.09552">
        <ele>745.4</ele>
        <time>2022-02-12T08:27:10Z</time>
      </trkpt>
      <trkpt lat="43.08843" lon="-0.09552">
        <ele>745.4</ele>
        <time>2022-02-12T08:27:11Z</time>
      </trkpt>
      <trkpt lat="43.08843" lon="-0.09552">
        <ele>745.2</ele>
        <time>2022-02-12T08:27:12Z</time>
      </trkpt>
      <trkpt lat="43.08843" lon="-0.09552">
        <ele>745.2</ele>
        <time>2022-02-12T08:27:13Z</time>
      </trkpt>
      <trkpt lat="43.08843" lon="-0.09552">
        <ele>745.2</ele>
        <time>2022-02-12T08:27:14Z</time>
      </trkpt>
      <trkpt lat="43.08843" lon="-0.09552">
        <ele>745.2</ele>
        <time>2022-02-12T08:27:15Z</time>
      </trkpt>
      <trkpt lat="43.08843" lon="-0.09552">
        <ele>745.2</ele>
        <time>2022-02-12T08:27:16Z</time>
      </trkpt>
      <trkpt lat="43.08843" lon="-0.09552">
        <ele>745.2</ele>
        <time>2022-02-12T08:27:17Z</time>
      </trkpt>
      <trkpt lat="43.08843" lon="-0.09552">
        <ele>745.2</ele>
        <time>2022-02-12T08:27:18Z</time>
      </trkpt>
      <trkpt lat="43.08843" lon="-0.09552">
        <ele>745.2</ele>
        <time>2022-02-12T08:27:19Z</time>
      </trkpt>
      <trkpt lat="43.08843" lon="-0.09552">
        <ele>745.2</ele>
        <time>2022-02-12T08:27:20Z</time>
      </trkpt>
      <trkpt lat="43.08843" lon="-0.09552">
        <ele>745.2</ele>
        <time>2022-02-12T08:27:21Z</time>
      </trkpt>
      <trkpt lat="43.08843" lon="-0.09552">
        <ele>745.2</ele>
        <time>2022-02-12T08:27:22Z</time>
      </trkpt>
      <trkpt lat="43.08843" lon="-0.09552">
        <ele>745.2</ele>
        <time>2022-02-12T08:27:23Z</time>
      </trkpt>
      <trkpt lat="43.08843" lon="-0.09552">
        <ele>745.2</ele>
        <time>2022-02-12T08:27:24Z</time>
      </trkpt>
      <trkpt lat="43.08843" lon="-0.09552">
        <ele>745.2</ele>
        <time>2022-02-12T08:27:25Z</time>
      </trkpt>
      <trkpt lat="43.08843" lon="-0.09552">
        <ele>745.2</ele>
        <time>2022-02-12T08:27:26Z</time>
      </trkpt>
      <trkpt lat="43.08843" lon="-0.09552">
        <ele>745.2</ele>
        <time>2022-02-12T08:27:27Z</time>
      </trkpt>
      <trkpt lat="43.08843" lon="-0.09552">
        <ele>745.2</ele>
        <time>2022-02-12T08:27:28Z</time>
      </trkpt>
      <trkpt lat="43.08843" lon="-0.09552">
        <ele>745.2</ele>
        <time>2022-02-12T08:27:29Z</time>
      </trkpt>
      <trkpt lat="43.08843" lon="-0.09552">
        <ele>745</ele>
        <time>2022-02-12T08:27:30Z</time>
      </trkpt>
      <trkpt lat="43.08843" lon="-0.09551">
        <ele>745.2</ele>
        <time>2022-02-12T08:27:31Z</time>
      </trkpt>
      <trkpt lat="43.08843" lon="-0.09551">
        <ele>745.2</ele>
        <time>2022-02-12T08:27:32Z</time>
      </trkpt>
      <trkpt lat="43.08843" lon="-0.09551">
        <ele>745.2</ele>
        <time>2022-02-12T08:27:33Z</time>
      </trkpt>
      <trkpt lat="43.08843" lon="-0.09551">
        <ele>745.2</ele>
        <time>2022-02-12T08:27:34Z</time>
      </trkpt>
      <trkpt lat="43.08843" lon="-0.09551">
        <ele>745.2</ele>
        <time>2022-02-12T08:27:35Z</time>
      </trkpt>
      <trkpt lat="43.08843" lon="-0.09551">
        <ele>745.2</ele>
        <time>2022-02-12T08:27:36Z</time>
      </trkpt>
      <trkpt lat="43.08843" lon="-0.09551">
        <ele>745.2</ele>
        <time>2022-02-12T08:27:37Z</time>
      </trkpt>
      <trkpt lat="43.08843" lon="-0.09551">
        <ele>745.2</ele>
        <time>2022-02-12T08:27:38Z</time>
      </trkpt>
      <trkpt lat="43.08843" lon="-0.09551">
        <ele>745.2</ele>
        <time>2022-02-12T08:27:39Z</time>
      </trkpt>
      <trkpt lat="43.08843" lon="-0.09551">
        <ele>745.2</ele>
        <time>2022-02-12T08:27:40Z</time>
      </trkpt>
      <trkpt lat="43.08843" lon="-0.09551">
        <ele>745.2</ele>
        <time>2022-02-12T08:27:41Z</time>
      </trkpt>
      <trkpt lat="43.08843" lon="-0.09551">
        <ele>745.2</ele>
        <time>2022-02-12T08:27:42Z</time>
      </trkpt>
      <trkpt lat="43.08843" lon="-0.09551">
        <ele>745.2</ele>
        <time>2022-02-12T08:27:43Z</time>
      </trkpt>
      <trkpt lat="43.08843" lon="-0.09551">
        <ele>745.2</ele>
        <time>2022-02-12T08:27:44Z</time>
      </trkpt>
      <trkpt lat="43.08843" lon="-0.09551">
        <ele>745.2</ele>
        <time>2022-02-12T08:27:45Z</time>
      </trkpt>
      <trkpt lat="43.08843" lon="-0.09551">
        <ele>745.2</ele>
        <time>2022-02-12T08:27:46Z</time>
      </trkpt>
      <trkpt lat="43.08843" lon="-0.09551">
        <ele>745.2</ele>
        <time>2022-02-12T08:27:47Z</time>
      </trkpt>
      <trkpt lat="43.08843" lon="-0.09551">
        <ele>745.2</ele>
        <time>2022-02-12T08:27:48Z</time>
      </trkpt>
      <trkpt lat="43.08843" lon="-0.09551">
        <ele>745.2</ele>
        <time>2022-02-12T08:27:49Z</time>
      </trkpt>
      <trkpt lat="43.08843" lon="-0.09551">
        <ele>745.2</ele>
        <time>2022-02-12T08:27:50Z</time>
      </trkpt>
      <trkpt lat="43.08843" lon="-0.09551">
        <ele>745.2</ele>
        <time>2022-02-12T08:27:51Z</time>
      </trkpt>
      <trkpt lat="43.08843" lon="-0.09551">
        <ele>745.2</ele>
        <time>2022-02-12T08:27:52Z</time>
      </trkpt>
      <trkpt lat="43.08843" lon="-0.09551">
        <ele>745.2</ele>
        <time>2022-02-12T08:27:53Z</time>
      </trkpt>
      <trkpt lat="43.08843" lon="-0.09551">
        <ele>745.2</ele>
        <time>2022-02-12T08:27:54Z</time>
      </trkpt>
      <trkpt lat="43.08843" lon="-0.09551">
        <ele>745.2</ele>
        <time>2022-02-12T08:27:55Z</time>
      </trkpt>
      <trkpt lat="43.08843" lon="-0.09551">
        <ele>745.2</ele>
        <time>2022-02-12T08:27:56Z</time>
      </trkpt>
      <trkpt lat="43.08843" lon="-0.09551">
        <ele>745.2</ele>
        <time>2022-02-12T08:27:57Z</time>
      </trkpt>
      <trkpt lat="43.08843" lon="-0.09551">
        <ele>745.2</ele>
        <time>2022-02-12T08:27:58Z</time>
      </trkpt>
      <trkpt lat="43.08843" lon="-0.09551">
        <ele>745.2</ele>
        <time>2022-02-12T08:27:59Z</time>
      </trkpt>
      <trkpt lat="43.08843" lon="-0.09551">
        <ele>745.2</ele>
        <time>2022-02-12T08:28:00Z</time>
      </trkpt>
      <trkpt lat="43.08843" lon="-0.09551">
        <ele>745.2</ele>
        <time>2022-02-12T08:28:01Z</time>
      </trkpt>
      <trkpt lat="43.08843" lon="-0.09551">
        <ele>745</ele>
        <time>2022-02-12T08:28:02Z</time>
      </trkpt>
      <trkpt lat="43.08843" lon="-0.09551">
        <ele>745</ele>
        <time>2022-02-12T08:28:03Z</time>
      </trkpt>
      <trkpt lat="43.08843" lon="-0.09551">
        <ele>745</ele>
        <time>2022-02-12T08:28:04Z</time>
      </trkpt>
      <trkpt lat="43.08843" lon="-0.09551">
        <ele>745</ele>
        <time>2022-02-12T08:28:05Z</time>
      </trkpt>
      <trkpt lat="43.08843" lon="-0.09551">
        <ele>745</ele>
        <time>2022-02-12T08:28:06Z</time>
      </trkpt>
      <trkpt lat="43.08843" lon="-0.09551">
        <ele>745</ele>
        <time>2022-02-12T08:28:07Z</time>
      </trkpt>
      <trkpt lat="43.08843" lon="-0.09551">
        <ele>745.2</ele>
        <time>2022-02-12T08:28:08Z</time>
      </trkpt>
      <trkpt lat="43.08843" lon="-0.09551">
        <ele>745.2</ele>
        <time>2022-02-12T08:28:09Z</time>
      </trkpt>
      <trkpt lat="43.08843" lon="-0.09551">
        <ele>745.2</ele>
        <time>2022-02-12T08:28:10Z</time>
      </trkpt>
      <trkpt lat="43.08843" lon="-0.09551">
        <ele>745.2</ele>
        <time>2022-02-12T08:28:11Z</time>
      </trkpt>
      <trkpt lat="43.08843" lon="-0.09551">
        <ele>745.2</ele>
        <time>2022-02-12T08:28:12Z</time>
      </trkpt>
      <trkpt lat="43.08843" lon="-0.09551">
        <ele>745.2</ele>
        <time>2022-02-12T08:28:13Z</time>
      </trkpt>
      <trkpt lat="43.08843" lon="-0.09551">
        <ele>745.2</ele>
        <time>2022-02-12T08:28:14Z</time>
      </trkpt>
      <trkpt lat="43.08843" lon="-0.09551">
        <ele>745.2</ele>
        <time>2022-02-12T08:28:15Z</time>
      </trkpt>
      <trkpt lat="43.08843" lon="-0.09551">
        <ele>745.2</ele>
        <time>2022-02-12T08:28:16Z</time>
      </trkpt>
      <trkpt lat="43.08843" lon="-0.09551">
        <ele>745.2</ele>
        <time>2022-02-12T08:28:17Z</time>
      </trkpt>
      <trkpt lat="43.08843" lon="-0.09551">
        <ele>745.2</ele>
        <time>2022-02-12T08:28:18Z</time>
      </trkpt>
      <trkpt lat="43.08843" lon="-0.09551">
        <ele>745.2</ele>
        <time>2022-02-12T08:28:19Z</time>
      </trkpt>
      <trkpt lat="43.08843" lon="-0.09551">
        <ele>745.2</ele>
        <time>2022-02-12T08:28:20Z</time>
      </trkpt>
      <trkpt lat="43.08843" lon="-0.09551">
        <ele>745.2</ele>
        <time>2022-02-12T08:28:21Z</time>
      </trkpt>
      <trkpt lat="43.08843" lon="-0.09551">
        <ele>745.4</ele>
        <time>2022-02-12T08:28:22Z</time>
      </trkpt>
      <trkpt lat="43.08843" lon="-0.09551">
        <ele>745.4</ele>
        <time>2022-02-12T08:28:23Z</time>
      </trkpt>
      <trkpt lat="43.08843" lon="-0.09551">
        <ele>745.4</ele>
        <time>2022-02-12T08:28:24Z</time>
      </trkpt>
      <trkpt lat="43.08843" lon="-0.09551">
        <ele>745.4</ele>
        <time>2022-02-12T08:28:25Z</time>
      </trkpt>
      <trkpt lat="43.08843" lon="-0.09551">
        <ele>745.4</ele>
        <time>2022-02-12T08:28:26Z</time>
      </trkpt>
      <trkpt lat="43.08843" lon="-0.09551">
        <ele>745.4</ele>
        <time>2022-02-12T08:28:27Z</time>
      </trkpt>
      <trkpt lat="43.08843" lon="-0.09551">
        <ele>745.4</ele>
        <time>2022-02-12T08:28:28Z</time>
      </trkpt>
      <trkpt lat="43.08843" lon="-0.09551">
        <ele>745.2</ele>
        <time>2022-02-12T08:28:29Z</time>
      </trkpt>
      <trkpt lat="43.08843" lon="-0.09551">
        <ele>745.2</ele>
        <time>2022-02-12T08:28:30Z</time>
      </trkpt>
      <trkpt lat="43.08843" lon="-0.09551">
        <ele>745.2</ele>
        <time>2022-02-12T08:28:31Z</time>
      </trkpt>
      <trkpt lat="43.08843" lon="-0.09551">
        <ele>745.2</ele>
        <time>2022-02-12T08:28:32Z</time>
      </trkpt>
      <trkpt lat="43.08842" lon="-0.09551">
        <ele>745.2</ele>
        <time>2022-02-12T08:28:33Z</time>
      </trkpt>
      <trkpt lat="43.08842" lon="-0.09551">
        <ele>745.2</ele>
        <time>2022-02-12T08:28:34Z</time>
      </trkpt>
      <trkpt lat="43.08842" lon="-0.09551">
        <ele>745.2</ele>
        <time>2022-02-12T08:28:35Z</time>
      </trkpt>
      <trkpt lat="43.08842" lon="-0.09551">
        <ele>745.2</ele>
        <time>2022-02-12T08:28:36Z</time>
      </trkpt>
      <trkpt lat="43.08842" lon="-0.09551">
        <ele>745.2</ele>
        <time>2022-02-12T08:28:37Z</time>
      </trkpt>
      <trkpt lat="43.08842" lon="-0.09551">
        <ele>745.2</ele>
        <time>2022-02-12T08:28:38Z</time>
      </trkpt>
      <trkpt lat="43.08842" lon="-0.09551">
        <ele>745.2</ele>
        <time>2022-02-12T08:28:39Z</time>
      </trkpt>
      <trkpt lat="43.08842" lon="-0.09551">
        <ele>745.2</ele>
        <time>2022-02-12T08:28:40Z</time>
      </trkpt>
      <trkpt lat="43.08842" lon="-0.09551">
        <ele>745.2</ele>
        <time>2022-02-12T08:28:41Z</time>
      </trkpt>
      <trkpt lat="43.08842" lon="-0.09551">
        <ele>745.2</ele>
        <time>2022-02-12T08:28:42Z</time>
      </trkpt>
      <trkpt lat="43.08842" lon="-0.09551">
        <ele>745.4</ele>
        <time>2022-02-12T08:28:43Z</time>
      </trkpt>
      <trkpt lat="43.08842" lon="-0.09551">
        <ele>745.4</ele>
        <time>2022-02-12T08:28:44Z</time>
      </trkpt>
      <trkpt lat="43.08842" lon="-0.09551">
        <ele>745.4</ele>
        <time>2022-02-12T08:28:45Z</time>
      </trkpt>
      <trkpt lat="43.08842" lon="-0.09551">
        <ele>745.4</ele>
        <time>2022-02-12T08:28:46Z</time>
      </trkpt>
      <trkpt lat="43.08842" lon="-0.09551">
        <ele>745.4</ele>
        <time>2022-02-12T08:28:47Z</time>
      </trkpt>
      <trkpt lat="43.08842" lon="-0.09551">
        <ele>745.4</ele>
        <time>2022-02-12T08:28:48Z</time>
      </trkpt>
      <trkpt lat="43.08842" lon="-0.09551">
        <ele>745.4</ele>
        <time>2022-02-12T08:28:49Z</time>
      </trkpt>
      <trkpt lat="43.08842" lon="-0.09551">
        <ele>745.4</ele>
        <time>2022-02-12T08:28:50Z</time>
      </trkpt>
      <trkpt lat="43.08842" lon="-0.09551">
        <ele>745.4</ele>
        <time>2022-02-12T08:28:51Z</time>
      </trkpt>
      <trkpt lat="43.08842" lon="-0.09551">
        <ele>745.6</ele>
        <time>2022-02-12T08:28:52Z</time>
      </trkpt>
      <trkpt lat="43.08842" lon="-0.09551">
        <ele>745.6</ele>
        <time>2022-02-12T08:28:53Z</time>
      </trkpt>
      <trkpt lat="43.08842" lon="-0.09551">
        <ele>745.8</ele>
        <time>2022-02-12T08:28:54Z</time>
      </trkpt>
      <trkpt lat="43.08842" lon="-0.09551">
        <ele>745.8</ele>
        <time>2022-02-12T08:28:55Z</time>
      </trkpt>
      <trkpt lat="43.08842" lon="-0.09551">
        <ele>746</ele>
        <time>2022-02-12T08:28:56Z</time>
      </trkpt>
      <trkpt lat="43.08842" lon="-0.09551">
        <ele>746</ele>
        <time>2022-02-12T08:28:57Z</time>
      </trkpt>
      <trkpt lat="43.08842" lon="-0.09551">
        <ele>746</ele>
        <time>2022-02-12T08:28:58Z</time>
      </trkpt>
      <trkpt lat="43.08842" lon="-0.09551">
        <ele>746</ele>
        <time>2022-02-12T08:28:59Z</time>
      </trkpt>
      <trkpt lat="43.08842" lon="-0.09551">
        <ele>746</ele>
        <time>2022-02-12T08:29:00Z</time>
      </trkpt>
      <trkpt lat="43.08842" lon="-0.09551">
        <ele>746</ele>
        <time>2022-02-12T08:29:01Z</time>
      </trkpt>
      <trkpt lat="43.08842" lon="-0.09551">
        <ele>746</ele>
        <time>2022-02-12T08:29:02Z</time>
      </trkpt>
      <trkpt lat="43.08842" lon="-0.0955">
        <ele>746</ele>
        <time>2022-02-12T08:29:03Z</time>
      </trkpt>
      <trkpt lat="43.08842" lon="-0.0955">
        <ele>745.8</ele>
        <time>2022-02-12T08:29:04Z</time>
      </trkpt>
      <trkpt lat="43.08842" lon="-0.0955">
        <ele>745.8</ele>
        <time>2022-02-12T08:29:05Z</time>
      </trkpt>
      <trkpt lat="43.08842" lon="-0.0955">
        <ele>745.8</ele>
        <time>2022-02-12T08:29:06Z</time>
      </trkpt>
      <trkpt lat="43.08842" lon="-0.0955">
        <ele>745.8</ele>
        <time>2022-02-12T08:29:07Z</time>
      </trkpt>
      <trkpt lat="43.08842" lon="-0.0955">
        <ele>745.8</ele>
        <time>2022-02-12T08:29:08Z</time>
      </trkpt>
      <trkpt lat="43.08842" lon="-0.0955">
        <ele>745.8</ele>
        <time>2022-02-12T08:29:09Z</time>
      </trkpt>
      <trkpt lat="43.08842" lon="-0.0955">
        <ele>745.8</ele>
        <time>2022-02-12T08:29:10Z</time>
      </trkpt>
      <trkpt lat="43.08842" lon="-0.0955">
        <ele>745.8</ele>
        <time>2022-02-12T08:29:11Z</time>
      </trkpt>
      <trkpt lat="43.08842" lon="-0.0955">
        <ele>745.6</ele>
        <time>2022-02-12T08:29:12Z</time>
      </trkpt>
      <trkpt lat="43.08842" lon="-0.0955">
        <ele>745.6</ele>
        <time>2022-02-12T08:29:13Z</time>
      </trkpt>
      <trkpt lat="43.08842" lon="-0.0955">
        <ele>745.6</ele>
        <time>2022-02-12T08:29:14Z</time>
      </trkpt>
      <trkpt lat="43.08842" lon="-0.0955">
        <ele>745.6</ele>
        <time>2022-02-12T08:29:15Z</time>
      </trkpt>
      <trkpt lat="43.08842" lon="-0.0955">
        <ele>745.6</ele>
        <time>2022-02-12T08:29:16Z</time>
      </trkpt>
      <trkpt lat="43.08842" lon="-0.0955">
        <ele>745.6</ele>
        <time>2022-02-12T08:29:17Z</time>
      </trkpt>
      <trkpt lat="43.08842" lon="-0.0955">
        <ele>745.6</ele>
        <time>2022-02-12T08:29:18Z</time>
      </trkpt>
      <trkpt lat="43.08842" lon="-0.0955">
        <ele>745.6</ele>
        <time>2022-02-12T08:29:19Z</time>
      </trkpt>
      <trkpt lat="43.08842" lon="-0.0955">
        <ele>745.6</ele>
        <time>2022-02-12T08:29:20Z</time>
      </trkpt>
      <trkpt lat="43.08842" lon="-0.0955">
        <ele>745.8</ele>
        <time>2022-02-12T08:29:21Z</time>
      </trkpt>
      <trkpt lat="43.08842" lon="-0.0955">
        <ele>745.8</ele>
        <time>2022-02-12T08:29:22Z</time>
      </trkpt>
      <trkpt lat="43.08842" lon="-0.0955">
        <ele>745.8</ele>
        <time>2022-02-12T08:29:23Z</time>
      </trkpt>
      <trkpt lat="43.08842" lon="-0.0955">
        <ele>745.8</ele>
        <time>2022-02-12T08:29:24Z</time>
      </trkpt>
      <trkpt lat="43.08842" lon="-0.0955">
        <ele>745.8</ele>
        <time>2022-02-12T08:29:25Z</time>
      </trkpt>
      <trkpt lat="43.08842" lon="-0.0955">
        <ele>745.8</ele>
        <time>2022-02-12T08:29:26Z</time>
      </trkpt>
      <trkpt lat="43.08842" lon="-0.0955">
        <ele>745.8</ele>
        <time>2022-02-12T08:29:27Z</time>
      </trkpt>
      <trkpt lat="43.08842" lon="-0.0955">
        <ele>745.8</ele>
        <time>2022-02-12T08:29:28Z</time>
      </trkpt>
      <trkpt lat="43.08842" lon="-0.0955">
        <ele>745.8</ele>
        <time>2022-02-12T08:29:29Z</time>
      </trkpt>
      <trkpt lat="43.08842" lon="-0.0955">
        <ele>745.8</ele>
        <time>2022-02-12T08:29:30Z</time>
      </trkpt>
      <trkpt lat="43.08842" lon="-0.0955">
        <ele>745.8</ele>
        <time>2022-02-12T08:29:31Z</time>
      </trkpt>
      <trkpt lat="43.08842" lon="-0.0955">
        <ele>745.8</ele>
        <time>2022-02-12T08:29:32Z</time>
      </trkpt>
      <trkpt lat="43.08842" lon="-0.0955">
        <ele>745.8</ele>
        <time>2022-02-12T08:29:33Z</time>
      </trkpt>
      <trkpt lat="43.08842" lon="-0.0955">
        <ele>745.6</ele>
        <time>2022-02-12T08:29:34Z</time>
      </trkpt>
      <trkpt lat="43.08842" lon="-0.0955">
        <ele>745.6</ele>
        <time>2022-02-12T08:29:35Z</time>
      </trkpt>
      <trkpt lat="43.08842" lon="-0.0955">
        <ele>745.6</ele>
        <time>2022-02-12T08:29:36Z</time>
      </trkpt>
      <trkpt lat="43.08842" lon="-0.0955">
        <ele>745.8</ele>
        <time>2022-02-12T08:29:37Z</time>
      </trkpt>
      <trkpt lat="43.08842" lon="-0.0955">
        <ele>745.8</ele>
        <time>2022-02-12T08:29:38Z</time>
      </trkpt>
      <trkpt lat="43.08842" lon="-0.0955">
        <ele>745.8</ele>
        <time>2022-02-12T08:29:39Z</time>
      </trkpt>
      <trkpt lat="43.08842" lon="-0.0955">
        <ele>745.8</ele>
        <time>2022-02-12T08:29:40Z</time>
      </trkpt>
      <trkpt lat="43.08842" lon="-0.0955">
        <ele>745.8</ele>
        <time>2022-02-12T08:29:41Z</time>
      </trkpt>
      <trkpt lat="43.08842" lon="-0.0955">
        <ele>745.8</ele>
        <time>2022-02-12T08:29:42Z</time>
      </trkpt>
      <trkpt lat="43.08842" lon="-0.0955">
        <ele>746</ele>
        <time>2022-02-12T08:29:43Z</time>
      </trkpt>
      <trkpt lat="43.08842" lon="-0.0955">
        <ele>746</ele>
        <time>2022-02-12T08:29:44Z</time>
      </trkpt>
      <trkpt lat="43.08842" lon="-0.0955">
        <ele>746</ele>
        <time>2022-02-12T08:29:45Z</time>
      </trkpt>
      <trkpt lat="43.08842" lon="-0.0955">
        <ele>746</ele>
        <time>2022-02-12T08:29:46Z</time>
      </trkpt>
      <trkpt lat="43.08841" lon="-0.09549">
        <ele>746</ele>
        <time>2022-02-12T08:29:47Z</time>
      </trkpt>
      <trkpt lat="43.08839" lon="-0.09549">
        <ele>746</ele>
        <time>2022-02-12T08:29:48Z</time>
      </trkpt>
      <trkpt lat="43.08836" lon="-0.09548">
        <ele>746</ele>
        <time>2022-02-12T08:29:49Z</time>
      </trkpt>
      <trkpt lat="43.08834" lon="-0.09547">
        <ele>746</ele>
        <time>2022-02-12T08:29:50Z</time>
      </trkpt>
      <trkpt lat="43.08831" lon="-0.09545">
        <ele>746</ele>
        <time>2022-02-12T08:29:51Z</time>
      </trkpt>
      <trkpt lat="43.08829" lon="-0.09544">
        <ele>746</ele>
        <time>2022-02-12T08:29:52Z</time>
      </trkpt>
      <trkpt lat="43.08826" lon="-0.09543">
        <ele>746</ele>
        <time>2022-02-12T08:29:53Z</time>
      </trkpt>
      <trkpt lat="43.08824" lon="-0.09541">
        <ele>746</ele>
        <time>2022-02-12T08:29:54Z</time>
      </trkpt>
      <trkpt lat="43.08821" lon="-0.0954">
        <ele>746</ele>
        <time>2022-02-12T08:29:55Z</time>
      </trkpt>
      <trkpt lat="43.0882" lon="-0.09539">
        <ele>746</ele>
        <time>2022-02-12T08:29:56Z</time>
      </trkpt>
      <trkpt lat="43.08818" lon="-0.09539">
        <ele>746</ele>
        <time>2022-02-12T08:29:57Z</time>
      </trkpt>
      <trkpt lat="43.08816" lon="-0.09538">
        <ele>746.4</ele>
        <time>2022-02-12T08:29:58Z</time>
      </trkpt>
      <trkpt lat="43.08815" lon="-0.09538">
        <ele>746.4</ele>
        <time>2022-02-12T08:29:59Z</time>
      </trkpt>
      <trkpt lat="43.08813" lon="-0.09538">
        <ele>746.6</ele>
        <time>2022-02-12T08:30:00Z</time>
      </trkpt>
      <trkpt lat="43.08812" lon="-0.09537">
        <ele>746.6</ele>
        <time>2022-02-12T08:30:01Z</time>
      </trkpt>
      <trkpt lat="43.08811" lon="-0.09537">
        <ele>746.8</ele>
        <time>2022-02-12T08:30:02Z</time>
      </trkpt>
      <trkpt lat="43.08811" lon="-0.09537">
        <ele>746.8</ele>
        <time>2022-02-12T08:30:03Z</time>
      </trkpt>
      <trkpt lat="43.08811" lon="-0.09537">
        <ele>747</ele>
        <time>2022-02-12T08:30:04Z</time>
      </trkpt>
      <trkpt lat="43.08811" lon="-0.09537">
        <ele>747</ele>
        <time>2022-02-12T08:30:05Z</time>
      </trkpt>
      <trkpt lat="43.08811" lon="-0.09537">
        <ele>747.2</ele>
        <time>2022-02-12T08:30:06Z</time>
      </trkpt>
      <trkpt lat="43.08811" lon="-0.09537">
        <ele>747.2</ele>
        <time>2022-02-12T08:30:07Z</time>
      </trkpt>
      <trkpt lat="43.0881" lon="-0.09536">
        <ele>747.2</ele>
        <time>2022-02-12T08:30:08Z</time>
      </trkpt>
      <trkpt lat="43.0881" lon="-0.09536">
        <ele>747.2</ele>
        <time>2022-02-12T08:30:09Z</time>
      </trkpt>
      <trkpt lat="43.0881" lon="-0.09536">
        <ele>747.2</ele>
        <time>2022-02-12T08:30:10Z</time>
      </trkpt>
      <trkpt lat="43.08809" lon="-0.09535">
        <ele>747.4</ele>
        <time>2022-02-12T08:30:11Z</time>
      </trkpt>
      <trkpt lat="43.08808" lon="-0.09534">
        <ele>747.4</ele>
        <time>2022-02-12T08:30:12Z</time>
      </trkpt>
      <trkpt lat="43.08808" lon="-0.09534">
        <ele>747.4</ele>
        <time>2022-02-12T08:30:13Z</time>
      </trkpt>
      <trkpt lat="43.08806" lon="-0.09534">
        <ele>747.4</ele>
        <time>2022-02-12T08:30:14Z</time>
      </trkpt>
      <trkpt lat="43.08804" lon="-0.09533">
        <ele>747.4</ele>
        <time>2022-02-12T08:30:15Z</time>
      </trkpt>
      <trkpt lat="43.08803" lon="-0.09533">
        <ele>747.4</ele>
        <time>2022-02-12T08:30:16Z</time>
      </trkpt>
      <trkpt lat="43.08802" lon="-0.09532">
        <ele>747.4</ele>
        <time>2022-02-12T08:30:17Z</time>
      </trkpt>
      <trkpt lat="43.088" lon="-0.09532">
        <ele>747.4</ele>
        <time>2022-02-12T08:30:18Z</time>
      </trkpt>
      <trkpt lat="43.08799" lon="-0.09531">
        <ele>747.6</ele>
        <time>2022-02-12T08:30:19Z</time>
      </trkpt>
      <trkpt lat="43.08798" lon="-0.09531">
        <ele>747.6</ele>
        <time>2022-02-12T08:30:20Z</time>
      </trkpt>
      <trkpt lat="43.08797" lon="-0.09532">
        <ele>747.6</ele>
        <time>2022-02-12T08:30:21Z</time>
      </trkpt>
      <trkpt lat="43.08796" lon="-0.09532">
        <ele>747.6</ele>
        <time>2022-02-12T08:30:22Z</time>
      </trkpt>
      <trkpt lat="43.08795" lon="-0.09532">
        <ele>747.8</ele>
        <time>2022-02-12T08:30:23Z</time>
      </trkpt>
      <trkpt lat="43.08794" lon="-0.09533">
        <ele>747.8</ele>
        <time>2022-02-12T08:30:24Z</time>
      </trkpt>
      <trkpt lat="43.08793" lon="-0.09533">
        <ele>748</ele>
        <time>2022-02-12T08:30:25Z</time>
      </trkpt>
      <trkpt lat="43.08792" lon="-0.09533">
        <ele>748</ele>
        <time>2022-02-12T08:30:26Z</time>
      </trkpt>
      <trkpt lat="43.08792" lon="-0.09533">
        <ele>748</ele>
        <time>2022-02-12T08:30:27Z</time>
      </trkpt>
      <trkpt lat="43.08792" lon="-0.09533">
        <ele>748.2</ele>
        <time>2022-02-12T08:30:28Z</time>
      </trkpt>
      <trkpt lat="43.08792" lon="-0.09533">
        <ele>748.2</ele>
        <time>2022-02-12T08:30:29Z</time>
      </trkpt>
      <trkpt lat="43.08792" lon="-0.09533">
        <ele>748.2</ele>
        <time>2022-02-12T08:30:30Z</time>
      </trkpt>
      <trkpt lat="43.08792" lon="-0.09533">
        <ele>748.2</ele>
        <time>2022-02-12T08:30:31Z</time>
      </trkpt>
      <trkpt lat="43.08792" lon="-0.09533">
        <ele>748.2</ele>
        <time>2022-02-12T08:30:32Z</time>
      </trkpt>
      <trkpt lat="43.08791" lon="-0.09534">
        <ele>748.2</ele>
        <time>2022-02-12T08:30:33Z</time>
      </trkpt>
      <trkpt lat="43.0879" lon="-0.09535">
        <ele>748.4</ele>
        <time>2022-02-12T08:30:34Z</time>
      </trkpt>
      <trkpt lat="43.0879" lon="-0.09535">
        <ele>748.4</ele>
        <time>2022-02-12T08:30:35Z</time>
      </trkpt>
      <trkpt lat="43.08789" lon="-0.09536">
        <ele>748.4</ele>
        <time>2022-02-12T08:30:36Z</time>
      </trkpt>
      <trkpt lat="43.08789" lon="-0.09536">
        <ele>748.4</ele>
        <time>2022-02-12T08:30:37Z</time>
      </trkpt>
      <trkpt lat="43.08788" lon="-0.09536">
        <ele>748.4</ele>
        <time>2022-02-12T08:30:38Z</time>
      </trkpt>
      <trkpt lat="43.08787" lon="-0.09536">
        <ele>748.6</ele>
        <time>2022-02-12T08:30:39Z</time>
      </trkpt>
      <trkpt lat="43.08786" lon="-0.09536">
        <ele>748.6</ele>
        <time>2022-02-12T08:30:40Z</time>
      </trkpt>
      <trkpt lat="43.08785" lon="-0.09537">
        <ele>748.6</ele>
        <time>2022-02-12T08:30:41Z</time>
      </trkpt>
      <trkpt lat="43.08784" lon="-0.09537">
        <ele>748.8</ele>
        <time>2022-02-12T08:30:42Z</time>
      </trkpt>
      <trkpt lat="43.08783" lon="-0.09537">
        <ele>748.8</ele>
        <time>2022-02-12T08:30:43Z</time>
      </trkpt>
      <trkpt lat="43.08783" lon="-0.09537">
        <ele>748.8</ele>
        <time>2022-02-12T08:30:44Z</time>
      </trkpt>
      <trkpt lat="43.08782" lon="-0.09538">
        <ele>749</ele>
        <time>2022-02-12T08:30:45Z</time>
      </trkpt>
      <trkpt lat="43.08782" lon="-0.09538">
        <ele>749</ele>
        <time>2022-02-12T08:30:46Z</time>
      </trkpt>
      <trkpt lat="43.08781" lon="-0.09538">
        <ele>749</ele>
        <time>2022-02-12T08:30:47Z</time>
      </trkpt>
      <trkpt lat="43.0878" lon="-0.09539">
        <ele>749.2</ele>
        <time>2022-02-12T08:30:48Z</time>
      </trkpt>
      <trkpt lat="43.08779" lon="-0.09539">
        <ele>749.2</ele>
        <time>2022-02-12T08:30:49Z</time>
      </trkpt>
      <trkpt lat="43.08778" lon="-0.09539">
        <ele>749.4</ele>
        <time>2022-02-12T08:30:50Z</time>
      </trkpt>
      <trkpt lat="43.08777" lon="-0.09539">
        <ele>749.4</ele>
        <time>2022-02-12T08:30:51Z</time>
      </trkpt>
      <trkpt lat="43.08776" lon="-0.09539">
        <ele>749.6</ele>
        <time>2022-02-12T08:30:52Z</time>
      </trkpt>
      <trkpt lat="43.08775" lon="-0.09539">
        <ele>749.6</ele>
        <time>2022-02-12T08:30:53Z</time>
      </trkpt>
      <trkpt lat="43.08774" lon="-0.09539">
        <ele>749.8</ele>
        <time>2022-02-12T08:30:54Z</time>
      </trkpt>
      <trkpt lat="43.08774" lon="-0.09539">
        <ele>749.8</ele>
        <time>2022-02-12T08:30:55Z</time>
      </trkpt>
      <trkpt lat="43.08773" lon="-0.0954">
        <ele>750</ele>
        <time>2022-02-12T08:30:56Z</time>
      </trkpt>
      <trkpt lat="43.08772" lon="-0.0954">
        <ele>750</ele>
        <time>2022-02-12T08:30:57Z</time>
      </trkpt>
      <trkpt lat="43.08772" lon="-0.0954">
        <ele>750.2</ele>
        <time>2022-02-12T08:30:58Z</time>
      </trkpt>
      <trkpt lat="43.08772" lon="-0.0954">
        <ele>750.2</ele>
        <time>2022-02-12T08:30:59Z</time>
      </trkpt>
      <trkpt lat="43.08772" lon="-0.0954">
        <ele>750.4</ele>
        <time>2022-02-12T08:31:00Z</time>
      </trkpt>
      <trkpt lat="43.08772" lon="-0.0954">
        <ele>750.4</ele>
        <time>2022-02-12T08:31:01Z</time>
      </trkpt>
      <trkpt lat="43.08771" lon="-0.0954">
        <ele>750.6</ele>
        <time>2022-02-12T08:31:02Z</time>
      </trkpt>
      <trkpt lat="43.08771" lon="-0.0954">
        <ele>750.6</ele>
        <time>2022-02-12T08:31:03Z</time>
      </trkpt>
      <trkpt lat="43.0877" lon="-0.09541">
        <ele>750.8</ele>
        <time>2022-02-12T08:31:04Z</time>
      </trkpt>
      <trkpt lat="43.0877" lon="-0.09541">
        <ele>750.8</ele>
        <time>2022-02-12T08:31:05Z</time>
      </trkpt>
      <trkpt lat="43.08769" lon="-0.09541">
        <ele>751</ele>
        <time>2022-02-12T08:31:06Z</time>
      </trkpt>
      <trkpt lat="43.08769" lon="-0.09541">
        <ele>751.2</ele>
        <time>2022-02-12T08:31:07Z</time>
      </trkpt>
      <trkpt lat="43.08768" lon="-0.09541">
        <ele>751.4</ele>
        <time>2022-02-12T08:31:08Z</time>
      </trkpt>
      <trkpt lat="43.08768" lon="-0.09541">
        <ele>751.4</ele>
        <time>2022-02-12T08:31:09Z</time>
      </trkpt>
      <trkpt lat="43.08768" lon="-0.09542">
        <ele>751.6</ele>
        <time>2022-02-12T08:31:10Z</time>
      </trkpt>
      <trkpt lat="43.08768" lon="-0.09541">
        <ele>751.6</ele>
        <time>2022-02-12T08:31:11Z</time>
      </trkpt>
      <trkpt lat="43.08767" lon="-0.09541">
        <ele>751.6</ele>
        <time>2022-02-12T08:31:12Z</time>
      </trkpt>
      <trkpt lat="43.08766" lon="-0.09541">
        <ele>751.8</ele>
        <time>2022-02-12T08:31:13Z</time>
      </trkpt>
      <trkpt lat="43.08766" lon="-0.0954">
        <ele>751.8</ele>
        <time>2022-02-12T08:31:14Z</time>
      </trkpt>
      <trkpt lat="43.08766" lon="-0.0954">
        <ele>751.8</ele>
        <time>2022-02-12T08:31:15Z</time>
      </trkpt>
      <trkpt lat="43.08766" lon="-0.0954">
        <ele>751.8</ele>
        <time>2022-02-12T08:31:16Z</time>
      </trkpt>
      <trkpt lat="43.08765" lon="-0.0954">
        <ele>752.2</ele>
        <time>2022-02-12T08:31:17Z</time>
      </trkpt>
      <trkpt lat="43.08764" lon="-0.0954">
        <ele>752.2</ele>
        <time>2022-02-12T08:31:18Z</time>
      </trkpt>
      <trkpt lat="43.08763" lon="-0.0954">
        <ele>752.4</ele>
        <time>2022-02-12T08:31:19Z</time>
      </trkpt>
      <trkpt lat="43.08763" lon="-0.0954">
        <ele>752.4</ele>
        <time>2022-02-12T08:31:20Z</time>
      </trkpt>
      <trkpt lat="43.08762" lon="-0.0954">
        <ele>752.6</ele>
        <time>2022-02-12T08:31:21Z</time>
      </trkpt>
      <trkpt lat="43.08761" lon="-0.0954">
        <ele>752.8</ele>
        <time>2022-02-12T08:31:22Z</time>
      </trkpt>
      <trkpt lat="43.0876" lon="-0.0954">
        <ele>753</ele>
        <time>2022-02-12T08:31:23Z</time>
      </trkpt>
      <trkpt lat="43.0876" lon="-0.09539">
        <ele>753</ele>
        <time>2022-02-12T08:31:24Z</time>
      </trkpt>
      <trkpt lat="43.0876" lon="-0.09539">
        <ele>753.2</ele>
        <time>2022-02-12T08:31:25Z</time>
      </trkpt>
      <trkpt lat="43.08759" lon="-0.09539">
        <ele>753.2</ele>
        <time>2022-02-12T08:31:26Z</time>
      </trkpt>
      <trkpt lat="43.08759" lon="-0.09539">
        <ele>753.2</ele>
        <time>2022-02-12T08:31:27Z</time>
      </trkpt>
      <trkpt lat="43.08759" lon="-0.09539">
        <ele>753.2</ele>
        <time>2022-02-12T08:31:28Z</time>
      </trkpt>
      <trkpt lat="43.08759" lon="-0.09539">
        <ele>753.4</ele>
        <time>2022-02-12T08:31:29Z</time>
      </trkpt>
      <trkpt lat="43.08758" lon="-0.09539">
        <ele>753.6</ele>
        <time>2022-02-12T08:31:30Z</time>
      </trkpt>
      <trkpt lat="43.08758" lon="-0.09539">
        <ele>753.8</ele>
        <time>2022-02-12T08:31:31Z</time>
      </trkpt>
      <trkpt lat="43.08757" lon="-0.09539">
        <ele>754</ele>
        <time>2022-02-12T08:31:32Z</time>
      </trkpt>
      <trkpt lat="43.08756" lon="-0.09539">
        <ele>754.2</ele>
        <time>2022-02-12T08:31:33Z</time>
      </trkpt>
      <trkpt lat="43.08756" lon="-0.0954">
        <ele>754.2</ele>
        <time>2022-02-12T08:31:34Z</time>
      </trkpt>
      <trkpt lat="43.08755" lon="-0.0954">
        <ele>754.4</ele>
        <time>2022-02-12T08:31:35Z</time>
      </trkpt>
      <trkpt lat="43.08754" lon="-0.0954">
        <ele>754.6</ele>
        <time>2022-02-12T08:31:36Z</time>
      </trkpt>
      <trkpt lat="43.08753" lon="-0.09541">
        <ele>754.6</ele>
        <time>2022-02-12T08:31:37Z</time>
      </trkpt>
      <trkpt lat="43.08752" lon="-0.09541">
        <ele>754.8</ele>
        <time>2022-02-12T08:31:38Z</time>
      </trkpt>
      <trkpt lat="43.08752" lon="-0.09542">
        <ele>754.8</ele>
        <time>2022-02-12T08:31:39Z</time>
      </trkpt>
      <trkpt lat="43.08751" lon="-0.09542">
        <ele>755</ele>
        <time>2022-02-12T08:31:40Z</time>
      </trkpt>
      <trkpt lat="43.0875" lon="-0.09542">
        <ele>755</ele>
        <time>2022-02-12T08:31:41Z</time>
      </trkpt>
      <trkpt lat="43.08749" lon="-0.09543">
        <ele>755.2</ele>
        <time>2022-02-12T08:31:42Z</time>
      </trkpt>
      <trkpt lat="43.08749" lon="-0.09543">
        <ele>755.2</ele>
        <time>2022-02-12T08:31:43Z</time>
      </trkpt>
      <trkpt lat="43.08748" lon="-0.09544">
        <ele>755.4</ele>
        <time>2022-02-12T08:31:44Z</time>
      </trkpt>
      <trkpt lat="43.08747" lon="-0.09545">
        <ele>755.6</ele>
        <time>2022-02-12T08:31:45Z</time>
      </trkpt>
      <trkpt lat="43.08747" lon="-0.09546">
        <ele>755.6</ele>
        <time>2022-02-12T08:31:46Z</time>
      </trkpt>
      <trkpt lat="43.08746" lon="-0.09547">
        <ele>755.6</ele>
        <time>2022-02-12T08:31:47Z</time>
      </trkpt>
      <trkpt lat="43.08745" lon="-0.09547">
        <ele>755.8</ele>
        <time>2022-02-12T08:31:48Z</time>
      </trkpt>
      <trkpt lat="43.08744" lon="-0.09548">
        <ele>755.8</ele>
        <time>2022-02-12T08:31:49Z</time>
      </trkpt>
      <trkpt lat="43.08743" lon="-0.09548">
        <ele>756</ele>
        <time>2022-02-12T08:31:50Z</time>
      </trkpt>
      <trkpt lat="43.08743" lon="-0.09549">
        <ele>756</ele>
        <time>2022-02-12T08:31:51Z</time>
      </trkpt>
      <trkpt lat="43.08742" lon="-0.09549">
        <ele>756</ele>
        <time>2022-02-12T08:31:52Z</time>
      </trkpt>
      <trkpt lat="43.08741" lon="-0.0955">
        <ele>756</ele>
        <time>2022-02-12T08:31:53Z</time>
      </trkpt>
      <trkpt lat="43.0874" lon="-0.0955">
        <ele>756</ele>
        <time>2022-02-12T08:31:54Z</time>
      </trkpt>
      <trkpt lat="43.08739" lon="-0.0955">
        <ele>756.2</ele>
        <time>2022-02-12T08:31:55Z</time>
      </trkpt>
      <trkpt lat="43.08739" lon="-0.09551">
        <ele>756.2</ele>
        <time>2022-02-12T08:31:56Z</time>
      </trkpt>
      <trkpt lat="43.08738" lon="-0.09552">
        <ele>756.2</ele>
        <time>2022-02-12T08:31:57Z</time>
      </trkpt>
      <trkpt lat="43.08737" lon="-0.09552">
        <ele>756.4</ele>
        <time>2022-02-12T08:31:58Z</time>
      </trkpt>
      <trkpt lat="43.08737" lon="-0.09552">
        <ele>756.4</ele>
        <time>2022-02-12T08:31:59Z</time>
      </trkpt>
      <trkpt lat="43.08736" lon="-0.09552">
        <ele>756.6</ele>
        <time>2022-02-12T08:32:00Z</time>
      </trkpt>
      <trkpt lat="43.08735" lon="-0.09552">
        <ele>756.6</ele>
        <time>2022-02-12T08:32:01Z</time>
      </trkpt>
      <trkpt lat="43.08735" lon="-0.09552">
        <ele>756.6</ele>
        <time>2022-02-12T08:32:02Z</time>
      </trkpt>
      <trkpt lat="43.08734" lon="-0.09552">
        <ele>756.6</ele>
        <time>2022-02-12T08:32:03Z</time>
      </trkpt>
      <trkpt lat="43.08733" lon="-0.09552">
        <ele>756.8</ele>
        <time>2022-02-12T08:32:04Z</time>
      </trkpt>
      <trkpt lat="43.08732" lon="-0.09552">
        <ele>756.8</ele>
        <time>2022-02-12T08:32:05Z</time>
      </trkpt>
      <trkpt lat="43.08731" lon="-0.09552">
        <ele>757</ele>
        <time>2022-02-12T08:32:06Z</time>
      </trkpt>
      <trkpt lat="43.0873" lon="-0.09552">
        <ele>757</ele>
        <time>2022-02-12T08:32:07Z</time>
      </trkpt>
      <trkpt lat="43.08729" lon="-0.09553">
        <ele>757</ele>
        <time>2022-02-12T08:32:08Z</time>
      </trkpt>
      <trkpt lat="43.08728" lon="-0.09553">
        <ele>757</ele>
        <time>2022-02-12T08:32:09Z</time>
      </trkpt>
      <trkpt lat="43.08727" lon="-0.09553">
        <ele>757</ele>
        <time>2022-02-12T08:32:10Z</time>
      </trkpt>
      <trkpt lat="43.08726" lon="-0.09553">
        <ele>757.2</ele>
        <time>2022-02-12T08:32:11Z</time>
      </trkpt>
      <trkpt lat="43.08726" lon="-0.09554">
        <ele>757.2</ele>
        <time>2022-02-12T08:32:12Z</time>
      </trkpt>
      <trkpt lat="43.08725" lon="-0.09554">
        <ele>757.2</ele>
        <time>2022-02-12T08:32:13Z</time>
      </trkpt>
      <trkpt lat="43.08724" lon="-0.09554">
        <ele>757.4</ele>
        <time>2022-02-12T08:32:14Z</time>
      </trkpt>
      <trkpt lat="43.08723" lon="-0.09554">
        <ele>757.4</ele>
        <time>2022-02-12T08:32:15Z</time>
      </trkpt>
      <trkpt lat="43.08723" lon="-0.09554">
        <ele>757.4</ele>
        <time>2022-02-12T08:32:16Z</time>
      </trkpt>
      <trkpt lat="43.08722" lon="-0.09554">
        <ele>757.6</ele>
        <time>2022-02-12T08:32:17Z</time>
      </trkpt>
      <trkpt lat="43.08721" lon="-0.09554">
        <ele>757.8</ele>
        <time>2022-02-12T08:32:18Z</time>
      </trkpt>
      <trkpt lat="43.0872" lon="-0.09554">
        <ele>757.8</ele>
        <time>2022-02-12T08:32:19Z</time>
      </trkpt>
      <trkpt lat="43.0872" lon="-0.09555">
        <ele>757.8</ele>
        <time>2022-02-12T08:32:20Z</time>
      </trkpt>
      <trkpt lat="43.08719" lon="-0.09555">
        <ele>758.2</ele>
        <time>2022-02-12T08:32:21Z</time>
      </trkpt>
      <trkpt lat="43.08719" lon="-0.09554">
        <ele>758.2</ele>
        <time>2022-02-12T08:32:22Z</time>
      </trkpt>
      <trkpt lat="43.08719" lon="-0.09554">
        <ele>758.4</ele>
        <time>2022-02-12T08:32:23Z</time>
      </trkpt>
      <trkpt lat="43.08719" lon="-0.09555">
        <ele>758.4</ele>
        <time>2022-02-12T08:32:24Z</time>
      </trkpt>
      <trkpt lat="43.08718" lon="-0.09555">
        <ele>758.6</ele>
        <time>2022-02-12T08:32:25Z</time>
      </trkpt>
      <trkpt lat="43.08718" lon="-0.09555">
        <ele>758.8</ele>
        <time>2022-02-12T08:32:26Z</time>
      </trkpt>
      <trkpt lat="43.08717" lon="-0.09555">
        <ele>758.8</ele>
        <time>2022-02-12T08:32:27Z</time>
      </trkpt>
      <trkpt lat="43.08717" lon="-0.09555">
        <ele>759</ele>
        <time>2022-02-12T08:32:28Z</time>
      </trkpt>
      <trkpt lat="43.08716" lon="-0.09555">
        <ele>759</ele>
        <time>2022-02-12T08:32:29Z</time>
      </trkpt>
      <trkpt lat="43.08715" lon="-0.09555">
        <ele>759</ele>
        <time>2022-02-12T08:32:30Z</time>
      </trkpt>
      <trkpt lat="43.08714" lon="-0.09554">
        <ele>759.2</ele>
        <time>2022-02-12T08:32:31Z</time>
      </trkpt>
      <trkpt lat="43.08713" lon="-0.09554">
        <ele>759.2</ele>
        <time>2022-02-12T08:32:32Z</time>
      </trkpt>
      <trkpt lat="43.08713" lon="-0.09554">
        <ele>759.2</ele>
        <time>2022-02-12T08:32:33Z</time>
      </trkpt>
      <trkpt lat="43.08712" lon="-0.09554">
        <ele>759.2</ele>
        <time>2022-02-12T08:32:34Z</time>
      </trkpt>
      <trkpt lat="43.08711" lon="-0.09554">
        <ele>759.4</ele>
        <time>2022-02-12T08:32:35Z</time>
      </trkpt>
      <trkpt lat="43.0871" lon="-0.09554">
        <ele>759.4</ele>
        <time>2022-02-12T08:32:36Z</time>
      </trkpt>
      <trkpt lat="43.0871" lon="-0.09554">
        <ele>759.4</ele>
        <time>2022-02-12T08:32:37Z</time>
      </trkpt>
      <trkpt lat="43.08709" lon="-0.09553">
        <ele>759.6</ele>
        <time>2022-02-12T08:32:38Z</time>
      </trkpt>
      <trkpt lat="43.08708" lon="-0.09553">
        <ele>759.6</ele>
        <time>2022-02-12T08:32:39Z</time>
      </trkpt>
      <trkpt lat="43.08707" lon="-0.09553">
        <ele>759.6</ele>
        <time>2022-02-12T08:32:40Z</time>
      </trkpt>
      <trkpt lat="43.08707" lon="-0.09552">
        <ele>759.6</ele>
        <time>2022-02-12T08:32:41Z</time>
      </trkpt>
      <trkpt lat="43.08706" lon="-0.09552">
        <ele>759.6</ele>
        <time>2022-02-12T08:32:42Z</time>
      </trkpt>
      <trkpt lat="43.08706" lon="-0.09551">
        <ele>759.6</ele>
        <time>2022-02-12T08:32:43Z</time>
      </trkpt>
      <trkpt lat="43.08705" lon="-0.09551">
        <ele>759.6</ele>
        <time>2022-02-12T08:32:44Z</time>
      </trkpt>
      <trkpt lat="43.08704" lon="-0.0955">
        <ele>760</ele>
        <time>2022-02-12T08:32:45Z</time>
      </trkpt>
      <trkpt lat="43.08703" lon="-0.0955">
        <ele>760</ele>
        <time>2022-02-12T08:32:46Z</time>
      </trkpt>
      <trkpt lat="43.08702" lon="-0.0955">
        <ele>759.8</ele>
        <time>2022-02-12T08:32:47Z</time>
      </trkpt>
      <trkpt lat="43.08702" lon="-0.0955">
        <ele>760</ele>
        <time>2022-02-12T08:32:48Z</time>
      </trkpt>
      <trkpt lat="43.08701" lon="-0.0955">
        <ele>760.2</ele>
        <time>2022-02-12T08:32:49Z</time>
      </trkpt>
      <trkpt lat="43.087" lon="-0.09549">
        <ele>760.2</ele>
        <time>2022-02-12T08:32:50Z</time>
      </trkpt>
      <trkpt lat="43.087" lon="-0.09549">
        <ele>760.2</ele>
        <time>2022-02-12T08:32:51Z</time>
      </trkpt>
      <trkpt lat="43.08699" lon="-0.09548">
        <ele>760.2</ele>
        <time>2022-02-12T08:32:52Z</time>
      </trkpt>
      <trkpt lat="43.08699" lon="-0.09547">
        <ele>760.2</ele>
        <time>2022-02-12T08:32:53Z</time>
      </trkpt>
      <trkpt lat="43.08699" lon="-0.09547">
        <ele>760.2</ele>
        <time>2022-02-12T08:32:54Z</time>
      </trkpt>
      <trkpt lat="43.08698" lon="-0.09546">
        <ele>760.2</ele>
        <time>2022-02-12T08:32:55Z</time>
      </trkpt>
      <trkpt lat="43.08698" lon="-0.09546">
        <ele>760.2</ele>
        <time>2022-02-12T08:32:56Z</time>
      </trkpt>
      <trkpt lat="43.08698" lon="-0.09546">
        <ele>760.2</ele>
        <time>2022-02-12T08:32:57Z</time>
      </trkpt>
      <trkpt lat="43.08697" lon="-0.09546">
        <ele>760.2</ele>
        <time>2022-02-12T08:32:58Z</time>
      </trkpt>
      <trkpt lat="43.08697" lon="-0.09546">
        <ele>760.2</ele>
        <time>2022-02-12T08:32:59Z</time>
      </trkpt>
      <trkpt lat="43.08697" lon="-0.09545">
        <ele>760.2</ele>
        <time>2022-02-12T08:33:00Z</time>
      </trkpt>
      <trkpt lat="43.08696" lon="-0.09545">
        <ele>760.2</ele>
        <time>2022-02-12T08:33:01Z</time>
      </trkpt>
      <trkpt lat="43.08695" lon="-0.09544">
        <ele>760.2</ele>
        <time>2022-02-12T08:33:02Z</time>
      </trkpt>
      <trkpt lat="43.08695" lon="-0.09544">
        <ele>760.2</ele>
        <time>2022-02-12T08:33:03Z</time>
      </trkpt>
      <trkpt lat="43.08695" lon="-0.09543">
        <ele>760.2</ele>
        <time>2022-02-12T08:33:04Z</time>
      </trkpt>
      <trkpt lat="43.08694" lon="-0.09543">
        <ele>760.6</ele>
        <time>2022-02-12T08:33:05Z</time>
      </trkpt>
      <trkpt lat="43.08694" lon="-0.09543">
        <ele>760.6</ele>
        <time>2022-02-12T08:33:06Z</time>
      </trkpt>
      <trkpt lat="43.08694" lon="-0.09542">
        <ele>760.6</ele>
        <time>2022-02-12T08:33:07Z</time>
      </trkpt>
      <trkpt lat="43.08693" lon="-0.09542">
        <ele>760.6</ele>
        <time>2022-02-12T08:33:08Z</time>
      </trkpt>
      <trkpt lat="43.08693" lon="-0.09541">
        <ele>760.6</ele>
        <time>2022-02-12T08:33:09Z</time>
      </trkpt>
      <trkpt lat="43.08692" lon="-0.09541">
        <ele>760.6</ele>
        <time>2022-02-12T08:33:10Z</time>
      </trkpt>
      <trkpt lat="43.08691" lon="-0.0954">
        <ele>760.8</ele>
        <time>2022-02-12T08:33:11Z</time>
      </trkpt>
      <trkpt lat="43.08691" lon="-0.09539">
        <ele>760.8</ele>
        <time>2022-02-12T08:33:12Z</time>
      </trkpt>
      <trkpt lat="43.0869" lon="-0.09539">
        <ele>760.8</ele>
        <time>2022-02-12T08:33:13Z</time>
      </trkpt>
      <trkpt lat="43.08689" lon="-0.09538">
        <ele>761</ele>
        <time>2022-02-12T08:33:14Z</time>
      </trkpt>
      <trkpt lat="43.08689" lon="-0.09537">
        <ele>761.2</ele>
        <time>2022-02-12T08:33:15Z</time>
      </trkpt>
      <trkpt lat="43.08688" lon="-0.09536">
        <ele>761.2</ele>
        <time>2022-02-12T08:33:16Z</time>
      </trkpt>
      <trkpt lat="43.08687" lon="-0.09536">
        <ele>761.2</ele>
        <time>2022-02-12T08:33:17Z</time>
      </trkpt>
      <trkpt lat="43.08686" lon="-0.09535">
        <ele>761.2</ele>
        <time>2022-02-12T08:33:18Z</time>
      </trkpt>
      <trkpt lat="43.08686" lon="-0.09534">
        <ele>761.2</ele>
        <time>2022-02-12T08:33:19Z</time>
      </trkpt>
      <trkpt lat="43.08685" lon="-0.09533">
        <ele>761.2</ele>
        <time>2022-02-12T08:33:20Z</time>
      </trkpt>
      <trkpt lat="43.08684" lon="-0.09533">
        <ele>761.2</ele>
        <time>2022-02-12T08:33:21Z</time>
      </trkpt>
      <trkpt lat="43.08684" lon="-0.09532">
        <ele>761.2</ele>
        <time>2022-02-12T08:33:22Z</time>
      </trkpt>
      <trkpt lat="43.08683" lon="-0.09532">
        <ele>761.2</ele>
        <time>2022-02-12T08:33:23Z</time>
      </trkpt>
      <trkpt lat="43.08682" lon="-0.09531">
        <ele>761.2</ele>
        <time>2022-02-12T08:33:24Z</time>
      </trkpt>
      <trkpt lat="43.08681" lon="-0.0953">
        <ele>761.2</ele>
        <time>2022-02-12T08:33:25Z</time>
      </trkpt>
      <trkpt lat="43.08681" lon="-0.09529">
        <ele>761.2</ele>
        <time>2022-02-12T08:33:26Z</time>
      </trkpt>
      <trkpt lat="43.0868" lon="-0.09528">
        <ele>761.2</ele>
        <time>2022-02-12T08:33:27Z</time>
      </trkpt>
      <trkpt lat="43.08679" lon="-0.09528">
        <ele>761.2</ele>
        <time>2022-02-12T08:33:28Z</time>
      </trkpt>
      <trkpt lat="43.08678" lon="-0.09527">
        <ele>761.2</ele>
        <time>2022-02-12T08:33:29Z</time>
      </trkpt>
      <trkpt lat="43.08677" lon="-0.09527">
        <ele>761.2</ele>
        <time>2022-02-12T08:33:30Z</time>
      </trkpt>
      <trkpt lat="43.08677" lon="-0.09526">
        <ele>761.2</ele>
        <time>2022-02-12T08:33:31Z</time>
      </trkpt>
      <trkpt lat="43.08676" lon="-0.09525">
        <ele>761.2</ele>
        <time>2022-02-12T08:33:32Z</time>
      </trkpt>
      <trkpt lat="43.08675" lon="-0.09524">
        <ele>761.2</ele>
        <time>2022-02-12T08:33:33Z</time>
      </trkpt>
      <trkpt lat="43.08675" lon="-0.09524">
        <ele>761.2</ele>
        <time>2022-02-12T08:33:34Z</time>
      </trkpt>
      <trkpt lat="43.08674" lon="-0.09524">
        <ele>761.2</ele>
        <time>2022-02-12T08:33:35Z</time>
      </trkpt>
      <trkpt lat="43.08674" lon="-0.09524">
        <ele>761.4</ele>
        <time>2022-02-12T08:33:36Z</time>
      </trkpt>
      <trkpt lat="43.08674" lon="-0.09524">
        <ele>761.4</ele>
        <time>2022-02-12T08:33:37Z</time>
      </trkpt>
      <trkpt lat="43.08673" lon="-0.09524">
        <ele>761.4</ele>
        <time>2022-02-12T08:33:38Z</time>
      </trkpt>
      <trkpt lat="43.08672" lon="-0.09523">
        <ele>761.4</ele>
        <time>2022-02-12T08:33:39Z</time>
      </trkpt>
      <trkpt lat="43.08672" lon="-0.09523">
        <ele>761.4</ele>
        <time>2022-02-12T08:33:40Z</time>
      </trkpt>
      <trkpt lat="43.08672" lon="-0.09523">
        <ele>761.4</ele>
        <time>2022-02-12T08:33:41Z</time>
      </trkpt>
      <trkpt lat="43.08672" lon="-0.09523">
        <ele>761.4</ele>
        <time>2022-02-12T08:33:42Z</time>
      </trkpt>
      <trkpt lat="43.08672" lon="-0.09523">
        <ele>761.4</ele>
        <time>2022-02-12T08:33:43Z</time>
      </trkpt>
      <trkpt lat="43.08672" lon="-0.09523">
        <ele>761.4</ele>
        <time>2022-02-12T08:33:44Z</time>
      </trkpt>
      <trkpt lat="43.08671" lon="-0.09523">
        <ele>761.4</ele>
        <time>2022-02-12T08:33:45Z</time>
      </trkpt>
      <trkpt lat="43.0867" lon="-0.09523">
        <ele>761.4</ele>
        <time>2022-02-12T08:33:46Z</time>
      </trkpt>
      <trkpt lat="43.0867" lon="-0.09522">
        <ele>761.4</ele>
        <time>2022-02-12T08:33:47Z</time>
      </trkpt>
      <trkpt lat="43.08669" lon="-0.09522">
        <ele>761.4</ele>
        <time>2022-02-12T08:33:48Z</time>
      </trkpt>
      <trkpt lat="43.08668" lon="-0.09521">
        <ele>761.4</ele>
        <time>2022-02-12T08:33:49Z</time>
      </trkpt>
      <trkpt lat="43.08667" lon="-0.0952">
        <ele>761.4</ele>
        <time>2022-02-12T08:33:50Z</time>
      </trkpt>
      <trkpt lat="43.08667" lon="-0.0952">
        <ele>761.4</ele>
        <time>2022-02-12T08:33:51Z</time>
      </trkpt>
      <trkpt lat="43.08666" lon="-0.09519">
        <ele>761.4</ele>
        <time>2022-02-12T08:33:52Z</time>
      </trkpt>
      <trkpt lat="43.08666" lon="-0.09519">
        <ele>761.4</ele>
        <time>2022-02-12T08:33:53Z</time>
      </trkpt>
      <trkpt lat="43.08666" lon="-0.09519">
        <ele>761.4</ele>
        <time>2022-02-12T08:33:54Z</time>
      </trkpt>
      <trkpt lat="43.08665" lon="-0.09519">
        <ele>761.6</ele>
        <time>2022-02-12T08:33:55Z</time>
      </trkpt>
      <trkpt lat="43.08665" lon="-0.09518">
        <ele>761.4</ele>
        <time>2022-02-12T08:33:56Z</time>
      </trkpt>
      <trkpt lat="43.08664" lon="-0.09517">
        <ele>761.6</ele>
        <time>2022-02-12T08:33:57Z</time>
      </trkpt>
      <trkpt lat="43.08664" lon="-0.09516">
        <ele>761.8</ele>
        <time>2022-02-12T08:33:58Z</time>
      </trkpt>
      <trkpt lat="43.08663" lon="-0.09516">
        <ele>761.8</ele>
        <time>2022-02-12T08:33:59Z</time>
      </trkpt>
      <trkpt lat="43.08662" lon="-0.09515">
        <ele>761.8</ele>
        <time>2022-02-12T08:34:00Z</time>
      </trkpt>
      <trkpt lat="43.08661" lon="-0.09515">
        <ele>762</ele>
        <time>2022-02-12T08:34:01Z</time>
      </trkpt>
      <trkpt lat="43.08661" lon="-0.09515">
        <ele>762</ele>
        <time>2022-02-12T08:34:02Z</time>
      </trkpt>
      <trkpt lat="43.08661" lon="-0.09515">
        <ele>762</ele>
        <time>2022-02-12T08:34:03Z</time>
      </trkpt>
      <trkpt lat="43.08661" lon="-0.09515">
        <ele>762</ele>
        <time>2022-02-12T08:34:04Z</time>
      </trkpt>
      <trkpt lat="43.08661" lon="-0.09515">
        <ele>762</ele>
        <time>2022-02-12T08:34:05Z</time>
      </trkpt>
      <trkpt lat="43.08661" lon="-0.09515">
        <ele>762</ele>
        <time>2022-02-12T08:34:06Z</time>
      </trkpt>
      <trkpt lat="43.08661" lon="-0.09515">
        <ele>762.2</ele>
        <time>2022-02-12T08:34:07Z</time>
      </trkpt>
      <trkpt lat="43.08661" lon="-0.09515">
        <ele>762.2</ele>
        <time>2022-02-12T08:34:08Z</time>
      </trkpt>
      <trkpt lat="43.08661" lon="-0.09515">
        <ele>762.2</ele>
        <time>2022-02-12T08:34:09Z</time>
      </trkpt>
      <trkpt lat="43.08661" lon="-0.09515">
        <ele>762.2</ele>
        <time>2022-02-12T08:34:10Z</time>
      </trkpt>
      <trkpt lat="43.08661" lon="-0.09515">
        <ele>762.2</ele>
        <time>2022-02-12T08:34:11Z</time>
      </trkpt>
      <trkpt lat="43.08661" lon="-0.09515">
        <ele>762.2</ele>
        <time>2022-02-12T08:34:12Z</time>
      </trkpt>
      <trkpt lat="43.0866" lon="-0.09515">
        <ele>762.2</ele>
        <time>2022-02-12T08:34:13Z</time>
      </trkpt>
      <trkpt lat="43.08659" lon="-0.09514">
        <ele>762.2</ele>
        <time>2022-02-12T08:34:14Z</time>
      </trkpt>
      <trkpt lat="43.08658" lon="-0.09514">
        <ele>762.2</ele>
        <time>2022-02-12T08:34:15Z</time>
      </trkpt>
      <trkpt lat="43.08657" lon="-0.09514">
        <ele>762.2</ele>
        <time>2022-02-12T08:34:16Z</time>
      </trkpt>
      <trkpt lat="43.08656" lon="-0.09513">
        <ele>762.2</ele>
        <time>2022-02-12T08:34:17Z</time>
      </trkpt>
      <trkpt lat="43.08655" lon="-0.09512">
        <ele>762.2</ele>
        <time>2022-02-12T08:34:18Z</time>
      </trkpt>
      <trkpt lat="43.08654" lon="-0.09511">
        <ele>762.2</ele>
        <time>2022-02-12T08:34:19Z</time>
      </trkpt>
      <trkpt lat="43.08653" lon="-0.09511">
        <ele>762.2</ele>
        <time>2022-02-12T08:34:20Z</time>
      </trkpt>
      <trkpt lat="43.08651" lon="-0.0951">
        <ele>762.2</ele>
        <time>2022-02-12T08:34:21Z</time>
      </trkpt>
      <trkpt lat="43.0865" lon="-0.09509">
        <ele>762.2</ele>
        <time>2022-02-12T08:34:22Z</time>
      </trkpt>
      <trkpt lat="43.08649" lon="-0.09508">
        <ele>762.4</ele>
        <time>2022-02-12T08:34:23Z</time>
      </trkpt>
      <trkpt lat="43.08647" lon="-0.09508">
        <ele>762.4</ele>
        <time>2022-02-12T08:34:24Z</time>
      </trkpt>
      <trkpt lat="43.08646" lon="-0.09507">
        <ele>762.6</ele>
        <time>2022-02-12T08:34:25Z</time>
      </trkpt>
      <trkpt lat="43.08645" lon="-0.09506">
        <ele>762.6</ele>
        <time>2022-02-12T08:34:26Z</time>
      </trkpt>
      <trkpt lat="43.08644" lon="-0.09505">
        <ele>762.6</ele>
        <time>2022-02-12T08:34:27Z</time>
      </trkpt>
      <trkpt lat="43.08643" lon="-0.09505">
        <ele>762.6</ele>
        <time>2022-02-12T08:34:28Z</time>
      </trkpt>
      <trkpt lat="43.08642" lon="-0.09505">
        <ele>762.6</ele>
        <time>2022-02-12T08:34:29Z</time>
      </trkpt>
      <trkpt lat="43.08641" lon="-0.09504">
        <ele>762.8</ele>
        <time>2022-02-12T08:34:30Z</time>
      </trkpt>
      <trkpt lat="43.0864" lon="-0.09503">
        <ele>762.8</ele>
        <time>2022-02-12T08:34:31Z</time>
      </trkpt>
      <trkpt lat="43.08639" lon="-0.09502">
        <ele>763</ele>
        <time>2022-02-12T08:34:32Z</time>
      </trkpt>
      <trkpt lat="43.08638" lon="-0.09501">
        <ele>763.2</ele>
        <time>2022-02-12T08:34:33Z</time>
      </trkpt>
      <trkpt lat="43.08636" lon="-0.09501">
        <ele>763.4</ele>
        <time>2022-02-12T08:34:34Z</time>
      </trkpt>
      <trkpt lat="43.08635" lon="-0.095">
        <ele>763.4</ele>
        <time>2022-02-12T08:34:35Z</time>
      </trkpt>
      <trkpt lat="43.08635" lon="-0.09501">
        <ele>763.6</ele>
        <time>2022-02-12T08:34:36Z</time>
      </trkpt>
      <trkpt lat="43.08634" lon="-0.09501">
        <ele>763.6</ele>
        <time>2022-02-12T08:34:37Z</time>
      </trkpt>
      <trkpt lat="43.08633" lon="-0.095">
        <ele>763.8</ele>
        <time>2022-02-12T08:34:38Z</time>
      </trkpt>
      <trkpt lat="43.08632" lon="-0.09499">
        <ele>764</ele>
        <time>2022-02-12T08:34:39Z</time>
      </trkpt>
      <trkpt lat="43.08631" lon="-0.09498">
        <ele>764.2</ele>
        <time>2022-02-12T08:34:40Z</time>
      </trkpt>
      <trkpt lat="43.0863" lon="-0.09498">
        <ele>764.2</ele>
        <time>2022-02-12T08:34:41Z</time>
      </trkpt>
      <trkpt lat="43.0863" lon="-0.09497">
        <ele>764.4</ele>
        <time>2022-02-12T08:34:42Z</time>
      </trkpt>
      <trkpt lat="43.08629" lon="-0.09497">
        <ele>764.4</ele>
        <time>2022-02-12T08:34:43Z</time>
      </trkpt>
      <trkpt lat="43.08629" lon="-0.09497">
        <ele>764.6</ele>
        <time>2022-02-12T08:34:44Z</time>
      </trkpt>
      <trkpt lat="43.08629" lon="-0.09497">
        <ele>764.8</ele>
        <time>2022-02-12T08:34:45Z</time>
      </trkpt>
      <trkpt lat="43.08629" lon="-0.09497">
        <ele>765</ele>
        <time>2022-02-12T08:34:46Z</time>
      </trkpt>
      <trkpt lat="43.08629" lon="-0.09497">
        <ele>765</ele>
        <time>2022-02-12T08:34:47Z</time>
      </trkpt>
      <trkpt lat="43.08629" lon="-0.09497">
        <ele>765.4</ele>
        <time>2022-02-12T08:34:48Z</time>
      </trkpt>
      <trkpt lat="43.08629" lon="-0.09497">
        <ele>765.4</ele>
        <time>2022-02-12T08:34:49Z</time>
      </trkpt>
      <trkpt lat="43.08628" lon="-0.09497">
        <ele>765.6</ele>
        <time>2022-02-12T08:34:50Z</time>
      </trkpt>
      <trkpt lat="43.08628" lon="-0.09497">
        <ele>765.6</ele>
        <time>2022-02-12T08:34:51Z</time>
      </trkpt>
      <trkpt lat="43.08628" lon="-0.09497">
        <ele>765.8</ele>
        <time>2022-02-12T08:34:52Z</time>
      </trkpt>
      <trkpt lat="43.08628" lon="-0.09497">
        <ele>765.8</ele>
        <time>2022-02-12T08:34:53Z</time>
      </trkpt>
      <trkpt lat="43.08628" lon="-0.09497">
        <ele>765.8</ele>
        <time>2022-02-12T08:34:54Z</time>
      </trkpt>
      <trkpt lat="43.08628" lon="-0.09497">
        <ele>765.8</ele>
        <time>2022-02-12T08:34:55Z</time>
      </trkpt>
      <trkpt lat="43.08628" lon="-0.09497">
        <ele>765.8</ele>
        <time>2022-02-12T08:34:56Z</time>
      </trkpt>
      <trkpt lat="43.08628" lon="-0.09497">
        <ele>765.8</ele>
        <time>2022-02-12T08:34:57Z</time>
      </trkpt>
      <trkpt lat="43.08628" lon="-0.09497">
        <ele>765.8</ele>
        <time>2022-02-12T08:34:58Z</time>
      </trkpt>
      <trkpt lat="43.08627" lon="-0.09498">
        <ele>765.8</ele>
        <time>2022-02-12T08:34:59Z</time>
      </trkpt>
      <trkpt lat="43.08627" lon="-0.09498">
        <ele>765.8</ele>
        <time>2022-02-12T08:35:00Z</time>
      </trkpt>
      <trkpt lat="43.08627" lon="-0.09498">
        <ele>765.8</ele>
        <time>2022-02-12T08:35:01Z</time>
      </trkpt>
      <trkpt lat="43.08627" lon="-0.09498">
        <ele>765.8</ele>
        <time>2022-02-12T08:35:02Z</time>
      </trkpt>
      <trkpt lat="43.08627" lon="-0.09498">
        <ele>765.8</ele>
        <time>2022-02-12T08:35:03Z</time>
      </trkpt>
      <trkpt lat="43.08627" lon="-0.09498">
        <ele>765.8</ele>
        <time>2022-02-12T08:35:04Z</time>
      </trkpt>
      <trkpt lat="43.08627" lon="-0.09498">
        <ele>765.8</ele>
        <time>2022-02-12T08:35:05Z</time>
      </trkpt>
      <trkpt lat="43.08627" lon="-0.09498">
        <ele>765.8</ele>
        <time>2022-02-12T08:35:06Z</time>
      </trkpt>
      <trkpt lat="43.08627" lon="-0.09498">
        <ele>765.8</ele>
        <time>2022-02-12T08:35:07Z</time>
      </trkpt>
      <trkpt lat="43.08627" lon="-0.09498">
        <ele>765.8</ele>
        <time>2022-02-12T08:35:08Z</time>
      </trkpt>
      <trkpt lat="43.08627" lon="-0.09498">
        <ele>765.8</ele>
        <time>2022-02-12T08:35:09Z</time>
      </trkpt>
      <trkpt lat="43.08626" lon="-0.09498">
        <ele>766</ele>
        <time>2022-02-12T08:35:10Z</time>
      </trkpt>
      <trkpt lat="43.08625" lon="-0.09498">
        <ele>766.2</ele>
        <time>2022-02-12T08:35:11Z</time>
      </trkpt>
      <trkpt lat="43.08623" lon="-0.09499">
        <ele>766.2</ele>
        <time>2022-02-12T08:35:12Z</time>
      </trkpt>
      <trkpt lat="43.08622" lon="-0.09499">
        <ele>766.4</ele>
        <time>2022-02-12T08:35:13Z</time>
      </trkpt>
      <trkpt lat="43.08621" lon="-0.09499">
        <ele>766.4</ele>
        <time>2022-02-12T08:35:14Z</time>
      </trkpt>
      <trkpt lat="43.0862" lon="-0.09499">
        <ele>766.4</ele>
        <time>2022-02-12T08:35:15Z</time>
      </trkpt>
      <trkpt lat="43.08618" lon="-0.09499">
        <ele>766.6</ele>
        <time>2022-02-12T08:35:16Z</time>
      </trkpt>
      <trkpt lat="43.08616" lon="-0.09499">
        <ele>766.6</ele>
        <time>2022-02-12T08:35:17Z</time>
      </trkpt>
      <trkpt lat="43.08615" lon="-0.095">
        <ele>766.6</ele>
        <time>2022-02-12T08:35:18Z</time>
      </trkpt>
      <trkpt lat="43.08614" lon="-0.095">
        <ele>766.8</ele>
        <time>2022-02-12T08:35:19Z</time>
      </trkpt>
      <trkpt lat="43.08613" lon="-0.09501">
        <ele>766.8</ele>
        <time>2022-02-12T08:35:20Z</time>
      </trkpt>
      <trkpt lat="43.08612" lon="-0.09501">
        <ele>766.8</ele>
        <time>2022-02-12T08:35:21Z</time>
      </trkpt>
      <trkpt lat="43.08612" lon="-0.09501">
        <ele>766.8</ele>
        <time>2022-02-12T08:35:22Z</time>
      </trkpt>
      <trkpt lat="43.08611" lon="-0.09501">
        <ele>766.8</ele>
        <time>2022-02-12T08:35:23Z</time>
      </trkpt>
      <trkpt lat="43.08611" lon="-0.09502">
        <ele>766.8</ele>
        <time>2022-02-12T08:35:24Z</time>
      </trkpt>
      <trkpt lat="43.0861" lon="-0.09502">
        <ele>766.8</ele>
        <time>2022-02-12T08:35:25Z</time>
      </trkpt>
      <trkpt lat="43.08609" lon="-0.09502">
        <ele>766.8</ele>
        <time>2022-02-12T08:35:26Z</time>
      </trkpt>
      <trkpt lat="43.08608" lon="-0.09503">
        <ele>766.8</ele>
        <time>2022-02-12T08:35:27Z</time>
      </trkpt>
      <trkpt lat="43.08607" lon="-0.09503">
        <ele>766.8</ele>
        <time>2022-02-12T08:35:28Z</time>
      </trkpt>
      <trkpt lat="43.08607" lon="-0.09503">
        <ele>766.8</ele>
        <time>2022-02-12T08:35:29Z</time>
      </trkpt>
      <trkpt lat="43.08607" lon="-0.09503">
        <ele>766.6</ele>
        <time>2022-02-12T08:35:30Z</time>
      </trkpt>
      <trkpt lat="43.08606" lon="-0.09503">
        <ele>766.6</ele>
        <time>2022-02-12T08:35:31Z</time>
      </trkpt>
      <trkpt lat="43.08606" lon="-0.09502">
        <ele>766.6</ele>
        <time>2022-02-12T08:35:32Z</time>
      </trkpt>
      <trkpt lat="43.08605" lon="-0.09503">
        <ele>766.6</ele>
        <time>2022-02-12T08:35:33Z</time>
      </trkpt>
      <trkpt lat="43.08605" lon="-0.09503">
        <ele>766.6</ele>
        <time>2022-02-12T08:35:34Z</time>
      </trkpt>
      <trkpt lat="43.08605" lon="-0.09503">
        <ele>766.6</ele>
        <time>2022-02-12T08:35:35Z</time>
      </trkpt>
      <trkpt lat="43.08604" lon="-0.09503">
        <ele>766.6</ele>
        <time>2022-02-12T08:35:36Z</time>
      </trkpt>
      <trkpt lat="43.08604" lon="-0.09503">
        <ele>766.6</ele>
        <time>2022-02-12T08:35:37Z</time>
      </trkpt>
      <trkpt lat="43.08603" lon="-0.09504">
        <ele>766.8</ele>
        <time>2022-02-12T08:35:38Z</time>
      </trkpt>
      <trkpt lat="43.08603" lon="-0.09504">
        <ele>766.8</ele>
        <time>2022-02-12T08:35:39Z</time>
      </trkpt>
      <trkpt lat="43.08602" lon="-0.09504">
        <ele>766.8</ele>
        <time>2022-02-12T08:35:40Z</time>
      </trkpt>
      <trkpt lat="43.08601" lon="-0.09504">
        <ele>767</ele>
        <time>2022-02-12T08:35:41Z</time>
      </trkpt>
      <trkpt lat="43.086" lon="-0.09504">
        <ele>767</ele>
        <time>2022-02-12T08:35:42Z</time>
      </trkpt>
      <trkpt lat="43.086" lon="-0.09504">
        <ele>767</ele>
        <time>2022-02-12T08:35:43Z</time>
      </trkpt>
      <trkpt lat="43.086" lon="-0.09504">
        <ele>767.2</ele>
        <time>2022-02-12T08:35:44Z</time>
      </trkpt>
      <trkpt lat="43.086" lon="-0.09504">
        <ele>767.2</ele>
        <time>2022-02-12T08:35:45Z</time>
      </trkpt>
      <trkpt lat="43.08599" lon="-0.09505">
        <ele>767.2</ele>
        <time>2022-02-12T08:35:46Z</time>
      </trkpt>
      <trkpt lat="43.08598" lon="-0.09505">
        <ele>767.4</ele>
        <time>2022-02-12T08:35:47Z</time>
      </trkpt>
      <trkpt lat="43.08598" lon="-0.09505">
        <ele>767.4</ele>
        <time>2022-02-12T08:35:48Z</time>
      </trkpt>
      <trkpt lat="43.08598" lon="-0.09505">
        <ele>767.4</ele>
        <time>2022-02-12T08:35:49Z</time>
      </trkpt>
      <trkpt lat="43.08598" lon="-0.09505">
        <ele>767.4</ele>
        <time>2022-02-12T08:35:50Z</time>
      </trkpt>
      <trkpt lat="43.08598" lon="-0.09505">
        <ele>767.4</ele>
        <time>2022-02-12T08:35:51Z</time>
      </trkpt>
      <trkpt lat="43.08598" lon="-0.09505">
        <ele>767.4</ele>
        <time>2022-02-12T08:35:52Z</time>
      </trkpt>
      <trkpt lat="43.08598" lon="-0.09505">
        <ele>767.4</ele>
        <time>2022-02-12T08:35:53Z</time>
      </trkpt>
      <trkpt lat="43.08597" lon="-0.09505">
        <ele>767.4</ele>
        <time>2022-02-12T08:35:54Z</time>
      </trkpt>
      <trkpt lat="43.08597" lon="-0.09505">
        <ele>767.4</ele>
        <time>2022-02-12T08:35:55Z</time>
      </trkpt>
      <trkpt lat="43.08596" lon="-0.09506">
        <ele>767.4</ele>
        <time>2022-02-12T08:35:56Z</time>
      </trkpt>
      <trkpt lat="43.08595" lon="-0.09506">
        <ele>767.4</ele>
        <time>2022-02-12T08:35:57Z</time>
      </trkpt>
      <trkpt lat="43.08594" lon="-0.09507">
        <ele>767.2</ele>
        <time>2022-02-12T08:35:58Z</time>
      </trkpt>
      <trkpt lat="43.08592" lon="-0.09508">
        <ele>767.2</ele>
        <time>2022-02-12T08:35:59Z</time>
      </trkpt>
      <trkpt lat="43.08591" lon="-0.09508">
        <ele>767.2</ele>
        <time>2022-02-12T08:36:00Z</time>
      </trkpt>
      <trkpt lat="43.08589" lon="-0.09508">
        <ele>767.2</ele>
        <time>2022-02-12T08:36:01Z</time>
      </trkpt>
      <trkpt lat="43.08587" lon="-0.09509">
        <ele>767.2</ele>
        <time>2022-02-12T08:36:02Z</time>
      </trkpt>
      <trkpt lat="43.08586" lon="-0.09509">
        <ele>767</ele>
        <time>2022-02-12T08:36:03Z</time>
      </trkpt>
      <trkpt lat="43.08586" lon="-0.0951">
        <ele>767</ele>
        <time>2022-02-12T08:36:04Z</time>
      </trkpt>
      <trkpt lat="43.08586" lon="-0.0951">
        <ele>767</ele>
        <time>2022-02-12T08:36:05Z</time>
      </trkpt>
      <trkpt lat="43.08586" lon="-0.0951">
        <ele>766.8</ele>
        <time>2022-02-12T08:36:06Z</time>
      </trkpt>
      <trkpt lat="43.08586" lon="-0.0951">
        <ele>766.8</ele>
        <time>2022-02-12T08:36:07Z</time>
      </trkpt>
      <trkpt lat="43.08586" lon="-0.0951">
        <ele>767</ele>
        <time>2022-02-12T08:36:08Z</time>
      </trkpt>
      <trkpt lat="43.08586" lon="-0.0951">
        <ele>767</ele>
        <time>2022-02-12T08:36:09Z</time>
      </trkpt>
      <trkpt lat="43.08586" lon="-0.0951">
        <ele>767</ele>
        <time>2022-02-12T08:36:10Z</time>
      </trkpt>
      <trkpt lat="43.08586" lon="-0.0951">
        <ele>766.8</ele>
        <time>2022-02-12T08:36:11Z</time>
      </trkpt>
      <trkpt lat="43.08586" lon="-0.0951">
        <ele>766.8</ele>
        <time>2022-02-12T08:36:12Z</time>
      </trkpt>
      <trkpt lat="43.08586" lon="-0.0951">
        <ele>766.8</ele>
        <time>2022-02-12T08:36:13Z</time>
      </trkpt>
      <trkpt lat="43.08586" lon="-0.0951">
        <ele>766.8</ele>
        <time>2022-02-12T08:36:14Z</time>
      </trkpt>
      <trkpt lat="43.08586" lon="-0.0951">
        <ele>766.8</ele>
        <time>2022-02-12T08:36:15Z</time>
      </trkpt>
      <trkpt lat="43.08586" lon="-0.0951">
        <ele>766.8</ele>
        <time>2022-02-12T08:36:16Z</time>
      </trkpt>
      <trkpt lat="43.08586" lon="-0.0951">
        <ele>766.8</ele>
        <time>2022-02-12T08:36:17Z</time>
      </trkpt>
      <trkpt lat="43.08586" lon="-0.0951">
        <ele>766.8</ele>
        <time>2022-02-12T08:36:18Z</time>
      </trkpt>
      <trkpt lat="43.08586" lon="-0.0951">
        <ele>766.8</ele>
        <time>2022-02-12T08:36:19Z</time>
      </trkpt>
      <trkpt lat="43.08586" lon="-0.0951">
        <ele>767</ele>
        <time>2022-02-12T08:36:20Z</time>
      </trkpt>
      <trkpt lat="43.08585" lon="-0.0951">
        <ele>767</ele>
        <time>2022-02-12T08:36:21Z</time>
      </trkpt>
      <trkpt lat="43.08584" lon="-0.0951">
        <ele>767</ele>
        <time>2022-02-12T08:36:22Z</time>
      </trkpt>
      <trkpt lat="43.08583" lon="-0.0951">
        <ele>767</ele>
        <time>2022-02-12T08:36:23Z</time>
      </trkpt>
      <trkpt lat="43.08582" lon="-0.0951">
        <ele>767.2</ele>
        <time>2022-02-12T08:36:24Z</time>
      </trkpt>
      <trkpt lat="43.08581" lon="-0.0951">
        <ele>767.2</ele>
        <time>2022-02-12T08:36:25Z</time>
      </trkpt>
      <trkpt lat="43.0858" lon="-0.0951">
        <ele>767.2</ele>
        <time>2022-02-12T08:36:26Z</time>
      </trkpt>
      <trkpt lat="43.08579" lon="-0.09509">
        <ele>767.2</ele>
        <time>2022-02-12T08:36:27Z</time>
      </trkpt>
      <trkpt lat="43.08578" lon="-0.09509">
        <ele>767.4</ele>
        <time>2022-02-12T08:36:28Z</time>
      </trkpt>
      <trkpt lat="43.08577" lon="-0.09509">
        <ele>767.4</ele>
        <time>2022-02-12T08:36:29Z</time>
      </trkpt>
      <trkpt lat="43.08576" lon="-0.09509">
        <ele>767.6</ele>
        <time>2022-02-12T08:36:30Z</time>
      </trkpt>
      <trkpt lat="43.08576" lon="-0.09509">
        <ele>767.6</ele>
        <time>2022-02-12T08:36:31Z</time>
      </trkpt>
      <trkpt lat="43.08576" lon="-0.09509">
        <ele>767.6</ele>
        <time>2022-02-12T08:36:32Z</time>
      </trkpt>
      <trkpt lat="43.08575" lon="-0.09508">
        <ele>767.6</ele>
        <time>2022-02-12T08:36:33Z</time>
      </trkpt>
      <trkpt lat="43.08575" lon="-0.09509">
        <ele>767.6</ele>
        <time>2022-02-12T08:36:34Z</time>
      </trkpt>
      <trkpt lat="43.08575" lon="-0.09509">
        <ele>767.6</ele>
        <time>2022-02-12T08:36:35Z</time>
      </trkpt>
      <trkpt lat="43.08574" lon="-0.09509">
        <ele>767.8</ele>
        <time>2022-02-12T08:36:36Z</time>
      </trkpt>
      <trkpt lat="43.08573" lon="-0.09509">
        <ele>768</ele>
        <time>2022-02-12T08:36:37Z</time>
      </trkpt>
      <trkpt lat="43.08572" lon="-0.09509">
        <ele>768.2</ele>
        <time>2022-02-12T08:36:38Z</time>
      </trkpt>
      <trkpt lat="43.08572" lon="-0.09509">
        <ele>768.2</ele>
        <time>2022-02-12T08:36:39Z</time>
      </trkpt>
      <trkpt lat="43.08571" lon="-0.09509">
        <ele>768.2</ele>
        <time>2022-02-12T08:36:40Z</time>
      </trkpt>
      <trkpt lat="43.0857" lon="-0.09508">
        <ele>768.4</ele>
        <time>2022-02-12T08:36:41Z</time>
      </trkpt>
      <trkpt lat="43.08569" lon="-0.09508">
        <ele>768.4</ele>
        <time>2022-02-12T08:36:42Z</time>
      </trkpt>
      <trkpt lat="43.08569" lon="-0.09508">
        <ele>768.6</ele>
        <time>2022-02-12T08:36:43Z</time>
      </trkpt>
      <trkpt lat="43.08568" lon="-0.09508">
        <ele>768.6</ele>
        <time>2022-02-12T08:36:44Z</time>
      </trkpt>
      <trkpt lat="43.08567" lon="-0.09508">
        <ele>768.6</ele>
        <time>2022-02-12T08:36:45Z</time>
      </trkpt>
      <trkpt lat="43.08566" lon="-0.09508">
        <ele>768.8</ele>
        <time>2022-02-12T08:36:46Z</time>
      </trkpt>
      <trkpt lat="43.08565" lon="-0.09508">
        <ele>768.8</ele>
        <time>2022-02-12T08:36:47Z</time>
      </trkpt>
      <trkpt lat="43.08565" lon="-0.09508">
        <ele>769.2</ele>
        <time>2022-02-12T08:36:48Z</time>
      </trkpt>
      <trkpt lat="43.08564" lon="-0.09508">
        <ele>769.2</ele>
        <time>2022-02-12T08:36:49Z</time>
      </trkpt>
      <trkpt lat="43.08563" lon="-0.09509">
        <ele>769.2</ele>
        <time>2022-02-12T08:36:50Z</time>
      </trkpt>
      <trkpt lat="43.08562" lon="-0.09509">
        <ele>769.4</ele>
        <time>2022-02-12T08:36:51Z</time>
      </trkpt>
      <trkpt lat="43.08562" lon="-0.09509">
        <ele>769.4</ele>
        <time>2022-02-12T08:36:52Z</time>
      </trkpt>
      <trkpt lat="43.08561" lon="-0.09509">
        <ele>769.6</ele>
        <time>2022-02-12T08:36:53Z</time>
      </trkpt>
      <trkpt lat="43.0856" lon="-0.09509">
        <ele>769.6</ele>
        <time>2022-02-12T08:36:54Z</time>
      </trkpt>
      <trkpt lat="43.08559" lon="-0.09509">
        <ele>769.8</ele>
        <time>2022-02-12T08:36:55Z</time>
      </trkpt>
      <trkpt lat="43.08559" lon="-0.09509">
        <ele>769.8</ele>
        <time>2022-02-12T08:36:56Z</time>
      </trkpt>
      <trkpt lat="43.08558" lon="-0.09509">
        <ele>769.8</ele>
        <time>2022-02-12T08:36:57Z</time>
      </trkpt>
      <trkpt lat="43.08557" lon="-0.09509">
        <ele>769.8</ele>
        <time>2022-02-12T08:36:58Z</time>
      </trkpt>
      <trkpt lat="43.08556" lon="-0.09509">
        <ele>770</ele>
        <time>2022-02-12T08:36:59Z</time>
      </trkpt>
      <trkpt lat="43.08555" lon="-0.09509">
        <ele>770</ele>
        <time>2022-02-12T08:37:00Z</time>
      </trkpt>
      <trkpt lat="43.08555" lon="-0.09509">
        <ele>770</ele>
        <time>2022-02-12T08:37:01Z</time>
      </trkpt>
      <trkpt lat="43.08554" lon="-0.09509">
        <ele>770</ele>
        <time>2022-02-12T08:37:02Z</time>
      </trkpt>
      <trkpt lat="43.08553" lon="-0.09509">
        <ele>770.2</ele>
        <time>2022-02-12T08:37:03Z</time>
      </trkpt>
      <trkpt lat="43.08552" lon="-0.09509">
        <ele>770.2</ele>
        <time>2022-02-12T08:37:04Z</time>
      </trkpt>
      <trkpt lat="43.08552" lon="-0.09509">
        <ele>770.2</ele>
        <time>2022-02-12T08:37:05Z</time>
      </trkpt>
      <trkpt lat="43.08551" lon="-0.09509">
        <ele>770.4</ele>
        <time>2022-02-12T08:37:06Z</time>
      </trkpt>
      <trkpt lat="43.0855" lon="-0.09509">
        <ele>770.4</ele>
        <time>2022-02-12T08:37:07Z</time>
      </trkpt>
      <trkpt lat="43.08549" lon="-0.09509">
        <ele>770.6</ele>
        <time>2022-02-12T08:37:08Z</time>
      </trkpt>
      <trkpt lat="43.08548" lon="-0.09509">
        <ele>770.6</ele>
        <time>2022-02-12T08:37:09Z</time>
      </trkpt>
      <trkpt lat="43.08548" lon="-0.09509">
        <ele>770.8</ele>
        <time>2022-02-12T08:37:10Z</time>
      </trkpt>
      <trkpt lat="43.08547" lon="-0.09508">
        <ele>770.8</ele>
        <time>2022-02-12T08:37:11Z</time>
      </trkpt>
      <trkpt lat="43.08546" lon="-0.09508">
        <ele>771</ele>
        <time>2022-02-12T08:37:12Z</time>
      </trkpt>
      <trkpt lat="43.08546" lon="-0.09508">
        <ele>771</ele>
        <time>2022-02-12T08:37:13Z</time>
      </trkpt>
      <trkpt lat="43.08545" lon="-0.09508">
        <ele>771</ele>
        <time>2022-02-12T08:37:14Z</time>
      </trkpt>
      <trkpt lat="43.08544" lon="-0.09508">
        <ele>771.2</ele>
        <time>2022-02-12T08:37:15Z</time>
      </trkpt>
      <trkpt lat="43.08544" lon="-0.09508">
        <ele>771.4</ele>
        <time>2022-02-12T08:37:16Z</time>
      </trkpt>
      <trkpt lat="43.08543" lon="-0.09508">
        <ele>771.4</ele>
        <time>2022-02-12T08:37:17Z</time>
      </trkpt>
      <trkpt lat="43.08542" lon="-0.09508">
        <ele>771.4</ele>
        <time>2022-02-12T08:37:18Z</time>
      </trkpt>
      <trkpt lat="43.08541" lon="-0.09508">
        <ele>771.6</ele>
        <time>2022-02-12T08:37:19Z</time>
      </trkpt>
      <trkpt lat="43.08541" lon="-0.09507">
        <ele>771.6</ele>
        <time>2022-02-12T08:37:20Z</time>
      </trkpt>
      <trkpt lat="43.0854" lon="-0.09507">
        <ele>771.6</ele>
        <time>2022-02-12T08:37:21Z</time>
      </trkpt>
      <trkpt lat="43.08539" lon="-0.09506">
        <ele>771.8</ele>
        <time>2022-02-12T08:37:22Z</time>
      </trkpt>
      <trkpt lat="43.08538" lon="-0.09506">
        <ele>772</ele>
        <time>2022-02-12T08:37:23Z</time>
      </trkpt>
      <trkpt lat="43.08538" lon="-0.09506">
        <ele>772</ele>
        <time>2022-02-12T08:37:24Z</time>
      </trkpt>
      <trkpt lat="43.08537" lon="-0.09505">
        <ele>772.2</ele>
        <time>2022-02-12T08:37:25Z</time>
      </trkpt>
      <trkpt lat="43.08536" lon="-0.09505">
        <ele>772.2</ele>
        <time>2022-02-12T08:37:26Z</time>
      </trkpt>
      <trkpt lat="43.08536" lon="-0.09504">
        <ele>772.4</ele>
        <time>2022-02-12T08:37:27Z</time>
      </trkpt>
      <trkpt lat="43.08535" lon="-0.09504">
        <ele>772.6</ele>
        <time>2022-02-12T08:37:28Z</time>
      </trkpt>
      <trkpt lat="43.08534" lon="-0.09503">
        <ele>772.6</ele>
        <time>2022-02-12T08:37:29Z</time>
      </trkpt>
      <trkpt lat="43.08534" lon="-0.09503">
        <ele>772.8</ele>
        <time>2022-02-12T08:37:30Z</time>
      </trkpt>
      <trkpt lat="43.08534" lon="-0.09503">
        <ele>772.8</ele>
        <time>2022-02-12T08:37:31Z</time>
      </trkpt>
      <trkpt lat="43.08534" lon="-0.09503">
        <ele>772.8</ele>
        <time>2022-02-12T08:37:32Z</time>
      </trkpt>
      <trkpt lat="43.08533" lon="-0.09503">
        <ele>773</ele>
        <time>2022-02-12T08:37:33Z</time>
      </trkpt>
      <trkpt lat="43.08533" lon="-0.09503">
        <ele>773.2</ele>
        <time>2022-02-12T08:37:34Z</time>
      </trkpt>
      <trkpt lat="43.08531" lon="-0.09502">
        <ele>773.4</ele>
        <time>2022-02-12T08:37:35Z</time>
      </trkpt>
      <trkpt lat="43.08531" lon="-0.09502">
        <ele>773.4</ele>
        <time>2022-02-12T08:37:36Z</time>
      </trkpt>
      <trkpt lat="43.0853" lon="-0.09502">
        <ele>773.4</ele>
        <time>2022-02-12T08:37:37Z</time>
      </trkpt>
      <trkpt lat="43.08529" lon="-0.09502">
        <ele>773.6</ele>
        <time>2022-02-12T08:37:38Z</time>
      </trkpt>
      <trkpt lat="43.08528" lon="-0.09502">
        <ele>773.6</ele>
        <time>2022-02-12T08:37:39Z</time>
      </trkpt>
      <trkpt lat="43.08528" lon="-0.09501">
        <ele>773.6</ele>
        <time>2022-02-12T08:37:40Z</time>
      </trkpt>
      <trkpt lat="43.08527" lon="-0.095">
        <ele>773.6</ele>
        <time>2022-02-12T08:37:41Z</time>
      </trkpt>
      <trkpt lat="43.08527" lon="-0.09499">
        <ele>774</ele>
        <time>2022-02-12T08:37:42Z</time>
      </trkpt>
      <trkpt lat="43.08527" lon="-0.09499">
        <ele>774.2</ele>
        <time>2022-02-12T08:37:43Z</time>
      </trkpt>
      <trkpt lat="43.08527" lon="-0.09499">
        <ele>774.2</ele>
        <time>2022-02-12T08:37:44Z</time>
      </trkpt>
      <trkpt lat="43.08527" lon="-0.09499">
        <ele>774.4</ele>
        <time>2022-02-12T08:37:45Z</time>
      </trkpt>
      <trkpt lat="43.08527" lon="-0.09499">
        <ele>774.4</ele>
        <time>2022-02-12T08:37:46Z</time>
      </trkpt>
      <trkpt lat="43.08527" lon="-0.09499">
        <ele>774.6</ele>
        <time>2022-02-12T08:37:47Z</time>
      </trkpt>
      <trkpt lat="43.08526" lon="-0.09499">
        <ele>774.8</ele>
        <time>2022-02-12T08:37:48Z</time>
      </trkpt>
      <trkpt lat="43.08526" lon="-0.09498">
        <ele>775</ele>
        <time>2022-02-12T08:37:49Z</time>
      </trkpt>
      <trkpt lat="43.08525" lon="-0.09498">
        <ele>775</ele>
        <time>2022-02-12T08:37:50Z</time>
      </trkpt>
      <trkpt lat="43.08524" lon="-0.09497">
        <ele>775</ele>
        <time>2022-02-12T08:37:51Z</time>
      </trkpt>
      <trkpt lat="43.08524" lon="-0.09497">
        <ele>775.2</ele>
        <time>2022-02-12T08:37:52Z</time>
      </trkpt>
      <trkpt lat="43.08523" lon="-0.09496">
        <ele>775.2</ele>
        <time>2022-02-12T08:37:53Z</time>
      </trkpt>
      <trkpt lat="43.08523" lon="-0.09495">
        <ele>775.2</ele>
        <time>2022-02-12T08:37:54Z</time>
      </trkpt>
      <trkpt lat="43.08523" lon="-0.09495">
        <ele>775.4</ele>
        <time>2022-02-12T08:37:55Z</time>
      </trkpt>
      <trkpt lat="43.08523" lon="-0.09495">
        <ele>775.4</ele>
        <time>2022-02-12T08:37:56Z</time>
      </trkpt>
      <trkpt lat="43.08523" lon="-0.09495">
        <ele>775.6</ele>
        <time>2022-02-12T08:37:57Z</time>
      </trkpt>
      <trkpt lat="43.08523" lon="-0.09495">
        <ele>775.6</ele>
        <time>2022-02-12T08:37:58Z</time>
      </trkpt>
      <trkpt lat="43.08523" lon="-0.09495">
        <ele>775.8</ele>
        <time>2022-02-12T08:37:59Z</time>
      </trkpt>
      <trkpt lat="43.08523" lon="-0.09495">
        <ele>775.8</ele>
        <time>2022-02-12T08:38:00Z</time>
      </trkpt>
      <trkpt lat="43.08523" lon="-0.09495">
        <ele>776</ele>
        <time>2022-02-12T08:38:01Z</time>
      </trkpt>
      <trkpt lat="43.08523" lon="-0.09495">
        <ele>776</ele>
        <time>2022-02-12T08:38:02Z</time>
      </trkpt>
      <trkpt lat="43.08523" lon="-0.09495">
        <ele>776</ele>
        <time>2022-02-12T08:38:03Z</time>
      </trkpt>
      <trkpt lat="43.08523" lon="-0.09495">
        <ele>776</ele>
        <time>2022-02-12T08:38:04Z</time>
      </trkpt>
      <trkpt lat="43.08522" lon="-0.09493">
        <ele>776.2</ele>
        <time>2022-02-12T08:38:05Z</time>
      </trkpt>
      <trkpt lat="43.08522" lon="-0.09492">
        <ele>776.2</ele>
        <time>2022-02-12T08:38:06Z</time>
      </trkpt>
      <trkpt lat="43.08522" lon="-0.09491">
        <ele>776.4</ele>
        <time>2022-02-12T08:38:07Z</time>
      </trkpt>
      <trkpt lat="43.08522" lon="-0.0949">
        <ele>776.6</ele>
        <time>2022-02-12T08:38:08Z</time>
      </trkpt>
      <trkpt lat="43.08522" lon="-0.09489">
        <ele>776.6</ele>
        <time>2022-02-12T08:38:09Z</time>
      </trkpt>
      <trkpt lat="43.08522" lon="-0.09488">
        <ele>777</ele>
        <time>2022-02-12T08:38:10Z</time>
      </trkpt>
      <trkpt lat="43.08522" lon="-0.09488">
        <ele>777.2</ele>
        <time>2022-02-12T08:38:11Z</time>
      </trkpt>
      <trkpt lat="43.08522" lon="-0.09487">
        <ele>777.4</ele>
        <time>2022-02-12T08:38:12Z</time>
      </trkpt>
      <trkpt lat="43.08522" lon="-0.09487">
        <ele>777.4</ele>
        <time>2022-02-12T08:38:13Z</time>
      </trkpt>
      <trkpt lat="43.08522" lon="-0.09487">
        <ele>777.6</ele>
        <time>2022-02-12T08:38:14Z</time>
      </trkpt>
      <trkpt lat="43.08522" lon="-0.09487">
        <ele>777.6</ele>
        <time>2022-02-12T08:38:15Z</time>
      </trkpt>
      <trkpt lat="43.08522" lon="-0.09486">
        <ele>777.6</ele>
        <time>2022-02-12T08:38:16Z</time>
      </trkpt>
      <trkpt lat="43.08522" lon="-0.09485">
        <ele>777.6</ele>
        <time>2022-02-12T08:38:17Z</time>
      </trkpt>
      <trkpt lat="43.08522" lon="-0.09484">
        <ele>777.8</ele>
        <time>2022-02-12T08:38:18Z</time>
      </trkpt>
      <trkpt lat="43.08522" lon="-0.09483">
        <ele>777.8</ele>
        <time>2022-02-12T08:38:19Z</time>
      </trkpt>
      <trkpt lat="43.08522" lon="-0.09482">
        <ele>777.8</ele>
        <time>2022-02-12T08:38:20Z</time>
      </trkpt>
      <trkpt lat="43.08522" lon="-0.09481">
        <ele>777.8</ele>
        <time>2022-02-12T08:38:21Z</time>
      </trkpt>
      <trkpt lat="43.08522" lon="-0.0948">
        <ele>778</ele>
        <time>2022-02-12T08:38:22Z</time>
      </trkpt>
      <trkpt lat="43.08522" lon="-0.09478">
        <ele>778</ele>
        <time>2022-02-12T08:38:23Z</time>
      </trkpt>
      <trkpt lat="43.08523" lon="-0.09477">
        <ele>778.2</ele>
        <time>2022-02-12T08:38:24Z</time>
      </trkpt>
      <trkpt lat="43.08523" lon="-0.09477">
        <ele>778.4</ele>
        <time>2022-02-12T08:38:25Z</time>
      </trkpt>
      <trkpt lat="43.08523" lon="-0.09477">
        <ele>778.4</ele>
        <time>2022-02-12T08:38:26Z</time>
      </trkpt>
      <trkpt lat="43.08523" lon="-0.09476">
        <ele>778.4</ele>
        <time>2022-02-12T08:38:27Z</time>
      </trkpt>
      <trkpt lat="43.08523" lon="-0.09475">
        <ele>778.8</ele>
        <time>2022-02-12T08:38:28Z</time>
      </trkpt>
      <trkpt lat="43.08523" lon="-0.09474">
        <ele>779</ele>
        <time>2022-02-12T08:38:29Z</time>
      </trkpt>
      <trkpt lat="43.08523" lon="-0.09474">
        <ele>779</ele>
        <time>2022-02-12T08:38:30Z</time>
      </trkpt>
      <trkpt lat="43.08523" lon="-0.09474">
        <ele>779.4</ele>
        <time>2022-02-12T08:38:31Z</time>
      </trkpt>
      <trkpt lat="43.08523" lon="-0.09474">
        <ele>779.4</ele>
        <time>2022-02-12T08:38:32Z</time>
      </trkpt>
      <trkpt lat="43.08523" lon="-0.09474">
        <ele>779.6</ele>
        <time>2022-02-12T08:38:33Z</time>
      </trkpt>
      <trkpt lat="43.08523" lon="-0.09474">
        <ele>779.6</ele>
        <time>2022-02-12T08:38:34Z</time>
      </trkpt>
      <trkpt lat="43.08523" lon="-0.09474">
        <ele>779.8</ele>
        <time>2022-02-12T08:38:35Z</time>
      </trkpt>
      <trkpt lat="43.08523" lon="-0.09474">
        <ele>779.8</ele>
        <time>2022-02-12T08:38:36Z</time>
      </trkpt>
      <trkpt lat="43.08523" lon="-0.09474">
        <ele>779.8</ele>
        <time>2022-02-12T08:38:37Z</time>
      </trkpt>
      <trkpt lat="43.08523" lon="-0.09473">
        <ele>780</ele>
        <time>2022-02-12T08:38:38Z</time>
      </trkpt>
      <trkpt lat="43.08523" lon="-0.09473">
        <ele>780.2</ele>
        <time>2022-02-12T08:38:39Z</time>
      </trkpt>
      <trkpt lat="43.08522" lon="-0.09472">
        <ele>780.2</ele>
        <time>2022-02-12T08:38:40Z</time>
      </trkpt>
      <trkpt lat="43.08522" lon="-0.09471">
        <ele>780.2</ele>
        <time>2022-02-12T08:38:41Z</time>
      </trkpt>
      <trkpt lat="43.08521" lon="-0.09471">
        <ele>780.2</ele>
        <time>2022-02-12T08:38:42Z</time>
      </trkpt>
      <trkpt lat="43.08521" lon="-0.0947">
        <ele>780.4</ele>
        <time>2022-02-12T08:38:43Z</time>
      </trkpt>
      <trkpt lat="43.0852" lon="-0.0947">
        <ele>780.4</ele>
        <time>2022-02-12T08:38:44Z</time>
      </trkpt>
      <trkpt lat="43.0852" lon="-0.09469">
        <ele>780.4</ele>
        <time>2022-02-12T08:38:45Z</time>
      </trkpt>
      <trkpt lat="43.0852" lon="-0.09469">
        <ele>780.4</ele>
        <time>2022-02-12T08:38:46Z</time>
      </trkpt>
      <trkpt lat="43.0852" lon="-0.09469">
        <ele>780.4</ele>
        <time>2022-02-12T08:38:47Z</time>
      </trkpt>
      <trkpt lat="43.0852" lon="-0.09469">
        <ele>780.4</ele>
        <time>2022-02-12T08:38:48Z</time>
      </trkpt>
      <trkpt lat="43.0852" lon="-0.09469">
        <ele>780.4</ele>
        <time>2022-02-12T08:38:49Z</time>
      </trkpt>
      <trkpt lat="43.0852" lon="-0.09469">
        <ele>780.4</ele>
        <time>2022-02-12T08:38:50Z</time>
      </trkpt>
      <trkpt lat="43.0852" lon="-0.09469">
        <ele>780.2</ele>
        <time>2022-02-12T08:38:51Z</time>
      </trkpt>
      <trkpt lat="43.0852" lon="-0.09469">
        <ele>780.2</ele>
        <time>2022-02-12T08:38:52Z</time>
      </trkpt>
      <trkpt lat="43.08519" lon="-0.09468">
        <ele>780.2</ele>
        <time>2022-02-12T08:38:53Z</time>
      </trkpt>
      <trkpt lat="43.08519" lon="-0.09468">
        <ele>780.2</ele>
        <time>2022-02-12T08:38:54Z</time>
      </trkpt>
      <trkpt lat="43.08518" lon="-0.09467">
        <ele>780.2</ele>
        <time>2022-02-12T08:38:55Z</time>
      </trkpt>
      <trkpt lat="43.08518" lon="-0.09467">
        <ele>780.2</ele>
        <time>2022-02-12T08:38:56Z</time>
      </trkpt>
      <trkpt lat="43.08517" lon="-0.09466">
        <ele>780.2</ele>
        <time>2022-02-12T08:38:57Z</time>
      </trkpt>
      <trkpt lat="43.08516" lon="-0.09466">
        <ele>780.2</ele>
        <time>2022-02-12T08:38:58Z</time>
      </trkpt>
      <trkpt lat="43.08516" lon="-0.09465">
        <ele>780.2</ele>
        <time>2022-02-12T08:38:59Z</time>
      </trkpt>
      <trkpt lat="43.08516" lon="-0.09465">
        <ele>780</ele>
        <time>2022-02-12T08:39:00Z</time>
      </trkpt>
      <trkpt lat="43.08516" lon="-0.09465">
        <ele>780</ele>
        <time>2022-02-12T08:39:01Z</time>
      </trkpt>
      <trkpt lat="43.08516" lon="-0.09465">
        <ele>779.8</ele>
        <time>2022-02-12T08:39:02Z</time>
      </trkpt>
      <trkpt lat="43.08516" lon="-0.09465">
        <ele>780</ele>
        <time>2022-02-12T08:39:03Z</time>
      </trkpt>
      <trkpt lat="43.08516" lon="-0.09465">
        <ele>780</ele>
        <time>2022-02-12T08:39:04Z</time>
      </trkpt>
      <trkpt lat="43.08516" lon="-0.09465">
        <ele>779.8</ele>
        <time>2022-02-12T08:39:05Z</time>
      </trkpt>
      <trkpt lat="43.08516" lon="-0.09465">
        <ele>779.8</ele>
        <time>2022-02-12T08:39:06Z</time>
      </trkpt>
      <trkpt lat="43.08516" lon="-0.09465">
        <ele>779.8</ele>
        <time>2022-02-12T08:39:07Z</time>
      </trkpt>
      <trkpt lat="43.08516" lon="-0.09465">
        <ele>779.8</ele>
        <time>2022-02-12T08:39:08Z</time>
      </trkpt>
      <trkpt lat="43.08516" lon="-0.09465">
        <ele>779.8</ele>
        <time>2022-02-12T08:39:09Z</time>
      </trkpt>
      <trkpt lat="43.08516" lon="-0.09465">
        <ele>779.6</ele>
        <time>2022-02-12T08:39:10Z</time>
      </trkpt>
      <trkpt lat="43.08516" lon="-0.09465">
        <ele>779.6</ele>
        <time>2022-02-12T08:39:11Z</time>
      </trkpt>
      <trkpt lat="43.08516" lon="-0.09465">
        <ele>779.6</ele>
        <time>2022-02-12T08:39:12Z</time>
      </trkpt>
      <trkpt lat="43.08516" lon="-0.09465">
        <ele>779.6</ele>
        <time>2022-02-12T08:39:13Z</time>
      </trkpt>
      <trkpt lat="43.08516" lon="-0.09465">
        <ele>779.6</ele>
        <time>2022-02-12T08:39:14Z</time>
      </trkpt>
      <trkpt lat="43.08516" lon="-0.09465">
        <ele>779.6</ele>
        <time>2022-02-12T08:39:15Z</time>
      </trkpt>
      <trkpt lat="43.08516" lon="-0.09465">
        <ele>779.6</ele>
        <time>2022-02-12T08:39:16Z</time>
      </trkpt>
      <trkpt lat="43.08516" lon="-0.09465">
        <ele>779.6</ele>
        <time>2022-02-12T08:39:17Z</time>
      </trkpt>
      <trkpt lat="43.08516" lon="-0.09465">
        <ele>779.4</ele>
        <time>2022-02-12T08:39:18Z</time>
      </trkpt>
      <trkpt lat="43.08516" lon="-0.09465">
        <ele>779.4</ele>
        <time>2022-02-12T08:39:19Z</time>
      </trkpt>
      <trkpt lat="43.08516" lon="-0.09465">
        <ele>779.4</ele>
        <time>2022-02-12T08:39:20Z</time>
      </trkpt>
      <trkpt lat="43.08516" lon="-0.09465">
        <ele>779.4</ele>
        <time>2022-02-12T08:39:21Z</time>
      </trkpt>
      <trkpt lat="43.08516" lon="-0.09465">
        <ele>779</ele>
        <time>2022-02-12T08:39:22Z</time>
      </trkpt>
      <trkpt lat="43.08516" lon="-0.09465">
        <ele>778.8</ele>
        <time>2022-02-12T08:39:23Z</time>
      </trkpt>
      <trkpt lat="43.08516" lon="-0.09465">
        <ele>778.8</ele>
        <time>2022-02-12T08:39:24Z</time>
      </trkpt>
      <trkpt lat="43.08516" lon="-0.09465">
        <ele>778.4</ele>
        <time>2022-02-12T08:39:25Z</time>
      </trkpt>
      <trkpt lat="43.08516" lon="-0.09465">
        <ele>778.4</ele>
        <time>2022-02-12T08:39:26Z</time>
      </trkpt>
      <trkpt lat="43.08516" lon="-0.09465">
        <ele>778.2</ele>
        <time>2022-02-12T08:39:27Z</time>
      </trkpt>
      <trkpt lat="43.08515" lon="-0.09464">
        <ele>778.2</ele>
        <time>2022-02-12T08:39:28Z</time>
      </trkpt>
      <trkpt lat="43.08515" lon="-0.09463">
        <ele>778.2</ele>
        <time>2022-02-12T08:39:29Z</time>
      </trkpt>
      <trkpt lat="43.08515" lon="-0.09462">
        <ele>778.2</ele>
        <time>2022-02-12T08:39:30Z</time>
      </trkpt>
      <trkpt lat="43.08515" lon="-0.09462">
        <ele>778.2</ele>
        <time>2022-02-12T08:39:31Z</time>
      </trkpt>
      <trkpt lat="43.08515" lon="-0.09462">
        <ele>778.2</ele>
        <time>2022-02-12T08:39:32Z</time>
      </trkpt>
      <trkpt lat="43.08515" lon="-0.09462">
        <ele>778.2</ele>
        <time>2022-02-12T08:39:33Z</time>
      </trkpt>
      <trkpt lat="43.08515" lon="-0.09462">
        <ele>778.2</ele>
        <time>2022-02-12T08:39:34Z</time>
      </trkpt>
      <trkpt lat="43.08515" lon="-0.09462">
        <ele>778.2</ele>
        <time>2022-02-12T08:39:35Z</time>
      </trkpt>
      <trkpt lat="43.08515" lon="-0.09462">
        <ele>778.4</ele>
        <time>2022-02-12T08:39:36Z</time>
      </trkpt>
      <trkpt lat="43.08515" lon="-0.09462">
        <ele>778.4</ele>
        <time>2022-02-12T08:39:37Z</time>
      </trkpt>
      <trkpt lat="43.08515" lon="-0.09462">
        <ele>778.4</ele>
        <time>2022-02-12T08:39:38Z</time>
      </trkpt>
      <trkpt lat="43.08515" lon="-0.09462">
        <ele>778.4</ele>
        <time>2022-02-12T08:39:39Z</time>
      </trkpt>
      <trkpt lat="43.08515" lon="-0.09462">
        <ele>778.4</ele>
        <time>2022-02-12T08:39:40Z</time>
      </trkpt>
      <trkpt lat="43.08514" lon="-0.09462">
        <ele>778.4</ele>
        <time>2022-02-12T08:39:41Z</time>
      </trkpt>
      <trkpt lat="43.08514" lon="-0.09462">
        <ele>778.4</ele>
        <time>2022-02-12T08:39:42Z</time>
      </trkpt>
      <trkpt lat="43.08514" lon="-0.09461">
        <ele>778.4</ele>
        <time>2022-02-12T08:39:43Z</time>
      </trkpt>
      <trkpt lat="43.08514" lon="-0.0946">
        <ele>778.4</ele>
        <time>2022-02-12T08:39:44Z</time>
      </trkpt>
      <trkpt lat="43.08514" lon="-0.0946">
        <ele>778.4</ele>
        <time>2022-02-12T08:39:45Z</time>
      </trkpt>
      <trkpt lat="43.08514" lon="-0.0946">
        <ele>778.4</ele>
        <time>2022-02-12T08:39:46Z</time>
      </trkpt>
      <trkpt lat="43.08514" lon="-0.0946">
        <ele>778.6</ele>
        <time>2022-02-12T08:39:47Z</time>
      </trkpt>
      <trkpt lat="43.08514" lon="-0.0946">
        <ele>778.6</ele>
        <time>2022-02-12T08:39:48Z</time>
      </trkpt>
      <trkpt lat="43.08514" lon="-0.0946">
        <ele>778.6</ele>
        <time>2022-02-12T08:39:49Z</time>
      </trkpt>
      <trkpt lat="43.08514" lon="-0.0946">
        <ele>778.6</ele>
        <time>2022-02-12T08:39:50Z</time>
      </trkpt>
      <trkpt lat="43.08514" lon="-0.0946">
        <ele>778.6</ele>
        <time>2022-02-12T08:39:51Z</time>
      </trkpt>
      <trkpt lat="43.08514" lon="-0.0946">
        <ele>778.6</ele>
        <time>2022-02-12T08:39:52Z</time>
      </trkpt>
      <trkpt lat="43.08514" lon="-0.0946">
        <ele>778.6</ele>
        <time>2022-02-12T08:39:53Z</time>
      </trkpt>
      <trkpt lat="43.08514" lon="-0.0946">
        <ele>778.8</ele>
        <time>2022-02-12T08:39:54Z</time>
      </trkpt>
      <trkpt lat="43.08514" lon="-0.09459">
        <ele>779</ele>
        <time>2022-02-12T08:39:55Z</time>
      </trkpt>
      <trkpt lat="43.08514" lon="-0.09459">
        <ele>779</ele>
        <time>2022-02-12T08:39:56Z</time>
      </trkpt>
      <trkpt lat="43.08514" lon="-0.09458">
        <ele>779</ele>
        <time>2022-02-12T08:39:57Z</time>
      </trkpt>
      <trkpt lat="43.08514" lon="-0.09458">
        <ele>779</ele>
        <time>2022-02-12T08:39:58Z</time>
      </trkpt>
      <trkpt lat="43.08514" lon="-0.09458">
        <ele>778.8</ele>
        <time>2022-02-12T08:39:59Z</time>
      </trkpt>
      <trkpt lat="43.08514" lon="-0.09458">
        <ele>778.8</ele>
        <time>2022-02-12T08:40:00Z</time>
      </trkpt>
      <trkpt lat="43.08514" lon="-0.09458">
        <ele>778.8</ele>
        <time>2022-02-12T08:40:01Z</time>
      </trkpt>
      <trkpt lat="43.08514" lon="-0.09458">
        <ele>778.8</ele>
        <time>2022-02-12T08:40:02Z</time>
      </trkpt>
      <trkpt lat="43.08514" lon="-0.09457">
        <ele>778.8</ele>
        <time>2022-02-12T08:40:03Z</time>
      </trkpt>
      <trkpt lat="43.08514" lon="-0.09456">
        <ele>778.8</ele>
        <time>2022-02-12T08:40:04Z</time>
      </trkpt>
      <trkpt lat="43.08514" lon="-0.09454">
        <ele>778.8</ele>
        <time>2022-02-12T08:40:05Z</time>
      </trkpt>
      <trkpt lat="43.08513" lon="-0.09452">
        <ele>778.8</ele>
        <time>2022-02-12T08:40:06Z</time>
      </trkpt>
      <trkpt lat="43.08513" lon="-0.09449">
        <ele>778.8</ele>
        <time>2022-02-12T08:40:07Z</time>
      </trkpt>
      <trkpt lat="43.08512" lon="-0.09446">
        <ele>778.8</ele>
        <time>2022-02-12T08:40:08Z</time>
      </trkpt>
      <trkpt lat="43.08512" lon="-0.09443">
        <ele>778.8</ele>
        <time>2022-02-12T08:40:09Z</time>
      </trkpt>
      <trkpt lat="43.08512" lon="-0.09439">
        <ele>778.8</ele>
        <time>2022-02-12T08:40:10Z</time>
      </trkpt>
      <trkpt lat="43.08513" lon="-0.09437">
        <ele>778.8</ele>
        <time>2022-02-12T08:40:11Z</time>
      </trkpt>
      <trkpt lat="43.08513" lon="-0.09434">
        <ele>778.8</ele>
        <time>2022-02-12T08:40:12Z</time>
      </trkpt>
      <trkpt lat="43.08513" lon="-0.09431">
        <ele>778.8</ele>
        <time>2022-02-12T08:40:13Z</time>
      </trkpt>
      <trkpt lat="43.08513" lon="-0.09429">
        <ele>778.8</ele>
        <time>2022-02-12T08:40:14Z</time>
      </trkpt>
      <trkpt lat="43.08512" lon="-0.09426">
        <ele>778.8</ele>
        <time>2022-02-12T08:40:15Z</time>
      </trkpt>
      <trkpt lat="43.08512" lon="-0.09424">
        <ele>778.8</ele>
        <time>2022-02-12T08:40:16Z</time>
      </trkpt>
      <trkpt lat="43.08512" lon="-0.09423">
        <ele>778.8</ele>
        <time>2022-02-12T08:40:17Z</time>
      </trkpt>
      <trkpt lat="43.08512" lon="-0.09422">
        <ele>778.8</ele>
        <time>2022-02-12T08:40:18Z</time>
      </trkpt>
      <trkpt lat="43.08513" lon="-0.09421">
        <ele>779</ele>
        <time>2022-02-12T08:40:19Z</time>
      </trkpt>
      <trkpt lat="43.08513" lon="-0.09421">
        <ele>779</ele>
        <time>2022-02-12T08:40:20Z</time>
      </trkpt>
      <trkpt lat="43.08513" lon="-0.09421">
        <ele>779</ele>
        <time>2022-02-12T08:40:21Z</time>
      </trkpt>
      <trkpt lat="43.08513" lon="-0.09421">
        <ele>779.2</ele>
        <time>2022-02-12T08:40:22Z</time>
      </trkpt>
      <trkpt lat="43.08513" lon="-0.09421">
        <ele>779.2</ele>
        <time>2022-02-12T08:40:23Z</time>
      </trkpt>
      <trkpt lat="43.08513" lon="-0.09421">
        <ele>779.2</ele>
        <time>2022-02-12T08:40:24Z</time>
      </trkpt>
      <trkpt lat="43.08513" lon="-0.09421">
        <ele>779.2</ele>
        <time>2022-02-12T08:40:25Z</time>
      </trkpt>
      <trkpt lat="43.08512" lon="-0.0942">
        <ele>779.2</ele>
        <time>2022-02-12T08:40:26Z</time>
      </trkpt>
      <trkpt lat="43.08512" lon="-0.09418">
        <ele>779.4</ele>
        <time>2022-02-12T08:40:27Z</time>
      </trkpt>
      <trkpt lat="43.08512" lon="-0.09417">
        <ele>779.4</ele>
        <time>2022-02-12T08:40:28Z</time>
      </trkpt>
      <trkpt lat="43.08512" lon="-0.09417">
        <ele>779.6</ele>
        <time>2022-02-12T08:40:29Z</time>
      </trkpt>
      <trkpt lat="43.08512" lon="-0.09417">
        <ele>779.6</ele>
        <time>2022-02-12T08:40:30Z</time>
      </trkpt>
      <trkpt lat="43.08512" lon="-0.09417">
        <ele>779.6</ele>
        <time>2022-02-12T08:40:31Z</time>
      </trkpt>
      <trkpt lat="43.08512" lon="-0.09417">
        <ele>779.6</ele>
        <time>2022-02-12T08:40:32Z</time>
      </trkpt>
      <trkpt lat="43.08512" lon="-0.09417">
        <ele>779.6</ele>
        <time>2022-02-12T08:40:33Z</time>
      </trkpt>
      <trkpt lat="43.08512" lon="-0.09417">
        <ele>779.6</ele>
        <time>2022-02-12T08:40:34Z</time>
      </trkpt>
      <trkpt lat="43.08512" lon="-0.09417">
        <ele>779.6</ele>
        <time>2022-02-12T08:40:35Z</time>
      </trkpt>
      <trkpt lat="43.08512" lon="-0.09415">
        <ele>779.6</ele>
        <time>2022-02-12T08:40:36Z</time>
      </trkpt>
      <trkpt lat="43.08512" lon="-0.09412">
        <ele>779.6</ele>
        <time>2022-02-12T08:40:37Z</time>
      </trkpt>
      <trkpt lat="43.08512" lon="-0.0941">
        <ele>779.6</ele>
        <time>2022-02-12T08:40:38Z</time>
      </trkpt>
      <trkpt lat="43.08512" lon="-0.09407">
        <ele>779.6</ele>
        <time>2022-02-12T08:40:39Z</time>
      </trkpt>
      <trkpt lat="43.08512" lon="-0.09405">
        <ele>779.6</ele>
        <time>2022-02-12T08:40:40Z</time>
      </trkpt>
      <trkpt lat="43.08512" lon="-0.09403">
        <ele>779.6</ele>
        <time>2022-02-12T08:40:41Z</time>
      </trkpt>
      <trkpt lat="43.08512" lon="-0.09401">
        <ele>779.6</ele>
        <time>2022-02-12T08:40:42Z</time>
      </trkpt>
      <trkpt lat="43.08512" lon="-0.09399">
        <ele>779.8</ele>
        <time>2022-02-12T08:40:43Z</time>
      </trkpt>
      <trkpt lat="43.08512" lon="-0.09398">
        <ele>779.8</ele>
        <time>2022-02-12T08:40:44Z</time>
      </trkpt>
      <trkpt lat="43.08513" lon="-0.09396">
        <ele>779.8</ele>
        <time>2022-02-12T08:40:45Z</time>
      </trkpt>
      <trkpt lat="43.08513" lon="-0.09396">
        <ele>779.8</ele>
        <time>2022-02-12T08:40:46Z</time>
      </trkpt>
      <trkpt lat="43.08513" lon="-0.09395">
        <ele>779.8</ele>
        <time>2022-02-12T08:40:47Z</time>
      </trkpt>
      <trkpt lat="43.08513" lon="-0.09394">
        <ele>779.8</ele>
        <time>2022-02-12T08:40:48Z</time>
      </trkpt>
      <trkpt lat="43.08513" lon="-0.09394">
        <ele>779.8</ele>
        <time>2022-02-12T08:40:49Z</time>
      </trkpt>
      <trkpt lat="43.08513" lon="-0.09393">
        <ele>780</ele>
        <time>2022-02-12T08:40:50Z</time>
      </trkpt>
      <trkpt lat="43.08513" lon="-0.09391">
        <ele>780</ele>
        <time>2022-02-12T08:40:51Z</time>
      </trkpt>
      <trkpt lat="43.08513" lon="-0.0939">
        <ele>780</ele>
        <time>2022-02-12T08:40:52Z</time>
      </trkpt>
      <trkpt lat="43.08513" lon="-0.09388">
        <ele>780</ele>
        <time>2022-02-12T08:40:53Z</time>
      </trkpt>
      <trkpt lat="43.08513" lon="-0.09387">
        <ele>780.2</ele>
        <time>2022-02-12T08:40:54Z</time>
      </trkpt>
      <trkpt lat="43.08513" lon="-0.09385">
        <ele>780.2</ele>
        <time>2022-02-12T08:40:55Z</time>
      </trkpt>
      <trkpt lat="43.08513" lon="-0.09384">
        <ele>780.4</ele>
        <time>2022-02-12T08:40:56Z</time>
      </trkpt>
      <trkpt lat="43.08514" lon="-0.09382">
        <ele>780.4</ele>
        <time>2022-02-12T08:40:57Z</time>
      </trkpt>
      <trkpt lat="43.08514" lon="-0.09381">
        <ele>780.6</ele>
        <time>2022-02-12T08:40:58Z</time>
      </trkpt>
      <trkpt lat="43.08514" lon="-0.09379">
        <ele>780.6</ele>
        <time>2022-02-12T08:40:59Z</time>
      </trkpt>
      <trkpt lat="43.08514" lon="-0.09378">
        <ele>780.6</ele>
        <time>2022-02-12T08:41:00Z</time>
      </trkpt>
      <trkpt lat="43.08514" lon="-0.09377">
        <ele>780.8</ele>
        <time>2022-02-12T08:41:01Z</time>
      </trkpt>
      <trkpt lat="43.08514" lon="-0.09377">
        <ele>780.8</ele>
        <time>2022-02-12T08:41:02Z</time>
      </trkpt>
      <trkpt lat="43.08514" lon="-0.09377">
        <ele>781</ele>
        <time>2022-02-12T08:41:03Z</time>
      </trkpt>
      <trkpt lat="43.08514" lon="-0.09377">
        <ele>781</ele>
        <time>2022-02-12T08:41:04Z</time>
      </trkpt>
      <trkpt lat="43.08514" lon="-0.09377">
        <ele>781</ele>
        <time>2022-02-12T08:41:05Z</time>
      </trkpt>
      <trkpt lat="43.08514" lon="-0.09377">
        <ele>781</ele>
        <time>2022-02-12T08:41:06Z</time>
      </trkpt>
      <trkpt lat="43.08514" lon="-0.09377">
        <ele>781.2</ele>
        <time>2022-02-12T08:41:07Z</time>
      </trkpt>
      <trkpt lat="43.08514" lon="-0.09377">
        <ele>781.2</ele>
        <time>2022-02-12T08:41:08Z</time>
      </trkpt>
      <trkpt lat="43.08514" lon="-0.09377">
        <ele>781.2</ele>
        <time>2022-02-12T08:41:09Z</time>
      </trkpt>
      <trkpt lat="43.08514" lon="-0.09377">
        <ele>781.2</ele>
        <time>2022-02-12T08:41:10Z</time>
      </trkpt>
      <trkpt lat="43.08514" lon="-0.09377">
        <ele>781.2</ele>
        <time>2022-02-12T08:41:11Z</time>
      </trkpt>
      <trkpt lat="43.08514" lon="-0.09377">
        <ele>781.2</ele>
        <time>2022-02-12T08:41:12Z</time>
      </trkpt>
      <trkpt lat="43.08514" lon="-0.09377">
        <ele>781.2</ele>
        <time>2022-02-12T08:41:13Z</time>
      </trkpt>
      <trkpt lat="43.08514" lon="-0.09377">
        <ele>781.2</ele>
        <time>2022-02-12T08:41:14Z</time>
      </trkpt>
      <trkpt lat="43.08514" lon="-0.09377">
        <ele>781.2</ele>
        <time>2022-02-12T08:41:15Z</time>
      </trkpt>
      <trkpt lat="43.08514" lon="-0.09377">
        <ele>781.2</ele>
        <time>2022-02-12T08:41:16Z</time>
      </trkpt>
      <trkpt lat="43.08514" lon="-0.09377">
        <ele>781.2</ele>
        <time>2022-02-12T08:41:17Z</time>
      </trkpt>
      <trkpt lat="43.08514" lon="-0.09377">
        <ele>781.2</ele>
        <time>2022-02-12T08:41:18Z</time>
      </trkpt>
      <trkpt lat="43.08514" lon="-0.09377">
        <ele>781</ele>
        <time>2022-02-12T08:41:19Z</time>
      </trkpt>
      <trkpt lat="43.08514" lon="-0.09375">
        <ele>781</ele>
        <time>2022-02-12T08:41:20Z</time>
      </trkpt>
      <trkpt lat="43.08514" lon="-0.09373">
        <ele>781</ele>
        <time>2022-02-12T08:41:21Z</time>
      </trkpt>
      <trkpt lat="43.08514" lon="-0.09372">
        <ele>781</ele>
        <time>2022-02-12T08:41:22Z</time>
      </trkpt>
      <trkpt lat="43.08514" lon="-0.0937">
        <ele>781</ele>
        <time>2022-02-12T08:41:23Z</time>
      </trkpt>
      <trkpt lat="43.08515" lon="-0.09368">
        <ele>781</ele>
        <time>2022-02-12T08:41:24Z</time>
      </trkpt>
      <trkpt lat="43.08515" lon="-0.09365">
        <ele>781</ele>
        <time>2022-02-12T08:41:25Z</time>
      </trkpt>
      <trkpt lat="43.08515" lon="-0.09363">
        <ele>781</ele>
        <time>2022-02-12T08:41:26Z</time>
      </trkpt>
      <trkpt lat="43.08515" lon="-0.09361">
        <ele>781</ele>
        <time>2022-02-12T08:41:27Z</time>
      </trkpt>
      <trkpt lat="43.08515" lon="-0.0936">
        <ele>781</ele>
        <time>2022-02-12T08:41:28Z</time>
      </trkpt>
      <trkpt lat="43.08515" lon="-0.0936">
        <ele>781</ele>
        <time>2022-02-12T08:41:29Z</time>
      </trkpt>
      <trkpt lat="43.08515" lon="-0.0936">
        <ele>781</ele>
        <time>2022-02-12T08:41:30Z</time>
      </trkpt>
      <trkpt lat="43.08515" lon="-0.0936">
        <ele>781</ele>
        <time>2022-02-12T08:41:31Z</time>
      </trkpt>
      <trkpt lat="43.08515" lon="-0.0936">
        <ele>781</ele>
        <time>2022-02-12T08:41:32Z</time>
      </trkpt>
      <trkpt lat="43.08515" lon="-0.0936">
        <ele>781</ele>
        <time>2022-02-12T08:41:33Z</time>
      </trkpt>
      <trkpt lat="43.08515" lon="-0.0936">
        <ele>781</ele>
        <time>2022-02-12T08:41:34Z</time>
      </trkpt>
      <trkpt lat="43.08515" lon="-0.0936">
        <ele>781</ele>
        <time>2022-02-12T08:41:35Z</time>
      </trkpt>
      <trkpt lat="43.08516" lon="-0.09359">
        <ele>781</ele>
        <time>2022-02-12T08:41:36Z</time>
      </trkpt>
      <trkpt lat="43.08516" lon="-0.09359">
        <ele>781</ele>
        <time>2022-02-12T08:41:37Z</time>
      </trkpt>
      <trkpt lat="43.08516" lon="-0.09359">
        <ele>781</ele>
        <time>2022-02-12T08:41:38Z</time>
      </trkpt>
      <trkpt lat="43.08516" lon="-0.09359">
        <ele>781</ele>
        <time>2022-02-12T08:41:39Z</time>
      </trkpt>
      <trkpt lat="43.08516" lon="-0.09359">
        <ele>781</ele>
        <time>2022-02-12T08:41:40Z</time>
      </trkpt>
      <trkpt lat="43.08516" lon="-0.09359">
        <ele>781.2</ele>
        <time>2022-02-12T08:41:41Z</time>
      </trkpt>
      <trkpt lat="43.08516" lon="-0.09359">
        <ele>781.2</ele>
        <time>2022-02-12T08:41:42Z</time>
      </trkpt>
      <trkpt lat="43.08516" lon="-0.09359">
        <ele>781.2</ele>
        <time>2022-02-12T08:41:43Z</time>
      </trkpt>
      <trkpt lat="43.08516" lon="-0.09359">
        <ele>781.2</ele>
        <time>2022-02-12T08:41:44Z</time>
      </trkpt>
      <trkpt lat="43.08516" lon="-0.09359">
        <ele>781.4</ele>
        <time>2022-02-12T08:41:45Z</time>
      </trkpt>
      <trkpt lat="43.08516" lon="-0.09359">
        <ele>781.4</ele>
        <time>2022-02-12T08:41:46Z</time>
      </trkpt>
      <trkpt lat="43.08516" lon="-0.09359">
        <ele>781.4</ele>
        <time>2022-02-12T08:41:47Z</time>
      </trkpt>
      <trkpt lat="43.08516" lon="-0.09359">
        <ele>781.4</ele>
        <time>2022-02-12T08:41:48Z</time>
      </trkpt>
      <trkpt lat="43.08516" lon="-0.09359">
        <ele>781.4</ele>
        <time>2022-02-12T08:41:49Z</time>
      </trkpt>
      <trkpt lat="43.08516" lon="-0.09359">
        <ele>781.4</ele>
        <time>2022-02-12T08:41:50Z</time>
      </trkpt>
      <trkpt lat="43.08516" lon="-0.09359">
        <ele>781.4</ele>
        <time>2022-02-12T08:41:51Z</time>
      </trkpt>
      <trkpt lat="43.08516" lon="-0.09359">
        <ele>781.4</ele>
        <time>2022-02-12T08:41:52Z</time>
      </trkpt>
      <trkpt lat="43.08516" lon="-0.09359">
        <ele>781.4</ele>
        <time>2022-02-12T08:41:53Z</time>
      </trkpt>
      <trkpt lat="43.08516" lon="-0.09359">
        <ele>781.4</ele>
        <time>2022-02-12T08:41:54Z</time>
      </trkpt>
      <trkpt lat="43.08516" lon="-0.09359">
        <ele>781.4</ele>
        <time>2022-02-12T08:41:55Z</time>
      </trkpt>
      <trkpt lat="43.08516" lon="-0.09359">
        <ele>781.2</ele>
        <time>2022-02-12T08:41:56Z</time>
      </trkpt>
      <trkpt lat="43.08516" lon="-0.09359">
        <ele>781.2</ele>
        <time>2022-02-12T08:41:57Z</time>
      </trkpt>
      <trkpt lat="43.08516" lon="-0.09358">
        <ele>781</ele>
        <time>2022-02-12T08:41:58Z</time>
      </trkpt>
      <trkpt lat="43.08516" lon="-0.09358">
        <ele>781</ele>
        <time>2022-02-12T08:41:59Z</time>
      </trkpt>
      <trkpt lat="43.08516" lon="-0.09358">
        <ele>780.8</ele>
        <time>2022-02-12T08:42:00Z</time>
      </trkpt>
      <trkpt lat="43.08516" lon="-0.09357">
        <ele>780.6</ele>
        <time>2022-02-12T08:42:01Z</time>
      </trkpt>
      <trkpt lat="43.08516" lon="-0.09355">
        <ele>780.4</ele>
        <time>2022-02-12T08:42:02Z</time>
      </trkpt>
      <trkpt lat="43.08516" lon="-0.09353">
        <ele>780.4</ele>
        <time>2022-02-12T08:42:03Z</time>
      </trkpt>
      <trkpt lat="43.08516" lon="-0.0935">
        <ele>780.2</ele>
        <time>2022-02-12T08:42:04Z</time>
      </trkpt>
      <trkpt lat="43.08516" lon="-0.09348">
        <ele>780.2</ele>
        <time>2022-02-12T08:42:05Z</time>
      </trkpt>
      <trkpt lat="43.08516" lon="-0.09346">
        <ele>780</ele>
        <time>2022-02-12T08:42:06Z</time>
      </trkpt>
      <trkpt lat="43.08516" lon="-0.09344">
        <ele>780</ele>
        <time>2022-02-12T08:42:07Z</time>
      </trkpt>
      <trkpt lat="43.08516" lon="-0.09343">
        <ele>780</ele>
        <time>2022-02-12T08:42:08Z</time>
      </trkpt>
      <trkpt lat="43.08516" lon="-0.09341">
        <ele>779.8</ele>
        <time>2022-02-12T08:42:09Z</time>
      </trkpt>
      <trkpt lat="43.08516" lon="-0.09339">
        <ele>779.8</ele>
        <time>2022-02-12T08:42:10Z</time>
      </trkpt>
      <trkpt lat="43.08516" lon="-0.09338">
        <ele>779.6</ele>
        <time>2022-02-12T08:42:11Z</time>
      </trkpt>
      <trkpt lat="43.08516" lon="-0.09337">
        <ele>779.4</ele>
        <time>2022-02-12T08:42:12Z</time>
      </trkpt>
      <trkpt lat="43.08516" lon="-0.09336">
        <ele>779.2</ele>
        <time>2022-02-12T08:42:13Z</time>
      </trkpt>
      <trkpt lat="43.08516" lon="-0.09335">
        <ele>779.2</ele>
        <time>2022-02-12T08:42:14Z</time>
      </trkpt>
      <trkpt lat="43.08516" lon="-0.09334">
        <ele>779</ele>
        <time>2022-02-12T08:42:15Z</time>
      </trkpt>
      <trkpt lat="43.08516" lon="-0.09334">
        <ele>779</ele>
        <time>2022-02-12T08:42:16Z</time>
      </trkpt>
      <trkpt lat="43.08516" lon="-0.09334">
        <ele>778.8</ele>
        <time>2022-02-12T08:42:17Z</time>
      </trkpt>
      <trkpt lat="43.08516" lon="-0.09333">
        <ele>778.8</ele>
        <time>2022-02-12T08:42:18Z</time>
      </trkpt>
      <trkpt lat="43.08516" lon="-0.09332">
        <ele>778.8</ele>
        <time>2022-02-12T08:42:19Z</time>
      </trkpt>
      <trkpt lat="43.08516" lon="-0.09331">
        <ele>778.6</ele>
        <time>2022-02-12T08:42:20Z</time>
      </trkpt>
      <trkpt lat="43.08516" lon="-0.09331">
        <ele>778.4</ele>
        <time>2022-02-12T08:42:21Z</time>
      </trkpt>
      <trkpt lat="43.08517" lon="-0.0933">
        <ele>778.4</ele>
        <time>2022-02-12T08:42:22Z</time>
      </trkpt>
      <trkpt lat="43.08517" lon="-0.0933">
        <ele>778.2</ele>
        <time>2022-02-12T08:42:23Z</time>
      </trkpt>
      <trkpt lat="43.08517" lon="-0.0933">
        <ele>778</ele>
        <time>2022-02-12T08:42:24Z</time>
      </trkpt>
      <trkpt lat="43.08517" lon="-0.0933">
        <ele>778</ele>
        <time>2022-02-12T08:42:25Z</time>
      </trkpt>
      <trkpt lat="43.08517" lon="-0.0933">
        <ele>777.8</ele>
        <time>2022-02-12T08:42:26Z</time>
      </trkpt>
      <trkpt lat="43.08517" lon="-0.0933">
        <ele>777.8</ele>
        <time>2022-02-12T08:42:27Z</time>
      </trkpt>
      <trkpt lat="43.08516" lon="-0.0933">
        <ele>777.8</ele>
        <time>2022-02-12T08:42:28Z</time>
      </trkpt>
      <trkpt lat="43.08516" lon="-0.0933">
        <ele>777.6</ele>
        <time>2022-02-12T08:42:29Z</time>
      </trkpt>
      <trkpt lat="43.08516" lon="-0.0933">
        <ele>777.6</ele>
        <time>2022-02-12T08:42:30Z</time>
      </trkpt>
      <trkpt lat="43.08516" lon="-0.0933">
        <ele>777.6</ele>
        <time>2022-02-12T08:42:31Z</time>
      </trkpt>
      <trkpt lat="43.08516" lon="-0.0933">
        <ele>777.6</ele>
        <time>2022-02-12T08:42:32Z</time>
      </trkpt>
      <trkpt lat="43.08516" lon="-0.0933">
        <ele>777.4</ele>
        <time>2022-02-12T08:42:33Z</time>
      </trkpt>
      <trkpt lat="43.08516" lon="-0.0933">
        <ele>777.4</ele>
        <time>2022-02-12T08:42:34Z</time>
      </trkpt>
      <trkpt lat="43.08516" lon="-0.0933">
        <ele>777.4</ele>
        <time>2022-02-12T08:42:35Z</time>
      </trkpt>
      <trkpt lat="43.08516" lon="-0.0933">
        <ele>777.4</ele>
        <time>2022-02-12T08:42:36Z</time>
      </trkpt>
      <trkpt lat="43.08516" lon="-0.09329">
        <ele>777.4</ele>
        <time>2022-02-12T08:42:37Z</time>
      </trkpt>
      <trkpt lat="43.08517" lon="-0.09329">
        <ele>777.4</ele>
        <time>2022-02-12T08:42:38Z</time>
      </trkpt>
      <trkpt lat="43.08517" lon="-0.09329">
        <ele>777.4</ele>
        <time>2022-02-12T08:42:39Z</time>
      </trkpt>
      <trkpt lat="43.08517" lon="-0.09329">
        <ele>777.4</ele>
        <time>2022-02-12T08:42:40Z</time>
      </trkpt>
      <trkpt lat="43.08517" lon="-0.09329">
        <ele>777.4</ele>
        <time>2022-02-12T08:42:41Z</time>
      </trkpt>
      <trkpt lat="43.08517" lon="-0.09329">
        <ele>777.4</ele>
        <time>2022-02-12T08:42:42Z</time>
      </trkpt>
      <trkpt lat="43.08517" lon="-0.09329">
        <ele>777.4</ele>
        <time>2022-02-12T08:42:43Z</time>
      </trkpt>
      <trkpt lat="43.08517" lon="-0.09329">
        <ele>777.4</ele>
        <time>2022-02-12T08:42:44Z</time>
      </trkpt>
      <trkpt lat="43.08517" lon="-0.09329">
        <ele>777.4</ele>
        <time>2022-02-12T08:42:45Z</time>
      </trkpt>
      <trkpt lat="43.08517" lon="-0.09329">
        <ele>777.4</ele>
        <time>2022-02-12T08:42:46Z</time>
      </trkpt>
      <trkpt lat="43.08517" lon="-0.09329">
        <ele>777.4</ele>
        <time>2022-02-12T08:42:47Z</time>
      </trkpt>
      <trkpt lat="43.08517" lon="-0.09329">
        <ele>777.6</ele>
        <time>2022-02-12T08:42:48Z</time>
      </trkpt>
      <trkpt lat="43.08517" lon="-0.09329">
        <ele>777.6</ele>
        <time>2022-02-12T08:42:49Z</time>
      </trkpt>
      <trkpt lat="43.08517" lon="-0.09329">
        <ele>777.6</ele>
        <time>2022-02-12T08:42:50Z</time>
      </trkpt>
      <trkpt lat="43.08517" lon="-0.09329">
        <ele>777.8</ele>
        <time>2022-02-12T08:42:51Z</time>
      </trkpt>
      <trkpt lat="43.08517" lon="-0.09328">
        <ele>777.8</ele>
        <time>2022-02-12T08:42:52Z</time>
      </trkpt>
      <trkpt lat="43.08517" lon="-0.09327">
        <ele>777.8</ele>
        <time>2022-02-12T08:42:53Z</time>
      </trkpt>
      <trkpt lat="43.08517" lon="-0.09327">
        <ele>778</ele>
        <time>2022-02-12T08:42:54Z</time>
      </trkpt>
      <trkpt lat="43.08517" lon="-0.09326">
        <ele>778</ele>
        <time>2022-02-12T08:42:55Z</time>
      </trkpt>
      <trkpt lat="43.08517" lon="-0.09325">
        <ele>778.2</ele>
        <time>2022-02-12T08:42:56Z</time>
      </trkpt>
      <trkpt lat="43.08517" lon="-0.09323">
        <ele>778.4</ele>
        <time>2022-02-12T08:42:57Z</time>
      </trkpt>
      <trkpt lat="43.08517" lon="-0.09322">
        <ele>778.4</ele>
        <time>2022-02-12T08:42:58Z</time>
      </trkpt>
      <trkpt lat="43.08517" lon="-0.0932">
        <ele>778.4</ele>
        <time>2022-02-12T08:42:59Z</time>
      </trkpt>
      <trkpt lat="43.08517" lon="-0.0932">
        <ele>778.6</ele>
        <time>2022-02-12T08:43:00Z</time>
      </trkpt>
      <trkpt lat="43.08517" lon="-0.0932">
        <ele>778.6</ele>
        <time>2022-02-12T08:43:01Z</time>
      </trkpt>
      <trkpt lat="43.08517" lon="-0.0932">
        <ele>778.6</ele>
        <time>2022-02-12T08:43:02Z</time>
      </trkpt>
      <trkpt lat="43.08517" lon="-0.09319">
        <ele>778.6</ele>
        <time>2022-02-12T08:43:03Z</time>
      </trkpt>
      <trkpt lat="43.08517" lon="-0.09316">
        <ele>778.6</ele>
        <time>2022-02-12T08:43:04Z</time>
      </trkpt>
      <trkpt lat="43.08517" lon="-0.09313">
        <ele>778.8</ele>
        <time>2022-02-12T08:43:05Z</time>
      </trkpt>
      <trkpt lat="43.08517" lon="-0.0931">
        <ele>778.8</ele>
        <time>2022-02-12T08:43:06Z</time>
      </trkpt>
      <trkpt lat="43.08517" lon="-0.09308">
        <ele>779</ele>
        <time>2022-02-12T08:43:07Z</time>
      </trkpt>
      <trkpt lat="43.08517" lon="-0.09305">
        <ele>779</ele>
        <time>2022-02-12T08:43:08Z</time>
      </trkpt>
      <trkpt lat="43.08517" lon="-0.09304">
        <ele>779</ele>
        <time>2022-02-12T08:43:09Z</time>
      </trkpt>
      <trkpt lat="43.08517" lon="-0.09303">
        <ele>779</ele>
        <time>2022-02-12T08:43:10Z</time>
      </trkpt>
      <trkpt lat="43.08517" lon="-0.09302">
        <ele>779.2</ele>
        <time>2022-02-12T08:43:11Z</time>
      </trkpt>
      <trkpt lat="43.08518" lon="-0.09298">
        <ele>779.2</ele>
        <time>2022-02-12T08:43:12Z</time>
      </trkpt>
      <trkpt lat="43.08518" lon="-0.09298">
        <ele>779.2</ele>
        <time>2022-02-12T08:43:13Z</time>
      </trkpt>
      <trkpt lat="43.08518" lon="-0.09298">
        <ele>779.2</ele>
        <time>2022-02-12T08:43:14Z</time>
      </trkpt>
      <trkpt lat="43.08518" lon="-0.09298">
        <ele>779.2</ele>
        <time>2022-02-12T08:43:15Z</time>
      </trkpt>
      <trkpt lat="43.08518" lon="-0.09296">
        <ele>779.2</ele>
        <time>2022-02-12T08:43:16Z</time>
      </trkpt>
      <trkpt lat="43.08518" lon="-0.09296">
        <ele>779.2</ele>
        <time>2022-02-12T08:43:17Z</time>
      </trkpt>
      <trkpt lat="43.08518" lon="-0.09296">
        <ele>779.2</ele>
        <time>2022-02-12T08:43:18Z</time>
      </trkpt>
      <trkpt lat="43.08518" lon="-0.09293">
        <ele>779.4</ele>
        <time>2022-02-12T08:43:19Z</time>
      </trkpt>
      <trkpt lat="43.08518" lon="-0.09293">
        <ele>779.4</ele>
        <time>2022-02-12T08:43:20Z</time>
      </trkpt>
      <trkpt lat="43.08518" lon="-0.09293">
        <ele>779.4</ele>
        <time>2022-02-12T08:43:21Z</time>
      </trkpt>
      <trkpt lat="43.08518" lon="-0.09293">
        <ele>779.6</ele>
        <time>2022-02-12T08:43:22Z</time>
      </trkpt>
      <trkpt lat="43.08518" lon="-0.09293">
        <ele>779.4</ele>
        <time>2022-02-12T08:43:23Z</time>
      </trkpt>
      <trkpt lat="43.08518" lon="-0.09293">
        <ele>779.4</ele>
        <time>2022-02-12T08:43:24Z</time>
      </trkpt>
      <trkpt lat="43.08518" lon="-0.09293">
        <ele>779.4</ele>
        <time>2022-02-12T08:43:25Z</time>
      </trkpt>
      <trkpt lat="43.08518" lon="-0.09293">
        <ele>779.4</ele>
        <time>2022-02-12T08:43:26Z</time>
      </trkpt>
      <trkpt lat="43.08518" lon="-0.09293">
        <ele>779.4</ele>
        <time>2022-02-12T08:43:27Z</time>
      </trkpt>
      <trkpt lat="43.08518" lon="-0.09291">
        <ele>779.8</ele>
        <time>2022-02-12T08:43:28Z</time>
      </trkpt>
      <trkpt lat="43.08518" lon="-0.09288">
        <ele>779.8</ele>
        <time>2022-02-12T08:43:29Z</time>
      </trkpt>
      <trkpt lat="43.08517" lon="-0.09285">
        <ele>779.8</ele>
        <time>2022-02-12T08:43:30Z</time>
      </trkpt>
      <trkpt lat="43.08517" lon="-0.09283">
        <ele>779.8</ele>
        <time>2022-02-12T08:43:31Z</time>
      </trkpt>
      <trkpt lat="43.08517" lon="-0.09279">
        <ele>779.8</ele>
        <time>2022-02-12T08:43:32Z</time>
      </trkpt>
      <trkpt lat="43.08517" lon="-0.09278">
        <ele>779.8</ele>
        <time>2022-02-12T08:43:33Z</time>
      </trkpt>
      <trkpt lat="43.08517" lon="-0.09276">
        <ele>779.8</ele>
        <time>2022-02-12T08:43:34Z</time>
      </trkpt>
      <trkpt lat="43.08517" lon="-0.09276">
        <ele>779.8</ele>
        <time>2022-02-12T08:43:35Z</time>
      </trkpt>
      <trkpt lat="43.08517" lon="-0.09276">
        <ele>779.8</ele>
        <time>2022-02-12T08:43:36Z</time>
      </trkpt>
      <trkpt lat="43.08517" lon="-0.09273">
        <ele>779.8</ele>
        <time>2022-02-12T08:43:37Z</time>
      </trkpt>
      <trkpt lat="43.08517" lon="-0.0927">
        <ele>779.8</ele>
        <time>2022-02-12T08:43:38Z</time>
      </trkpt>
      <trkpt lat="43.08518" lon="-0.09267">
        <ele>779.8</ele>
        <time>2022-02-12T08:43:39Z</time>
      </trkpt>
      <trkpt lat="43.08518" lon="-0.09267">
        <ele>779.8</ele>
        <time>2022-02-12T08:43:40Z</time>
      </trkpt>
      <trkpt lat="43.08518" lon="-0.09264">
        <ele>779.8</ele>
        <time>2022-02-12T08:43:41Z</time>
      </trkpt>
      <trkpt lat="43.08517" lon="-0.0926">
        <ele>779.8</ele>
        <time>2022-02-12T08:43:42Z</time>
      </trkpt>
      <trkpt lat="43.08516" lon="-0.09259">
        <ele>779.8</ele>
        <time>2022-02-12T08:43:43Z</time>
      </trkpt>
      <trkpt lat="43.08516" lon="-0.09256">
        <ele>779.8</ele>
        <time>2022-02-12T08:43:44Z</time>
      </trkpt>
      <trkpt lat="43.08516" lon="-0.09255">
        <ele>779.8</ele>
        <time>2022-02-12T08:43:45Z</time>
      </trkpt>
      <trkpt lat="43.08517" lon="-0.09254">
        <ele>779.8</ele>
        <time>2022-02-12T08:43:46Z</time>
      </trkpt>
      <trkpt lat="43.08517" lon="-0.09254">
        <ele>779.8</ele>
        <time>2022-02-12T08:43:47Z</time>
      </trkpt>
      <trkpt lat="43.08519" lon="-0.09254">
        <ele>780</ele>
        <time>2022-02-12T08:43:48Z</time>
      </trkpt>
      <trkpt lat="43.08519" lon="-0.09253">
        <ele>780</ele>
        <time>2022-02-12T08:43:49Z</time>
      </trkpt>
      <trkpt lat="43.08519" lon="-0.09253">
        <ele>780</ele>
        <time>2022-02-12T08:43:50Z</time>
      </trkpt>
      <trkpt lat="43.08519" lon="-0.09253">
        <ele>780</ele>
        <time>2022-02-12T08:43:51Z</time>
      </trkpt>
      <trkpt lat="43.08519" lon="-0.09252">
        <ele>780.2</ele>
        <time>2022-02-12T08:43:52Z</time>
      </trkpt>
      <trkpt lat="43.08519" lon="-0.09252">
        <ele>780.2</ele>
        <time>2022-02-12T08:43:53Z</time>
      </trkpt>
      <trkpt lat="43.0852" lon="-0.0925">
        <ele>780.2</ele>
        <time>2022-02-12T08:43:54Z</time>
      </trkpt>
      <trkpt lat="43.0852" lon="-0.09248">
        <ele>780.4</ele>
        <time>2022-02-12T08:43:55Z</time>
      </trkpt>
      <trkpt lat="43.0852" lon="-0.09248">
        <ele>780.4</ele>
        <time>2022-02-12T08:43:56Z</time>
      </trkpt>
      <trkpt lat="43.0852" lon="-0.09246">
        <ele>780.4</ele>
        <time>2022-02-12T08:43:57Z</time>
      </trkpt>
      <trkpt lat="43.0852" lon="-0.09244">
        <ele>780.4</ele>
        <time>2022-02-12T08:43:58Z</time>
      </trkpt>
      <trkpt lat="43.0852" lon="-0.09242">
        <ele>780.6</ele>
        <time>2022-02-12T08:43:59Z</time>
      </trkpt>
      <trkpt lat="43.08521" lon="-0.09241">
        <ele>780.6</ele>
        <time>2022-02-12T08:44:00Z</time>
      </trkpt>
      <trkpt lat="43.08521" lon="-0.09241">
        <ele>780.6</ele>
        <time>2022-02-12T08:44:01Z</time>
      </trkpt>
      <trkpt lat="43.08521" lon="-0.09239">
        <ele>780.6</ele>
        <time>2022-02-12T08:44:02Z</time>
      </trkpt>
      <trkpt lat="43.08522" lon="-0.09238">
        <ele>780.6</ele>
        <time>2022-02-12T08:44:03Z</time>
      </trkpt>
      <trkpt lat="43.08522" lon="-0.09237">
        <ele>780.6</ele>
        <time>2022-02-12T08:44:04Z</time>
      </trkpt>
      <trkpt lat="43.08522" lon="-0.09235">
        <ele>780.6</ele>
        <time>2022-02-12T08:44:05Z</time>
      </trkpt>
      <trkpt lat="43.08522" lon="-0.09235">
        <ele>780.6</ele>
        <time>2022-02-12T08:44:06Z</time>
      </trkpt>
      <trkpt lat="43.08522" lon="-0.09235">
        <ele>780.6</ele>
        <time>2022-02-12T08:44:07Z</time>
      </trkpt>
      <trkpt lat="43.08522" lon="-0.09235">
        <ele>780.6</ele>
        <time>2022-02-12T08:44:08Z</time>
      </trkpt>
      <trkpt lat="43.08522" lon="-0.09233">
        <ele>780.6</ele>
        <time>2022-02-12T08:44:09Z</time>
      </trkpt>
      <trkpt lat="43.08522" lon="-0.09232">
        <ele>780.6</ele>
        <time>2022-02-12T08:44:10Z</time>
      </trkpt>
      <trkpt lat="43.08522" lon="-0.09232">
        <ele>780.8</ele>
        <time>2022-02-12T08:44:11Z</time>
      </trkpt>
      <trkpt lat="43.08522" lon="-0.09232">
        <ele>780.8</ele>
        <time>2022-02-12T08:44:12Z</time>
      </trkpt>
      <trkpt lat="43.08522" lon="-0.09232">
        <ele>780.8</ele>
        <time>2022-02-12T08:44:13Z</time>
      </trkpt>
      <trkpt lat="43.08522" lon="-0.09232">
        <ele>780.8</ele>
        <time>2022-02-12T08:44:14Z</time>
      </trkpt>
      <trkpt lat="43.08522" lon="-0.09232">
        <ele>780.8</ele>
        <time>2022-02-12T08:44:15Z</time>
      </trkpt>
      <trkpt lat="43.08522" lon="-0.09232">
        <ele>780.8</ele>
        <time>2022-02-12T08:44:16Z</time>
      </trkpt>
      <trkpt lat="43.08522" lon="-0.09231">
        <ele>781</ele>
        <time>2022-02-12T08:44:17Z</time>
      </trkpt>
      <trkpt lat="43.08522" lon="-0.0923">
        <ele>781</ele>
        <time>2022-02-12T08:44:18Z</time>
      </trkpt>
      <trkpt lat="43.08522" lon="-0.09228">
        <ele>781</ele>
        <time>2022-02-12T08:44:19Z</time>
      </trkpt>
      <trkpt lat="43.08522" lon="-0.09227">
        <ele>781</ele>
        <time>2022-02-12T08:44:20Z</time>
      </trkpt>
      <trkpt lat="43.08522" lon="-0.09226">
        <ele>781</ele>
        <time>2022-02-12T08:44:21Z</time>
      </trkpt>
      <trkpt lat="43.08522" lon="-0.09226">
        <ele>781</ele>
        <time>2022-02-12T08:44:22Z</time>
      </trkpt>
      <trkpt lat="43.08522" lon="-0.09226">
        <ele>781</ele>
        <time>2022-02-12T08:44:23Z</time>
      </trkpt>
      <trkpt lat="43.08522" lon="-0.09226">
        <ele>781</ele>
        <time>2022-02-12T08:44:24Z</time>
      </trkpt>
      <trkpt lat="43.08522" lon="-0.09226">
        <ele>780.8</ele>
        <time>2022-02-12T08:44:25Z</time>
      </trkpt>
      <trkpt lat="43.08522" lon="-0.09226">
        <ele>780.8</ele>
        <time>2022-02-12T08:44:26Z</time>
      </trkpt>
      <trkpt lat="43.08522" lon="-0.09226">
        <ele>781</ele>
        <time>2022-02-12T08:44:27Z</time>
      </trkpt>
      <trkpt lat="43.08522" lon="-0.09226">
        <ele>780.8</ele>
        <time>2022-02-12T08:44:28Z</time>
      </trkpt>
      <trkpt lat="43.08522" lon="-0.09225">
        <ele>780.8</ele>
        <time>2022-02-12T08:44:29Z</time>
      </trkpt>
      <trkpt lat="43.08522" lon="-0.09223">
        <ele>780.6</ele>
        <time>2022-02-12T08:44:30Z</time>
      </trkpt>
      <trkpt lat="43.08522" lon="-0.09221">
        <ele>780.6</ele>
        <time>2022-02-12T08:44:31Z</time>
      </trkpt>
      <trkpt lat="43.08522" lon="-0.0922">
        <ele>780.6</ele>
        <time>2022-02-12T08:44:32Z</time>
      </trkpt>
      <trkpt lat="43.08522" lon="-0.09219">
        <ele>780.6</ele>
        <time>2022-02-12T08:44:33Z</time>
      </trkpt>
      <trkpt lat="43.08522" lon="-0.09218">
        <ele>780.6</ele>
        <time>2022-02-12T08:44:34Z</time>
      </trkpt>
      <trkpt lat="43.08522" lon="-0.09216">
        <ele>780.6</ele>
        <time>2022-02-12T08:44:35Z</time>
      </trkpt>
      <trkpt lat="43.08522" lon="-0.09214">
        <ele>780.6</ele>
        <time>2022-02-12T08:44:36Z</time>
      </trkpt>
      <trkpt lat="43.08522" lon="-0.09212">
        <ele>780.6</ele>
        <time>2022-02-12T08:44:37Z</time>
      </trkpt>
      <trkpt lat="43.08522" lon="-0.09209">
        <ele>780.4</ele>
        <time>2022-02-12T08:44:38Z</time>
      </trkpt>
      <trkpt lat="43.08522" lon="-0.09207">
        <ele>780.4</ele>
        <time>2022-02-12T08:44:39Z</time>
      </trkpt>
      <trkpt lat="43.08522" lon="-0.09205">
        <ele>780.4</ele>
        <time>2022-02-12T08:44:40Z</time>
      </trkpt>
      <trkpt lat="43.08522" lon="-0.09204">
        <ele>780.4</ele>
        <time>2022-02-12T08:44:41Z</time>
      </trkpt>
      <trkpt lat="43.08522" lon="-0.09202">
        <ele>780.4</ele>
        <time>2022-02-12T08:44:42Z</time>
      </trkpt>
      <trkpt lat="43.08522" lon="-0.09201">
        <ele>780.4</ele>
        <time>2022-02-12T08:44:43Z</time>
      </trkpt>
      <trkpt lat="43.08522" lon="-0.092">
        <ele>780.4</ele>
        <time>2022-02-12T08:44:44Z</time>
      </trkpt>
      <trkpt lat="43.08522" lon="-0.092">
        <ele>780.4</ele>
        <time>2022-02-12T08:44:45Z</time>
      </trkpt>
      <trkpt lat="43.08522" lon="-0.09199">
        <ele>780.4</ele>
        <time>2022-02-12T08:44:46Z</time>
      </trkpt>
      <trkpt lat="43.08522" lon="-0.09199">
        <ele>780.4</ele>
        <time>2022-02-12T08:44:47Z</time>
      </trkpt>
      <trkpt lat="43.08522" lon="-0.09199">
        <ele>780.4</ele>
        <time>2022-02-12T08:44:48Z</time>
      </trkpt>
      <trkpt lat="43.08522" lon="-0.09199">
        <ele>780.4</ele>
        <time>2022-02-12T08:44:49Z</time>
      </trkpt>
      <trkpt lat="43.08522" lon="-0.09199">
        <ele>780.4</ele>
        <time>2022-02-12T08:44:50Z</time>
      </trkpt>
      <trkpt lat="43.08522" lon="-0.09199">
        <ele>780.4</ele>
        <time>2022-02-12T08:44:51Z</time>
      </trkpt>
      <trkpt lat="43.08522" lon="-0.09198">
        <ele>780.4</ele>
        <time>2022-02-12T08:44:52Z</time>
      </trkpt>
      <trkpt lat="43.08522" lon="-0.09197">
        <ele>780.6</ele>
        <time>2022-02-12T08:44:53Z</time>
      </trkpt>
      <trkpt lat="43.08522" lon="-0.09197">
        <ele>780.6</ele>
        <time>2022-02-12T08:44:54Z</time>
      </trkpt>
      <trkpt lat="43.08522" lon="-0.09197">
        <ele>780.6</ele>
        <time>2022-02-12T08:44:55Z</time>
      </trkpt>
      <trkpt lat="43.08522" lon="-0.09197">
        <ele>780.6</ele>
        <time>2022-02-12T08:44:56Z</time>
      </trkpt>
      <trkpt lat="43.08522" lon="-0.09197">
        <ele>780.6</ele>
        <time>2022-02-12T08:44:57Z</time>
      </trkpt>
      <trkpt lat="43.08522" lon="-0.09197">
        <ele>780.8</ele>
        <time>2022-02-12T08:44:58Z</time>
      </trkpt>
      <trkpt lat="43.08522" lon="-0.09197">
        <ele>780.8</ele>
        <time>2022-02-12T08:44:59Z</time>
      </trkpt>
      <trkpt lat="43.08522" lon="-0.09197">
        <ele>780.8</ele>
        <time>2022-02-12T08:45:00Z</time>
      </trkpt>
      <trkpt lat="43.08522" lon="-0.09197">
        <ele>781</ele>
        <time>2022-02-12T08:45:01Z</time>
      </trkpt>
      <trkpt lat="43.08522" lon="-0.09197">
        <ele>781</ele>
        <time>2022-02-12T08:45:02Z</time>
      </trkpt>
      <trkpt lat="43.08522" lon="-0.09197">
        <ele>781.2</ele>
        <time>2022-02-12T08:45:03Z</time>
      </trkpt>
      <trkpt lat="43.08522" lon="-0.09197">
        <ele>781.4</ele>
        <time>2022-02-12T08:45:04Z</time>
      </trkpt>
      <trkpt lat="43.08522" lon="-0.09197">
        <ele>781.6</ele>
        <time>2022-02-12T08:45:05Z</time>
      </trkpt>
      <trkpt lat="43.08522" lon="-0.09197">
        <ele>781.6</ele>
        <time>2022-02-12T08:45:06Z</time>
      </trkpt>
      <trkpt lat="43.08522" lon="-0.09197">
        <ele>781.6</ele>
        <time>2022-02-12T08:45:07Z</time>
      </trkpt>
      <trkpt lat="43.08522" lon="-0.09197">
        <ele>781.8</ele>
        <time>2022-02-12T08:45:08Z</time>
      </trkpt>
      <trkpt lat="43.08522" lon="-0.09196">
        <ele>781.8</ele>
        <time>2022-02-12T08:45:09Z</time>
      </trkpt>
      <trkpt lat="43.08522" lon="-0.09196">
        <ele>782</ele>
        <time>2022-02-12T08:45:10Z</time>
      </trkpt>
      <trkpt lat="43.08522" lon="-0.09196">
        <ele>782</ele>
        <time>2022-02-12T08:45:11Z</time>
      </trkpt>
      <trkpt lat="43.08523" lon="-0.09195">
        <ele>782.2</ele>
        <time>2022-02-12T08:45:12Z</time>
      </trkpt>
      <trkpt lat="43.08523" lon="-0.09194">
        <ele>782.2</ele>
        <time>2022-02-12T08:45:13Z</time>
      </trkpt>
      <trkpt lat="43.08523" lon="-0.09192">
        <ele>782.4</ele>
        <time>2022-02-12T08:45:14Z</time>
      </trkpt>
      <trkpt lat="43.08524" lon="-0.0919">
        <ele>782.4</ele>
        <time>2022-02-12T08:45:15Z</time>
      </trkpt>
      <trkpt lat="43.08524" lon="-0.09188">
        <ele>782.4</ele>
        <time>2022-02-12T08:45:16Z</time>
      </trkpt>
      <trkpt lat="43.08525" lon="-0.09186">
        <ele>782.4</ele>
        <time>2022-02-12T08:45:17Z</time>
      </trkpt>
      <trkpt lat="43.08525" lon="-0.09184">
        <ele>782.6</ele>
        <time>2022-02-12T08:45:18Z</time>
      </trkpt>
      <trkpt lat="43.08525" lon="-0.09183">
        <ele>782.6</ele>
        <time>2022-02-12T08:45:19Z</time>
      </trkpt>
      <trkpt lat="43.08525" lon="-0.09181">
        <ele>782.6</ele>
        <time>2022-02-12T08:45:20Z</time>
      </trkpt>
      <trkpt lat="43.08526" lon="-0.09179">
        <ele>782.6</ele>
        <time>2022-02-12T08:45:21Z</time>
      </trkpt>
      <trkpt lat="43.08525" lon="-0.09178">
        <ele>782.6</ele>
        <time>2022-02-12T08:45:22Z</time>
      </trkpt>
      <trkpt lat="43.08525" lon="-0.09177">
        <ele>782.6</ele>
        <time>2022-02-12T08:45:23Z</time>
      </trkpt>
      <trkpt lat="43.08525" lon="-0.09177">
        <ele>782.6</ele>
        <time>2022-02-12T08:45:24Z</time>
      </trkpt>
      <trkpt lat="43.08525" lon="-0.09177">
        <ele>782.6</ele>
        <time>2022-02-12T08:45:25Z</time>
      </trkpt>
      <trkpt lat="43.08525" lon="-0.09177">
        <ele>782.6</ele>
        <time>2022-02-12T08:45:26Z</time>
      </trkpt>
      <trkpt lat="43.08525" lon="-0.09176">
        <ele>782.6</ele>
        <time>2022-02-12T08:45:27Z</time>
      </trkpt>
      <trkpt lat="43.08525" lon="-0.09175">
        <ele>782.6</ele>
        <time>2022-02-12T08:45:28Z</time>
      </trkpt>
      <trkpt lat="43.08525" lon="-0.09173">
        <ele>782.6</ele>
        <time>2022-02-12T08:45:29Z</time>
      </trkpt>
      <trkpt lat="43.08524" lon="-0.09171">
        <ele>782.4</ele>
        <time>2022-02-12T08:45:30Z</time>
      </trkpt>
      <trkpt lat="43.08525" lon="-0.09169">
        <ele>782.4</ele>
        <time>2022-02-12T08:45:31Z</time>
      </trkpt>
      <trkpt lat="43.08525" lon="-0.09168">
        <ele>782.2</ele>
        <time>2022-02-12T08:45:32Z</time>
      </trkpt>
      <trkpt lat="43.08525" lon="-0.09167">
        <ele>782.2</ele>
        <time>2022-02-12T08:45:33Z</time>
      </trkpt>
      <trkpt lat="43.08525" lon="-0.09166">
        <ele>782.2</ele>
        <time>2022-02-12T08:45:34Z</time>
      </trkpt>
      <trkpt lat="43.08525" lon="-0.09165">
        <ele>782</ele>
        <time>2022-02-12T08:45:35Z</time>
      </trkpt>
      <trkpt lat="43.08525" lon="-0.09164">
        <ele>782</ele>
        <time>2022-02-12T08:45:36Z</time>
      </trkpt>
      <trkpt lat="43.08526" lon="-0.09163">
        <ele>782</ele>
        <time>2022-02-12T08:45:37Z</time>
      </trkpt>
      <trkpt lat="43.08526" lon="-0.09162">
        <ele>782</ele>
        <time>2022-02-12T08:45:38Z</time>
      </trkpt>
      <trkpt lat="43.08526" lon="-0.09161">
        <ele>781.8</ele>
        <time>2022-02-12T08:45:39Z</time>
      </trkpt>
      <trkpt lat="43.08526" lon="-0.09161">
        <ele>781.8</ele>
        <time>2022-02-12T08:45:40Z</time>
      </trkpt>
      <trkpt lat="43.08526" lon="-0.0916">
        <ele>781.8</ele>
        <time>2022-02-12T08:45:41Z</time>
      </trkpt>
      <trkpt lat="43.08525" lon="-0.0916">
        <ele>781.8</ele>
        <time>2022-02-12T08:45:42Z</time>
      </trkpt>
      <trkpt lat="43.08525" lon="-0.09159">
        <ele>781.8</ele>
        <time>2022-02-12T08:45:43Z</time>
      </trkpt>
      <trkpt lat="43.08525" lon="-0.09158">
        <ele>781.6</ele>
        <time>2022-02-12T08:45:44Z</time>
      </trkpt>
      <trkpt lat="43.08525" lon="-0.09157">
        <ele>781.6</ele>
        <time>2022-02-12T08:45:45Z</time>
      </trkpt>
      <trkpt lat="43.08525" lon="-0.09156">
        <ele>781.6</ele>
        <time>2022-02-12T08:45:46Z</time>
      </trkpt>
      <trkpt lat="43.08525" lon="-0.09155">
        <ele>781.4</ele>
        <time>2022-02-12T08:45:47Z</time>
      </trkpt>
      <trkpt lat="43.08525" lon="-0.09155">
        <ele>781.4</ele>
        <time>2022-02-12T08:45:48Z</time>
      </trkpt>
      <trkpt lat="43.08525" lon="-0.09155">
        <ele>781.4</ele>
        <time>2022-02-12T08:45:49Z</time>
      </trkpt>
      <trkpt lat="43.08525" lon="-0.09155">
        <ele>781.4</ele>
        <time>2022-02-12T08:45:50Z</time>
      </trkpt>
      <trkpt lat="43.08525" lon="-0.09155">
        <ele>781.2</ele>
        <time>2022-02-12T08:45:51Z</time>
      </trkpt>
      <trkpt lat="43.08525" lon="-0.09155">
        <ele>781.2</ele>
        <time>2022-02-12T08:45:52Z</time>
      </trkpt>
      <trkpt lat="43.08524" lon="-0.09154">
        <ele>781</ele>
        <time>2022-02-12T08:45:53Z</time>
      </trkpt>
      <trkpt lat="43.08524" lon="-0.09153">
        <ele>781</ele>
        <time>2022-02-12T08:45:54Z</time>
      </trkpt>
      <trkpt lat="43.08524" lon="-0.09153">
        <ele>781</ele>
        <time>2022-02-12T08:45:55Z</time>
      </trkpt>
      <trkpt lat="43.08524" lon="-0.09152">
        <ele>781</ele>
        <time>2022-02-12T08:45:56Z</time>
      </trkpt>
      <trkpt lat="43.08523" lon="-0.09152">
        <ele>781</ele>
        <time>2022-02-12T08:45:57Z</time>
      </trkpt>
      <trkpt lat="43.08523" lon="-0.09151">
        <ele>780.8</ele>
        <time>2022-02-12T08:45:58Z</time>
      </trkpt>
      <trkpt lat="43.08523" lon="-0.09151">
        <ele>780.8</ele>
        <time>2022-02-12T08:45:59Z</time>
      </trkpt>
      <trkpt lat="43.08523" lon="-0.09151">
        <ele>780.8</ele>
        <time>2022-02-12T08:46:00Z</time>
      </trkpt>
      <trkpt lat="43.08523" lon="-0.09151">
        <ele>780.8</ele>
        <time>2022-02-12T08:46:01Z</time>
      </trkpt>
      <trkpt lat="43.08523" lon="-0.09151">
        <ele>780.6</ele>
        <time>2022-02-12T08:46:02Z</time>
      </trkpt>
      <trkpt lat="43.08523" lon="-0.09151">
        <ele>780.6</ele>
        <time>2022-02-12T08:46:03Z</time>
      </trkpt>
      <trkpt lat="43.08523" lon="-0.09151">
        <ele>780.6</ele>
        <time>2022-02-12T08:46:04Z</time>
      </trkpt>
      <trkpt lat="43.08523" lon="-0.09151">
        <ele>780.4</ele>
        <time>2022-02-12T08:46:05Z</time>
      </trkpt>
      <trkpt lat="43.08523" lon="-0.09151">
        <ele>780.4</ele>
        <time>2022-02-12T08:46:06Z</time>
      </trkpt>
      <trkpt lat="43.08523" lon="-0.09151">
        <ele>780.2</ele>
        <time>2022-02-12T08:46:07Z</time>
      </trkpt>
      <trkpt lat="43.08523" lon="-0.09151">
        <ele>780.2</ele>
        <time>2022-02-12T08:46:08Z</time>
      </trkpt>
      <trkpt lat="43.08523" lon="-0.09151">
        <ele>780.2</ele>
        <time>2022-02-12T08:46:09Z</time>
      </trkpt>
      <trkpt lat="43.08523" lon="-0.09151">
        <ele>780.2</ele>
        <time>2022-02-12T08:46:10Z</time>
      </trkpt>
      <trkpt lat="43.08523" lon="-0.09151">
        <ele>780.2</ele>
        <time>2022-02-12T08:46:11Z</time>
      </trkpt>
      <trkpt lat="43.08523" lon="-0.09151">
        <ele>780.2</ele>
        <time>2022-02-12T08:46:12Z</time>
      </trkpt>
      <trkpt lat="43.08523" lon="-0.09151">
        <ele>780.2</ele>
        <time>2022-02-12T08:46:13Z</time>
      </trkpt>
      <trkpt lat="43.08523" lon="-0.09151">
        <ele>780.4</ele>
        <time>2022-02-12T08:46:14Z</time>
      </trkpt>
      <trkpt lat="43.08523" lon="-0.09151">
        <ele>780.4</ele>
        <time>2022-02-12T08:46:15Z</time>
      </trkpt>
      <trkpt lat="43.08523" lon="-0.09151">
        <ele>780.4</ele>
        <time>2022-02-12T08:46:16Z</time>
      </trkpt>
      <trkpt lat="43.08523" lon="-0.09151">
        <ele>780.4</ele>
        <time>2022-02-12T08:46:17Z</time>
      </trkpt>
      <trkpt lat="43.08523" lon="-0.09151">
        <ele>780.4</ele>
        <time>2022-02-12T08:46:18Z</time>
      </trkpt>
      <trkpt lat="43.08523" lon="-0.09151">
        <ele>780.4</ele>
        <time>2022-02-12T08:46:19Z</time>
      </trkpt>
      <trkpt lat="43.08523" lon="-0.09151">
        <ele>780.4</ele>
        <time>2022-02-12T08:46:20Z</time>
      </trkpt>
      <trkpt lat="43.08523" lon="-0.09151">
        <ele>780.2</ele>
        <time>2022-02-12T08:46:21Z</time>
      </trkpt>
      <trkpt lat="43.08523" lon="-0.09151">
        <ele>780.2</ele>
        <time>2022-02-12T08:46:22Z</time>
      </trkpt>
      <trkpt lat="43.08523" lon="-0.09151">
        <ele>780</ele>
        <time>2022-02-12T08:46:23Z</time>
      </trkpt>
      <trkpt lat="43.08523" lon="-0.09151">
        <ele>779.8</ele>
        <time>2022-02-12T08:46:24Z</time>
      </trkpt>
      <trkpt lat="43.08523" lon="-0.09151">
        <ele>779.8</ele>
        <time>2022-02-12T08:46:25Z</time>
      </trkpt>
      <trkpt lat="43.08523" lon="-0.09151">
        <ele>779.8</ele>
        <time>2022-02-12T08:46:26Z</time>
      </trkpt>
      <trkpt lat="43.08523" lon="-0.09151">
        <ele>779.6</ele>
        <time>2022-02-12T08:46:27Z</time>
      </trkpt>
      <trkpt lat="43.08523" lon="-0.09151">
        <ele>779.6</ele>
        <time>2022-02-12T08:46:28Z</time>
      </trkpt>
      <trkpt lat="43.08523" lon="-0.09151">
        <ele>779.6</ele>
        <time>2022-02-12T08:46:29Z</time>
      </trkpt>
      <trkpt lat="43.08523" lon="-0.09151">
        <ele>779.6</ele>
        <time>2022-02-12T08:46:30Z</time>
      </trkpt>
      <trkpt lat="43.08523" lon="-0.09151">
        <ele>779.4</ele>
        <time>2022-02-12T08:46:31Z</time>
      </trkpt>
      <trkpt lat="43.08523" lon="-0.09151">
        <ele>779.2</ele>
        <time>2022-02-12T08:46:32Z</time>
      </trkpt>
      <trkpt lat="43.08523" lon="-0.09151">
        <ele>779</ele>
        <time>2022-02-12T08:46:33Z</time>
      </trkpt>
      <trkpt lat="43.08523" lon="-0.09151">
        <ele>779</ele>
        <time>2022-02-12T08:46:34Z</time>
      </trkpt>
      <trkpt lat="43.08523" lon="-0.09151">
        <ele>778.8</ele>
        <time>2022-02-12T08:46:35Z</time>
      </trkpt>
      <trkpt lat="43.08523" lon="-0.09151">
        <ele>778.8</ele>
        <time>2022-02-12T08:46:36Z</time>
      </trkpt>
      <trkpt lat="43.08523" lon="-0.09151">
        <ele>778.6</ele>
        <time>2022-02-12T08:46:37Z</time>
      </trkpt>
      <trkpt lat="43.08522" lon="-0.09149">
        <ele>778.6</ele>
        <time>2022-02-12T08:46:38Z</time>
      </trkpt>
      <trkpt lat="43.08522" lon="-0.09148">
        <ele>778.6</ele>
        <time>2022-02-12T08:46:39Z</time>
      </trkpt>
      <trkpt lat="43.08522" lon="-0.09148">
        <ele>778.6</ele>
        <time>2022-02-12T08:46:40Z</time>
      </trkpt>
      <trkpt lat="43.08522" lon="-0.09148">
        <ele>778.6</ele>
        <time>2022-02-12T08:46:41Z</time>
      </trkpt>
      <trkpt lat="43.08522" lon="-0.09148">
        <ele>778.6</ele>
        <time>2022-02-12T08:46:42Z</time>
      </trkpt>
      <trkpt lat="43.08522" lon="-0.09148">
        <ele>778.6</ele>
        <time>2022-02-12T08:46:43Z</time>
      </trkpt>
      <trkpt lat="43.08522" lon="-0.09148">
        <ele>778.6</ele>
        <time>2022-02-12T08:46:44Z</time>
      </trkpt>
      <trkpt lat="43.08522" lon="-0.09148">
        <ele>778.6</ele>
        <time>2022-02-12T08:46:45Z</time>
      </trkpt>
      <trkpt lat="43.08522" lon="-0.09148">
        <ele>778.6</ele>
        <time>2022-02-12T08:46:46Z</time>
      </trkpt>
      <trkpt lat="43.08522" lon="-0.09148">
        <ele>778.6</ele>
        <time>2022-02-12T08:46:47Z</time>
      </trkpt>
      <trkpt lat="43.08522" lon="-0.09148">
        <ele>778.6</ele>
        <time>2022-02-12T08:46:48Z</time>
      </trkpt>
      <trkpt lat="43.08522" lon="-0.09148">
        <ele>778.6</ele>
        <time>2022-02-12T08:46:49Z</time>
      </trkpt>
      <trkpt lat="43.08522" lon="-0.09148">
        <ele>778.6</ele>
        <time>2022-02-12T08:46:50Z</time>
      </trkpt>
      <trkpt lat="43.08522" lon="-0.09148">
        <ele>778.6</ele>
        <time>2022-02-12T08:46:51Z</time>
      </trkpt>
      <trkpt lat="43.08521" lon="-0.09147">
        <ele>778.6</ele>
        <time>2022-02-12T08:46:52Z</time>
      </trkpt>
      <trkpt lat="43.0852" lon="-0.09146">
        <ele>778.6</ele>
        <time>2022-02-12T08:46:53Z</time>
      </trkpt>
      <trkpt lat="43.0852" lon="-0.09145">
        <ele>778.8</ele>
        <time>2022-02-12T08:46:54Z</time>
      </trkpt>
      <trkpt lat="43.0852" lon="-0.09145">
        <ele>778.8</ele>
        <time>2022-02-12T08:46:55Z</time>
      </trkpt>
      <trkpt lat="43.0852" lon="-0.09145">
        <ele>778.8</ele>
        <time>2022-02-12T08:46:56Z</time>
      </trkpt>
      <trkpt lat="43.0852" lon="-0.09145">
        <ele>778.8</ele>
        <time>2022-02-12T08:46:57Z</time>
      </trkpt>
      <trkpt lat="43.0852" lon="-0.09144">
        <ele>778.8</ele>
        <time>2022-02-12T08:46:58Z</time>
      </trkpt>
      <trkpt lat="43.0852" lon="-0.09144">
        <ele>778.8</ele>
        <time>2022-02-12T08:46:59Z</time>
      </trkpt>
      <trkpt lat="43.0852" lon="-0.09144">
        <ele>778.8</ele>
        <time>2022-02-12T08:47:00Z</time>
      </trkpt>
      <trkpt lat="43.0852" lon="-0.09142">
        <ele>779</ele>
        <time>2022-02-12T08:47:01Z</time>
      </trkpt>
      <trkpt lat="43.0852" lon="-0.09142">
        <ele>779</ele>
        <time>2022-02-12T08:47:02Z</time>
      </trkpt>
      <trkpt lat="43.0852" lon="-0.09142">
        <ele>779.2</ele>
        <time>2022-02-12T08:47:03Z</time>
      </trkpt>
      <trkpt lat="43.0852" lon="-0.09142">
        <ele>779.2</ele>
        <time>2022-02-12T08:47:04Z</time>
      </trkpt>
      <trkpt lat="43.0852" lon="-0.09142">
        <ele>779.2</ele>
        <time>2022-02-12T08:47:05Z</time>
      </trkpt>
      <trkpt lat="43.0852" lon="-0.09141">
        <ele>779.2</ele>
        <time>2022-02-12T08:47:06Z</time>
      </trkpt>
      <trkpt lat="43.0852" lon="-0.0914">
        <ele>779.2</ele>
        <time>2022-02-12T08:47:07Z</time>
      </trkpt>
      <trkpt lat="43.08519" lon="-0.09137">
        <ele>779.4</ele>
        <time>2022-02-12T08:47:08Z</time>
      </trkpt>
      <trkpt lat="43.08519" lon="-0.09134">
        <ele>779.4</ele>
        <time>2022-02-12T08:47:09Z</time>
      </trkpt>
      <trkpt lat="43.08518" lon="-0.0913">
        <ele>779.4</ele>
        <time>2022-02-12T08:47:10Z</time>
      </trkpt>
      <trkpt lat="43.08518" lon="-0.09129">
        <ele>779.4</ele>
        <time>2022-02-12T08:47:11Z</time>
      </trkpt>
      <trkpt lat="43.08518" lon="-0.09128">
        <ele>779.6</ele>
        <time>2022-02-12T08:47:12Z</time>
      </trkpt>
      <trkpt lat="43.08518" lon="-0.09127">
        <ele>779.6</ele>
        <time>2022-02-12T08:47:13Z</time>
      </trkpt>
      <trkpt lat="43.08518" lon="-0.09126">
        <ele>779.6</ele>
        <time>2022-02-12T08:47:14Z</time>
      </trkpt>
      <trkpt lat="43.08518" lon="-0.09124">
        <ele>779.6</ele>
        <time>2022-02-12T08:47:15Z</time>
      </trkpt>
      <trkpt lat="43.08518" lon="-0.09124">
        <ele>779.8</ele>
        <time>2022-02-12T08:47:16Z</time>
      </trkpt>
      <trkpt lat="43.08518" lon="-0.09124">
        <ele>779.8</ele>
        <time>2022-02-12T08:47:17Z</time>
      </trkpt>
      <trkpt lat="43.08518" lon="-0.09124">
        <ele>779.8</ele>
        <time>2022-02-12T08:47:18Z</time>
      </trkpt>
      <trkpt lat="43.08518" lon="-0.09124">
        <ele>780</ele>
        <time>2022-02-12T08:47:19Z</time>
      </trkpt>
      <trkpt lat="43.08517" lon="-0.09123">
        <ele>780</ele>
        <time>2022-02-12T08:47:20Z</time>
      </trkpt>
      <trkpt lat="43.08517" lon="-0.09123">
        <ele>780</ele>
        <time>2022-02-12T08:47:21Z</time>
      </trkpt>
      <trkpt lat="43.08517" lon="-0.09123">
        <ele>780</ele>
        <time>2022-02-12T08:47:22Z</time>
      </trkpt>
      <trkpt lat="43.08517" lon="-0.09123">
        <ele>780.2</ele>
        <time>2022-02-12T08:47:23Z</time>
      </trkpt>
      <trkpt lat="43.08517" lon="-0.09123">
        <ele>780.2</ele>
        <time>2022-02-12T08:47:24Z</time>
      </trkpt>
      <trkpt lat="43.08517" lon="-0.09123">
        <ele>780.2</ele>
        <time>2022-02-12T08:47:25Z</time>
      </trkpt>
      <trkpt lat="43.08517" lon="-0.09123">
        <ele>780.2</ele>
        <time>2022-02-12T08:47:26Z</time>
      </trkpt>
      <trkpt lat="43.08517" lon="-0.09123">
        <ele>780.2</ele>
        <time>2022-02-12T08:47:27Z</time>
      </trkpt>
      <trkpt lat="43.08517" lon="-0.09123">
        <ele>780.2</ele>
        <time>2022-02-12T08:47:28Z</time>
      </trkpt>
      <trkpt lat="43.08517" lon="-0.09123">
        <ele>780.2</ele>
        <time>2022-02-12T08:47:29Z</time>
      </trkpt>
      <trkpt lat="43.08517" lon="-0.09123">
        <ele>780.2</ele>
        <time>2022-02-12T08:47:30Z</time>
      </trkpt>
      <trkpt lat="43.08517" lon="-0.09123">
        <ele>780</ele>
        <time>2022-02-12T08:47:31Z</time>
      </trkpt>
      <trkpt lat="43.08517" lon="-0.09123">
        <ele>780</ele>
        <time>2022-02-12T08:47:32Z</time>
      </trkpt>
      <trkpt lat="43.08517" lon="-0.09123">
        <ele>780</ele>
        <time>2022-02-12T08:47:33Z</time>
      </trkpt>
      <trkpt lat="43.08517" lon="-0.09122">
        <ele>780.2</ele>
        <time>2022-02-12T08:47:34Z</time>
      </trkpt>
      <trkpt lat="43.08517" lon="-0.09122">
        <ele>780</ele>
        <time>2022-02-12T08:47:35Z</time>
      </trkpt>
      <trkpt lat="43.08517" lon="-0.09122">
        <ele>780.2</ele>
        <time>2022-02-12T08:47:36Z</time>
      </trkpt>
      <trkpt lat="43.08517" lon="-0.09122">
        <ele>780</ele>
        <time>2022-02-12T08:47:37Z</time>
      </trkpt>
      <trkpt lat="43.08517" lon="-0.09122">
        <ele>780</ele>
        <time>2022-02-12T08:47:38Z</time>
      </trkpt>
      <trkpt lat="43.08517" lon="-0.09122">
        <ele>780</ele>
        <time>2022-02-12T08:47:39Z</time>
      </trkpt>
      <trkpt lat="43.08517" lon="-0.09122">
        <ele>780</ele>
        <time>2022-02-12T08:47:40Z</time>
      </trkpt>
      <trkpt lat="43.08517" lon="-0.09122">
        <ele>779.8</ele>
        <time>2022-02-12T08:47:41Z</time>
      </trkpt>
      <trkpt lat="43.08517" lon="-0.09122">
        <ele>779.8</ele>
        <time>2022-02-12T08:47:42Z</time>
      </trkpt>
      <trkpt lat="43.08517" lon="-0.09122">
        <ele>779.8</ele>
        <time>2022-02-12T08:47:43Z</time>
      </trkpt>
      <trkpt lat="43.08517" lon="-0.09122">
        <ele>779.8</ele>
        <time>2022-02-12T08:47:44Z</time>
      </trkpt>
      <trkpt lat="43.08517" lon="-0.09122">
        <ele>779.8</ele>
        <time>2022-02-12T08:47:45Z</time>
      </trkpt>
      <trkpt lat="43.08517" lon="-0.09122">
        <ele>779.6</ele>
        <time>2022-02-12T08:47:46Z</time>
      </trkpt>
      <trkpt lat="43.08517" lon="-0.09122">
        <ele>779.6</ele>
        <time>2022-02-12T08:47:47Z</time>
      </trkpt>
      <trkpt lat="43.08516" lon="-0.09121">
        <ele>779.6</ele>
        <time>2022-02-12T08:47:48Z</time>
      </trkpt>
      <trkpt lat="43.08516" lon="-0.09119">
        <ele>779.6</ele>
        <time>2022-02-12T08:47:49Z</time>
      </trkpt>
      <trkpt lat="43.08516" lon="-0.09118">
        <ele>779.6</ele>
        <time>2022-02-12T08:47:50Z</time>
      </trkpt>
      <trkpt lat="43.08516" lon="-0.09118">
        <ele>779.6</ele>
        <time>2022-02-12T08:47:51Z</time>
      </trkpt>
      <trkpt lat="43.08516" lon="-0.09118">
        <ele>779.6</ele>
        <time>2022-02-12T08:47:52Z</time>
      </trkpt>
      <trkpt lat="43.08516" lon="-0.09118">
        <ele>779.4</ele>
        <time>2022-02-12T08:47:53Z</time>
      </trkpt>
      <trkpt lat="43.08516" lon="-0.09118">
        <ele>779.4</ele>
        <time>2022-02-12T08:47:54Z</time>
      </trkpt>
      <trkpt lat="43.08516" lon="-0.09118">
        <ele>779.4</ele>
        <time>2022-02-12T08:47:55Z</time>
      </trkpt>
      <trkpt lat="43.08516" lon="-0.09118">
        <ele>779.4</ele>
        <time>2022-02-12T08:47:56Z</time>
      </trkpt>
      <trkpt lat="43.08515" lon="-0.09118">
        <ele>779.4</ele>
        <time>2022-02-12T08:47:57Z</time>
      </trkpt>
      <trkpt lat="43.08515" lon="-0.09117">
        <ele>779.2</ele>
        <time>2022-02-12T08:47:58Z</time>
      </trkpt>
      <trkpt lat="43.08515" lon="-0.09117">
        <ele>779.2</ele>
        <time>2022-02-12T08:47:59Z</time>
      </trkpt>
      <trkpt lat="43.08515" lon="-0.09116">
        <ele>779.2</ele>
        <time>2022-02-12T08:48:00Z</time>
      </trkpt>
      <trkpt lat="43.08515" lon="-0.09116">
        <ele>779.2</ele>
        <time>2022-02-12T08:48:01Z</time>
      </trkpt>
      <trkpt lat="43.08515" lon="-0.09116">
        <ele>779.2</ele>
        <time>2022-02-12T08:48:02Z</time>
      </trkpt>
      <trkpt lat="43.08515" lon="-0.09116">
        <ele>779.2</ele>
        <time>2022-02-12T08:48:03Z</time>
      </trkpt>
      <trkpt lat="43.08515" lon="-0.09116">
        <ele>779.2</ele>
        <time>2022-02-12T08:48:04Z</time>
      </trkpt>
      <trkpt lat="43.08515" lon="-0.09116">
        <ele>779</ele>
        <time>2022-02-12T08:48:05Z</time>
      </trkpt>
      <trkpt lat="43.08515" lon="-0.09116">
        <ele>779</ele>
        <time>2022-02-12T08:48:06Z</time>
      </trkpt>
      <trkpt lat="43.08514" lon="-0.09113">
        <ele>779</ele>
        <time>2022-02-12T08:48:07Z</time>
      </trkpt>
      <trkpt lat="43.08514" lon="-0.09113">
        <ele>779</ele>
        <time>2022-02-12T08:48:08Z</time>
      </trkpt>
      <trkpt lat="43.08514" lon="-0.09113">
        <ele>779</ele>
        <time>2022-02-12T08:48:09Z</time>
      </trkpt>
      <trkpt lat="43.08514" lon="-0.09113">
        <ele>779</ele>
        <time>2022-02-12T08:48:10Z</time>
      </trkpt>
      <trkpt lat="43.08514" lon="-0.09113">
        <ele>779</ele>
        <time>2022-02-12T08:48:11Z</time>
      </trkpt>
      <trkpt lat="43.08514" lon="-0.09111">
        <ele>779</ele>
        <time>2022-02-12T08:48:12Z</time>
      </trkpt>
      <trkpt lat="43.08513" lon="-0.09111">
        <ele>779</ele>
        <time>2022-02-12T08:48:13Z</time>
      </trkpt>
      <trkpt lat="43.08513" lon="-0.09109">
        <ele>779</ele>
        <time>2022-02-12T08:48:14Z</time>
      </trkpt>
      <trkpt lat="43.08512" lon="-0.09108">
        <ele>779</ele>
        <time>2022-02-12T08:48:15Z</time>
      </trkpt>
      <trkpt lat="43.08512" lon="-0.09108">
        <ele>779</ele>
        <time>2022-02-12T08:48:16Z</time>
      </trkpt>
      <trkpt lat="43.08512" lon="-0.09108">
        <ele>779</ele>
        <time>2022-02-12T08:48:17Z</time>
      </trkpt>
      <trkpt lat="43.08512" lon="-0.09108">
        <ele>779</ele>
        <time>2022-02-12T08:48:18Z</time>
      </trkpt>
      <trkpt lat="43.08512" lon="-0.09108">
        <ele>779</ele>
        <time>2022-02-12T08:48:19Z</time>
      </trkpt>
      <trkpt lat="43.08512" lon="-0.09108">
        <ele>779</ele>
        <time>2022-02-12T08:48:20Z</time>
      </trkpt>
      <trkpt lat="43.08512" lon="-0.09108">
        <ele>778.8</ele>
        <time>2022-02-12T08:48:21Z</time>
      </trkpt>
      <trkpt lat="43.08512" lon="-0.09107">
        <ele>778.8</ele>
        <time>2022-02-12T08:48:22Z</time>
      </trkpt>
      <trkpt lat="43.08511" lon="-0.09106">
        <ele>778.8</ele>
        <time>2022-02-12T08:48:23Z</time>
      </trkpt>
      <trkpt lat="43.08511" lon="-0.09104">
        <ele>778.8</ele>
        <time>2022-02-12T08:48:24Z</time>
      </trkpt>
      <trkpt lat="43.0851" lon="-0.09103">
        <ele>778.8</ele>
        <time>2022-02-12T08:48:25Z</time>
      </trkpt>
      <trkpt lat="43.0851" lon="-0.09102">
        <ele>778.8</ele>
        <time>2022-02-12T08:48:26Z</time>
      </trkpt>
      <trkpt lat="43.08509" lon="-0.09099">
        <ele>778.8</ele>
        <time>2022-02-12T08:48:27Z</time>
      </trkpt>
      <trkpt lat="43.08508" lon="-0.09097">
        <ele>778.8</ele>
        <time>2022-02-12T08:48:28Z</time>
      </trkpt>
      <trkpt lat="43.08506" lon="-0.09094">
        <ele>778.8</ele>
        <time>2022-02-12T08:48:29Z</time>
      </trkpt>
      <trkpt lat="43.08505" lon="-0.09091">
        <ele>778.8</ele>
        <time>2022-02-12T08:48:30Z</time>
      </trkpt>
      <trkpt lat="43.08503" lon="-0.09087">
        <ele>778.8</ele>
        <time>2022-02-12T08:48:31Z</time>
      </trkpt>
      <trkpt lat="43.08502" lon="-0.09084">
        <ele>778.8</ele>
        <time>2022-02-12T08:48:32Z</time>
      </trkpt>
      <trkpt lat="43.08501" lon="-0.09082">
        <ele>778.8</ele>
        <time>2022-02-12T08:48:33Z</time>
      </trkpt>
      <trkpt lat="43.085" lon="-0.09081">
        <ele>778.8</ele>
        <time>2022-02-12T08:48:34Z</time>
      </trkpt>
      <trkpt lat="43.08499" lon="-0.09079">
        <ele>778.8</ele>
        <time>2022-02-12T08:48:35Z</time>
      </trkpt>
      <trkpt lat="43.08497" lon="-0.09076">
        <ele>778.8</ele>
        <time>2022-02-12T08:48:36Z</time>
      </trkpt>
      <trkpt lat="43.08496" lon="-0.09073">
        <ele>778.8</ele>
        <time>2022-02-12T08:48:37Z</time>
      </trkpt>
      <trkpt lat="43.08496" lon="-0.09071">
        <ele>778.8</ele>
        <time>2022-02-12T08:48:38Z</time>
      </trkpt>
      <trkpt lat="43.08495" lon="-0.0907">
        <ele>778.8</ele>
        <time>2022-02-12T08:48:39Z</time>
      </trkpt>
      <trkpt lat="43.08495" lon="-0.0907">
        <ele>778.8</ele>
        <time>2022-02-12T08:48:40Z</time>
      </trkpt>
      <trkpt lat="43.08495" lon="-0.0907">
        <ele>778.8</ele>
        <time>2022-02-12T08:48:41Z</time>
      </trkpt>
      <trkpt lat="43.08495" lon="-0.0907">
        <ele>778.8</ele>
        <time>2022-02-12T08:48:42Z</time>
      </trkpt>
      <trkpt lat="43.08495" lon="-0.0907">
        <ele>778.8</ele>
        <time>2022-02-12T08:48:43Z</time>
      </trkpt>
      <trkpt lat="43.08495" lon="-0.0907">
        <ele>778.8</ele>
        <time>2022-02-12T08:48:44Z</time>
      </trkpt>
      <trkpt lat="43.08495" lon="-0.0907">
        <ele>778.8</ele>
        <time>2022-02-12T08:48:45Z</time>
      </trkpt>
      <trkpt lat="43.08495" lon="-0.0907">
        <ele>778.6</ele>
        <time>2022-02-12T08:48:46Z</time>
      </trkpt>
      <trkpt lat="43.08495" lon="-0.0907">
        <ele>778.6</ele>
        <time>2022-02-12T08:48:47Z</time>
      </trkpt>
      <trkpt lat="43.08494" lon="-0.09067">
        <ele>778.6</ele>
        <time>2022-02-12T08:48:48Z</time>
      </trkpt>
      <trkpt lat="43.08493" lon="-0.09063">
        <ele>778.6</ele>
        <time>2022-02-12T08:48:49Z</time>
      </trkpt>
      <trkpt lat="43.08493" lon="-0.09062">
        <ele>778.6</ele>
        <time>2022-02-12T08:48:50Z</time>
      </trkpt>
      <trkpt lat="43.08493" lon="-0.09062">
        <ele>778.6</ele>
        <time>2022-02-12T08:48:51Z</time>
      </trkpt>
      <trkpt lat="43.08493" lon="-0.09062">
        <ele>778.6</ele>
        <time>2022-02-12T08:48:52Z</time>
      </trkpt>
      <trkpt lat="43.08493" lon="-0.09062">
        <ele>778.8</ele>
        <time>2022-02-12T08:48:53Z</time>
      </trkpt>
      <trkpt lat="43.08493" lon="-0.09062">
        <ele>778.8</ele>
        <time>2022-02-12T08:48:54Z</time>
      </trkpt>
      <trkpt lat="43.08493" lon="-0.09062">
        <ele>778.8</ele>
        <time>2022-02-12T08:48:55Z</time>
      </trkpt>
      <trkpt lat="43.08493" lon="-0.09062">
        <ele>778.8</ele>
        <time>2022-02-12T08:48:56Z</time>
      </trkpt>
      <trkpt lat="43.08493" lon="-0.09062">
        <ele>778.8</ele>
        <time>2022-02-12T08:48:57Z</time>
      </trkpt>
      <trkpt lat="43.08493" lon="-0.09062">
        <ele>778.8</ele>
        <time>2022-02-12T08:48:58Z</time>
      </trkpt>
      <trkpt lat="43.08493" lon="-0.09062">
        <ele>778.8</ele>
        <time>2022-02-12T08:48:59Z</time>
      </trkpt>
      <trkpt lat="43.08493" lon="-0.09062">
        <ele>778.8</ele>
        <time>2022-02-12T08:49:00Z</time>
      </trkpt>
      <trkpt lat="43.08493" lon="-0.09062">
        <ele>778.8</ele>
        <time>2022-02-12T08:49:01Z</time>
      </trkpt>
      <trkpt lat="43.08493" lon="-0.09062">
        <ele>778.8</ele>
        <time>2022-02-12T08:49:02Z</time>
      </trkpt>
      <trkpt lat="43.08493" lon="-0.09062">
        <ele>778.8</ele>
        <time>2022-02-12T08:49:03Z</time>
      </trkpt>
      <trkpt lat="43.08493" lon="-0.09062">
        <ele>778.8</ele>
        <time>2022-02-12T08:49:04Z</time>
      </trkpt>
      <trkpt lat="43.08493" lon="-0.09062">
        <ele>778.8</ele>
        <time>2022-02-12T08:49:05Z</time>
      </trkpt>
      <trkpt lat="43.08493" lon="-0.09062">
        <ele>778.8</ele>
        <time>2022-02-12T08:49:06Z</time>
      </trkpt>
      <trkpt lat="43.08493" lon="-0.09062">
        <ele>778.8</ele>
        <time>2022-02-12T08:49:07Z</time>
      </trkpt>
      <trkpt lat="43.08493" lon="-0.09062">
        <ele>778.8</ele>
        <time>2022-02-12T08:49:08Z</time>
      </trkpt>
      <trkpt lat="43.08493" lon="-0.09062">
        <ele>778.8</ele>
        <time>2022-02-12T08:49:09Z</time>
      </trkpt>
      <trkpt lat="43.08493" lon="-0.09062">
        <ele>778.8</ele>
        <time>2022-02-12T08:49:10Z</time>
      </trkpt>
      <trkpt lat="43.08493" lon="-0.09062">
        <ele>778.6</ele>
        <time>2022-02-12T08:49:11Z</time>
      </trkpt>
      <trkpt lat="43.08493" lon="-0.09062">
        <ele>778.6</ele>
        <time>2022-02-12T08:49:12Z</time>
      </trkpt>
      <trkpt lat="43.08493" lon="-0.09062">
        <ele>778.6</ele>
        <time>2022-02-12T08:49:13Z</time>
      </trkpt>
      <trkpt lat="43.08493" lon="-0.09062">
        <ele>778.6</ele>
        <time>2022-02-12T08:49:14Z</time>
      </trkpt>
      <trkpt lat="43.08493" lon="-0.09062">
        <ele>778.6</ele>
        <time>2022-02-12T08:49:15Z</time>
      </trkpt>
      <trkpt lat="43.08493" lon="-0.09062">
        <ele>778.6</ele>
        <time>2022-02-12T08:49:16Z</time>
      </trkpt>
      <trkpt lat="43.08492" lon="-0.09061">
        <ele>778.6</ele>
        <time>2022-02-12T08:49:17Z</time>
      </trkpt>
      <trkpt lat="43.08491" lon="-0.09059">
        <ele>778.6</ele>
        <time>2022-02-12T08:49:18Z</time>
      </trkpt>
      <trkpt lat="43.0849" lon="-0.09059">
        <ele>778.6</ele>
        <time>2022-02-12T08:49:19Z</time>
      </trkpt>
      <trkpt lat="43.0849" lon="-0.09057">
        <ele>778.6</ele>
        <time>2022-02-12T08:49:20Z</time>
      </trkpt>
      <trkpt lat="43.08488" lon="-0.09056">
        <ele>778.8</ele>
        <time>2022-02-12T08:49:21Z</time>
      </trkpt>
      <trkpt lat="43.08488" lon="-0.09055">
        <ele>778.6</ele>
        <time>2022-02-12T08:49:22Z</time>
      </trkpt>
      <trkpt lat="43.08487" lon="-0.09054">
        <ele>778.8</ele>
        <time>2022-02-12T08:49:23Z</time>
      </trkpt>
      <trkpt lat="43.08486" lon="-0.09053">
        <ele>778.6</ele>
        <time>2022-02-12T08:49:24Z</time>
      </trkpt>
      <trkpt lat="43.08486" lon="-0.09052">
        <ele>778.6</ele>
        <time>2022-02-12T08:49:25Z</time>
      </trkpt>
      <trkpt lat="43.08485" lon="-0.09052">
        <ele>778.6</ele>
        <time>2022-02-12T08:49:26Z</time>
      </trkpt>
      <trkpt lat="43.08485" lon="-0.09052">
        <ele>778.6</ele>
        <time>2022-02-12T08:49:27Z</time>
      </trkpt>
      <trkpt lat="43.08484" lon="-0.09051">
        <ele>778.4</ele>
        <time>2022-02-12T08:49:28Z</time>
      </trkpt>
      <trkpt lat="43.08484" lon="-0.09051">
        <ele>778.4</ele>
        <time>2022-02-12T08:49:29Z</time>
      </trkpt>
      <trkpt lat="43.08483" lon="-0.0905">
        <ele>778.4</ele>
        <time>2022-02-12T08:49:30Z</time>
      </trkpt>
      <trkpt lat="43.08483" lon="-0.09049">
        <ele>778.4</ele>
        <time>2022-02-12T08:49:31Z</time>
      </trkpt>
      <trkpt lat="43.08482" lon="-0.09049">
        <ele>778.4</ele>
        <time>2022-02-12T08:49:32Z</time>
      </trkpt>
      <trkpt lat="43.08482" lon="-0.09049">
        <ele>778.4</ele>
        <time>2022-02-12T08:49:33Z</time>
      </trkpt>
      <trkpt lat="43.08482" lon="-0.09049">
        <ele>778.4</ele>
        <time>2022-02-12T08:49:34Z</time>
      </trkpt>
      <trkpt lat="43.08482" lon="-0.09049">
        <ele>778.4</ele>
        <time>2022-02-12T08:49:35Z</time>
      </trkpt>
      <trkpt lat="43.08482" lon="-0.09049">
        <ele>778.2</ele>
        <time>2022-02-12T08:49:36Z</time>
      </trkpt>
      <trkpt lat="43.08482" lon="-0.09049">
        <ele>778.2</ele>
        <time>2022-02-12T08:49:37Z</time>
      </trkpt>
      <trkpt lat="43.08482" lon="-0.09049">
        <ele>778</ele>
        <time>2022-02-12T08:49:38Z</time>
      </trkpt>
      <trkpt lat="43.08482" lon="-0.09049">
        <ele>777.8</ele>
        <time>2022-02-12T08:49:39Z</time>
      </trkpt>
      <trkpt lat="43.08482" lon="-0.09049">
        <ele>777.4</ele>
        <time>2022-02-12T08:49:40Z</time>
      </trkpt>
      <trkpt lat="43.08482" lon="-0.09049">
        <ele>777.4</ele>
        <time>2022-02-12T08:49:41Z</time>
      </trkpt>
      <trkpt lat="43.08482" lon="-0.09049">
        <ele>777</ele>
        <time>2022-02-12T08:49:42Z</time>
      </trkpt>
      <trkpt lat="43.08482" lon="-0.09049">
        <ele>777</ele>
        <time>2022-02-12T08:49:43Z</time>
      </trkpt>
      <trkpt lat="43.08482" lon="-0.09049">
        <ele>776.8</ele>
        <time>2022-02-12T08:49:44Z</time>
      </trkpt>
      <trkpt lat="43.08482" lon="-0.09049">
        <ele>776.6</ele>
        <time>2022-02-12T08:49:45Z</time>
      </trkpt>
      <trkpt lat="43.08482" lon="-0.09049">
        <ele>776.6</ele>
        <time>2022-02-12T08:49:46Z</time>
      </trkpt>
      <trkpt lat="43.08482" lon="-0.09049">
        <ele>776.6</ele>
        <time>2022-02-12T08:49:47Z</time>
      </trkpt>
      <trkpt lat="43.08481" lon="-0.09048">
        <ele>776.6</ele>
        <time>2022-02-12T08:49:48Z</time>
      </trkpt>
      <trkpt lat="43.0848" lon="-0.09046">
        <ele>776.4</ele>
        <time>2022-02-12T08:49:49Z</time>
      </trkpt>
      <trkpt lat="43.08479" lon="-0.09045">
        <ele>776.4</ele>
        <time>2022-02-12T08:49:50Z</time>
      </trkpt>
      <trkpt lat="43.08478" lon="-0.09044">
        <ele>776.4</ele>
        <time>2022-02-12T08:49:51Z</time>
      </trkpt>
      <trkpt lat="43.08477" lon="-0.09043">
        <ele>776.2</ele>
        <time>2022-02-12T08:49:52Z</time>
      </trkpt>
      <trkpt lat="43.08476" lon="-0.09042">
        <ele>776.2</ele>
        <time>2022-02-12T08:49:53Z</time>
      </trkpt>
      <trkpt lat="43.08475" lon="-0.09042">
        <ele>776.2</ele>
        <time>2022-02-12T08:49:55Z</time>
      </trkpt>
      <trkpt lat="43.08474" lon="-0.09041">
        <ele>776.2</ele>
        <time>2022-02-12T08:49:56Z</time>
      </trkpt>
      <trkpt lat="43.08473" lon="-0.09039">
        <ele>776</ele>
        <time>2022-02-12T08:49:57Z</time>
      </trkpt>
      <trkpt lat="43.08471" lon="-0.09038">
        <ele>776</ele>
        <time>2022-02-12T08:49:58Z</time>
      </trkpt>
      <trkpt lat="43.08471" lon="-0.09036">
        <ele>776</ele>
        <time>2022-02-12T08:49:59Z</time>
      </trkpt>
      <trkpt lat="43.08471" lon="-0.09035">
        <ele>776</ele>
        <time>2022-02-12T08:50:00Z</time>
      </trkpt>
      <trkpt lat="43.0847" lon="-0.09033">
        <ele>776</ele>
        <time>2022-02-12T08:50:01Z</time>
      </trkpt>
      <trkpt lat="43.08469" lon="-0.09032">
        <ele>775.8</ele>
        <time>2022-02-12T08:50:02Z</time>
      </trkpt>
      <trkpt lat="43.08469" lon="-0.09032">
        <ele>775.8</ele>
        <time>2022-02-12T08:50:03Z</time>
      </trkpt>
      <trkpt lat="43.08469" lon="-0.09032">
        <ele>775.8</ele>
        <time>2022-02-12T08:50:04Z</time>
      </trkpt>
      <trkpt lat="43.08469" lon="-0.09032">
        <ele>775.8</ele>
        <time>2022-02-12T08:50:05Z</time>
      </trkpt>
      <trkpt lat="43.08469" lon="-0.09032">
        <ele>775.6</ele>
        <time>2022-02-12T08:50:06Z</time>
      </trkpt>
      <trkpt lat="43.08469" lon="-0.09032">
        <ele>775.6</ele>
        <time>2022-02-12T08:50:07Z</time>
      </trkpt>
      <trkpt lat="43.08468" lon="-0.09031">
        <ele>775.6</ele>
        <time>2022-02-12T08:50:08Z</time>
      </trkpt>
      <trkpt lat="43.08466" lon="-0.0903">
        <ele>775.4</ele>
        <time>2022-02-12T08:50:09Z</time>
      </trkpt>
      <trkpt lat="43.08465" lon="-0.09029">
        <ele>775.4</ele>
        <time>2022-02-12T08:50:10Z</time>
      </trkpt>
      <trkpt lat="43.08464" lon="-0.09028">
        <ele>775.2</ele>
        <time>2022-02-12T08:50:11Z</time>
      </trkpt>
      <trkpt lat="43.08464" lon="-0.09026">
        <ele>775.4</ele>
        <time>2022-02-12T08:50:12Z</time>
      </trkpt>
      <trkpt lat="43.08464" lon="-0.09026">
        <ele>775.4</ele>
        <time>2022-02-12T08:50:13Z</time>
      </trkpt>
      <trkpt lat="43.08464" lon="-0.09026">
        <ele>775.4</ele>
        <time>2022-02-12T08:50:14Z</time>
      </trkpt>
      <trkpt lat="43.08463" lon="-0.09024">
        <ele>775.4</ele>
        <time>2022-02-12T08:50:15Z</time>
      </trkpt>
      <trkpt lat="43.08462" lon="-0.09022">
        <ele>775.4</ele>
        <time>2022-02-12T08:50:16Z</time>
      </trkpt>
      <trkpt lat="43.0846" lon="-0.09021">
        <ele>775.4</ele>
        <time>2022-02-12T08:50:17Z</time>
      </trkpt>
      <trkpt lat="43.08458" lon="-0.09019">
        <ele>775.2</ele>
        <time>2022-02-12T08:50:18Z</time>
      </trkpt>
      <trkpt lat="43.08458" lon="-0.09018">
        <ele>775.2</ele>
        <time>2022-02-12T08:50:19Z</time>
      </trkpt>
      <trkpt lat="43.08457" lon="-0.09017">
        <ele>775.2</ele>
        <time>2022-02-12T08:50:20Z</time>
      </trkpt>
      <trkpt lat="43.08457" lon="-0.09016">
        <ele>775.2</ele>
        <time>2022-02-12T08:50:21Z</time>
      </trkpt>
      <trkpt lat="43.08457" lon="-0.09016">
        <ele>775.2</ele>
        <time>2022-02-12T08:50:22Z</time>
      </trkpt>
      <trkpt lat="43.08458" lon="-0.09015">
        <ele>775</ele>
        <time>2022-02-12T08:50:23Z</time>
      </trkpt>
      <trkpt lat="43.08458" lon="-0.09015">
        <ele>775</ele>
        <time>2022-02-12T08:50:24Z</time>
      </trkpt>
      <trkpt lat="43.08458" lon="-0.09015">
        <ele>775</ele>
        <time>2022-02-12T08:50:25Z</time>
      </trkpt>
      <trkpt lat="43.08458" lon="-0.09015">
        <ele>775</ele>
        <time>2022-02-12T08:50:26Z</time>
      </trkpt>
      <trkpt lat="43.08458" lon="-0.09015">
        <ele>775</ele>
        <time>2022-02-12T08:50:27Z</time>
      </trkpt>
      <trkpt lat="43.08457" lon="-0.09015">
        <ele>775</ele>
        <time>2022-02-12T08:50:28Z</time>
      </trkpt>
      <trkpt lat="43.08457" lon="-0.09014">
        <ele>775</ele>
        <time>2022-02-12T08:50:29Z</time>
      </trkpt>
      <trkpt lat="43.08457" lon="-0.09014">
        <ele>775</ele>
        <time>2022-02-12T08:50:30Z</time>
      </trkpt>
      <trkpt lat="43.08457" lon="-0.09014">
        <ele>775</ele>
        <time>2022-02-12T08:50:31Z</time>
      </trkpt>
      <trkpt lat="43.08457" lon="-0.09013">
        <ele>775</ele>
        <time>2022-02-12T08:50:32Z</time>
      </trkpt>
      <trkpt lat="43.08457" lon="-0.09012">
        <ele>775</ele>
        <time>2022-02-12T08:50:33Z</time>
      </trkpt>
      <trkpt lat="43.08457" lon="-0.09011">
        <ele>775</ele>
        <time>2022-02-12T08:50:34Z</time>
      </trkpt>
      <trkpt lat="43.08457" lon="-0.09011">
        <ele>775</ele>
        <time>2022-02-12T08:50:35Z</time>
      </trkpt>
      <trkpt lat="43.08457" lon="-0.09011">
        <ele>775</ele>
        <time>2022-02-12T08:50:36Z</time>
      </trkpt>
      <trkpt lat="43.08457" lon="-0.09011">
        <ele>775.2</ele>
        <time>2022-02-12T08:50:37Z</time>
      </trkpt>
      <trkpt lat="43.08457" lon="-0.09011">
        <ele>775.4</ele>
        <time>2022-02-12T08:50:38Z</time>
      </trkpt>
      <trkpt lat="43.08457" lon="-0.09011">
        <ele>775.4</ele>
        <time>2022-02-12T08:50:39Z</time>
      </trkpt>
      <trkpt lat="43.08457" lon="-0.09011">
        <ele>775.4</ele>
        <time>2022-02-12T08:50:40Z</time>
      </trkpt>
      <trkpt lat="43.08456" lon="-0.09009">
        <ele>775.4</ele>
        <time>2022-02-12T08:50:41Z</time>
      </trkpt>
      <trkpt lat="43.08455" lon="-0.09007">
        <ele>775.6</ele>
        <time>2022-02-12T08:50:42Z</time>
      </trkpt>
      <trkpt lat="43.08455" lon="-0.09006">
        <ele>775.6</ele>
        <time>2022-02-12T08:50:43Z</time>
      </trkpt>
      <trkpt lat="43.08455" lon="-0.09006">
        <ele>775.6</ele>
        <time>2022-02-12T08:50:44Z</time>
      </trkpt>
      <trkpt lat="43.08455" lon="-0.09006">
        <ele>775.6</ele>
        <time>2022-02-12T08:50:45Z</time>
      </trkpt>
      <trkpt lat="43.08455" lon="-0.09006">
        <ele>775.4</ele>
        <time>2022-02-12T08:50:46Z</time>
      </trkpt>
      <trkpt lat="43.08454" lon="-0.09004">
        <ele>775.4</ele>
        <time>2022-02-12T08:50:47Z</time>
      </trkpt>
      <trkpt lat="43.08453" lon="-0.09003">
        <ele>775.4</ele>
        <time>2022-02-12T08:50:48Z</time>
      </trkpt>
      <trkpt lat="43.08453" lon="-0.09002">
        <ele>775.4</ele>
        <time>2022-02-12T08:50:49Z</time>
      </trkpt>
      <trkpt lat="43.08453" lon="-0.09002">
        <ele>775.2</ele>
        <time>2022-02-12T08:50:50Z</time>
      </trkpt>
      <trkpt lat="43.08453" lon="-0.09002">
        <ele>775.2</ele>
        <time>2022-02-12T08:50:51Z</time>
      </trkpt>
      <trkpt lat="43.08453" lon="-0.09002">
        <ele>775.2</ele>
        <time>2022-02-12T08:50:52Z</time>
      </trkpt>
      <trkpt lat="43.08453" lon="-0.09002">
        <ele>775.2</ele>
        <time>2022-02-12T08:50:53Z</time>
      </trkpt>
      <trkpt lat="43.08453" lon="-0.09002">
        <ele>775</ele>
        <time>2022-02-12T08:50:54Z</time>
      </trkpt>
      <trkpt lat="43.08453" lon="-0.09002">
        <ele>775</ele>
        <time>2022-02-12T08:50:55Z</time>
      </trkpt>
      <trkpt lat="43.08453" lon="-0.09002">
        <ele>775</ele>
        <time>2022-02-12T08:50:56Z</time>
      </trkpt>
      <trkpt lat="43.08453" lon="-0.09002">
        <ele>775</ele>
        <time>2022-02-12T08:50:57Z</time>
      </trkpt>
      <trkpt lat="43.08453" lon="-0.09002">
        <ele>775</ele>
        <time>2022-02-12T08:50:58Z</time>
      </trkpt>
      <trkpt lat="43.08453" lon="-0.09002">
        <ele>775</ele>
        <time>2022-02-12T08:50:59Z</time>
      </trkpt>
      <trkpt lat="43.08453" lon="-0.09002">
        <ele>775</ele>
        <time>2022-02-12T08:51:00Z</time>
      </trkpt>
      <trkpt lat="43.08452" lon="-0.09002">
        <ele>774.8</ele>
        <time>2022-02-12T08:51:01Z</time>
      </trkpt>
      <trkpt lat="43.08452" lon="-0.09001">
        <ele>774.8</ele>
        <time>2022-02-12T08:51:02Z</time>
      </trkpt>
      <trkpt lat="43.08452" lon="-0.09">
        <ele>774.8</ele>
        <time>2022-02-12T08:51:03Z</time>
      </trkpt>
      <trkpt lat="43.08451" lon="-0.09">
        <ele>774.8</ele>
        <time>2022-02-12T08:51:04Z</time>
      </trkpt>
      <trkpt lat="43.08451" lon="-0.08999">
        <ele>774.8</ele>
        <time>2022-02-12T08:51:05Z</time>
      </trkpt>
      <trkpt lat="43.08451" lon="-0.08998">
        <ele>774.8</ele>
        <time>2022-02-12T08:51:06Z</time>
      </trkpt>
      <trkpt lat="43.08451" lon="-0.08997">
        <ele>774.8</ele>
        <time>2022-02-12T08:51:07Z</time>
      </trkpt>
      <trkpt lat="43.0845" lon="-0.08996">
        <ele>774.8</ele>
        <time>2022-02-12T08:51:08Z</time>
      </trkpt>
      <trkpt lat="43.0845" lon="-0.08995">
        <ele>774.6</ele>
        <time>2022-02-12T08:51:09Z</time>
      </trkpt>
      <trkpt lat="43.0845" lon="-0.08994">
        <ele>774.6</ele>
        <time>2022-02-12T08:51:10Z</time>
      </trkpt>
      <trkpt lat="43.0845" lon="-0.08994">
        <ele>774.6</ele>
        <time>2022-02-12T08:51:11Z</time>
      </trkpt>
      <trkpt lat="43.0845" lon="-0.08994">
        <ele>774.4</ele>
        <time>2022-02-12T08:51:12Z</time>
      </trkpt>
      <trkpt lat="43.0845" lon="-0.08994">
        <ele>774.4</ele>
        <time>2022-02-12T08:51:13Z</time>
      </trkpt>
      <trkpt lat="43.0845" lon="-0.08992">
        <ele>774.4</ele>
        <time>2022-02-12T08:51:14Z</time>
      </trkpt>
      <trkpt lat="43.08449" lon="-0.0899">
        <ele>774.2</ele>
        <time>2022-02-12T08:51:15Z</time>
      </trkpt>
      <trkpt lat="43.08449" lon="-0.08987">
        <ele>774.2</ele>
        <time>2022-02-12T08:51:16Z</time>
      </trkpt>
      <trkpt lat="43.08448" lon="-0.08984">
        <ele>774.2</ele>
        <time>2022-02-12T08:51:17Z</time>
      </trkpt>
      <trkpt lat="43.08447" lon="-0.08982">
        <ele>774.2</ele>
        <time>2022-02-12T08:51:18Z</time>
      </trkpt>
      <trkpt lat="43.08446" lon="-0.08979">
        <ele>774</ele>
        <time>2022-02-12T08:51:19Z</time>
      </trkpt>
      <trkpt lat="43.08445" lon="-0.08977">
        <ele>774</ele>
        <time>2022-02-12T08:51:20Z</time>
      </trkpt>
      <trkpt lat="43.08444" lon="-0.08975">
        <ele>774</ele>
        <time>2022-02-12T08:51:21Z</time>
      </trkpt>
      <trkpt lat="43.08443" lon="-0.08973">
        <ele>774</ele>
        <time>2022-02-12T08:51:22Z</time>
      </trkpt>
      <trkpt lat="43.08442" lon="-0.0897">
        <ele>774</ele>
        <time>2022-02-12T08:51:23Z</time>
      </trkpt>
      <trkpt lat="43.08441" lon="-0.08969">
        <ele>774</ele>
        <time>2022-02-12T08:51:24Z</time>
      </trkpt>
      <trkpt lat="43.08441" lon="-0.08968">
        <ele>774</ele>
        <time>2022-02-12T08:51:25Z</time>
      </trkpt>
      <trkpt lat="43.0844" lon="-0.08967">
        <ele>774</ele>
        <time>2022-02-12T08:51:26Z</time>
      </trkpt>
      <trkpt lat="43.08439" lon="-0.08966">
        <ele>773.8</ele>
        <time>2022-02-12T08:51:27Z</time>
      </trkpt>
      <trkpt lat="43.08439" lon="-0.08965">
        <ele>773.8</ele>
        <time>2022-02-12T08:51:28Z</time>
      </trkpt>
      <trkpt lat="43.08438" lon="-0.08964">
        <ele>773.8</ele>
        <time>2022-02-12T08:51:29Z</time>
      </trkpt>
      <trkpt lat="43.08438" lon="-0.08963">
        <ele>773.8</ele>
        <time>2022-02-12T08:51:30Z</time>
      </trkpt>
      <trkpt lat="43.08437" lon="-0.08961">
        <ele>773.8</ele>
        <time>2022-02-12T08:51:31Z</time>
      </trkpt>
      <trkpt lat="43.08436" lon="-0.0896">
        <ele>773.6</ele>
        <time>2022-02-12T08:51:32Z</time>
      </trkpt>
      <trkpt lat="43.08436" lon="-0.08959">
        <ele>773.6</ele>
        <time>2022-02-12T08:51:33Z</time>
      </trkpt>
      <trkpt lat="43.08435" lon="-0.08959">
        <ele>773.6</ele>
        <time>2022-02-12T08:51:34Z</time>
      </trkpt>
      <trkpt lat="43.08435" lon="-0.08958">
        <ele>773.6</ele>
        <time>2022-02-12T08:51:35Z</time>
      </trkpt>
      <trkpt lat="43.08435" lon="-0.08958">
        <ele>773.8</ele>
        <time>2022-02-12T08:51:36Z</time>
      </trkpt>
      <trkpt lat="43.08434" lon="-0.08957">
        <ele>773.8</ele>
        <time>2022-02-12T08:51:37Z</time>
      </trkpt>
      <trkpt lat="43.08434" lon="-0.08956">
        <ele>773.8</ele>
        <time>2022-02-12T08:51:38Z</time>
      </trkpt>
      <trkpt lat="43.08433" lon="-0.08955">
        <ele>773.8</ele>
        <time>2022-02-12T08:51:39Z</time>
      </trkpt>
      <trkpt lat="43.08432" lon="-0.08955">
        <ele>773.8</ele>
        <time>2022-02-12T08:51:40Z</time>
      </trkpt>
      <trkpt lat="43.08432" lon="-0.08955">
        <ele>773.8</ele>
        <time>2022-02-12T08:51:41Z</time>
      </trkpt>
      <trkpt lat="43.08432" lon="-0.08955">
        <ele>773.8</ele>
        <time>2022-02-12T08:51:42Z</time>
      </trkpt>
      <trkpt lat="43.08432" lon="-0.08954">
        <ele>773.8</ele>
        <time>2022-02-12T08:51:43Z</time>
      </trkpt>
      <trkpt lat="43.08431" lon="-0.08954">
        <ele>773.8</ele>
        <time>2022-02-12T08:51:44Z</time>
      </trkpt>
      <trkpt lat="43.08431" lon="-0.08954">
        <ele>773.8</ele>
        <time>2022-02-12T08:51:45Z</time>
      </trkpt>
      <trkpt lat="43.08431" lon="-0.08954">
        <ele>773.8</ele>
        <time>2022-02-12T08:51:46Z</time>
      </trkpt>
      <trkpt lat="43.08431" lon="-0.08954">
        <ele>773.4</ele>
        <time>2022-02-12T08:51:47Z</time>
      </trkpt>
      <trkpt lat="43.08431" lon="-0.08954">
        <ele>773.4</ele>
        <time>2022-02-12T08:51:48Z</time>
      </trkpt>
      <trkpt lat="43.08431" lon="-0.08954">
        <ele>773.4</ele>
        <time>2022-02-12T08:51:49Z</time>
      </trkpt>
      <trkpt lat="43.08431" lon="-0.08954">
        <ele>773.4</ele>
        <time>2022-02-12T08:51:50Z</time>
      </trkpt>
      <trkpt lat="43.08431" lon="-0.08953">
        <ele>773.4</ele>
        <time>2022-02-12T08:51:51Z</time>
      </trkpt>
      <trkpt lat="43.08431" lon="-0.08953">
        <ele>773.4</ele>
        <time>2022-02-12T08:51:52Z</time>
      </trkpt>
      <trkpt lat="43.08431" lon="-0.08953">
        <ele>773.4</ele>
        <time>2022-02-12T08:51:53Z</time>
      </trkpt>
      <trkpt lat="43.08431" lon="-0.08953">
        <ele>773.4</ele>
        <time>2022-02-12T08:51:54Z</time>
      </trkpt>
      <trkpt lat="43.08431" lon="-0.08953">
        <ele>773.8</ele>
        <time>2022-02-12T08:51:55Z</time>
      </trkpt>
      <trkpt lat="43.08431" lon="-0.08953">
        <ele>773.8</ele>
        <time>2022-02-12T08:51:56Z</time>
      </trkpt>
      <trkpt lat="43.08431" lon="-0.08953">
        <ele>773.8</ele>
        <time>2022-02-12T08:51:57Z</time>
      </trkpt>
      <trkpt lat="43.0843" lon="-0.08952">
        <ele>773.8</ele>
        <time>2022-02-12T08:51:58Z</time>
      </trkpt>
      <trkpt lat="43.08429" lon="-0.0895">
        <ele>773.8</ele>
        <time>2022-02-12T08:51:59Z</time>
      </trkpt>
      <trkpt lat="43.08428" lon="-0.08949">
        <ele>773.8</ele>
        <time>2022-02-12T08:52:00Z</time>
      </trkpt>
      <trkpt lat="43.08427" lon="-0.08947">
        <ele>773.8</ele>
        <time>2022-02-12T08:52:01Z</time>
      </trkpt>
      <trkpt lat="43.08426" lon="-0.08946">
        <ele>773.8</ele>
        <time>2022-02-12T08:52:02Z</time>
      </trkpt>
      <trkpt lat="43.08425" lon="-0.08944">
        <ele>773.8</ele>
        <time>2022-02-12T08:52:03Z</time>
      </trkpt>
      <trkpt lat="43.08425" lon="-0.08943">
        <ele>773.8</ele>
        <time>2022-02-12T08:52:04Z</time>
      </trkpt>
      <trkpt lat="43.08424" lon="-0.0894">
        <ele>773.8</ele>
        <time>2022-02-12T08:52:05Z</time>
      </trkpt>
      <trkpt lat="43.08423" lon="-0.08939">
        <ele>773.8</ele>
        <time>2022-02-12T08:52:06Z</time>
      </trkpt>
      <trkpt lat="43.08423" lon="-0.08938">
        <ele>773.8</ele>
        <time>2022-02-12T08:52:07Z</time>
      </trkpt>
      <trkpt lat="43.08423" lon="-0.08936">
        <ele>773.8</ele>
        <time>2022-02-12T08:52:08Z</time>
      </trkpt>
      <trkpt lat="43.08423" lon="-0.08936">
        <ele>773.8</ele>
        <time>2022-02-12T08:52:09Z</time>
      </trkpt>
      <trkpt lat="43.08423" lon="-0.08935">
        <ele>773.8</ele>
        <time>2022-02-12T08:52:10Z</time>
      </trkpt>
      <trkpt lat="43.08422" lon="-0.08934">
        <ele>773.8</ele>
        <time>2022-02-12T08:52:11Z</time>
      </trkpt>
      <trkpt lat="43.08422" lon="-0.08933">
        <ele>773.8</ele>
        <time>2022-02-12T08:52:12Z</time>
      </trkpt>
      <trkpt lat="43.08421" lon="-0.08933">
        <ele>773.8</ele>
        <time>2022-02-12T08:52:13Z</time>
      </trkpt>
      <trkpt lat="43.08421" lon="-0.08932">
        <ele>773.8</ele>
        <time>2022-02-12T08:52:14Z</time>
      </trkpt>
      <trkpt lat="43.08421" lon="-0.08931">
        <ele>773.8</ele>
        <time>2022-02-12T08:52:15Z</time>
      </trkpt>
      <trkpt lat="43.08421" lon="-0.08931">
        <ele>773.8</ele>
        <time>2022-02-12T08:52:16Z</time>
      </trkpt>
      <trkpt lat="43.08421" lon="-0.08931">
        <ele>773.8</ele>
        <time>2022-02-12T08:52:17Z</time>
      </trkpt>
      <trkpt lat="43.0842" lon="-0.0893">
        <ele>773.8</ele>
        <time>2022-02-12T08:52:18Z</time>
      </trkpt>
      <trkpt lat="43.08419" lon="-0.08929">
        <ele>773.8</ele>
        <time>2022-02-12T08:52:19Z</time>
      </trkpt>
      <trkpt lat="43.08418" lon="-0.08928">
        <ele>773.8</ele>
        <time>2022-02-12T08:52:20Z</time>
      </trkpt>
      <trkpt lat="43.08417" lon="-0.08927">
        <ele>773.8</ele>
        <time>2022-02-12T08:52:21Z</time>
      </trkpt>
      <trkpt lat="43.08417" lon="-0.08926">
        <ele>773.8</ele>
        <time>2022-02-12T08:52:22Z</time>
      </trkpt>
      <trkpt lat="43.08416" lon="-0.08925">
        <ele>773.4</ele>
        <time>2022-02-12T08:52:23Z</time>
      </trkpt>
      <trkpt lat="43.08415" lon="-0.08924">
        <ele>773.4</ele>
        <time>2022-02-12T08:52:24Z</time>
      </trkpt>
      <trkpt lat="43.08415" lon="-0.08923">
        <ele>773.4</ele>
        <time>2022-02-12T08:52:25Z</time>
      </trkpt>
      <trkpt lat="43.08414" lon="-0.08922">
        <ele>773.4</ele>
        <time>2022-02-12T08:52:26Z</time>
      </trkpt>
      <trkpt lat="43.08414" lon="-0.08921">
        <ele>773.4</ele>
        <time>2022-02-12T08:52:27Z</time>
      </trkpt>
      <trkpt lat="43.08414" lon="-0.0892">
        <ele>773.4</ele>
        <time>2022-02-12T08:52:28Z</time>
      </trkpt>
      <trkpt lat="43.08414" lon="-0.0892">
        <ele>773.4</ele>
        <time>2022-02-12T08:52:29Z</time>
      </trkpt>
      <trkpt lat="43.08414" lon="-0.0892">
        <ele>773.4</ele>
        <time>2022-02-12T08:52:30Z</time>
      </trkpt>
      <trkpt lat="43.08414" lon="-0.0892">
        <ele>773.4</ele>
        <time>2022-02-12T08:52:31Z</time>
      </trkpt>
      <trkpt lat="43.08414" lon="-0.0892">
        <ele>773.4</ele>
        <time>2022-02-12T08:52:32Z</time>
      </trkpt>
      <trkpt lat="43.08414" lon="-0.0892">
        <ele>773.4</ele>
        <time>2022-02-12T08:52:33Z</time>
      </trkpt>
      <trkpt lat="43.08414" lon="-0.0892">
        <ele>773.4</ele>
        <time>2022-02-12T08:52:34Z</time>
      </trkpt>
      <trkpt lat="43.08414" lon="-0.08919">
        <ele>773.4</ele>
        <time>2022-02-12T08:52:35Z</time>
      </trkpt>
      <trkpt lat="43.08415" lon="-0.08918">
        <ele>773.4</ele>
        <time>2022-02-12T08:52:36Z</time>
      </trkpt>
      <trkpt lat="43.08415" lon="-0.08917">
        <ele>773.4</ele>
        <time>2022-02-12T08:52:37Z</time>
      </trkpt>
      <trkpt lat="43.08416" lon="-0.08916">
        <ele>773.4</ele>
        <time>2022-02-12T08:52:38Z</time>
      </trkpt>
      <trkpt lat="43.08417" lon="-0.08916">
        <ele>773.4</ele>
        <time>2022-02-12T08:52:39Z</time>
      </trkpt>
      <trkpt lat="43.08417" lon="-0.08915">
        <ele>773.4</ele>
        <time>2022-02-12T08:52:40Z</time>
      </trkpt>
      <trkpt lat="43.08417" lon="-0.08913">
        <ele>773.4</ele>
        <time>2022-02-12T08:52:41Z</time>
      </trkpt>
      <trkpt lat="43.08418" lon="-0.08913">
        <ele>773.4</ele>
        <time>2022-02-12T08:52:42Z</time>
      </trkpt>
      <trkpt lat="43.08418" lon="-0.08912">
        <ele>773.8</ele>
        <time>2022-02-12T08:52:43Z</time>
      </trkpt>
      <trkpt lat="43.08418" lon="-0.0891">
        <ele>773.8</ele>
        <time>2022-02-12T08:52:44Z</time>
      </trkpt>
      <trkpt lat="43.08418" lon="-0.0891">
        <ele>774</ele>
        <time>2022-02-12T08:52:45Z</time>
      </trkpt>
      <trkpt lat="43.08418" lon="-0.08909">
        <ele>774.4</ele>
        <time>2022-02-12T08:52:46Z</time>
      </trkpt>
      <trkpt lat="43.08417" lon="-0.08908">
        <ele>774.6</ele>
        <time>2022-02-12T08:52:47Z</time>
      </trkpt>
      <trkpt lat="43.08417" lon="-0.08907">
        <ele>774.6</ele>
        <time>2022-02-12T08:52:48Z</time>
      </trkpt>
      <trkpt lat="43.08417" lon="-0.08907">
        <ele>774.8</ele>
        <time>2022-02-12T08:52:49Z</time>
      </trkpt>
      <trkpt lat="43.08417" lon="-0.08907">
        <ele>775</ele>
        <time>2022-02-12T08:52:50Z</time>
      </trkpt>
      <trkpt lat="43.08416" lon="-0.08906">
        <ele>775</ele>
        <time>2022-02-12T08:52:51Z</time>
      </trkpt>
      <trkpt lat="43.08415" lon="-0.08906">
        <ele>775.2</ele>
        <time>2022-02-12T08:52:52Z</time>
      </trkpt>
      <trkpt lat="43.08415" lon="-0.08904">
        <ele>775.2</ele>
        <time>2022-02-12T08:52:53Z</time>
      </trkpt>
      <trkpt lat="43.08414" lon="-0.08904">
        <ele>775.4</ele>
        <time>2022-02-12T08:52:54Z</time>
      </trkpt>
      <trkpt lat="43.08413" lon="-0.08903">
        <ele>775.4</ele>
        <time>2022-02-12T08:52:55Z</time>
      </trkpt>
      <trkpt lat="43.08413" lon="-0.08902">
        <ele>775.4</ele>
        <time>2022-02-12T08:52:56Z</time>
      </trkpt>
      <trkpt lat="43.08412" lon="-0.08902">
        <ele>775.4</ele>
        <time>2022-02-12T08:52:57Z</time>
      </trkpt>
      <trkpt lat="43.08411" lon="-0.08901">
        <ele>775.4</ele>
        <time>2022-02-12T08:52:58Z</time>
      </trkpt>
      <trkpt lat="43.0841" lon="-0.089">
        <ele>775.4</ele>
        <time>2022-02-12T08:52:59Z</time>
      </trkpt>
      <trkpt lat="43.0841" lon="-0.08899">
        <ele>775.6</ele>
        <time>2022-02-12T08:53:00Z</time>
      </trkpt>
      <trkpt lat="43.08409" lon="-0.08898">
        <ele>775.6</ele>
        <time>2022-02-12T08:53:01Z</time>
      </trkpt>
      <trkpt lat="43.08409" lon="-0.08898">
        <ele>775.6</ele>
        <time>2022-02-12T08:53:02Z</time>
      </trkpt>
      <trkpt lat="43.08409" lon="-0.08897">
        <ele>775.6</ele>
        <time>2022-02-12T08:53:03Z</time>
      </trkpt>
      <trkpt lat="43.08408" lon="-0.08896">
        <ele>775.6</ele>
        <time>2022-02-12T08:53:04Z</time>
      </trkpt>
      <trkpt lat="43.08408" lon="-0.08895">
        <ele>775.6</ele>
        <time>2022-02-12T08:53:05Z</time>
      </trkpt>
      <trkpt lat="43.08407" lon="-0.08895">
        <ele>775.8</ele>
        <time>2022-02-12T08:53:06Z</time>
      </trkpt>
      <trkpt lat="43.08407" lon="-0.08895">
        <ele>775.8</ele>
        <time>2022-02-12T08:53:07Z</time>
      </trkpt>
      <trkpt lat="43.08407" lon="-0.08895">
        <ele>775.8</ele>
        <time>2022-02-12T08:53:08Z</time>
      </trkpt>
      <trkpt lat="43.08407" lon="-0.08895">
        <ele>775.8</ele>
        <time>2022-02-12T08:53:09Z</time>
      </trkpt>
      <trkpt lat="43.08407" lon="-0.08895">
        <ele>775.8</ele>
        <time>2022-02-12T08:53:10Z</time>
      </trkpt>
      <trkpt lat="43.08407" lon="-0.08895">
        <ele>775.8</ele>
        <time>2022-02-12T08:53:11Z</time>
      </trkpt>
      <trkpt lat="43.08407" lon="-0.08895">
        <ele>775.8</ele>
        <time>2022-02-12T08:53:12Z</time>
      </trkpt>
      <trkpt lat="43.08407" lon="-0.08895">
        <ele>775.8</ele>
        <time>2022-02-12T08:53:13Z</time>
      </trkpt>
      <trkpt lat="43.08407" lon="-0.08895">
        <ele>775.8</ele>
        <time>2022-02-12T08:53:14Z</time>
      </trkpt>
      <trkpt lat="43.08407" lon="-0.08895">
        <ele>775.8</ele>
        <time>2022-02-12T08:53:15Z</time>
      </trkpt>
      <trkpt lat="43.08407" lon="-0.08895">
        <ele>775.8</ele>
        <time>2022-02-12T08:53:16Z</time>
      </trkpt>
      <trkpt lat="43.08407" lon="-0.08895">
        <ele>775.8</ele>
        <time>2022-02-12T08:53:17Z</time>
      </trkpt>
      <trkpt lat="43.08407" lon="-0.08895">
        <ele>775.6</ele>
        <time>2022-02-12T08:53:18Z</time>
      </trkpt>
      <trkpt lat="43.08407" lon="-0.08895">
        <ele>775.6</ele>
        <time>2022-02-12T08:53:19Z</time>
      </trkpt>
      <trkpt lat="43.08407" lon="-0.08895">
        <ele>775.6</ele>
        <time>2022-02-12T08:53:20Z</time>
      </trkpt>
      <trkpt lat="43.08407" lon="-0.08895">
        <ele>775.6</ele>
        <time>2022-02-12T08:53:21Z</time>
      </trkpt>
      <trkpt lat="43.08407" lon="-0.08895">
        <ele>775.6</ele>
        <time>2022-02-12T08:53:22Z</time>
      </trkpt>
      <trkpt lat="43.08407" lon="-0.08895">
        <ele>775.6</ele>
        <time>2022-02-12T08:53:23Z</time>
      </trkpt>
      <trkpt lat="43.08407" lon="-0.08895">
        <ele>775.6</ele>
        <time>2022-02-12T08:53:24Z</time>
      </trkpt>
      <trkpt lat="43.08407" lon="-0.08895">
        <ele>775.6</ele>
        <time>2022-02-12T08:53:25Z</time>
      </trkpt>
      <trkpt lat="43.08407" lon="-0.08895">
        <ele>775.6</ele>
        <time>2022-02-12T08:53:26Z</time>
      </trkpt>
      <trkpt lat="43.08407" lon="-0.08895">
        <ele>775.6</ele>
        <time>2022-02-12T08:53:27Z</time>
      </trkpt>
      <trkpt lat="43.08407" lon="-0.08895">
        <ele>775.6</ele>
        <time>2022-02-12T08:53:28Z</time>
      </trkpt>
      <trkpt lat="43.08407" lon="-0.08895">
        <ele>775.6</ele>
        <time>2022-02-12T08:53:29Z</time>
      </trkpt>
      <trkpt lat="43.08407" lon="-0.08895">
        <ele>775.6</ele>
        <time>2022-02-12T08:53:30Z</time>
      </trkpt>
      <trkpt lat="43.08407" lon="-0.08895">
        <ele>775.6</ele>
        <time>2022-02-12T08:53:31Z</time>
      </trkpt>
      <trkpt lat="43.08407" lon="-0.08895">
        <ele>775.6</ele>
        <time>2022-02-12T08:53:32Z</time>
      </trkpt>
      <trkpt lat="43.08407" lon="-0.08895">
        <ele>775.6</ele>
        <time>2022-02-12T08:53:33Z</time>
      </trkpt>
      <trkpt lat="43.08407" lon="-0.08895">
        <ele>775.6</ele>
        <time>2022-02-12T08:53:34Z</time>
      </trkpt>
      <trkpt lat="43.08407" lon="-0.08895">
        <ele>775.6</ele>
        <time>2022-02-12T08:53:35Z</time>
      </trkpt>
      <trkpt lat="43.08407" lon="-0.08895">
        <ele>775.6</ele>
        <time>2022-02-12T08:53:36Z</time>
      </trkpt>
      <trkpt lat="43.08407" lon="-0.08895">
        <ele>775.6</ele>
        <time>2022-02-12T08:53:37Z</time>
      </trkpt>
      <trkpt lat="43.08407" lon="-0.08895">
        <ele>775.6</ele>
        <time>2022-02-12T08:53:38Z</time>
      </trkpt>
      <trkpt lat="43.08407" lon="-0.08895">
        <ele>775.6</ele>
        <time>2022-02-12T08:53:39Z</time>
      </trkpt>
      <trkpt lat="43.08407" lon="-0.08895">
        <ele>775.6</ele>
        <time>2022-02-12T08:53:40Z</time>
      </trkpt>
      <trkpt lat="43.08407" lon="-0.08895">
        <ele>775.6</ele>
        <time>2022-02-12T08:53:41Z</time>
      </trkpt>
      <trkpt lat="43.08407" lon="-0.08895">
        <ele>775.8</ele>
        <time>2022-02-12T08:53:42Z</time>
      </trkpt>
      <trkpt lat="43.08407" lon="-0.08895">
        <ele>775.8</ele>
        <time>2022-02-12T08:53:43Z</time>
      </trkpt>
      <trkpt lat="43.08407" lon="-0.08895">
        <ele>775.8</ele>
        <time>2022-02-12T08:53:44Z</time>
      </trkpt>
      <trkpt lat="43.08407" lon="-0.08895">
        <ele>775.6</ele>
        <time>2022-02-12T08:53:45Z</time>
      </trkpt>
      <trkpt lat="43.08407" lon="-0.08895">
        <ele>775.6</ele>
        <time>2022-02-12T08:53:46Z</time>
      </trkpt>
      <trkpt lat="43.08407" lon="-0.08895">
        <ele>775.4</ele>
        <time>2022-02-12T08:53:47Z</time>
      </trkpt>
      <trkpt lat="43.08407" lon="-0.08895">
        <ele>775.2</ele>
        <time>2022-02-12T08:53:48Z</time>
      </trkpt>
      <trkpt lat="43.08406" lon="-0.08895">
        <ele>775.2</ele>
        <time>2022-02-12T08:53:49Z</time>
      </trkpt>
      <trkpt lat="43.08405" lon="-0.08895">
        <ele>775</ele>
        <time>2022-02-12T08:53:50Z</time>
      </trkpt>
      <trkpt lat="43.08404" lon="-0.08895">
        <ele>775</ele>
        <time>2022-02-12T08:53:51Z</time>
      </trkpt>
      <trkpt lat="43.08404" lon="-0.08895">
        <ele>774.8</ele>
        <time>2022-02-12T08:53:52Z</time>
      </trkpt>
      <trkpt lat="43.08404" lon="-0.08895">
        <ele>774.6</ele>
        <time>2022-02-12T08:53:53Z</time>
      </trkpt>
      <trkpt lat="43.08404" lon="-0.08895">
        <ele>774.4</ele>
        <time>2022-02-12T08:53:54Z</time>
      </trkpt>
      <trkpt lat="43.08404" lon="-0.08895">
        <ele>774.4</ele>
        <time>2022-02-12T08:53:55Z</time>
      </trkpt>
      <trkpt lat="43.08404" lon="-0.08895">
        <ele>774.4</ele>
        <time>2022-02-12T08:53:56Z</time>
      </trkpt>
      <trkpt lat="43.08404" lon="-0.08895">
        <ele>774.4</ele>
        <time>2022-02-12T08:53:57Z</time>
      </trkpt>
      <trkpt lat="43.08404" lon="-0.08895">
        <ele>774.4</ele>
        <time>2022-02-12T08:53:58Z</time>
      </trkpt>
      <trkpt lat="43.08404" lon="-0.08895">
        <ele>774.2</ele>
        <time>2022-02-12T08:53:59Z</time>
      </trkpt>
      <trkpt lat="43.08404" lon="-0.08895">
        <ele>774.2</ele>
        <time>2022-02-12T08:54:00Z</time>
      </trkpt>
      <trkpt lat="43.08404" lon="-0.08895">
        <ele>774.2</ele>
        <time>2022-02-12T08:54:01Z</time>
      </trkpt>
      <trkpt lat="43.08404" lon="-0.08895">
        <ele>774.2</ele>
        <time>2022-02-12T08:54:02Z</time>
      </trkpt>
      <trkpt lat="43.08403" lon="-0.08895">
        <ele>774.2</ele>
        <time>2022-02-12T08:54:03Z</time>
      </trkpt>
      <trkpt lat="43.08403" lon="-0.08895">
        <ele>774.4</ele>
        <time>2022-02-12T08:54:04Z</time>
      </trkpt>
      <trkpt lat="43.08402" lon="-0.08895">
        <ele>774.4</ele>
        <time>2022-02-12T08:54:05Z</time>
      </trkpt>
      <trkpt lat="43.08402" lon="-0.08896">
        <ele>774.4</ele>
        <time>2022-02-12T08:54:06Z</time>
      </trkpt>
      <trkpt lat="43.08402" lon="-0.08896">
        <ele>774.4</ele>
        <time>2022-02-12T08:54:07Z</time>
      </trkpt>
      <trkpt lat="43.08402" lon="-0.08896">
        <ele>774.4</ele>
        <time>2022-02-12T08:54:08Z</time>
      </trkpt>
      <trkpt lat="43.08402" lon="-0.08896">
        <ele>774.4</ele>
        <time>2022-02-12T08:54:09Z</time>
      </trkpt>
      <trkpt lat="43.08402" lon="-0.08896">
        <ele>774.4</ele>
        <time>2022-02-12T08:54:10Z</time>
      </trkpt>
      <trkpt lat="43.08402" lon="-0.08896">
        <ele>774.6</ele>
        <time>2022-02-12T08:54:11Z</time>
      </trkpt>
      <trkpt lat="43.08402" lon="-0.08896">
        <ele>774.6</ele>
        <time>2022-02-12T08:54:12Z</time>
      </trkpt>
      <trkpt lat="43.08402" lon="-0.08896">
        <ele>774.6</ele>
        <time>2022-02-12T08:54:13Z</time>
      </trkpt>
      <trkpt lat="43.08402" lon="-0.08896">
        <ele>774.6</ele>
        <time>2022-02-12T08:54:14Z</time>
      </trkpt>
      <trkpt lat="43.08402" lon="-0.08896">
        <ele>774.6</ele>
        <time>2022-02-12T08:54:15Z</time>
      </trkpt>
      <trkpt lat="43.08402" lon="-0.08896">
        <ele>774.6</ele>
        <time>2022-02-12T08:54:16Z</time>
      </trkpt>
      <trkpt lat="43.08402" lon="-0.08896">
        <ele>774.6</ele>
        <time>2022-02-12T08:54:17Z</time>
      </trkpt>
      <trkpt lat="43.08402" lon="-0.08896">
        <ele>774.6</ele>
        <time>2022-02-12T08:54:18Z</time>
      </trkpt>
      <trkpt lat="43.08402" lon="-0.08896">
        <ele>774.4</ele>
        <time>2022-02-12T08:54:19Z</time>
      </trkpt>
      <trkpt lat="43.08402" lon="-0.08896">
        <ele>774.4</ele>
        <time>2022-02-12T08:54:20Z</time>
      </trkpt>
      <trkpt lat="43.08402" lon="-0.08896">
        <ele>774.4</ele>
        <time>2022-02-12T08:54:21Z</time>
      </trkpt>
      <trkpt lat="43.08402" lon="-0.08896">
        <ele>774.4</ele>
        <time>2022-02-12T08:54:22Z</time>
      </trkpt>
      <trkpt lat="43.08402" lon="-0.08896">
        <ele>774.4</ele>
        <time>2022-02-12T08:54:23Z</time>
      </trkpt>
      <trkpt lat="43.08402" lon="-0.08896">
        <ele>774.4</ele>
        <time>2022-02-12T08:54:24Z</time>
      </trkpt>
      <trkpt lat="43.08402" lon="-0.08896">
        <ele>774.4</ele>
        <time>2022-02-12T08:54:25Z</time>
      </trkpt>
      <trkpt lat="43.08402" lon="-0.08896">
        <ele>774.4</ele>
        <time>2022-02-12T08:54:26Z</time>
      </trkpt>
      <trkpt lat="43.08402" lon="-0.08896">
        <ele>774.4</ele>
        <time>2022-02-12T08:54:27Z</time>
      </trkpt>
      <trkpt lat="43.08402" lon="-0.08896">
        <ele>774.4</ele>
        <time>2022-02-12T08:54:28Z</time>
      </trkpt>
      <trkpt lat="43.08402" lon="-0.08896">
        <ele>774.4</ele>
        <time>2022-02-12T08:54:29Z</time>
      </trkpt>
      <trkpt lat="43.08402" lon="-0.08896">
        <ele>774.4</ele>
        <time>2022-02-12T08:54:30Z</time>
      </trkpt>
      <trkpt lat="43.08402" lon="-0.08896">
        <ele>774.4</ele>
        <time>2022-02-12T08:54:31Z</time>
      </trkpt>
      <trkpt lat="43.08402" lon="-0.08896">
        <ele>774.4</ele>
        <time>2022-02-12T08:54:32Z</time>
      </trkpt>
      <trkpt lat="43.08402" lon="-0.08896">
        <ele>774.4</ele>
        <time>2022-02-12T08:54:33Z</time>
      </trkpt>
      <trkpt lat="43.08402" lon="-0.08896">
        <ele>774.4</ele>
        <time>2022-02-12T08:54:34Z</time>
      </trkpt>
      <trkpt lat="43.08402" lon="-0.08896">
        <ele>774.4</ele>
        <time>2022-02-12T08:54:35Z</time>
      </trkpt>
      <trkpt lat="43.08402" lon="-0.08896">
        <ele>774.4</ele>
        <time>2022-02-12T08:54:36Z</time>
      </trkpt>
      <trkpt lat="43.08402" lon="-0.08896">
        <ele>774.4</ele>
        <time>2022-02-12T08:54:37Z</time>
      </trkpt>
      <trkpt lat="43.08402" lon="-0.08896">
        <ele>774.4</ele>
        <time>2022-02-12T08:54:38Z</time>
      </trkpt>
      <trkpt lat="43.08402" lon="-0.08896">
        <ele>774.4</ele>
        <time>2022-02-12T08:54:39Z</time>
      </trkpt>
      <trkpt lat="43.08402" lon="-0.08896">
        <ele>774.4</ele>
        <time>2022-02-12T08:54:40Z</time>
      </trkpt>
      <trkpt lat="43.08401" lon="-0.08896">
        <ele>774.2</ele>
        <time>2022-02-12T08:54:41Z</time>
      </trkpt>
      <trkpt lat="43.084" lon="-0.08896">
        <ele>774.2</ele>
        <time>2022-02-12T08:54:42Z</time>
      </trkpt>
      <trkpt lat="43.08399" lon="-0.08896">
        <ele>774.2</ele>
        <time>2022-02-12T08:54:43Z</time>
      </trkpt>
      <trkpt lat="43.08399" lon="-0.08896">
        <ele>774.2</ele>
        <time>2022-02-12T08:54:44Z</time>
      </trkpt>
      <trkpt lat="43.08399" lon="-0.08896">
        <ele>774.2</ele>
        <time>2022-02-12T08:54:45Z</time>
      </trkpt>
      <trkpt lat="43.08399" lon="-0.08896">
        <ele>774.2</ele>
        <time>2022-02-12T08:54:46Z</time>
      </trkpt>
      <trkpt lat="43.08399" lon="-0.08896">
        <ele>774.2</ele>
        <time>2022-02-12T08:54:47Z</time>
      </trkpt>
      <trkpt lat="43.08399" lon="-0.08896">
        <ele>774.2</ele>
        <time>2022-02-12T08:54:48Z</time>
      </trkpt>
      <trkpt lat="43.08399" lon="-0.08896">
        <ele>774.2</ele>
        <time>2022-02-12T08:54:49Z</time>
      </trkpt>
      <trkpt lat="43.08399" lon="-0.08896">
        <ele>774.2</ele>
        <time>2022-02-12T08:54:50Z</time>
      </trkpt>
      <trkpt lat="43.08399" lon="-0.08896">
        <ele>774.2</ele>
        <time>2022-02-12T08:54:51Z</time>
      </trkpt>
      <trkpt lat="43.08399" lon="-0.08896">
        <ele>774.2</ele>
        <time>2022-02-12T08:54:52Z</time>
      </trkpt>
      <trkpt lat="43.08399" lon="-0.08896">
        <ele>774.2</ele>
        <time>2022-02-12T08:54:53Z</time>
      </trkpt>
      <trkpt lat="43.08399" lon="-0.08896">
        <ele>774.2</ele>
        <time>2022-02-12T08:54:54Z</time>
      </trkpt>
      <trkpt lat="43.08399" lon="-0.08896">
        <ele>774.4</ele>
        <time>2022-02-12T08:54:55Z</time>
      </trkpt>
      <trkpt lat="43.08399" lon="-0.08896">
        <ele>774.4</ele>
        <time>2022-02-12T08:54:56Z</time>
      </trkpt>
      <trkpt lat="43.08399" lon="-0.08896">
        <ele>774.4</ele>
        <time>2022-02-12T08:54:57Z</time>
      </trkpt>
      <trkpt lat="43.08398" lon="-0.08896">
        <ele>774.4</ele>
        <time>2022-02-12T08:54:58Z</time>
      </trkpt>
      <trkpt lat="43.08398" lon="-0.08896">
        <ele>774.2</ele>
        <time>2022-02-12T08:54:59Z</time>
      </trkpt>
      <trkpt lat="43.08398" lon="-0.08896">
        <ele>774.2</ele>
        <time>2022-02-12T08:55:00Z</time>
      </trkpt>
      <trkpt lat="43.08398" lon="-0.08896">
        <ele>774.2</ele>
        <time>2022-02-12T08:55:01Z</time>
      </trkpt>
      <trkpt lat="43.08397" lon="-0.08896">
        <ele>774.2</ele>
        <time>2022-02-12T08:55:02Z</time>
      </trkpt>
      <trkpt lat="43.08396" lon="-0.08896">
        <ele>774.2</ele>
        <time>2022-02-12T08:55:03Z</time>
      </trkpt>
      <trkpt lat="43.08396" lon="-0.08895">
        <ele>774.2</ele>
        <time>2022-02-12T08:55:04Z</time>
      </trkpt>
      <trkpt lat="43.08396" lon="-0.08895">
        <ele>774.2</ele>
        <time>2022-02-12T08:55:05Z</time>
      </trkpt>
      <trkpt lat="43.08396" lon="-0.08895">
        <ele>774.2</ele>
        <time>2022-02-12T08:55:06Z</time>
      </trkpt>
      <trkpt lat="43.08396" lon="-0.08895">
        <ele>774.2</ele>
        <time>2022-02-12T08:55:07Z</time>
      </trkpt>
      <trkpt lat="43.08396" lon="-0.08895">
        <ele>774.2</ele>
        <time>2022-02-12T08:55:08Z</time>
      </trkpt>
      <trkpt lat="43.08396" lon="-0.08895">
        <ele>774</ele>
        <time>2022-02-12T08:55:09Z</time>
      </trkpt>
      <trkpt lat="43.08396" lon="-0.08895">
        <ele>774</ele>
        <time>2022-02-12T08:55:10Z</time>
      </trkpt>
      <trkpt lat="43.08396" lon="-0.08895">
        <ele>774</ele>
        <time>2022-02-12T08:55:11Z</time>
      </trkpt>
      <trkpt lat="43.08396" lon="-0.08895">
        <ele>774</ele>
        <time>2022-02-12T08:55:12Z</time>
      </trkpt>
      <trkpt lat="43.08396" lon="-0.08895">
        <ele>774</ele>
        <time>2022-02-12T08:55:13Z</time>
      </trkpt>
      <trkpt lat="43.08396" lon="-0.08896">
        <ele>774</ele>
        <time>2022-02-12T08:55:14Z</time>
      </trkpt>
      <trkpt lat="43.08394" lon="-0.08896">
        <ele>774</ele>
        <time>2022-02-12T08:55:15Z</time>
      </trkpt>
      <trkpt lat="43.08394" lon="-0.08896">
        <ele>773.8</ele>
        <time>2022-02-12T08:55:16Z</time>
      </trkpt>
      <trkpt lat="43.08394" lon="-0.08896">
        <ele>773.8</ele>
        <time>2022-02-12T08:55:17Z</time>
      </trkpt>
      <trkpt lat="43.08394" lon="-0.08896">
        <ele>773.6</ele>
        <time>2022-02-12T08:55:18Z</time>
      </trkpt>
      <trkpt lat="43.08394" lon="-0.08896">
        <ele>773.4</ele>
        <time>2022-02-12T08:55:19Z</time>
      </trkpt>
      <trkpt lat="43.08394" lon="-0.08896">
        <ele>773.4</ele>
        <time>2022-02-12T08:55:20Z</time>
      </trkpt>
      <trkpt lat="43.08394" lon="-0.08896">
        <ele>773.2</ele>
        <time>2022-02-12T08:55:21Z</time>
      </trkpt>
      <trkpt lat="43.08394" lon="-0.08896">
        <ele>773</ele>
        <time>2022-02-12T08:55:22Z</time>
      </trkpt>
      <trkpt lat="43.08394" lon="-0.08896">
        <ele>773</ele>
        <time>2022-02-12T08:55:23Z</time>
      </trkpt>
      <trkpt lat="43.08394" lon="-0.08896">
        <ele>773</ele>
        <time>2022-02-12T08:55:24Z</time>
      </trkpt>
      <trkpt lat="43.08394" lon="-0.08896">
        <ele>772.8</ele>
        <time>2022-02-12T08:55:25Z</time>
      </trkpt>
      <trkpt lat="43.08394" lon="-0.08896">
        <ele>772.8</ele>
        <time>2022-02-12T08:55:26Z</time>
      </trkpt>
      <trkpt lat="43.08394" lon="-0.08896">
        <ele>772.6</ele>
        <time>2022-02-12T08:55:27Z</time>
      </trkpt>
      <trkpt lat="43.08394" lon="-0.08896">
        <ele>772.6</ele>
        <time>2022-02-12T08:55:28Z</time>
      </trkpt>
      <trkpt lat="43.08393" lon="-0.08896">
        <ele>772.4</ele>
        <time>2022-02-12T08:55:29Z</time>
      </trkpt>
      <trkpt lat="43.08393" lon="-0.08896">
        <ele>772.4</ele>
        <time>2022-02-12T08:55:30Z</time>
      </trkpt>
      <trkpt lat="43.08393" lon="-0.08896">
        <ele>772.4</ele>
        <time>2022-02-12T08:55:31Z</time>
      </trkpt>
      <trkpt lat="43.08393" lon="-0.08896">
        <ele>772.2</ele>
        <time>2022-02-12T08:55:32Z</time>
      </trkpt>
      <trkpt lat="43.08393" lon="-0.08896">
        <ele>772.2</ele>
        <time>2022-02-12T08:55:33Z</time>
      </trkpt>
      <trkpt lat="43.08393" lon="-0.08896">
        <ele>772</ele>
        <time>2022-02-12T08:55:34Z</time>
      </trkpt>
      <trkpt lat="43.08393" lon="-0.08896">
        <ele>772</ele>
        <time>2022-02-12T08:55:35Z</time>
      </trkpt>
      <trkpt lat="43.08392" lon="-0.08897">
        <ele>771.8</ele>
        <time>2022-02-12T08:55:36Z</time>
      </trkpt>
      <trkpt lat="43.08389" lon="-0.08897">
        <ele>771.6</ele>
        <time>2022-02-12T08:55:37Z</time>
      </trkpt>
      <trkpt lat="43.08386" lon="-0.08898">
        <ele>771.6</ele>
        <time>2022-02-12T08:55:38Z</time>
      </trkpt>
      <trkpt lat="43.08384" lon="-0.08899">
        <ele>771.4</ele>
        <time>2022-02-12T08:55:39Z</time>
      </trkpt>
      <trkpt lat="43.08381" lon="-0.089">
        <ele>771.2</ele>
        <time>2022-02-12T08:55:40Z</time>
      </trkpt>
      <trkpt lat="43.08378" lon="-0.08901">
        <ele>771</ele>
        <time>2022-02-12T08:55:41Z</time>
      </trkpt>
      <trkpt lat="43.08375" lon="-0.08902">
        <ele>771</ele>
        <time>2022-02-12T08:55:42Z</time>
      </trkpt>
      <trkpt lat="43.08372" lon="-0.08903">
        <ele>770.8</ele>
        <time>2022-02-12T08:55:43Z</time>
      </trkpt>
      <trkpt lat="43.08369" lon="-0.08902">
        <ele>770.6</ele>
        <time>2022-02-12T08:55:44Z</time>
      </trkpt>
      <trkpt lat="43.08366" lon="-0.08902">
        <ele>770.4</ele>
        <time>2022-02-12T08:55:45Z</time>
      </trkpt>
      <trkpt lat="43.08364" lon="-0.08902">
        <ele>770.4</ele>
        <time>2022-02-12T08:55:46Z</time>
      </trkpt>
      <trkpt lat="43.08363" lon="-0.08902">
        <ele>770</ele>
        <time>2022-02-12T08:55:47Z</time>
      </trkpt>
      <trkpt lat="43.08361" lon="-0.08904">
        <ele>769.8</ele>
        <time>2022-02-12T08:55:48Z</time>
      </trkpt>
      <trkpt lat="43.08361" lon="-0.08906">
        <ele>769.4</ele>
        <time>2022-02-12T08:55:49Z</time>
      </trkpt>
      <trkpt lat="43.08359" lon="-0.08908">
        <ele>769.4</ele>
        <time>2022-02-12T08:55:50Z</time>
      </trkpt>
      <trkpt lat="43.08357" lon="-0.08909">
        <ele>769.2</ele>
        <time>2022-02-12T08:55:51Z</time>
      </trkpt>
      <trkpt lat="43.08355" lon="-0.0891">
        <ele>769.2</ele>
        <time>2022-02-12T08:55:52Z</time>
      </trkpt>
      <trkpt lat="43.08353" lon="-0.08911">
        <ele>769</ele>
        <time>2022-02-12T08:55:53Z</time>
      </trkpt>
      <trkpt lat="43.08352" lon="-0.08912">
        <ele>769</ele>
        <time>2022-02-12T08:55:54Z</time>
      </trkpt>
      <trkpt lat="43.0835" lon="-0.08912">
        <ele>768.8</ele>
        <time>2022-02-12T08:55:55Z</time>
      </trkpt>
      <trkpt lat="43.08348" lon="-0.08912">
        <ele>768.6</ele>
        <time>2022-02-12T08:55:56Z</time>
      </trkpt>
      <trkpt lat="43.08348" lon="-0.08912">
        <ele>768.6</ele>
        <time>2022-02-12T08:55:57Z</time>
      </trkpt>
      <trkpt lat="43.08348" lon="-0.08912">
        <ele>768.4</ele>
        <time>2022-02-12T08:55:58Z</time>
      </trkpt>
      <trkpt lat="43.08348" lon="-0.08912">
        <ele>768.2</ele>
        <time>2022-02-12T08:55:59Z</time>
      </trkpt>
      <trkpt lat="43.08348" lon="-0.08912">
        <ele>768.2</ele>
        <time>2022-02-12T08:56:00Z</time>
      </trkpt>
      <trkpt lat="43.08348" lon="-0.08912">
        <ele>768</ele>
        <time>2022-02-12T08:56:01Z</time>
      </trkpt>
      <trkpt lat="43.08348" lon="-0.08912">
        <ele>768</ele>
        <time>2022-02-12T08:56:02Z</time>
      </trkpt>
      <trkpt lat="43.08348" lon="-0.08912">
        <ele>767.8</ele>
        <time>2022-02-12T08:56:03Z</time>
      </trkpt>
      <trkpt lat="43.08348" lon="-0.08912">
        <ele>767.8</ele>
        <time>2022-02-12T08:56:04Z</time>
      </trkpt>
      <trkpt lat="43.08348" lon="-0.08912">
        <ele>767.8</ele>
        <time>2022-02-12T08:56:05Z</time>
      </trkpt>
      <trkpt lat="43.08348" lon="-0.08912">
        <ele>767.8</ele>
        <time>2022-02-12T08:56:06Z</time>
      </trkpt>
      <trkpt lat="43.08348" lon="-0.08912">
        <ele>767.8</ele>
        <time>2022-02-12T08:56:07Z</time>
      </trkpt>
      <trkpt lat="43.08348" lon="-0.08912">
        <ele>767.8</ele>
        <time>2022-02-12T08:56:08Z</time>
      </trkpt>
      <trkpt lat="43.08348" lon="-0.08912">
        <ele>767.8</ele>
        <time>2022-02-12T08:56:09Z</time>
      </trkpt>
      <trkpt lat="43.08348" lon="-0.08912">
        <ele>767.6</ele>
        <time>2022-02-12T08:56:10Z</time>
      </trkpt>
      <trkpt lat="43.08348" lon="-0.08912">
        <ele>767.6</ele>
        <time>2022-02-12T08:56:11Z</time>
      </trkpt>
      <trkpt lat="43.08348" lon="-0.08912">
        <ele>767.6</ele>
        <time>2022-02-12T08:56:12Z</time>
      </trkpt>
      <trkpt lat="43.08348" lon="-0.08912">
        <ele>767.6</ele>
        <time>2022-02-12T08:56:13Z</time>
      </trkpt>
      <trkpt lat="43.08348" lon="-0.08912">
        <ele>767.6</ele>
        <time>2022-02-12T08:56:14Z</time>
      </trkpt>
      <trkpt lat="43.08348" lon="-0.08912">
        <ele>767.4</ele>
        <time>2022-02-12T08:56:15Z</time>
      </trkpt>
      <trkpt lat="43.08348" lon="-0.08912">
        <ele>767.4</ele>
        <time>2022-02-12T08:56:16Z</time>
      </trkpt>
      <trkpt lat="43.08348" lon="-0.08912">
        <ele>767.4</ele>
        <time>2022-02-12T08:56:17Z</time>
      </trkpt>
      <trkpt lat="43.08348" lon="-0.08912">
        <ele>767.4</ele>
        <time>2022-02-12T08:56:18Z</time>
      </trkpt>
      <trkpt lat="43.08348" lon="-0.08912">
        <ele>767.4</ele>
        <time>2022-02-12T08:56:19Z</time>
      </trkpt>
      <trkpt lat="43.08348" lon="-0.08912">
        <ele>767.4</ele>
        <time>2022-02-12T08:56:20Z</time>
      </trkpt>
      <trkpt lat="43.08348" lon="-0.08912">
        <ele>767.4</ele>
        <time>2022-02-12T08:56:21Z</time>
      </trkpt>
      <trkpt lat="43.08348" lon="-0.08912">
        <ele>767.4</ele>
        <time>2022-02-12T08:56:22Z</time>
      </trkpt>
      <trkpt lat="43.08348" lon="-0.08912">
        <ele>767.4</ele>
        <time>2022-02-12T08:56:23Z</time>
      </trkpt>
      <trkpt lat="43.08348" lon="-0.08912">
        <ele>767.4</ele>
        <time>2022-02-12T08:56:24Z</time>
      </trkpt>
      <trkpt lat="43.08348" lon="-0.08912">
        <ele>767.4</ele>
        <time>2022-02-12T08:56:25Z</time>
      </trkpt>
      <trkpt lat="43.08348" lon="-0.08912">
        <ele>767.4</ele>
        <time>2022-02-12T08:56:26Z</time>
      </trkpt>
      <trkpt lat="43.08348" lon="-0.08912">
        <ele>767.4</ele>
        <time>2022-02-12T08:56:27Z</time>
      </trkpt>
      <trkpt lat="43.08348" lon="-0.08912">
        <ele>767.4</ele>
        <time>2022-02-12T08:56:28Z</time>
      </trkpt>
      <trkpt lat="43.08348" lon="-0.08912">
        <ele>767.4</ele>
        <time>2022-02-12T08:56:29Z</time>
      </trkpt>
      <trkpt lat="43.08348" lon="-0.08912">
        <ele>767.4</ele>
        <time>2022-02-12T08:56:30Z</time>
      </trkpt>
      <trkpt lat="43.08348" lon="-0.08912">
        <ele>767.4</ele>
        <time>2022-02-12T08:56:31Z</time>
      </trkpt>
      <trkpt lat="43.08348" lon="-0.08912">
        <ele>767.4</ele>
        <time>2022-02-12T08:56:32Z</time>
      </trkpt>
      <trkpt lat="43.08348" lon="-0.08912">
        <ele>767.4</ele>
        <time>2022-02-12T08:56:33Z</time>
      </trkpt>
      <trkpt lat="43.08348" lon="-0.08912">
        <ele>767.4</ele>
        <time>2022-02-12T08:56:34Z</time>
      </trkpt>
      <trkpt lat="43.08348" lon="-0.08912">
        <ele>767.4</ele>
        <time>2022-02-12T08:56:35Z</time>
      </trkpt>
      <trkpt lat="43.08348" lon="-0.08912">
        <ele>767.4</ele>
        <time>2022-02-12T08:56:36Z</time>
      </trkpt>
      <trkpt lat="43.08346" lon="-0.08914">
        <ele>767.4</ele>
        <time>2022-02-12T08:56:37Z</time>
      </trkpt>
      <trkpt lat="43.08344" lon="-0.08916">
        <ele>767.4</ele>
        <time>2022-02-12T08:56:38Z</time>
      </trkpt>
      <trkpt lat="43.08342" lon="-0.08918">
        <ele>767.4</ele>
        <time>2022-02-12T08:56:39Z</time>
      </trkpt>
      <trkpt lat="43.0834" lon="-0.0892">
        <ele>767.4</ele>
        <time>2022-02-12T08:56:40Z</time>
      </trkpt>
      <trkpt lat="43.08338" lon="-0.08923">
        <ele>767.4</ele>
        <time>2022-02-12T08:56:41Z</time>
      </trkpt>
      <trkpt lat="43.08336" lon="-0.08926">
        <ele>767.2</ele>
        <time>2022-02-12T08:56:42Z</time>
      </trkpt>
      <trkpt lat="43.08334" lon="-0.08929">
        <ele>767.2</ele>
        <time>2022-02-12T08:56:43Z</time>
      </trkpt>
      <trkpt lat="43.08332" lon="-0.08931">
        <ele>767</ele>
        <time>2022-02-12T08:56:44Z</time>
      </trkpt>
      <trkpt lat="43.08329" lon="-0.08933">
        <ele>766.8</ele>
        <time>2022-02-12T08:56:45Z</time>
      </trkpt>
      <trkpt lat="43.08327" lon="-0.08935">
        <ele>766.6</ele>
        <time>2022-02-12T08:56:46Z</time>
      </trkpt>
      <trkpt lat="43.08325" lon="-0.08938">
        <ele>766.4</ele>
        <time>2022-02-12T08:56:47Z</time>
      </trkpt>
      <trkpt lat="43.08322" lon="-0.08941">
        <ele>766</ele>
        <time>2022-02-12T08:56:48Z</time>
      </trkpt>
      <trkpt lat="43.0832" lon="-0.08943">
        <ele>765.8</ele>
        <time>2022-02-12T08:56:49Z</time>
      </trkpt>
      <trkpt lat="43.08318" lon="-0.08945">
        <ele>765.6</ele>
        <time>2022-02-12T08:56:50Z</time>
      </trkpt>
      <trkpt lat="43.08316" lon="-0.08947">
        <ele>765.4</ele>
        <time>2022-02-12T08:56:51Z</time>
      </trkpt>
      <trkpt lat="43.08313" lon="-0.08949">
        <ele>765.2</ele>
        <time>2022-02-12T08:56:52Z</time>
      </trkpt>
      <trkpt lat="43.0831" lon="-0.08951">
        <ele>764.8</ele>
        <time>2022-02-12T08:56:53Z</time>
      </trkpt>
      <trkpt lat="43.08309" lon="-0.08952">
        <ele>764.6</ele>
        <time>2022-02-12T08:56:54Z</time>
      </trkpt>
      <trkpt lat="43.08307" lon="-0.08953">
        <ele>764.4</ele>
        <time>2022-02-12T08:56:55Z</time>
      </trkpt>
      <trkpt lat="43.08306" lon="-0.08954">
        <ele>764.2</ele>
        <time>2022-02-12T08:56:56Z</time>
      </trkpt>
      <trkpt lat="43.08305" lon="-0.08955">
        <ele>764</ele>
        <time>2022-02-12T08:56:57Z</time>
      </trkpt>
      <trkpt lat="43.08304" lon="-0.08956">
        <ele>763.8</ele>
        <time>2022-02-12T08:56:58Z</time>
      </trkpt>
      <trkpt lat="43.08303" lon="-0.08958">
        <ele>763.8</ele>
        <time>2022-02-12T08:56:59Z</time>
      </trkpt>
      <trkpt lat="43.08301" lon="-0.0896">
        <ele>763.8</ele>
        <time>2022-02-12T08:57:00Z</time>
      </trkpt>
      <trkpt lat="43.083" lon="-0.08961">
        <ele>763.6</ele>
        <time>2022-02-12T08:57:01Z</time>
      </trkpt>
      <trkpt lat="43.08299" lon="-0.08963">
        <ele>763.4</ele>
        <time>2022-02-12T08:57:02Z</time>
      </trkpt>
      <trkpt lat="43.08298" lon="-0.08964">
        <ele>763.4</ele>
        <time>2022-02-12T08:57:03Z</time>
      </trkpt>
      <trkpt lat="43.08296" lon="-0.08965">
        <ele>763.2</ele>
        <time>2022-02-12T08:57:04Z</time>
      </trkpt>
      <trkpt lat="43.08295" lon="-0.08966">
        <ele>763</ele>
        <time>2022-02-12T08:57:05Z</time>
      </trkpt>
      <trkpt lat="43.08293" lon="-0.08967">
        <ele>762.6</ele>
        <time>2022-02-12T08:57:06Z</time>
      </trkpt>
      <trkpt lat="43.08292" lon="-0.08968">
        <ele>762.4</ele>
        <time>2022-02-12T08:57:07Z</time>
      </trkpt>
      <trkpt lat="43.08291" lon="-0.08969">
        <ele>762.2</ele>
        <time>2022-02-12T08:57:08Z</time>
      </trkpt>
      <trkpt lat="43.0829" lon="-0.08971">
        <ele>761.8</ele>
        <time>2022-02-12T08:57:09Z</time>
      </trkpt>
      <trkpt lat="43.08289" lon="-0.08972">
        <ele>761.6</ele>
        <time>2022-02-12T08:57:10Z</time>
      </trkpt>
      <trkpt lat="43.08288" lon="-0.08974">
        <ele>761.2</ele>
        <time>2022-02-12T08:57:11Z</time>
      </trkpt>
      <trkpt lat="43.08286" lon="-0.08976">
        <ele>761</ele>
        <time>2022-02-12T08:57:12Z</time>
      </trkpt>
      <trkpt lat="43.08285" lon="-0.08977">
        <ele>760.8</ele>
        <time>2022-02-12T08:57:13Z</time>
      </trkpt>
      <trkpt lat="43.08283" lon="-0.08978">
        <ele>760.6</ele>
        <time>2022-02-12T08:57:14Z</time>
      </trkpt>
      <trkpt lat="43.0828" lon="-0.08981">
        <ele>760</ele>
        <time>2022-02-12T08:57:15Z</time>
      </trkpt>
      <trkpt lat="43.08279" lon="-0.08983">
        <ele>759.6</ele>
        <time>2022-02-12T08:57:16Z</time>
      </trkpt>
      <trkpt lat="43.08277" lon="-0.08985">
        <ele>759</ele>
        <time>2022-02-12T08:57:17Z</time>
      </trkpt>
      <trkpt lat="43.08276" lon="-0.08986">
        <ele>758.8</ele>
        <time>2022-02-12T08:57:18Z</time>
      </trkpt>
      <trkpt lat="43.08276" lon="-0.08986">
        <ele>758.2</ele>
        <time>2022-02-12T08:57:19Z</time>
      </trkpt>
      <trkpt lat="43.08276" lon="-0.08986">
        <ele>758</ele>
        <time>2022-02-12T08:57:20Z</time>
      </trkpt>
      <trkpt lat="43.08276" lon="-0.08986">
        <ele>757.4</ele>
        <time>2022-02-12T08:57:21Z</time>
      </trkpt>
      <trkpt lat="43.08276" lon="-0.08986">
        <ele>757.2</ele>
        <time>2022-02-12T08:57:22Z</time>
      </trkpt>
      <trkpt lat="43.08276" lon="-0.08986">
        <ele>757</ele>
        <time>2022-02-12T08:57:23Z</time>
      </trkpt>
      <trkpt lat="43.08276" lon="-0.08986">
        <ele>756.8</ele>
        <time>2022-02-12T08:57:24Z</time>
      </trkpt>
      <trkpt lat="43.08276" lon="-0.08986">
        <ele>756.6</ele>
        <time>2022-02-12T08:57:25Z</time>
      </trkpt>
      <trkpt lat="43.08276" lon="-0.08987">
        <ele>756.6</ele>
        <time>2022-02-12T08:57:26Z</time>
      </trkpt>
      <trkpt lat="43.08275" lon="-0.08987">
        <ele>756.4</ele>
        <time>2022-02-12T08:57:27Z</time>
      </trkpt>
      <trkpt lat="43.08275" lon="-0.08987">
        <ele>756.4</ele>
        <time>2022-02-12T08:57:28Z</time>
      </trkpt>
      <trkpt lat="43.08275" lon="-0.08987">
        <ele>756.2</ele>
        <time>2022-02-12T08:57:29Z</time>
      </trkpt>
      <trkpt lat="43.08275" lon="-0.08987">
        <ele>756.2</ele>
        <time>2022-02-12T08:57:30Z</time>
      </trkpt>
      <trkpt lat="43.08275" lon="-0.08987">
        <ele>756.2</ele>
        <time>2022-02-12T08:57:31Z</time>
      </trkpt>
      <trkpt lat="43.08275" lon="-0.08987">
        <ele>756.2</ele>
        <time>2022-02-12T08:57:32Z</time>
      </trkpt>
      <trkpt lat="43.08275" lon="-0.08987">
        <ele>756.2</ele>
        <time>2022-02-12T08:57:33Z</time>
      </trkpt>
      <trkpt lat="43.08275" lon="-0.08987">
        <ele>756.2</ele>
        <time>2022-02-12T08:57:34Z</time>
      </trkpt>
      <trkpt lat="43.08275" lon="-0.08987">
        <ele>756.2</ele>
        <time>2022-02-12T08:57:35Z</time>
      </trkpt>
      <trkpt lat="43.08275" lon="-0.08987">
        <ele>756.2</ele>
        <time>2022-02-12T08:57:36Z</time>
      </trkpt>
      <trkpt lat="43.08275" lon="-0.08987">
        <ele>756.2</ele>
        <time>2022-02-12T08:57:37Z</time>
      </trkpt>
      <trkpt lat="43.08275" lon="-0.08987">
        <ele>756.2</ele>
        <time>2022-02-12T08:57:38Z</time>
      </trkpt>
      <trkpt lat="43.08275" lon="-0.08987">
        <ele>756.2</ele>
        <time>2022-02-12T08:57:39Z</time>
      </trkpt>
      <trkpt lat="43.08275" lon="-0.08987">
        <ele>756.2</ele>
        <time>2022-02-12T08:57:40Z</time>
      </trkpt>
      <trkpt lat="43.08274" lon="-0.08988">
        <ele>756.2</ele>
        <time>2022-02-12T08:57:41Z</time>
      </trkpt>
      <trkpt lat="43.08274" lon="-0.0899">
        <ele>756.2</ele>
        <time>2022-02-12T08:57:42Z</time>
      </trkpt>
      <trkpt lat="43.08273" lon="-0.0899">
        <ele>756.2</ele>
        <time>2022-02-12T08:57:43Z</time>
      </trkpt>
      <trkpt lat="43.08273" lon="-0.08991">
        <ele>756.2</ele>
        <time>2022-02-12T08:57:44Z</time>
      </trkpt>
      <trkpt lat="43.08271" lon="-0.08992">
        <ele>756.2</ele>
        <time>2022-02-12T08:57:45Z</time>
      </trkpt>
      <trkpt lat="43.08271" lon="-0.08993">
        <ele>756.2</ele>
        <time>2022-02-12T08:57:46Z</time>
      </trkpt>
      <trkpt lat="43.0827" lon="-0.08994">
        <ele>756</ele>
        <time>2022-02-12T08:57:47Z</time>
      </trkpt>
      <trkpt lat="43.08269" lon="-0.08995">
        <ele>756</ele>
        <time>2022-02-12T08:57:48Z</time>
      </trkpt>
      <trkpt lat="43.08268" lon="-0.08995">
        <ele>756</ele>
        <time>2022-02-12T08:57:49Z</time>
      </trkpt>
      <trkpt lat="43.08268" lon="-0.08996">
        <ele>756</ele>
        <time>2022-02-12T08:57:50Z</time>
      </trkpt>
      <trkpt lat="43.08268" lon="-0.08996">
        <ele>756</ele>
        <time>2022-02-12T08:57:51Z</time>
      </trkpt>
      <trkpt lat="43.08268" lon="-0.08996">
        <ele>756</ele>
        <time>2022-02-12T08:57:52Z</time>
      </trkpt>
      <trkpt lat="43.08268" lon="-0.08996">
        <ele>756</ele>
        <time>2022-02-12T08:57:53Z</time>
      </trkpt>
      <trkpt lat="43.08268" lon="-0.08996">
        <ele>756</ele>
        <time>2022-02-12T08:57:54Z</time>
      </trkpt>
      <trkpt lat="43.08268" lon="-0.08996">
        <ele>755.8</ele>
        <time>2022-02-12T08:57:55Z</time>
      </trkpt>
      <trkpt lat="43.08268" lon="-0.08996">
        <ele>755.8</ele>
        <time>2022-02-12T08:57:56Z</time>
      </trkpt>
      <trkpt lat="43.08268" lon="-0.08996">
        <ele>755.8</ele>
        <time>2022-02-12T08:57:57Z</time>
      </trkpt>
      <trkpt lat="43.08268" lon="-0.08996">
        <ele>755.8</ele>
        <time>2022-02-12T08:57:58Z</time>
      </trkpt>
      <trkpt lat="43.08268" lon="-0.08996">
        <ele>755.8</ele>
        <time>2022-02-12T08:57:59Z</time>
      </trkpt>
      <trkpt lat="43.08268" lon="-0.08996">
        <ele>755.8</ele>
        <time>2022-02-12T08:58:00Z</time>
      </trkpt>
      <trkpt lat="43.08268" lon="-0.08996">
        <ele>755.8</ele>
        <time>2022-02-12T08:58:01Z</time>
      </trkpt>
      <trkpt lat="43.08268" lon="-0.08996">
        <ele>755.8</ele>
        <time>2022-02-12T08:58:02Z</time>
      </trkpt>
      <trkpt lat="43.08268" lon="-0.08996">
        <ele>755.8</ele>
        <time>2022-02-12T08:58:03Z</time>
      </trkpt>
      <trkpt lat="43.08268" lon="-0.08996">
        <ele>755.8</ele>
        <time>2022-02-12T08:58:04Z</time>
      </trkpt>
      <trkpt lat="43.08268" lon="-0.08996">
        <ele>755.6</ele>
        <time>2022-02-12T08:58:05Z</time>
      </trkpt>
      <trkpt lat="43.08268" lon="-0.08996">
        <ele>755.6</ele>
        <time>2022-02-12T08:58:06Z</time>
      </trkpt>
      <trkpt lat="43.08268" lon="-0.08996">
        <ele>755.6</ele>
        <time>2022-02-12T08:58:07Z</time>
      </trkpt>
      <trkpt lat="43.08268" lon="-0.08996">
        <ele>755.6</ele>
        <time>2022-02-12T08:58:08Z</time>
      </trkpt>
      <trkpt lat="43.08268" lon="-0.08996">
        <ele>755.6</ele>
        <time>2022-02-12T08:58:09Z</time>
      </trkpt>
      <trkpt lat="43.08268" lon="-0.08996">
        <ele>755.6</ele>
        <time>2022-02-12T08:58:10Z</time>
      </trkpt>
      <trkpt lat="43.08268" lon="-0.08996">
        <ele>755.6</ele>
        <time>2022-02-12T08:58:11Z</time>
      </trkpt>
      <trkpt lat="43.08268" lon="-0.08996">
        <ele>755.6</ele>
        <time>2022-02-12T08:58:12Z</time>
      </trkpt>
      <trkpt lat="43.08268" lon="-0.08996">
        <ele>755.4</ele>
        <time>2022-02-12T08:58:13Z</time>
      </trkpt>
      <trkpt lat="43.08268" lon="-0.08996">
        <ele>755.4</ele>
        <time>2022-02-12T08:58:14Z</time>
      </trkpt>
      <trkpt lat="43.08268" lon="-0.08996">
        <ele>755.4</ele>
        <time>2022-02-12T08:58:15Z</time>
      </trkpt>
      <trkpt lat="43.08268" lon="-0.08996">
        <ele>755.4</ele>
        <time>2022-02-12T08:58:16Z</time>
      </trkpt>
      <trkpt lat="43.08268" lon="-0.08996">
        <ele>755.4</ele>
        <time>2022-02-12T08:58:17Z</time>
      </trkpt>
      <trkpt lat="43.08268" lon="-0.08996">
        <ele>755.4</ele>
        <time>2022-02-12T08:58:18Z</time>
      </trkpt>
      <trkpt lat="43.08268" lon="-0.08996">
        <ele>755.4</ele>
        <time>2022-02-12T08:58:19Z</time>
      </trkpt>
      <trkpt lat="43.08268" lon="-0.08996">
        <ele>755.4</ele>
        <time>2022-02-12T08:58:20Z</time>
      </trkpt>
      <trkpt lat="43.08268" lon="-0.08996">
        <ele>755.4</ele>
        <time>2022-02-12T08:58:21Z</time>
      </trkpt>
      <trkpt lat="43.08268" lon="-0.08996">
        <ele>755.4</ele>
        <time>2022-02-12T08:58:22Z</time>
      </trkpt>
      <trkpt lat="43.08268" lon="-0.08996">
        <ele>755.4</ele>
        <time>2022-02-12T08:58:23Z</time>
      </trkpt>
      <trkpt lat="43.08268" lon="-0.08996">
        <ele>755.4</ele>
        <time>2022-02-12T08:58:24Z</time>
      </trkpt>
      <trkpt lat="43.08268" lon="-0.08996">
        <ele>755.4</ele>
        <time>2022-02-12T08:58:25Z</time>
      </trkpt>
      <trkpt lat="43.08268" lon="-0.08996">
        <ele>755.4</ele>
        <time>2022-02-12T08:58:26Z</time>
      </trkpt>
      <trkpt lat="43.08268" lon="-0.08996">
        <ele>755.4</ele>
        <time>2022-02-12T08:58:27Z</time>
      </trkpt>
      <trkpt lat="43.08268" lon="-0.08996">
        <ele>755.4</ele>
        <time>2022-02-12T08:58:28Z</time>
      </trkpt>
      <trkpt lat="43.08268" lon="-0.08996">
        <ele>755.4</ele>
        <time>2022-02-12T08:58:29Z</time>
      </trkpt>
      <trkpt lat="43.08268" lon="-0.08996">
        <ele>755.4</ele>
        <time>2022-02-12T08:58:30Z</time>
      </trkpt>
      <trkpt lat="43.08268" lon="-0.08996">
        <ele>755.4</ele>
        <time>2022-02-12T08:58:31Z</time>
      </trkpt>
      <trkpt lat="43.08268" lon="-0.08996">
        <ele>755.4</ele>
        <time>2022-02-12T08:58:32Z</time>
      </trkpt>
      <trkpt lat="43.08268" lon="-0.08996">
        <ele>755.4</ele>
        <time>2022-02-12T08:58:33Z</time>
      </trkpt>
      <trkpt lat="43.08268" lon="-0.08996">
        <ele>755.4</ele>
        <time>2022-02-12T08:58:34Z</time>
      </trkpt>
      <trkpt lat="43.08268" lon="-0.08996">
        <ele>755.4</ele>
        <time>2022-02-12T08:58:35Z</time>
      </trkpt>
      <trkpt lat="43.08268" lon="-0.08996">
        <ele>755.4</ele>
        <time>2022-02-12T08:58:36Z</time>
      </trkpt>
      <trkpt lat="43.08268" lon="-0.08996">
        <ele>755.4</ele>
        <time>2022-02-12T08:58:37Z</time>
      </trkpt>
      <trkpt lat="43.08268" lon="-0.08996">
        <ele>755.4</ele>
        <time>2022-02-12T08:58:38Z</time>
      </trkpt>
      <trkpt lat="43.08268" lon="-0.08996">
        <ele>755.4</ele>
        <time>2022-02-12T08:58:39Z</time>
      </trkpt>
      <trkpt lat="43.08268" lon="-0.08996">
        <ele>755.4</ele>
        <time>2022-02-12T08:58:40Z</time>
      </trkpt>
      <trkpt lat="43.08268" lon="-0.08996">
        <ele>755.4</ele>
        <time>2022-02-12T08:58:41Z</time>
      </trkpt>
      <trkpt lat="43.08268" lon="-0.08996">
        <ele>755.4</ele>
        <time>2022-02-12T08:58:42Z</time>
      </trkpt>
      <trkpt lat="43.08268" lon="-0.08996">
        <ele>755.4</ele>
        <time>2022-02-12T08:58:43Z</time>
      </trkpt>
      <trkpt lat="43.08268" lon="-0.08996">
        <ele>755.4</ele>
        <time>2022-02-12T08:58:44Z</time>
      </trkpt>
      <trkpt lat="43.08268" lon="-0.08996">
        <ele>755.4</ele>
        <time>2022-02-12T08:58:45Z</time>
      </trkpt>
      <trkpt lat="43.08268" lon="-0.08996">
        <ele>755.4</ele>
        <time>2022-02-12T08:58:46Z</time>
      </trkpt>
      <trkpt lat="43.08268" lon="-0.08996">
        <ele>755.2</ele>
        <time>2022-02-12T08:58:47Z</time>
      </trkpt>
      <trkpt lat="43.08268" lon="-0.08996">
        <ele>755.2</ele>
        <time>2022-02-12T08:58:48Z</time>
      </trkpt>
      <trkpt lat="43.08268" lon="-0.08996">
        <ele>755.2</ele>
        <time>2022-02-12T08:58:49Z</time>
      </trkpt>
      <trkpt lat="43.08268" lon="-0.08996">
        <ele>755.2</ele>
        <time>2022-02-12T08:58:50Z</time>
      </trkpt>
      <trkpt lat="43.08268" lon="-0.08996">
        <ele>755.2</ele>
        <time>2022-02-12T08:58:51Z</time>
      </trkpt>
      <trkpt lat="43.08268" lon="-0.08996">
        <ele>755.2</ele>
        <time>2022-02-12T08:58:52Z</time>
      </trkpt>
      <trkpt lat="43.08268" lon="-0.08996">
        <ele>755.2</ele>
        <time>2022-02-12T08:58:53Z</time>
      </trkpt>
      <trkpt lat="43.08268" lon="-0.08996">
        <ele>755.2</ele>
        <time>2022-02-12T08:58:54Z</time>
      </trkpt>
      <trkpt lat="43.08268" lon="-0.08996">
        <ele>755.2</ele>
        <time>2022-02-12T08:58:55Z</time>
      </trkpt>
      <trkpt lat="43.08268" lon="-0.08996">
        <ele>755.2</ele>
        <time>2022-02-12T08:58:56Z</time>
      </trkpt>
      <trkpt lat="43.08268" lon="-0.08996">
        <ele>755.2</ele>
        <time>2022-02-12T08:58:57Z</time>
      </trkpt>
      <trkpt lat="43.08268" lon="-0.08996">
        <ele>755.2</ele>
        <time>2022-02-12T08:58:58Z</time>
      </trkpt>
      <trkpt lat="43.08268" lon="-0.08996">
        <ele>755.2</ele>
        <time>2022-02-12T08:58:59Z</time>
      </trkpt>
      <trkpt lat="43.08268" lon="-0.08996">
        <ele>755.2</ele>
        <time>2022-02-12T08:59:00Z</time>
      </trkpt>
      <trkpt lat="43.08268" lon="-0.08996">
        <ele>755.2</ele>
        <time>2022-02-12T08:59:01Z</time>
      </trkpt>
      <trkpt lat="43.08268" lon="-0.08996">
        <ele>755.2</ele>
        <time>2022-02-12T08:59:02Z</time>
      </trkpt>
      <trkpt lat="43.08268" lon="-0.08996">
        <ele>755.2</ele>
        <time>2022-02-12T08:59:03Z</time>
      </trkpt>
      <trkpt lat="43.08268" lon="-0.08996">
        <ele>755.2</ele>
        <time>2022-02-12T08:59:04Z</time>
      </trkpt>
      <trkpt lat="43.08268" lon="-0.08996">
        <ele>755.2</ele>
        <time>2022-02-12T08:59:05Z</time>
      </trkpt>
      <trkpt lat="43.08268" lon="-0.08996">
        <ele>755.2</ele>
        <time>2022-02-12T08:59:06Z</time>
      </trkpt>
      <trkpt lat="43.08268" lon="-0.08996">
        <ele>755.2</ele>
        <time>2022-02-12T08:59:07Z</time>
      </trkpt>
      <trkpt lat="43.08268" lon="-0.08996">
        <ele>755.2</ele>
        <time>2022-02-12T08:59:08Z</time>
      </trkpt>
      <trkpt lat="43.08268" lon="-0.08996">
        <ele>755.2</ele>
        <time>2022-02-12T08:59:09Z</time>
      </trkpt>
      <trkpt lat="43.08268" lon="-0.08996">
        <ele>755.2</ele>
        <time>2022-02-12T08:59:10Z</time>
      </trkpt>
      <trkpt lat="43.08268" lon="-0.08996">
        <ele>755.2</ele>
        <time>2022-02-12T08:59:11Z</time>
      </trkpt>
      <trkpt lat="43.08268" lon="-0.08996">
        <ele>755.2</ele>
        <time>2022-02-12T08:59:12Z</time>
      </trkpt>
      <trkpt lat="43.08268" lon="-0.08996">
        <ele>755.2</ele>
        <time>2022-02-12T08:59:13Z</time>
      </trkpt>
      <trkpt lat="43.08268" lon="-0.08996">
        <ele>755.2</ele>
        <time>2022-02-12T08:59:14Z</time>
      </trkpt>
      <trkpt lat="43.08268" lon="-0.08996">
        <ele>755.2</ele>
        <time>2022-02-12T08:59:15Z</time>
      </trkpt>
      <trkpt lat="43.08268" lon="-0.08996">
        <ele>755.4</ele>
        <time>2022-02-12T08:59:16Z</time>
      </trkpt>
      <trkpt lat="43.08268" lon="-0.08996">
        <ele>755.4</ele>
        <time>2022-02-12T08:59:17Z</time>
      </trkpt>
      <trkpt lat="43.08268" lon="-0.08996">
        <ele>755.4</ele>
        <time>2022-02-12T08:59:18Z</time>
      </trkpt>
      <trkpt lat="43.08268" lon="-0.08996">
        <ele>755.4</ele>
        <time>2022-02-12T08:59:19Z</time>
      </trkpt>
      <trkpt lat="43.08268" lon="-0.08996">
        <ele>755.4</ele>
        <time>2022-02-12T08:59:20Z</time>
      </trkpt>
      <trkpt lat="43.08268" lon="-0.08996">
        <ele>755.2</ele>
        <time>2022-02-12T08:59:21Z</time>
      </trkpt>
      <trkpt lat="43.08268" lon="-0.08996">
        <ele>755.2</ele>
        <time>2022-02-12T08:59:22Z</time>
      </trkpt>
      <trkpt lat="43.08268" lon="-0.08996">
        <ele>755.2</ele>
        <time>2022-02-12T08:59:23Z</time>
      </trkpt>
      <trkpt lat="43.08268" lon="-0.08996">
        <ele>755.2</ele>
        <time>2022-02-12T08:59:24Z</time>
      </trkpt>
      <trkpt lat="43.08268" lon="-0.08996">
        <ele>755.2</ele>
        <time>2022-02-12T08:59:25Z</time>
      </trkpt>
      <trkpt lat="43.08268" lon="-0.08996">
        <ele>755.2</ele>
        <time>2022-02-12T08:59:26Z</time>
      </trkpt>
      <trkpt lat="43.08268" lon="-0.08996">
        <ele>755.2</ele>
        <time>2022-02-12T08:59:27Z</time>
      </trkpt>
      <trkpt lat="43.08268" lon="-0.08996">
        <ele>755.2</ele>
        <time>2022-02-12T08:59:28Z</time>
      </trkpt>
      <trkpt lat="43.08268" lon="-0.08996">
        <ele>755.2</ele>
        <time>2022-02-12T08:59:29Z</time>
      </trkpt>
      <trkpt lat="43.08268" lon="-0.08996">
        <ele>755.2</ele>
        <time>2022-02-12T08:59:30Z</time>
      </trkpt>
      <trkpt lat="43.08268" lon="-0.08996">
        <ele>755.2</ele>
        <time>2022-02-12T08:59:31Z</time>
      </trkpt>
      <trkpt lat="43.08268" lon="-0.08996">
        <ele>755.2</ele>
        <time>2022-02-12T08:59:32Z</time>
      </trkpt>
      <trkpt lat="43.08268" lon="-0.08996">
        <ele>755.2</ele>
        <time>2022-02-12T08:59:33Z</time>
      </trkpt>
      <trkpt lat="43.08268" lon="-0.08996">
        <ele>755.2</ele>
        <time>2022-02-12T08:59:34Z</time>
      </trkpt>
      <trkpt lat="43.08268" lon="-0.08996">
        <ele>755.2</ele>
        <time>2022-02-12T08:59:35Z</time>
      </trkpt>
      <trkpt lat="43.08268" lon="-0.08996">
        <ele>755.2</ele>
        <time>2022-02-12T08:59:36Z</time>
      </trkpt>
      <trkpt lat="43.08268" lon="-0.08996">
        <ele>755.2</ele>
        <time>2022-02-12T08:59:37Z</time>
      </trkpt>
      <trkpt lat="43.08268" lon="-0.08996">
        <ele>755.2</ele>
        <time>2022-02-12T08:59:38Z</time>
      </trkpt>
      <trkpt lat="43.08268" lon="-0.08996">
        <ele>755.2</ele>
        <time>2022-02-12T08:59:39Z</time>
      </trkpt>
      <trkpt lat="43.08268" lon="-0.08996">
        <ele>755.2</ele>
        <time>2022-02-12T08:59:40Z</time>
      </trkpt>
      <trkpt lat="43.08268" lon="-0.08996">
        <ele>755.2</ele>
        <time>2022-02-12T08:59:41Z</time>
      </trkpt>
      <trkpt lat="43.08268" lon="-0.08996">
        <ele>755.2</ele>
        <time>2022-02-12T08:59:42Z</time>
      </trkpt>
      <trkpt lat="43.08268" lon="-0.08996">
        <ele>755.2</ele>
        <time>2022-02-12T08:59:43Z</time>
      </trkpt>
      <trkpt lat="43.08268" lon="-0.08996">
        <ele>755.2</ele>
        <time>2022-02-12T08:59:44Z</time>
      </trkpt>
      <trkpt lat="43.08268" lon="-0.08996">
        <ele>755.2</ele>
        <time>2022-02-12T08:59:45Z</time>
      </trkpt>
      <trkpt lat="43.08268" lon="-0.08996">
        <ele>755.2</ele>
        <time>2022-02-12T08:59:46Z</time>
      </trkpt>
      <trkpt lat="43.08268" lon="-0.08996">
        <ele>755.2</ele>
        <time>2022-02-12T08:59:47Z</time>
      </trkpt>
      <trkpt lat="43.08268" lon="-0.08996">
        <ele>755.2</ele>
        <time>2022-02-12T08:59:48Z</time>
      </trkpt>
      <trkpt lat="43.08268" lon="-0.08996">
        <ele>755.2</ele>
        <time>2022-02-12T08:59:49Z</time>
      </trkpt>
      <trkpt lat="43.08268" lon="-0.08996">
        <ele>755.4</ele>
        <time>2022-02-12T08:59:50Z</time>
      </trkpt>
      <trkpt lat="43.08268" lon="-0.08996">
        <ele>755.4</ele>
        <time>2022-02-12T08:59:51Z</time>
      </trkpt>
      <trkpt lat="43.08268" lon="-0.08996">
        <ele>755.4</ele>
        <time>2022-02-12T08:59:52Z</time>
      </trkpt>
      <trkpt lat="43.08268" lon="-0.08996">
        <ele>755.4</ele>
        <time>2022-02-12T08:59:53Z</time>
      </trkpt>
      <trkpt lat="43.08268" lon="-0.08996">
        <ele>755.4</ele>
        <time>2022-02-12T08:59:54Z</time>
      </trkpt>
      <trkpt lat="43.08268" lon="-0.08996">
        <ele>755.4</ele>
        <time>2022-02-12T08:59:55Z</time>
      </trkpt>
      <trkpt lat="43.08268" lon="-0.08996">
        <ele>755.4</ele>
        <time>2022-02-12T08:59:56Z</time>
      </trkpt>
      <trkpt lat="43.08268" lon="-0.08996">
        <ele>755.4</ele>
        <time>2022-02-12T08:59:57Z</time>
      </trkpt>
      <trkpt lat="43.08268" lon="-0.08996">
        <ele>755.4</ele>
        <time>2022-02-12T08:59:58Z</time>
      </trkpt>
      <trkpt lat="43.08268" lon="-0.08996">
        <ele>755.4</ele>
        <time>2022-02-12T08:59:59Z</time>
      </trkpt>
      <trkpt lat="43.08268" lon="-0.08996">
        <ele>755.4</ele>
        <time>2022-02-12T09:00:00Z</time>
      </trkpt>
      <trkpt lat="43.08268" lon="-0.08996">
        <ele>755.4</ele>
        <time>2022-02-12T09:00:01Z</time>
      </trkpt>
      <trkpt lat="43.08268" lon="-0.08996">
        <ele>755.4</ele>
        <time>2022-02-12T09:00:02Z</time>
      </trkpt>
      <trkpt lat="43.08268" lon="-0.08996">
        <ele>755.4</ele>
        <time>2022-02-12T09:00:03Z</time>
      </trkpt>
      <trkpt lat="43.08268" lon="-0.08996">
        <ele>755.4</ele>
        <time>2022-02-12T09:00:04Z</time>
      </trkpt>
      <trkpt lat="43.08268" lon="-0.08996">
        <ele>755.4</ele>
        <time>2022-02-12T09:00:05Z</time>
      </trkpt>
      <trkpt lat="43.08268" lon="-0.08996">
        <ele>755.4</ele>
        <time>2022-02-12T09:00:06Z</time>
      </trkpt>
      <trkpt lat="43.08268" lon="-0.08996">
        <ele>755.2</ele>
        <time>2022-02-12T09:00:07Z</time>
      </trkpt>
      <trkpt lat="43.08268" lon="-0.08996">
        <ele>755.2</ele>
        <time>2022-02-12T09:00:08Z</time>
      </trkpt>
      <trkpt lat="43.08268" lon="-0.08996">
        <ele>755.2</ele>
        <time>2022-02-12T09:00:09Z</time>
      </trkpt>
      <trkpt lat="43.08268" lon="-0.08996">
        <ele>755.2</ele>
        <time>2022-02-12T09:00:10Z</time>
      </trkpt>
      <trkpt lat="43.08268" lon="-0.08996">
        <ele>755.2</ele>
        <time>2022-02-12T09:00:11Z</time>
      </trkpt>
      <trkpt lat="43.08268" lon="-0.08996">
        <ele>755.2</ele>
        <time>2022-02-12T09:00:12Z</time>
      </trkpt>
      <trkpt lat="43.08268" lon="-0.08996">
        <ele>755.2</ele>
        <time>2022-02-12T09:00:13Z</time>
      </trkpt>
      <trkpt lat="43.08268" lon="-0.08996">
        <ele>755</ele>
        <time>2022-02-12T09:00:14Z</time>
      </trkpt>
      <trkpt lat="43.08268" lon="-0.08996">
        <ele>755</ele>
        <time>2022-02-12T09:00:15Z</time>
      </trkpt>
      <trkpt lat="43.08268" lon="-0.08996">
        <ele>755</ele>
        <time>2022-02-12T09:00:16Z</time>
      </trkpt>
      <trkpt lat="43.08268" lon="-0.08996">
        <ele>755</ele>
        <time>2022-02-12T09:00:17Z</time>
      </trkpt>
      <trkpt lat="43.08268" lon="-0.08996">
        <ele>755</ele>
        <time>2022-02-12T09:00:18Z</time>
      </trkpt>
      <trkpt lat="43.08268" lon="-0.08996">
        <ele>755</ele>
        <time>2022-02-12T09:00:19Z</time>
      </trkpt>
      <trkpt lat="43.08268" lon="-0.08996">
        <ele>755</ele>
        <time>2022-02-12T09:00:20Z</time>
      </trkpt>
      <trkpt lat="43.08268" lon="-0.08996">
        <ele>755</ele>
        <time>2022-02-12T09:00:21Z</time>
      </trkpt>
      <trkpt lat="43.08268" lon="-0.08996">
        <ele>755</ele>
        <time>2022-02-12T09:00:22Z</time>
      </trkpt>
      <trkpt lat="43.08268" lon="-0.08996">
        <ele>755</ele>
        <time>2022-02-12T09:00:23Z</time>
      </trkpt>
      <trkpt lat="43.08268" lon="-0.08996">
        <ele>755</ele>
        <time>2022-02-12T09:00:24Z</time>
      </trkpt>
      <trkpt lat="43.08268" lon="-0.08996">
        <ele>755</ele>
        <time>2022-02-12T09:00:25Z</time>
      </trkpt>
      <trkpt lat="43.08268" lon="-0.08996">
        <ele>755</ele>
        <time>2022-02-12T09:00:26Z</time>
      </trkpt>
      <trkpt lat="43.08268" lon="-0.08996">
        <ele>755</ele>
        <time>2022-02-12T09:00:27Z</time>
      </trkpt>
      <trkpt lat="43.08268" lon="-0.08996">
        <ele>755.2</ele>
        <time>2022-02-12T09:00:28Z</time>
      </trkpt>
      <trkpt lat="43.08268" lon="-0.08996">
        <ele>755.2</ele>
        <time>2022-02-12T09:00:29Z</time>
      </trkpt>
      <trkpt lat="43.08268" lon="-0.08996">
        <ele>755.4</ele>
        <time>2022-02-12T09:00:30Z</time>
      </trkpt>
      <trkpt lat="43.08268" lon="-0.08996">
        <ele>755.4</ele>
        <time>2022-02-12T09:00:31Z</time>
      </trkpt>
      <trkpt lat="43.08268" lon="-0.08996">
        <ele>755.4</ele>
        <time>2022-02-12T09:00:32Z</time>
      </trkpt>
      <trkpt lat="43.08268" lon="-0.08996">
        <ele>755.4</ele>
        <time>2022-02-12T09:00:33Z</time>
      </trkpt>
      <trkpt lat="43.08268" lon="-0.08996">
        <ele>755.6</ele>
        <time>2022-02-12T09:00:34Z</time>
      </trkpt>
      <trkpt lat="43.08268" lon="-0.08996">
        <ele>755.6</ele>
        <time>2022-02-12T09:00:35Z</time>
      </trkpt>
      <trkpt lat="43.08268" lon="-0.08996">
        <ele>755.6</ele>
        <time>2022-02-12T09:00:36Z</time>
      </trkpt>
      <trkpt lat="43.08268" lon="-0.08996">
        <ele>755.6</ele>
        <time>2022-02-12T09:00:37Z</time>
      </trkpt>
      <trkpt lat="43.08268" lon="-0.08996">
        <ele>755.6</ele>
        <time>2022-02-12T09:00:38Z</time>
      </trkpt>
      <trkpt lat="43.08268" lon="-0.08996">
        <ele>755.6</ele>
        <time>2022-02-12T09:00:39Z</time>
      </trkpt>
      <trkpt lat="43.08268" lon="-0.08996">
        <ele>755.6</ele>
        <time>2022-02-12T09:00:40Z</time>
      </trkpt>
      <trkpt lat="43.08268" lon="-0.08996">
        <ele>755.6</ele>
        <time>2022-02-12T09:00:41Z</time>
      </trkpt>
      <trkpt lat="43.08268" lon="-0.08996">
        <ele>755.6</ele>
        <time>2022-02-12T09:00:42Z</time>
      </trkpt>
      <trkpt lat="43.08268" lon="-0.08996">
        <ele>755.6</ele>
        <time>2022-02-12T09:00:43Z</time>
      </trkpt>
      <trkpt lat="43.08268" lon="-0.08996">
        <ele>755.6</ele>
        <time>2022-02-12T09:00:44Z</time>
      </trkpt>
      <trkpt lat="43.08268" lon="-0.08996">
        <ele>755.6</ele>
        <time>2022-02-12T09:00:45Z</time>
      </trkpt>
      <trkpt lat="43.08268" lon="-0.08996">
        <ele>755.6</ele>
        <time>2022-02-12T09:00:46Z</time>
      </trkpt>
      <trkpt lat="43.08268" lon="-0.08996">
        <ele>755.4</ele>
        <time>2022-02-12T09:00:47Z</time>
      </trkpt>
      <trkpt lat="43.08268" lon="-0.08996">
        <ele>755.4</ele>
        <time>2022-02-12T09:00:48Z</time>
      </trkpt>
      <trkpt lat="43.08268" lon="-0.08996">
        <ele>755.4</ele>
        <time>2022-02-12T09:00:49Z</time>
      </trkpt>
      <trkpt lat="43.08268" lon="-0.08996">
        <ele>755.4</ele>
        <time>2022-02-12T09:00:50Z</time>
      </trkpt>
      <trkpt lat="43.08268" lon="-0.08996">
        <ele>755.4</ele>
        <time>2022-02-12T09:00:51Z</time>
      </trkpt>
      <trkpt lat="43.08268" lon="-0.08996">
        <ele>755.4</ele>
        <time>2022-02-12T09:00:52Z</time>
      </trkpt>
      <trkpt lat="43.08268" lon="-0.08996">
        <ele>755.4</ele>
        <time>2022-02-12T09:00:53Z</time>
      </trkpt>
      <trkpt lat="43.08268" lon="-0.08996">
        <ele>755.4</ele>
        <time>2022-02-12T09:00:54Z</time>
      </trkpt>
      <trkpt lat="43.08268" lon="-0.08996">
        <ele>755.4</ele>
        <time>2022-02-12T09:00:55Z</time>
      </trkpt>
      <trkpt lat="43.08268" lon="-0.08996">
        <ele>755.4</ele>
        <time>2022-02-12T09:00:56Z</time>
      </trkpt>
      <trkpt lat="43.08268" lon="-0.08996">
        <ele>755.4</ele>
        <time>2022-02-12T09:00:57Z</time>
      </trkpt>
      <trkpt lat="43.08268" lon="-0.08996">
        <ele>755.4</ele>
        <time>2022-02-12T09:00:58Z</time>
      </trkpt>
      <trkpt lat="43.08268" lon="-0.08996">
        <ele>755.4</ele>
        <time>2022-02-12T09:00:59Z</time>
      </trkpt>
      <trkpt lat="43.08268" lon="-0.08996">
        <ele>755.6</ele>
        <time>2022-02-12T09:01:00Z</time>
      </trkpt>
      <trkpt lat="43.08268" lon="-0.08996">
        <ele>755.6</ele>
        <time>2022-02-12T09:01:01Z</time>
      </trkpt>
      <trkpt lat="43.08268" lon="-0.08996">
        <ele>755.6</ele>
        <time>2022-02-12T09:01:02Z</time>
      </trkpt>
      <trkpt lat="43.08268" lon="-0.08996">
        <ele>755.6</ele>
        <time>2022-02-12T09:01:03Z</time>
      </trkpt>
      <trkpt lat="43.08267" lon="-0.08998">
        <ele>755.6</ele>
        <time>2022-02-12T09:01:04Z</time>
      </trkpt>
      <trkpt lat="43.08266" lon="-0.09001">
        <ele>755.6</ele>
        <time>2022-02-12T09:01:05Z</time>
      </trkpt>
      <trkpt lat="43.08264" lon="-0.09004">
        <ele>755.6</ele>
        <time>2022-02-12T09:01:06Z</time>
      </trkpt>
      <trkpt lat="43.08263" lon="-0.09008">
        <ele>755.6</ele>
        <time>2022-02-12T09:01:07Z</time>
      </trkpt>
      <trkpt lat="43.08261" lon="-0.09011">
        <ele>755.6</ele>
        <time>2022-02-12T09:01:08Z</time>
      </trkpt>
      <trkpt lat="43.08259" lon="-0.09015">
        <ele>755.6</ele>
        <time>2022-02-12T09:01:09Z</time>
      </trkpt>
      <trkpt lat="43.08256" lon="-0.09018">
        <ele>755.4</ele>
        <time>2022-02-12T09:01:10Z</time>
      </trkpt>
      <trkpt lat="43.08255" lon="-0.09021">
        <ele>755.4</ele>
        <time>2022-02-12T09:01:11Z</time>
      </trkpt>
      <trkpt lat="43.08254" lon="-0.09024">
        <ele>755.2</ele>
        <time>2022-02-12T09:01:12Z</time>
      </trkpt>
      <trkpt lat="43.08253" lon="-0.09026">
        <ele>755.2</ele>
        <time>2022-02-12T09:01:13Z</time>
      </trkpt>
      <trkpt lat="43.08251" lon="-0.09029">
        <ele>755.2</ele>
        <time>2022-02-12T09:01:14Z</time>
      </trkpt>
      <trkpt lat="43.0825" lon="-0.09032">
        <ele>755.2</ele>
        <time>2022-02-12T09:01:15Z</time>
      </trkpt>
      <trkpt lat="43.08247" lon="-0.09036">
        <ele>755.2</ele>
        <time>2022-02-12T09:01:16Z</time>
      </trkpt>
      <trkpt lat="43.08245" lon="-0.09038">
        <ele>755.2</ele>
        <time>2022-02-12T09:01:17Z</time>
      </trkpt>
      <trkpt lat="43.08244" lon="-0.09041">
        <ele>755.2</ele>
        <time>2022-02-12T09:01:18Z</time>
      </trkpt>
      <trkpt lat="43.08242" lon="-0.09043">
        <ele>755.2</ele>
        <time>2022-02-12T09:01:19Z</time>
      </trkpt>
      <trkpt lat="43.08241" lon="-0.09046">
        <ele>755</ele>
        <time>2022-02-12T09:01:20Z</time>
      </trkpt>
      <trkpt lat="43.0824" lon="-0.09049">
        <ele>755</ele>
        <time>2022-02-12T09:01:21Z</time>
      </trkpt>
      <trkpt lat="43.08238" lon="-0.09051">
        <ele>755</ele>
        <time>2022-02-12T09:01:22Z</time>
      </trkpt>
      <trkpt lat="43.08237" lon="-0.09054">
        <ele>755</ele>
        <time>2022-02-12T09:01:23Z</time>
      </trkpt>
      <trkpt lat="43.08235" lon="-0.09057">
        <ele>755</ele>
        <time>2022-02-12T09:01:24Z</time>
      </trkpt>
      <trkpt lat="43.08234" lon="-0.0906">
        <ele>754.8</ele>
        <time>2022-02-12T09:01:25Z</time>
      </trkpt>
      <trkpt lat="43.08233" lon="-0.09063">
        <ele>754.8</ele>
        <time>2022-02-12T09:01:26Z</time>
      </trkpt>
      <trkpt lat="43.08231" lon="-0.09067">
        <ele>754.8</ele>
        <time>2022-02-12T09:01:27Z</time>
      </trkpt>
      <trkpt lat="43.0823" lon="-0.09071">
        <ele>754.8</ele>
        <time>2022-02-12T09:01:28Z</time>
      </trkpt>
      <trkpt lat="43.08228" lon="-0.09074">
        <ele>754.8</ele>
        <time>2022-02-12T09:01:29Z</time>
      </trkpt>
      <trkpt lat="43.08224" lon="-0.09077">
        <ele>754.8</ele>
        <time>2022-02-12T09:01:30Z</time>
      </trkpt>
      <trkpt lat="43.0822" lon="-0.09081">
        <ele>754.6</ele>
        <time>2022-02-12T09:01:31Z</time>
      </trkpt>
      <trkpt lat="43.08218" lon="-0.09083">
        <ele>754.4</ele>
        <time>2022-02-12T09:01:32Z</time>
      </trkpt>
      <trkpt lat="43.08216" lon="-0.09085">
        <ele>754.2</ele>
        <time>2022-02-12T09:01:33Z</time>
      </trkpt>
      <trkpt lat="43.08216" lon="-0.09085">
        <ele>754.2</ele>
        <time>2022-02-12T09:01:34Z</time>
      </trkpt>
      <trkpt lat="43.08215" lon="-0.09087">
        <ele>754</ele>
        <time>2022-02-12T09:01:35Z</time>
      </trkpt>
      <trkpt lat="43.08215" lon="-0.09087">
        <ele>754</ele>
        <time>2022-02-12T09:01:36Z</time>
      </trkpt>
      <trkpt lat="43.08213" lon="-0.09086">
        <ele>753.8</ele>
        <time>2022-02-12T09:01:37Z</time>
      </trkpt>
      <trkpt lat="43.08212" lon="-0.09086">
        <ele>753.8</ele>
        <time>2022-02-12T09:01:38Z</time>
      </trkpt>
      <trkpt lat="43.0821" lon="-0.09086">
        <ele>753.6</ele>
        <time>2022-02-12T09:01:39Z</time>
      </trkpt>
      <trkpt lat="43.08207" lon="-0.09085">
        <ele>753.2</ele>
        <time>2022-02-12T09:01:40Z</time>
      </trkpt>
      <trkpt lat="43.08205" lon="-0.09086">
        <ele>753</ele>
        <time>2022-02-12T09:01:41Z</time>
      </trkpt>
      <trkpt lat="43.08203" lon="-0.09088">
        <ele>752.8</ele>
        <time>2022-02-12T09:01:42Z</time>
      </trkpt>
      <trkpt lat="43.08203" lon="-0.0909">
        <ele>752.8</ele>
        <time>2022-02-12T09:01:43Z</time>
      </trkpt>
      <trkpt lat="43.08203" lon="-0.09092">
        <ele>752.2</ele>
        <time>2022-02-12T09:01:44Z</time>
      </trkpt>
      <trkpt lat="43.08205" lon="-0.09094">
        <ele>752</ele>
        <time>2022-02-12T09:01:45Z</time>
      </trkpt>
      <trkpt lat="43.08205" lon="-0.09095">
        <ele>751.6</ele>
        <time>2022-02-12T09:01:46Z</time>
      </trkpt>
      <trkpt lat="43.08205" lon="-0.09097">
        <ele>751.4</ele>
        <time>2022-02-12T09:01:47Z</time>
      </trkpt>
      <trkpt lat="43.08204" lon="-0.09098">
        <ele>751</ele>
        <time>2022-02-12T09:01:48Z</time>
      </trkpt>
      <trkpt lat="43.08203" lon="-0.091">
        <ele>750.8</ele>
        <time>2022-02-12T09:01:49Z</time>
      </trkpt>
      <trkpt lat="43.08201" lon="-0.09102">
        <ele>750.8</ele>
        <time>2022-02-12T09:01:50Z</time>
      </trkpt>
      <trkpt lat="43.082" lon="-0.09103">
        <ele>750.8</ele>
        <time>2022-02-12T09:01:51Z</time>
      </trkpt>
      <trkpt lat="43.08198" lon="-0.09104">
        <ele>750.8</ele>
        <time>2022-02-12T09:01:52Z</time>
      </trkpt>
      <trkpt lat="43.08197" lon="-0.09104">
        <ele>750.8</ele>
        <time>2022-02-12T09:01:53Z</time>
      </trkpt>
      <trkpt lat="43.08196" lon="-0.09104">
        <ele>750.8</ele>
        <time>2022-02-12T09:01:54Z</time>
      </trkpt>
      <trkpt lat="43.08195" lon="-0.09104">
        <ele>750.8</ele>
        <time>2022-02-12T09:01:55Z</time>
      </trkpt>
      <trkpt lat="43.08194" lon="-0.09103">
        <ele>751</ele>
        <time>2022-02-12T09:01:56Z</time>
      </trkpt>
      <trkpt lat="43.08192" lon="-0.09103">
        <ele>751</ele>
        <time>2022-02-12T09:01:57Z</time>
      </trkpt>
      <trkpt lat="43.0819" lon="-0.09103">
        <ele>751.2</ele>
        <time>2022-02-12T09:01:58Z</time>
      </trkpt>
      <trkpt lat="43.08189" lon="-0.09103">
        <ele>751.4</ele>
        <time>2022-02-12T09:01:59Z</time>
      </trkpt>
      <trkpt lat="43.08188" lon="-0.09104">
        <ele>751.4</ele>
        <time>2022-02-12T09:02:00Z</time>
      </trkpt>
      <trkpt lat="43.08186" lon="-0.09105">
        <ele>751.6</ele>
        <time>2022-02-12T09:02:01Z</time>
      </trkpt>
      <trkpt lat="43.08185" lon="-0.09105">
        <ele>751.8</ele>
        <time>2022-02-12T09:02:02Z</time>
      </trkpt>
      <trkpt lat="43.08183" lon="-0.09105">
        <ele>752</ele>
        <time>2022-02-12T09:02:03Z</time>
      </trkpt>
      <trkpt lat="43.08181" lon="-0.09106">
        <ele>752.2</ele>
        <time>2022-02-12T09:02:04Z</time>
      </trkpt>
      <trkpt lat="43.08179" lon="-0.09107">
        <ele>752.4</ele>
        <time>2022-02-12T09:02:05Z</time>
      </trkpt>
      <trkpt lat="43.08178" lon="-0.09107">
        <ele>752.4</ele>
        <time>2022-02-12T09:02:06Z</time>
      </trkpt>
      <trkpt lat="43.08176" lon="-0.09108">
        <ele>752.6</ele>
        <time>2022-02-12T09:02:07Z</time>
      </trkpt>
      <trkpt lat="43.08174" lon="-0.09109">
        <ele>752.6</ele>
        <time>2022-02-12T09:02:08Z</time>
      </trkpt>
      <trkpt lat="43.08173" lon="-0.09111">
        <ele>752.6</ele>
        <time>2022-02-12T09:02:09Z</time>
      </trkpt>
      <trkpt lat="43.08172" lon="-0.09113">
        <ele>752.6</ele>
        <time>2022-02-12T09:02:10Z</time>
      </trkpt>
      <trkpt lat="43.0817" lon="-0.09115">
        <ele>752.8</ele>
        <time>2022-02-12T09:02:11Z</time>
      </trkpt>
      <trkpt lat="43.08169" lon="-0.09116">
        <ele>752.8</ele>
        <time>2022-02-12T09:02:12Z</time>
      </trkpt>
      <trkpt lat="43.08168" lon="-0.09118">
        <ele>753</ele>
        <time>2022-02-12T09:02:13Z</time>
      </trkpt>
      <trkpt lat="43.08166" lon="-0.09119">
        <ele>753</ele>
        <time>2022-02-12T09:02:14Z</time>
      </trkpt>
      <trkpt lat="43.08166" lon="-0.0912">
        <ele>753</ele>
        <time>2022-02-12T09:02:15Z</time>
      </trkpt>
      <trkpt lat="43.08164" lon="-0.09121">
        <ele>753.2</ele>
        <time>2022-02-12T09:02:16Z</time>
      </trkpt>
      <trkpt lat="43.08162" lon="-0.09123">
        <ele>753.4</ele>
        <time>2022-02-12T09:02:17Z</time>
      </trkpt>
      <trkpt lat="43.0816" lon="-0.09126">
        <ele>753.4</ele>
        <time>2022-02-12T09:02:18Z</time>
      </trkpt>
      <trkpt lat="43.08158" lon="-0.09128">
        <ele>753.6</ele>
        <time>2022-02-12T09:02:19Z</time>
      </trkpt>
      <trkpt lat="43.08157" lon="-0.09131">
        <ele>753.8</ele>
        <time>2022-02-12T09:02:20Z</time>
      </trkpt>
      <trkpt lat="43.08155" lon="-0.09133">
        <ele>754</ele>
        <time>2022-02-12T09:02:21Z</time>
      </trkpt>
      <trkpt lat="43.08152" lon="-0.09136">
        <ele>754</ele>
        <time>2022-02-12T09:02:22Z</time>
      </trkpt>
      <trkpt lat="43.08151" lon="-0.09139">
        <ele>754</ele>
        <time>2022-02-12T09:02:23Z</time>
      </trkpt>
      <trkpt lat="43.08149" lon="-0.09141">
        <ele>754.2</ele>
        <time>2022-02-12T09:02:24Z</time>
      </trkpt>
      <trkpt lat="43.08147" lon="-0.09144">
        <ele>754.2</ele>
        <time>2022-02-12T09:02:25Z</time>
      </trkpt>
      <trkpt lat="43.08145" lon="-0.09146">
        <ele>754.2</ele>
        <time>2022-02-12T09:02:26Z</time>
      </trkpt>
      <trkpt lat="43.08143" lon="-0.09148">
        <ele>754.4</ele>
        <time>2022-02-12T09:02:27Z</time>
      </trkpt>
      <trkpt lat="43.08142" lon="-0.0915">
        <ele>754.4</ele>
        <time>2022-02-12T09:02:28Z</time>
      </trkpt>
      <trkpt lat="43.08141" lon="-0.09153">
        <ele>754.4</ele>
        <time>2022-02-12T09:02:29Z</time>
      </trkpt>
      <trkpt lat="43.0814" lon="-0.09156">
        <ele>754.6</ele>
        <time>2022-02-12T09:02:30Z</time>
      </trkpt>
      <trkpt lat="43.08137" lon="-0.09159">
        <ele>754.6</ele>
        <time>2022-02-12T09:02:31Z</time>
      </trkpt>
      <trkpt lat="43.08136" lon="-0.09161">
        <ele>754.8</ele>
        <time>2022-02-12T09:02:32Z</time>
      </trkpt>
      <trkpt lat="43.08135" lon="-0.09163">
        <ele>754.8</ele>
        <time>2022-02-12T09:02:33Z</time>
      </trkpt>
      <trkpt lat="43.08134" lon="-0.09166">
        <ele>755</ele>
        <time>2022-02-12T09:02:34Z</time>
      </trkpt>
      <trkpt lat="43.08132" lon="-0.09171">
        <ele>755</ele>
        <time>2022-02-12T09:02:35Z</time>
      </trkpt>
      <trkpt lat="43.0813" lon="-0.09175">
        <ele>755.2</ele>
        <time>2022-02-12T09:02:36Z</time>
      </trkpt>
      <trkpt lat="43.08129" lon="-0.09177">
        <ele>755.2</ele>
        <time>2022-02-12T09:02:37Z</time>
      </trkpt>
      <trkpt lat="43.08126" lon="-0.09178">
        <ele>755.4</ele>
        <time>2022-02-12T09:02:38Z</time>
      </trkpt>
      <trkpt lat="43.08125" lon="-0.09179">
        <ele>755.6</ele>
        <time>2022-02-12T09:02:39Z</time>
      </trkpt>
      <trkpt lat="43.08124" lon="-0.0918">
        <ele>755.6</ele>
        <time>2022-02-12T09:02:40Z</time>
      </trkpt>
      <trkpt lat="43.08123" lon="-0.09182">
        <ele>755.6</ele>
        <time>2022-02-12T09:02:41Z</time>
      </trkpt>
      <trkpt lat="43.08122" lon="-0.09185">
        <ele>755.8</ele>
        <time>2022-02-12T09:02:42Z</time>
      </trkpt>
      <trkpt lat="43.08121" lon="-0.09187">
        <ele>756.2</ele>
        <time>2022-02-12T09:02:43Z</time>
      </trkpt>
      <trkpt lat="43.0812" lon="-0.0919">
        <ele>756.2</ele>
        <time>2022-02-12T09:02:44Z</time>
      </trkpt>
      <trkpt lat="43.0812" lon="-0.09192">
        <ele>756.4</ele>
        <time>2022-02-12T09:02:45Z</time>
      </trkpt>
      <trkpt lat="43.08119" lon="-0.09194">
        <ele>756.4</ele>
        <time>2022-02-12T09:02:46Z</time>
      </trkpt>
      <trkpt lat="43.08119" lon="-0.09196">
        <ele>756.8</ele>
        <time>2022-02-12T09:02:47Z</time>
      </trkpt>
      <trkpt lat="43.08118" lon="-0.09198">
        <ele>756.8</ele>
        <time>2022-02-12T09:02:48Z</time>
      </trkpt>
      <trkpt lat="43.08117" lon="-0.092">
        <ele>757</ele>
        <time>2022-02-12T09:02:49Z</time>
      </trkpt>
      <trkpt lat="43.08117" lon="-0.09203">
        <ele>757</ele>
        <time>2022-02-12T09:02:50Z</time>
      </trkpt>
      <trkpt lat="43.08116" lon="-0.09205">
        <ele>757.4</ele>
        <time>2022-02-12T09:02:51Z</time>
      </trkpt>
      <trkpt lat="43.08115" lon="-0.09207">
        <ele>757.6</ele>
        <time>2022-02-12T09:02:52Z</time>
      </trkpt>
      <trkpt lat="43.08113" lon="-0.09209">
        <ele>757.6</ele>
        <time>2022-02-12T09:02:53Z</time>
      </trkpt>
      <trkpt lat="43.08112" lon="-0.09211">
        <ele>757.8</ele>
        <time>2022-02-12T09:02:54Z</time>
      </trkpt>
      <trkpt lat="43.08111" lon="-0.09212">
        <ele>757.8</ele>
        <time>2022-02-12T09:02:55Z</time>
      </trkpt>
      <trkpt lat="43.08109" lon="-0.09214">
        <ele>758</ele>
        <time>2022-02-12T09:02:56Z</time>
      </trkpt>
      <trkpt lat="43.08108" lon="-0.09216">
        <ele>758.4</ele>
        <time>2022-02-12T09:02:57Z</time>
      </trkpt>
      <trkpt lat="43.08107" lon="-0.09217">
        <ele>758.6</ele>
        <time>2022-02-12T09:02:58Z</time>
      </trkpt>
      <trkpt lat="43.08106" lon="-0.09219">
        <ele>758.8</ele>
        <time>2022-02-12T09:02:59Z</time>
      </trkpt>
      <trkpt lat="43.08104" lon="-0.09221">
        <ele>759.2</ele>
        <time>2022-02-12T09:03:00Z</time>
      </trkpt>
      <trkpt lat="43.08103" lon="-0.09222">
        <ele>759.2</ele>
        <time>2022-02-12T09:03:01Z</time>
      </trkpt>
      <trkpt lat="43.08102" lon="-0.09224">
        <ele>759.4</ele>
        <time>2022-02-12T09:03:02Z</time>
      </trkpt>
      <trkpt lat="43.081" lon="-0.09226">
        <ele>759.6</ele>
        <time>2022-02-12T09:03:03Z</time>
      </trkpt>
      <trkpt lat="43.08099" lon="-0.09228">
        <ele>759.8</ele>
        <time>2022-02-12T09:03:04Z</time>
      </trkpt>
      <trkpt lat="43.08097" lon="-0.0923">
        <ele>759.8</ele>
        <time>2022-02-12T09:03:05Z</time>
      </trkpt>
      <trkpt lat="43.08096" lon="-0.09232">
        <ele>759.8</ele>
        <time>2022-02-12T09:03:06Z</time>
      </trkpt>
      <trkpt lat="43.08095" lon="-0.09235">
        <ele>760</ele>
        <time>2022-02-12T09:03:07Z</time>
      </trkpt>
      <trkpt lat="43.08093" lon="-0.09237">
        <ele>760</ele>
        <time>2022-02-12T09:03:08Z</time>
      </trkpt>
      <trkpt lat="43.08091" lon="-0.0924">
        <ele>760.2</ele>
        <time>2022-02-12T09:03:09Z</time>
      </trkpt>
      <trkpt lat="43.0809" lon="-0.09242">
        <ele>760.4</ele>
        <time>2022-02-12T09:03:10Z</time>
      </trkpt>
      <trkpt lat="43.08089" lon="-0.09244">
        <ele>760.6</ele>
        <time>2022-02-12T09:03:11Z</time>
      </trkpt>
      <trkpt lat="43.08087" lon="-0.09246">
        <ele>760.8</ele>
        <time>2022-02-12T09:03:12Z</time>
      </trkpt>
      <trkpt lat="43.08086" lon="-0.09249">
        <ele>760.8</ele>
        <time>2022-02-12T09:03:13Z</time>
      </trkpt>
      <trkpt lat="43.08085" lon="-0.09251">
        <ele>761</ele>
        <time>2022-02-12T09:03:14Z</time>
      </trkpt>
      <trkpt lat="43.08084" lon="-0.09254">
        <ele>761.2</ele>
        <time>2022-02-12T09:03:15Z</time>
      </trkpt>
      <trkpt lat="43.08083" lon="-0.09256">
        <ele>761.2</ele>
        <time>2022-02-12T09:03:16Z</time>
      </trkpt>
      <trkpt lat="43.08082" lon="-0.09258">
        <ele>761.4</ele>
        <time>2022-02-12T09:03:17Z</time>
      </trkpt>
      <trkpt lat="43.0808" lon="-0.0926">
        <ele>761.4</ele>
        <time>2022-02-12T09:03:18Z</time>
      </trkpt>
      <trkpt lat="43.08079" lon="-0.09261">
        <ele>761.4</ele>
        <time>2022-02-12T09:03:19Z</time>
      </trkpt>
      <trkpt lat="43.08077" lon="-0.09262">
        <ele>761.4</ele>
        <time>2022-02-12T09:03:20Z</time>
      </trkpt>
      <trkpt lat="43.08076" lon="-0.09262">
        <ele>761.6</ele>
        <time>2022-02-12T09:03:21Z</time>
      </trkpt>
      <trkpt lat="43.08075" lon="-0.09263">
        <ele>761.6</ele>
        <time>2022-02-12T09:03:22Z</time>
      </trkpt>
      <trkpt lat="43.08074" lon="-0.09263">
        <ele>761.8</ele>
        <time>2022-02-12T09:03:23Z</time>
      </trkpt>
      <trkpt lat="43.08074" lon="-0.09263">
        <ele>761.8</ele>
        <time>2022-02-12T09:03:24Z</time>
      </trkpt>
      <trkpt lat="43.08074" lon="-0.09263">
        <ele>762</ele>
        <time>2022-02-12T09:03:25Z</time>
      </trkpt>
      <trkpt lat="43.08073" lon="-0.09264">
        <ele>762</ele>
        <time>2022-02-12T09:03:26Z</time>
      </trkpt>
      <trkpt lat="43.08072" lon="-0.09264">
        <ele>762</ele>
        <time>2022-02-12T09:03:27Z</time>
      </trkpt>
      <trkpt lat="43.08072" lon="-0.09264">
        <ele>762.2</ele>
        <time>2022-02-12T09:03:28Z</time>
      </trkpt>
      <trkpt lat="43.08072" lon="-0.09263">
        <ele>762.2</ele>
        <time>2022-02-12T09:03:29Z</time>
      </trkpt>
      <trkpt lat="43.08071" lon="-0.09263">
        <ele>762.2</ele>
        <time>2022-02-12T09:03:30Z</time>
      </trkpt>
      <trkpt lat="43.08071" lon="-0.09263">
        <ele>762.4</ele>
        <time>2022-02-12T09:03:31Z</time>
      </trkpt>
      <trkpt lat="43.0807" lon="-0.09263">
        <ele>762.4</ele>
        <time>2022-02-12T09:03:32Z</time>
      </trkpt>
      <trkpt lat="43.08069" lon="-0.09263">
        <ele>762.6</ele>
        <time>2022-02-12T09:03:33Z</time>
      </trkpt>
      <trkpt lat="43.08069" lon="-0.09263">
        <ele>762.6</ele>
        <time>2022-02-12T09:03:34Z</time>
      </trkpt>
      <trkpt lat="43.08068" lon="-0.09264">
        <ele>762.6</ele>
        <time>2022-02-12T09:03:35Z</time>
      </trkpt>
      <trkpt lat="43.08068" lon="-0.09265">
        <ele>762.8</ele>
        <time>2022-02-12T09:03:36Z</time>
      </trkpt>
      <trkpt lat="43.08067" lon="-0.09266">
        <ele>762.8</ele>
        <time>2022-02-12T09:03:37Z</time>
      </trkpt>
      <trkpt lat="43.08066" lon="-0.09267">
        <ele>762.8</ele>
        <time>2022-02-12T09:03:38Z</time>
      </trkpt>
      <trkpt lat="43.08065" lon="-0.09267">
        <ele>762.8</ele>
        <time>2022-02-12T09:03:39Z</time>
      </trkpt>
      <trkpt lat="43.08064" lon="-0.09268">
        <ele>762.8</ele>
        <time>2022-02-12T09:03:40Z</time>
      </trkpt>
      <trkpt lat="43.08062" lon="-0.09268">
        <ele>762.8</ele>
        <time>2022-02-12T09:03:41Z</time>
      </trkpt>
      <trkpt lat="43.08061" lon="-0.09269">
        <ele>763</ele>
        <time>2022-02-12T09:03:42Z</time>
      </trkpt>
      <trkpt lat="43.08059" lon="-0.0927">
        <ele>763</ele>
        <time>2022-02-12T09:03:43Z</time>
      </trkpt>
      <trkpt lat="43.08057" lon="-0.09271">
        <ele>763</ele>
        <time>2022-02-12T09:03:44Z</time>
      </trkpt>
      <trkpt lat="43.08056" lon="-0.09272">
        <ele>763.2</ele>
        <time>2022-02-12T09:03:45Z</time>
      </trkpt>
      <trkpt lat="43.08055" lon="-0.09273">
        <ele>763.2</ele>
        <time>2022-02-12T09:03:46Z</time>
      </trkpt>
      <trkpt lat="43.08055" lon="-0.09273">
        <ele>763.2</ele>
        <time>2022-02-12T09:03:47Z</time>
      </trkpt>
      <trkpt lat="43.08053" lon="-0.09274">
        <ele>763.2</ele>
        <time>2022-02-12T09:03:48Z</time>
      </trkpt>
      <trkpt lat="43.08052" lon="-0.09275">
        <ele>763.2</ele>
        <time>2022-02-12T09:03:49Z</time>
      </trkpt>
      <trkpt lat="43.08052" lon="-0.09276">
        <ele>763.4</ele>
        <time>2022-02-12T09:03:50Z</time>
      </trkpt>
      <trkpt lat="43.08052" lon="-0.09276">
        <ele>763.4</ele>
        <time>2022-02-12T09:03:51Z</time>
      </trkpt>
      <trkpt lat="43.08052" lon="-0.09276">
        <ele>763.4</ele>
        <time>2022-02-12T09:03:52Z</time>
      </trkpt>
      <trkpt lat="43.08052" lon="-0.09276">
        <ele>763.4</ele>
        <time>2022-02-12T09:03:53Z</time>
      </trkpt>
      <trkpt lat="43.08052" lon="-0.09276">
        <ele>763.2</ele>
        <time>2022-02-12T09:03:54Z</time>
      </trkpt>
      <trkpt lat="43.08052" lon="-0.09276">
        <ele>763.2</ele>
        <time>2022-02-12T09:03:55Z</time>
      </trkpt>
      <trkpt lat="43.08052" lon="-0.09276">
        <ele>763</ele>
        <time>2022-02-12T09:03:56Z</time>
      </trkpt>
      <trkpt lat="43.08052" lon="-0.09276">
        <ele>763</ele>
        <time>2022-02-12T09:03:57Z</time>
      </trkpt>
      <trkpt lat="43.08052" lon="-0.09276">
        <ele>763</ele>
        <time>2022-02-12T09:03:58Z</time>
      </trkpt>
      <trkpt lat="43.08051" lon="-0.09276">
        <ele>763</ele>
        <time>2022-02-12T09:03:59Z</time>
      </trkpt>
      <trkpt lat="43.0805" lon="-0.09276">
        <ele>763</ele>
        <time>2022-02-12T09:04:00Z</time>
      </trkpt>
      <trkpt lat="43.08049" lon="-0.09277">
        <ele>762.8</ele>
        <time>2022-02-12T09:04:01Z</time>
      </trkpt>
      <trkpt lat="43.08047" lon="-0.09278">
        <ele>762.8</ele>
        <time>2022-02-12T09:04:02Z</time>
      </trkpt>
      <trkpt lat="43.08046" lon="-0.09279">
        <ele>762.8</ele>
        <time>2022-02-12T09:04:03Z</time>
      </trkpt>
      <trkpt lat="43.08045" lon="-0.0928">
        <ele>762.6</ele>
        <time>2022-02-12T09:04:04Z</time>
      </trkpt>
      <trkpt lat="43.08043" lon="-0.09282">
        <ele>762.6</ele>
        <time>2022-02-12T09:04:05Z</time>
      </trkpt>
      <trkpt lat="43.08042" lon="-0.09282">
        <ele>762.6</ele>
        <time>2022-02-12T09:04:06Z</time>
      </trkpt>
      <trkpt lat="43.08041" lon="-0.09284">
        <ele>762.6</ele>
        <time>2022-02-12T09:04:07Z</time>
      </trkpt>
      <trkpt lat="43.08039" lon="-0.09285">
        <ele>762.4</ele>
        <time>2022-02-12T09:04:08Z</time>
      </trkpt>
      <trkpt lat="43.08036" lon="-0.09286">
        <ele>762.4</ele>
        <time>2022-02-12T09:04:09Z</time>
      </trkpt>
      <trkpt lat="43.08034" lon="-0.09286">
        <ele>762.4</ele>
        <time>2022-02-12T09:04:10Z</time>
      </trkpt>
      <trkpt lat="43.08032" lon="-0.09287">
        <ele>762.4</ele>
        <time>2022-02-12T09:04:11Z</time>
      </trkpt>
      <trkpt lat="43.0803" lon="-0.09287">
        <ele>762.4</ele>
        <time>2022-02-12T09:04:12Z</time>
      </trkpt>
      <trkpt lat="43.08028" lon="-0.09287">
        <ele>762.4</ele>
        <time>2022-02-12T09:04:13Z</time>
      </trkpt>
      <trkpt lat="43.08025" lon="-0.09287">
        <ele>762.6</ele>
        <time>2022-02-12T09:04:14Z</time>
      </trkpt>
      <trkpt lat="43.08022" lon="-0.09287">
        <ele>762.6</ele>
        <time>2022-02-12T09:04:15Z</time>
      </trkpt>
      <trkpt lat="43.08021" lon="-0.09287">
        <ele>762.8</ele>
        <time>2022-02-12T09:04:16Z</time>
      </trkpt>
      <trkpt lat="43.0802" lon="-0.09288">
        <ele>762.8</ele>
        <time>2022-02-12T09:04:17Z</time>
      </trkpt>
      <trkpt lat="43.08018" lon="-0.09289">
        <ele>762.8</ele>
        <time>2022-02-12T09:04:18Z</time>
      </trkpt>
      <trkpt lat="43.08016" lon="-0.09289">
        <ele>763</ele>
        <time>2022-02-12T09:04:19Z</time>
      </trkpt>
      <trkpt lat="43.08014" lon="-0.09291">
        <ele>763.2</ele>
        <time>2022-02-12T09:04:20Z</time>
      </trkpt>
      <trkpt lat="43.08013" lon="-0.09291">
        <ele>763.2</ele>
        <time>2022-02-12T09:04:21Z</time>
      </trkpt>
      <trkpt lat="43.08012" lon="-0.09291">
        <ele>763.4</ele>
        <time>2022-02-12T09:04:22Z</time>
      </trkpt>
      <trkpt lat="43.08009" lon="-0.0929">
        <ele>763.4</ele>
        <time>2022-02-12T09:04:23Z</time>
      </trkpt>
      <trkpt lat="43.08008" lon="-0.09289">
        <ele>763.6</ele>
        <time>2022-02-12T09:04:24Z</time>
      </trkpt>
      <trkpt lat="43.08006" lon="-0.09288">
        <ele>763.6</ele>
        <time>2022-02-12T09:04:25Z</time>
      </trkpt>
      <trkpt lat="43.08004" lon="-0.09288">
        <ele>763.6</ele>
        <time>2022-02-12T09:04:26Z</time>
      </trkpt>
      <trkpt lat="43.08001" lon="-0.09288">
        <ele>763.6</ele>
        <time>2022-02-12T09:04:27Z</time>
      </trkpt>
      <trkpt lat="43.07998" lon="-0.09288">
        <ele>763.8</ele>
        <time>2022-02-12T09:04:28Z</time>
      </trkpt>
      <trkpt lat="43.07995" lon="-0.09289">
        <ele>763.8</ele>
        <time>2022-02-12T09:04:29Z</time>
      </trkpt>
      <trkpt lat="43.07993" lon="-0.09289">
        <ele>763.8</ele>
        <time>2022-02-12T09:04:30Z</time>
      </trkpt>
      <trkpt lat="43.0799" lon="-0.0929">
        <ele>763.8</ele>
        <time>2022-02-12T09:04:31Z</time>
      </trkpt>
      <trkpt lat="43.07988" lon="-0.09291">
        <ele>763.8</ele>
        <time>2022-02-12T09:04:32Z</time>
      </trkpt>
      <trkpt lat="43.07987" lon="-0.09291">
        <ele>763.8</ele>
        <time>2022-02-12T09:04:33Z</time>
      </trkpt>
      <trkpt lat="43.07983" lon="-0.09292">
        <ele>763.8</ele>
        <time>2022-02-12T09:04:34Z</time>
      </trkpt>
      <trkpt lat="43.0798" lon="-0.09292">
        <ele>763.6</ele>
        <time>2022-02-12T09:04:35Z</time>
      </trkpt>
      <trkpt lat="43.07977" lon="-0.09292">
        <ele>763.6</ele>
        <time>2022-02-12T09:04:36Z</time>
      </trkpt>
      <trkpt lat="43.07976" lon="-0.09292">
        <ele>763.6</ele>
        <time>2022-02-12T09:04:37Z</time>
      </trkpt>
      <trkpt lat="43.07973" lon="-0.09293">
        <ele>763.6</ele>
        <time>2022-02-12T09:04:38Z</time>
      </trkpt>
      <trkpt lat="43.07972" lon="-0.09293">
        <ele>763.4</ele>
        <time>2022-02-12T09:04:39Z</time>
      </trkpt>
      <trkpt lat="43.07969" lon="-0.09293">
        <ele>763.4</ele>
        <time>2022-02-12T09:04:40Z</time>
      </trkpt>
      <trkpt lat="43.07966" lon="-0.09292">
        <ele>763.4</ele>
        <time>2022-02-12T09:04:41Z</time>
      </trkpt>
      <trkpt lat="43.07964" lon="-0.09292">
        <ele>763.4</ele>
        <time>2022-02-12T09:04:42Z</time>
      </trkpt>
      <trkpt lat="43.07962" lon="-0.09293">
        <ele>763.4</ele>
        <time>2022-02-12T09:04:43Z</time>
      </trkpt>
      <trkpt lat="43.07959" lon="-0.09292">
        <ele>763.4</ele>
        <time>2022-02-12T09:04:44Z</time>
      </trkpt>
      <trkpt lat="43.07957" lon="-0.09293">
        <ele>763.4</ele>
        <time>2022-02-12T09:04:45Z</time>
      </trkpt>
      <trkpt lat="43.07955" lon="-0.09294">
        <ele>763.4</ele>
        <time>2022-02-12T09:04:46Z</time>
      </trkpt>
      <trkpt lat="43.07953" lon="-0.09294">
        <ele>763.4</ele>
        <time>2022-02-12T09:04:47Z</time>
      </trkpt>
      <trkpt lat="43.07952" lon="-0.09294">
        <ele>763.4</ele>
        <time>2022-02-12T09:04:48Z</time>
      </trkpt>
      <trkpt lat="43.07951" lon="-0.09295">
        <ele>763.4</ele>
        <time>2022-02-12T09:04:49Z</time>
      </trkpt>
      <trkpt lat="43.07949" lon="-0.09295">
        <ele>763.4</ele>
        <time>2022-02-12T09:04:50Z</time>
      </trkpt>
      <trkpt lat="43.07947" lon="-0.09295">
        <ele>763.8</ele>
        <time>2022-02-12T09:04:51Z</time>
      </trkpt>
      <trkpt lat="43.07945" lon="-0.09296">
        <ele>763.8</ele>
        <time>2022-02-12T09:04:52Z</time>
      </trkpt>
      <trkpt lat="43.07943" lon="-0.09297">
        <ele>764</ele>
        <time>2022-02-12T09:04:53Z</time>
      </trkpt>
      <trkpt lat="43.07941" lon="-0.09297">
        <ele>764</ele>
        <time>2022-02-12T09:04:54Z</time>
      </trkpt>
      <trkpt lat="43.07939" lon="-0.09297">
        <ele>764.2</ele>
        <time>2022-02-12T09:04:55Z</time>
      </trkpt>
      <trkpt lat="43.07938" lon="-0.09297">
        <ele>764.2</ele>
        <time>2022-02-12T09:04:56Z</time>
      </trkpt>
      <trkpt lat="43.07937" lon="-0.09298">
        <ele>764.6</ele>
        <time>2022-02-12T09:04:57Z</time>
      </trkpt>
      <trkpt lat="43.07936" lon="-0.09298">
        <ele>764.8</ele>
        <time>2022-02-12T09:04:58Z</time>
      </trkpt>
      <trkpt lat="43.07934" lon="-0.09298">
        <ele>764.6</ele>
        <time>2022-02-12T09:04:59Z</time>
      </trkpt>
      <trkpt lat="43.07933" lon="-0.09298">
        <ele>765</ele>
        <time>2022-02-12T09:05:00Z</time>
      </trkpt>
      <trkpt lat="43.07932" lon="-0.09298">
        <ele>765</ele>
        <time>2022-02-12T09:05:01Z</time>
      </trkpt>
      <trkpt lat="43.0793" lon="-0.09297">
        <ele>765.2</ele>
        <time>2022-02-12T09:05:02Z</time>
      </trkpt>
      <trkpt lat="43.07928" lon="-0.09298">
        <ele>765.2</ele>
        <time>2022-02-12T09:05:03Z</time>
      </trkpt>
      <trkpt lat="43.07926" lon="-0.09298">
        <ele>765.4</ele>
        <time>2022-02-12T09:05:04Z</time>
      </trkpt>
      <trkpt lat="43.07923" lon="-0.09297">
        <ele>765.4</ele>
        <time>2022-02-12T09:05:05Z</time>
      </trkpt>
      <trkpt lat="43.07922" lon="-0.09297">
        <ele>765.4</ele>
        <time>2022-02-12T09:05:06Z</time>
      </trkpt>
      <trkpt lat="43.0792" lon="-0.09297">
        <ele>765.4</ele>
        <time>2022-02-12T09:05:07Z</time>
      </trkpt>
      <trkpt lat="43.07919" lon="-0.09296">
        <ele>765.4</ele>
        <time>2022-02-12T09:05:08Z</time>
      </trkpt>
      <trkpt lat="43.07918" lon="-0.09295">
        <ele>765.4</ele>
        <time>2022-02-12T09:05:09Z</time>
      </trkpt>
      <trkpt lat="43.07914" lon="-0.09295">
        <ele>765.4</ele>
        <time>2022-02-12T09:05:10Z</time>
      </trkpt>
      <trkpt lat="43.0791" lon="-0.09294">
        <ele>765.4</ele>
        <time>2022-02-12T09:05:11Z</time>
      </trkpt>
      <trkpt lat="43.07907" lon="-0.09293">
        <ele>765.4</ele>
        <time>2022-02-12T09:05:12Z</time>
      </trkpt>
      <trkpt lat="43.07906" lon="-0.09293">
        <ele>765.4</ele>
        <time>2022-02-12T09:05:13Z</time>
      </trkpt>
      <trkpt lat="43.07905" lon="-0.09292">
        <ele>765.6</ele>
        <time>2022-02-12T09:05:14Z</time>
      </trkpt>
      <trkpt lat="43.07904" lon="-0.09293">
        <ele>765.6</ele>
        <time>2022-02-12T09:05:15Z</time>
      </trkpt>
      <trkpt lat="43.07903" lon="-0.09292">
        <ele>765.6</ele>
        <time>2022-02-12T09:05:16Z</time>
      </trkpt>
      <trkpt lat="43.07902" lon="-0.09293">
        <ele>765.8</ele>
        <time>2022-02-12T09:05:17Z</time>
      </trkpt>
      <trkpt lat="43.07901" lon="-0.09294">
        <ele>765.8</ele>
        <time>2022-02-12T09:05:18Z</time>
      </trkpt>
      <trkpt lat="43.079" lon="-0.09295">
        <ele>766</ele>
        <time>2022-02-12T09:05:19Z</time>
      </trkpt>
      <trkpt lat="43.07897" lon="-0.09296">
        <ele>766</ele>
        <time>2022-02-12T09:05:20Z</time>
      </trkpt>
      <trkpt lat="43.07895" lon="-0.09297">
        <ele>766</ele>
        <time>2022-02-12T09:05:21Z</time>
      </trkpt>
      <trkpt lat="43.07893" lon="-0.09296">
        <ele>766.2</ele>
        <time>2022-02-12T09:05:22Z</time>
      </trkpt>
      <trkpt lat="43.07893" lon="-0.09296">
        <ele>766.4</ele>
        <time>2022-02-12T09:05:23Z</time>
      </trkpt>
      <trkpt lat="43.07891" lon="-0.09296">
        <ele>766.6</ele>
        <time>2022-02-12T09:05:24Z</time>
      </trkpt>
      <trkpt lat="43.07889" lon="-0.09295">
        <ele>766.8</ele>
        <time>2022-02-12T09:05:25Z</time>
      </trkpt>
      <trkpt lat="43.07887" lon="-0.09295">
        <ele>766.8</ele>
        <time>2022-02-12T09:05:26Z</time>
      </trkpt>
      <trkpt lat="43.07887" lon="-0.09295">
        <ele>766.8</ele>
        <time>2022-02-12T09:05:27Z</time>
      </trkpt>
      <trkpt lat="43.07886" lon="-0.09295">
        <ele>766.8</ele>
        <time>2022-02-12T09:05:28Z</time>
      </trkpt>
      <trkpt lat="43.07885" lon="-0.09295">
        <ele>767</ele>
        <time>2022-02-12T09:05:29Z</time>
      </trkpt>
      <trkpt lat="43.0788" lon="-0.09295">
        <ele>767</ele>
        <time>2022-02-12T09:05:30Z</time>
      </trkpt>
      <trkpt lat="43.07877" lon="-0.09294">
        <ele>767</ele>
        <time>2022-02-12T09:05:31Z</time>
      </trkpt>
      <trkpt lat="43.07875" lon="-0.09293">
        <ele>767</ele>
        <time>2022-02-12T09:05:32Z</time>
      </trkpt>
      <trkpt lat="43.07873" lon="-0.09293">
        <ele>767</ele>
        <time>2022-02-12T09:05:33Z</time>
      </trkpt>
      <trkpt lat="43.07872" lon="-0.09294">
        <ele>767</ele>
        <time>2022-02-12T09:05:34Z</time>
      </trkpt>
      <trkpt lat="43.07871" lon="-0.09294">
        <ele>767</ele>
        <time>2022-02-12T09:05:35Z</time>
      </trkpt>
      <trkpt lat="43.0787" lon="-0.09294">
        <ele>767.2</ele>
        <time>2022-02-12T09:05:36Z</time>
      </trkpt>
      <trkpt lat="43.07869" lon="-0.09295">
        <ele>767.2</ele>
        <time>2022-02-12T09:05:37Z</time>
      </trkpt>
      <trkpt lat="43.07867" lon="-0.09296">
        <ele>767.2</ele>
        <time>2022-02-12T09:05:38Z</time>
      </trkpt>
      <trkpt lat="43.07863" lon="-0.09296">
        <ele>767.2</ele>
        <time>2022-02-12T09:05:39Z</time>
      </trkpt>
      <trkpt lat="43.07862" lon="-0.09296">
        <ele>767.2</ele>
        <time>2022-02-12T09:05:40Z</time>
      </trkpt>
      <trkpt lat="43.0786" lon="-0.09296">
        <ele>767.4</ele>
        <time>2022-02-12T09:05:41Z</time>
      </trkpt>
      <trkpt lat="43.07859" lon="-0.09296">
        <ele>767.4</ele>
        <time>2022-02-12T09:05:42Z</time>
      </trkpt>
      <trkpt lat="43.07858" lon="-0.09296">
        <ele>767.4</ele>
        <time>2022-02-12T09:05:43Z</time>
      </trkpt>
      <trkpt lat="43.07857" lon="-0.09297">
        <ele>767.4</ele>
        <time>2022-02-12T09:05:44Z</time>
      </trkpt>
      <trkpt lat="43.07855" lon="-0.09298">
        <ele>767.4</ele>
        <time>2022-02-12T09:05:45Z</time>
      </trkpt>
      <trkpt lat="43.07854" lon="-0.09299">
        <ele>767.4</ele>
        <time>2022-02-12T09:05:46Z</time>
      </trkpt>
      <trkpt lat="43.07853" lon="-0.093">
        <ele>767.4</ele>
        <time>2022-02-12T09:05:47Z</time>
      </trkpt>
      <trkpt lat="43.0785" lon="-0.09301">
        <ele>767.6</ele>
        <time>2022-02-12T09:05:48Z</time>
      </trkpt>
      <trkpt lat="43.07847" lon="-0.09302">
        <ele>767.6</ele>
        <time>2022-02-12T09:05:49Z</time>
      </trkpt>
      <trkpt lat="43.07845" lon="-0.09303">
        <ele>767.6</ele>
        <time>2022-02-12T09:05:50Z</time>
      </trkpt>
      <trkpt lat="43.07844" lon="-0.09304">
        <ele>767.6</ele>
        <time>2022-02-12T09:05:51Z</time>
      </trkpt>
      <trkpt lat="43.07842" lon="-0.09305">
        <ele>767.8</ele>
        <time>2022-02-12T09:05:52Z</time>
      </trkpt>
      <trkpt lat="43.07841" lon="-0.09305">
        <ele>767.8</ele>
        <time>2022-02-12T09:05:53Z</time>
      </trkpt>
      <trkpt lat="43.07838" lon="-0.09306">
        <ele>767.8</ele>
        <time>2022-02-12T09:05:54Z</time>
      </trkpt>
      <trkpt lat="43.07836" lon="-0.09306">
        <ele>768</ele>
        <time>2022-02-12T09:05:55Z</time>
      </trkpt>
      <trkpt lat="43.07835" lon="-0.09306">
        <ele>768</ele>
        <time>2022-02-12T09:05:56Z</time>
      </trkpt>
      <trkpt lat="43.07833" lon="-0.09306">
        <ele>768</ele>
        <time>2022-02-12T09:05:57Z</time>
      </trkpt>
      <trkpt lat="43.07832" lon="-0.09306">
        <ele>768</ele>
        <time>2022-02-12T09:05:58Z</time>
      </trkpt>
      <trkpt lat="43.0783" lon="-0.09307">
        <ele>768.4</ele>
        <time>2022-02-12T09:05:59Z</time>
      </trkpt>
      <trkpt lat="43.07829" lon="-0.09308">
        <ele>768.6</ele>
        <time>2022-02-12T09:06:00Z</time>
      </trkpt>
      <trkpt lat="43.07829" lon="-0.09309">
        <ele>768.8</ele>
        <time>2022-02-12T09:06:01Z</time>
      </trkpt>
      <trkpt lat="43.07829" lon="-0.09311">
        <ele>769</ele>
        <time>2022-02-12T09:06:02Z</time>
      </trkpt>
      <trkpt lat="43.07829" lon="-0.09313">
        <ele>769.2</ele>
        <time>2022-02-12T09:06:03Z</time>
      </trkpt>
      <trkpt lat="43.07829" lon="-0.09314">
        <ele>769.4</ele>
        <time>2022-02-12T09:06:04Z</time>
      </trkpt>
      <trkpt lat="43.07829" lon="-0.09315">
        <ele>769.6</ele>
        <time>2022-02-12T09:06:05Z</time>
      </trkpt>
      <trkpt lat="43.07828" lon="-0.09317">
        <ele>769.6</ele>
        <time>2022-02-12T09:06:06Z</time>
      </trkpt>
      <trkpt lat="43.07827" lon="-0.09319">
        <ele>769.8</ele>
        <time>2022-02-12T09:06:07Z</time>
      </trkpt>
      <trkpt lat="43.07826" lon="-0.0932">
        <ele>770</ele>
        <time>2022-02-12T09:06:08Z</time>
      </trkpt>
      <trkpt lat="43.07826" lon="-0.09321">
        <ele>770</ele>
        <time>2022-02-12T09:06:09Z</time>
      </trkpt>
      <trkpt lat="43.07825" lon="-0.09322">
        <ele>770</ele>
        <time>2022-02-12T09:06:10Z</time>
      </trkpt>
      <trkpt lat="43.07825" lon="-0.09322">
        <ele>770</ele>
        <time>2022-02-12T09:06:11Z</time>
      </trkpt>
      <trkpt lat="43.07825" lon="-0.09322">
        <ele>770.2</ele>
        <time>2022-02-12T09:06:12Z</time>
      </trkpt>
      <trkpt lat="43.07825" lon="-0.09322">
        <ele>770.2</ele>
        <time>2022-02-12T09:06:13Z</time>
      </trkpt>
      <trkpt lat="43.07825" lon="-0.09322">
        <ele>770.4</ele>
        <time>2022-02-12T09:06:14Z</time>
      </trkpt>
      <trkpt lat="43.07825" lon="-0.09322">
        <ele>770.4</ele>
        <time>2022-02-12T09:06:15Z</time>
      </trkpt>
      <trkpt lat="43.07825" lon="-0.09323">
        <ele>770.6</ele>
        <time>2022-02-12T09:06:16Z</time>
      </trkpt>
      <trkpt lat="43.07824" lon="-0.09324">
        <ele>770.6</ele>
        <time>2022-02-12T09:06:17Z</time>
      </trkpt>
      <trkpt lat="43.07824" lon="-0.09326">
        <ele>770.6</ele>
        <time>2022-02-12T09:06:18Z</time>
      </trkpt>
      <trkpt lat="43.07824" lon="-0.09328">
        <ele>770.6</ele>
        <time>2022-02-12T09:06:19Z</time>
      </trkpt>
      <trkpt lat="43.07824" lon="-0.09331">
        <ele>770.6</ele>
        <time>2022-02-12T09:06:20Z</time>
      </trkpt>
      <trkpt lat="43.07823" lon="-0.09333">
        <ele>770.8</ele>
        <time>2022-02-12T09:06:21Z</time>
      </trkpt>
      <trkpt lat="43.07823" lon="-0.09334">
        <ele>770.8</ele>
        <time>2022-02-12T09:06:22Z</time>
      </trkpt>
      <trkpt lat="43.07823" lon="-0.09336">
        <ele>770.8</ele>
        <time>2022-02-12T09:06:23Z</time>
      </trkpt>
      <trkpt lat="43.07823" lon="-0.09337">
        <ele>770.8</ele>
        <time>2022-02-12T09:06:24Z</time>
      </trkpt>
      <trkpt lat="43.07824" lon="-0.09338">
        <ele>771</ele>
        <time>2022-02-12T09:06:25Z</time>
      </trkpt>
      <trkpt lat="43.07824" lon="-0.0934">
        <ele>771.2</ele>
        <time>2022-02-12T09:06:26Z</time>
      </trkpt>
      <trkpt lat="43.07825" lon="-0.09342">
        <ele>771.2</ele>
        <time>2022-02-12T09:06:27Z</time>
      </trkpt>
      <trkpt lat="43.07824" lon="-0.09344">
        <ele>771.4</ele>
        <time>2022-02-12T09:06:28Z</time>
      </trkpt>
      <trkpt lat="43.07824" lon="-0.09346">
        <ele>771.4</ele>
        <time>2022-02-12T09:06:29Z</time>
      </trkpt>
      <trkpt lat="43.07824" lon="-0.09348">
        <ele>771.4</ele>
        <time>2022-02-12T09:06:30Z</time>
      </trkpt>
      <trkpt lat="43.07824" lon="-0.09348">
        <ele>771.8</ele>
        <time>2022-02-12T09:06:31Z</time>
      </trkpt>
      <trkpt lat="43.07824" lon="-0.09348">
        <ele>771.8</ele>
        <time>2022-02-12T09:06:32Z</time>
      </trkpt>
      <trkpt lat="43.07824" lon="-0.09348">
        <ele>772</ele>
        <time>2022-02-12T09:06:33Z</time>
      </trkpt>
      <trkpt lat="43.07824" lon="-0.09348">
        <ele>772.2</ele>
        <time>2022-02-12T09:06:34Z</time>
      </trkpt>
      <trkpt lat="43.07824" lon="-0.09348">
        <ele>772.2</ele>
        <time>2022-02-12T09:06:35Z</time>
      </trkpt>
      <trkpt lat="43.07824" lon="-0.09348">
        <ele>772.4</ele>
        <time>2022-02-12T09:06:36Z</time>
      </trkpt>
      <trkpt lat="43.07824" lon="-0.09348">
        <ele>772.4</ele>
        <time>2022-02-12T09:06:37Z</time>
      </trkpt>
      <trkpt lat="43.07824" lon="-0.09348">
        <ele>772.4</ele>
        <time>2022-02-12T09:06:38Z</time>
      </trkpt>
      <trkpt lat="43.07824" lon="-0.09348">
        <ele>772.6</ele>
        <time>2022-02-12T09:06:39Z</time>
      </trkpt>
      <trkpt lat="43.07824" lon="-0.09348">
        <ele>772.6</ele>
        <time>2022-02-12T09:06:40Z</time>
      </trkpt>
      <trkpt lat="43.07824" lon="-0.09348">
        <ele>772.6</ele>
        <time>2022-02-12T09:06:41Z</time>
      </trkpt>
      <trkpt lat="43.07824" lon="-0.09348">
        <ele>772.6</ele>
        <time>2022-02-12T09:06:42Z</time>
      </trkpt>
      <trkpt lat="43.07824" lon="-0.09348">
        <ele>772.6</ele>
        <time>2022-02-12T09:06:43Z</time>
      </trkpt>
      <trkpt lat="43.07824" lon="-0.09348">
        <ele>772.6</ele>
        <time>2022-02-12T09:06:44Z</time>
      </trkpt>
      <trkpt lat="43.07824" lon="-0.09348">
        <ele>772.6</ele>
        <time>2022-02-12T09:06:45Z</time>
      </trkpt>
      <trkpt lat="43.07824" lon="-0.09348">
        <ele>772.6</ele>
        <time>2022-02-12T09:06:46Z</time>
      </trkpt>
      <trkpt lat="43.07824" lon="-0.09348">
        <ele>772.6</ele>
        <time>2022-02-12T09:06:47Z</time>
      </trkpt>
      <trkpt lat="43.07824" lon="-0.09348">
        <ele>772.6</ele>
        <time>2022-02-12T09:06:48Z</time>
      </trkpt>
      <trkpt lat="43.07824" lon="-0.09348">
        <ele>772.6</ele>
        <time>2022-02-12T09:06:49Z</time>
      </trkpt>
      <trkpt lat="43.07824" lon="-0.09348">
        <ele>772.6</ele>
        <time>2022-02-12T09:06:50Z</time>
      </trkpt>
      <trkpt lat="43.07824" lon="-0.09348">
        <ele>772.6</ele>
        <time>2022-02-12T09:06:51Z</time>
      </trkpt>
      <trkpt lat="43.07824" lon="-0.09348">
        <ele>772.6</ele>
        <time>2022-02-12T09:06:52Z</time>
      </trkpt>
      <trkpt lat="43.07824" lon="-0.09348">
        <ele>772.4</ele>
        <time>2022-02-12T09:06:53Z</time>
      </trkpt>
      <trkpt lat="43.07824" lon="-0.09348">
        <ele>772.4</ele>
        <time>2022-02-12T09:06:54Z</time>
      </trkpt>
      <trkpt lat="43.07824" lon="-0.09348">
        <ele>772.4</ele>
        <time>2022-02-12T09:06:55Z</time>
      </trkpt>
      <trkpt lat="43.07824" lon="-0.09348">
        <ele>772.4</ele>
        <time>2022-02-12T09:06:56Z</time>
      </trkpt>
      <trkpt lat="43.07824" lon="-0.09348">
        <ele>772.4</ele>
        <time>2022-02-12T09:06:57Z</time>
      </trkpt>
      <trkpt lat="43.07824" lon="-0.09348">
        <ele>772.4</ele>
        <time>2022-02-12T09:06:58Z</time>
      </trkpt>
      <trkpt lat="43.07824" lon="-0.09348">
        <ele>772.4</ele>
        <time>2022-02-12T09:06:59Z</time>
      </trkpt>
      <trkpt lat="43.07824" lon="-0.09348">
        <ele>772.4</ele>
        <time>2022-02-12T09:07:00Z</time>
      </trkpt>
      <trkpt lat="43.07824" lon="-0.09348">
        <ele>772.4</ele>
        <time>2022-02-12T09:07:01Z</time>
      </trkpt>
      <trkpt lat="43.07824" lon="-0.09348">
        <ele>772.4</ele>
        <time>2022-02-12T09:07:02Z</time>
      </trkpt>
      <trkpt lat="43.07824" lon="-0.09348">
        <ele>772.4</ele>
        <time>2022-02-12T09:07:03Z</time>
      </trkpt>
      <trkpt lat="43.07824" lon="-0.09348">
        <ele>772.4</ele>
        <time>2022-02-12T09:07:04Z</time>
      </trkpt>
      <trkpt lat="43.07824" lon="-0.09348">
        <ele>772.4</ele>
        <time>2022-02-12T09:07:05Z</time>
      </trkpt>
      <trkpt lat="43.07824" lon="-0.09348">
        <ele>772.2</ele>
        <time>2022-02-12T09:07:06Z</time>
      </trkpt>
      <trkpt lat="43.07824" lon="-0.09348">
        <ele>772.2</ele>
        <time>2022-02-12T09:07:07Z</time>
      </trkpt>
      <trkpt lat="43.07824" lon="-0.09345">
        <ele>772.2</ele>
        <time>2022-02-12T09:07:08Z</time>
      </trkpt>
      <trkpt lat="43.07824" lon="-0.09343">
        <ele>772</ele>
        <time>2022-02-12T09:07:09Z</time>
      </trkpt>
      <trkpt lat="43.07823" lon="-0.0934">
        <ele>772</ele>
        <time>2022-02-12T09:07:10Z</time>
      </trkpt>
      <trkpt lat="43.07823" lon="-0.09337">
        <ele>772</ele>
        <time>2022-02-12T09:07:11Z</time>
      </trkpt>
      <trkpt lat="43.07823" lon="-0.09333">
        <ele>771.8</ele>
        <time>2022-02-12T09:07:12Z</time>
      </trkpt>
      <trkpt lat="43.07823" lon="-0.09331">
        <ele>771.8</ele>
        <time>2022-02-12T09:07:13Z</time>
      </trkpt>
      <trkpt lat="43.07824" lon="-0.09328">
        <ele>771.6</ele>
        <time>2022-02-12T09:07:14Z</time>
      </trkpt>
      <trkpt lat="43.07824" lon="-0.09326">
        <ele>771.6</ele>
        <time>2022-02-12T09:07:15Z</time>
      </trkpt>
      <trkpt lat="43.07825" lon="-0.09323">
        <ele>771.4</ele>
        <time>2022-02-12T09:07:16Z</time>
      </trkpt>
      <trkpt lat="43.07825" lon="-0.09322">
        <ele>771.2</ele>
        <time>2022-02-12T09:07:17Z</time>
      </trkpt>
      <trkpt lat="43.07825" lon="-0.0932">
        <ele>771.2</ele>
        <time>2022-02-12T09:07:18Z</time>
      </trkpt>
      <trkpt lat="43.07825" lon="-0.09317">
        <ele>771</ele>
        <time>2022-02-12T09:07:19Z</time>
      </trkpt>
      <trkpt lat="43.07825" lon="-0.09316">
        <ele>770.8</ele>
        <time>2022-02-12T09:07:20Z</time>
      </trkpt>
      <trkpt lat="43.07825" lon="-0.09314">
        <ele>770.6</ele>
        <time>2022-02-12T09:07:21Z</time>
      </trkpt>
      <trkpt lat="43.07826" lon="-0.09312">
        <ele>770.6</ele>
        <time>2022-02-12T09:07:22Z</time>
      </trkpt>
      <trkpt lat="43.07826" lon="-0.09311">
        <ele>770.6</ele>
        <time>2022-02-12T09:07:23Z</time>
      </trkpt>
      <trkpt lat="43.07825" lon="-0.09311">
        <ele>770.4</ele>
        <time>2022-02-12T09:07:24Z</time>
      </trkpt>
      <trkpt lat="43.07825" lon="-0.09311">
        <ele>770.4</ele>
        <time>2022-02-12T09:07:25Z</time>
      </trkpt>
      <trkpt lat="43.07825" lon="-0.09311">
        <ele>770.2</ele>
        <time>2022-02-12T09:07:26Z</time>
      </trkpt>
      <trkpt lat="43.07825" lon="-0.09311">
        <ele>770</ele>
        <time>2022-02-12T09:07:27Z</time>
      </trkpt>
      <trkpt lat="43.07825" lon="-0.09311">
        <ele>770</ele>
        <time>2022-02-12T09:07:28Z</time>
      </trkpt>
      <trkpt lat="43.07825" lon="-0.09311">
        <ele>770</ele>
        <time>2022-02-12T09:07:29Z</time>
      </trkpt>
      <trkpt lat="43.07825" lon="-0.09311">
        <ele>769.8</ele>
        <time>2022-02-12T09:07:30Z</time>
      </trkpt>
      <trkpt lat="43.07824" lon="-0.0931">
        <ele>769.8</ele>
        <time>2022-02-12T09:07:31Z</time>
      </trkpt>
      <trkpt lat="43.07824" lon="-0.0931">
        <ele>769.8</ele>
        <time>2022-02-12T09:07:32Z</time>
      </trkpt>
      <trkpt lat="43.07824" lon="-0.0931">
        <ele>769.6</ele>
        <time>2022-02-12T09:07:33Z</time>
      </trkpt>
      <trkpt lat="43.07824" lon="-0.0931">
        <ele>769.6</ele>
        <time>2022-02-12T09:07:34Z</time>
      </trkpt>
      <trkpt lat="43.07824" lon="-0.0931">
        <ele>769.6</ele>
        <time>2022-02-12T09:07:35Z</time>
      </trkpt>
      <trkpt lat="43.07824" lon="-0.0931">
        <ele>769.4</ele>
        <time>2022-02-12T09:07:36Z</time>
      </trkpt>
      <trkpt lat="43.07824" lon="-0.0931">
        <ele>769.4</ele>
        <time>2022-02-12T09:07:37Z</time>
      </trkpt>
      <trkpt lat="43.07824" lon="-0.0931">
        <ele>769.4</ele>
        <time>2022-02-12T09:07:38Z</time>
      </trkpt>
      <trkpt lat="43.07824" lon="-0.0931">
        <ele>769.4</ele>
        <time>2022-02-12T09:07:39Z</time>
      </trkpt>
      <trkpt lat="43.07824" lon="-0.0931">
        <ele>769.2</ele>
        <time>2022-02-12T09:07:40Z</time>
      </trkpt>
      <trkpt lat="43.07824" lon="-0.0931">
        <ele>769.2</ele>
        <time>2022-02-12T09:07:41Z</time>
      </trkpt>
      <trkpt lat="43.07824" lon="-0.0931">
        <ele>769.2</ele>
        <time>2022-02-12T09:07:42Z</time>
      </trkpt>
      <trkpt lat="43.07824" lon="-0.0931">
        <ele>769.2</ele>
        <time>2022-02-12T09:07:43Z</time>
      </trkpt>
      <trkpt lat="43.07824" lon="-0.0931">
        <ele>769.2</ele>
        <time>2022-02-12T09:07:44Z</time>
      </trkpt>
      <trkpt lat="43.07824" lon="-0.0931">
        <ele>769.2</ele>
        <time>2022-02-12T09:07:45Z</time>
      </trkpt>
      <trkpt lat="43.07824" lon="-0.0931">
        <ele>769.2</ele>
        <time>2022-02-12T09:07:46Z</time>
      </trkpt>
      <trkpt lat="43.07824" lon="-0.0931">
        <ele>769.2</ele>
        <time>2022-02-12T09:07:47Z</time>
      </trkpt>
      <trkpt lat="43.07824" lon="-0.0931">
        <ele>769.2</ele>
        <time>2022-02-12T09:07:48Z</time>
      </trkpt>
      <trkpt lat="43.07824" lon="-0.0931">
        <ele>769.2</ele>
        <time>2022-02-12T09:07:49Z</time>
      </trkpt>
      <trkpt lat="43.07824" lon="-0.0931">
        <ele>769.2</ele>
        <time>2022-02-12T09:07:50Z</time>
      </trkpt>
      <trkpt lat="43.07824" lon="-0.0931">
        <ele>769.2</ele>
        <time>2022-02-12T09:07:51Z</time>
      </trkpt>
      <trkpt lat="43.07824" lon="-0.0931">
        <ele>769.2</ele>
        <time>2022-02-12T09:07:52Z</time>
      </trkpt>
      <trkpt lat="43.07824" lon="-0.0931">
        <ele>769.2</ele>
        <time>2022-02-12T09:07:53Z</time>
      </trkpt>
      <trkpt lat="43.07824" lon="-0.0931">
        <ele>769.2</ele>
        <time>2022-02-12T09:07:54Z</time>
      </trkpt>
      <trkpt lat="43.07824" lon="-0.0931">
        <ele>769.2</ele>
        <time>2022-02-12T09:07:55Z</time>
      </trkpt>
      <trkpt lat="43.07824" lon="-0.0931">
        <ele>769.2</ele>
        <time>2022-02-12T09:07:56Z</time>
      </trkpt>
      <trkpt lat="43.07824" lon="-0.0931">
        <ele>769.2</ele>
        <time>2022-02-12T09:07:57Z</time>
      </trkpt>
      <trkpt lat="43.07824" lon="-0.0931">
        <ele>769.2</ele>
        <time>2022-02-12T09:07:58Z</time>
      </trkpt>
      <trkpt lat="43.07824" lon="-0.0931">
        <ele>769.2</ele>
        <time>2022-02-12T09:07:59Z</time>
      </trkpt>
      <trkpt lat="43.07824" lon="-0.0931">
        <ele>769.2</ele>
        <time>2022-02-12T09:08:00Z</time>
      </trkpt>
      <trkpt lat="43.07824" lon="-0.0931">
        <ele>769.2</ele>
        <time>2022-02-12T09:08:01Z</time>
      </trkpt>
      <trkpt lat="43.07824" lon="-0.0931">
        <ele>769.2</ele>
        <time>2022-02-12T09:08:02Z</time>
      </trkpt>
      <trkpt lat="43.07824" lon="-0.0931">
        <ele>769.2</ele>
        <time>2022-02-12T09:08:03Z</time>
      </trkpt>
      <trkpt lat="43.07824" lon="-0.0931">
        <ele>769.4</ele>
        <time>2022-02-12T09:08:04Z</time>
      </trkpt>
      <trkpt lat="43.07824" lon="-0.0931">
        <ele>769.4</ele>
        <time>2022-02-12T09:08:05Z</time>
      </trkpt>
      <trkpt lat="43.07824" lon="-0.0931">
        <ele>769.4</ele>
        <time>2022-02-12T09:08:06Z</time>
      </trkpt>
      <trkpt lat="43.07824" lon="-0.0931">
        <ele>769.4</ele>
        <time>2022-02-12T09:08:07Z</time>
      </trkpt>
      <trkpt lat="43.07824" lon="-0.0931">
        <ele>769.4</ele>
        <time>2022-02-12T09:08:08Z</time>
      </trkpt>
      <trkpt lat="43.07824" lon="-0.0931">
        <ele>769.6</ele>
        <time>2022-02-12T09:08:09Z</time>
      </trkpt>
      <trkpt lat="43.07824" lon="-0.0931">
        <ele>769.6</ele>
        <time>2022-02-12T09:08:10Z</time>
      </trkpt>
      <trkpt lat="43.07824" lon="-0.0931">
        <ele>769.8</ele>
        <time>2022-02-12T09:08:11Z</time>
      </trkpt>
      <trkpt lat="43.07824" lon="-0.0931">
        <ele>769.8</ele>
        <time>2022-02-12T09:08:12Z</time>
      </trkpt>
      <trkpt lat="43.07823" lon="-0.0931">
        <ele>769.8</ele>
        <time>2022-02-12T09:08:13Z</time>
      </trkpt>
      <trkpt lat="43.07822" lon="-0.0931">
        <ele>770</ele>
        <time>2022-02-12T09:08:14Z</time>
      </trkpt>
      <trkpt lat="43.07821" lon="-0.09311">
        <ele>770</ele>
        <time>2022-02-12T09:08:15Z</time>
      </trkpt>
      <trkpt lat="43.07819" lon="-0.09311">
        <ele>770</ele>
        <time>2022-02-12T09:08:16Z</time>
      </trkpt>
      <trkpt lat="43.07818" lon="-0.09311">
        <ele>770</ele>
        <time>2022-02-12T09:08:17Z</time>
      </trkpt>
      <trkpt lat="43.07817" lon="-0.09311">
        <ele>770</ele>
        <time>2022-02-12T09:08:18Z</time>
      </trkpt>
      <trkpt lat="43.07816" lon="-0.09311">
        <ele>770.2</ele>
        <time>2022-02-12T09:08:19Z</time>
      </trkpt>
      <trkpt lat="43.07816" lon="-0.09311">
        <ele>770.2</ele>
        <time>2022-02-12T09:08:20Z</time>
      </trkpt>
      <trkpt lat="43.07815" lon="-0.09311">
        <ele>770.2</ele>
        <time>2022-02-12T09:08:21Z</time>
      </trkpt>
      <trkpt lat="43.07814" lon="-0.09311">
        <ele>770.4</ele>
        <time>2022-02-12T09:08:22Z</time>
      </trkpt>
      <trkpt lat="43.07814" lon="-0.09311">
        <ele>770.4</ele>
        <time>2022-02-12T09:08:23Z</time>
      </trkpt>
      <trkpt lat="43.07814" lon="-0.09312">
        <ele>770.6</ele>
        <time>2022-02-12T09:08:24Z</time>
      </trkpt>
      <trkpt lat="43.07814" lon="-0.09313">
        <ele>770.6</ele>
        <time>2022-02-12T09:08:25Z</time>
      </trkpt>
      <trkpt lat="43.07814" lon="-0.09313">
        <ele>770.6</ele>
        <time>2022-02-12T09:08:26Z</time>
      </trkpt>
      <trkpt lat="43.07814" lon="-0.09313">
        <ele>770.6</ele>
        <time>2022-02-12T09:08:27Z</time>
      </trkpt>
      <trkpt lat="43.07814" lon="-0.09313">
        <ele>770.6</ele>
        <time>2022-02-12T09:08:28Z</time>
      </trkpt>
      <trkpt lat="43.07814" lon="-0.09313">
        <ele>770.6</ele>
        <time>2022-02-12T09:08:29Z</time>
      </trkpt>
      <trkpt lat="43.07814" lon="-0.09313">
        <ele>770.6</ele>
        <time>2022-02-12T09:08:30Z</time>
      </trkpt>
      <trkpt lat="43.07814" lon="-0.09313">
        <ele>770.6</ele>
        <time>2022-02-12T09:08:31Z</time>
      </trkpt>
      <trkpt lat="43.07814" lon="-0.09313">
        <ele>770.6</ele>
        <time>2022-02-12T09:08:32Z</time>
      </trkpt>
      <trkpt lat="43.07814" lon="-0.09313">
        <ele>770.6</ele>
        <time>2022-02-12T09:08:33Z</time>
      </trkpt>
      <trkpt lat="43.07814" lon="-0.09313">
        <ele>770.6</ele>
        <time>2022-02-12T09:08:34Z</time>
      </trkpt>
      <trkpt lat="43.07814" lon="-0.09313">
        <ele>770.6</ele>
        <time>2022-02-12T09:08:35Z</time>
      </trkpt>
      <trkpt lat="43.07814" lon="-0.09313">
        <ele>770.6</ele>
        <time>2022-02-12T09:08:36Z</time>
      </trkpt>
      <trkpt lat="43.07814" lon="-0.09313">
        <ele>770.6</ele>
        <time>2022-02-12T09:08:37Z</time>
      </trkpt>
      <trkpt lat="43.07814" lon="-0.09313">
        <ele>770.6</ele>
        <time>2022-02-12T09:08:38Z</time>
      </trkpt>
      <trkpt lat="43.07814" lon="-0.09313">
        <ele>770.6</ele>
        <time>2022-02-12T09:08:39Z</time>
      </trkpt>
      <trkpt lat="43.07814" lon="-0.09313">
        <ele>770.6</ele>
        <time>2022-02-12T09:08:40Z</time>
      </trkpt>
      <trkpt lat="43.07814" lon="-0.09313">
        <ele>770.6</ele>
        <time>2022-02-12T09:08:41Z</time>
      </trkpt>
      <trkpt lat="43.07814" lon="-0.09313">
        <ele>770.6</ele>
        <time>2022-02-12T09:08:42Z</time>
      </trkpt>
      <trkpt lat="43.07814" lon="-0.09313">
        <ele>770.6</ele>
        <time>2022-02-12T09:08:43Z</time>
      </trkpt>
      <trkpt lat="43.07814" lon="-0.09313">
        <ele>770.6</ele>
        <time>2022-02-12T09:08:44Z</time>
      </trkpt>
      <trkpt lat="43.07814" lon="-0.09313">
        <ele>770.6</ele>
        <time>2022-02-12T09:08:45Z</time>
      </trkpt>
      <trkpt lat="43.07814" lon="-0.09313">
        <ele>770.6</ele>
        <time>2022-02-12T09:08:46Z</time>
      </trkpt>
      <trkpt lat="43.07814" lon="-0.09313">
        <ele>770.6</ele>
        <time>2022-02-12T09:08:47Z</time>
      </trkpt>
      <trkpt lat="43.07814" lon="-0.09313">
        <ele>770.6</ele>
        <time>2022-02-12T09:08:48Z</time>
      </trkpt>
      <trkpt lat="43.07814" lon="-0.09313">
        <ele>770.6</ele>
        <time>2022-02-12T09:08:49Z</time>
      </trkpt>
      <trkpt lat="43.07814" lon="-0.09313">
        <ele>770.6</ele>
        <time>2022-02-12T09:08:50Z</time>
      </trkpt>
      <trkpt lat="43.07814" lon="-0.09313">
        <ele>770.6</ele>
        <time>2022-02-12T09:08:51Z</time>
      </trkpt>
      <trkpt lat="43.07814" lon="-0.09313">
        <ele>770.6</ele>
        <time>2022-02-12T09:08:52Z</time>
      </trkpt>
      <trkpt lat="43.07814" lon="-0.09313">
        <ele>770.6</ele>
        <time>2022-02-12T09:08:53Z</time>
      </trkpt>
      <trkpt lat="43.07814" lon="-0.09313">
        <ele>770.6</ele>
        <time>2022-02-12T09:08:54Z</time>
      </trkpt>
      <trkpt lat="43.07814" lon="-0.09313">
        <ele>770.6</ele>
        <time>2022-02-12T09:08:55Z</time>
      </trkpt>
      <trkpt lat="43.07814" lon="-0.09313">
        <ele>770.6</ele>
        <time>2022-02-12T09:08:56Z</time>
      </trkpt>
      <trkpt lat="43.07814" lon="-0.09313">
        <ele>770.6</ele>
        <time>2022-02-12T09:08:57Z</time>
      </trkpt>
      <trkpt lat="43.07814" lon="-0.09313">
        <ele>770.6</ele>
        <time>2022-02-12T09:08:58Z</time>
      </trkpt>
      <trkpt lat="43.07814" lon="-0.09313">
        <ele>770.6</ele>
        <time>2022-02-12T09:08:59Z</time>
      </trkpt>
      <trkpt lat="43.07814" lon="-0.09313">
        <ele>770.6</ele>
        <time>2022-02-12T09:09:00Z</time>
      </trkpt>
      <trkpt lat="43.07814" lon="-0.09313">
        <ele>770.6</ele>
        <time>2022-02-12T09:09:01Z</time>
      </trkpt>
      <trkpt lat="43.07814" lon="-0.09313">
        <ele>770.6</ele>
        <time>2022-02-12T09:09:02Z</time>
      </trkpt>
      <trkpt lat="43.07814" lon="-0.09313">
        <ele>770.6</ele>
        <time>2022-02-12T09:09:03Z</time>
      </trkpt>
      <trkpt lat="43.07814" lon="-0.09313">
        <ele>770.6</ele>
        <time>2022-02-12T09:09:04Z</time>
      </trkpt>
      <trkpt lat="43.07814" lon="-0.09313">
        <ele>770.8</ele>
        <time>2022-02-12T09:09:05Z</time>
      </trkpt>
      <trkpt lat="43.07814" lon="-0.09313">
        <ele>770.8</ele>
        <time>2022-02-12T09:09:06Z</time>
      </trkpt>
      <trkpt lat="43.07814" lon="-0.09313">
        <ele>770.8</ele>
        <time>2022-02-12T09:09:07Z</time>
      </trkpt>
      <trkpt lat="43.07814" lon="-0.09313">
        <ele>770.8</ele>
        <time>2022-02-12T09:09:08Z</time>
      </trkpt>
      <trkpt lat="43.07814" lon="-0.09313">
        <ele>770.8</ele>
        <time>2022-02-12T09:09:09Z</time>
      </trkpt>
      <trkpt lat="43.07814" lon="-0.09313">
        <ele>770.8</ele>
        <time>2022-02-12T09:09:10Z</time>
      </trkpt>
      <trkpt lat="43.07814" lon="-0.09313">
        <ele>770.8</ele>
        <time>2022-02-12T09:09:11Z</time>
      </trkpt>
      <trkpt lat="43.07814" lon="-0.09313">
        <ele>770.8</ele>
        <time>2022-02-12T09:09:12Z</time>
      </trkpt>
      <trkpt lat="43.07814" lon="-0.09313">
        <ele>770.8</ele>
        <time>2022-02-12T09:09:13Z</time>
      </trkpt>
      <trkpt lat="43.07814" lon="-0.09313">
        <ele>770.8</ele>
        <time>2022-02-12T09:09:14Z</time>
      </trkpt>
      <trkpt lat="43.07814" lon="-0.09313">
        <ele>770.8</ele>
        <time>2022-02-12T09:09:15Z</time>
      </trkpt>
      <trkpt lat="43.07814" lon="-0.09313">
        <ele>770.6</ele>
        <time>2022-02-12T09:09:16Z</time>
      </trkpt>
      <trkpt lat="43.07814" lon="-0.09313">
        <ele>770.6</ele>
        <time>2022-02-12T09:09:17Z</time>
      </trkpt>
      <trkpt lat="43.07814" lon="-0.09313">
        <ele>770.4</ele>
        <time>2022-02-12T09:09:18Z</time>
      </trkpt>
      <trkpt lat="43.07814" lon="-0.09313">
        <ele>770.4</ele>
        <time>2022-02-12T09:09:19Z</time>
      </trkpt>
      <trkpt lat="43.07814" lon="-0.09313">
        <ele>770.4</ele>
        <time>2022-02-12T09:09:20Z</time>
      </trkpt>
      <trkpt lat="43.07814" lon="-0.09313">
        <ele>770.2</ele>
        <time>2022-02-12T09:09:21Z</time>
      </trkpt>
      <trkpt lat="43.07814" lon="-0.09313">
        <ele>770.2</ele>
        <time>2022-02-12T09:09:22Z</time>
      </trkpt>
      <trkpt lat="43.07814" lon="-0.09313">
        <ele>770.2</ele>
        <time>2022-02-12T09:09:23Z</time>
      </trkpt>
      <trkpt lat="43.07814" lon="-0.09313">
        <ele>770.2</ele>
        <time>2022-02-12T09:09:24Z</time>
      </trkpt>
      <trkpt lat="43.07814" lon="-0.09313">
        <ele>770.2</ele>
        <time>2022-02-12T09:09:25Z</time>
      </trkpt>
      <trkpt lat="43.07814" lon="-0.09313">
        <ele>770.2</ele>
        <time>2022-02-12T09:09:26Z</time>
      </trkpt>
      <trkpt lat="43.07814" lon="-0.09313">
        <ele>770.2</ele>
        <time>2022-02-12T09:09:27Z</time>
      </trkpt>
      <trkpt lat="43.07814" lon="-0.09313">
        <ele>770.2</ele>
        <time>2022-02-12T09:09:28Z</time>
      </trkpt>
      <trkpt lat="43.07814" lon="-0.09313">
        <ele>770.2</ele>
        <time>2022-02-12T09:09:29Z</time>
      </trkpt>
      <trkpt lat="43.07814" lon="-0.09313">
        <ele>770.2</ele>
        <time>2022-02-12T09:09:30Z</time>
      </trkpt>
      <trkpt lat="43.07814" lon="-0.09313">
        <ele>770.2</ele>
        <time>2022-02-12T09:09:31Z</time>
      </trkpt>
      <trkpt lat="43.07814" lon="-0.09313">
        <ele>770.2</ele>
        <time>2022-02-12T09:09:32Z</time>
      </trkpt>
      <trkpt lat="43.07814" lon="-0.09313">
        <ele>770.2</ele>
        <time>2022-02-12T09:09:33Z</time>
      </trkpt>
      <trkpt lat="43.07814" lon="-0.09313">
        <ele>770.2</ele>
        <time>2022-02-12T09:09:34Z</time>
      </trkpt>
      <trkpt lat="43.07814" lon="-0.09313">
        <ele>770.2</ele>
        <time>2022-02-12T09:09:35Z</time>
      </trkpt>
      <trkpt lat="43.07814" lon="-0.09313">
        <ele>770.2</ele>
        <time>2022-02-12T09:09:36Z</time>
      </trkpt>
      <trkpt lat="43.07814" lon="-0.09313">
        <ele>770.2</ele>
        <time>2022-02-12T09:09:37Z</time>
      </trkpt>
      <trkpt lat="43.07814" lon="-0.09313">
        <ele>770.2</ele>
        <time>2022-02-12T09:09:38Z</time>
      </trkpt>
      <trkpt lat="43.07814" lon="-0.09313">
        <ele>770.2</ele>
        <time>2022-02-12T09:09:39Z</time>
      </trkpt>
      <trkpt lat="43.07814" lon="-0.09313">
        <ele>770.2</ele>
        <time>2022-02-12T09:09:40Z</time>
      </trkpt>
      <trkpt lat="43.07814" lon="-0.09313">
        <ele>770.2</ele>
        <time>2022-02-12T09:09:41Z</time>
      </trkpt>
      <trkpt lat="43.07814" lon="-0.09313">
        <ele>770.2</ele>
        <time>2022-02-12T09:09:42Z</time>
      </trkpt>
      <trkpt lat="43.07814" lon="-0.09313">
        <ele>770.2</ele>
        <time>2022-02-12T09:09:43Z</time>
      </trkpt>
      <trkpt lat="43.07814" lon="-0.09313">
        <ele>770.2</ele>
        <time>2022-02-12T09:09:44Z</time>
      </trkpt>
      <trkpt lat="43.07814" lon="-0.09313">
        <ele>770.2</ele>
        <time>2022-02-12T09:09:45Z</time>
      </trkpt>
      <trkpt lat="43.07814" lon="-0.09313">
        <ele>770.4</ele>
        <time>2022-02-12T09:09:46Z</time>
      </trkpt>
      <trkpt lat="43.07812" lon="-0.09314">
        <ele>770.4</ele>
        <time>2022-02-12T09:09:47Z</time>
      </trkpt>
      <trkpt lat="43.07811" lon="-0.09315">
        <ele>770.6</ele>
        <time>2022-02-12T09:09:48Z</time>
      </trkpt>
      <trkpt lat="43.07809" lon="-0.09316">
        <ele>770.6</ele>
        <time>2022-02-12T09:09:49Z</time>
      </trkpt>
      <trkpt lat="43.07808" lon="-0.09317">
        <ele>770.8</ele>
        <time>2022-02-12T09:09:50Z</time>
      </trkpt>
      <trkpt lat="43.07807" lon="-0.09318">
        <ele>770.8</ele>
        <time>2022-02-12T09:09:51Z</time>
      </trkpt>
      <trkpt lat="43.07806" lon="-0.09319">
        <ele>770.8</ele>
        <time>2022-02-12T09:09:52Z</time>
      </trkpt>
      <trkpt lat="43.07804" lon="-0.09319">
        <ele>770.8</ele>
        <time>2022-02-12T09:09:53Z</time>
      </trkpt>
      <trkpt lat="43.07802" lon="-0.0932">
        <ele>770.8</ele>
        <time>2022-02-12T09:09:54Z</time>
      </trkpt>
      <trkpt lat="43.078" lon="-0.09321">
        <ele>771</ele>
        <time>2022-02-12T09:09:55Z</time>
      </trkpt>
      <trkpt lat="43.07799" lon="-0.09322">
        <ele>771</ele>
        <time>2022-02-12T09:09:56Z</time>
      </trkpt>
      <trkpt lat="43.07797" lon="-0.09323">
        <ele>771</ele>
        <time>2022-02-12T09:09:57Z</time>
      </trkpt>
      <trkpt lat="43.07795" lon="-0.09324">
        <ele>771</ele>
        <time>2022-02-12T09:09:58Z</time>
      </trkpt>
      <trkpt lat="43.07793" lon="-0.09326">
        <ele>771</ele>
        <time>2022-02-12T09:09:59Z</time>
      </trkpt>
      <trkpt lat="43.07792" lon="-0.09326">
        <ele>771.2</ele>
        <time>2022-02-12T09:10:00Z</time>
      </trkpt>
      <trkpt lat="43.07791" lon="-0.09327">
        <ele>771.2</ele>
        <time>2022-02-12T09:10:01Z</time>
      </trkpt>
      <trkpt lat="43.0779" lon="-0.09328">
        <ele>771.2</ele>
        <time>2022-02-12T09:10:02Z</time>
      </trkpt>
      <trkpt lat="43.07787" lon="-0.09331">
        <ele>771.2</ele>
        <time>2022-02-12T09:10:03Z</time>
      </trkpt>
      <trkpt lat="43.07785" lon="-0.09332">
        <ele>771.2</ele>
        <time>2022-02-12T09:10:04Z</time>
      </trkpt>
      <trkpt lat="43.07784" lon="-0.09333">
        <ele>771.4</ele>
        <time>2022-02-12T09:10:05Z</time>
      </trkpt>
      <trkpt lat="43.07783" lon="-0.09333">
        <ele>771.4</ele>
        <time>2022-02-12T09:10:06Z</time>
      </trkpt>
      <trkpt lat="43.07782" lon="-0.09333">
        <ele>771.4</ele>
        <time>2022-02-12T09:10:07Z</time>
      </trkpt>
      <trkpt lat="43.07781" lon="-0.09334">
        <ele>771.4</ele>
        <time>2022-02-12T09:10:08Z</time>
      </trkpt>
      <trkpt lat="43.0778" lon="-0.09336">
        <ele>771.4</ele>
        <time>2022-02-12T09:10:09Z</time>
      </trkpt>
      <trkpt lat="43.07779" lon="-0.09337">
        <ele>771.4</ele>
        <time>2022-02-12T09:10:10Z</time>
      </trkpt>
      <trkpt lat="43.07779" lon="-0.09338">
        <ele>771.4</ele>
        <time>2022-02-12T09:10:11Z</time>
      </trkpt>
      <trkpt lat="43.07778" lon="-0.09339">
        <ele>771.4</ele>
        <time>2022-02-12T09:10:12Z</time>
      </trkpt>
      <trkpt lat="43.07777" lon="-0.0934">
        <ele>771.4</ele>
        <time>2022-02-12T09:10:13Z</time>
      </trkpt>
      <trkpt lat="43.07775" lon="-0.09341">
        <ele>771.6</ele>
        <time>2022-02-12T09:10:14Z</time>
      </trkpt>
      <trkpt lat="43.07774" lon="-0.0934">
        <ele>771.6</ele>
        <time>2022-02-12T09:10:15Z</time>
      </trkpt>
      <trkpt lat="43.07773" lon="-0.0934">
        <ele>771.8</ele>
        <time>2022-02-12T09:10:16Z</time>
      </trkpt>
      <trkpt lat="43.07772" lon="-0.0934">
        <ele>771.8</ele>
        <time>2022-02-12T09:10:17Z</time>
      </trkpt>
      <trkpt lat="43.07771" lon="-0.0934">
        <ele>771.8</ele>
        <time>2022-02-12T09:10:18Z</time>
      </trkpt>
      <trkpt lat="43.0777" lon="-0.0934">
        <ele>772</ele>
        <time>2022-02-12T09:10:19Z</time>
      </trkpt>
      <trkpt lat="43.07769" lon="-0.0934">
        <ele>772</ele>
        <time>2022-02-12T09:10:20Z</time>
      </trkpt>
      <trkpt lat="43.07767" lon="-0.0934">
        <ele>772</ele>
        <time>2022-02-12T09:10:21Z</time>
      </trkpt>
      <trkpt lat="43.07765" lon="-0.09341">
        <ele>772</ele>
        <time>2022-02-12T09:10:22Z</time>
      </trkpt>
      <trkpt lat="43.07763" lon="-0.09342">
        <ele>772</ele>
        <time>2022-02-12T09:10:23Z</time>
      </trkpt>
      <trkpt lat="43.07762" lon="-0.09342">
        <ele>772.2</ele>
        <time>2022-02-12T09:10:24Z</time>
      </trkpt>
      <trkpt lat="43.07761" lon="-0.09342">
        <ele>772.2</ele>
        <time>2022-02-12T09:10:25Z</time>
      </trkpt>
      <trkpt lat="43.07759" lon="-0.09342">
        <ele>772.2</ele>
        <time>2022-02-12T09:10:26Z</time>
      </trkpt>
      <trkpt lat="43.07758" lon="-0.09341">
        <ele>772.2</ele>
        <time>2022-02-12T09:10:27Z</time>
      </trkpt>
      <trkpt lat="43.07756" lon="-0.09341">
        <ele>772.4</ele>
        <time>2022-02-12T09:10:28Z</time>
      </trkpt>
      <trkpt lat="43.07754" lon="-0.09341">
        <ele>772.4</ele>
        <time>2022-02-12T09:10:29Z</time>
      </trkpt>
      <trkpt lat="43.07752" lon="-0.09341">
        <ele>772.4</ele>
        <time>2022-02-12T09:10:30Z</time>
      </trkpt>
      <trkpt lat="43.07749" lon="-0.09341">
        <ele>772.4</ele>
        <time>2022-02-12T09:10:31Z</time>
      </trkpt>
      <trkpt lat="43.07746" lon="-0.09341">
        <ele>772.4</ele>
        <time>2022-02-12T09:10:32Z</time>
      </trkpt>
      <trkpt lat="43.07742" lon="-0.09341">
        <ele>772.4</ele>
        <time>2022-02-12T09:10:33Z</time>
      </trkpt>
      <trkpt lat="43.07738" lon="-0.09341">
        <ele>772.4</ele>
        <time>2022-02-12T09:10:34Z</time>
      </trkpt>
      <trkpt lat="43.07737" lon="-0.09343">
        <ele>772.2</ele>
        <time>2022-02-12T09:10:35Z</time>
      </trkpt>
      <trkpt lat="43.07735" lon="-0.09344">
        <ele>772</ele>
        <time>2022-02-12T09:10:36Z</time>
      </trkpt>
      <trkpt lat="43.07734" lon="-0.09344">
        <ele>771.8</ele>
        <time>2022-02-12T09:10:37Z</time>
      </trkpt>
      <trkpt lat="43.07733" lon="-0.09345">
        <ele>771.8</ele>
        <time>2022-02-12T09:10:38Z</time>
      </trkpt>
      <trkpt lat="43.07731" lon="-0.09345">
        <ele>771.6</ele>
        <time>2022-02-12T09:10:39Z</time>
      </trkpt>
      <trkpt lat="43.0773" lon="-0.09346">
        <ele>771.6</ele>
        <time>2022-02-12T09:10:40Z</time>
      </trkpt>
      <trkpt lat="43.07728" lon="-0.09346">
        <ele>771.4</ele>
        <time>2022-02-12T09:10:41Z</time>
      </trkpt>
      <trkpt lat="43.07726" lon="-0.09346">
        <ele>771.4</ele>
        <time>2022-02-12T09:10:42Z</time>
      </trkpt>
      <trkpt lat="43.07724" lon="-0.09347">
        <ele>771.4</ele>
        <time>2022-02-12T09:10:43Z</time>
      </trkpt>
      <trkpt lat="43.07723" lon="-0.09348">
        <ele>771.4</ele>
        <time>2022-02-12T09:10:44Z</time>
      </trkpt>
      <trkpt lat="43.07721" lon="-0.0935">
        <ele>771.4</ele>
        <time>2022-02-12T09:10:45Z</time>
      </trkpt>
      <trkpt lat="43.0772" lon="-0.09351">
        <ele>771.4</ele>
        <time>2022-02-12T09:10:46Z</time>
      </trkpt>
      <trkpt lat="43.07718" lon="-0.09352">
        <ele>771.6</ele>
        <time>2022-02-12T09:10:47Z</time>
      </trkpt>
      <trkpt lat="43.07717" lon="-0.09354">
        <ele>771.6</ele>
        <time>2022-02-12T09:10:48Z</time>
      </trkpt>
      <trkpt lat="43.07716" lon="-0.09355">
        <ele>771.8</ele>
        <time>2022-02-12T09:10:49Z</time>
      </trkpt>
      <trkpt lat="43.07715" lon="-0.09356">
        <ele>771.8</ele>
        <time>2022-02-12T09:10:50Z</time>
      </trkpt>
      <trkpt lat="43.07715" lon="-0.09357">
        <ele>771.8</ele>
        <time>2022-02-12T09:10:51Z</time>
      </trkpt>
      <trkpt lat="43.07713" lon="-0.09357">
        <ele>772</ele>
        <time>2022-02-12T09:10:52Z</time>
      </trkpt>
      <trkpt lat="43.07713" lon="-0.09358">
        <ele>772.4</ele>
        <time>2022-02-12T09:10:53Z</time>
      </trkpt>
      <trkpt lat="43.07712" lon="-0.09359">
        <ele>772.4</ele>
        <time>2022-02-12T09:10:54Z</time>
      </trkpt>
      <trkpt lat="43.07712" lon="-0.09359">
        <ele>772.8</ele>
        <time>2022-02-12T09:10:55Z</time>
      </trkpt>
      <trkpt lat="43.0771" lon="-0.0936">
        <ele>772.8</ele>
        <time>2022-02-12T09:10:56Z</time>
      </trkpt>
      <trkpt lat="43.07709" lon="-0.09362">
        <ele>773.2</ele>
        <time>2022-02-12T09:10:57Z</time>
      </trkpt>
      <trkpt lat="43.07709" lon="-0.09362">
        <ele>773.4</ele>
        <time>2022-02-12T09:10:58Z</time>
      </trkpt>
      <trkpt lat="43.07708" lon="-0.09364">
        <ele>773.6</ele>
        <time>2022-02-12T09:10:59Z</time>
      </trkpt>
      <trkpt lat="43.07706" lon="-0.09365">
        <ele>773.8</ele>
        <time>2022-02-12T09:11:00Z</time>
      </trkpt>
      <trkpt lat="43.07705" lon="-0.09366">
        <ele>773.8</ele>
        <time>2022-02-12T09:11:01Z</time>
      </trkpt>
      <trkpt lat="43.07703" lon="-0.09367">
        <ele>774</ele>
        <time>2022-02-12T09:11:02Z</time>
      </trkpt>
      <trkpt lat="43.07702" lon="-0.09369">
        <ele>774</ele>
        <time>2022-02-12T09:11:03Z</time>
      </trkpt>
      <trkpt lat="43.07701" lon="-0.09371">
        <ele>774.4</ele>
        <time>2022-02-12T09:11:04Z</time>
      </trkpt>
      <trkpt lat="43.077" lon="-0.09372">
        <ele>774.4</ele>
        <time>2022-02-12T09:11:05Z</time>
      </trkpt>
      <trkpt lat="43.07698" lon="-0.09373">
        <ele>774.4</ele>
        <time>2022-02-12T09:11:06Z</time>
      </trkpt>
      <trkpt lat="43.07695" lon="-0.09376">
        <ele>774.4</ele>
        <time>2022-02-12T09:11:07Z</time>
      </trkpt>
      <trkpt lat="43.07692" lon="-0.09377">
        <ele>774.4</ele>
        <time>2022-02-12T09:11:08Z</time>
      </trkpt>
      <trkpt lat="43.0769" lon="-0.09377">
        <ele>774.4</ele>
        <time>2022-02-12T09:11:09Z</time>
      </trkpt>
      <trkpt lat="43.07689" lon="-0.09377">
        <ele>774.4</ele>
        <time>2022-02-12T09:11:10Z</time>
      </trkpt>
      <trkpt lat="43.07688" lon="-0.09376">
        <ele>774.4</ele>
        <time>2022-02-12T09:11:11Z</time>
      </trkpt>
      <trkpt lat="43.07687" lon="-0.09376">
        <ele>774.4</ele>
        <time>2022-02-12T09:11:12Z</time>
      </trkpt>
      <trkpt lat="43.07685" lon="-0.09377">
        <ele>774.4</ele>
        <time>2022-02-12T09:11:13Z</time>
      </trkpt>
      <trkpt lat="43.07683" lon="-0.09379">
        <ele>774.4</ele>
        <time>2022-02-12T09:11:14Z</time>
      </trkpt>
      <trkpt lat="43.07683" lon="-0.09379">
        <ele>774.4</ele>
        <time>2022-02-12T09:11:15Z</time>
      </trkpt>
      <trkpt lat="43.07683" lon="-0.09379">
        <ele>774.4</ele>
        <time>2022-02-12T09:11:16Z</time>
      </trkpt>
      <trkpt lat="43.07682" lon="-0.09381">
        <ele>774.4</ele>
        <time>2022-02-12T09:11:17Z</time>
      </trkpt>
      <trkpt lat="43.07682" lon="-0.09381">
        <ele>774.4</ele>
        <time>2022-02-12T09:11:18Z</time>
      </trkpt>
      <trkpt lat="43.07682" lon="-0.09381">
        <ele>774.4</ele>
        <time>2022-02-12T09:11:19Z</time>
      </trkpt>
      <trkpt lat="43.07682" lon="-0.09381">
        <ele>774.4</ele>
        <time>2022-02-12T09:11:20Z</time>
      </trkpt>
      <trkpt lat="43.07682" lon="-0.09381">
        <ele>774.4</ele>
        <time>2022-02-12T09:11:21Z</time>
      </trkpt>
      <trkpt lat="43.07682" lon="-0.09381">
        <ele>774.4</ele>
        <time>2022-02-12T09:11:22Z</time>
      </trkpt>
      <trkpt lat="43.07681" lon="-0.09381">
        <ele>774.4</ele>
        <time>2022-02-12T09:11:23Z</time>
      </trkpt>
      <trkpt lat="43.07679" lon="-0.0938">
        <ele>774.4</ele>
        <time>2022-02-12T09:11:24Z</time>
      </trkpt>
      <trkpt lat="43.07678" lon="-0.0938">
        <ele>774.4</ele>
        <time>2022-02-12T09:11:25Z</time>
      </trkpt>
      <trkpt lat="43.07677" lon="-0.0938">
        <ele>774.4</ele>
        <time>2022-02-12T09:11:26Z</time>
      </trkpt>
      <trkpt lat="43.07676" lon="-0.0938">
        <ele>774.4</ele>
        <time>2022-02-12T09:11:27Z</time>
      </trkpt>
      <trkpt lat="43.07676" lon="-0.09381">
        <ele>774.4</ele>
        <time>2022-02-12T09:11:28Z</time>
      </trkpt>
      <trkpt lat="43.07675" lon="-0.09381">
        <ele>774.4</ele>
        <time>2022-02-12T09:11:29Z</time>
      </trkpt>
      <trkpt lat="43.07674" lon="-0.09382">
        <ele>774.4</ele>
        <time>2022-02-12T09:11:30Z</time>
      </trkpt>
      <trkpt lat="43.07673" lon="-0.09385">
        <ele>774.4</ele>
        <time>2022-02-12T09:11:31Z</time>
      </trkpt>
      <trkpt lat="43.07671" lon="-0.09386">
        <ele>774.4</ele>
        <time>2022-02-12T09:11:32Z</time>
      </trkpt>
      <trkpt lat="43.07669" lon="-0.09388">
        <ele>774.2</ele>
        <time>2022-02-12T09:11:33Z</time>
      </trkpt>
      <trkpt lat="43.07667" lon="-0.09389">
        <ele>774.2</ele>
        <time>2022-02-12T09:11:34Z</time>
      </trkpt>
      <trkpt lat="43.07664" lon="-0.09391">
        <ele>774</ele>
        <time>2022-02-12T09:11:35Z</time>
      </trkpt>
      <trkpt lat="43.07663" lon="-0.09393">
        <ele>774</ele>
        <time>2022-02-12T09:11:36Z</time>
      </trkpt>
      <trkpt lat="43.07662" lon="-0.09395">
        <ele>773.6</ele>
        <time>2022-02-12T09:11:37Z</time>
      </trkpt>
      <trkpt lat="43.07662" lon="-0.09396">
        <ele>773.6</ele>
        <time>2022-02-12T09:11:38Z</time>
      </trkpt>
      <trkpt lat="43.07661" lon="-0.09396">
        <ele>773.4</ele>
        <time>2022-02-12T09:11:39Z</time>
      </trkpt>
      <trkpt lat="43.0766" lon="-0.09397">
        <ele>773.2</ele>
        <time>2022-02-12T09:11:40Z</time>
      </trkpt>
      <trkpt lat="43.07658" lon="-0.09397">
        <ele>773</ele>
        <time>2022-02-12T09:11:41Z</time>
      </trkpt>
      <trkpt lat="43.07657" lon="-0.09397">
        <ele>772.8</ele>
        <time>2022-02-12T09:11:42Z</time>
      </trkpt>
      <trkpt lat="43.07655" lon="-0.09397">
        <ele>772.6</ele>
        <time>2022-02-12T09:11:43Z</time>
      </trkpt>
      <trkpt lat="43.07653" lon="-0.09397">
        <ele>772.6</ele>
        <time>2022-02-12T09:11:44Z</time>
      </trkpt>
      <trkpt lat="43.07651" lon="-0.09397">
        <ele>772.4</ele>
        <time>2022-02-12T09:11:45Z</time>
      </trkpt>
      <trkpt lat="43.0765" lon="-0.09397">
        <ele>772.2</ele>
        <time>2022-02-12T09:11:46Z</time>
      </trkpt>
      <trkpt lat="43.0765" lon="-0.09396">
        <ele>772.2</ele>
        <time>2022-02-12T09:11:47Z</time>
      </trkpt>
      <trkpt lat="43.07648" lon="-0.09398">
        <ele>772</ele>
        <time>2022-02-12T09:11:48Z</time>
      </trkpt>
      <trkpt lat="43.07646" lon="-0.09398">
        <ele>772</ele>
        <time>2022-02-12T09:11:49Z</time>
      </trkpt>
      <trkpt lat="43.07644" lon="-0.09399">
        <ele>772</ele>
        <time>2022-02-12T09:11:50Z</time>
      </trkpt>
      <trkpt lat="43.07642" lon="-0.09399">
        <ele>771.8</ele>
        <time>2022-02-12T09:11:51Z</time>
      </trkpt>
      <trkpt lat="43.07638" lon="-0.094">
        <ele>771.8</ele>
        <time>2022-02-12T09:11:52Z</time>
      </trkpt>
      <trkpt lat="43.07634" lon="-0.094">
        <ele>771.6</ele>
        <time>2022-02-12T09:11:53Z</time>
      </trkpt>
      <trkpt lat="43.0763" lon="-0.09401">
        <ele>771.6</ele>
        <time>2022-02-12T09:11:54Z</time>
      </trkpt>
      <trkpt lat="43.07625" lon="-0.09402">
        <ele>771.2</ele>
        <time>2022-02-12T09:11:55Z</time>
      </trkpt>
      <trkpt lat="43.07622" lon="-0.09402">
        <ele>770.8</ele>
        <time>2022-02-12T09:11:56Z</time>
      </trkpt>
      <trkpt lat="43.07619" lon="-0.09402">
        <ele>770.6</ele>
        <time>2022-02-12T09:11:57Z</time>
      </trkpt>
      <trkpt lat="43.07615" lon="-0.09402">
        <ele>770.4</ele>
        <time>2022-02-12T09:11:58Z</time>
      </trkpt>
      <trkpt lat="43.07612" lon="-0.09403">
        <ele>770.4</ele>
        <time>2022-02-12T09:11:59Z</time>
      </trkpt>
      <trkpt lat="43.07608" lon="-0.09405">
        <ele>770.2</ele>
        <time>2022-02-12T09:12:00Z</time>
      </trkpt>
      <trkpt lat="43.07605" lon="-0.09406">
        <ele>769.8</ele>
        <time>2022-02-12T09:12:01Z</time>
      </trkpt>
      <trkpt lat="43.07601" lon="-0.09406">
        <ele>769.6</ele>
        <time>2022-02-12T09:12:02Z</time>
      </trkpt>
      <trkpt lat="43.07598" lon="-0.09405">
        <ele>769.2</ele>
        <time>2022-02-12T09:12:03Z</time>
      </trkpt>
      <trkpt lat="43.07596" lon="-0.09406">
        <ele>769</ele>
        <time>2022-02-12T09:12:04Z</time>
      </trkpt>
      <trkpt lat="43.07594" lon="-0.09407">
        <ele>768.8</ele>
        <time>2022-02-12T09:12:05Z</time>
      </trkpt>
      <trkpt lat="43.07591" lon="-0.09407">
        <ele>768.6</ele>
        <time>2022-02-12T09:12:06Z</time>
      </trkpt>
      <trkpt lat="43.07591" lon="-0.09407">
        <ele>768.2</ele>
        <time>2022-02-12T09:12:07Z</time>
      </trkpt>
      <trkpt lat="43.0759" lon="-0.09408">
        <ele>768</ele>
        <time>2022-02-12T09:12:08Z</time>
      </trkpt>
      <trkpt lat="43.07588" lon="-0.09406">
        <ele>767.8</ele>
        <time>2022-02-12T09:12:09Z</time>
      </trkpt>
      <trkpt lat="43.07587" lon="-0.09406">
        <ele>767.6</ele>
        <time>2022-02-12T09:12:10Z</time>
      </trkpt>
      <trkpt lat="43.07585" lon="-0.09407">
        <ele>767.2</ele>
        <time>2022-02-12T09:12:11Z</time>
      </trkpt>
      <trkpt lat="43.07584" lon="-0.09407">
        <ele>767</ele>
        <time>2022-02-12T09:12:12Z</time>
      </trkpt>
      <trkpt lat="43.07583" lon="-0.09408">
        <ele>766.8</ele>
        <time>2022-02-12T09:12:13Z</time>
      </trkpt>
      <trkpt lat="43.07582" lon="-0.09408">
        <ele>766.8</ele>
        <time>2022-02-12T09:12:14Z</time>
      </trkpt>
      <trkpt lat="43.07581" lon="-0.09409">
        <ele>766.6</ele>
        <time>2022-02-12T09:12:15Z</time>
      </trkpt>
      <trkpt lat="43.07581" lon="-0.09409">
        <ele>766.6</ele>
        <time>2022-02-12T09:12:16Z</time>
      </trkpt>
      <trkpt lat="43.07581" lon="-0.09409">
        <ele>766.4</ele>
        <time>2022-02-12T09:12:17Z</time>
      </trkpt>
      <trkpt lat="43.07581" lon="-0.09409">
        <ele>766.4</ele>
        <time>2022-02-12T09:12:18Z</time>
      </trkpt>
      <trkpt lat="43.07581" lon="-0.09409">
        <ele>766.2</ele>
        <time>2022-02-12T09:12:19Z</time>
      </trkpt>
      <trkpt lat="43.0758" lon="-0.09408">
        <ele>766</ele>
        <time>2022-02-12T09:12:20Z</time>
      </trkpt>
      <trkpt lat="43.07579" lon="-0.09407">
        <ele>765.8</ele>
        <time>2022-02-12T09:12:21Z</time>
      </trkpt>
      <trkpt lat="43.07578" lon="-0.09407">
        <ele>765.8</ele>
        <time>2022-02-12T09:12:22Z</time>
      </trkpt>
      <trkpt lat="43.07576" lon="-0.09405">
        <ele>765.6</ele>
        <time>2022-02-12T09:12:23Z</time>
      </trkpt>
      <trkpt lat="43.07575" lon="-0.09403">
        <ele>765.6</ele>
        <time>2022-02-12T09:12:24Z</time>
      </trkpt>
      <trkpt lat="43.07573" lon="-0.09402">
        <ele>765.6</ele>
        <time>2022-02-12T09:12:25Z</time>
      </trkpt>
      <trkpt lat="43.07571" lon="-0.094">
        <ele>765.4</ele>
        <time>2022-02-12T09:12:26Z</time>
      </trkpt>
      <trkpt lat="43.0757" lon="-0.094">
        <ele>765.4</ele>
        <time>2022-02-12T09:12:27Z</time>
      </trkpt>
      <trkpt lat="43.07568" lon="-0.094">
        <ele>765.2</ele>
        <time>2022-02-12T09:12:28Z</time>
      </trkpt>
      <trkpt lat="43.07567" lon="-0.09401">
        <ele>765.2</ele>
        <time>2022-02-12T09:12:29Z</time>
      </trkpt>
      <trkpt lat="43.07565" lon="-0.09401">
        <ele>764.8</ele>
        <time>2022-02-12T09:12:30Z</time>
      </trkpt>
      <trkpt lat="43.07563" lon="-0.094">
        <ele>764.8</ele>
        <time>2022-02-12T09:12:31Z</time>
      </trkpt>
      <trkpt lat="43.07562" lon="-0.094">
        <ele>764.4</ele>
        <time>2022-02-12T09:12:32Z</time>
      </trkpt>
      <trkpt lat="43.07562" lon="-0.094">
        <ele>764.4</ele>
        <time>2022-02-12T09:12:33Z</time>
      </trkpt>
      <trkpt lat="43.07562" lon="-0.094">
        <ele>764.2</ele>
        <time>2022-02-12T09:12:34Z</time>
      </trkpt>
      <trkpt lat="43.07562" lon="-0.094">
        <ele>764</ele>
        <time>2022-02-12T09:12:35Z</time>
      </trkpt>
      <trkpt lat="43.07562" lon="-0.094">
        <ele>764</ele>
        <time>2022-02-12T09:12:36Z</time>
      </trkpt>
      <trkpt lat="43.07562" lon="-0.094">
        <ele>764</ele>
        <time>2022-02-12T09:12:37Z</time>
      </trkpt>
      <trkpt lat="43.07562" lon="-0.094">
        <ele>763.8</ele>
        <time>2022-02-12T09:12:38Z</time>
      </trkpt>
      <trkpt lat="43.07562" lon="-0.094">
        <ele>763.8</ele>
        <time>2022-02-12T09:12:39Z</time>
      </trkpt>
      <trkpt lat="43.07562" lon="-0.094">
        <ele>763.6</ele>
        <time>2022-02-12T09:12:40Z</time>
      </trkpt>
      <trkpt lat="43.07562" lon="-0.094">
        <ele>763.6</ele>
        <time>2022-02-12T09:12:41Z</time>
      </trkpt>
      <trkpt lat="43.07562" lon="-0.094">
        <ele>763.6</ele>
        <time>2022-02-12T09:12:42Z</time>
      </trkpt>
      <trkpt lat="43.07562" lon="-0.094">
        <ele>763.6</ele>
        <time>2022-02-12T09:12:43Z</time>
      </trkpt>
      <trkpt lat="43.07561" lon="-0.09399">
        <ele>763.4</ele>
        <time>2022-02-12T09:12:44Z</time>
      </trkpt>
      <trkpt lat="43.07561" lon="-0.09398">
        <ele>763.4</ele>
        <time>2022-02-12T09:12:45Z</time>
      </trkpt>
      <trkpt lat="43.0756" lon="-0.09397">
        <ele>763.4</ele>
        <time>2022-02-12T09:12:46Z</time>
      </trkpt>
      <trkpt lat="43.0756" lon="-0.09396">
        <ele>763.4</ele>
        <time>2022-02-12T09:12:47Z</time>
      </trkpt>
      <trkpt lat="43.07559" lon="-0.09395">
        <ele>763.4</ele>
        <time>2022-02-12T09:12:48Z</time>
      </trkpt>
      <trkpt lat="43.07558" lon="-0.09394">
        <ele>763.4</ele>
        <time>2022-02-12T09:12:49Z</time>
      </trkpt>
      <trkpt lat="43.07557" lon="-0.09393">
        <ele>763.4</ele>
        <time>2022-02-12T09:12:50Z</time>
      </trkpt>
      <trkpt lat="43.07556" lon="-0.09392">
        <ele>763.2</ele>
        <time>2022-02-12T09:12:51Z</time>
      </trkpt>
      <trkpt lat="43.07555" lon="-0.09391">
        <ele>763.2</ele>
        <time>2022-02-12T09:12:52Z</time>
      </trkpt>
      <trkpt lat="43.07554" lon="-0.09391">
        <ele>763.2</ele>
        <time>2022-02-12T09:12:53Z</time>
      </trkpt>
      <trkpt lat="43.07553" lon="-0.09391">
        <ele>763.2</ele>
        <time>2022-02-12T09:12:54Z</time>
      </trkpt>
      <trkpt lat="43.07552" lon="-0.09391">
        <ele>763.2</ele>
        <time>2022-02-12T09:12:55Z</time>
      </trkpt>
      <trkpt lat="43.07552" lon="-0.09391">
        <ele>763.2</ele>
        <time>2022-02-12T09:12:56Z</time>
      </trkpt>
      <trkpt lat="43.07552" lon="-0.09391">
        <ele>763</ele>
        <time>2022-02-12T09:12:57Z</time>
      </trkpt>
      <trkpt lat="43.07552" lon="-0.09391">
        <ele>763</ele>
        <time>2022-02-12T09:12:58Z</time>
      </trkpt>
      <trkpt lat="43.07552" lon="-0.09391">
        <ele>762.8</ele>
        <time>2022-02-12T09:12:59Z</time>
      </trkpt>
      <trkpt lat="43.07552" lon="-0.09391">
        <ele>762.8</ele>
        <time>2022-02-12T09:13:00Z</time>
      </trkpt>
      <trkpt lat="43.07552" lon="-0.09391">
        <ele>762.8</ele>
        <time>2022-02-12T09:13:01Z</time>
      </trkpt>
      <trkpt lat="43.07552" lon="-0.09391">
        <ele>762.6</ele>
        <time>2022-02-12T09:13:02Z</time>
      </trkpt>
      <trkpt lat="43.07552" lon="-0.09391">
        <ele>762.6</ele>
        <time>2022-02-12T09:13:03Z</time>
      </trkpt>
      <trkpt lat="43.07552" lon="-0.0939">
        <ele>762.6</ele>
        <time>2022-02-12T09:13:04Z</time>
      </trkpt>
      <trkpt lat="43.07552" lon="-0.0939">
        <ele>762.6</ele>
        <time>2022-02-12T09:13:05Z</time>
      </trkpt>
      <trkpt lat="43.07552" lon="-0.09389">
        <ele>762.6</ele>
        <time>2022-02-12T09:13:06Z</time>
      </trkpt>
      <trkpt lat="43.07551" lon="-0.09388">
        <ele>762.6</ele>
        <time>2022-02-12T09:13:07Z</time>
      </trkpt>
      <trkpt lat="43.07551" lon="-0.09387">
        <ele>762.6</ele>
        <time>2022-02-12T09:13:08Z</time>
      </trkpt>
      <trkpt lat="43.07551" lon="-0.09386">
        <ele>762.6</ele>
        <time>2022-02-12T09:13:09Z</time>
      </trkpt>
      <trkpt lat="43.0755" lon="-0.09384">
        <ele>762.6</ele>
        <time>2022-02-12T09:13:10Z</time>
      </trkpt>
      <trkpt lat="43.07549" lon="-0.09384">
        <ele>762.6</ele>
        <time>2022-02-12T09:13:11Z</time>
      </trkpt>
      <trkpt lat="43.07549" lon="-0.09384">
        <ele>762.4</ele>
        <time>2022-02-12T09:13:12Z</time>
      </trkpt>
      <trkpt lat="43.07549" lon="-0.09384">
        <ele>762.4</ele>
        <time>2022-02-12T09:13:13Z</time>
      </trkpt>
      <trkpt lat="43.07549" lon="-0.09384">
        <ele>762.4</ele>
        <time>2022-02-12T09:13:14Z</time>
      </trkpt>
      <trkpt lat="43.07549" lon="-0.09384">
        <ele>762.4</ele>
        <time>2022-02-12T09:13:15Z</time>
      </trkpt>
      <trkpt lat="43.07549" lon="-0.09384">
        <ele>762.4</ele>
        <time>2022-02-12T09:13:16Z</time>
      </trkpt>
      <trkpt lat="43.07549" lon="-0.09384">
        <ele>762.4</ele>
        <time>2022-02-12T09:13:17Z</time>
      </trkpt>
      <trkpt lat="43.07548" lon="-0.09382">
        <ele>762.4</ele>
        <time>2022-02-12T09:13:18Z</time>
      </trkpt>
      <trkpt lat="43.07548" lon="-0.09381">
        <ele>762.4</ele>
        <time>2022-02-12T09:13:19Z</time>
      </trkpt>
      <trkpt lat="43.07548" lon="-0.09381">
        <ele>762.2</ele>
        <time>2022-02-12T09:13:20Z</time>
      </trkpt>
      <trkpt lat="43.07548" lon="-0.09381">
        <ele>762.2</ele>
        <time>2022-02-12T09:13:21Z</time>
      </trkpt>
      <trkpt lat="43.07548" lon="-0.09381">
        <ele>762.2</ele>
        <time>2022-02-12T09:13:22Z</time>
      </trkpt>
      <trkpt lat="43.07547" lon="-0.09379">
        <ele>762.2</ele>
        <time>2022-02-12T09:13:23Z</time>
      </trkpt>
      <trkpt lat="43.07546" lon="-0.09377">
        <ele>762</ele>
        <time>2022-02-12T09:13:24Z</time>
      </trkpt>
      <trkpt lat="43.07544" lon="-0.09375">
        <ele>762</ele>
        <time>2022-02-12T09:13:25Z</time>
      </trkpt>
      <trkpt lat="43.07543" lon="-0.09374">
        <ele>762</ele>
        <time>2022-02-12T09:13:26Z</time>
      </trkpt>
      <trkpt lat="43.07543" lon="-0.09373">
        <ele>761.8</ele>
        <time>2022-02-12T09:13:27Z</time>
      </trkpt>
      <trkpt lat="43.07543" lon="-0.09373">
        <ele>761.8</ele>
        <time>2022-02-12T09:13:28Z</time>
      </trkpt>
      <trkpt lat="43.07542" lon="-0.09372">
        <ele>761.2</ele>
        <time>2022-02-12T09:13:29Z</time>
      </trkpt>
      <trkpt lat="43.07542" lon="-0.09372">
        <ele>761</ele>
        <time>2022-02-12T09:13:30Z</time>
      </trkpt>
      <trkpt lat="43.07542" lon="-0.09371">
        <ele>760.6</ele>
        <time>2022-02-12T09:13:31Z</time>
      </trkpt>
      <trkpt lat="43.07542" lon="-0.0937">
        <ele>760.6</ele>
        <time>2022-02-12T09:13:32Z</time>
      </trkpt>
      <trkpt lat="43.07542" lon="-0.09369">
        <ele>760.4</ele>
        <time>2022-02-12T09:13:33Z</time>
      </trkpt>
      <trkpt lat="43.07542" lon="-0.09369">
        <ele>760.2</ele>
        <time>2022-02-12T09:13:34Z</time>
      </trkpt>
      <trkpt lat="43.07542" lon="-0.09369">
        <ele>760.2</ele>
        <time>2022-02-12T09:13:35Z</time>
      </trkpt>
      <trkpt lat="43.07542" lon="-0.09369">
        <ele>760.2</ele>
        <time>2022-02-12T09:13:36Z</time>
      </trkpt>
      <trkpt lat="43.07542" lon="-0.09369">
        <ele>760</ele>
        <time>2022-02-12T09:13:37Z</time>
      </trkpt>
      <trkpt lat="43.07542" lon="-0.09369">
        <ele>760.2</ele>
        <time>2022-02-12T09:13:38Z</time>
      </trkpt>
      <trkpt lat="43.07542" lon="-0.09369">
        <ele>760.2</ele>
        <time>2022-02-12T09:13:39Z</time>
      </trkpt>
      <trkpt lat="43.07542" lon="-0.09369">
        <ele>760</ele>
        <time>2022-02-12T09:13:40Z</time>
      </trkpt>
      <trkpt lat="43.07542" lon="-0.09369">
        <ele>760.2</ele>
        <time>2022-02-12T09:13:41Z</time>
      </trkpt>
      <trkpt lat="43.07542" lon="-0.09369">
        <ele>760.2</ele>
        <time>2022-02-12T09:13:42Z</time>
      </trkpt>
      <trkpt lat="43.07542" lon="-0.09369">
        <ele>760</ele>
        <time>2022-02-12T09:13:43Z</time>
      </trkpt>
      <trkpt lat="43.07542" lon="-0.09369">
        <ele>760.2</ele>
        <time>2022-02-12T09:13:44Z</time>
      </trkpt>
      <trkpt lat="43.07542" lon="-0.09369">
        <ele>760.2</ele>
        <time>2022-02-12T09:13:45Z</time>
      </trkpt>
      <trkpt lat="43.07542" lon="-0.09369">
        <ele>760.2</ele>
        <time>2022-02-12T09:13:46Z</time>
      </trkpt>
      <trkpt lat="43.07542" lon="-0.09369">
        <ele>760.2</ele>
        <time>2022-02-12T09:13:47Z</time>
      </trkpt>
      <trkpt lat="43.07542" lon="-0.09369">
        <ele>760.2</ele>
        <time>2022-02-12T09:13:48Z</time>
      </trkpt>
      <trkpt lat="43.07542" lon="-0.09369">
        <ele>760.2</ele>
        <time>2022-02-12T09:13:49Z</time>
      </trkpt>
      <trkpt lat="43.07542" lon="-0.09369">
        <ele>760.2</ele>
        <time>2022-02-12T09:13:50Z</time>
      </trkpt>
      <trkpt lat="43.07542" lon="-0.09369">
        <ele>760.2</ele>
        <time>2022-02-12T09:13:51Z</time>
      </trkpt>
      <trkpt lat="43.07542" lon="-0.09369">
        <ele>760.2</ele>
        <time>2022-02-12T09:13:52Z</time>
      </trkpt>
      <trkpt lat="43.07542" lon="-0.09369">
        <ele>760.2</ele>
        <time>2022-02-12T09:13:53Z</time>
      </trkpt>
      <trkpt lat="43.07542" lon="-0.09369">
        <ele>760</ele>
        <time>2022-02-12T09:13:54Z</time>
      </trkpt>
      <trkpt lat="43.07542" lon="-0.09369">
        <ele>760</ele>
        <time>2022-02-12T09:13:55Z</time>
      </trkpt>
      <trkpt lat="43.07542" lon="-0.09369">
        <ele>760</ele>
        <time>2022-02-12T09:13:56Z</time>
      </trkpt>
      <trkpt lat="43.07542" lon="-0.09369">
        <ele>760</ele>
        <time>2022-02-12T09:13:57Z</time>
      </trkpt>
      <trkpt lat="43.07542" lon="-0.09369">
        <ele>760</ele>
        <time>2022-02-12T09:13:58Z</time>
      </trkpt>
      <trkpt lat="43.07542" lon="-0.09369">
        <ele>759.8</ele>
        <time>2022-02-12T09:13:59Z</time>
      </trkpt>
      <trkpt lat="43.07542" lon="-0.09369">
        <ele>759.8</ele>
        <time>2022-02-12T09:14:00Z</time>
      </trkpt>
      <trkpt lat="43.07542" lon="-0.09368">
        <ele>759.8</ele>
        <time>2022-02-12T09:14:01Z</time>
      </trkpt>
      <trkpt lat="43.07542" lon="-0.09368">
        <ele>759.8</ele>
        <time>2022-02-12T09:14:02Z</time>
      </trkpt>
      <trkpt lat="43.07542" lon="-0.09368">
        <ele>759.8</ele>
        <time>2022-02-12T09:14:03Z</time>
      </trkpt>
      <trkpt lat="43.07542" lon="-0.09368">
        <ele>759.8</ele>
        <time>2022-02-12T09:14:04Z</time>
      </trkpt>
      <trkpt lat="43.07542" lon="-0.09368">
        <ele>759.6</ele>
        <time>2022-02-12T09:14:05Z</time>
      </trkpt>
      <trkpt lat="43.07542" lon="-0.09368">
        <ele>759.6</ele>
        <time>2022-02-12T09:14:06Z</time>
      </trkpt>
      <trkpt lat="43.07542" lon="-0.09368">
        <ele>759.6</ele>
        <time>2022-02-12T09:14:07Z</time>
      </trkpt>
      <trkpt lat="43.07542" lon="-0.09368">
        <ele>759.6</ele>
        <time>2022-02-12T09:14:08Z</time>
      </trkpt>
      <trkpt lat="43.07542" lon="-0.09368">
        <ele>759.6</ele>
        <time>2022-02-12T09:14:09Z</time>
      </trkpt>
      <trkpt lat="43.07542" lon="-0.09368">
        <ele>759.6</ele>
        <time>2022-02-12T09:14:10Z</time>
      </trkpt>
      <trkpt lat="43.07542" lon="-0.09368">
        <ele>759.6</ele>
        <time>2022-02-12T09:14:11Z</time>
      </trkpt>
      <trkpt lat="43.07542" lon="-0.09368">
        <ele>759.6</ele>
        <time>2022-02-12T09:14:12Z</time>
      </trkpt>
      <trkpt lat="43.07542" lon="-0.09368">
        <ele>759.6</ele>
        <time>2022-02-12T09:14:13Z</time>
      </trkpt>
      <trkpt lat="43.07541" lon="-0.09368">
        <ele>759.6</ele>
        <time>2022-02-12T09:14:14Z</time>
      </trkpt>
      <trkpt lat="43.07541" lon="-0.09368">
        <ele>759.6</ele>
        <time>2022-02-12T09:14:15Z</time>
      </trkpt>
      <trkpt lat="43.07541" lon="-0.09368">
        <ele>759.6</ele>
        <time>2022-02-12T09:14:16Z</time>
      </trkpt>
      <trkpt lat="43.07541" lon="-0.09368">
        <ele>759.6</ele>
        <time>2022-02-12T09:14:17Z</time>
      </trkpt>
      <trkpt lat="43.07541" lon="-0.09368">
        <ele>759.6</ele>
        <time>2022-02-12T09:14:18Z</time>
      </trkpt>
      <trkpt lat="43.07541" lon="-0.09368">
        <ele>759.6</ele>
        <time>2022-02-12T09:14:19Z</time>
      </trkpt>
      <trkpt lat="43.07541" lon="-0.09368">
        <ele>759.6</ele>
        <time>2022-02-12T09:14:20Z</time>
      </trkpt>
      <trkpt lat="43.07541" lon="-0.09368">
        <ele>759.4</ele>
        <time>2022-02-12T09:14:21Z</time>
      </trkpt>
      <trkpt lat="43.07541" lon="-0.09368">
        <ele>759.4</ele>
        <time>2022-02-12T09:14:22Z</time>
      </trkpt>
      <trkpt lat="43.07541" lon="-0.09368">
        <ele>759.4</ele>
        <time>2022-02-12T09:14:23Z</time>
      </trkpt>
      <trkpt lat="43.07541" lon="-0.09368">
        <ele>759.4</ele>
        <time>2022-02-12T09:14:24Z</time>
      </trkpt>
      <trkpt lat="43.07541" lon="-0.09368">
        <ele>759.4</ele>
        <time>2022-02-12T09:14:25Z</time>
      </trkpt>
      <trkpt lat="43.07541" lon="-0.09368">
        <ele>759.4</ele>
        <time>2022-02-12T09:14:26Z</time>
      </trkpt>
      <trkpt lat="43.07541" lon="-0.09368">
        <ele>759.4</ele>
        <time>2022-02-12T09:14:27Z</time>
      </trkpt>
      <trkpt lat="43.0754" lon="-0.09368">
        <ele>759.4</ele>
        <time>2022-02-12T09:14:28Z</time>
      </trkpt>
      <trkpt lat="43.07539" lon="-0.09367">
        <ele>759.4</ele>
        <time>2022-02-12T09:14:29Z</time>
      </trkpt>
      <trkpt lat="43.07539" lon="-0.09367">
        <ele>759.6</ele>
        <time>2022-02-12T09:14:30Z</time>
      </trkpt>
      <trkpt lat="43.07539" lon="-0.09367">
        <ele>759.6</ele>
        <time>2022-02-12T09:14:31Z</time>
      </trkpt>
      <trkpt lat="43.07539" lon="-0.09367">
        <ele>759.6</ele>
        <time>2022-02-12T09:14:32Z</time>
      </trkpt>
      <trkpt lat="43.07539" lon="-0.09367">
        <ele>759.6</ele>
        <time>2022-02-12T09:14:33Z</time>
      </trkpt>
      <trkpt lat="43.07539" lon="-0.09367">
        <ele>759.6</ele>
        <time>2022-02-12T09:14:34Z</time>
      </trkpt>
      <trkpt lat="43.07539" lon="-0.09367">
        <ele>759.6</ele>
        <time>2022-02-12T09:14:35Z</time>
      </trkpt>
      <trkpt lat="43.07539" lon="-0.09367">
        <ele>759.6</ele>
        <time>2022-02-12T09:14:36Z</time>
      </trkpt>
      <trkpt lat="43.07539" lon="-0.09367">
        <ele>759.6</ele>
        <time>2022-02-12T09:14:37Z</time>
      </trkpt>
      <trkpt lat="43.07539" lon="-0.09367">
        <ele>759.6</ele>
        <time>2022-02-12T09:14:38Z</time>
      </trkpt>
      <trkpt lat="43.07539" lon="-0.09367">
        <ele>759.6</ele>
        <time>2022-02-12T09:14:39Z</time>
      </trkpt>
      <trkpt lat="43.07539" lon="-0.09367">
        <ele>759.6</ele>
        <time>2022-02-12T09:14:40Z</time>
      </trkpt>
      <trkpt lat="43.07539" lon="-0.09367">
        <ele>759.6</ele>
        <time>2022-02-12T09:14:41Z</time>
      </trkpt>
      <trkpt lat="43.07539" lon="-0.09367">
        <ele>759.6</ele>
        <time>2022-02-12T09:14:42Z</time>
      </trkpt>
      <trkpt lat="43.07539" lon="-0.09367">
        <ele>759.6</ele>
        <time>2022-02-12T09:14:43Z</time>
      </trkpt>
      <trkpt lat="43.07539" lon="-0.09367">
        <ele>759.6</ele>
        <time>2022-02-12T09:14:44Z</time>
      </trkpt>
      <trkpt lat="43.07539" lon="-0.09367">
        <ele>759.6</ele>
        <time>2022-02-12T09:14:45Z</time>
      </trkpt>
      <trkpt lat="43.07539" lon="-0.09367">
        <ele>759.6</ele>
        <time>2022-02-12T09:14:46Z</time>
      </trkpt>
      <trkpt lat="43.07539" lon="-0.09367">
        <ele>759.6</ele>
        <time>2022-02-12T09:14:47Z</time>
      </trkpt>
      <trkpt lat="43.07537" lon="-0.09367">
        <ele>759.4</ele>
        <time>2022-02-12T09:14:48Z</time>
      </trkpt>
      <trkpt lat="43.07535" lon="-0.09366">
        <ele>759.4</ele>
        <time>2022-02-12T09:14:49Z</time>
      </trkpt>
      <trkpt lat="43.07534" lon="-0.09365">
        <ele>759.4</ele>
        <time>2022-02-12T09:14:50Z</time>
      </trkpt>
      <trkpt lat="43.07532" lon="-0.09365">
        <ele>759.2</ele>
        <time>2022-02-12T09:14:51Z</time>
      </trkpt>
      <trkpt lat="43.0753" lon="-0.09364">
        <ele>759</ele>
        <time>2022-02-12T09:14:52Z</time>
      </trkpt>
      <trkpt lat="43.07528" lon="-0.09363">
        <ele>758.8</ele>
        <time>2022-02-12T09:14:53Z</time>
      </trkpt>
      <trkpt lat="43.07526" lon="-0.09363">
        <ele>758.6</ele>
        <time>2022-02-12T09:14:54Z</time>
      </trkpt>
      <trkpt lat="43.07526" lon="-0.09363">
        <ele>758.4</ele>
        <time>2022-02-12T09:14:55Z</time>
      </trkpt>
      <trkpt lat="43.07523" lon="-0.09362">
        <ele>758</ele>
        <time>2022-02-12T09:14:56Z</time>
      </trkpt>
      <trkpt lat="43.0752" lon="-0.09361">
        <ele>757.6</ele>
        <time>2022-02-12T09:14:57Z</time>
      </trkpt>
      <trkpt lat="43.07518" lon="-0.0936">
        <ele>757.2</ele>
        <time>2022-02-12T09:14:58Z</time>
      </trkpt>
      <trkpt lat="43.07516" lon="-0.09357">
        <ele>757</ele>
        <time>2022-02-12T09:14:59Z</time>
      </trkpt>
      <trkpt lat="43.07514" lon="-0.09355">
        <ele>756.6</ele>
        <time>2022-02-12T09:15:00Z</time>
      </trkpt>
      <trkpt lat="43.07512" lon="-0.09353">
        <ele>756</ele>
        <time>2022-02-12T09:15:01Z</time>
      </trkpt>
      <trkpt lat="43.07509" lon="-0.09351">
        <ele>755.6</ele>
        <time>2022-02-12T09:15:02Z</time>
      </trkpt>
      <trkpt lat="43.07505" lon="-0.0935">
        <ele>754.6</ele>
        <time>2022-02-12T09:15:03Z</time>
      </trkpt>
      <trkpt lat="43.07501" lon="-0.09349">
        <ele>754.2</ele>
        <time>2022-02-12T09:15:04Z</time>
      </trkpt>
      <trkpt lat="43.07498" lon="-0.09348">
        <ele>753.4</ele>
        <time>2022-02-12T09:15:05Z</time>
      </trkpt>
      <trkpt lat="43.07497" lon="-0.09349">
        <ele>753</ele>
        <time>2022-02-12T09:15:06Z</time>
      </trkpt>
      <trkpt lat="43.07496" lon="-0.09349">
        <ele>752.4</ele>
        <time>2022-02-12T09:15:07Z</time>
      </trkpt>
      <trkpt lat="43.07496" lon="-0.09349">
        <ele>752</ele>
        <time>2022-02-12T09:15:08Z</time>
      </trkpt>
      <trkpt lat="43.07496" lon="-0.09349">
        <ele>751.2</ele>
        <time>2022-02-12T09:15:09Z</time>
      </trkpt>
      <trkpt lat="43.07496" lon="-0.09349">
        <ele>750.8</ele>
        <time>2022-02-12T09:15:10Z</time>
      </trkpt>
      <trkpt lat="43.07496" lon="-0.09349">
        <ele>750.2</ele>
        <time>2022-02-12T09:15:11Z</time>
      </trkpt>
      <trkpt lat="43.07496" lon="-0.09349">
        <ele>749.8</ele>
        <time>2022-02-12T09:15:12Z</time>
      </trkpt>
      <trkpt lat="43.07496" lon="-0.09349">
        <ele>749.4</ele>
        <time>2022-02-12T09:15:13Z</time>
      </trkpt>
      <trkpt lat="43.07496" lon="-0.09349">
        <ele>749.2</ele>
        <time>2022-02-12T09:15:14Z</time>
      </trkpt>
      <trkpt lat="43.07496" lon="-0.09349">
        <ele>749</ele>
        <time>2022-02-12T09:15:15Z</time>
      </trkpt>
      <trkpt lat="43.07496" lon="-0.09349">
        <ele>748.8</ele>
        <time>2022-02-12T09:15:16Z</time>
      </trkpt>
      <trkpt lat="43.07496" lon="-0.09349">
        <ele>748.8</ele>
        <time>2022-02-12T09:15:17Z</time>
      </trkpt>
      <trkpt lat="43.07496" lon="-0.09349">
        <ele>748.6</ele>
        <time>2022-02-12T09:15:18Z</time>
      </trkpt>
      <trkpt lat="43.07496" lon="-0.09349">
        <ele>748.6</ele>
        <time>2022-02-12T09:15:19Z</time>
      </trkpt>
      <trkpt lat="43.07496" lon="-0.09349">
        <ele>748.6</ele>
        <time>2022-02-12T09:15:20Z</time>
      </trkpt>
      <trkpt lat="43.07496" lon="-0.09349">
        <ele>748.4</ele>
        <time>2022-02-12T09:15:21Z</time>
      </trkpt>
      <trkpt lat="43.07496" lon="-0.09349">
        <ele>748.4</ele>
        <time>2022-02-12T09:15:22Z</time>
      </trkpt>
      <trkpt lat="43.07496" lon="-0.09349">
        <ele>748.4</ele>
        <time>2022-02-12T09:15:23Z</time>
      </trkpt>
      <trkpt lat="43.07496" lon="-0.09349">
        <ele>748.2</ele>
        <time>2022-02-12T09:15:24Z</time>
      </trkpt>
      <trkpt lat="43.07496" lon="-0.09349">
        <ele>748</ele>
        <time>2022-02-12T09:15:25Z</time>
      </trkpt>
      <trkpt lat="43.07494" lon="-0.09349">
        <ele>748</ele>
        <time>2022-02-12T09:15:26Z</time>
      </trkpt>
      <trkpt lat="43.07492" lon="-0.0935">
        <ele>747.8</ele>
        <time>2022-02-12T09:15:27Z</time>
      </trkpt>
      <trkpt lat="43.0749" lon="-0.0935">
        <ele>747.4</ele>
        <time>2022-02-12T09:15:28Z</time>
      </trkpt>
      <trkpt lat="43.07488" lon="-0.0935">
        <ele>747.4</ele>
        <time>2022-02-12T09:15:29Z</time>
      </trkpt>
      <trkpt lat="43.07485" lon="-0.0935">
        <ele>747</ele>
        <time>2022-02-12T09:15:30Z</time>
      </trkpt>
      <trkpt lat="43.07482" lon="-0.09351">
        <ele>746.8</ele>
        <time>2022-02-12T09:15:31Z</time>
      </trkpt>
      <trkpt lat="43.07478" lon="-0.09352">
        <ele>746.6</ele>
        <time>2022-02-12T09:15:32Z</time>
      </trkpt>
      <trkpt lat="43.07475" lon="-0.09353">
        <ele>746.4</ele>
        <time>2022-02-12T09:15:33Z</time>
      </trkpt>
      <trkpt lat="43.07473" lon="-0.09354">
        <ele>746</ele>
        <time>2022-02-12T09:15:34Z</time>
      </trkpt>
      <trkpt lat="43.07472" lon="-0.09354">
        <ele>745.6</ele>
        <time>2022-02-12T09:15:35Z</time>
      </trkpt>
      <trkpt lat="43.07471" lon="-0.09355">
        <ele>745.4</ele>
        <time>2022-02-12T09:15:36Z</time>
      </trkpt>
      <trkpt lat="43.07469" lon="-0.09356">
        <ele>744.8</ele>
        <time>2022-02-12T09:15:37Z</time>
      </trkpt>
      <trkpt lat="43.07466" lon="-0.09357">
        <ele>744.2</ele>
        <time>2022-02-12T09:15:38Z</time>
      </trkpt>
      <trkpt lat="43.07463" lon="-0.09358">
        <ele>743.6</ele>
        <time>2022-02-12T09:15:39Z</time>
      </trkpt>
      <trkpt lat="43.0746" lon="-0.09359">
        <ele>743.4</ele>
        <time>2022-02-12T09:15:40Z</time>
      </trkpt>
      <trkpt lat="43.0746" lon="-0.09359">
        <ele>742.8</ele>
        <time>2022-02-12T09:15:41Z</time>
      </trkpt>
      <trkpt lat="43.0746" lon="-0.09359">
        <ele>742.4</ele>
        <time>2022-02-12T09:15:42Z</time>
      </trkpt>
      <trkpt lat="43.0746" lon="-0.09359">
        <ele>741.8</ele>
        <time>2022-02-12T09:15:43Z</time>
      </trkpt>
      <trkpt lat="43.0746" lon="-0.09359">
        <ele>741.8</ele>
        <time>2022-02-12T09:15:44Z</time>
      </trkpt>
      <trkpt lat="43.07458" lon="-0.09359">
        <ele>741.2</ele>
        <time>2022-02-12T09:15:45Z</time>
      </trkpt>
      <trkpt lat="43.07455" lon="-0.0936">
        <ele>741.2</ele>
        <time>2022-02-12T09:15:46Z</time>
      </trkpt>
      <trkpt lat="43.07454" lon="-0.09361">
        <ele>740.8</ele>
        <time>2022-02-12T09:15:47Z</time>
      </trkpt>
      <trkpt lat="43.07452" lon="-0.09361">
        <ele>740.8</ele>
        <time>2022-02-12T09:15:48Z</time>
      </trkpt>
      <trkpt lat="43.07449" lon="-0.09363">
        <ele>740.6</ele>
        <time>2022-02-12T09:15:49Z</time>
      </trkpt>
      <trkpt lat="43.07446" lon="-0.09364">
        <ele>740.4</ele>
        <time>2022-02-12T09:15:50Z</time>
      </trkpt>
      <trkpt lat="43.07444" lon="-0.09366">
        <ele>740.2</ele>
        <time>2022-02-12T09:15:51Z</time>
      </trkpt>
      <trkpt lat="43.07443" lon="-0.09369">
        <ele>740.2</ele>
        <time>2022-02-12T09:15:52Z</time>
      </trkpt>
      <trkpt lat="43.07442" lon="-0.09369">
        <ele>740</ele>
        <time>2022-02-12T09:15:53Z</time>
      </trkpt>
      <trkpt lat="43.07442" lon="-0.09369">
        <ele>740</ele>
        <time>2022-02-12T09:15:54Z</time>
      </trkpt>
      <trkpt lat="43.07442" lon="-0.09369">
        <ele>739.6</ele>
        <time>2022-02-12T09:15:55Z</time>
      </trkpt>
      <trkpt lat="43.0744" lon="-0.09372">
        <ele>739.4</ele>
        <time>2022-02-12T09:15:56Z</time>
      </trkpt>
      <trkpt lat="43.0744" lon="-0.09373">
        <ele>739.4</ele>
        <time>2022-02-12T09:15:57Z</time>
      </trkpt>
      <trkpt lat="43.0744" lon="-0.09373">
        <ele>739.2</ele>
        <time>2022-02-12T09:15:58Z</time>
      </trkpt>
      <trkpt lat="43.0744" lon="-0.09373">
        <ele>739.2</ele>
        <time>2022-02-12T09:15:59Z</time>
      </trkpt>
      <trkpt lat="43.0744" lon="-0.09373">
        <ele>739</ele>
        <time>2022-02-12T09:16:00Z</time>
      </trkpt>
      <trkpt lat="43.0744" lon="-0.09373">
        <ele>739</ele>
        <time>2022-02-12T09:16:01Z</time>
      </trkpt>
      <trkpt lat="43.0744" lon="-0.09373">
        <ele>738.6</ele>
        <time>2022-02-12T09:16:02Z</time>
      </trkpt>
      <trkpt lat="43.0744" lon="-0.09373">
        <ele>738.6</ele>
        <time>2022-02-12T09:16:03Z</time>
      </trkpt>
      <trkpt lat="43.0744" lon="-0.09373">
        <ele>738.4</ele>
        <time>2022-02-12T09:16:04Z</time>
      </trkpt>
      <trkpt lat="43.0744" lon="-0.09373">
        <ele>738.4</ele>
        <time>2022-02-12T09:16:05Z</time>
      </trkpt>
      <trkpt lat="43.0744" lon="-0.09373">
        <ele>738.2</ele>
        <time>2022-02-12T09:16:06Z</time>
      </trkpt>
      <trkpt lat="43.07439" lon="-0.09374">
        <ele>738.2</ele>
        <time>2022-02-12T09:16:07Z</time>
      </trkpt>
      <trkpt lat="43.07439" lon="-0.09376">
        <ele>738.2</ele>
        <time>2022-02-12T09:16:08Z</time>
      </trkpt>
      <trkpt lat="43.07439" lon="-0.09376">
        <ele>738.2</ele>
        <time>2022-02-12T09:16:09Z</time>
      </trkpt>
      <trkpt lat="43.07439" lon="-0.09376">
        <ele>738.2</ele>
        <time>2022-02-12T09:16:10Z</time>
      </trkpt>
      <trkpt lat="43.07439" lon="-0.09376">
        <ele>738</ele>
        <time>2022-02-12T09:16:11Z</time>
      </trkpt>
      <trkpt lat="43.07439" lon="-0.09376">
        <ele>738</ele>
        <time>2022-02-12T09:16:12Z</time>
      </trkpt>
      <trkpt lat="43.07439" lon="-0.09376">
        <ele>738</ele>
        <time>2022-02-12T09:16:13Z</time>
      </trkpt>
      <trkpt lat="43.07439" lon="-0.09376">
        <ele>738</ele>
        <time>2022-02-12T09:16:14Z</time>
      </trkpt>
      <trkpt lat="43.07439" lon="-0.09376">
        <ele>738</ele>
        <time>2022-02-12T09:16:15Z</time>
      </trkpt>
      <trkpt lat="43.07439" lon="-0.09376">
        <ele>738</ele>
        <time>2022-02-12T09:16:16Z</time>
      </trkpt>
      <trkpt lat="43.07439" lon="-0.09376">
        <ele>738</ele>
        <time>2022-02-12T09:16:17Z</time>
      </trkpt>
      <trkpt lat="43.07439" lon="-0.09376">
        <ele>738</ele>
        <time>2022-02-12T09:16:18Z</time>
      </trkpt>
      <trkpt lat="43.07439" lon="-0.09376">
        <ele>738</ele>
        <time>2022-02-12T09:16:19Z</time>
      </trkpt>
      <trkpt lat="43.07439" lon="-0.09376">
        <ele>738</ele>
        <time>2022-02-12T09:16:20Z</time>
      </trkpt>
      <trkpt lat="43.07439" lon="-0.09376">
        <ele>738</ele>
        <time>2022-02-12T09:16:21Z</time>
      </trkpt>
      <trkpt lat="43.07439" lon="-0.09376">
        <ele>738</ele>
        <time>2022-02-12T09:16:22Z</time>
      </trkpt>
      <trkpt lat="43.07439" lon="-0.09376">
        <ele>737.8</ele>
        <time>2022-02-12T09:16:23Z</time>
      </trkpt>
      <trkpt lat="43.07439" lon="-0.09376">
        <ele>737.8</ele>
        <time>2022-02-12T09:16:24Z</time>
      </trkpt>
      <trkpt lat="43.07439" lon="-0.09376">
        <ele>737.8</ele>
        <time>2022-02-12T09:16:25Z</time>
      </trkpt>
      <trkpt lat="43.07439" lon="-0.09376">
        <ele>737.8</ele>
        <time>2022-02-12T09:16:26Z</time>
      </trkpt>
      <trkpt lat="43.07439" lon="-0.09377">
        <ele>738</ele>
        <time>2022-02-12T09:16:27Z</time>
      </trkpt>
      <trkpt lat="43.07438" lon="-0.09378">
        <ele>738</ele>
        <time>2022-02-12T09:16:28Z</time>
      </trkpt>
      <trkpt lat="43.07437" lon="-0.0938">
        <ele>737.6</ele>
        <time>2022-02-12T09:16:29Z</time>
      </trkpt>
      <trkpt lat="43.07436" lon="-0.0938">
        <ele>737.6</ele>
        <time>2022-02-12T09:16:30Z</time>
      </trkpt>
      <trkpt lat="43.07435" lon="-0.09381">
        <ele>737.6</ele>
        <time>2022-02-12T09:16:31Z</time>
      </trkpt>
      <trkpt lat="43.07435" lon="-0.09382">
        <ele>737.6</ele>
        <time>2022-02-12T09:16:32Z</time>
      </trkpt>
      <trkpt lat="43.07434" lon="-0.09383">
        <ele>737.6</ele>
        <time>2022-02-12T09:16:33Z</time>
      </trkpt>
      <trkpt lat="43.07434" lon="-0.09383">
        <ele>737.6</ele>
        <time>2022-02-12T09:16:34Z</time>
      </trkpt>
      <trkpt lat="43.07433" lon="-0.09384">
        <ele>737.6</ele>
        <time>2022-02-12T09:16:35Z</time>
      </trkpt>
      <trkpt lat="43.07432" lon="-0.09385">
        <ele>737.6</ele>
        <time>2022-02-12T09:16:36Z</time>
      </trkpt>
      <trkpt lat="43.07431" lon="-0.09386">
        <ele>737.6</ele>
        <time>2022-02-12T09:16:37Z</time>
      </trkpt>
      <trkpt lat="43.0743" lon="-0.09386">
        <ele>737.6</ele>
        <time>2022-02-12T09:16:38Z</time>
      </trkpt>
      <trkpt lat="43.0743" lon="-0.09386">
        <ele>737.8</ele>
        <time>2022-02-12T09:16:39Z</time>
      </trkpt>
      <trkpt lat="43.0743" lon="-0.09386">
        <ele>737.8</ele>
        <time>2022-02-12T09:16:40Z</time>
      </trkpt>
      <trkpt lat="43.0743" lon="-0.09386">
        <ele>737.8</ele>
        <time>2022-02-12T09:16:41Z</time>
      </trkpt>
      <trkpt lat="43.0743" lon="-0.09386">
        <ele>737.8</ele>
        <time>2022-02-12T09:16:42Z</time>
      </trkpt>
      <trkpt lat="43.0743" lon="-0.09386">
        <ele>737.8</ele>
        <time>2022-02-12T09:16:43Z</time>
      </trkpt>
      <trkpt lat="43.0743" lon="-0.09386">
        <ele>737.8</ele>
        <time>2022-02-12T09:16:44Z</time>
      </trkpt>
      <trkpt lat="43.0743" lon="-0.09386">
        <ele>738</ele>
        <time>2022-02-12T09:16:45Z</time>
      </trkpt>
      <trkpt lat="43.0743" lon="-0.09386">
        <ele>738</ele>
        <time>2022-02-12T09:16:46Z</time>
      </trkpt>
      <trkpt lat="43.0743" lon="-0.09386">
        <ele>738</ele>
        <time>2022-02-12T09:16:47Z</time>
      </trkpt>
      <trkpt lat="43.0743" lon="-0.09386">
        <ele>738</ele>
        <time>2022-02-12T09:16:48Z</time>
      </trkpt>
      <trkpt lat="43.0743" lon="-0.09386">
        <ele>738.2</ele>
        <time>2022-02-12T09:16:49Z</time>
      </trkpt>
      <trkpt lat="43.0743" lon="-0.09386">
        <ele>738.2</ele>
        <time>2022-02-12T09:16:50Z</time>
      </trkpt>
      <trkpt lat="43.0743" lon="-0.09386">
        <ele>738.2</ele>
        <time>2022-02-12T09:16:51Z</time>
      </trkpt>
      <trkpt lat="43.0743" lon="-0.09386">
        <ele>738.4</ele>
        <time>2022-02-12T09:16:52Z</time>
      </trkpt>
      <trkpt lat="43.0743" lon="-0.09386">
        <ele>738.4</ele>
        <time>2022-02-12T09:16:53Z</time>
      </trkpt>
      <trkpt lat="43.0743" lon="-0.09386">
        <ele>738.4</ele>
        <time>2022-02-12T09:16:54Z</time>
      </trkpt>
      <trkpt lat="43.0743" lon="-0.09386">
        <ele>738.6</ele>
        <time>2022-02-12T09:16:55Z</time>
      </trkpt>
      <trkpt lat="43.07429" lon="-0.09386">
        <ele>738.6</ele>
        <time>2022-02-12T09:16:56Z</time>
      </trkpt>
      <trkpt lat="43.07428" lon="-0.09386">
        <ele>738.8</ele>
        <time>2022-02-12T09:16:57Z</time>
      </trkpt>
      <trkpt lat="43.07428" lon="-0.09387">
        <ele>738.8</ele>
        <time>2022-02-12T09:16:58Z</time>
      </trkpt>
      <trkpt lat="43.07428" lon="-0.09387">
        <ele>739</ele>
        <time>2022-02-12T09:16:59Z</time>
      </trkpt>
      <trkpt lat="43.07428" lon="-0.09387">
        <ele>739</ele>
        <time>2022-02-12T09:17:00Z</time>
      </trkpt>
      <trkpt lat="43.07428" lon="-0.09387">
        <ele>739.2</ele>
        <time>2022-02-12T09:17:01Z</time>
      </trkpt>
      <trkpt lat="43.07428" lon="-0.09387">
        <ele>739.2</ele>
        <time>2022-02-12T09:17:02Z</time>
      </trkpt>
      <trkpt lat="43.07428" lon="-0.09387">
        <ele>739.4</ele>
        <time>2022-02-12T09:17:03Z</time>
      </trkpt>
      <trkpt lat="43.07428" lon="-0.09387">
        <ele>739.4</ele>
        <time>2022-02-12T09:17:04Z</time>
      </trkpt>
      <trkpt lat="43.07428" lon="-0.09388">
        <ele>739.8</ele>
        <time>2022-02-12T09:17:05Z</time>
      </trkpt>
      <trkpt lat="43.07428" lon="-0.09388">
        <ele>739.8</ele>
        <time>2022-02-12T09:17:06Z</time>
      </trkpt>
      <trkpt lat="43.07428" lon="-0.09388">
        <ele>740</ele>
        <time>2022-02-12T09:17:07Z</time>
      </trkpt>
      <trkpt lat="43.07428" lon="-0.09388">
        <ele>740</ele>
        <time>2022-02-12T09:17:08Z</time>
      </trkpt>
      <trkpt lat="43.07428" lon="-0.09388">
        <ele>740</ele>
        <time>2022-02-12T09:17:09Z</time>
      </trkpt>
      <trkpt lat="43.07428" lon="-0.09388">
        <ele>740.2</ele>
        <time>2022-02-12T09:17:10Z</time>
      </trkpt>
      <trkpt lat="43.07427" lon="-0.09389">
        <ele>740.2</ele>
        <time>2022-02-12T09:17:11Z</time>
      </trkpt>
      <trkpt lat="43.07426" lon="-0.0939">
        <ele>740.2</ele>
        <time>2022-02-12T09:17:12Z</time>
      </trkpt>
      <trkpt lat="43.07426" lon="-0.0939">
        <ele>740.4</ele>
        <time>2022-02-12T09:17:13Z</time>
      </trkpt>
      <trkpt lat="43.07426" lon="-0.0939">
        <ele>740.4</ele>
        <time>2022-02-12T09:17:14Z</time>
      </trkpt>
      <trkpt lat="43.07425" lon="-0.0939">
        <ele>740.6</ele>
        <time>2022-02-12T09:17:15Z</time>
      </trkpt>
      <trkpt lat="43.07424" lon="-0.0939">
        <ele>740.6</ele>
        <time>2022-02-12T09:17:16Z</time>
      </trkpt>
      <trkpt lat="43.07424" lon="-0.0939">
        <ele>740.8</ele>
        <time>2022-02-12T09:17:17Z</time>
      </trkpt>
      <trkpt lat="43.07424" lon="-0.0939">
        <ele>740.8</ele>
        <time>2022-02-12T09:17:18Z</time>
      </trkpt>
      <trkpt lat="43.07424" lon="-0.0939">
        <ele>740.8</ele>
        <time>2022-02-12T09:17:19Z</time>
      </trkpt>
      <trkpt lat="43.07423" lon="-0.0939">
        <ele>740.8</ele>
        <time>2022-02-12T09:17:20Z</time>
      </trkpt>
      <trkpt lat="43.07423" lon="-0.0939">
        <ele>740.8</ele>
        <time>2022-02-12T09:17:21Z</time>
      </trkpt>
      <trkpt lat="43.07423" lon="-0.0939">
        <ele>740.8</ele>
        <time>2022-02-12T09:17:22Z</time>
      </trkpt>
      <trkpt lat="43.07423" lon="-0.0939">
        <ele>740.8</ele>
        <time>2022-02-12T09:17:23Z</time>
      </trkpt>
      <trkpt lat="43.07423" lon="-0.0939">
        <ele>740.8</ele>
        <time>2022-02-12T09:17:24Z</time>
      </trkpt>
      <trkpt lat="43.07423" lon="-0.0939">
        <ele>740.8</ele>
        <time>2022-02-12T09:17:25Z</time>
      </trkpt>
      <trkpt lat="43.07423" lon="-0.0939">
        <ele>740.8</ele>
        <time>2022-02-12T09:17:26Z</time>
      </trkpt>
      <trkpt lat="43.07423" lon="-0.0939">
        <ele>740.8</ele>
        <time>2022-02-12T09:17:27Z</time>
      </trkpt>
      <trkpt lat="43.07423" lon="-0.0939">
        <ele>740.8</ele>
        <time>2022-02-12T09:17:28Z</time>
      </trkpt>
      <trkpt lat="43.07423" lon="-0.0939">
        <ele>740.8</ele>
        <time>2022-02-12T09:17:29Z</time>
      </trkpt>
      <trkpt lat="43.07423" lon="-0.0939">
        <ele>740.8</ele>
        <time>2022-02-12T09:17:30Z</time>
      </trkpt>
      <trkpt lat="43.07423" lon="-0.0939">
        <ele>741</ele>
        <time>2022-02-12T09:17:31Z</time>
      </trkpt>
      <trkpt lat="43.07423" lon="-0.0939">
        <ele>741</ele>
        <time>2022-02-12T09:17:32Z</time>
      </trkpt>
      <trkpt lat="43.07423" lon="-0.0939">
        <ele>741</ele>
        <time>2022-02-12T09:17:33Z</time>
      </trkpt>
      <trkpt lat="43.07423" lon="-0.0939">
        <ele>741.2</ele>
        <time>2022-02-12T09:17:34Z</time>
      </trkpt>
      <trkpt lat="43.07423" lon="-0.0939">
        <ele>741.2</ele>
        <time>2022-02-12T09:17:35Z</time>
      </trkpt>
      <trkpt lat="43.07423" lon="-0.0939">
        <ele>741.4</ele>
        <time>2022-02-12T09:17:36Z</time>
      </trkpt>
      <trkpt lat="43.07423" lon="-0.0939">
        <ele>741.4</ele>
        <time>2022-02-12T09:17:37Z</time>
      </trkpt>
      <trkpt lat="43.07423" lon="-0.0939">
        <ele>741.6</ele>
        <time>2022-02-12T09:17:38Z</time>
      </trkpt>
      <trkpt lat="43.07423" lon="-0.0939">
        <ele>741.6</ele>
        <time>2022-02-12T09:17:39Z</time>
      </trkpt>
      <trkpt lat="43.07423" lon="-0.0939">
        <ele>741.8</ele>
        <time>2022-02-12T09:17:40Z</time>
      </trkpt>
      <trkpt lat="43.07423" lon="-0.0939">
        <ele>741.8</ele>
        <time>2022-02-12T09:17:41Z</time>
      </trkpt>
      <trkpt lat="43.07422" lon="-0.09391">
        <ele>742</ele>
        <time>2022-02-12T09:17:42Z</time>
      </trkpt>
      <trkpt lat="43.07422" lon="-0.09391">
        <ele>742.2</ele>
        <time>2022-02-12T09:17:43Z</time>
      </trkpt>
      <trkpt lat="43.07422" lon="-0.09391">
        <ele>742.2</ele>
        <time>2022-02-12T09:17:44Z</time>
      </trkpt>
      <trkpt lat="43.07422" lon="-0.09391">
        <ele>742.4</ele>
        <time>2022-02-12T09:17:45Z</time>
      </trkpt>
      <trkpt lat="43.07422" lon="-0.09391">
        <ele>742.4</ele>
        <time>2022-02-12T09:17:46Z</time>
      </trkpt>
      <trkpt lat="43.07422" lon="-0.09391">
        <ele>742.4</ele>
        <time>2022-02-12T09:17:47Z</time>
      </trkpt>
      <trkpt lat="43.07422" lon="-0.09391">
        <ele>742.4</ele>
        <time>2022-02-12T09:17:48Z</time>
      </trkpt>
      <trkpt lat="43.07422" lon="-0.09391">
        <ele>742.6</ele>
        <time>2022-02-12T09:17:49Z</time>
      </trkpt>
      <trkpt lat="43.07422" lon="-0.09391">
        <ele>742.6</ele>
        <time>2022-02-12T09:17:50Z</time>
      </trkpt>
      <trkpt lat="43.0742" lon="-0.09391">
        <ele>742.6</ele>
        <time>2022-02-12T09:17:51Z</time>
      </trkpt>
      <trkpt lat="43.0742" lon="-0.09391">
        <ele>742.6</ele>
        <time>2022-02-12T09:17:52Z</time>
      </trkpt>
      <trkpt lat="43.0742" lon="-0.09391">
        <ele>742.6</ele>
        <time>2022-02-12T09:17:53Z</time>
      </trkpt>
      <trkpt lat="43.0742" lon="-0.09391">
        <ele>742.6</ele>
        <time>2022-02-12T09:17:54Z</time>
      </trkpt>
      <trkpt lat="43.07419" lon="-0.09391">
        <ele>742.6</ele>
        <time>2022-02-12T09:17:55Z</time>
      </trkpt>
      <trkpt lat="43.07417" lon="-0.09391">
        <ele>742.6</ele>
        <time>2022-02-12T09:17:56Z</time>
      </trkpt>
      <trkpt lat="43.07417" lon="-0.09391">
        <ele>742.6</ele>
        <time>2022-02-12T09:17:57Z</time>
      </trkpt>
      <trkpt lat="43.07417" lon="-0.09391">
        <ele>742.8</ele>
        <time>2022-02-12T09:17:58Z</time>
      </trkpt>
      <trkpt lat="43.07415" lon="-0.09391">
        <ele>742.8</ele>
        <time>2022-02-12T09:17:59Z</time>
      </trkpt>
      <trkpt lat="43.07415" lon="-0.09391">
        <ele>742.8</ele>
        <time>2022-02-12T09:18:00Z</time>
      </trkpt>
      <trkpt lat="43.07414" lon="-0.09391">
        <ele>743</ele>
        <time>2022-02-12T09:18:01Z</time>
      </trkpt>
      <trkpt lat="43.07411" lon="-0.09391">
        <ele>743</ele>
        <time>2022-02-12T09:18:02Z</time>
      </trkpt>
      <trkpt lat="43.07409" lon="-0.09391">
        <ele>743</ele>
        <time>2022-02-12T09:18:03Z</time>
      </trkpt>
      <trkpt lat="43.07406" lon="-0.09391">
        <ele>743</ele>
        <time>2022-02-12T09:18:04Z</time>
      </trkpt>
      <trkpt lat="43.07402" lon="-0.09391">
        <ele>743.2</ele>
        <time>2022-02-12T09:18:05Z</time>
      </trkpt>
      <trkpt lat="43.07398" lon="-0.0939">
        <ele>743.4</ele>
        <time>2022-02-12T09:18:06Z</time>
      </trkpt>
      <trkpt lat="43.07395" lon="-0.0939">
        <ele>743.6</ele>
        <time>2022-02-12T09:18:07Z</time>
      </trkpt>
      <trkpt lat="43.07393" lon="-0.0939">
        <ele>743.8</ele>
        <time>2022-02-12T09:18:08Z</time>
      </trkpt>
      <trkpt lat="43.0739" lon="-0.0939">
        <ele>743.8</ele>
        <time>2022-02-12T09:18:09Z</time>
      </trkpt>
      <trkpt lat="43.07385" lon="-0.0939">
        <ele>744</ele>
        <time>2022-02-12T09:18:10Z</time>
      </trkpt>
      <trkpt lat="43.07382" lon="-0.09391">
        <ele>744.2</ele>
        <time>2022-02-12T09:18:11Z</time>
      </trkpt>
      <trkpt lat="43.0738" lon="-0.0939">
        <ele>744.4</ele>
        <time>2022-02-12T09:18:12Z</time>
      </trkpt>
      <trkpt lat="43.07378" lon="-0.09389">
        <ele>744.6</ele>
        <time>2022-02-12T09:18:13Z</time>
      </trkpt>
      <trkpt lat="43.07376" lon="-0.09388">
        <ele>745</ele>
        <time>2022-02-12T09:18:14Z</time>
      </trkpt>
      <trkpt lat="43.07374" lon="-0.09388">
        <ele>745.2</ele>
        <time>2022-02-12T09:18:15Z</time>
      </trkpt>
      <trkpt lat="43.07373" lon="-0.09387">
        <ele>745.4</ele>
        <time>2022-02-12T09:18:16Z</time>
      </trkpt>
      <trkpt lat="43.07371" lon="-0.09387">
        <ele>745.4</ele>
        <time>2022-02-12T09:18:17Z</time>
      </trkpt>
      <trkpt lat="43.0737" lon="-0.09386">
        <ele>745.6</ele>
        <time>2022-02-12T09:18:18Z</time>
      </trkpt>
      <trkpt lat="43.07368" lon="-0.09386">
        <ele>745.6</ele>
        <time>2022-02-12T09:18:19Z</time>
      </trkpt>
      <trkpt lat="43.07367" lon="-0.09385">
        <ele>745.8</ele>
        <time>2022-02-12T09:18:20Z</time>
      </trkpt>
      <trkpt lat="43.07365" lon="-0.09384">
        <ele>745.8</ele>
        <time>2022-02-12T09:18:21Z</time>
      </trkpt>
      <trkpt lat="43.07362" lon="-0.09384">
        <ele>746</ele>
        <time>2022-02-12T09:18:22Z</time>
      </trkpt>
      <trkpt lat="43.07359" lon="-0.09383">
        <ele>746.2</ele>
        <time>2022-02-12T09:18:23Z</time>
      </trkpt>
      <trkpt lat="43.07357" lon="-0.09383">
        <ele>746.4</ele>
        <time>2022-02-12T09:18:24Z</time>
      </trkpt>
      <trkpt lat="43.07357" lon="-0.09382">
        <ele>746.4</ele>
        <time>2022-02-12T09:18:25Z</time>
      </trkpt>
      <trkpt lat="43.07355" lon="-0.09382">
        <ele>746.4</ele>
        <time>2022-02-12T09:18:26Z</time>
      </trkpt>
      <trkpt lat="43.07352" lon="-0.09381">
        <ele>746.6</ele>
        <time>2022-02-12T09:18:27Z</time>
      </trkpt>
      <trkpt lat="43.07349" lon="-0.09381">
        <ele>746.6</ele>
        <time>2022-02-12T09:18:28Z</time>
      </trkpt>
      <trkpt lat="43.07348" lon="-0.0938">
        <ele>746.8</ele>
        <time>2022-02-12T09:18:29Z</time>
      </trkpt>
      <trkpt lat="43.07347" lon="-0.09379">
        <ele>747</ele>
        <time>2022-02-12T09:18:30Z</time>
      </trkpt>
      <trkpt lat="43.07346" lon="-0.09378">
        <ele>747.2</ele>
        <time>2022-02-12T09:18:31Z</time>
      </trkpt>
      <trkpt lat="43.07346" lon="-0.09378">
        <ele>747.4</ele>
        <time>2022-02-12T09:18:32Z</time>
      </trkpt>
      <trkpt lat="43.07343" lon="-0.09378">
        <ele>747.6</ele>
        <time>2022-02-12T09:18:33Z</time>
      </trkpt>
      <trkpt lat="43.07341" lon="-0.09377">
        <ele>747.8</ele>
        <time>2022-02-12T09:18:34Z</time>
      </trkpt>
      <trkpt lat="43.0734" lon="-0.09377">
        <ele>748</ele>
        <time>2022-02-12T09:18:35Z</time>
      </trkpt>
      <trkpt lat="43.07339" lon="-0.09376">
        <ele>748</ele>
        <time>2022-02-12T09:18:36Z</time>
      </trkpt>
      <trkpt lat="43.07339" lon="-0.09376">
        <ele>748.2</ele>
        <time>2022-02-12T09:18:37Z</time>
      </trkpt>
      <trkpt lat="43.07338" lon="-0.09375">
        <ele>748.2</ele>
        <time>2022-02-12T09:18:38Z</time>
      </trkpt>
      <trkpt lat="43.07337" lon="-0.09374">
        <ele>748.4</ele>
        <time>2022-02-12T09:18:39Z</time>
      </trkpt>
      <trkpt lat="43.07336" lon="-0.09374">
        <ele>748.4</ele>
        <time>2022-02-12T09:18:40Z</time>
      </trkpt>
      <trkpt lat="43.07335" lon="-0.09373">
        <ele>748.6</ele>
        <time>2022-02-12T09:18:41Z</time>
      </trkpt>
      <trkpt lat="43.07335" lon="-0.09372">
        <ele>748.6</ele>
        <time>2022-02-12T09:18:42Z</time>
      </trkpt>
      <trkpt lat="43.07334" lon="-0.09371">
        <ele>749</ele>
        <time>2022-02-12T09:18:43Z</time>
      </trkpt>
      <trkpt lat="43.07332" lon="-0.0937">
        <ele>749</ele>
        <time>2022-02-12T09:18:44Z</time>
      </trkpt>
      <trkpt lat="43.07332" lon="-0.0937">
        <ele>749.2</ele>
        <time>2022-02-12T09:18:45Z</time>
      </trkpt>
      <trkpt lat="43.07331" lon="-0.09369">
        <ele>749.2</ele>
        <time>2022-02-12T09:18:46Z</time>
      </trkpt>
      <trkpt lat="43.07331" lon="-0.09368">
        <ele>749.6</ele>
        <time>2022-02-12T09:18:47Z</time>
      </trkpt>
      <trkpt lat="43.0733" lon="-0.09368">
        <ele>749.8</ele>
        <time>2022-02-12T09:18:48Z</time>
      </trkpt>
      <trkpt lat="43.07328" lon="-0.09367">
        <ele>749.8</ele>
        <time>2022-02-12T09:18:49Z</time>
      </trkpt>
      <trkpt lat="43.07327" lon="-0.09366">
        <ele>750</ele>
        <time>2022-02-12T09:18:50Z</time>
      </trkpt>
      <trkpt lat="43.07326" lon="-0.09365">
        <ele>750.2</ele>
        <time>2022-02-12T09:18:51Z</time>
      </trkpt>
      <trkpt lat="43.07325" lon="-0.09364">
        <ele>750.6</ele>
        <time>2022-02-12T09:18:52Z</time>
      </trkpt>
      <trkpt lat="43.07324" lon="-0.09363">
        <ele>750.6</ele>
        <time>2022-02-12T09:18:53Z</time>
      </trkpt>
      <trkpt lat="43.07322" lon="-0.09362">
        <ele>750.8</ele>
        <time>2022-02-12T09:18:54Z</time>
      </trkpt>
      <trkpt lat="43.07321" lon="-0.09361">
        <ele>751</ele>
        <time>2022-02-12T09:18:55Z</time>
      </trkpt>
      <trkpt lat="43.0732" lon="-0.0936">
        <ele>751.2</ele>
        <time>2022-02-12T09:18:56Z</time>
      </trkpt>
      <trkpt lat="43.07317" lon="-0.09359">
        <ele>751.4</ele>
        <time>2022-02-12T09:18:57Z</time>
      </trkpt>
      <trkpt lat="43.07316" lon="-0.09358">
        <ele>751.4</ele>
        <time>2022-02-12T09:18:58Z</time>
      </trkpt>
      <trkpt lat="43.07316" lon="-0.09358">
        <ele>751.4</ele>
        <time>2022-02-12T09:18:59Z</time>
      </trkpt>
      <trkpt lat="43.07314" lon="-0.09357">
        <ele>751.6</ele>
        <time>2022-02-12T09:19:00Z</time>
      </trkpt>
      <trkpt lat="43.07313" lon="-0.09356">
        <ele>751.8</ele>
        <time>2022-02-12T09:19:01Z</time>
      </trkpt>
      <trkpt lat="43.07311" lon="-0.09355">
        <ele>751.8</ele>
        <time>2022-02-12T09:19:02Z</time>
      </trkpt>
      <trkpt lat="43.0731" lon="-0.09354">
        <ele>752</ele>
        <time>2022-02-12T09:19:03Z</time>
      </trkpt>
      <trkpt lat="43.0731" lon="-0.09354">
        <ele>752.2</ele>
        <time>2022-02-12T09:19:04Z</time>
      </trkpt>
      <trkpt lat="43.0731" lon="-0.09354">
        <ele>752.2</ele>
        <time>2022-02-12T09:19:05Z</time>
      </trkpt>
      <trkpt lat="43.07309" lon="-0.09354">
        <ele>752.4</ele>
        <time>2022-02-12T09:19:06Z</time>
      </trkpt>
      <trkpt lat="43.07309" lon="-0.09354">
        <ele>752.4</ele>
        <time>2022-02-12T09:19:07Z</time>
      </trkpt>
      <trkpt lat="43.07307" lon="-0.09352">
        <ele>752.8</ele>
        <time>2022-02-12T09:19:08Z</time>
      </trkpt>
      <trkpt lat="43.07305" lon="-0.09351">
        <ele>752.8</ele>
        <time>2022-02-12T09:19:09Z</time>
      </trkpt>
      <trkpt lat="43.07303" lon="-0.0935">
        <ele>753.2</ele>
        <time>2022-02-12T09:19:10Z</time>
      </trkpt>
      <trkpt lat="43.07302" lon="-0.09348">
        <ele>753.4</ele>
        <time>2022-02-12T09:19:11Z</time>
      </trkpt>
      <trkpt lat="43.07301" lon="-0.09347">
        <ele>753.6</ele>
        <time>2022-02-12T09:19:12Z</time>
      </trkpt>
      <trkpt lat="43.07301" lon="-0.09347">
        <ele>753.8</ele>
        <time>2022-02-12T09:19:13Z</time>
      </trkpt>
      <trkpt lat="43.073" lon="-0.09347">
        <ele>753.8</ele>
        <time>2022-02-12T09:19:14Z</time>
      </trkpt>
      <trkpt lat="43.07299" lon="-0.09346">
        <ele>754</ele>
        <time>2022-02-12T09:19:15Z</time>
      </trkpt>
      <trkpt lat="43.07298" lon="-0.09344">
        <ele>754</ele>
        <time>2022-02-12T09:19:16Z</time>
      </trkpt>
      <trkpt lat="43.07298" lon="-0.09343">
        <ele>754.4</ele>
        <time>2022-02-12T09:19:17Z</time>
      </trkpt>
      <trkpt lat="43.07298" lon="-0.09343">
        <ele>754.6</ele>
        <time>2022-02-12T09:19:18Z</time>
      </trkpt>
      <trkpt lat="43.07298" lon="-0.09342">
        <ele>755</ele>
        <time>2022-02-12T09:19:19Z</time>
      </trkpt>
      <trkpt lat="43.07297" lon="-0.09341">
        <ele>755</ele>
        <time>2022-02-12T09:19:20Z</time>
      </trkpt>
      <trkpt lat="43.07296" lon="-0.0934">
        <ele>755.4</ele>
        <time>2022-02-12T09:19:21Z</time>
      </trkpt>
      <trkpt lat="43.07294" lon="-0.09338">
        <ele>755.4</ele>
        <time>2022-02-12T09:19:22Z</time>
      </trkpt>
      <trkpt lat="43.07293" lon="-0.09337">
        <ele>755.6</ele>
        <time>2022-02-12T09:19:23Z</time>
      </trkpt>
      <trkpt lat="43.07292" lon="-0.09336">
        <ele>755.8</ele>
        <time>2022-02-12T09:19:24Z</time>
      </trkpt>
      <trkpt lat="43.07291" lon="-0.09335">
        <ele>756.2</ele>
        <time>2022-02-12T09:19:25Z</time>
      </trkpt>
      <trkpt lat="43.07291" lon="-0.09334">
        <ele>756.4</ele>
        <time>2022-02-12T09:19:26Z</time>
      </trkpt>
      <trkpt lat="43.07289" lon="-0.09332">
        <ele>756.6</ele>
        <time>2022-02-12T09:19:27Z</time>
      </trkpt>
      <trkpt lat="43.07289" lon="-0.09331">
        <ele>756.8</ele>
        <time>2022-02-12T09:19:28Z</time>
      </trkpt>
      <trkpt lat="43.07289" lon="-0.09331">
        <ele>757</ele>
        <time>2022-02-12T09:19:29Z</time>
      </trkpt>
      <trkpt lat="43.07289" lon="-0.09331">
        <ele>757</ele>
        <time>2022-02-12T09:19:30Z</time>
      </trkpt>
      <trkpt lat="43.07288" lon="-0.0933">
        <ele>757.2</ele>
        <time>2022-02-12T09:19:31Z</time>
      </trkpt>
      <trkpt lat="43.07288" lon="-0.09329">
        <ele>757.4</ele>
        <time>2022-02-12T09:19:32Z</time>
      </trkpt>
      <trkpt lat="43.07287" lon="-0.09327">
        <ele>757.6</ele>
        <time>2022-02-12T09:19:33Z</time>
      </trkpt>
      <trkpt lat="43.07285" lon="-0.09327">
        <ele>757.8</ele>
        <time>2022-02-12T09:19:34Z</time>
      </trkpt>
      <trkpt lat="43.07283" lon="-0.09326">
        <ele>757.8</ele>
        <time>2022-02-12T09:19:35Z</time>
      </trkpt>
      <trkpt lat="43.07282" lon="-0.09325">
        <ele>758</ele>
        <time>2022-02-12T09:19:36Z</time>
      </trkpt>
      <trkpt lat="43.07281" lon="-0.09324">
        <ele>758.2</ele>
        <time>2022-02-12T09:19:37Z</time>
      </trkpt>
      <trkpt lat="43.07281" lon="-0.09324">
        <ele>758.4</ele>
        <time>2022-02-12T09:19:38Z</time>
      </trkpt>
      <trkpt lat="43.07281" lon="-0.09324">
        <ele>758.4</ele>
        <time>2022-02-12T09:19:39Z</time>
      </trkpt>
      <trkpt lat="43.07279" lon="-0.09323">
        <ele>758.6</ele>
        <time>2022-02-12T09:19:40Z</time>
      </trkpt>
      <trkpt lat="43.07276" lon="-0.09323">
        <ele>758.6</ele>
        <time>2022-02-12T09:19:41Z</time>
      </trkpt>
      <trkpt lat="43.07274" lon="-0.09322">
        <ele>759</ele>
        <time>2022-02-12T09:19:42Z</time>
      </trkpt>
      <trkpt lat="43.07273" lon="-0.09321">
        <ele>759</ele>
        <time>2022-02-12T09:19:43Z</time>
      </trkpt>
      <trkpt lat="43.07272" lon="-0.0932">
        <ele>759.2</ele>
        <time>2022-02-12T09:19:44Z</time>
      </trkpt>
      <trkpt lat="43.0727" lon="-0.09319">
        <ele>759.2</ele>
        <time>2022-02-12T09:19:45Z</time>
      </trkpt>
      <trkpt lat="43.07267" lon="-0.09318">
        <ele>759.6</ele>
        <time>2022-02-12T09:19:46Z</time>
      </trkpt>
      <trkpt lat="43.07267" lon="-0.09317">
        <ele>759.6</ele>
        <time>2022-02-12T09:19:47Z</time>
      </trkpt>
      <trkpt lat="43.07267" lon="-0.09317">
        <ele>760</ele>
        <time>2022-02-12T09:19:48Z</time>
      </trkpt>
      <trkpt lat="43.07266" lon="-0.09317">
        <ele>760.2</ele>
        <time>2022-02-12T09:19:49Z</time>
      </trkpt>
      <trkpt lat="43.07265" lon="-0.09316">
        <ele>760.4</ele>
        <time>2022-02-12T09:19:50Z</time>
      </trkpt>
      <trkpt lat="43.07265" lon="-0.09316">
        <ele>760.4</ele>
        <time>2022-02-12T09:19:51Z</time>
      </trkpt>
      <trkpt lat="43.07264" lon="-0.09315">
        <ele>760.4</ele>
        <time>2022-02-12T09:19:52Z</time>
      </trkpt>
      <trkpt lat="43.0726" lon="-0.09314">
        <ele>760.6</ele>
        <time>2022-02-12T09:19:53Z</time>
      </trkpt>
      <trkpt lat="43.07258" lon="-0.09313">
        <ele>760.6</ele>
        <time>2022-02-12T09:19:54Z</time>
      </trkpt>
      <trkpt lat="43.07258" lon="-0.09312">
        <ele>760.8</ele>
        <time>2022-02-12T09:19:55Z</time>
      </trkpt>
      <trkpt lat="43.07257" lon="-0.09311">
        <ele>760.8</ele>
        <time>2022-02-12T09:19:56Z</time>
      </trkpt>
      <trkpt lat="43.07256" lon="-0.09311">
        <ele>760.8</ele>
        <time>2022-02-12T09:19:57Z</time>
      </trkpt>
      <trkpt lat="43.07254" lon="-0.09311">
        <ele>760.8</ele>
        <time>2022-02-12T09:19:58Z</time>
      </trkpt>
      <trkpt lat="43.07251" lon="-0.0931">
        <ele>761</ele>
        <time>2022-02-12T09:19:59Z</time>
      </trkpt>
      <trkpt lat="43.0725" lon="-0.0931">
        <ele>761</ele>
        <time>2022-02-12T09:20:00Z</time>
      </trkpt>
      <trkpt lat="43.07248" lon="-0.09309">
        <ele>761</ele>
        <time>2022-02-12T09:20:01Z</time>
      </trkpt>
      <trkpt lat="43.07246" lon="-0.09308">
        <ele>761</ele>
        <time>2022-02-12T09:20:02Z</time>
      </trkpt>
      <trkpt lat="43.07242" lon="-0.09308">
        <ele>761.2</ele>
        <time>2022-02-12T09:20:03Z</time>
      </trkpt>
      <trkpt lat="43.0724" lon="-0.09308">
        <ele>761.2</ele>
        <time>2022-02-12T09:20:04Z</time>
      </trkpt>
      <trkpt lat="43.0724" lon="-0.09306">
        <ele>761.2</ele>
        <time>2022-02-12T09:20:05Z</time>
      </trkpt>
      <trkpt lat="43.0724" lon="-0.09306">
        <ele>761.2</ele>
        <time>2022-02-12T09:20:06Z</time>
      </trkpt>
      <trkpt lat="43.0724" lon="-0.09305">
        <ele>761.2</ele>
        <time>2022-02-12T09:20:07Z</time>
      </trkpt>
      <trkpt lat="43.07239" lon="-0.09304">
        <ele>761.2</ele>
        <time>2022-02-12T09:20:08Z</time>
      </trkpt>
      <trkpt lat="43.07238" lon="-0.09303">
        <ele>761.2</ele>
        <time>2022-02-12T09:20:09Z</time>
      </trkpt>
      <trkpt lat="43.07237" lon="-0.09303">
        <ele>761.2</ele>
        <time>2022-02-12T09:20:10Z</time>
      </trkpt>
      <trkpt lat="43.07235" lon="-0.09302">
        <ele>761.4</ele>
        <time>2022-02-12T09:20:11Z</time>
      </trkpt>
      <trkpt lat="43.07233" lon="-0.09301">
        <ele>761.4</ele>
        <time>2022-02-12T09:20:12Z</time>
      </trkpt>
      <trkpt lat="43.07232" lon="-0.093">
        <ele>761.4</ele>
        <time>2022-02-12T09:20:13Z</time>
      </trkpt>
      <trkpt lat="43.0723" lon="-0.09299">
        <ele>761.4</ele>
        <time>2022-02-12T09:20:14Z</time>
      </trkpt>
      <trkpt lat="43.07229" lon="-0.09299">
        <ele>761.6</ele>
        <time>2022-02-12T09:20:15Z</time>
      </trkpt>
      <trkpt lat="43.07227" lon="-0.09298">
        <ele>761.6</ele>
        <time>2022-02-12T09:20:16Z</time>
      </trkpt>
      <trkpt lat="43.07226" lon="-0.09297">
        <ele>761.6</ele>
        <time>2022-02-12T09:20:17Z</time>
      </trkpt>
      <trkpt lat="43.07224" lon="-0.09297">
        <ele>761.6</ele>
        <time>2022-02-12T09:20:18Z</time>
      </trkpt>
      <trkpt lat="43.07223" lon="-0.09296">
        <ele>761.6</ele>
        <time>2022-02-12T09:20:19Z</time>
      </trkpt>
      <trkpt lat="43.07222" lon="-0.09295">
        <ele>761.6</ele>
        <time>2022-02-12T09:20:20Z</time>
      </trkpt>
      <trkpt lat="43.07221" lon="-0.09295">
        <ele>761.6</ele>
        <time>2022-02-12T09:20:21Z</time>
      </trkpt>
      <trkpt lat="43.07219" lon="-0.09294">
        <ele>761.6</ele>
        <time>2022-02-12T09:20:22Z</time>
      </trkpt>
      <trkpt lat="43.07218" lon="-0.09293">
        <ele>761.6</ele>
        <time>2022-02-12T09:20:23Z</time>
      </trkpt>
      <trkpt lat="43.07217" lon="-0.09292">
        <ele>761.6</ele>
        <time>2022-02-12T09:20:24Z</time>
      </trkpt>
      <trkpt lat="43.07216" lon="-0.09291">
        <ele>761.6</ele>
        <time>2022-02-12T09:20:25Z</time>
      </trkpt>
      <trkpt lat="43.07214" lon="-0.0929">
        <ele>761.8</ele>
        <time>2022-02-12T09:20:26Z</time>
      </trkpt>
      <trkpt lat="43.07213" lon="-0.09289">
        <ele>761.8</ele>
        <time>2022-02-12T09:20:27Z</time>
      </trkpt>
      <trkpt lat="43.07211" lon="-0.09289">
        <ele>761.8</ele>
        <time>2022-02-12T09:20:28Z</time>
      </trkpt>
      <trkpt lat="43.0721" lon="-0.09288">
        <ele>761.8</ele>
        <time>2022-02-12T09:20:29Z</time>
      </trkpt>
      <trkpt lat="43.07209" lon="-0.09288">
        <ele>761.8</ele>
        <time>2022-02-12T09:20:30Z</time>
      </trkpt>
      <trkpt lat="43.07208" lon="-0.09286">
        <ele>761.8</ele>
        <time>2022-02-12T09:20:31Z</time>
      </trkpt>
      <trkpt lat="43.07207" lon="-0.09286">
        <ele>762</ele>
        <time>2022-02-12T09:20:32Z</time>
      </trkpt>
      <trkpt lat="43.07206" lon="-0.09285">
        <ele>762.2</ele>
        <time>2022-02-12T09:20:33Z</time>
      </trkpt>
      <trkpt lat="43.07206" lon="-0.09284">
        <ele>762.2</ele>
        <time>2022-02-12T09:20:34Z</time>
      </trkpt>
      <trkpt lat="43.07206" lon="-0.09284">
        <ele>762.4</ele>
        <time>2022-02-12T09:20:35Z</time>
      </trkpt>
      <trkpt lat="43.07205" lon="-0.09284">
        <ele>762.4</ele>
        <time>2022-02-12T09:20:36Z</time>
      </trkpt>
      <trkpt lat="43.07203" lon="-0.09283">
        <ele>762.6</ele>
        <time>2022-02-12T09:20:37Z</time>
      </trkpt>
      <trkpt lat="43.07201" lon="-0.09282">
        <ele>762.6</ele>
        <time>2022-02-12T09:20:38Z</time>
      </trkpt>
      <trkpt lat="43.072" lon="-0.0928">
        <ele>762.8</ele>
        <time>2022-02-12T09:20:39Z</time>
      </trkpt>
      <trkpt lat="43.07199" lon="-0.09279">
        <ele>763</ele>
        <time>2022-02-12T09:20:40Z</time>
      </trkpt>
      <trkpt lat="43.07199" lon="-0.09279">
        <ele>763.2</ele>
        <time>2022-02-12T09:20:41Z</time>
      </trkpt>
      <trkpt lat="43.07198" lon="-0.09278">
        <ele>763.4</ele>
        <time>2022-02-12T09:20:42Z</time>
      </trkpt>
      <trkpt lat="43.07196" lon="-0.09276">
        <ele>763.6</ele>
        <time>2022-02-12T09:20:43Z</time>
      </trkpt>
      <trkpt lat="43.07193" lon="-0.09274">
        <ele>763.6</ele>
        <time>2022-02-12T09:20:44Z</time>
      </trkpt>
      <trkpt lat="43.07191" lon="-0.09273">
        <ele>763.8</ele>
        <time>2022-02-12T09:20:45Z</time>
      </trkpt>
      <trkpt lat="43.0719" lon="-0.09272">
        <ele>764</ele>
        <time>2022-02-12T09:20:46Z</time>
      </trkpt>
      <trkpt lat="43.0719" lon="-0.09271">
        <ele>764</ele>
        <time>2022-02-12T09:20:47Z</time>
      </trkpt>
      <trkpt lat="43.07188" lon="-0.0927">
        <ele>764</ele>
        <time>2022-02-12T09:20:48Z</time>
      </trkpt>
      <trkpt lat="43.07187" lon="-0.09269">
        <ele>764.2</ele>
        <time>2022-02-12T09:20:49Z</time>
      </trkpt>
      <trkpt lat="43.07186" lon="-0.09268">
        <ele>764.2</ele>
        <time>2022-02-12T09:20:50Z</time>
      </trkpt>
      <trkpt lat="43.07185" lon="-0.09268">
        <ele>764.4</ele>
        <time>2022-02-12T09:20:51Z</time>
      </trkpt>
      <trkpt lat="43.07184" lon="-0.09267">
        <ele>764.6</ele>
        <time>2022-02-12T09:20:52Z</time>
      </trkpt>
      <trkpt lat="43.07184" lon="-0.09267">
        <ele>764.6</ele>
        <time>2022-02-12T09:20:53Z</time>
      </trkpt>
      <trkpt lat="43.07184" lon="-0.09267">
        <ele>765</ele>
        <time>2022-02-12T09:20:54Z</time>
      </trkpt>
      <trkpt lat="43.07183" lon="-0.09266">
        <ele>765.4</ele>
        <time>2022-02-12T09:20:55Z</time>
      </trkpt>
      <trkpt lat="43.07183" lon="-0.09265">
        <ele>765.6</ele>
        <time>2022-02-12T09:20:56Z</time>
      </trkpt>
      <trkpt lat="43.07181" lon="-0.09264">
        <ele>765.8</ele>
        <time>2022-02-12T09:20:57Z</time>
      </trkpt>
      <trkpt lat="43.07181" lon="-0.09264">
        <ele>765.8</ele>
        <time>2022-02-12T09:20:58Z</time>
      </trkpt>
      <trkpt lat="43.07181" lon="-0.09264">
        <ele>766</ele>
        <time>2022-02-12T09:20:59Z</time>
      </trkpt>
      <trkpt lat="43.07179" lon="-0.09263">
        <ele>766.2</ele>
        <time>2022-02-12T09:21:00Z</time>
      </trkpt>
      <trkpt lat="43.07179" lon="-0.09263">
        <ele>766.2</ele>
        <time>2022-02-12T09:21:01Z</time>
      </trkpt>
      <trkpt lat="43.07176" lon="-0.0926">
        <ele>766.4</ele>
        <time>2022-02-12T09:21:02Z</time>
      </trkpt>
      <trkpt lat="43.07174" lon="-0.09259">
        <ele>766.4</ele>
        <time>2022-02-12T09:21:03Z</time>
      </trkpt>
      <trkpt lat="43.07173" lon="-0.09259">
        <ele>766.4</ele>
        <time>2022-02-12T09:21:04Z</time>
      </trkpt>
      <trkpt lat="43.07171" lon="-0.09258">
        <ele>766.6</ele>
        <time>2022-02-12T09:21:05Z</time>
      </trkpt>
      <trkpt lat="43.07168" lon="-0.09258">
        <ele>766.6</ele>
        <time>2022-02-12T09:21:06Z</time>
      </trkpt>
      <trkpt lat="43.07166" lon="-0.09256">
        <ele>766.8</ele>
        <time>2022-02-12T09:21:07Z</time>
      </trkpt>
      <trkpt lat="43.07164" lon="-0.09255">
        <ele>767</ele>
        <time>2022-02-12T09:21:08Z</time>
      </trkpt>
      <trkpt lat="43.07164" lon="-0.09255">
        <ele>767</ele>
        <time>2022-02-12T09:21:09Z</time>
      </trkpt>
      <trkpt lat="43.07162" lon="-0.09254">
        <ele>767</ele>
        <time>2022-02-12T09:21:10Z</time>
      </trkpt>
      <trkpt lat="43.07161" lon="-0.09253">
        <ele>767.2</ele>
        <time>2022-02-12T09:21:11Z</time>
      </trkpt>
      <trkpt lat="43.07159" lon="-0.09253">
        <ele>767.4</ele>
        <time>2022-02-12T09:21:12Z</time>
      </trkpt>
      <trkpt lat="43.07158" lon="-0.09253">
        <ele>767.4</ele>
        <time>2022-02-12T09:21:13Z</time>
      </trkpt>
      <trkpt lat="43.07156" lon="-0.09252">
        <ele>767.6</ele>
        <time>2022-02-12T09:21:14Z</time>
      </trkpt>
      <trkpt lat="43.07156" lon="-0.09252">
        <ele>767.6</ele>
        <time>2022-02-12T09:21:15Z</time>
      </trkpt>
      <trkpt lat="43.07155" lon="-0.09252">
        <ele>767.8</ele>
        <time>2022-02-12T09:21:16Z</time>
      </trkpt>
      <trkpt lat="43.07155" lon="-0.09251">
        <ele>767.8</ele>
        <time>2022-02-12T09:21:17Z</time>
      </trkpt>
      <trkpt lat="43.07155" lon="-0.09251">
        <ele>767.8</ele>
        <time>2022-02-12T09:21:18Z</time>
      </trkpt>
      <trkpt lat="43.07154" lon="-0.09251">
        <ele>768</ele>
        <time>2022-02-12T09:21:19Z</time>
      </trkpt>
      <trkpt lat="43.07153" lon="-0.0925">
        <ele>768.2</ele>
        <time>2022-02-12T09:21:20Z</time>
      </trkpt>
      <trkpt lat="43.07152" lon="-0.0925">
        <ele>768.2</ele>
        <time>2022-02-12T09:21:21Z</time>
      </trkpt>
      <trkpt lat="43.07151" lon="-0.09249">
        <ele>768.2</ele>
        <time>2022-02-12T09:21:22Z</time>
      </trkpt>
      <trkpt lat="43.0715" lon="-0.09249">
        <ele>768.4</ele>
        <time>2022-02-12T09:21:23Z</time>
      </trkpt>
      <trkpt lat="43.07148" lon="-0.09249">
        <ele>768.4</ele>
        <time>2022-02-12T09:21:24Z</time>
      </trkpt>
      <trkpt lat="43.07148" lon="-0.09248">
        <ele>768.6</ele>
        <time>2022-02-12T09:21:25Z</time>
      </trkpt>
      <trkpt lat="43.07147" lon="-0.09248">
        <ele>768.6</ele>
        <time>2022-02-12T09:21:26Z</time>
      </trkpt>
      <trkpt lat="43.07146" lon="-0.09247">
        <ele>768.8</ele>
        <time>2022-02-12T09:21:27Z</time>
      </trkpt>
      <trkpt lat="43.07144" lon="-0.09247">
        <ele>769</ele>
        <time>2022-02-12T09:21:28Z</time>
      </trkpt>
      <trkpt lat="43.07144" lon="-0.09247">
        <ele>769.2</ele>
        <time>2022-02-12T09:21:29Z</time>
      </trkpt>
      <trkpt lat="43.07143" lon="-0.09247">
        <ele>769.2</ele>
        <time>2022-02-12T09:21:30Z</time>
      </trkpt>
      <trkpt lat="43.07141" lon="-0.09246">
        <ele>769.4</ele>
        <time>2022-02-12T09:21:31Z</time>
      </trkpt>
      <trkpt lat="43.07139" lon="-0.09245">
        <ele>769.4</ele>
        <time>2022-02-12T09:21:32Z</time>
      </trkpt>
      <trkpt lat="43.07138" lon="-0.09244">
        <ele>769.6</ele>
        <time>2022-02-12T09:21:33Z</time>
      </trkpt>
      <trkpt lat="43.07137" lon="-0.09243">
        <ele>769.8</ele>
        <time>2022-02-12T09:21:34Z</time>
      </trkpt>
      <trkpt lat="43.07134" lon="-0.09242">
        <ele>769.8</ele>
        <time>2022-02-12T09:21:35Z</time>
      </trkpt>
      <trkpt lat="43.07133" lon="-0.09242">
        <ele>770</ele>
        <time>2022-02-12T09:21:36Z</time>
      </trkpt>
      <trkpt lat="43.07133" lon="-0.09242">
        <ele>770</ele>
        <time>2022-02-12T09:21:37Z</time>
      </trkpt>
      <trkpt lat="43.07133" lon="-0.09242">
        <ele>770.2</ele>
        <time>2022-02-12T09:21:38Z</time>
      </trkpt>
      <trkpt lat="43.07133" lon="-0.09242">
        <ele>770.2</ele>
        <time>2022-02-12T09:21:39Z</time>
      </trkpt>
      <trkpt lat="43.07131" lon="-0.09241">
        <ele>770.4</ele>
        <time>2022-02-12T09:21:40Z</time>
      </trkpt>
      <trkpt lat="43.07129" lon="-0.09239">
        <ele>770.4</ele>
        <time>2022-02-12T09:21:41Z</time>
      </trkpt>
      <trkpt lat="43.07126" lon="-0.09237">
        <ele>770.4</ele>
        <time>2022-02-12T09:21:42Z</time>
      </trkpt>
      <trkpt lat="43.07124" lon="-0.09234">
        <ele>770.6</ele>
        <time>2022-02-12T09:21:43Z</time>
      </trkpt>
      <trkpt lat="43.07123" lon="-0.09232">
        <ele>770.6</ele>
        <time>2022-02-12T09:21:44Z</time>
      </trkpt>
      <trkpt lat="43.07121" lon="-0.09231">
        <ele>770.8</ele>
        <time>2022-02-12T09:21:45Z</time>
      </trkpt>
      <trkpt lat="43.07119" lon="-0.0923">
        <ele>770.8</ele>
        <time>2022-02-12T09:21:46Z</time>
      </trkpt>
      <trkpt lat="43.07117" lon="-0.09228">
        <ele>771</ele>
        <time>2022-02-12T09:21:47Z</time>
      </trkpt>
      <trkpt lat="43.07115" lon="-0.09227">
        <ele>771</ele>
        <time>2022-02-12T09:21:48Z</time>
      </trkpt>
      <trkpt lat="43.07113" lon="-0.09225">
        <ele>771.2</ele>
        <time>2022-02-12T09:21:49Z</time>
      </trkpt>
      <trkpt lat="43.07111" lon="-0.09224">
        <ele>771.2</ele>
        <time>2022-02-12T09:21:50Z</time>
      </trkpt>
      <trkpt lat="43.07109" lon="-0.09223">
        <ele>771.2</ele>
        <time>2022-02-12T09:21:51Z</time>
      </trkpt>
      <trkpt lat="43.07105" lon="-0.09221">
        <ele>771.4</ele>
        <time>2022-02-12T09:21:52Z</time>
      </trkpt>
      <trkpt lat="43.07102" lon="-0.0922">
        <ele>771.4</ele>
        <time>2022-02-12T09:21:53Z</time>
      </trkpt>
      <trkpt lat="43.07101" lon="-0.0922">
        <ele>771.6</ele>
        <time>2022-02-12T09:21:54Z</time>
      </trkpt>
      <trkpt lat="43.07099" lon="-0.09219">
        <ele>771.6</ele>
        <time>2022-02-12T09:21:55Z</time>
      </trkpt>
      <trkpt lat="43.07098" lon="-0.09217">
        <ele>771.8</ele>
        <time>2022-02-12T09:21:56Z</time>
      </trkpt>
      <trkpt lat="43.07096" lon="-0.09215">
        <ele>771.8</ele>
        <time>2022-02-12T09:21:57Z</time>
      </trkpt>
      <trkpt lat="43.07094" lon="-0.09212">
        <ele>771.8</ele>
        <time>2022-02-12T09:21:58Z</time>
      </trkpt>
      <trkpt lat="43.07093" lon="-0.09211">
        <ele>772</ele>
        <time>2022-02-12T09:21:59Z</time>
      </trkpt>
      <trkpt lat="43.07093" lon="-0.09211">
        <ele>772.2</ele>
        <time>2022-02-12T09:22:00Z</time>
      </trkpt>
      <trkpt lat="43.07093" lon="-0.09211">
        <ele>772.2</ele>
        <time>2022-02-12T09:22:01Z</time>
      </trkpt>
      <trkpt lat="43.07092" lon="-0.0921">
        <ele>772.2</ele>
        <time>2022-02-12T09:22:02Z</time>
      </trkpt>
      <trkpt lat="43.07091" lon="-0.09209">
        <ele>772.4</ele>
        <time>2022-02-12T09:22:03Z</time>
      </trkpt>
      <trkpt lat="43.07089" lon="-0.09207">
        <ele>772.4</ele>
        <time>2022-02-12T09:22:04Z</time>
      </trkpt>
      <trkpt lat="43.07088" lon="-0.09207">
        <ele>772.4</ele>
        <time>2022-02-12T09:22:05Z</time>
      </trkpt>
      <trkpt lat="43.07087" lon="-0.09206">
        <ele>772.6</ele>
        <time>2022-02-12T09:22:06Z</time>
      </trkpt>
      <trkpt lat="43.07085" lon="-0.09205">
        <ele>772.6</ele>
        <time>2022-02-12T09:22:07Z</time>
      </trkpt>
      <trkpt lat="43.07084" lon="-0.09205">
        <ele>772.8</ele>
        <time>2022-02-12T09:22:08Z</time>
      </trkpt>
      <trkpt lat="43.07083" lon="-0.09205">
        <ele>772.8</ele>
        <time>2022-02-12T09:22:09Z</time>
      </trkpt>
      <trkpt lat="43.07081" lon="-0.09205">
        <ele>773</ele>
        <time>2022-02-12T09:22:10Z</time>
      </trkpt>
      <trkpt lat="43.07081" lon="-0.09205">
        <ele>773.2</ele>
        <time>2022-02-12T09:22:11Z</time>
      </trkpt>
      <trkpt lat="43.0708" lon="-0.09204">
        <ele>773.2</ele>
        <time>2022-02-12T09:22:12Z</time>
      </trkpt>
      <trkpt lat="43.07079" lon="-0.09204">
        <ele>773.2</ele>
        <time>2022-02-12T09:22:13Z</time>
      </trkpt>
      <trkpt lat="43.07078" lon="-0.09203">
        <ele>773.2</ele>
        <time>2022-02-12T09:22:14Z</time>
      </trkpt>
      <trkpt lat="43.07076" lon="-0.09202">
        <ele>773.4</ele>
        <time>2022-02-12T09:22:15Z</time>
      </trkpt>
      <trkpt lat="43.07074" lon="-0.09202">
        <ele>773.4</ele>
        <time>2022-02-12T09:22:16Z</time>
      </trkpt>
      <trkpt lat="43.07072" lon="-0.09201">
        <ele>773.6</ele>
        <time>2022-02-12T09:22:17Z</time>
      </trkpt>
      <trkpt lat="43.07071" lon="-0.09201">
        <ele>773.6</ele>
        <time>2022-02-12T09:22:18Z</time>
      </trkpt>
      <trkpt lat="43.07069" lon="-0.092">
        <ele>773.6</ele>
        <time>2022-02-12T09:22:19Z</time>
      </trkpt>
      <trkpt lat="43.07067" lon="-0.09199">
        <ele>773.6</ele>
        <time>2022-02-12T09:22:20Z</time>
      </trkpt>
      <trkpt lat="43.07063" lon="-0.09198">
        <ele>773.6</ele>
        <time>2022-02-12T09:22:21Z</time>
      </trkpt>
      <trkpt lat="43.0706" lon="-0.09198">
        <ele>773.6</ele>
        <time>2022-02-12T09:22:22Z</time>
      </trkpt>
      <trkpt lat="43.07058" lon="-0.09197">
        <ele>773.2</ele>
        <time>2022-02-12T09:22:23Z</time>
      </trkpt>
      <trkpt lat="43.07054" lon="-0.09196">
        <ele>773.2</ele>
        <time>2022-02-12T09:22:24Z</time>
      </trkpt>
      <trkpt lat="43.0705" lon="-0.09194">
        <ele>773</ele>
        <time>2022-02-12T09:22:25Z</time>
      </trkpt>
      <trkpt lat="43.07046" lon="-0.09193">
        <ele>772.8</ele>
        <time>2022-02-12T09:22:26Z</time>
      </trkpt>
      <trkpt lat="43.07042" lon="-0.09191">
        <ele>772.6</ele>
        <time>2022-02-12T09:22:27Z</time>
      </trkpt>
      <trkpt lat="43.0704" lon="-0.09189">
        <ele>772.4</ele>
        <time>2022-02-12T09:22:28Z</time>
      </trkpt>
      <trkpt lat="43.07035" lon="-0.09185">
        <ele>772.2</ele>
        <time>2022-02-12T09:22:29Z</time>
      </trkpt>
      <trkpt lat="43.07031" lon="-0.0918">
        <ele>771.8</ele>
        <time>2022-02-12T09:22:30Z</time>
      </trkpt>
      <trkpt lat="43.07026" lon="-0.09175">
        <ele>771.6</ele>
        <time>2022-02-12T09:22:31Z</time>
      </trkpt>
      <trkpt lat="43.07022" lon="-0.09171">
        <ele>771.4</ele>
        <time>2022-02-12T09:22:32Z</time>
      </trkpt>
      <trkpt lat="43.07019" lon="-0.09168">
        <ele>771.2</ele>
        <time>2022-02-12T09:22:33Z</time>
      </trkpt>
      <trkpt lat="43.07016" lon="-0.09164">
        <ele>771</ele>
        <time>2022-02-12T09:22:34Z</time>
      </trkpt>
      <trkpt lat="43.07013" lon="-0.09161">
        <ele>770.8</ele>
        <time>2022-02-12T09:22:35Z</time>
      </trkpt>
      <trkpt lat="43.0701" lon="-0.09159">
        <ele>770.8</ele>
        <time>2022-02-12T09:22:36Z</time>
      </trkpt>
      <trkpt lat="43.07008" lon="-0.09157">
        <ele>770.8</ele>
        <time>2022-02-12T09:22:37Z</time>
      </trkpt>
      <trkpt lat="43.07006" lon="-0.09157">
        <ele>770.8</ele>
        <time>2022-02-12T09:22:38Z</time>
      </trkpt>
      <trkpt lat="43.07003" lon="-0.09156">
        <ele>770.8</ele>
        <time>2022-02-12T09:22:39Z</time>
      </trkpt>
      <trkpt lat="43.07" lon="-0.09155">
        <ele>770.8</ele>
        <time>2022-02-12T09:22:40Z</time>
      </trkpt>
      <trkpt lat="43.06997" lon="-0.09155">
        <ele>770.8</ele>
        <time>2022-02-12T09:22:41Z</time>
      </trkpt>
      <trkpt lat="43.06996" lon="-0.09154">
        <ele>770.8</ele>
        <time>2022-02-12T09:22:42Z</time>
      </trkpt>
      <trkpt lat="43.06994" lon="-0.09154">
        <ele>770.8</ele>
        <time>2022-02-12T09:22:43Z</time>
      </trkpt>
      <trkpt lat="43.06992" lon="-0.09153">
        <ele>770.8</ele>
        <time>2022-02-12T09:22:44Z</time>
      </trkpt>
      <trkpt lat="43.0699" lon="-0.09153">
        <ele>770.8</ele>
        <time>2022-02-12T09:22:45Z</time>
      </trkpt>
      <trkpt lat="43.06988" lon="-0.09152">
        <ele>770.8</ele>
        <time>2022-02-12T09:22:46Z</time>
      </trkpt>
      <trkpt lat="43.06985" lon="-0.09152">
        <ele>771</ele>
        <time>2022-02-12T09:22:47Z</time>
      </trkpt>
      <trkpt lat="43.06983" lon="-0.09152">
        <ele>771</ele>
        <time>2022-02-12T09:22:48Z</time>
      </trkpt>
      <trkpt lat="43.06981" lon="-0.09152">
        <ele>771</ele>
        <time>2022-02-12T09:22:49Z</time>
      </trkpt>
      <trkpt lat="43.06978" lon="-0.09152">
        <ele>771</ele>
        <time>2022-02-12T09:22:50Z</time>
      </trkpt>
      <trkpt lat="43.06975" lon="-0.09152">
        <ele>771</ele>
        <time>2022-02-12T09:22:51Z</time>
      </trkpt>
      <trkpt lat="43.06973" lon="-0.09152">
        <ele>771</ele>
        <time>2022-02-12T09:22:52Z</time>
      </trkpt>
      <trkpt lat="43.06971" lon="-0.09151">
        <ele>771</ele>
        <time>2022-02-12T09:22:53Z</time>
      </trkpt>
      <trkpt lat="43.06968" lon="-0.0915">
        <ele>771.2</ele>
        <time>2022-02-12T09:22:54Z</time>
      </trkpt>
      <trkpt lat="43.06966" lon="-0.0915">
        <ele>771.2</ele>
        <time>2022-02-12T09:22:55Z</time>
      </trkpt>
      <trkpt lat="43.06964" lon="-0.09149">
        <ele>771.2</ele>
        <time>2022-02-12T09:22:56Z</time>
      </trkpt>
      <trkpt lat="43.06962" lon="-0.09149">
        <ele>771.2</ele>
        <time>2022-02-12T09:22:57Z</time>
      </trkpt>
      <trkpt lat="43.06959" lon="-0.09148">
        <ele>771.2</ele>
        <time>2022-02-12T09:22:58Z</time>
      </trkpt>
      <trkpt lat="43.06956" lon="-0.09147">
        <ele>771.2</ele>
        <time>2022-02-12T09:22:59Z</time>
      </trkpt>
      <trkpt lat="43.06953" lon="-0.09146">
        <ele>771.4</ele>
        <time>2022-02-12T09:23:00Z</time>
      </trkpt>
      <trkpt lat="43.0695" lon="-0.09145">
        <ele>771.4</ele>
        <time>2022-02-12T09:23:01Z</time>
      </trkpt>
      <trkpt lat="43.06948" lon="-0.09143">
        <ele>771.4</ele>
        <time>2022-02-12T09:23:02Z</time>
      </trkpt>
      <trkpt lat="43.06946" lon="-0.09141">
        <ele>771.4</ele>
        <time>2022-02-12T09:23:03Z</time>
      </trkpt>
      <trkpt lat="43.06944" lon="-0.09139">
        <ele>771.6</ele>
        <time>2022-02-12T09:23:04Z</time>
      </trkpt>
      <trkpt lat="43.06943" lon="-0.09137">
        <ele>771.6</ele>
        <time>2022-02-12T09:23:05Z</time>
      </trkpt>
      <trkpt lat="43.06941" lon="-0.09135">
        <ele>771.8</ele>
        <time>2022-02-12T09:23:06Z</time>
      </trkpt>
      <trkpt lat="43.0694" lon="-0.09132">
        <ele>772</ele>
        <time>2022-02-12T09:23:07Z</time>
      </trkpt>
      <trkpt lat="43.06939" lon="-0.0913">
        <ele>772</ele>
        <time>2022-02-12T09:23:08Z</time>
      </trkpt>
      <trkpt lat="43.06938" lon="-0.09128">
        <ele>772.2</ele>
        <time>2022-02-12T09:23:09Z</time>
      </trkpt>
      <trkpt lat="43.06937" lon="-0.09126">
        <ele>772.2</ele>
        <time>2022-02-12T09:23:10Z</time>
      </trkpt>
      <trkpt lat="43.06936" lon="-0.09124">
        <ele>772.4</ele>
        <time>2022-02-12T09:23:11Z</time>
      </trkpt>
      <trkpt lat="43.06935" lon="-0.09123">
        <ele>772.6</ele>
        <time>2022-02-12T09:23:12Z</time>
      </trkpt>
      <trkpt lat="43.06934" lon="-0.09121">
        <ele>772.4</ele>
        <time>2022-02-12T09:23:13Z</time>
      </trkpt>
      <trkpt lat="43.06933" lon="-0.0912">
        <ele>772.4</ele>
        <time>2022-02-12T09:23:14Z</time>
      </trkpt>
      <trkpt lat="43.06932" lon="-0.09119">
        <ele>772.6</ele>
        <time>2022-02-12T09:23:15Z</time>
      </trkpt>
      <trkpt lat="43.06931" lon="-0.09117">
        <ele>772.8</ele>
        <time>2022-02-12T09:23:16Z</time>
      </trkpt>
      <trkpt lat="43.0693" lon="-0.09116">
        <ele>773</ele>
        <time>2022-02-12T09:23:17Z</time>
      </trkpt>
      <trkpt lat="43.06929" lon="-0.09115">
        <ele>773</ele>
        <time>2022-02-12T09:23:18Z</time>
      </trkpt>
      <trkpt lat="43.06929" lon="-0.09113">
        <ele>773.4</ele>
        <time>2022-02-12T09:23:19Z</time>
      </trkpt>
      <trkpt lat="43.06928" lon="-0.09112">
        <ele>773.4</ele>
        <time>2022-02-12T09:23:20Z</time>
      </trkpt>
      <trkpt lat="43.06928" lon="-0.0911">
        <ele>773.6</ele>
        <time>2022-02-12T09:23:21Z</time>
      </trkpt>
      <trkpt lat="43.06927" lon="-0.09108">
        <ele>773.6</ele>
        <time>2022-02-12T09:23:22Z</time>
      </trkpt>
      <trkpt lat="43.06927" lon="-0.09105">
        <ele>773.6</ele>
        <time>2022-02-12T09:23:23Z</time>
      </trkpt>
      <trkpt lat="43.06927" lon="-0.09103">
        <ele>773.6</ele>
        <time>2022-02-12T09:23:24Z</time>
      </trkpt>
      <trkpt lat="43.06926" lon="-0.09099">
        <ele>773.6</ele>
        <time>2022-02-12T09:23:25Z</time>
      </trkpt>
      <trkpt lat="43.06925" lon="-0.09096">
        <ele>773.6</ele>
        <time>2022-02-12T09:23:26Z</time>
      </trkpt>
      <trkpt lat="43.06924" lon="-0.09094">
        <ele>773.6</ele>
        <time>2022-02-12T09:23:27Z</time>
      </trkpt>
      <trkpt lat="43.06923" lon="-0.09091">
        <ele>773.6</ele>
        <time>2022-02-12T09:23:28Z</time>
      </trkpt>
      <trkpt lat="43.06922" lon="-0.09089">
        <ele>773.4</ele>
        <time>2022-02-12T09:23:29Z</time>
      </trkpt>
      <trkpt lat="43.06921" lon="-0.09087">
        <ele>773.6</ele>
        <time>2022-02-12T09:23:30Z</time>
      </trkpt>
      <trkpt lat="43.0692" lon="-0.09086">
        <ele>773.6</ele>
        <time>2022-02-12T09:23:31Z</time>
      </trkpt>
      <trkpt lat="43.06918" lon="-0.09083">
        <ele>773.4</ele>
        <time>2022-02-12T09:23:32Z</time>
      </trkpt>
      <trkpt lat="43.06917" lon="-0.09081">
        <ele>773.4</ele>
        <time>2022-02-12T09:23:33Z</time>
      </trkpt>
      <trkpt lat="43.06916" lon="-0.09078">
        <ele>773.4</ele>
        <time>2022-02-12T09:23:34Z</time>
      </trkpt>
      <trkpt lat="43.06914" lon="-0.09075">
        <ele>773.4</ele>
        <time>2022-02-12T09:23:35Z</time>
      </trkpt>
      <trkpt lat="43.06913" lon="-0.09072">
        <ele>773.2</ele>
        <time>2022-02-12T09:23:36Z</time>
      </trkpt>
      <trkpt lat="43.06912" lon="-0.0907">
        <ele>773.2</ele>
        <time>2022-02-12T09:23:37Z</time>
      </trkpt>
      <trkpt lat="43.06911" lon="-0.09067">
        <ele>773.2</ele>
        <time>2022-02-12T09:23:38Z</time>
      </trkpt>
      <trkpt lat="43.06909" lon="-0.09065">
        <ele>773.2</ele>
        <time>2022-02-12T09:23:39Z</time>
      </trkpt>
      <trkpt lat="43.06908" lon="-0.09062">
        <ele>773.2</ele>
        <time>2022-02-12T09:23:40Z</time>
      </trkpt>
      <trkpt lat="43.06907" lon="-0.0906">
        <ele>773.2</ele>
        <time>2022-02-12T09:23:41Z</time>
      </trkpt>
      <trkpt lat="43.06905" lon="-0.09058">
        <ele>773.2</ele>
        <time>2022-02-12T09:23:42Z</time>
      </trkpt>
      <trkpt lat="43.06903" lon="-0.09055">
        <ele>773.2</ele>
        <time>2022-02-12T09:23:43Z</time>
      </trkpt>
      <trkpt lat="43.06902" lon="-0.09053">
        <ele>773.2</ele>
        <time>2022-02-12T09:23:44Z</time>
      </trkpt>
      <trkpt lat="43.069" lon="-0.0905">
        <ele>773.2</ele>
        <time>2022-02-12T09:23:45Z</time>
      </trkpt>
      <trkpt lat="43.06899" lon="-0.09048">
        <ele>773.2</ele>
        <time>2022-02-12T09:23:46Z</time>
      </trkpt>
      <trkpt lat="43.06897" lon="-0.09046">
        <ele>773.2</ele>
        <time>2022-02-12T09:23:47Z</time>
      </trkpt>
      <trkpt lat="43.06896" lon="-0.09044">
        <ele>773.2</ele>
        <time>2022-02-12T09:23:48Z</time>
      </trkpt>
      <trkpt lat="43.06894" lon="-0.09042">
        <ele>773.2</ele>
        <time>2022-02-12T09:23:49Z</time>
      </trkpt>
      <trkpt lat="43.06892" lon="-0.09039">
        <ele>773.2</ele>
        <time>2022-02-12T09:23:50Z</time>
      </trkpt>
      <trkpt lat="43.06891" lon="-0.09037">
        <ele>773.2</ele>
        <time>2022-02-12T09:23:51Z</time>
      </trkpt>
      <trkpt lat="43.06889" lon="-0.09035">
        <ele>773.2</ele>
        <time>2022-02-12T09:23:52Z</time>
      </trkpt>
      <trkpt lat="43.06888" lon="-0.09033">
        <ele>773.2</ele>
        <time>2022-02-12T09:23:53Z</time>
      </trkpt>
      <trkpt lat="43.06887" lon="-0.09031">
        <ele>773.2</ele>
        <time>2022-02-12T09:23:54Z</time>
      </trkpt>
      <trkpt lat="43.06885" lon="-0.09029">
        <ele>773.2</ele>
        <time>2022-02-12T09:23:55Z</time>
      </trkpt>
      <trkpt lat="43.06883" lon="-0.09027">
        <ele>773.2</ele>
        <time>2022-02-12T09:23:56Z</time>
      </trkpt>
      <trkpt lat="43.06882" lon="-0.09025">
        <ele>773.2</ele>
        <time>2022-02-12T09:23:57Z</time>
      </trkpt>
      <trkpt lat="43.06881" lon="-0.09023">
        <ele>773.2</ele>
        <time>2022-02-12T09:23:58Z</time>
      </trkpt>
      <trkpt lat="43.06879" lon="-0.0902">
        <ele>773.2</ele>
        <time>2022-02-12T09:23:59Z</time>
      </trkpt>
      <trkpt lat="43.06878" lon="-0.09019">
        <ele>773.4</ele>
        <time>2022-02-12T09:24:00Z</time>
      </trkpt>
      <trkpt lat="43.06876" lon="-0.09016">
        <ele>773.4</ele>
        <time>2022-02-12T09:24:01Z</time>
      </trkpt>
      <trkpt lat="43.06874" lon="-0.09013">
        <ele>773.4</ele>
        <time>2022-02-12T09:24:02Z</time>
      </trkpt>
      <trkpt lat="43.06873" lon="-0.0901">
        <ele>773.6</ele>
        <time>2022-02-12T09:24:03Z</time>
      </trkpt>
      <trkpt lat="43.06871" lon="-0.09006">
        <ele>773.6</ele>
        <time>2022-02-12T09:24:04Z</time>
      </trkpt>
      <trkpt lat="43.06869" lon="-0.09002">
        <ele>773.6</ele>
        <time>2022-02-12T09:24:05Z</time>
      </trkpt>
      <trkpt lat="43.06867" lon="-0.08998">
        <ele>773.8</ele>
        <time>2022-02-12T09:24:06Z</time>
      </trkpt>
      <trkpt lat="43.06865" lon="-0.08994">
        <ele>773.6</ele>
        <time>2022-02-12T09:24:07Z</time>
      </trkpt>
      <trkpt lat="43.06863" lon="-0.0899">
        <ele>773.6</ele>
        <time>2022-02-12T09:24:08Z</time>
      </trkpt>
      <trkpt lat="43.06861" lon="-0.08987">
        <ele>773.6</ele>
        <time>2022-02-12T09:24:09Z</time>
      </trkpt>
      <trkpt lat="43.0686" lon="-0.08983">
        <ele>773.6</ele>
        <time>2022-02-12T09:24:10Z</time>
      </trkpt>
      <trkpt lat="43.06858" lon="-0.08979">
        <ele>773.6</ele>
        <time>2022-02-12T09:24:11Z</time>
      </trkpt>
      <trkpt lat="43.06857" lon="-0.08975">
        <ele>773.6</ele>
        <time>2022-02-12T09:24:12Z</time>
      </trkpt>
      <trkpt lat="43.06855" lon="-0.08971">
        <ele>773.6</ele>
        <time>2022-02-12T09:24:13Z</time>
      </trkpt>
      <trkpt lat="43.06853" lon="-0.08967">
        <ele>773.4</ele>
        <time>2022-02-12T09:24:14Z</time>
      </trkpt>
      <trkpt lat="43.06851" lon="-0.08964">
        <ele>773.4</ele>
        <time>2022-02-12T09:24:15Z</time>
      </trkpt>
      <trkpt lat="43.0685" lon="-0.0896">
        <ele>773.4</ele>
        <time>2022-02-12T09:24:16Z</time>
      </trkpt>
      <trkpt lat="43.0685" lon="-0.08956">
        <ele>773.2</ele>
        <time>2022-02-12T09:24:17Z</time>
      </trkpt>
      <trkpt lat="43.06849" lon="-0.08952">
        <ele>773.2</ele>
        <time>2022-02-12T09:24:18Z</time>
      </trkpt>
      <trkpt lat="43.06848" lon="-0.08947">
        <ele>773.2</ele>
        <time>2022-02-12T09:24:19Z</time>
      </trkpt>
      <trkpt lat="43.06846" lon="-0.08942">
        <ele>773.2</ele>
        <time>2022-02-12T09:24:20Z</time>
      </trkpt>
      <trkpt lat="43.06844" lon="-0.08937">
        <ele>773</ele>
        <time>2022-02-12T09:24:21Z</time>
      </trkpt>
      <trkpt lat="43.06842" lon="-0.08933">
        <ele>773</ele>
        <time>2022-02-12T09:24:22Z</time>
      </trkpt>
      <trkpt lat="43.0684" lon="-0.08927">
        <ele>773</ele>
        <time>2022-02-12T09:24:23Z</time>
      </trkpt>
      <trkpt lat="43.06838" lon="-0.08922">
        <ele>772.8</ele>
        <time>2022-02-12T09:24:24Z</time>
      </trkpt>
      <trkpt lat="43.06835" lon="-0.08917">
        <ele>772.8</ele>
        <time>2022-02-12T09:24:25Z</time>
      </trkpt>
      <trkpt lat="43.06834" lon="-0.08909">
        <ele>772.6</ele>
        <time>2022-02-12T09:24:26Z</time>
      </trkpt>
      <trkpt lat="43.06831" lon="-0.08904">
        <ele>772.4</ele>
        <time>2022-02-12T09:24:27Z</time>
      </trkpt>
      <trkpt lat="43.0683" lon="-0.08899">
        <ele>772.2</ele>
        <time>2022-02-12T09:24:28Z</time>
      </trkpt>
      <trkpt lat="43.06828" lon="-0.08895">
        <ele>771.8</ele>
        <time>2022-02-12T09:24:29Z</time>
      </trkpt>
      <trkpt lat="43.06827" lon="-0.08891">
        <ele>771.4</ele>
        <time>2022-02-12T09:24:30Z</time>
      </trkpt>
      <trkpt lat="43.06826" lon="-0.08887">
        <ele>771</ele>
        <time>2022-02-12T09:24:31Z</time>
      </trkpt>
      <trkpt lat="43.06824" lon="-0.08881">
        <ele>770.6</ele>
        <time>2022-02-12T09:24:32Z</time>
      </trkpt>
      <trkpt lat="43.06822" lon="-0.08877">
        <ele>770.4</ele>
        <time>2022-02-12T09:24:33Z</time>
      </trkpt>
      <trkpt lat="43.0682" lon="-0.08874">
        <ele>770.6</ele>
        <time>2022-02-12T09:24:34Z</time>
      </trkpt>
      <trkpt lat="43.06819" lon="-0.08869">
        <ele>770.4</ele>
        <time>2022-02-12T09:24:35Z</time>
      </trkpt>
      <trkpt lat="43.06817" lon="-0.08865">
        <ele>770.4</ele>
        <time>2022-02-12T09:24:36Z</time>
      </trkpt>
      <trkpt lat="43.06815" lon="-0.08861">
        <ele>770.4</ele>
        <time>2022-02-12T09:24:37Z</time>
      </trkpt>
      <trkpt lat="43.06813" lon="-0.08858">
        <ele>770.4</ele>
        <time>2022-02-12T09:24:38Z</time>
      </trkpt>
      <trkpt lat="43.06812" lon="-0.08854">
        <ele>770.2</ele>
        <time>2022-02-12T09:24:39Z</time>
      </trkpt>
      <trkpt lat="43.0681" lon="-0.0885">
        <ele>770.2</ele>
        <time>2022-02-12T09:24:40Z</time>
      </trkpt>
      <trkpt lat="43.06809" lon="-0.08847">
        <ele>770.2</ele>
        <time>2022-02-12T09:24:41Z</time>
      </trkpt>
      <trkpt lat="43.06808" lon="-0.08842">
        <ele>770.2</ele>
        <time>2022-02-12T09:24:42Z</time>
      </trkpt>
      <trkpt lat="43.06807" lon="-0.08838">
        <ele>770</ele>
        <time>2022-02-12T09:24:43Z</time>
      </trkpt>
      <trkpt lat="43.06806" lon="-0.08835">
        <ele>770</ele>
        <time>2022-02-12T09:24:44Z</time>
      </trkpt>
      <trkpt lat="43.06805" lon="-0.08833">
        <ele>769.8</ele>
        <time>2022-02-12T09:24:45Z</time>
      </trkpt>
      <trkpt lat="43.06805" lon="-0.08831">
        <ele>769.8</ele>
        <time>2022-02-12T09:24:46Z</time>
      </trkpt>
      <trkpt lat="43.06805" lon="-0.08828">
        <ele>769.6</ele>
        <time>2022-02-12T09:24:47Z</time>
      </trkpt>
      <trkpt lat="43.06805" lon="-0.08826">
        <ele>769.4</ele>
        <time>2022-02-12T09:24:48Z</time>
      </trkpt>
      <trkpt lat="43.06804" lon="-0.08821">
        <ele>769.2</ele>
        <time>2022-02-12T09:24:49Z</time>
      </trkpt>
      <trkpt lat="43.06803" lon="-0.08818">
        <ele>769</ele>
        <time>2022-02-12T09:24:50Z</time>
      </trkpt>
      <trkpt lat="43.06803" lon="-0.08812">
        <ele>769</ele>
        <time>2022-02-12T09:24:51Z</time>
      </trkpt>
      <trkpt lat="43.06802" lon="-0.08807">
        <ele>768.8</ele>
        <time>2022-02-12T09:24:52Z</time>
      </trkpt>
      <trkpt lat="43.06802" lon="-0.08803">
        <ele>768.4</ele>
        <time>2022-02-12T09:24:53Z</time>
      </trkpt>
      <trkpt lat="43.06802" lon="-0.08797">
        <ele>768</ele>
        <time>2022-02-12T09:24:54Z</time>
      </trkpt>
      <trkpt lat="43.06803" lon="-0.08789">
        <ele>768</ele>
        <time>2022-02-12T09:24:55Z</time>
      </trkpt>
      <trkpt lat="43.06803" lon="-0.08783">
        <ele>767.8</ele>
        <time>2022-02-12T09:24:56Z</time>
      </trkpt>
      <trkpt lat="43.06804" lon="-0.08775">
        <ele>767.6</ele>
        <time>2022-02-12T09:24:57Z</time>
      </trkpt>
      <trkpt lat="43.06804" lon="-0.08769">
        <ele>767.4</ele>
        <time>2022-02-12T09:24:58Z</time>
      </trkpt>
      <trkpt lat="43.06803" lon="-0.08761">
        <ele>767.2</ele>
        <time>2022-02-12T09:24:59Z</time>
      </trkpt>
      <trkpt lat="43.06802" lon="-0.08752">
        <ele>766.4</ele>
        <time>2022-02-12T09:25:00Z</time>
      </trkpt>
      <trkpt lat="43.06801" lon="-0.08743">
        <ele>766</ele>
        <time>2022-02-12T09:25:01Z</time>
      </trkpt>
      <trkpt lat="43.068" lon="-0.08735">
        <ele>765.2</ele>
        <time>2022-02-12T09:25:02Z</time>
      </trkpt>
      <trkpt lat="43.068" lon="-0.08726">
        <ele>764.8</ele>
        <time>2022-02-12T09:25:03Z</time>
      </trkpt>
      <trkpt lat="43.06799" lon="-0.08719">
        <ele>764.4</ele>
        <time>2022-02-12T09:25:04Z</time>
      </trkpt>
      <trkpt lat="43.06799" lon="-0.08709">
        <ele>764.4</ele>
        <time>2022-02-12T09:25:05Z</time>
      </trkpt>
      <trkpt lat="43.06798" lon="-0.087">
        <ele>762.8</ele>
        <time>2022-02-12T09:25:06Z</time>
      </trkpt>
      <trkpt lat="43.06796" lon="-0.0869">
        <ele>762.4</ele>
        <time>2022-02-12T09:25:07Z</time>
      </trkpt>
      <trkpt lat="43.06795" lon="-0.08682">
        <ele>761.6</ele>
        <time>2022-02-12T09:25:08Z</time>
      </trkpt>
      <trkpt lat="43.06794" lon="-0.08674">
        <ele>761.4</ele>
        <time>2022-02-12T09:25:09Z</time>
      </trkpt>
      <trkpt lat="43.06794" lon="-0.08666">
        <ele>761</ele>
        <time>2022-02-12T09:25:10Z</time>
      </trkpt>
      <trkpt lat="43.06793" lon="-0.08658">
        <ele>760.8</ele>
        <time>2022-02-12T09:25:11Z</time>
      </trkpt>
      <trkpt lat="43.06792" lon="-0.08651">
        <ele>760.4</ele>
        <time>2022-02-12T09:25:12Z</time>
      </trkpt>
      <trkpt lat="43.06792" lon="-0.08646">
        <ele>760</ele>
        <time>2022-02-12T09:25:13Z</time>
      </trkpt>
      <trkpt lat="43.06791" lon="-0.08641">
        <ele>758.8</ele>
        <time>2022-02-12T09:25:14Z</time>
      </trkpt>
      <trkpt lat="43.06791" lon="-0.08636">
        <ele>758.4</ele>
        <time>2022-02-12T09:25:15Z</time>
      </trkpt>
      <trkpt lat="43.06789" lon="-0.0863">
        <ele>757.6</ele>
        <time>2022-02-12T09:25:16Z</time>
      </trkpt>
      <trkpt lat="43.06787" lon="-0.08626">
        <ele>757.2</ele>
        <time>2022-02-12T09:25:17Z</time>
      </trkpt>
      <trkpt lat="43.06784" lon="-0.08622">
        <ele>756.2</ele>
        <time>2022-02-12T09:25:18Z</time>
      </trkpt>
      <trkpt lat="43.06782" lon="-0.08617">
        <ele>755.8</ele>
        <time>2022-02-12T09:25:19Z</time>
      </trkpt>
      <trkpt lat="43.06782" lon="-0.08612">
        <ele>755.6</ele>
        <time>2022-02-12T09:25:20Z</time>
      </trkpt>
      <trkpt lat="43.06782" lon="-0.08608">
        <ele>755.4</ele>
        <time>2022-02-12T09:25:21Z</time>
      </trkpt>
      <trkpt lat="43.06782" lon="-0.08605">
        <ele>755</ele>
        <time>2022-02-12T09:25:22Z</time>
      </trkpt>
      <trkpt lat="43.06781" lon="-0.08601">
        <ele>754</ele>
        <time>2022-02-12T09:25:23Z</time>
      </trkpt>
      <trkpt lat="43.0678" lon="-0.08598">
        <ele>753.6</ele>
        <time>2022-02-12T09:25:24Z</time>
      </trkpt>
      <trkpt lat="43.06779" lon="-0.08594">
        <ele>753</ele>
        <time>2022-02-12T09:25:25Z</time>
      </trkpt>
      <trkpt lat="43.06779" lon="-0.0859">
        <ele>752.8</ele>
        <time>2022-02-12T09:25:26Z</time>
      </trkpt>
      <trkpt lat="43.06777" lon="-0.08586">
        <ele>752.2</ele>
        <time>2022-02-12T09:25:27Z</time>
      </trkpt>
      <trkpt lat="43.06776" lon="-0.08581">
        <ele>752</ele>
        <time>2022-02-12T09:25:28Z</time>
      </trkpt>
      <trkpt lat="43.06776" lon="-0.08577">
        <ele>751.8</ele>
        <time>2022-02-12T09:25:29Z</time>
      </trkpt>
      <trkpt lat="43.06776" lon="-0.08575">
        <ele>751.4</ele>
        <time>2022-02-12T09:25:30Z</time>
      </trkpt>
      <trkpt lat="43.06776" lon="-0.08574">
        <ele>751</ele>
        <time>2022-02-12T09:25:31Z</time>
      </trkpt>
      <trkpt lat="43.06776" lon="-0.08573">
        <ele>750.6</ele>
        <time>2022-02-12T09:25:32Z</time>
      </trkpt>
      <trkpt lat="43.06776" lon="-0.08573">
        <ele>750</ele>
        <time>2022-02-12T09:25:33Z</time>
      </trkpt>
      <trkpt lat="43.06776" lon="-0.08573">
        <ele>749.8</ele>
        <time>2022-02-12T09:25:34Z</time>
      </trkpt>
      <trkpt lat="43.06776" lon="-0.08573">
        <ele>749.6</ele>
        <time>2022-02-12T09:25:35Z</time>
      </trkpt>
      <trkpt lat="43.06776" lon="-0.08573">
        <ele>749.6</ele>
        <time>2022-02-12T09:25:36Z</time>
      </trkpt>
      <trkpt lat="43.06776" lon="-0.08573">
        <ele>749.4</ele>
        <time>2022-02-12T09:25:37Z</time>
      </trkpt>
      <trkpt lat="43.06776" lon="-0.08573">
        <ele>749.2</ele>
        <time>2022-02-12T09:25:38Z</time>
      </trkpt>
      <trkpt lat="43.06776" lon="-0.08573">
        <ele>749.2</ele>
        <time>2022-02-12T09:25:39Z</time>
      </trkpt>
      <trkpt lat="43.06776" lon="-0.08573">
        <ele>749.2</ele>
        <time>2022-02-12T09:25:40Z</time>
      </trkpt>
      <trkpt lat="43.06775" lon="-0.08572">
        <ele>749</ele>
        <time>2022-02-12T09:25:41Z</time>
      </trkpt>
      <trkpt lat="43.06775" lon="-0.0857">
        <ele>749</ele>
        <time>2022-02-12T09:25:42Z</time>
      </trkpt>
      <trkpt lat="43.06775" lon="-0.08568">
        <ele>749</ele>
        <time>2022-02-12T09:25:43Z</time>
      </trkpt>
      <trkpt lat="43.06776" lon="-0.08566">
        <ele>748.8</ele>
        <time>2022-02-12T09:25:44Z</time>
      </trkpt>
      <trkpt lat="43.06775" lon="-0.08564">
        <ele>748.8</ele>
        <time>2022-02-12T09:25:45Z</time>
      </trkpt>
      <trkpt lat="43.06775" lon="-0.08562">
        <ele>748.6</ele>
        <time>2022-02-12T09:25:46Z</time>
      </trkpt>
      <trkpt lat="43.06775" lon="-0.0856">
        <ele>748.4</ele>
        <time>2022-02-12T09:25:47Z</time>
      </trkpt>
      <trkpt lat="43.06775" lon="-0.08558">
        <ele>748.4</ele>
        <time>2022-02-12T09:25:48Z</time>
      </trkpt>
      <trkpt lat="43.06775" lon="-0.08556">
        <ele>748.2</ele>
        <time>2022-02-12T09:25:49Z</time>
      </trkpt>
      <trkpt lat="43.06775" lon="-0.08554">
        <ele>748.2</ele>
        <time>2022-02-12T09:25:50Z</time>
      </trkpt>
      <trkpt lat="43.06775" lon="-0.08552">
        <ele>748</ele>
        <time>2022-02-12T09:25:51Z</time>
      </trkpt>
      <trkpt lat="43.06775" lon="-0.0855">
        <ele>748</ele>
        <time>2022-02-12T09:25:52Z</time>
      </trkpt>
      <trkpt lat="43.06775" lon="-0.08548">
        <ele>747.8</ele>
        <time>2022-02-12T09:25:53Z</time>
      </trkpt>
      <trkpt lat="43.06776" lon="-0.08546">
        <ele>747.6</ele>
        <time>2022-02-12T09:25:54Z</time>
      </trkpt>
      <trkpt lat="43.06776" lon="-0.08544">
        <ele>747.4</ele>
        <time>2022-02-12T09:25:55Z</time>
      </trkpt>
      <trkpt lat="43.06777" lon="-0.08544">
        <ele>747.2</ele>
        <time>2022-02-12T09:25:56Z</time>
      </trkpt>
      <trkpt lat="43.06777" lon="-0.08544">
        <ele>747.2</ele>
        <time>2022-02-12T09:25:57Z</time>
      </trkpt>
      <trkpt lat="43.06777" lon="-0.08544">
        <ele>746.8</ele>
        <time>2022-02-12T09:25:58Z</time>
      </trkpt>
      <trkpt lat="43.06778" lon="-0.08543">
        <ele>746.6</ele>
        <time>2022-02-12T09:25:59Z</time>
      </trkpt>
      <trkpt lat="43.06779" lon="-0.08541">
        <ele>746.4</ele>
        <time>2022-02-12T09:26:00Z</time>
      </trkpt>
      <trkpt lat="43.0678" lon="-0.08538">
        <ele>746.4</ele>
        <time>2022-02-12T09:26:01Z</time>
      </trkpt>
      <trkpt lat="43.06781" lon="-0.08536">
        <ele>746</ele>
        <time>2022-02-12T09:26:02Z</time>
      </trkpt>
      <trkpt lat="43.06783" lon="-0.08534">
        <ele>746</ele>
        <time>2022-02-12T09:26:03Z</time>
      </trkpt>
      <trkpt lat="43.06784" lon="-0.08531">
        <ele>745.8</ele>
        <time>2022-02-12T09:26:04Z</time>
      </trkpt>
      <trkpt lat="43.06786" lon="-0.08528">
        <ele>745.6</ele>
        <time>2022-02-12T09:26:05Z</time>
      </trkpt>
      <trkpt lat="43.06787" lon="-0.08526">
        <ele>745.6</ele>
        <time>2022-02-12T09:26:06Z</time>
      </trkpt>
      <trkpt lat="43.06788" lon="-0.08526">
        <ele>745.4</ele>
        <time>2022-02-12T09:26:07Z</time>
      </trkpt>
      <trkpt lat="43.0679" lon="-0.08524">
        <ele>745.4</ele>
        <time>2022-02-12T09:26:08Z</time>
      </trkpt>
      <trkpt lat="43.06792" lon="-0.08523">
        <ele>745.2</ele>
        <time>2022-02-12T09:26:09Z</time>
      </trkpt>
      <trkpt lat="43.06793" lon="-0.08521">
        <ele>745</ele>
        <time>2022-02-12T09:26:10Z</time>
      </trkpt>
      <trkpt lat="43.06793" lon="-0.08521">
        <ele>744.8</ele>
        <time>2022-02-12T09:26:11Z</time>
      </trkpt>
      <trkpt lat="43.06794" lon="-0.0852">
        <ele>744.8</ele>
        <time>2022-02-12T09:26:12Z</time>
      </trkpt>
      <trkpt lat="43.06795" lon="-0.0852">
        <ele>744.6</ele>
        <time>2022-02-12T09:26:13Z</time>
      </trkpt>
      <trkpt lat="43.06796" lon="-0.08519">
        <ele>744.6</ele>
        <time>2022-02-12T09:26:14Z</time>
      </trkpt>
      <trkpt lat="43.06796" lon="-0.08519">
        <ele>744.4</ele>
        <time>2022-02-12T09:26:15Z</time>
      </trkpt>
      <trkpt lat="43.06796" lon="-0.08519">
        <ele>744.4</ele>
        <time>2022-02-12T09:26:16Z</time>
      </trkpt>
      <trkpt lat="43.06796" lon="-0.08519">
        <ele>744.2</ele>
        <time>2022-02-12T09:26:17Z</time>
      </trkpt>
      <trkpt lat="43.06796" lon="-0.08519">
        <ele>744.2</ele>
        <time>2022-02-12T09:26:18Z</time>
      </trkpt>
      <trkpt lat="43.06796" lon="-0.08519">
        <ele>744.2</ele>
        <time>2022-02-12T09:26:19Z</time>
      </trkpt>
      <trkpt lat="43.06796" lon="-0.08519">
        <ele>744.2</ele>
        <time>2022-02-12T09:26:20Z</time>
      </trkpt>
      <trkpt lat="43.06796" lon="-0.08519">
        <ele>744</ele>
        <time>2022-02-12T09:26:21Z</time>
      </trkpt>
      <trkpt lat="43.06796" lon="-0.08519">
        <ele>744</ele>
        <time>2022-02-12T09:26:22Z</time>
      </trkpt>
      <trkpt lat="43.06796" lon="-0.08519">
        <ele>744</ele>
        <time>2022-02-12T09:26:23Z</time>
      </trkpt>
      <trkpt lat="43.06796" lon="-0.08519">
        <ele>744</ele>
        <time>2022-02-12T09:26:24Z</time>
      </trkpt>
      <trkpt lat="43.06796" lon="-0.08519">
        <ele>744</ele>
        <time>2022-02-12T09:26:25Z</time>
      </trkpt>
      <trkpt lat="43.06796" lon="-0.08519">
        <ele>744</ele>
        <time>2022-02-12T09:26:26Z</time>
      </trkpt>
      <trkpt lat="43.06796" lon="-0.08519">
        <ele>743.8</ele>
        <time>2022-02-12T09:26:27Z</time>
      </trkpt>
      <trkpt lat="43.06796" lon="-0.08519">
        <ele>743.8</ele>
        <time>2022-02-12T09:26:28Z</time>
      </trkpt>
      <trkpt lat="43.06796" lon="-0.08519">
        <ele>743.8</ele>
        <time>2022-02-12T09:26:29Z</time>
      </trkpt>
      <trkpt lat="43.06796" lon="-0.08518">
        <ele>743.8</ele>
        <time>2022-02-12T09:26:30Z</time>
      </trkpt>
      <trkpt lat="43.06796" lon="-0.08518">
        <ele>743.8</ele>
        <time>2022-02-12T09:26:31Z</time>
      </trkpt>
      <trkpt lat="43.06796" lon="-0.08518">
        <ele>743.8</ele>
        <time>2022-02-12T09:26:32Z</time>
      </trkpt>
      <trkpt lat="43.06796" lon="-0.08518">
        <ele>743.6</ele>
        <time>2022-02-12T09:26:33Z</time>
      </trkpt>
      <trkpt lat="43.06796" lon="-0.08518">
        <ele>743.6</ele>
        <time>2022-02-12T09:26:34Z</time>
      </trkpt>
      <trkpt lat="43.06796" lon="-0.08518">
        <ele>743.6</ele>
        <time>2022-02-12T09:26:35Z</time>
      </trkpt>
      <trkpt lat="43.06796" lon="-0.08518">
        <ele>743.4</ele>
        <time>2022-02-12T09:26:36Z</time>
      </trkpt>
      <trkpt lat="43.06796" lon="-0.08518">
        <ele>743.4</ele>
        <time>2022-02-12T09:26:37Z</time>
      </trkpt>
      <trkpt lat="43.06796" lon="-0.08518">
        <ele>743.4</ele>
        <time>2022-02-12T09:26:38Z</time>
      </trkpt>
      <trkpt lat="43.06796" lon="-0.08518">
        <ele>743.4</ele>
        <time>2022-02-12T09:26:39Z</time>
      </trkpt>
      <trkpt lat="43.06796" lon="-0.08518">
        <ele>743.2</ele>
        <time>2022-02-12T09:26:40Z</time>
      </trkpt>
      <trkpt lat="43.06796" lon="-0.08518">
        <ele>743.2</ele>
        <time>2022-02-12T09:26:41Z</time>
      </trkpt>
      <trkpt lat="43.06796" lon="-0.08518">
        <ele>743.2</ele>
        <time>2022-02-12T09:26:42Z</time>
      </trkpt>
      <trkpt lat="43.06796" lon="-0.08518">
        <ele>743</ele>
        <time>2022-02-12T09:26:43Z</time>
      </trkpt>
      <trkpt lat="43.06796" lon="-0.08518">
        <ele>743</ele>
        <time>2022-02-12T09:26:44Z</time>
      </trkpt>
      <trkpt lat="43.06796" lon="-0.08518">
        <ele>743</ele>
        <time>2022-02-12T09:26:45Z</time>
      </trkpt>
      <trkpt lat="43.06796" lon="-0.08518">
        <ele>742.6</ele>
        <time>2022-02-12T09:26:46Z</time>
      </trkpt>
      <trkpt lat="43.06796" lon="-0.08518">
        <ele>742.6</ele>
        <time>2022-02-12T09:26:47Z</time>
      </trkpt>
      <trkpt lat="43.06797" lon="-0.08516">
        <ele>742.6</ele>
        <time>2022-02-12T09:26:48Z</time>
      </trkpt>
      <trkpt lat="43.06797" lon="-0.08516">
        <ele>742.4</ele>
        <time>2022-02-12T09:26:49Z</time>
      </trkpt>
      <trkpt lat="43.06797" lon="-0.08516">
        <ele>742.4</ele>
        <time>2022-02-12T09:26:50Z</time>
      </trkpt>
      <trkpt lat="43.06797" lon="-0.08515">
        <ele>742.4</ele>
        <time>2022-02-12T09:26:51Z</time>
      </trkpt>
      <trkpt lat="43.06797" lon="-0.08514">
        <ele>742.4</ele>
        <time>2022-02-12T09:26:52Z</time>
      </trkpt>
      <trkpt lat="43.06799" lon="-0.08513">
        <ele>742.4</ele>
        <time>2022-02-12T09:26:53Z</time>
      </trkpt>
      <trkpt lat="43.06799" lon="-0.08511">
        <ele>742.4</ele>
        <time>2022-02-12T09:26:54Z</time>
      </trkpt>
      <trkpt lat="43.068" lon="-0.08509">
        <ele>742.2</ele>
        <time>2022-02-12T09:26:55Z</time>
      </trkpt>
      <trkpt lat="43.068" lon="-0.08507">
        <ele>742</ele>
        <time>2022-02-12T09:26:56Z</time>
      </trkpt>
      <trkpt lat="43.06801" lon="-0.08504">
        <ele>741.8</ele>
        <time>2022-02-12T09:26:57Z</time>
      </trkpt>
      <trkpt lat="43.06802" lon="-0.08502">
        <ele>741.8</ele>
        <time>2022-02-12T09:26:58Z</time>
      </trkpt>
      <trkpt lat="43.06802" lon="-0.085">
        <ele>741.6</ele>
        <time>2022-02-12T09:26:59Z</time>
      </trkpt>
      <trkpt lat="43.06803" lon="-0.08498">
        <ele>741.6</ele>
        <time>2022-02-12T09:27:00Z</time>
      </trkpt>
      <trkpt lat="43.06804" lon="-0.08497">
        <ele>741.6</ele>
        <time>2022-02-12T09:27:01Z</time>
      </trkpt>
      <trkpt lat="43.06804" lon="-0.08497">
        <ele>741.6</ele>
        <time>2022-02-12T09:27:02Z</time>
      </trkpt>
      <trkpt lat="43.06804" lon="-0.08497">
        <ele>741.4</ele>
        <time>2022-02-12T09:27:03Z</time>
      </trkpt>
      <trkpt lat="43.06804" lon="-0.08496">
        <ele>741.4</ele>
        <time>2022-02-12T09:27:04Z</time>
      </trkpt>
      <trkpt lat="43.06804" lon="-0.08496">
        <ele>741.4</ele>
        <time>2022-02-12T09:27:05Z</time>
      </trkpt>
      <trkpt lat="43.06805" lon="-0.08495">
        <ele>741.4</ele>
        <time>2022-02-12T09:27:06Z</time>
      </trkpt>
      <trkpt lat="43.06805" lon="-0.08495">
        <ele>741.4</ele>
        <time>2022-02-12T09:27:07Z</time>
      </trkpt>
      <trkpt lat="43.06806" lon="-0.08493">
        <ele>741.4</ele>
        <time>2022-02-12T09:27:08Z</time>
      </trkpt>
      <trkpt lat="43.06806" lon="-0.08491">
        <ele>741.4</ele>
        <time>2022-02-12T09:27:09Z</time>
      </trkpt>
      <trkpt lat="43.06808" lon="-0.08488">
        <ele>741.4</ele>
        <time>2022-02-12T09:27:10Z</time>
      </trkpt>
      <trkpt lat="43.06809" lon="-0.08485">
        <ele>741.4</ele>
        <time>2022-02-12T09:27:11Z</time>
      </trkpt>
      <trkpt lat="43.0681" lon="-0.08481">
        <ele>741.4</ele>
        <time>2022-02-12T09:27:12Z</time>
      </trkpt>
      <trkpt lat="43.0681" lon="-0.08478">
        <ele>741.4</ele>
        <time>2022-02-12T09:27:13Z</time>
      </trkpt>
      <trkpt lat="43.06811" lon="-0.08476">
        <ele>741.4</ele>
        <time>2022-02-12T09:27:14Z</time>
      </trkpt>
      <trkpt lat="43.06812" lon="-0.08473">
        <ele>741.2</ele>
        <time>2022-02-12T09:27:15Z</time>
      </trkpt>
      <trkpt lat="43.06813" lon="-0.08471">
        <ele>741.2</ele>
        <time>2022-02-12T09:27:16Z</time>
      </trkpt>
      <trkpt lat="43.06815" lon="-0.08468">
        <ele>741.2</ele>
        <time>2022-02-12T09:27:17Z</time>
      </trkpt>
      <trkpt lat="43.06817" lon="-0.08465">
        <ele>741</ele>
        <time>2022-02-12T09:27:18Z</time>
      </trkpt>
      <trkpt lat="43.06818" lon="-0.08462">
        <ele>741</ele>
        <time>2022-02-12T09:27:19Z</time>
      </trkpt>
      <trkpt lat="43.0682" lon="-0.08459">
        <ele>740.8</ele>
        <time>2022-02-12T09:27:20Z</time>
      </trkpt>
      <trkpt lat="43.06822" lon="-0.08455">
        <ele>740.6</ele>
        <time>2022-02-12T09:27:21Z</time>
      </trkpt>
      <trkpt lat="43.06823" lon="-0.08452">
        <ele>740.6</ele>
        <time>2022-02-12T09:27:22Z</time>
      </trkpt>
      <trkpt lat="43.06824" lon="-0.08449">
        <ele>740.2</ele>
        <time>2022-02-12T09:27:23Z</time>
      </trkpt>
      <trkpt lat="43.06825" lon="-0.08445">
        <ele>739.8</ele>
        <time>2022-02-12T09:27:24Z</time>
      </trkpt>
      <trkpt lat="43.06826" lon="-0.08442">
        <ele>739.8</ele>
        <time>2022-02-12T09:27:25Z</time>
      </trkpt>
      <trkpt lat="43.06827" lon="-0.08437">
        <ele>739.6</ele>
        <time>2022-02-12T09:27:26Z</time>
      </trkpt>
      <trkpt lat="43.06826" lon="-0.08433">
        <ele>739.6</ele>
        <time>2022-02-12T09:27:27Z</time>
      </trkpt>
      <trkpt lat="43.06826" lon="-0.0843">
        <ele>739.4</ele>
        <time>2022-02-12T09:27:28Z</time>
      </trkpt>
      <trkpt lat="43.06826" lon="-0.08427">
        <ele>739.2</ele>
        <time>2022-02-12T09:27:29Z</time>
      </trkpt>
      <trkpt lat="43.06826" lon="-0.08424">
        <ele>739.2</ele>
        <time>2022-02-12T09:27:30Z</time>
      </trkpt>
      <trkpt lat="43.06826" lon="-0.0842">
        <ele>739</ele>
        <time>2022-02-12T09:27:31Z</time>
      </trkpt>
      <trkpt lat="43.06826" lon="-0.08418">
        <ele>738.8</ele>
        <time>2022-02-12T09:27:32Z</time>
      </trkpt>
      <trkpt lat="43.06826" lon="-0.08415">
        <ele>738.8</ele>
        <time>2022-02-12T09:27:33Z</time>
      </trkpt>
      <trkpt lat="43.06827" lon="-0.08413">
        <ele>738.6</ele>
        <time>2022-02-12T09:27:34Z</time>
      </trkpt>
      <trkpt lat="43.06827" lon="-0.08411">
        <ele>738.4</ele>
        <time>2022-02-12T09:27:35Z</time>
      </trkpt>
      <trkpt lat="43.06827" lon="-0.08408">
        <ele>738.2</ele>
        <time>2022-02-12T09:27:36Z</time>
      </trkpt>
      <trkpt lat="43.06827" lon="-0.08404">
        <ele>737.8</ele>
        <time>2022-02-12T09:27:37Z</time>
      </trkpt>
      <trkpt lat="43.06827" lon="-0.084">
        <ele>737.6</ele>
        <time>2022-02-12T09:27:38Z</time>
      </trkpt>
      <trkpt lat="43.06828" lon="-0.08396">
        <ele>737.2</ele>
        <time>2022-02-12T09:27:39Z</time>
      </trkpt>
      <trkpt lat="43.06829" lon="-0.08391">
        <ele>737</ele>
        <time>2022-02-12T09:27:40Z</time>
      </trkpt>
      <trkpt lat="43.0683" lon="-0.08387">
        <ele>736</ele>
        <time>2022-02-12T09:27:41Z</time>
      </trkpt>
      <trkpt lat="43.0683" lon="-0.08383">
        <ele>735.8</ele>
        <time>2022-02-12T09:27:42Z</time>
      </trkpt>
      <trkpt lat="43.06831" lon="-0.08379">
        <ele>735.4</ele>
        <time>2022-02-12T09:27:43Z</time>
      </trkpt>
      <trkpt lat="43.06831" lon="-0.08375">
        <ele>735.2</ele>
        <time>2022-02-12T09:27:44Z</time>
      </trkpt>
      <trkpt lat="43.06831" lon="-0.08374">
        <ele>734.4</ele>
        <time>2022-02-12T09:27:45Z</time>
      </trkpt>
      <trkpt lat="43.06831" lon="-0.08374">
        <ele>734.2</ele>
        <time>2022-02-12T09:27:46Z</time>
      </trkpt>
      <trkpt lat="43.06831" lon="-0.08373">
        <ele>733.4</ele>
        <time>2022-02-12T09:27:47Z</time>
      </trkpt>
      <trkpt lat="43.06832" lon="-0.08372">
        <ele>733.2</ele>
        <time>2022-02-12T09:27:48Z</time>
      </trkpt>
      <trkpt lat="43.06832" lon="-0.08371">
        <ele>732.8</ele>
        <time>2022-02-12T09:27:49Z</time>
      </trkpt>
      <trkpt lat="43.06832" lon="-0.08371">
        <ele>732.8</ele>
        <time>2022-02-12T09:27:50Z</time>
      </trkpt>
      <trkpt lat="43.06832" lon="-0.08371">
        <ele>732.4</ele>
        <time>2022-02-12T09:27:51Z</time>
      </trkpt>
      <trkpt lat="43.06832" lon="-0.08371">
        <ele>732.4</ele>
        <time>2022-02-12T09:27:52Z</time>
      </trkpt>
      <trkpt lat="43.06832" lon="-0.08371">
        <ele>732.4</ele>
        <time>2022-02-12T09:27:53Z</time>
      </trkpt>
      <trkpt lat="43.06832" lon="-0.08369">
        <ele>732.2</ele>
        <time>2022-02-12T09:27:54Z</time>
      </trkpt>
      <trkpt lat="43.06833" lon="-0.08366">
        <ele>732.2</ele>
        <time>2022-02-12T09:27:55Z</time>
      </trkpt>
      <trkpt lat="43.06834" lon="-0.08365">
        <ele>732.2</ele>
        <time>2022-02-12T09:27:56Z</time>
      </trkpt>
      <trkpt lat="43.06834" lon="-0.08365">
        <ele>732</ele>
        <time>2022-02-12T09:27:57Z</time>
      </trkpt>
      <trkpt lat="43.06834" lon="-0.08365">
        <ele>732</ele>
        <time>2022-02-12T09:27:58Z</time>
      </trkpt>
      <trkpt lat="43.06834" lon="-0.08365">
        <ele>731.8</ele>
        <time>2022-02-12T09:27:59Z</time>
      </trkpt>
      <trkpt lat="43.06834" lon="-0.08365">
        <ele>731.8</ele>
        <time>2022-02-12T09:28:00Z</time>
      </trkpt>
      <trkpt lat="43.06834" lon="-0.08365">
        <ele>731.6</ele>
        <time>2022-02-12T09:28:01Z</time>
      </trkpt>
      <trkpt lat="43.06834" lon="-0.08365">
        <ele>731.6</ele>
        <time>2022-02-12T09:28:02Z</time>
      </trkpt>
      <trkpt lat="43.06834" lon="-0.08365">
        <ele>731.6</ele>
        <time>2022-02-12T09:28:03Z</time>
      </trkpt>
      <trkpt lat="43.06834" lon="-0.08365">
        <ele>731.6</ele>
        <time>2022-02-12T09:28:04Z</time>
      </trkpt>
      <trkpt lat="43.06834" lon="-0.08365">
        <ele>731.6</ele>
        <time>2022-02-12T09:28:05Z</time>
      </trkpt>
      <trkpt lat="43.06834" lon="-0.08365">
        <ele>731.6</ele>
        <time>2022-02-12T09:28:06Z</time>
      </trkpt>
      <trkpt lat="43.06835" lon="-0.08364">
        <ele>731.4</ele>
        <time>2022-02-12T09:28:07Z</time>
      </trkpt>
      <trkpt lat="43.06835" lon="-0.08364">
        <ele>731.4</ele>
        <time>2022-02-12T09:28:08Z</time>
      </trkpt>
      <trkpt lat="43.06835" lon="-0.08364">
        <ele>731.4</ele>
        <time>2022-02-12T09:28:09Z</time>
      </trkpt>
      <trkpt lat="43.06835" lon="-0.08363">
        <ele>731.4</ele>
        <time>2022-02-12T09:28:10Z</time>
      </trkpt>
      <trkpt lat="43.06836" lon="-0.08361">
        <ele>731.4</ele>
        <time>2022-02-12T09:28:11Z</time>
      </trkpt>
      <trkpt lat="43.06836" lon="-0.08358">
        <ele>731.4</ele>
        <time>2022-02-12T09:28:12Z</time>
      </trkpt>
      <trkpt lat="43.06837" lon="-0.08354">
        <ele>731.2</ele>
        <time>2022-02-12T09:28:13Z</time>
      </trkpt>
      <trkpt lat="43.06838" lon="-0.08351">
        <ele>731</ele>
        <time>2022-02-12T09:28:14Z</time>
      </trkpt>
      <trkpt lat="43.06839" lon="-0.08347">
        <ele>730.8</ele>
        <time>2022-02-12T09:28:15Z</time>
      </trkpt>
      <trkpt lat="43.06841" lon="-0.08343">
        <ele>730.6</ele>
        <time>2022-02-12T09:28:16Z</time>
      </trkpt>
      <trkpt lat="43.06842" lon="-0.0834">
        <ele>730.6</ele>
        <time>2022-02-12T09:28:17Z</time>
      </trkpt>
      <trkpt lat="43.06842" lon="-0.08337">
        <ele>730.4</ele>
        <time>2022-02-12T09:28:18Z</time>
      </trkpt>
      <trkpt lat="43.06842" lon="-0.08334">
        <ele>730</ele>
        <time>2022-02-12T09:28:19Z</time>
      </trkpt>
      <trkpt lat="43.06843" lon="-0.08332">
        <ele>729.4</ele>
        <time>2022-02-12T09:28:20Z</time>
      </trkpt>
      <trkpt lat="43.06844" lon="-0.0833">
        <ele>729.2</ele>
        <time>2022-02-12T09:28:21Z</time>
      </trkpt>
      <trkpt lat="43.06845" lon="-0.08327">
        <ele>728.8</ele>
        <time>2022-02-12T09:28:22Z</time>
      </trkpt>
      <trkpt lat="43.06845" lon="-0.08325">
        <ele>728.6</ele>
        <time>2022-02-12T09:28:23Z</time>
      </trkpt>
      <trkpt lat="43.06846" lon="-0.08322">
        <ele>728</ele>
        <time>2022-02-12T09:28:24Z</time>
      </trkpt>
      <trkpt lat="43.06847" lon="-0.08319">
        <ele>727.6</ele>
        <time>2022-02-12T09:28:25Z</time>
      </trkpt>
      <trkpt lat="43.06849" lon="-0.08316">
        <ele>727.6</ele>
        <time>2022-02-12T09:28:26Z</time>
      </trkpt>
      <trkpt lat="43.0685" lon="-0.08312">
        <ele>727.2</ele>
        <time>2022-02-12T09:28:27Z</time>
      </trkpt>
      <trkpt lat="43.0685" lon="-0.0831">
        <ele>727.2</ele>
        <time>2022-02-12T09:28:28Z</time>
      </trkpt>
      <trkpt lat="43.06849" lon="-0.08307">
        <ele>727</ele>
        <time>2022-02-12T09:28:29Z</time>
      </trkpt>
      <trkpt lat="43.06849" lon="-0.08304">
        <ele>727</ele>
        <time>2022-02-12T09:28:30Z</time>
      </trkpt>
      <trkpt lat="43.0685" lon="-0.08299">
        <ele>726.6</ele>
        <time>2022-02-12T09:28:31Z</time>
      </trkpt>
      <trkpt lat="43.06852" lon="-0.08295">
        <ele>726.2</ele>
        <time>2022-02-12T09:28:32Z</time>
      </trkpt>
      <trkpt lat="43.06855" lon="-0.0829">
        <ele>725.8</ele>
        <time>2022-02-12T09:28:33Z</time>
      </trkpt>
      <trkpt lat="43.06856" lon="-0.08287">
        <ele>725.8</ele>
        <time>2022-02-12T09:28:34Z</time>
      </trkpt>
      <trkpt lat="43.06857" lon="-0.08283">
        <ele>725</ele>
        <time>2022-02-12T09:28:35Z</time>
      </trkpt>
      <trkpt lat="43.06859" lon="-0.08279">
        <ele>724.8</ele>
        <time>2022-02-12T09:28:36Z</time>
      </trkpt>
      <trkpt lat="43.06861" lon="-0.08274">
        <ele>724.2</ele>
        <time>2022-02-12T09:28:37Z</time>
      </trkpt>
      <trkpt lat="43.06861" lon="-0.08269">
        <ele>723.8</ele>
        <time>2022-02-12T09:28:38Z</time>
      </trkpt>
      <trkpt lat="43.0686" lon="-0.08265">
        <ele>723.2</ele>
        <time>2022-02-12T09:28:39Z</time>
      </trkpt>
      <trkpt lat="43.06858" lon="-0.0826">
        <ele>722.8</ele>
        <time>2022-02-12T09:28:40Z</time>
      </trkpt>
      <trkpt lat="43.06858" lon="-0.08256">
        <ele>721.8</ele>
        <time>2022-02-12T09:28:41Z</time>
      </trkpt>
      <trkpt lat="43.06858" lon="-0.08252">
        <ele>721.4</ele>
        <time>2022-02-12T09:28:42Z</time>
      </trkpt>
      <trkpt lat="43.06859" lon="-0.08248">
        <ele>720.2</ele>
        <time>2022-02-12T09:28:43Z</time>
      </trkpt>
      <trkpt lat="43.06859" lon="-0.08243">
        <ele>720</ele>
        <time>2022-02-12T09:28:44Z</time>
      </trkpt>
      <trkpt lat="43.06859" lon="-0.08239">
        <ele>719.4</ele>
        <time>2022-02-12T09:28:45Z</time>
      </trkpt>
      <trkpt lat="43.06859" lon="-0.08236">
        <ele>719.2</ele>
        <time>2022-02-12T09:28:46Z</time>
      </trkpt>
      <trkpt lat="43.06858" lon="-0.08233">
        <ele>718.4</ele>
        <time>2022-02-12T09:28:47Z</time>
      </trkpt>
      <trkpt lat="43.06857" lon="-0.08231">
        <ele>718.2</ele>
        <time>2022-02-12T09:28:48Z</time>
      </trkpt>
      <trkpt lat="43.06858" lon="-0.08229">
        <ele>717</ele>
        <time>2022-02-12T09:28:49Z</time>
      </trkpt>
      <trkpt lat="43.06859" lon="-0.08226">
        <ele>716</ele>
        <time>2022-02-12T09:28:50Z</time>
      </trkpt>
      <trkpt lat="43.06859" lon="-0.08224">
        <ele>715.8</ele>
        <time>2022-02-12T09:28:51Z</time>
      </trkpt>
      <trkpt lat="43.06858" lon="-0.08221">
        <ele>715.4</ele>
        <time>2022-02-12T09:28:52Z</time>
      </trkpt>
      <trkpt lat="43.06857" lon="-0.08219">
        <ele>715.2</ele>
        <time>2022-02-12T09:28:53Z</time>
      </trkpt>
      <trkpt lat="43.06857" lon="-0.08217">
        <ele>714.8</ele>
        <time>2022-02-12T09:28:54Z</time>
      </trkpt>
      <trkpt lat="43.06857" lon="-0.08215">
        <ele>714.4</ele>
        <time>2022-02-12T09:28:55Z</time>
      </trkpt>
      <trkpt lat="43.06858" lon="-0.08213">
        <ele>713.8</ele>
        <time>2022-02-12T09:28:56Z</time>
      </trkpt>
      <trkpt lat="43.06858" lon="-0.08211">
        <ele>713.2</ele>
        <time>2022-02-12T09:28:57Z</time>
      </trkpt>
      <trkpt lat="43.06858" lon="-0.08209">
        <ele>712.6</ele>
        <time>2022-02-12T09:28:58Z</time>
      </trkpt>
      <trkpt lat="43.06858" lon="-0.08208">
        <ele>712.4</ele>
        <time>2022-02-12T09:28:59Z</time>
      </trkpt>
      <trkpt lat="43.06858" lon="-0.08206">
        <ele>712</ele>
        <time>2022-02-12T09:29:00Z</time>
      </trkpt>
      <trkpt lat="43.06859" lon="-0.08204">
        <ele>711.6</ele>
        <time>2022-02-12T09:29:01Z</time>
      </trkpt>
      <trkpt lat="43.06859" lon="-0.08202">
        <ele>711</ele>
        <time>2022-02-12T09:29:02Z</time>
      </trkpt>
      <trkpt lat="43.06859" lon="-0.08199">
        <ele>710.6</ele>
        <time>2022-02-12T09:29:03Z</time>
      </trkpt>
      <trkpt lat="43.06859" lon="-0.08196">
        <ele>710.2</ele>
        <time>2022-02-12T09:29:04Z</time>
      </trkpt>
      <trkpt lat="43.06859" lon="-0.08193">
        <ele>709.8</ele>
        <time>2022-02-12T09:29:05Z</time>
      </trkpt>
      <trkpt lat="43.06859" lon="-0.0819">
        <ele>709.2</ele>
        <time>2022-02-12T09:29:06Z</time>
      </trkpt>
      <trkpt lat="43.0686" lon="-0.08187">
        <ele>709</ele>
        <time>2022-02-12T09:29:07Z</time>
      </trkpt>
      <trkpt lat="43.0686" lon="-0.08185">
        <ele>708</ele>
        <time>2022-02-12T09:29:08Z</time>
      </trkpt>
      <trkpt lat="43.06859" lon="-0.08182">
        <ele>707.8</ele>
        <time>2022-02-12T09:29:09Z</time>
      </trkpt>
      <trkpt lat="43.06859" lon="-0.0818">
        <ele>707.4</ele>
        <time>2022-02-12T09:29:10Z</time>
      </trkpt>
      <trkpt lat="43.06859" lon="-0.08179">
        <ele>707.2</ele>
        <time>2022-02-12T09:29:11Z</time>
      </trkpt>
      <trkpt lat="43.06858" lon="-0.08177">
        <ele>706.8</ele>
        <time>2022-02-12T09:29:12Z</time>
      </trkpt>
      <trkpt lat="43.06858" lon="-0.08175">
        <ele>706</ele>
        <time>2022-02-12T09:29:13Z</time>
      </trkpt>
      <trkpt lat="43.06859" lon="-0.08173">
        <ele>705.8</ele>
        <time>2022-02-12T09:29:14Z</time>
      </trkpt>
      <trkpt lat="43.06859" lon="-0.08171">
        <ele>705.4</ele>
        <time>2022-02-12T09:29:15Z</time>
      </trkpt>
      <trkpt lat="43.06859" lon="-0.0817">
        <ele>705.2</ele>
        <time>2022-02-12T09:29:16Z</time>
      </trkpt>
      <trkpt lat="43.06859" lon="-0.08168">
        <ele>704.4</ele>
        <time>2022-02-12T09:29:17Z</time>
      </trkpt>
      <trkpt lat="43.06858" lon="-0.08168">
        <ele>704</ele>
        <time>2022-02-12T09:29:18Z</time>
      </trkpt>
      <trkpt lat="43.06857" lon="-0.08168">
        <ele>703.4</ele>
        <time>2022-02-12T09:29:19Z</time>
      </trkpt>
      <trkpt lat="43.06856" lon="-0.08168">
        <ele>703.2</ele>
        <time>2022-02-12T09:29:20Z</time>
      </trkpt>
      <trkpt lat="43.06856" lon="-0.08168">
        <ele>702.8</ele>
        <time>2022-02-12T09:29:21Z</time>
      </trkpt>
      <trkpt lat="43.06856" lon="-0.08168">
        <ele>702.6</ele>
        <time>2022-02-12T09:29:22Z</time>
      </trkpt>
      <trkpt lat="43.06856" lon="-0.08168">
        <ele>702.4</ele>
        <time>2022-02-12T09:29:23Z</time>
      </trkpt>
      <trkpt lat="43.06856" lon="-0.08168">
        <ele>702.2</ele>
        <time>2022-02-12T09:29:24Z</time>
      </trkpt>
      <trkpt lat="43.06856" lon="-0.08167">
        <ele>702</ele>
        <time>2022-02-12T09:29:25Z</time>
      </trkpt>
      <trkpt lat="43.06856" lon="-0.08166">
        <ele>702</ele>
        <time>2022-02-12T09:29:26Z</time>
      </trkpt>
      <trkpt lat="43.06856" lon="-0.08166">
        <ele>702</ele>
        <time>2022-02-12T09:29:27Z</time>
      </trkpt>
      <trkpt lat="43.06857" lon="-0.08165">
        <ele>701.8</ele>
        <time>2022-02-12T09:29:28Z</time>
      </trkpt>
      <trkpt lat="43.06857" lon="-0.08165">
        <ele>701.8</ele>
        <time>2022-02-12T09:29:29Z</time>
      </trkpt>
      <trkpt lat="43.06857" lon="-0.08165">
        <ele>701.8</ele>
        <time>2022-02-12T09:29:30Z</time>
      </trkpt>
      <trkpt lat="43.06857" lon="-0.08165">
        <ele>701.6</ele>
        <time>2022-02-12T09:29:31Z</time>
      </trkpt>
      <trkpt lat="43.06857" lon="-0.08165">
        <ele>701.6</ele>
        <time>2022-02-12T09:29:32Z</time>
      </trkpt>
      <trkpt lat="43.06857" lon="-0.08165">
        <ele>701.4</ele>
        <time>2022-02-12T09:29:33Z</time>
      </trkpt>
      <trkpt lat="43.06857" lon="-0.08165">
        <ele>701.4</ele>
        <time>2022-02-12T09:29:34Z</time>
      </trkpt>
      <trkpt lat="43.06857" lon="-0.08165">
        <ele>701.2</ele>
        <time>2022-02-12T09:29:35Z</time>
      </trkpt>
      <trkpt lat="43.06857" lon="-0.08165">
        <ele>701</ele>
        <time>2022-02-12T09:29:36Z</time>
      </trkpt>
      <trkpt lat="43.06857" lon="-0.08165">
        <ele>701</ele>
        <time>2022-02-12T09:29:37Z</time>
      </trkpt>
      <trkpt lat="43.06857" lon="-0.08165">
        <ele>701</ele>
        <time>2022-02-12T09:29:38Z</time>
      </trkpt>
      <trkpt lat="43.06857" lon="-0.08165">
        <ele>701</ele>
        <time>2022-02-12T09:29:39Z</time>
      </trkpt>
      <trkpt lat="43.06857" lon="-0.08165">
        <ele>701</ele>
        <time>2022-02-12T09:29:40Z</time>
      </trkpt>
      <trkpt lat="43.06857" lon="-0.08165">
        <ele>701</ele>
        <time>2022-02-12T09:29:41Z</time>
      </trkpt>
      <trkpt lat="43.06857" lon="-0.08165">
        <ele>701</ele>
        <time>2022-02-12T09:29:42Z</time>
      </trkpt>
      <trkpt lat="43.06857" lon="-0.08165">
        <ele>701</ele>
        <time>2022-02-12T09:29:43Z</time>
      </trkpt>
      <trkpt lat="43.06857" lon="-0.08165">
        <ele>701</ele>
        <time>2022-02-12T09:29:44Z</time>
      </trkpt>
      <trkpt lat="43.06857" lon="-0.08164">
        <ele>701</ele>
        <time>2022-02-12T09:29:45Z</time>
      </trkpt>
      <trkpt lat="43.06857" lon="-0.08164">
        <ele>701</ele>
        <time>2022-02-12T09:29:46Z</time>
      </trkpt>
      <trkpt lat="43.06857" lon="-0.08164">
        <ele>700.8</ele>
        <time>2022-02-12T09:29:47Z</time>
      </trkpt>
      <trkpt lat="43.06857" lon="-0.08164">
        <ele>700.8</ele>
        <time>2022-02-12T09:29:48Z</time>
      </trkpt>
      <trkpt lat="43.06857" lon="-0.08164">
        <ele>700.6</ele>
        <time>2022-02-12T09:29:49Z</time>
      </trkpt>
      <trkpt lat="43.06857" lon="-0.08164">
        <ele>700.6</ele>
        <time>2022-02-12T09:29:50Z</time>
      </trkpt>
      <trkpt lat="43.06857" lon="-0.08164">
        <ele>700.4</ele>
        <time>2022-02-12T09:29:51Z</time>
      </trkpt>
      <trkpt lat="43.06857" lon="-0.08163">
        <ele>700.4</ele>
        <time>2022-02-12T09:29:52Z</time>
      </trkpt>
      <trkpt lat="43.06857" lon="-0.08161">
        <ele>700.4</ele>
        <time>2022-02-12T09:29:53Z</time>
      </trkpt>
      <trkpt lat="43.06856" lon="-0.08159">
        <ele>700.2</ele>
        <time>2022-02-12T09:29:54Z</time>
      </trkpt>
      <trkpt lat="43.06856" lon="-0.08156">
        <ele>700</ele>
        <time>2022-02-12T09:29:55Z</time>
      </trkpt>
      <trkpt lat="43.06856" lon="-0.08153">
        <ele>699.6</ele>
        <time>2022-02-12T09:29:56Z</time>
      </trkpt>
      <trkpt lat="43.06856" lon="-0.0815">
        <ele>699.4</ele>
        <time>2022-02-12T09:29:57Z</time>
      </trkpt>
      <trkpt lat="43.06857" lon="-0.08147">
        <ele>699.2</ele>
        <time>2022-02-12T09:29:58Z</time>
      </trkpt>
      <trkpt lat="43.06857" lon="-0.08144">
        <ele>698.8</ele>
        <time>2022-02-12T09:29:59Z</time>
      </trkpt>
      <trkpt lat="43.06856" lon="-0.08142">
        <ele>698.6</ele>
        <time>2022-02-12T09:30:00Z</time>
      </trkpt>
      <trkpt lat="43.06855" lon="-0.08139">
        <ele>698</ele>
        <time>2022-02-12T09:30:01Z</time>
      </trkpt>
      <trkpt lat="43.06855" lon="-0.08137">
        <ele>697.6</ele>
        <time>2022-02-12T09:30:02Z</time>
      </trkpt>
      <trkpt lat="43.06854" lon="-0.08134">
        <ele>697.2</ele>
        <time>2022-02-12T09:30:03Z</time>
      </trkpt>
      <trkpt lat="43.06854" lon="-0.08131">
        <ele>697</ele>
        <time>2022-02-12T09:30:04Z</time>
      </trkpt>
      <trkpt lat="43.06855" lon="-0.08129">
        <ele>696.4</ele>
        <time>2022-02-12T09:30:05Z</time>
      </trkpt>
      <trkpt lat="43.06855" lon="-0.08127">
        <ele>696.2</ele>
        <time>2022-02-12T09:30:06Z</time>
      </trkpt>
      <trkpt lat="43.06855" lon="-0.08124">
        <ele>695.6</ele>
        <time>2022-02-12T09:30:07Z</time>
      </trkpt>
      <trkpt lat="43.06854" lon="-0.08122">
        <ele>695.4</ele>
        <time>2022-02-12T09:30:08Z</time>
      </trkpt>
      <trkpt lat="43.06854" lon="-0.0812">
        <ele>695.2</ele>
        <time>2022-02-12T09:30:09Z</time>
      </trkpt>
      <trkpt lat="43.06853" lon="-0.08116">
        <ele>695</ele>
        <time>2022-02-12T09:30:10Z</time>
      </trkpt>
      <trkpt lat="43.06852" lon="-0.08113">
        <ele>694.4</ele>
        <time>2022-02-12T09:30:11Z</time>
      </trkpt>
      <trkpt lat="43.06851" lon="-0.0811">
        <ele>694.2</ele>
        <time>2022-02-12T09:30:12Z</time>
      </trkpt>
      <trkpt lat="43.0685" lon="-0.08107">
        <ele>693.8</ele>
        <time>2022-02-12T09:30:13Z</time>
      </trkpt>
      <trkpt lat="43.06849" lon="-0.08103">
        <ele>693.6</ele>
        <time>2022-02-12T09:30:14Z</time>
      </trkpt>
      <trkpt lat="43.06847" lon="-0.08099">
        <ele>693.2</ele>
        <time>2022-02-12T09:30:15Z</time>
      </trkpt>
      <trkpt lat="43.06844" lon="-0.08095">
        <ele>692.8</ele>
        <time>2022-02-12T09:30:16Z</time>
      </trkpt>
      <trkpt lat="43.06842" lon="-0.08092">
        <ele>692</ele>
        <time>2022-02-12T09:30:17Z</time>
      </trkpt>
      <trkpt lat="43.0684" lon="-0.08091">
        <ele>691.8</ele>
        <time>2022-02-12T09:30:18Z</time>
      </trkpt>
      <trkpt lat="43.06839" lon="-0.0809">
        <ele>691.6</ele>
        <time>2022-02-12T09:30:19Z</time>
      </trkpt>
      <trkpt lat="43.06837" lon="-0.08089">
        <ele>691.6</ele>
        <time>2022-02-12T09:30:20Z</time>
      </trkpt>
      <trkpt lat="43.06836" lon="-0.08087">
        <ele>691.2</ele>
        <time>2022-02-12T09:30:21Z</time>
      </trkpt>
      <trkpt lat="43.06832" lon="-0.08084">
        <ele>691.2</ele>
        <time>2022-02-12T09:30:22Z</time>
      </trkpt>
      <trkpt lat="43.06829" lon="-0.0808">
        <ele>691.2</ele>
        <time>2022-02-12T09:30:23Z</time>
      </trkpt>
      <trkpt lat="43.06825" lon="-0.08078">
        <ele>690.8</ele>
        <time>2022-02-12T09:30:24Z</time>
      </trkpt>
      <trkpt lat="43.06823" lon="-0.08076">
        <ele>690.8</ele>
        <time>2022-02-12T09:30:25Z</time>
      </trkpt>
      <trkpt lat="43.06822" lon="-0.08074">
        <ele>690.4</ele>
        <time>2022-02-12T09:30:26Z</time>
      </trkpt>
      <trkpt lat="43.06821" lon="-0.08072">
        <ele>690.2</ele>
        <time>2022-02-12T09:30:27Z</time>
      </trkpt>
      <trkpt lat="43.0682" lon="-0.08072">
        <ele>690</ele>
        <time>2022-02-12T09:30:28Z</time>
      </trkpt>
      <trkpt lat="43.0682" lon="-0.08072">
        <ele>689.8</ele>
        <time>2022-02-12T09:30:29Z</time>
      </trkpt>
      <trkpt lat="43.06821" lon="-0.08071">
        <ele>689.4</ele>
        <time>2022-02-12T09:30:30Z</time>
      </trkpt>
      <trkpt lat="43.06821" lon="-0.08071">
        <ele>689.4</ele>
        <time>2022-02-12T09:30:31Z</time>
      </trkpt>
      <trkpt lat="43.06821" lon="-0.08071">
        <ele>689.2</ele>
        <time>2022-02-12T09:30:32Z</time>
      </trkpt>
      <trkpt lat="43.06821" lon="-0.08071">
        <ele>689.2</ele>
        <time>2022-02-12T09:30:33Z</time>
      </trkpt>
      <trkpt lat="43.06821" lon="-0.08071">
        <ele>689</ele>
        <time>2022-02-12T09:30:34Z</time>
      </trkpt>
      <trkpt lat="43.06821" lon="-0.08071">
        <ele>689</ele>
        <time>2022-02-12T09:30:35Z</time>
      </trkpt>
      <trkpt lat="43.06821" lon="-0.08071">
        <ele>688.8</ele>
        <time>2022-02-12T09:30:36Z</time>
      </trkpt>
      <trkpt lat="43.06821" lon="-0.08071">
        <ele>688.8</ele>
        <time>2022-02-12T09:30:37Z</time>
      </trkpt>
      <trkpt lat="43.06821" lon="-0.08071">
        <ele>688.8</ele>
        <time>2022-02-12T09:30:38Z</time>
      </trkpt>
      <trkpt lat="43.06821" lon="-0.08071">
        <ele>688.8</ele>
        <time>2022-02-12T09:30:39Z</time>
      </trkpt>
      <trkpt lat="43.06821" lon="-0.08071">
        <ele>688.8</ele>
        <time>2022-02-12T09:30:40Z</time>
      </trkpt>
      <trkpt lat="43.06821" lon="-0.08071">
        <ele>688.8</ele>
        <time>2022-02-12T09:30:41Z</time>
      </trkpt>
      <trkpt lat="43.06821" lon="-0.08071">
        <ele>688.8</ele>
        <time>2022-02-12T09:30:42Z</time>
      </trkpt>
      <trkpt lat="43.06821" lon="-0.08071">
        <ele>688.8</ele>
        <time>2022-02-12T09:30:43Z</time>
      </trkpt>
      <trkpt lat="43.06821" lon="-0.08071">
        <ele>688.8</ele>
        <time>2022-02-12T09:30:44Z</time>
      </trkpt>
      <trkpt lat="43.06821" lon="-0.08071">
        <ele>688.8</ele>
        <time>2022-02-12T09:30:45Z</time>
      </trkpt>
      <trkpt lat="43.06821" lon="-0.08071">
        <ele>688.8</ele>
        <time>2022-02-12T09:30:46Z</time>
      </trkpt>
      <trkpt lat="43.06821" lon="-0.08071">
        <ele>688.8</ele>
        <time>2022-02-12T09:30:47Z</time>
      </trkpt>
      <trkpt lat="43.06821" lon="-0.08071">
        <ele>688.8</ele>
        <time>2022-02-12T09:30:48Z</time>
      </trkpt>
      <trkpt lat="43.06821" lon="-0.08071">
        <ele>688.8</ele>
        <time>2022-02-12T09:30:49Z</time>
      </trkpt>
      <trkpt lat="43.06821" lon="-0.08071">
        <ele>688.8</ele>
        <time>2022-02-12T09:30:50Z</time>
      </trkpt>
      <trkpt lat="43.06821" lon="-0.08071">
        <ele>688.8</ele>
        <time>2022-02-12T09:30:51Z</time>
      </trkpt>
      <trkpt lat="43.06821" lon="-0.08071">
        <ele>688.8</ele>
        <time>2022-02-12T09:30:52Z</time>
      </trkpt>
      <trkpt lat="43.06821" lon="-0.08071">
        <ele>688.8</ele>
        <time>2022-02-12T09:30:53Z</time>
      </trkpt>
      <trkpt lat="43.06821" lon="-0.08071">
        <ele>688.8</ele>
        <time>2022-02-12T09:30:54Z</time>
      </trkpt>
      <trkpt lat="43.06821" lon="-0.08071">
        <ele>688.8</ele>
        <time>2022-02-12T09:30:55Z</time>
      </trkpt>
      <trkpt lat="43.06821" lon="-0.08071">
        <ele>688.8</ele>
        <time>2022-02-12T09:30:56Z</time>
      </trkpt>
      <trkpt lat="43.06821" lon="-0.08071">
        <ele>688.8</ele>
        <time>2022-02-12T09:30:57Z</time>
      </trkpt>
      <trkpt lat="43.06821" lon="-0.08071">
        <ele>688.8</ele>
        <time>2022-02-12T09:30:58Z</time>
      </trkpt>
      <trkpt lat="43.06821" lon="-0.08071">
        <ele>688.8</ele>
        <time>2022-02-12T09:30:59Z</time>
      </trkpt>
      <trkpt lat="43.0682" lon="-0.08071">
        <ele>688.8</ele>
        <time>2022-02-12T09:31:00Z</time>
      </trkpt>
      <trkpt lat="43.0682" lon="-0.08071">
        <ele>688.6</ele>
        <time>2022-02-12T09:31:01Z</time>
      </trkpt>
      <trkpt lat="43.0682" lon="-0.08071">
        <ele>688.6</ele>
        <time>2022-02-12T09:31:02Z</time>
      </trkpt>
      <trkpt lat="43.0682" lon="-0.08071">
        <ele>688.6</ele>
        <time>2022-02-12T09:31:03Z</time>
      </trkpt>
      <trkpt lat="43.0682" lon="-0.08071">
        <ele>688.4</ele>
        <time>2022-02-12T09:31:04Z</time>
      </trkpt>
      <trkpt lat="43.0682" lon="-0.08071">
        <ele>688.4</ele>
        <time>2022-02-12T09:31:05Z</time>
      </trkpt>
      <trkpt lat="43.0682" lon="-0.08071">
        <ele>688.2</ele>
        <time>2022-02-12T09:31:06Z</time>
      </trkpt>
      <trkpt lat="43.0682" lon="-0.08071">
        <ele>688.2</ele>
        <time>2022-02-12T09:31:07Z</time>
      </trkpt>
      <trkpt lat="43.0682" lon="-0.0807">
        <ele>688.2</ele>
        <time>2022-02-12T09:31:08Z</time>
      </trkpt>
      <trkpt lat="43.06818" lon="-0.08068">
        <ele>688</ele>
        <time>2022-02-12T09:31:09Z</time>
      </trkpt>
      <trkpt lat="43.06816" lon="-0.08066">
        <ele>688</ele>
        <time>2022-02-12T09:31:10Z</time>
      </trkpt>
      <trkpt lat="43.06815" lon="-0.08064">
        <ele>687.8</ele>
        <time>2022-02-12T09:31:11Z</time>
      </trkpt>
      <trkpt lat="43.06814" lon="-0.08062">
        <ele>687.8</ele>
        <time>2022-02-12T09:31:12Z</time>
      </trkpt>
      <trkpt lat="43.06812" lon="-0.0806">
        <ele>687.6</ele>
        <time>2022-02-12T09:31:13Z</time>
      </trkpt>
      <trkpt lat="43.0681" lon="-0.08058">
        <ele>687.6</ele>
        <time>2022-02-12T09:31:14Z</time>
      </trkpt>
      <trkpt lat="43.06809" lon="-0.08057">
        <ele>687.4</ele>
        <time>2022-02-12T09:31:15Z</time>
      </trkpt>
      <trkpt lat="43.06809" lon="-0.08057">
        <ele>687.2</ele>
        <time>2022-02-12T09:31:16Z</time>
      </trkpt>
      <trkpt lat="43.06808" lon="-0.08057">
        <ele>687</ele>
        <time>2022-02-12T09:31:17Z</time>
      </trkpt>
      <trkpt lat="43.06808" lon="-0.08057">
        <ele>686.8</ele>
        <time>2022-02-12T09:31:18Z</time>
      </trkpt>
      <trkpt lat="43.06808" lon="-0.08057">
        <ele>686.8</ele>
        <time>2022-02-12T09:31:19Z</time>
      </trkpt>
      <trkpt lat="43.06808" lon="-0.08057">
        <ele>686.6</ele>
        <time>2022-02-12T09:31:20Z</time>
      </trkpt>
      <trkpt lat="43.06808" lon="-0.08056">
        <ele>686.6</ele>
        <time>2022-02-12T09:31:21Z</time>
      </trkpt>
      <trkpt lat="43.06807" lon="-0.08056">
        <ele>686.6</ele>
        <time>2022-02-12T09:31:22Z</time>
      </trkpt>
      <trkpt lat="43.06807" lon="-0.08056">
        <ele>686.6</ele>
        <time>2022-02-12T09:31:23Z</time>
      </trkpt>
      <trkpt lat="43.06807" lon="-0.08056">
        <ele>686.4</ele>
        <time>2022-02-12T09:31:24Z</time>
      </trkpt>
      <trkpt lat="43.06806" lon="-0.08055">
        <ele>686.2</ele>
        <time>2022-02-12T09:31:25Z</time>
      </trkpt>
      <trkpt lat="43.06805" lon="-0.08053">
        <ele>686</ele>
        <time>2022-02-12T09:31:26Z</time>
      </trkpt>
      <trkpt lat="43.06803" lon="-0.08052">
        <ele>686</ele>
        <time>2022-02-12T09:31:27Z</time>
      </trkpt>
      <trkpt lat="43.06802" lon="-0.08051">
        <ele>686</ele>
        <time>2022-02-12T09:31:28Z</time>
      </trkpt>
      <trkpt lat="43.068" lon="-0.08049">
        <ele>685.8</ele>
        <time>2022-02-12T09:31:29Z</time>
      </trkpt>
      <trkpt lat="43.06799" lon="-0.08049">
        <ele>685.8</ele>
        <time>2022-02-12T09:31:30Z</time>
      </trkpt>
      <trkpt lat="43.06798" lon="-0.08048">
        <ele>685.6</ele>
        <time>2022-02-12T09:31:31Z</time>
      </trkpt>
      <trkpt lat="43.06797" lon="-0.08047">
        <ele>685.4</ele>
        <time>2022-02-12T09:31:32Z</time>
      </trkpt>
      <trkpt lat="43.06796" lon="-0.08046">
        <ele>685.2</ele>
        <time>2022-02-12T09:31:33Z</time>
      </trkpt>
      <trkpt lat="43.06796" lon="-0.08045">
        <ele>685.2</ele>
        <time>2022-02-12T09:31:34Z</time>
      </trkpt>
      <trkpt lat="43.06796" lon="-0.08044">
        <ele>685.2</ele>
        <time>2022-02-12T09:31:35Z</time>
      </trkpt>
      <trkpt lat="43.06796" lon="-0.08043">
        <ele>685</ele>
        <time>2022-02-12T09:31:36Z</time>
      </trkpt>
      <trkpt lat="43.06796" lon="-0.0804">
        <ele>684.8</ele>
        <time>2022-02-12T09:31:37Z</time>
      </trkpt>
      <trkpt lat="43.06796" lon="-0.08039">
        <ele>684.8</ele>
        <time>2022-02-12T09:31:38Z</time>
      </trkpt>
      <trkpt lat="43.06796" lon="-0.08039">
        <ele>684.4</ele>
        <time>2022-02-12T09:31:39Z</time>
      </trkpt>
      <trkpt lat="43.06795" lon="-0.08038">
        <ele>684.2</ele>
        <time>2022-02-12T09:31:40Z</time>
      </trkpt>
      <trkpt lat="43.06795" lon="-0.08038">
        <ele>684</ele>
        <time>2022-02-12T09:31:41Z</time>
      </trkpt>
      <trkpt lat="43.06794" lon="-0.08037">
        <ele>684</ele>
        <time>2022-02-12T09:31:42Z</time>
      </trkpt>
      <trkpt lat="43.06792" lon="-0.08035">
        <ele>683.8</ele>
        <time>2022-02-12T09:31:43Z</time>
      </trkpt>
      <trkpt lat="43.06792" lon="-0.08033">
        <ele>683.8</ele>
        <time>2022-02-12T09:31:44Z</time>
      </trkpt>
      <trkpt lat="43.06792" lon="-0.08032">
        <ele>683.6</ele>
        <time>2022-02-12T09:31:45Z</time>
      </trkpt>
      <trkpt lat="43.06792" lon="-0.08031">
        <ele>683.6</ele>
        <time>2022-02-12T09:31:46Z</time>
      </trkpt>
      <trkpt lat="43.06791" lon="-0.0803">
        <ele>683.2</ele>
        <time>2022-02-12T09:31:47Z</time>
      </trkpt>
      <trkpt lat="43.06791" lon="-0.08029">
        <ele>683.2</ele>
        <time>2022-02-12T09:31:48Z</time>
      </trkpt>
      <trkpt lat="43.0679" lon="-0.08029">
        <ele>683</ele>
        <time>2022-02-12T09:31:49Z</time>
      </trkpt>
      <trkpt lat="43.0679" lon="-0.08028">
        <ele>682.8</ele>
        <time>2022-02-12T09:31:50Z</time>
      </trkpt>
      <trkpt lat="43.0679" lon="-0.08028">
        <ele>682.6</ele>
        <time>2022-02-12T09:31:51Z</time>
      </trkpt>
      <trkpt lat="43.0679" lon="-0.08028">
        <ele>682.4</ele>
        <time>2022-02-12T09:31:52Z</time>
      </trkpt>
      <trkpt lat="43.0679" lon="-0.08028">
        <ele>682.2</ele>
        <time>2022-02-12T09:31:53Z</time>
      </trkpt>
      <trkpt lat="43.0679" lon="-0.08028">
        <ele>682</ele>
        <time>2022-02-12T09:31:54Z</time>
      </trkpt>
      <trkpt lat="43.06789" lon="-0.08027">
        <ele>681.8</ele>
        <time>2022-02-12T09:31:55Z</time>
      </trkpt>
      <trkpt lat="43.06789" lon="-0.08027">
        <ele>681.8</ele>
        <time>2022-02-12T09:31:56Z</time>
      </trkpt>
      <trkpt lat="43.06788" lon="-0.08026">
        <ele>681.6</ele>
        <time>2022-02-12T09:31:57Z</time>
      </trkpt>
      <trkpt lat="43.06788" lon="-0.08024">
        <ele>681.6</ele>
        <time>2022-02-12T09:31:58Z</time>
      </trkpt>
      <trkpt lat="43.06787" lon="-0.08022">
        <ele>681.6</ele>
        <time>2022-02-12T09:31:59Z</time>
      </trkpt>
      <trkpt lat="43.06787" lon="-0.0802">
        <ele>681.4</ele>
        <time>2022-02-12T09:32:00Z</time>
      </trkpt>
      <trkpt lat="43.06786" lon="-0.08018">
        <ele>681.4</ele>
        <time>2022-02-12T09:32:01Z</time>
      </trkpt>
      <trkpt lat="43.06787" lon="-0.08017">
        <ele>681.2</ele>
        <time>2022-02-12T09:32:02Z</time>
      </trkpt>
      <trkpt lat="43.06787" lon="-0.08015">
        <ele>681.2</ele>
        <time>2022-02-12T09:32:03Z</time>
      </trkpt>
      <trkpt lat="43.06787" lon="-0.08013">
        <ele>681</ele>
        <time>2022-02-12T09:32:04Z</time>
      </trkpt>
      <trkpt lat="43.06786" lon="-0.08011">
        <ele>681</ele>
        <time>2022-02-12T09:32:05Z</time>
      </trkpt>
      <trkpt lat="43.06786" lon="-0.08009">
        <ele>680.8</ele>
        <time>2022-02-12T09:32:06Z</time>
      </trkpt>
      <trkpt lat="43.06786" lon="-0.08006">
        <ele>680.8</ele>
        <time>2022-02-12T09:32:07Z</time>
      </trkpt>
      <trkpt lat="43.06787" lon="-0.08002">
        <ele>680.4</ele>
        <time>2022-02-12T09:32:08Z</time>
      </trkpt>
      <trkpt lat="43.06788" lon="-0.07998">
        <ele>680.2</ele>
        <time>2022-02-12T09:32:09Z</time>
      </trkpt>
      <trkpt lat="43.06788" lon="-0.07994">
        <ele>679.6</ele>
        <time>2022-02-12T09:32:10Z</time>
      </trkpt>
      <trkpt lat="43.06787" lon="-0.0799">
        <ele>679.6</ele>
        <time>2022-02-12T09:32:11Z</time>
      </trkpt>
      <trkpt lat="43.06787" lon="-0.07985">
        <ele>679.4</ele>
        <time>2022-02-12T09:32:12Z</time>
      </trkpt>
      <trkpt lat="43.06788" lon="-0.07981">
        <ele>679.2</ele>
        <time>2022-02-12T09:32:13Z</time>
      </trkpt>
      <trkpt lat="43.06788" lon="-0.07977">
        <ele>678.8</ele>
        <time>2022-02-12T09:32:14Z</time>
      </trkpt>
      <trkpt lat="43.06789" lon="-0.07972">
        <ele>678.8</ele>
        <time>2022-02-12T09:32:15Z</time>
      </trkpt>
      <trkpt lat="43.06789" lon="-0.07967">
        <ele>678.6</ele>
        <time>2022-02-12T09:32:16Z</time>
      </trkpt>
      <trkpt lat="43.06789" lon="-0.07963">
        <ele>678.6</ele>
        <time>2022-02-12T09:32:17Z</time>
      </trkpt>
      <trkpt lat="43.06788" lon="-0.07959">
        <ele>678.4</ele>
        <time>2022-02-12T09:32:18Z</time>
      </trkpt>
      <trkpt lat="43.06788" lon="-0.07954">
        <ele>678.2</ele>
        <time>2022-02-12T09:32:19Z</time>
      </trkpt>
      <trkpt lat="43.06787" lon="-0.0795">
        <ele>678.2</ele>
        <time>2022-02-12T09:32:20Z</time>
      </trkpt>
      <trkpt lat="43.06786" lon="-0.07945">
        <ele>678</ele>
        <time>2022-02-12T09:32:21Z</time>
      </trkpt>
      <trkpt lat="43.06785" lon="-0.07941">
        <ele>677.8</ele>
        <time>2022-02-12T09:32:22Z</time>
      </trkpt>
      <trkpt lat="43.06783" lon="-0.07936">
        <ele>677.8</ele>
        <time>2022-02-12T09:32:23Z</time>
      </trkpt>
      <trkpt lat="43.06783" lon="-0.07933">
        <ele>677.6</ele>
        <time>2022-02-12T09:32:24Z</time>
      </trkpt>
      <trkpt lat="43.06783" lon="-0.0793">
        <ele>677.4</ele>
        <time>2022-02-12T09:32:25Z</time>
      </trkpt>
      <trkpt lat="43.06782" lon="-0.07928">
        <ele>677.2</ele>
        <time>2022-02-12T09:32:26Z</time>
      </trkpt>
      <trkpt lat="43.06783" lon="-0.07926">
        <ele>676.8</ele>
        <time>2022-02-12T09:32:27Z</time>
      </trkpt>
      <trkpt lat="43.06782" lon="-0.07923">
        <ele>676.8</ele>
        <time>2022-02-12T09:32:28Z</time>
      </trkpt>
      <trkpt lat="43.0678" lon="-0.07919">
        <ele>676.2</ele>
        <time>2022-02-12T09:32:29Z</time>
      </trkpt>
      <trkpt lat="43.06779" lon="-0.07916">
        <ele>676</ele>
        <time>2022-02-12T09:32:30Z</time>
      </trkpt>
      <trkpt lat="43.06778" lon="-0.07913">
        <ele>675.8</ele>
        <time>2022-02-12T09:32:31Z</time>
      </trkpt>
      <trkpt lat="43.06776" lon="-0.07909">
        <ele>675.6</ele>
        <time>2022-02-12T09:32:32Z</time>
      </trkpt>
      <trkpt lat="43.06775" lon="-0.07905">
        <ele>675.4</ele>
        <time>2022-02-12T09:32:33Z</time>
      </trkpt>
      <trkpt lat="43.06774" lon="-0.07901">
        <ele>675.2</ele>
        <time>2022-02-12T09:32:34Z</time>
      </trkpt>
      <trkpt lat="43.06774" lon="-0.07897">
        <ele>675</ele>
        <time>2022-02-12T09:32:35Z</time>
      </trkpt>
      <trkpt lat="43.06773" lon="-0.07895">
        <ele>674.8</ele>
        <time>2022-02-12T09:32:36Z</time>
      </trkpt>
      <trkpt lat="43.06773" lon="-0.07893">
        <ele>674.6</ele>
        <time>2022-02-12T09:32:37Z</time>
      </trkpt>
      <trkpt lat="43.06773" lon="-0.07892">
        <ele>674.6</ele>
        <time>2022-02-12T09:32:38Z</time>
      </trkpt>
      <trkpt lat="43.06773" lon="-0.07891">
        <ele>674.4</ele>
        <time>2022-02-12T09:32:39Z</time>
      </trkpt>
      <trkpt lat="43.06773" lon="-0.0789">
        <ele>674.4</ele>
        <time>2022-02-12T09:32:40Z</time>
      </trkpt>
      <trkpt lat="43.06773" lon="-0.0789">
        <ele>674.2</ele>
        <time>2022-02-12T09:32:41Z</time>
      </trkpt>
      <trkpt lat="43.06773" lon="-0.0789">
        <ele>674.2</ele>
        <time>2022-02-12T09:32:42Z</time>
      </trkpt>
      <trkpt lat="43.06773" lon="-0.0789">
        <ele>674</ele>
        <time>2022-02-12T09:32:43Z</time>
      </trkpt>
      <trkpt lat="43.06773" lon="-0.0789">
        <ele>674</ele>
        <time>2022-02-12T09:32:44Z</time>
      </trkpt>
      <trkpt lat="43.06773" lon="-0.07889">
        <ele>673.8</ele>
        <time>2022-02-12T09:32:45Z</time>
      </trkpt>
      <trkpt lat="43.06773" lon="-0.07889">
        <ele>673.6</ele>
        <time>2022-02-12T09:32:46Z</time>
      </trkpt>
      <trkpt lat="43.06773" lon="-0.07889">
        <ele>673.4</ele>
        <time>2022-02-12T09:32:47Z</time>
      </trkpt>
      <trkpt lat="43.06773" lon="-0.07888">
        <ele>673.4</ele>
        <time>2022-02-12T09:32:48Z</time>
      </trkpt>
      <trkpt lat="43.06773" lon="-0.07887">
        <ele>673.2</ele>
        <time>2022-02-12T09:32:49Z</time>
      </trkpt>
      <trkpt lat="43.06773" lon="-0.07887">
        <ele>673.2</ele>
        <time>2022-02-12T09:32:50Z</time>
      </trkpt>
      <trkpt lat="43.06773" lon="-0.07886">
        <ele>673</ele>
        <time>2022-02-12T09:32:51Z</time>
      </trkpt>
      <trkpt lat="43.06774" lon="-0.07886">
        <ele>673</ele>
        <time>2022-02-12T09:32:52Z</time>
      </trkpt>
      <trkpt lat="43.06774" lon="-0.07886">
        <ele>672.8</ele>
        <time>2022-02-12T09:32:53Z</time>
      </trkpt>
      <trkpt lat="43.06774" lon="-0.07886">
        <ele>672.6</ele>
        <time>2022-02-12T09:32:54Z</time>
      </trkpt>
      <trkpt lat="43.06774" lon="-0.07886">
        <ele>672.4</ele>
        <time>2022-02-12T09:32:55Z</time>
      </trkpt>
      <trkpt lat="43.06774" lon="-0.07886">
        <ele>672.2</ele>
        <time>2022-02-12T09:32:56Z</time>
      </trkpt>
      <trkpt lat="43.06774" lon="-0.07886">
        <ele>672.2</ele>
        <time>2022-02-12T09:32:57Z</time>
      </trkpt>
      <trkpt lat="43.06774" lon="-0.07886">
        <ele>672.2</ele>
        <time>2022-02-12T09:32:58Z</time>
      </trkpt>
      <trkpt lat="43.06773" lon="-0.07884">
        <ele>672</ele>
        <time>2022-02-12T09:32:59Z</time>
      </trkpt>
      <trkpt lat="43.06773" lon="-0.07882">
        <ele>672</ele>
        <time>2022-02-12T09:33:00Z</time>
      </trkpt>
      <trkpt lat="43.06772" lon="-0.0788">
        <ele>672</ele>
        <time>2022-02-12T09:33:01Z</time>
      </trkpt>
      <trkpt lat="43.06771" lon="-0.07877">
        <ele>671.8</ele>
        <time>2022-02-12T09:33:02Z</time>
      </trkpt>
      <trkpt lat="43.0677" lon="-0.07875">
        <ele>671.8</ele>
        <time>2022-02-12T09:33:03Z</time>
      </trkpt>
      <trkpt lat="43.06769" lon="-0.07873">
        <ele>671.8</ele>
        <time>2022-02-12T09:33:04Z</time>
      </trkpt>
      <trkpt lat="43.06768" lon="-0.07871">
        <ele>671.8</ele>
        <time>2022-02-12T09:33:05Z</time>
      </trkpt>
      <trkpt lat="43.06768" lon="-0.07869">
        <ele>671.4</ele>
        <time>2022-02-12T09:33:06Z</time>
      </trkpt>
      <trkpt lat="43.06767" lon="-0.07867">
        <ele>671.4</ele>
        <time>2022-02-12T09:33:07Z</time>
      </trkpt>
      <trkpt lat="43.06768" lon="-0.07866">
        <ele>671.2</ele>
        <time>2022-02-12T09:33:08Z</time>
      </trkpt>
      <trkpt lat="43.06767" lon="-0.07864">
        <ele>671</ele>
        <time>2022-02-12T09:33:09Z</time>
      </trkpt>
      <trkpt lat="43.06767" lon="-0.07861">
        <ele>671</ele>
        <time>2022-02-12T09:33:10Z</time>
      </trkpt>
      <trkpt lat="43.06767" lon="-0.07859">
        <ele>670.8</ele>
        <time>2022-02-12T09:33:11Z</time>
      </trkpt>
      <trkpt lat="43.06768" lon="-0.07856">
        <ele>670.8</ele>
        <time>2022-02-12T09:33:12Z</time>
      </trkpt>
      <trkpt lat="43.06769" lon="-0.07853">
        <ele>670.8</ele>
        <time>2022-02-12T09:33:13Z</time>
      </trkpt>
      <trkpt lat="43.0677" lon="-0.07851">
        <ele>670.8</ele>
        <time>2022-02-12T09:33:14Z</time>
      </trkpt>
      <trkpt lat="43.06772" lon="-0.07848">
        <ele>670.6</ele>
        <time>2022-02-12T09:33:15Z</time>
      </trkpt>
      <trkpt lat="43.06774" lon="-0.07845">
        <ele>670.6</ele>
        <time>2022-02-12T09:33:16Z</time>
      </trkpt>
      <trkpt lat="43.06775" lon="-0.07841">
        <ele>670.4</ele>
        <time>2022-02-12T09:33:17Z</time>
      </trkpt>
      <trkpt lat="43.06776" lon="-0.07838">
        <ele>670.2</ele>
        <time>2022-02-12T09:33:18Z</time>
      </trkpt>
      <trkpt lat="43.06778" lon="-0.07835">
        <ele>670.2</ele>
        <time>2022-02-12T09:33:19Z</time>
      </trkpt>
      <trkpt lat="43.0678" lon="-0.07829">
        <ele>670.2</ele>
        <time>2022-02-12T09:33:20Z</time>
      </trkpt>
      <trkpt lat="43.06782" lon="-0.07824">
        <ele>669.8</ele>
        <time>2022-02-12T09:33:21Z</time>
      </trkpt>
      <trkpt lat="43.06784" lon="-0.07817">
        <ele>669.8</ele>
        <time>2022-02-12T09:33:22Z</time>
      </trkpt>
      <trkpt lat="43.06787" lon="-0.07809">
        <ele>669.4</ele>
        <time>2022-02-12T09:33:23Z</time>
      </trkpt>
      <trkpt lat="43.0679" lon="-0.07802">
        <ele>669.4</ele>
        <time>2022-02-12T09:33:24Z</time>
      </trkpt>
      <trkpt lat="43.06793" lon="-0.07795">
        <ele>669</ele>
        <time>2022-02-12T09:33:25Z</time>
      </trkpt>
      <trkpt lat="43.06796" lon="-0.07787">
        <ele>668.6</ele>
        <time>2022-02-12T09:33:26Z</time>
      </trkpt>
      <trkpt lat="43.06799" lon="-0.0778">
        <ele>668.2</ele>
        <time>2022-02-12T09:33:27Z</time>
      </trkpt>
      <trkpt lat="43.06801" lon="-0.07774">
        <ele>667.8</ele>
        <time>2022-02-12T09:33:28Z</time>
      </trkpt>
      <trkpt lat="43.06802" lon="-0.0777">
        <ele>667.2</ele>
        <time>2022-02-12T09:33:29Z</time>
      </trkpt>
      <trkpt lat="43.06804" lon="-0.07766">
        <ele>667</ele>
        <time>2022-02-12T09:33:30Z</time>
      </trkpt>
      <trkpt lat="43.06805" lon="-0.07763">
        <ele>666.2</ele>
        <time>2022-02-12T09:33:31Z</time>
      </trkpt>
      <trkpt lat="43.0681" lon="-0.07759">
        <ele>665.4</ele>
        <time>2022-02-12T09:33:32Z</time>
      </trkpt>
      <trkpt lat="43.06814" lon="-0.07756">
        <ele>665</ele>
        <time>2022-02-12T09:33:33Z</time>
      </trkpt>
      <trkpt lat="43.06816" lon="-0.07753">
        <ele>664.4</ele>
        <time>2022-02-12T09:33:34Z</time>
      </trkpt>
      <trkpt lat="43.06819" lon="-0.07749">
        <ele>664.2</ele>
        <time>2022-02-12T09:33:35Z</time>
      </trkpt>
      <trkpt lat="43.06821" lon="-0.07746">
        <ele>663.8</ele>
        <time>2022-02-12T09:33:36Z</time>
      </trkpt>
      <trkpt lat="43.06823" lon="-0.07743">
        <ele>663.6</ele>
        <time>2022-02-12T09:33:37Z</time>
      </trkpt>
      <trkpt lat="43.06825" lon="-0.07738">
        <ele>662.8</ele>
        <time>2022-02-12T09:33:38Z</time>
      </trkpt>
      <trkpt lat="43.06827" lon="-0.07733">
        <ele>662.4</ele>
        <time>2022-02-12T09:33:39Z</time>
      </trkpt>
      <trkpt lat="43.06828" lon="-0.07729">
        <ele>661.6</ele>
        <time>2022-02-12T09:33:40Z</time>
      </trkpt>
      <trkpt lat="43.06828" lon="-0.07725">
        <ele>661.2</ele>
        <time>2022-02-12T09:33:41Z</time>
      </trkpt>
      <trkpt lat="43.06828" lon="-0.07721">
        <ele>660.6</ele>
        <time>2022-02-12T09:33:42Z</time>
      </trkpt>
      <trkpt lat="43.06828" lon="-0.07717">
        <ele>660.2</ele>
        <time>2022-02-12T09:33:43Z</time>
      </trkpt>
      <trkpt lat="43.06829" lon="-0.07714">
        <ele>658.8</ele>
        <time>2022-02-12T09:33:44Z</time>
      </trkpt>
      <trkpt lat="43.06829" lon="-0.07711">
        <ele>658</ele>
        <time>2022-02-12T09:33:45Z</time>
      </trkpt>
      <trkpt lat="43.0683" lon="-0.07709">
        <ele>656.8</ele>
        <time>2022-02-12T09:33:46Z</time>
      </trkpt>
      <trkpt lat="43.06831" lon="-0.07707">
        <ele>656.2</ele>
        <time>2022-02-12T09:33:47Z</time>
      </trkpt>
      <trkpt lat="43.06832" lon="-0.07705">
        <ele>655.6</ele>
        <time>2022-02-12T09:33:48Z</time>
      </trkpt>
      <trkpt lat="43.06832" lon="-0.07705">
        <ele>655.2</ele>
        <time>2022-02-12T09:33:49Z</time>
      </trkpt>
      <trkpt lat="43.06832" lon="-0.07705">
        <ele>654.4</ele>
        <time>2022-02-12T09:33:50Z</time>
      </trkpt>
      <trkpt lat="43.06832" lon="-0.07705">
        <ele>654.2</ele>
        <time>2022-02-12T09:33:51Z</time>
      </trkpt>
      <trkpt lat="43.06832" lon="-0.07705">
        <ele>653.6</ele>
        <time>2022-02-12T09:33:52Z</time>
      </trkpt>
      <trkpt lat="43.06832" lon="-0.07705">
        <ele>653.4</ele>
        <time>2022-02-12T09:33:53Z</time>
      </trkpt>
      <trkpt lat="43.06832" lon="-0.07705">
        <ele>653</ele>
        <time>2022-02-12T09:33:54Z</time>
      </trkpt>
      <trkpt lat="43.06832" lon="-0.07705">
        <ele>652.8</ele>
        <time>2022-02-12T09:33:55Z</time>
      </trkpt>
      <trkpt lat="43.06832" lon="-0.07705">
        <ele>652.6</ele>
        <time>2022-02-12T09:33:56Z</time>
      </trkpt>
      <trkpt lat="43.06835" lon="-0.07704">
        <ele>652.6</ele>
        <time>2022-02-12T09:33:57Z</time>
      </trkpt>
      <trkpt lat="43.06838" lon="-0.07704">
        <ele>652.4</ele>
        <time>2022-02-12T09:33:58Z</time>
      </trkpt>
      <trkpt lat="43.0684" lon="-0.07705">
        <ele>652.4</ele>
        <time>2022-02-12T09:33:59Z</time>
      </trkpt>
      <trkpt lat="43.06842" lon="-0.07706">
        <ele>652.4</ele>
        <time>2022-02-12T09:34:00Z</time>
      </trkpt>
      <trkpt lat="43.06843" lon="-0.07707">
        <ele>652.2</ele>
        <time>2022-02-12T09:34:01Z</time>
      </trkpt>
      <trkpt lat="43.06844" lon="-0.07707">
        <ele>652</ele>
        <time>2022-02-12T09:34:02Z</time>
      </trkpt>
      <trkpt lat="43.06844" lon="-0.07708">
        <ele>651.8</ele>
        <time>2022-02-12T09:34:03Z</time>
      </trkpt>
      <trkpt lat="43.06844" lon="-0.07708">
        <ele>651.8</ele>
        <time>2022-02-12T09:34:04Z</time>
      </trkpt>
      <trkpt lat="43.06844" lon="-0.07708">
        <ele>651.4</ele>
        <time>2022-02-12T09:34:05Z</time>
      </trkpt>
      <trkpt lat="43.06844" lon="-0.07708">
        <ele>651.2</ele>
        <time>2022-02-12T09:34:06Z</time>
      </trkpt>
      <trkpt lat="43.06844" lon="-0.07708">
        <ele>650.8</ele>
        <time>2022-02-12T09:34:07Z</time>
      </trkpt>
      <trkpt lat="43.06844" lon="-0.07708">
        <ele>650.6</ele>
        <time>2022-02-12T09:34:08Z</time>
      </trkpt>
      <trkpt lat="43.06844" lon="-0.07708">
        <ele>650.2</ele>
        <time>2022-02-12T09:34:09Z</time>
      </trkpt>
      <trkpt lat="43.06844" lon="-0.07708">
        <ele>650.2</ele>
        <time>2022-02-12T09:34:10Z</time>
      </trkpt>
      <trkpt lat="43.06844" lon="-0.07708">
        <ele>650.2</ele>
        <time>2022-02-12T09:34:11Z</time>
      </trkpt>
      <trkpt lat="43.06844" lon="-0.07708">
        <ele>650.2</ele>
        <time>2022-02-12T09:34:12Z</time>
      </trkpt>
      <trkpt lat="43.06844" lon="-0.07708">
        <ele>649.8</ele>
        <time>2022-02-12T09:34:13Z</time>
      </trkpt>
      <trkpt lat="43.06844" lon="-0.07708">
        <ele>649.8</ele>
        <time>2022-02-12T09:34:14Z</time>
      </trkpt>
      <trkpt lat="43.06844" lon="-0.07708">
        <ele>649.8</ele>
        <time>2022-02-12T09:34:15Z</time>
      </trkpt>
      <trkpt lat="43.06844" lon="-0.07708">
        <ele>649.8</ele>
        <time>2022-02-12T09:34:16Z</time>
      </trkpt>
      <trkpt lat="43.06844" lon="-0.07708">
        <ele>649.8</ele>
        <time>2022-02-12T09:34:17Z</time>
      </trkpt>
      <trkpt lat="43.06844" lon="-0.07708">
        <ele>649.6</ele>
        <time>2022-02-12T09:34:18Z</time>
      </trkpt>
      <trkpt lat="43.06844" lon="-0.07708">
        <ele>649.6</ele>
        <time>2022-02-12T09:34:19Z</time>
      </trkpt>
      <trkpt lat="43.06844" lon="-0.07708">
        <ele>649.4</ele>
        <time>2022-02-12T09:34:20Z</time>
      </trkpt>
      <trkpt lat="43.06844" lon="-0.07708">
        <ele>649.4</ele>
        <time>2022-02-12T09:34:21Z</time>
      </trkpt>
      <trkpt lat="43.06844" lon="-0.07708">
        <ele>649.2</ele>
        <time>2022-02-12T09:34:22Z</time>
      </trkpt>
      <trkpt lat="43.06844" lon="-0.07708">
        <ele>649.2</ele>
        <time>2022-02-12T09:34:23Z</time>
      </trkpt>
      <trkpt lat="43.06844" lon="-0.07708">
        <ele>649.2</ele>
        <time>2022-02-12T09:34:24Z</time>
      </trkpt>
      <trkpt lat="43.06844" lon="-0.07708">
        <ele>649.2</ele>
        <time>2022-02-12T09:34:25Z</time>
      </trkpt>
      <trkpt lat="43.06844" lon="-0.07708">
        <ele>649</ele>
        <time>2022-02-12T09:34:26Z</time>
      </trkpt>
      <trkpt lat="43.06844" lon="-0.07708">
        <ele>649</ele>
        <time>2022-02-12T09:34:27Z</time>
      </trkpt>
      <trkpt lat="43.06844" lon="-0.07708">
        <ele>649</ele>
        <time>2022-02-12T09:34:28Z</time>
      </trkpt>
      <trkpt lat="43.06844" lon="-0.07708">
        <ele>648.8</ele>
        <time>2022-02-12T09:34:29Z</time>
      </trkpt>
      <trkpt lat="43.06844" lon="-0.07707">
        <ele>648.8</ele>
        <time>2022-02-12T09:34:30Z</time>
      </trkpt>
      <trkpt lat="43.06847" lon="-0.07706">
        <ele>648.6</ele>
        <time>2022-02-12T09:34:31Z</time>
      </trkpt>
      <trkpt lat="43.0685" lon="-0.07704">
        <ele>648.2</ele>
        <time>2022-02-12T09:34:32Z</time>
      </trkpt>
      <trkpt lat="43.06851" lon="-0.07702">
        <ele>648</ele>
        <time>2022-02-12T09:34:33Z</time>
      </trkpt>
      <trkpt lat="43.06852" lon="-0.07702">
        <ele>647.6</ele>
        <time>2022-02-12T09:34:34Z</time>
      </trkpt>
      <trkpt lat="43.06853" lon="-0.07701">
        <ele>647.4</ele>
        <time>2022-02-12T09:34:35Z</time>
      </trkpt>
      <trkpt lat="43.06853" lon="-0.07701">
        <ele>647.2</ele>
        <time>2022-02-12T09:34:36Z</time>
      </trkpt>
      <trkpt lat="43.06854" lon="-0.07701">
        <ele>646.8</ele>
        <time>2022-02-12T09:34:37Z</time>
      </trkpt>
      <trkpt lat="43.06855" lon="-0.077">
        <ele>646.4</ele>
        <time>2022-02-12T09:34:38Z</time>
      </trkpt>
      <trkpt lat="43.06856" lon="-0.07699">
        <ele>646.2</ele>
        <time>2022-02-12T09:34:39Z</time>
      </trkpt>
      <trkpt lat="43.06857" lon="-0.07698">
        <ele>646</ele>
        <time>2022-02-12T09:34:40Z</time>
      </trkpt>
      <trkpt lat="43.06858" lon="-0.07698">
        <ele>645.8</ele>
        <time>2022-02-12T09:34:41Z</time>
      </trkpt>
      <trkpt lat="43.06858" lon="-0.07698">
        <ele>645.8</ele>
        <time>2022-02-12T09:34:42Z</time>
      </trkpt>
      <trkpt lat="43.06858" lon="-0.07698">
        <ele>645.6</ele>
        <time>2022-02-12T09:34:43Z</time>
      </trkpt>
      <trkpt lat="43.06858" lon="-0.07697">
        <ele>645.4</ele>
        <time>2022-02-12T09:34:44Z</time>
      </trkpt>
      <trkpt lat="43.06859" lon="-0.07697">
        <ele>645</ele>
        <time>2022-02-12T09:34:45Z</time>
      </trkpt>
      <trkpt lat="43.0686" lon="-0.07696">
        <ele>644.8</ele>
        <time>2022-02-12T09:34:46Z</time>
      </trkpt>
      <trkpt lat="43.06862" lon="-0.07696">
        <ele>644.4</ele>
        <time>2022-02-12T09:34:47Z</time>
      </trkpt>
      <trkpt lat="43.06863" lon="-0.07695">
        <ele>644.4</ele>
        <time>2022-02-12T09:34:48Z</time>
      </trkpt>
      <trkpt lat="43.06863" lon="-0.07695">
        <ele>644</ele>
        <time>2022-02-12T09:34:49Z</time>
      </trkpt>
      <trkpt lat="43.06863" lon="-0.07695">
        <ele>643.8</ele>
        <time>2022-02-12T09:34:50Z</time>
      </trkpt>
      <trkpt lat="43.06863" lon="-0.07695">
        <ele>643.4</ele>
        <time>2022-02-12T09:34:51Z</time>
      </trkpt>
      <trkpt lat="43.06863" lon="-0.07695">
        <ele>643.2</ele>
        <time>2022-02-12T09:34:52Z</time>
      </trkpt>
      <trkpt lat="43.06864" lon="-0.07696">
        <ele>642.6</ele>
        <time>2022-02-12T09:34:53Z</time>
      </trkpt>
      <trkpt lat="43.06864" lon="-0.07696">
        <ele>642.4</ele>
        <time>2022-02-12T09:34:54Z</time>
      </trkpt>
      <trkpt lat="43.06864" lon="-0.07696">
        <ele>642.2</ele>
        <time>2022-02-12T09:34:55Z</time>
      </trkpt>
      <trkpt lat="43.06864" lon="-0.07696">
        <ele>642</ele>
        <time>2022-02-12T09:34:56Z</time>
      </trkpt>
      <trkpt lat="43.06866" lon="-0.07696">
        <ele>641.8</ele>
        <time>2022-02-12T09:34:57Z</time>
      </trkpt>
      <trkpt lat="43.06866" lon="-0.07696">
        <ele>641.8</ele>
        <time>2022-02-12T09:34:58Z</time>
      </trkpt>
      <trkpt lat="43.06866" lon="-0.07696">
        <ele>641.4</ele>
        <time>2022-02-12T09:34:59Z</time>
      </trkpt>
      <trkpt lat="43.06866" lon="-0.07696">
        <ele>641.2</ele>
        <time>2022-02-12T09:35:00Z</time>
      </trkpt>
      <trkpt lat="43.06868" lon="-0.07695">
        <ele>641</ele>
        <time>2022-02-12T09:35:01Z</time>
      </trkpt>
      <trkpt lat="43.06869" lon="-0.07695">
        <ele>640.8</ele>
        <time>2022-02-12T09:35:02Z</time>
      </trkpt>
      <trkpt lat="43.06869" lon="-0.07696">
        <ele>640.6</ele>
        <time>2022-02-12T09:35:03Z</time>
      </trkpt>
      <trkpt lat="43.06869" lon="-0.07696">
        <ele>640.6</ele>
        <time>2022-02-12T09:35:04Z</time>
      </trkpt>
      <trkpt lat="43.06869" lon="-0.07696">
        <ele>640.2</ele>
        <time>2022-02-12T09:35:05Z</time>
      </trkpt>
      <trkpt lat="43.06869" lon="-0.07696">
        <ele>640.2</ele>
        <time>2022-02-12T09:35:06Z</time>
      </trkpt>
      <trkpt lat="43.06869" lon="-0.07696">
        <ele>639.8</ele>
        <time>2022-02-12T09:35:07Z</time>
      </trkpt>
      <trkpt lat="43.06869" lon="-0.07696">
        <ele>639.6</ele>
        <time>2022-02-12T09:35:08Z</time>
      </trkpt>
      <trkpt lat="43.06869" lon="-0.07696">
        <ele>639.6</ele>
        <time>2022-02-12T09:35:09Z</time>
      </trkpt>
      <trkpt lat="43.06869" lon="-0.07696">
        <ele>639.4</ele>
        <time>2022-02-12T09:35:10Z</time>
      </trkpt>
      <trkpt lat="43.06869" lon="-0.07696">
        <ele>639.4</ele>
        <time>2022-02-12T09:35:11Z</time>
      </trkpt>
      <trkpt lat="43.06869" lon="-0.07696">
        <ele>639.4</ele>
        <time>2022-02-12T09:35:12Z</time>
      </trkpt>
      <trkpt lat="43.06869" lon="-0.07696">
        <ele>639.4</ele>
        <time>2022-02-12T09:35:13Z</time>
      </trkpt>
      <trkpt lat="43.06869" lon="-0.07696">
        <ele>639.2</ele>
        <time>2022-02-12T09:35:14Z</time>
      </trkpt>
      <trkpt lat="43.06869" lon="-0.07696">
        <ele>639.2</ele>
        <time>2022-02-12T09:35:15Z</time>
      </trkpt>
      <trkpt lat="43.06869" lon="-0.07696">
        <ele>639.2</ele>
        <time>2022-02-12T09:35:16Z</time>
      </trkpt>
      <trkpt lat="43.06869" lon="-0.07696">
        <ele>639.2</ele>
        <time>2022-02-12T09:35:17Z</time>
      </trkpt>
      <trkpt lat="43.06869" lon="-0.07696">
        <ele>639.2</ele>
        <time>2022-02-12T09:35:18Z</time>
      </trkpt>
      <trkpt lat="43.06869" lon="-0.07696">
        <ele>639.2</ele>
        <time>2022-02-12T09:35:19Z</time>
      </trkpt>
      <trkpt lat="43.06869" lon="-0.07696">
        <ele>639.2</ele>
        <time>2022-02-12T09:35:20Z</time>
      </trkpt>
      <trkpt lat="43.06869" lon="-0.07696">
        <ele>639.2</ele>
        <time>2022-02-12T09:35:21Z</time>
      </trkpt>
      <trkpt lat="43.06869" lon="-0.07696">
        <ele>639.2</ele>
        <time>2022-02-12T09:35:22Z</time>
      </trkpt>
      <trkpt lat="43.06869" lon="-0.07696">
        <ele>639.2</ele>
        <time>2022-02-12T09:35:23Z</time>
      </trkpt>
      <trkpt lat="43.06869" lon="-0.07696">
        <ele>639.4</ele>
        <time>2022-02-12T09:35:24Z</time>
      </trkpt>
      <trkpt lat="43.06869" lon="-0.07696">
        <ele>639.4</ele>
        <time>2022-02-12T09:35:25Z</time>
      </trkpt>
      <trkpt lat="43.06869" lon="-0.07696">
        <ele>639.4</ele>
        <time>2022-02-12T09:35:26Z</time>
      </trkpt>
      <trkpt lat="43.06869" lon="-0.07696">
        <ele>639.4</ele>
        <time>2022-02-12T09:35:27Z</time>
      </trkpt>
      <trkpt lat="43.06869" lon="-0.07696">
        <ele>639.6</ele>
        <time>2022-02-12T09:35:28Z</time>
      </trkpt>
      <trkpt lat="43.06869" lon="-0.07696">
        <ele>639.6</ele>
        <time>2022-02-12T09:35:29Z</time>
      </trkpt>
      <trkpt lat="43.06869" lon="-0.07696">
        <ele>639.6</ele>
        <time>2022-02-12T09:35:30Z</time>
      </trkpt>
      <trkpt lat="43.06869" lon="-0.07696">
        <ele>639.6</ele>
        <time>2022-02-12T09:35:31Z</time>
      </trkpt>
      <trkpt lat="43.06869" lon="-0.07696">
        <ele>639.6</ele>
        <time>2022-02-12T09:35:32Z</time>
      </trkpt>
      <trkpt lat="43.06869" lon="-0.07696">
        <ele>639.6</ele>
        <time>2022-02-12T09:35:33Z</time>
      </trkpt>
      <trkpt lat="43.06869" lon="-0.07696">
        <ele>639.8</ele>
        <time>2022-02-12T09:35:34Z</time>
      </trkpt>
      <trkpt lat="43.06869" lon="-0.07696">
        <ele>639.8</ele>
        <time>2022-02-12T09:35:35Z</time>
      </trkpt>
      <trkpt lat="43.06869" lon="-0.07696">
        <ele>639.8</ele>
        <time>2022-02-12T09:35:36Z</time>
      </trkpt>
      <trkpt lat="43.06869" lon="-0.07696">
        <ele>639.8</ele>
        <time>2022-02-12T09:35:37Z</time>
      </trkpt>
      <trkpt lat="43.06869" lon="-0.07696">
        <ele>640</ele>
        <time>2022-02-12T09:35:38Z</time>
      </trkpt>
      <trkpt lat="43.06869" lon="-0.07696">
        <ele>640</ele>
        <time>2022-02-12T09:35:39Z</time>
      </trkpt>
      <trkpt lat="43.06869" lon="-0.07696">
        <ele>640.2</ele>
        <time>2022-02-12T09:35:40Z</time>
      </trkpt>
      <trkpt lat="43.06869" lon="-0.07696">
        <ele>640.2</ele>
        <time>2022-02-12T09:35:41Z</time>
      </trkpt>
      <trkpt lat="43.06869" lon="-0.07696">
        <ele>640.4</ele>
        <time>2022-02-12T09:35:42Z</time>
      </trkpt>
      <trkpt lat="43.06869" lon="-0.07696">
        <ele>640.4</ele>
        <time>2022-02-12T09:35:43Z</time>
      </trkpt>
      <trkpt lat="43.06869" lon="-0.07696">
        <ele>640.4</ele>
        <time>2022-02-12T09:35:44Z</time>
      </trkpt>
      <trkpt lat="43.06869" lon="-0.07696">
        <ele>640.6</ele>
        <time>2022-02-12T09:35:45Z</time>
      </trkpt>
      <trkpt lat="43.06869" lon="-0.07696">
        <ele>640.6</ele>
        <time>2022-02-12T09:35:46Z</time>
      </trkpt>
      <trkpt lat="43.06869" lon="-0.07696">
        <ele>640.6</ele>
        <time>2022-02-12T09:35:47Z</time>
      </trkpt>
      <trkpt lat="43.06869" lon="-0.07696">
        <ele>640.6</ele>
        <time>2022-02-12T09:35:48Z</time>
      </trkpt>
      <trkpt lat="43.06869" lon="-0.07696">
        <ele>640.8</ele>
        <time>2022-02-12T09:35:49Z</time>
      </trkpt>
      <trkpt lat="43.06869" lon="-0.07696">
        <ele>640.8</ele>
        <time>2022-02-12T09:35:50Z</time>
      </trkpt>
      <trkpt lat="43.06869" lon="-0.07696">
        <ele>640.8</ele>
        <time>2022-02-12T09:35:51Z</time>
      </trkpt>
      <trkpt lat="43.06869" lon="-0.07696">
        <ele>640.8</ele>
        <time>2022-02-12T09:35:52Z</time>
      </trkpt>
      <trkpt lat="43.06869" lon="-0.07696">
        <ele>640.8</ele>
        <time>2022-02-12T09:35:53Z</time>
      </trkpt>
      <trkpt lat="43.06869" lon="-0.07696">
        <ele>640.8</ele>
        <time>2022-02-12T09:35:54Z</time>
      </trkpt>
      <trkpt lat="43.06869" lon="-0.07696">
        <ele>641</ele>
        <time>2022-02-12T09:35:55Z</time>
      </trkpt>
      <trkpt lat="43.06869" lon="-0.07696">
        <ele>641</ele>
        <time>2022-02-12T09:35:56Z</time>
      </trkpt>
      <trkpt lat="43.06869" lon="-0.07696">
        <ele>641</ele>
        <time>2022-02-12T09:35:57Z</time>
      </trkpt>
      <trkpt lat="43.06869" lon="-0.07696">
        <ele>641</ele>
        <time>2022-02-12T09:35:58Z</time>
      </trkpt>
      <trkpt lat="43.06869" lon="-0.07696">
        <ele>641</ele>
        <time>2022-02-12T09:35:59Z</time>
      </trkpt>
      <trkpt lat="43.06869" lon="-0.07696">
        <ele>641.2</ele>
        <time>2022-02-12T09:36:00Z</time>
      </trkpt>
      <trkpt lat="43.06869" lon="-0.07696">
        <ele>641.2</ele>
        <time>2022-02-12T09:36:01Z</time>
      </trkpt>
      <trkpt lat="43.06869" lon="-0.07696">
        <ele>641.4</ele>
        <time>2022-02-12T09:36:02Z</time>
      </trkpt>
      <trkpt lat="43.06869" lon="-0.07696">
        <ele>641.4</ele>
        <time>2022-02-12T09:36:03Z</time>
      </trkpt>
      <trkpt lat="43.06869" lon="-0.07696">
        <ele>641.4</ele>
        <time>2022-02-12T09:36:04Z</time>
      </trkpt>
      <trkpt lat="43.06869" lon="-0.07696">
        <ele>641.4</ele>
        <time>2022-02-12T09:36:05Z</time>
      </trkpt>
      <trkpt lat="43.06869" lon="-0.07696">
        <ele>641.4</ele>
        <time>2022-02-12T09:36:06Z</time>
      </trkpt>
      <trkpt lat="43.06869" lon="-0.07696">
        <ele>641.6</ele>
        <time>2022-02-12T09:36:07Z</time>
      </trkpt>
      <trkpt lat="43.06869" lon="-0.07696">
        <ele>641.6</ele>
        <time>2022-02-12T09:36:08Z</time>
      </trkpt>
      <trkpt lat="43.06869" lon="-0.07696">
        <ele>641.6</ele>
        <time>2022-02-12T09:36:09Z</time>
      </trkpt>
      <trkpt lat="43.06869" lon="-0.07696">
        <ele>641.6</ele>
        <time>2022-02-12T09:36:10Z</time>
      </trkpt>
      <trkpt lat="43.06869" lon="-0.07696">
        <ele>641.6</ele>
        <time>2022-02-12T09:36:11Z</time>
      </trkpt>
      <trkpt lat="43.06869" lon="-0.07696">
        <ele>641.6</ele>
        <time>2022-02-12T09:36:12Z</time>
      </trkpt>
      <trkpt lat="43.06869" lon="-0.07696">
        <ele>641.6</ele>
        <time>2022-02-12T09:36:13Z</time>
      </trkpt>
      <trkpt lat="43.06869" lon="-0.07696">
        <ele>641.6</ele>
        <time>2022-02-12T09:36:14Z</time>
      </trkpt>
      <trkpt lat="43.06869" lon="-0.07696">
        <ele>641.6</ele>
        <time>2022-02-12T09:36:15Z</time>
      </trkpt>
      <trkpt lat="43.06869" lon="-0.07696">
        <ele>641.8</ele>
        <time>2022-02-12T09:36:16Z</time>
      </trkpt>
      <trkpt lat="43.06869" lon="-0.07696">
        <ele>641.8</ele>
        <time>2022-02-12T09:36:17Z</time>
      </trkpt>
      <trkpt lat="43.06869" lon="-0.07696">
        <ele>641.8</ele>
        <time>2022-02-12T09:36:18Z</time>
      </trkpt>
      <trkpt lat="43.06869" lon="-0.07696">
        <ele>641.8</ele>
        <time>2022-02-12T09:36:19Z</time>
      </trkpt>
      <trkpt lat="43.06869" lon="-0.07696">
        <ele>642.2</ele>
        <time>2022-02-12T09:36:20Z</time>
      </trkpt>
      <trkpt lat="43.06869" lon="-0.07696">
        <ele>642.4</ele>
        <time>2022-02-12T09:36:21Z</time>
      </trkpt>
      <trkpt lat="43.06869" lon="-0.07696">
        <ele>642.6</ele>
        <time>2022-02-12T09:36:22Z</time>
      </trkpt>
      <trkpt lat="43.06869" lon="-0.07696">
        <ele>642.6</ele>
        <time>2022-02-12T09:36:23Z</time>
      </trkpt>
      <trkpt lat="43.06869" lon="-0.07696">
        <ele>642.6</ele>
        <time>2022-02-12T09:36:24Z</time>
      </trkpt>
      <trkpt lat="43.06869" lon="-0.07696">
        <ele>642.6</ele>
        <time>2022-02-12T09:36:25Z</time>
      </trkpt>
      <trkpt lat="43.06869" lon="-0.07696">
        <ele>642.8</ele>
        <time>2022-02-12T09:36:26Z</time>
      </trkpt>
      <trkpt lat="43.06869" lon="-0.07696">
        <ele>642.8</ele>
        <time>2022-02-12T09:36:27Z</time>
      </trkpt>
      <trkpt lat="43.06869" lon="-0.07696">
        <ele>642.8</ele>
        <time>2022-02-12T09:36:28Z</time>
      </trkpt>
      <trkpt lat="43.06869" lon="-0.07696">
        <ele>642.8</ele>
        <time>2022-02-12T09:36:29Z</time>
      </trkpt>
      <trkpt lat="43.06869" lon="-0.07696">
        <ele>642.8</ele>
        <time>2022-02-12T09:36:30Z</time>
      </trkpt>
      <trkpt lat="43.06869" lon="-0.07696">
        <ele>643</ele>
        <time>2022-02-12T09:36:31Z</time>
      </trkpt>
      <trkpt lat="43.06869" lon="-0.07696">
        <ele>643</ele>
        <time>2022-02-12T09:36:32Z</time>
      </trkpt>
      <trkpt lat="43.06869" lon="-0.07696">
        <ele>643</ele>
        <time>2022-02-12T09:36:33Z</time>
      </trkpt>
      <trkpt lat="43.06869" lon="-0.07696">
        <ele>643</ele>
        <time>2022-02-12T09:36:34Z</time>
      </trkpt>
      <trkpt lat="43.06869" lon="-0.07696">
        <ele>643</ele>
        <time>2022-02-12T09:36:35Z</time>
      </trkpt>
      <trkpt lat="43.06869" lon="-0.07696">
        <ele>643</ele>
        <time>2022-02-12T09:36:36Z</time>
      </trkpt>
      <trkpt lat="43.06869" lon="-0.07696">
        <ele>643</ele>
        <time>2022-02-12T09:36:37Z</time>
      </trkpt>
      <trkpt lat="43.06869" lon="-0.07696">
        <ele>643</ele>
        <time>2022-02-12T09:36:38Z</time>
      </trkpt>
      <trkpt lat="43.06869" lon="-0.07696">
        <ele>643</ele>
        <time>2022-02-12T09:36:39Z</time>
      </trkpt>
      <trkpt lat="43.06869" lon="-0.07696">
        <ele>643</ele>
        <time>2022-02-12T09:36:40Z</time>
      </trkpt>
      <trkpt lat="43.06869" lon="-0.07696">
        <ele>643.2</ele>
        <time>2022-02-12T09:36:41Z</time>
      </trkpt>
      <trkpt lat="43.06869" lon="-0.07696">
        <ele>643.2</ele>
        <time>2022-02-12T09:36:42Z</time>
      </trkpt>
      <trkpt lat="43.06869" lon="-0.07696">
        <ele>643.2</ele>
        <time>2022-02-12T09:36:43Z</time>
      </trkpt>
      <trkpt lat="43.06869" lon="-0.07696">
        <ele>643.2</ele>
        <time>2022-02-12T09:36:44Z</time>
      </trkpt>
      <trkpt lat="43.06869" lon="-0.07696">
        <ele>643.4</ele>
        <time>2022-02-12T09:36:45Z</time>
      </trkpt>
      <trkpt lat="43.06869" lon="-0.07696">
        <ele>643.4</ele>
        <time>2022-02-12T09:36:46Z</time>
      </trkpt>
      <trkpt lat="43.06869" lon="-0.07696">
        <ele>643.4</ele>
        <time>2022-02-12T09:36:47Z</time>
      </trkpt>
      <trkpt lat="43.06869" lon="-0.07696">
        <ele>643.4</ele>
        <time>2022-02-12T09:36:48Z</time>
      </trkpt>
      <trkpt lat="43.06869" lon="-0.07696">
        <ele>643.6</ele>
        <time>2022-02-12T09:36:49Z</time>
      </trkpt>
      <trkpt lat="43.06869" lon="-0.07696">
        <ele>643.6</ele>
        <time>2022-02-12T09:36:50Z</time>
      </trkpt>
      <trkpt lat="43.06869" lon="-0.07696">
        <ele>643.6</ele>
        <time>2022-02-12T09:36:51Z</time>
      </trkpt>
      <trkpt lat="43.06869" lon="-0.07696">
        <ele>643.4</ele>
        <time>2022-02-12T09:36:52Z</time>
      </trkpt>
      <trkpt lat="43.06869" lon="-0.07696">
        <ele>643.4</ele>
        <time>2022-02-12T09:36:53Z</time>
      </trkpt>
      <trkpt lat="43.06869" lon="-0.07696">
        <ele>643.4</ele>
        <time>2022-02-12T09:36:54Z</time>
      </trkpt>
      <trkpt lat="43.06869" lon="-0.07696">
        <ele>643.4</ele>
        <time>2022-02-12T09:36:55Z</time>
      </trkpt>
      <trkpt lat="43.06869" lon="-0.07696">
        <ele>643.4</ele>
        <time>2022-02-12T09:36:56Z</time>
      </trkpt>
      <trkpt lat="43.06869" lon="-0.07696">
        <ele>643.6</ele>
        <time>2022-02-12T09:36:57Z</time>
      </trkpt>
      <trkpt lat="43.06869" lon="-0.07696">
        <ele>643.6</ele>
        <time>2022-02-12T09:36:58Z</time>
      </trkpt>
      <trkpt lat="43.06869" lon="-0.07697">
        <ele>643.6</ele>
        <time>2022-02-12T09:36:59Z</time>
      </trkpt>
      <trkpt lat="43.06869" lon="-0.07697">
        <ele>643.6</ele>
        <time>2022-02-12T09:37:00Z</time>
      </trkpt>
      <trkpt lat="43.06868" lon="-0.07697">
        <ele>643.6</ele>
        <time>2022-02-12T09:37:01Z</time>
      </trkpt>
      <trkpt lat="43.06868" lon="-0.07697">
        <ele>643.6</ele>
        <time>2022-02-12T09:37:02Z</time>
      </trkpt>
      <trkpt lat="43.06868" lon="-0.07697">
        <ele>643.6</ele>
        <time>2022-02-12T09:37:03Z</time>
      </trkpt>
      <trkpt lat="43.06868" lon="-0.07697">
        <ele>643.6</ele>
        <time>2022-02-12T09:37:04Z</time>
      </trkpt>
      <trkpt lat="43.06868" lon="-0.07697">
        <ele>643.6</ele>
        <time>2022-02-12T09:37:05Z</time>
      </trkpt>
      <trkpt lat="43.06868" lon="-0.07697">
        <ele>643.8</ele>
        <time>2022-02-12T09:37:06Z</time>
      </trkpt>
      <trkpt lat="43.06868" lon="-0.07697">
        <ele>643.8</ele>
        <time>2022-02-12T09:37:07Z</time>
      </trkpt>
      <trkpt lat="43.06868" lon="-0.07697">
        <ele>643.8</ele>
        <time>2022-02-12T09:37:08Z</time>
      </trkpt>
      <trkpt lat="43.06868" lon="-0.07697">
        <ele>644</ele>
        <time>2022-02-12T09:37:09Z</time>
      </trkpt>
      <trkpt lat="43.06868" lon="-0.07697">
        <ele>644</ele>
        <time>2022-02-12T09:37:10Z</time>
      </trkpt>
      <trkpt lat="43.06868" lon="-0.07697">
        <ele>644</ele>
        <time>2022-02-12T09:37:11Z</time>
      </trkpt>
      <trkpt lat="43.06868" lon="-0.07697">
        <ele>644</ele>
        <time>2022-02-12T09:37:12Z</time>
      </trkpt>
      <trkpt lat="43.06868" lon="-0.07697">
        <ele>644</ele>
        <time>2022-02-12T09:37:13Z</time>
      </trkpt>
      <trkpt lat="43.06868" lon="-0.07697">
        <ele>644.2</ele>
        <time>2022-02-12T09:37:14Z</time>
      </trkpt>
      <trkpt lat="43.06868" lon="-0.07697">
        <ele>644.2</ele>
        <time>2022-02-12T09:37:15Z</time>
      </trkpt>
      <trkpt lat="43.06868" lon="-0.07697">
        <ele>644.2</ele>
        <time>2022-02-12T09:37:16Z</time>
      </trkpt>
      <trkpt lat="43.06868" lon="-0.07697">
        <ele>644.2</ele>
        <time>2022-02-12T09:37:17Z</time>
      </trkpt>
      <trkpt lat="43.06868" lon="-0.07697">
        <ele>644.4</ele>
        <time>2022-02-12T09:37:18Z</time>
      </trkpt>
      <trkpt lat="43.06868" lon="-0.07697">
        <ele>644.4</ele>
        <time>2022-02-12T09:37:19Z</time>
      </trkpt>
      <trkpt lat="43.06868" lon="-0.07697">
        <ele>644.4</ele>
        <time>2022-02-12T09:37:20Z</time>
      </trkpt>
      <trkpt lat="43.06868" lon="-0.07697">
        <ele>644.4</ele>
        <time>2022-02-12T09:37:21Z</time>
      </trkpt>
      <trkpt lat="43.06868" lon="-0.07697">
        <ele>644.4</ele>
        <time>2022-02-12T09:37:22Z</time>
      </trkpt>
      <trkpt lat="43.06868" lon="-0.07697">
        <ele>644.4</ele>
        <time>2022-02-12T09:37:23Z</time>
      </trkpt>
      <trkpt lat="43.06868" lon="-0.07697">
        <ele>644.6</ele>
        <time>2022-02-12T09:37:24Z</time>
      </trkpt>
      <trkpt lat="43.06868" lon="-0.07697">
        <ele>644.6</ele>
        <time>2022-02-12T09:37:25Z</time>
      </trkpt>
      <trkpt lat="43.06868" lon="-0.07697">
        <ele>644.6</ele>
        <time>2022-02-12T09:37:26Z</time>
      </trkpt>
      <trkpt lat="43.06868" lon="-0.07697">
        <ele>644.6</ele>
        <time>2022-02-12T09:37:27Z</time>
      </trkpt>
      <trkpt lat="43.06868" lon="-0.07697">
        <ele>644.6</ele>
        <time>2022-02-12T09:37:28Z</time>
      </trkpt>
      <trkpt lat="43.06868" lon="-0.07697">
        <ele>644.8</ele>
        <time>2022-02-12T09:37:29Z</time>
      </trkpt>
      <trkpt lat="43.06868" lon="-0.07697">
        <ele>644.8</ele>
        <time>2022-02-12T09:37:30Z</time>
      </trkpt>
      <trkpt lat="43.06868" lon="-0.07698">
        <ele>645</ele>
        <time>2022-02-12T09:37:31Z</time>
      </trkpt>
      <trkpt lat="43.06868" lon="-0.07699">
        <ele>645</ele>
        <time>2022-02-12T09:37:32Z</time>
      </trkpt>
      <trkpt lat="43.06867" lon="-0.07699">
        <ele>645.2</ele>
        <time>2022-02-12T09:37:33Z</time>
      </trkpt>
      <trkpt lat="43.06867" lon="-0.07699">
        <ele>645.2</ele>
        <time>2022-02-12T09:37:34Z</time>
      </trkpt>
      <trkpt lat="43.06867" lon="-0.07699">
        <ele>645.2</ele>
        <time>2022-02-12T09:37:35Z</time>
      </trkpt>
      <trkpt lat="43.06867" lon="-0.07699">
        <ele>645.2</ele>
        <time>2022-02-12T09:37:36Z</time>
      </trkpt>
      <trkpt lat="43.06867" lon="-0.07699">
        <ele>645.4</ele>
        <time>2022-02-12T09:37:37Z</time>
      </trkpt>
      <trkpt lat="43.06867" lon="-0.07699">
        <ele>645.4</ele>
        <time>2022-02-12T09:37:38Z</time>
      </trkpt>
      <trkpt lat="43.06867" lon="-0.07699">
        <ele>645.6</ele>
        <time>2022-02-12T09:37:39Z</time>
      </trkpt>
      <trkpt lat="43.06867" lon="-0.07699">
        <ele>645.8</ele>
        <time>2022-02-12T09:37:40Z</time>
      </trkpt>
      <trkpt lat="43.06867" lon="-0.07699">
        <ele>646</ele>
        <time>2022-02-12T09:37:41Z</time>
      </trkpt>
      <trkpt lat="43.06867" lon="-0.07699">
        <ele>646</ele>
        <time>2022-02-12T09:37:42Z</time>
      </trkpt>
      <trkpt lat="43.06867" lon="-0.07699">
        <ele>646</ele>
        <time>2022-02-12T09:37:43Z</time>
      </trkpt>
      <trkpt lat="43.06867" lon="-0.07699">
        <ele>646.2</ele>
        <time>2022-02-12T09:37:44Z</time>
      </trkpt>
      <trkpt lat="43.06867" lon="-0.07699">
        <ele>646.2</ele>
        <time>2022-02-12T09:37:45Z</time>
      </trkpt>
      <trkpt lat="43.06867" lon="-0.07699">
        <ele>646.2</ele>
        <time>2022-02-12T09:37:46Z</time>
      </trkpt>
      <trkpt lat="43.06867" lon="-0.07699">
        <ele>646.2</ele>
        <time>2022-02-12T09:37:47Z</time>
      </trkpt>
      <trkpt lat="43.06866" lon="-0.077">
        <ele>646.4</ele>
        <time>2022-02-12T09:37:48Z</time>
      </trkpt>
      <trkpt lat="43.06866" lon="-0.077">
        <ele>646.4</ele>
        <time>2022-02-12T09:37:49Z</time>
      </trkpt>
      <trkpt lat="43.06866" lon="-0.077">
        <ele>646.4</ele>
        <time>2022-02-12T09:37:50Z</time>
      </trkpt>
      <trkpt lat="43.06866" lon="-0.077">
        <ele>646.4</ele>
        <time>2022-02-12T09:37:51Z</time>
      </trkpt>
      <trkpt lat="43.06866" lon="-0.077">
        <ele>646.4</ele>
        <time>2022-02-12T09:37:52Z</time>
      </trkpt>
      <trkpt lat="43.06866" lon="-0.077">
        <ele>646.4</ele>
        <time>2022-02-12T09:37:53Z</time>
      </trkpt>
      <trkpt lat="43.06866" lon="-0.077">
        <ele>646.4</ele>
        <time>2022-02-12T09:37:54Z</time>
      </trkpt>
      <trkpt lat="43.06866" lon="-0.077">
        <ele>646.4</ele>
        <time>2022-02-12T09:37:55Z</time>
      </trkpt>
      <trkpt lat="43.06866" lon="-0.077">
        <ele>646.4</ele>
        <time>2022-02-12T09:37:56Z</time>
      </trkpt>
      <trkpt lat="43.06866" lon="-0.07701">
        <ele>646.4</ele>
        <time>2022-02-12T09:37:57Z</time>
      </trkpt>
      <trkpt lat="43.06866" lon="-0.07701">
        <ele>646.4</ele>
        <time>2022-02-12T09:37:58Z</time>
      </trkpt>
      <trkpt lat="43.06866" lon="-0.07701">
        <ele>646.4</ele>
        <time>2022-02-12T09:37:59Z</time>
      </trkpt>
      <trkpt lat="43.06866" lon="-0.07701">
        <ele>646.4</ele>
        <time>2022-02-12T09:38:00Z</time>
      </trkpt>
      <trkpt lat="43.06866" lon="-0.07701">
        <ele>646.4</ele>
        <time>2022-02-12T09:38:01Z</time>
      </trkpt>
      <trkpt lat="43.06866" lon="-0.07701">
        <ele>646.4</ele>
        <time>2022-02-12T09:38:02Z</time>
      </trkpt>
      <trkpt lat="43.06866" lon="-0.07701">
        <ele>646.4</ele>
        <time>2022-02-12T09:38:03Z</time>
      </trkpt>
      <trkpt lat="43.06866" lon="-0.07701">
        <ele>646.4</ele>
        <time>2022-02-12T09:38:04Z</time>
      </trkpt>
      <trkpt lat="43.06866" lon="-0.07701">
        <ele>646.4</ele>
        <time>2022-02-12T09:38:05Z</time>
      </trkpt>
      <trkpt lat="43.06866" lon="-0.07701">
        <ele>646.6</ele>
        <time>2022-02-12T09:38:06Z</time>
      </trkpt>
      <trkpt lat="43.06866" lon="-0.07701">
        <ele>646.6</ele>
        <time>2022-02-12T09:38:07Z</time>
      </trkpt>
      <trkpt lat="43.06866" lon="-0.07701">
        <ele>646.6</ele>
        <time>2022-02-12T09:38:08Z</time>
      </trkpt>
      <trkpt lat="43.06866" lon="-0.07701">
        <ele>646.6</ele>
        <time>2022-02-12T09:38:09Z</time>
      </trkpt>
      <trkpt lat="43.06866" lon="-0.07701">
        <ele>646.6</ele>
        <time>2022-02-12T09:38:10Z</time>
      </trkpt>
      <trkpt lat="43.06866" lon="-0.07701">
        <ele>646.6</ele>
        <time>2022-02-12T09:38:11Z</time>
      </trkpt>
      <trkpt lat="43.06866" lon="-0.07701">
        <ele>646.6</ele>
        <time>2022-02-12T09:38:12Z</time>
      </trkpt>
      <trkpt lat="43.06866" lon="-0.07701">
        <ele>646.6</ele>
        <time>2022-02-12T09:38:13Z</time>
      </trkpt>
      <trkpt lat="43.06866" lon="-0.07701">
        <ele>646.6</ele>
        <time>2022-02-12T09:38:14Z</time>
      </trkpt>
      <trkpt lat="43.06866" lon="-0.07701">
        <ele>646.8</ele>
        <time>2022-02-12T09:38:15Z</time>
      </trkpt>
      <trkpt lat="43.06866" lon="-0.07701">
        <ele>646.8</ele>
        <time>2022-02-12T09:38:16Z</time>
      </trkpt>
      <trkpt lat="43.06866" lon="-0.07701">
        <ele>646.8</ele>
        <time>2022-02-12T09:38:17Z</time>
      </trkpt>
      <trkpt lat="43.06866" lon="-0.07701">
        <ele>646.8</ele>
        <time>2022-02-12T09:38:18Z</time>
      </trkpt>
      <trkpt lat="43.06866" lon="-0.07701">
        <ele>647</ele>
        <time>2022-02-12T09:38:19Z</time>
      </trkpt>
      <trkpt lat="43.06866" lon="-0.07701">
        <ele>647</ele>
        <time>2022-02-12T09:38:20Z</time>
      </trkpt>
      <trkpt lat="43.06866" lon="-0.07701">
        <ele>647</ele>
        <time>2022-02-12T09:38:21Z</time>
      </trkpt>
      <trkpt lat="43.06866" lon="-0.07701">
        <ele>647</ele>
        <time>2022-02-12T09:38:22Z</time>
      </trkpt>
      <trkpt lat="43.06866" lon="-0.07701">
        <ele>647</ele>
        <time>2022-02-12T09:38:23Z</time>
      </trkpt>
      <trkpt lat="43.06866" lon="-0.07701">
        <ele>647</ele>
        <time>2022-02-12T09:38:24Z</time>
      </trkpt>
      <trkpt lat="43.06866" lon="-0.07701">
        <ele>647</ele>
        <time>2022-02-12T09:38:25Z</time>
      </trkpt>
      <trkpt lat="43.06866" lon="-0.07701">
        <ele>647</ele>
        <time>2022-02-12T09:38:26Z</time>
      </trkpt>
      <trkpt lat="43.06866" lon="-0.07701">
        <ele>647</ele>
        <time>2022-02-12T09:38:27Z</time>
      </trkpt>
      <trkpt lat="43.06866" lon="-0.07701">
        <ele>647</ele>
        <time>2022-02-12T09:38:28Z</time>
      </trkpt>
      <trkpt lat="43.06866" lon="-0.07701">
        <ele>647</ele>
        <time>2022-02-12T09:38:29Z</time>
      </trkpt>
      <trkpt lat="43.06866" lon="-0.07701">
        <ele>647</ele>
        <time>2022-02-12T09:38:30Z</time>
      </trkpt>
      <trkpt lat="43.06866" lon="-0.07701">
        <ele>647</ele>
        <time>2022-02-12T09:38:31Z</time>
      </trkpt>
      <trkpt lat="43.06866" lon="-0.07701">
        <ele>647</ele>
        <time>2022-02-12T09:38:32Z</time>
      </trkpt>
      <trkpt lat="43.06866" lon="-0.07701">
        <ele>647</ele>
        <time>2022-02-12T09:38:33Z</time>
      </trkpt>
      <trkpt lat="43.06866" lon="-0.07701">
        <ele>647</ele>
        <time>2022-02-12T09:38:34Z</time>
      </trkpt>
      <trkpt lat="43.06866" lon="-0.07701">
        <ele>647</ele>
        <time>2022-02-12T09:38:35Z</time>
      </trkpt>
      <trkpt lat="43.06866" lon="-0.07701">
        <ele>647</ele>
        <time>2022-02-12T09:38:36Z</time>
      </trkpt>
      <trkpt lat="43.06866" lon="-0.07702">
        <ele>647</ele>
        <time>2022-02-12T09:38:37Z</time>
      </trkpt>
      <trkpt lat="43.06866" lon="-0.07702">
        <ele>647</ele>
        <time>2022-02-12T09:38:38Z</time>
      </trkpt>
      <trkpt lat="43.06866" lon="-0.07702">
        <ele>647</ele>
        <time>2022-02-12T09:38:39Z</time>
      </trkpt>
      <trkpt lat="43.06866" lon="-0.07702">
        <ele>646.8</ele>
        <time>2022-02-12T09:38:40Z</time>
      </trkpt>
      <trkpt lat="43.06866" lon="-0.07702">
        <ele>646.8</ele>
        <time>2022-02-12T09:38:41Z</time>
      </trkpt>
      <trkpt lat="43.06866" lon="-0.07702">
        <ele>646.8</ele>
        <time>2022-02-12T09:38:42Z</time>
      </trkpt>
      <trkpt lat="43.06866" lon="-0.07702">
        <ele>646.8</ele>
        <time>2022-02-12T09:38:43Z</time>
      </trkpt>
      <trkpt lat="43.06866" lon="-0.07702">
        <ele>646.8</ele>
        <time>2022-02-12T09:38:44Z</time>
      </trkpt>
      <trkpt lat="43.06866" lon="-0.07702">
        <ele>646.8</ele>
        <time>2022-02-12T09:38:45Z</time>
      </trkpt>
      <trkpt lat="43.06866" lon="-0.07702">
        <ele>646.8</ele>
        <time>2022-02-12T09:38:46Z</time>
      </trkpt>
      <trkpt lat="43.06866" lon="-0.07702">
        <ele>646.8</ele>
        <time>2022-02-12T09:38:47Z</time>
      </trkpt>
      <trkpt lat="43.06866" lon="-0.07702">
        <ele>646.8</ele>
        <time>2022-02-12T09:38:48Z</time>
      </trkpt>
      <trkpt lat="43.06866" lon="-0.07702">
        <ele>646.8</ele>
        <time>2022-02-12T09:38:49Z</time>
      </trkpt>
      <trkpt lat="43.06866" lon="-0.07702">
        <ele>646.8</ele>
        <time>2022-02-12T09:38:50Z</time>
      </trkpt>
      <trkpt lat="43.06866" lon="-0.07702">
        <ele>646.8</ele>
        <time>2022-02-12T09:38:51Z</time>
      </trkpt>
      <trkpt lat="43.06866" lon="-0.07702">
        <ele>646.8</ele>
        <time>2022-02-12T09:38:52Z</time>
      </trkpt>
      <trkpt lat="43.06866" lon="-0.07702">
        <ele>646.8</ele>
        <time>2022-02-12T09:38:53Z</time>
      </trkpt>
      <trkpt lat="43.06866" lon="-0.07702">
        <ele>646.8</ele>
        <time>2022-02-12T09:38:54Z</time>
      </trkpt>
      <trkpt lat="43.06866" lon="-0.07702">
        <ele>646.8</ele>
        <time>2022-02-12T09:38:55Z</time>
      </trkpt>
      <trkpt lat="43.06866" lon="-0.07702">
        <ele>646.8</ele>
        <time>2022-02-12T09:38:56Z</time>
      </trkpt>
      <trkpt lat="43.06866" lon="-0.07702">
        <ele>646.8</ele>
        <time>2022-02-12T09:38:57Z</time>
      </trkpt>
      <trkpt lat="43.06866" lon="-0.07702">
        <ele>646.6</ele>
        <time>2022-02-12T09:38:58Z</time>
      </trkpt>
      <trkpt lat="43.06866" lon="-0.07702">
        <ele>646.6</ele>
        <time>2022-02-12T09:38:59Z</time>
      </trkpt>
      <trkpt lat="43.06866" lon="-0.07702">
        <ele>646.6</ele>
        <time>2022-02-12T09:39:00Z</time>
      </trkpt>
      <trkpt lat="43.06866" lon="-0.07702">
        <ele>646.6</ele>
        <time>2022-02-12T09:39:01Z</time>
      </trkpt>
      <trkpt lat="43.06866" lon="-0.07702">
        <ele>646.6</ele>
        <time>2022-02-12T09:39:02Z</time>
      </trkpt>
      <trkpt lat="43.06866" lon="-0.07702">
        <ele>646.4</ele>
        <time>2022-02-12T09:39:03Z</time>
      </trkpt>
      <trkpt lat="43.06866" lon="-0.07702">
        <ele>646.4</ele>
        <time>2022-02-12T09:39:04Z</time>
      </trkpt>
      <trkpt lat="43.06866" lon="-0.07702">
        <ele>646.4</ele>
        <time>2022-02-12T09:39:05Z</time>
      </trkpt>
      <trkpt lat="43.06866" lon="-0.07703">
        <ele>646.4</ele>
        <time>2022-02-12T09:39:06Z</time>
      </trkpt>
      <trkpt lat="43.06866" lon="-0.07703">
        <ele>646.4</ele>
        <time>2022-02-12T09:39:07Z</time>
      </trkpt>
      <trkpt lat="43.06866" lon="-0.07703">
        <ele>646.4</ele>
        <time>2022-02-12T09:39:08Z</time>
      </trkpt>
      <trkpt lat="43.06866" lon="-0.07703">
        <ele>646.4</ele>
        <time>2022-02-12T09:39:09Z</time>
      </trkpt>
      <trkpt lat="43.06866" lon="-0.07703">
        <ele>646.4</ele>
        <time>2022-02-12T09:39:10Z</time>
      </trkpt>
      <trkpt lat="43.06866" lon="-0.07703">
        <ele>646.4</ele>
        <time>2022-02-12T09:39:11Z</time>
      </trkpt>
      <trkpt lat="43.06866" lon="-0.07703">
        <ele>646.4</ele>
        <time>2022-02-12T09:39:12Z</time>
      </trkpt>
      <trkpt lat="43.06866" lon="-0.07703">
        <ele>646.4</ele>
        <time>2022-02-12T09:39:13Z</time>
      </trkpt>
      <trkpt lat="43.06866" lon="-0.07703">
        <ele>646.4</ele>
        <time>2022-02-12T09:39:14Z</time>
      </trkpt>
      <trkpt lat="43.06866" lon="-0.07703">
        <ele>646.6</ele>
        <time>2022-02-12T09:39:15Z</time>
      </trkpt>
      <trkpt lat="43.06866" lon="-0.07703">
        <ele>646.6</ele>
        <time>2022-02-12T09:39:16Z</time>
      </trkpt>
      <trkpt lat="43.06866" lon="-0.07703">
        <ele>646.6</ele>
        <time>2022-02-12T09:39:17Z</time>
      </trkpt>
      <trkpt lat="43.06866" lon="-0.07703">
        <ele>646.6</ele>
        <time>2022-02-12T09:39:18Z</time>
      </trkpt>
      <trkpt lat="43.06866" lon="-0.07703">
        <ele>646.6</ele>
        <time>2022-02-12T09:39:19Z</time>
      </trkpt>
      <trkpt lat="43.06866" lon="-0.07703">
        <ele>646.6</ele>
        <time>2022-02-12T09:39:20Z</time>
      </trkpt>
      <trkpt lat="43.06866" lon="-0.07703">
        <ele>646.6</ele>
        <time>2022-02-12T09:39:21Z</time>
      </trkpt>
      <trkpt lat="43.06866" lon="-0.07703">
        <ele>646.6</ele>
        <time>2022-02-12T09:39:22Z</time>
      </trkpt>
      <trkpt lat="43.06866" lon="-0.07703">
        <ele>646.6</ele>
        <time>2022-02-12T09:39:23Z</time>
      </trkpt>
      <trkpt lat="43.06866" lon="-0.07703">
        <ele>646.6</ele>
        <time>2022-02-12T09:39:24Z</time>
      </trkpt>
      <trkpt lat="43.06866" lon="-0.07703">
        <ele>646.6</ele>
        <time>2022-02-12T09:39:25Z</time>
      </trkpt>
      <trkpt lat="43.06866" lon="-0.07703">
        <ele>646.6</ele>
        <time>2022-02-12T09:39:26Z</time>
      </trkpt>
      <trkpt lat="43.06866" lon="-0.07703">
        <ele>646.6</ele>
        <time>2022-02-12T09:39:27Z</time>
      </trkpt>
      <trkpt lat="43.06866" lon="-0.07703">
        <ele>646.6</ele>
        <time>2022-02-12T09:39:28Z</time>
      </trkpt>
      <trkpt lat="43.06866" lon="-0.07703">
        <ele>646.6</ele>
        <time>2022-02-12T09:39:29Z</time>
      </trkpt>
      <trkpt lat="43.06866" lon="-0.07703">
        <ele>646.6</ele>
        <time>2022-02-12T09:39:30Z</time>
      </trkpt>
      <trkpt lat="43.06866" lon="-0.07703">
        <ele>646.6</ele>
        <time>2022-02-12T09:39:31Z</time>
      </trkpt>
      <trkpt lat="43.06866" lon="-0.07703">
        <ele>646.6</ele>
        <time>2022-02-12T09:39:32Z</time>
      </trkpt>
      <trkpt lat="43.06866" lon="-0.07703">
        <ele>646.6</ele>
        <time>2022-02-12T09:39:33Z</time>
      </trkpt>
      <trkpt lat="43.06866" lon="-0.07703">
        <ele>646.6</ele>
        <time>2022-02-12T09:39:34Z</time>
      </trkpt>
      <trkpt lat="43.06866" lon="-0.07703">
        <ele>646.6</ele>
        <time>2022-02-12T09:39:35Z</time>
      </trkpt>
      <trkpt lat="43.06866" lon="-0.07703">
        <ele>646.6</ele>
        <time>2022-02-12T09:39:36Z</time>
      </trkpt>
      <trkpt lat="43.06866" lon="-0.07703">
        <ele>646.6</ele>
        <time>2022-02-12T09:39:37Z</time>
      </trkpt>
      <trkpt lat="43.06866" lon="-0.07703">
        <ele>646.6</ele>
        <time>2022-02-12T09:39:38Z</time>
      </trkpt>
      <trkpt lat="43.06866" lon="-0.07703">
        <ele>646.6</ele>
        <time>2022-02-12T09:39:39Z</time>
      </trkpt>
      <trkpt lat="43.06866" lon="-0.07703">
        <ele>646.6</ele>
        <time>2022-02-12T09:39:40Z</time>
      </trkpt>
      <trkpt lat="43.06866" lon="-0.07703">
        <ele>646.6</ele>
        <time>2022-02-12T09:39:41Z</time>
      </trkpt>
      <trkpt lat="43.06866" lon="-0.07703">
        <ele>646.6</ele>
        <time>2022-02-12T09:39:42Z</time>
      </trkpt>
      <trkpt lat="43.06866" lon="-0.07703">
        <ele>646.6</ele>
        <time>2022-02-12T09:39:43Z</time>
      </trkpt>
      <trkpt lat="43.06866" lon="-0.07703">
        <ele>646.6</ele>
        <time>2022-02-12T09:39:44Z</time>
      </trkpt>
      <trkpt lat="43.06866" lon="-0.07703">
        <ele>646.6</ele>
        <time>2022-02-12T09:39:45Z</time>
      </trkpt>
      <trkpt lat="43.06866" lon="-0.07703">
        <ele>646.6</ele>
        <time>2022-02-12T09:39:46Z</time>
      </trkpt>
      <trkpt lat="43.06866" lon="-0.07703">
        <ele>646.6</ele>
        <time>2022-02-12T09:39:47Z</time>
      </trkpt>
      <trkpt lat="43.06866" lon="-0.07703">
        <ele>646.6</ele>
        <time>2022-02-12T09:39:48Z</time>
      </trkpt>
      <trkpt lat="43.06866" lon="-0.07703">
        <ele>646.6</ele>
        <time>2022-02-12T09:39:49Z</time>
      </trkpt>
      <trkpt lat="43.06866" lon="-0.07703">
        <ele>646.6</ele>
        <time>2022-02-12T09:39:50Z</time>
      </trkpt>
      <trkpt lat="43.06866" lon="-0.07703">
        <ele>646.6</ele>
        <time>2022-02-12T09:39:51Z</time>
      </trkpt>
      <trkpt lat="43.06866" lon="-0.07703">
        <ele>646.6</ele>
        <time>2022-02-12T09:39:52Z</time>
      </trkpt>
      <trkpt lat="43.06866" lon="-0.07703">
        <ele>646.6</ele>
        <time>2022-02-12T09:39:53Z</time>
      </trkpt>
      <trkpt lat="43.06866" lon="-0.07703">
        <ele>646.6</ele>
        <time>2022-02-12T09:39:54Z</time>
      </trkpt>
      <trkpt lat="43.06866" lon="-0.07703">
        <ele>646.6</ele>
        <time>2022-02-12T09:39:55Z</time>
      </trkpt>
      <trkpt lat="43.06866" lon="-0.07703">
        <ele>646.6</ele>
        <time>2022-02-12T09:39:56Z</time>
      </trkpt>
      <trkpt lat="43.06866" lon="-0.07703">
        <ele>646.6</ele>
        <time>2022-02-12T09:39:57Z</time>
      </trkpt>
      <trkpt lat="43.06866" lon="-0.07703">
        <ele>646.6</ele>
        <time>2022-02-12T09:39:58Z</time>
      </trkpt>
      <trkpt lat="43.06866" lon="-0.07703">
        <ele>646.6</ele>
        <time>2022-02-12T09:39:59Z</time>
      </trkpt>
      <trkpt lat="43.06866" lon="-0.07703">
        <ele>646.6</ele>
        <time>2022-02-12T09:40:00Z</time>
      </trkpt>
      <trkpt lat="43.06866" lon="-0.07703">
        <ele>646.6</ele>
        <time>2022-02-12T09:40:01Z</time>
      </trkpt>
      <trkpt lat="43.06866" lon="-0.07703">
        <ele>646.6</ele>
        <time>2022-02-12T09:40:02Z</time>
      </trkpt>
      <trkpt lat="43.06867" lon="-0.07703">
        <ele>646.6</ele>
        <time>2022-02-12T09:40:03Z</time>
      </trkpt>
      <trkpt lat="43.06867" lon="-0.07703">
        <ele>646.6</ele>
        <time>2022-02-12T09:40:04Z</time>
      </trkpt>
      <trkpt lat="43.06867" lon="-0.07703">
        <ele>646.8</ele>
        <time>2022-02-12T09:40:05Z</time>
      </trkpt>
      <trkpt lat="43.06867" lon="-0.07703">
        <ele>646.8</ele>
        <time>2022-02-12T09:40:06Z</time>
      </trkpt>
      <trkpt lat="43.06867" lon="-0.07703">
        <ele>646.8</ele>
        <time>2022-02-12T09:40:07Z</time>
      </trkpt>
      <trkpt lat="43.06867" lon="-0.07703">
        <ele>646.8</ele>
        <time>2022-02-12T09:40:08Z</time>
      </trkpt>
      <trkpt lat="43.06867" lon="-0.07703">
        <ele>646.8</ele>
        <time>2022-02-12T09:40:09Z</time>
      </trkpt>
      <trkpt lat="43.06867" lon="-0.07703">
        <ele>646.8</ele>
        <time>2022-02-12T09:40:10Z</time>
      </trkpt>
      <trkpt lat="43.06867" lon="-0.07703">
        <ele>646.8</ele>
        <time>2022-02-12T09:40:11Z</time>
      </trkpt>
      <trkpt lat="43.06867" lon="-0.07703">
        <ele>646.8</ele>
        <time>2022-02-12T09:40:12Z</time>
      </trkpt>
      <trkpt lat="43.06867" lon="-0.07703">
        <ele>646.8</ele>
        <time>2022-02-12T09:40:13Z</time>
      </trkpt>
      <trkpt lat="43.06867" lon="-0.07703">
        <ele>646.8</ele>
        <time>2022-02-12T09:40:14Z</time>
      </trkpt>
      <trkpt lat="43.06867" lon="-0.07703">
        <ele>646.8</ele>
        <time>2022-02-12T09:40:15Z</time>
      </trkpt>
      <trkpt lat="43.06867" lon="-0.07703">
        <ele>646.8</ele>
        <time>2022-02-12T09:40:16Z</time>
      </trkpt>
      <trkpt lat="43.06867" lon="-0.07703">
        <ele>646.8</ele>
        <time>2022-02-12T09:40:17Z</time>
      </trkpt>
      <trkpt lat="43.06867" lon="-0.07703">
        <ele>647</ele>
        <time>2022-02-12T09:40:18Z</time>
      </trkpt>
      <trkpt lat="43.06867" lon="-0.07704">
        <ele>647</ele>
        <time>2022-02-12T09:40:19Z</time>
      </trkpt>
      <trkpt lat="43.06867" lon="-0.07704">
        <ele>647</ele>
        <time>2022-02-12T09:40:20Z</time>
      </trkpt>
      <trkpt lat="43.06867" lon="-0.07704">
        <ele>647</ele>
        <time>2022-02-12T09:40:21Z</time>
      </trkpt>
      <trkpt lat="43.06867" lon="-0.07704">
        <ele>647</ele>
        <time>2022-02-12T09:40:22Z</time>
      </trkpt>
      <trkpt lat="43.06867" lon="-0.07704">
        <ele>647.2</ele>
        <time>2022-02-12T09:40:23Z</time>
      </trkpt>
      <trkpt lat="43.06867" lon="-0.07704">
        <ele>647.2</ele>
        <time>2022-02-12T09:40:24Z</time>
      </trkpt>
      <trkpt lat="43.06867" lon="-0.07704">
        <ele>647.2</ele>
        <time>2022-02-12T09:40:25Z</time>
      </trkpt>
      <trkpt lat="43.06867" lon="-0.07704">
        <ele>647.2</ele>
        <time>2022-02-12T09:40:26Z</time>
      </trkpt>
      <trkpt lat="43.06867" lon="-0.07704">
        <ele>647.2</ele>
        <time>2022-02-12T09:40:27Z</time>
      </trkpt>
      <trkpt lat="43.06867" lon="-0.07704">
        <ele>647.2</ele>
        <time>2022-02-12T09:40:28Z</time>
      </trkpt>
      <trkpt lat="43.06867" lon="-0.07704">
        <ele>647.2</ele>
        <time>2022-02-12T09:40:29Z</time>
      </trkpt>
      <trkpt lat="43.06867" lon="-0.07704">
        <ele>647.2</ele>
        <time>2022-02-12T09:40:30Z</time>
      </trkpt>
      <trkpt lat="43.06867" lon="-0.07704">
        <ele>647.2</ele>
        <time>2022-02-12T09:40:31Z</time>
      </trkpt>
      <trkpt lat="43.06867" lon="-0.07704">
        <ele>647.2</ele>
        <time>2022-02-12T09:40:32Z</time>
      </trkpt>
      <trkpt lat="43.06867" lon="-0.07704">
        <ele>647.2</ele>
        <time>2022-02-12T09:40:33Z</time>
      </trkpt>
      <trkpt lat="43.06867" lon="-0.07704">
        <ele>647.2</ele>
        <time>2022-02-12T09:40:34Z</time>
      </trkpt>
      <trkpt lat="43.06867" lon="-0.07704">
        <ele>647.2</ele>
        <time>2022-02-12T09:40:35Z</time>
      </trkpt>
      <trkpt lat="43.06867" lon="-0.07704">
        <ele>647.2</ele>
        <time>2022-02-12T09:40:36Z</time>
      </trkpt>
      <trkpt lat="43.06867" lon="-0.07704">
        <ele>647.2</ele>
        <time>2022-02-12T09:40:37Z</time>
      </trkpt>
      <trkpt lat="43.06867" lon="-0.07704">
        <ele>647.2</ele>
        <time>2022-02-12T09:40:38Z</time>
      </trkpt>
      <trkpt lat="43.06866" lon="-0.07704">
        <ele>647.2</ele>
        <time>2022-02-12T09:40:39Z</time>
      </trkpt>
      <trkpt lat="43.06866" lon="-0.07704">
        <ele>647.2</ele>
        <time>2022-02-12T09:40:40Z</time>
      </trkpt>
      <trkpt lat="43.06866" lon="-0.07704">
        <ele>647.2</ele>
        <time>2022-02-12T09:40:41Z</time>
      </trkpt>
      <trkpt lat="43.06865" lon="-0.07705">
        <ele>647.2</ele>
        <time>2022-02-12T09:40:42Z</time>
      </trkpt>
      <trkpt lat="43.06865" lon="-0.07705">
        <ele>647.2</ele>
        <time>2022-02-12T09:40:43Z</time>
      </trkpt>
      <trkpt lat="43.06865" lon="-0.07705">
        <ele>647.2</ele>
        <time>2022-02-12T09:40:44Z</time>
      </trkpt>
      <trkpt lat="43.06865" lon="-0.07705">
        <ele>647.2</ele>
        <time>2022-02-12T09:40:45Z</time>
      </trkpt>
      <trkpt lat="43.06864" lon="-0.07705">
        <ele>647.2</ele>
        <time>2022-02-12T09:40:46Z</time>
      </trkpt>
      <trkpt lat="43.06864" lon="-0.07705">
        <ele>647.2</ele>
        <time>2022-02-12T09:40:47Z</time>
      </trkpt>
      <trkpt lat="43.06864" lon="-0.07705">
        <ele>647.2</ele>
        <time>2022-02-12T09:40:48Z</time>
      </trkpt>
      <trkpt lat="43.06864" lon="-0.07705">
        <ele>647.2</ele>
        <time>2022-02-12T09:40:49Z</time>
      </trkpt>
      <trkpt lat="43.06864" lon="-0.07705">
        <ele>647.2</ele>
        <time>2022-02-12T09:40:50Z</time>
      </trkpt>
      <trkpt lat="43.06864" lon="-0.07705">
        <ele>647.2</ele>
        <time>2022-02-12T09:40:51Z</time>
      </trkpt>
      <trkpt lat="43.06864" lon="-0.07705">
        <ele>647.2</ele>
        <time>2022-02-12T09:40:52Z</time>
      </trkpt>
      <trkpt lat="43.06864" lon="-0.07705">
        <ele>647.2</ele>
        <time>2022-02-12T09:40:53Z</time>
      </trkpt>
      <trkpt lat="43.06865" lon="-0.07705">
        <ele>647.2</ele>
        <time>2022-02-12T09:40:54Z</time>
      </trkpt>
      <trkpt lat="43.06865" lon="-0.07705">
        <ele>647.2</ele>
        <time>2022-02-12T09:40:55Z</time>
      </trkpt>
      <trkpt lat="43.06865" lon="-0.07705">
        <ele>647.2</ele>
        <time>2022-02-12T09:40:56Z</time>
      </trkpt>
      <trkpt lat="43.06865" lon="-0.07705">
        <ele>647.2</ele>
        <time>2022-02-12T09:40:57Z</time>
      </trkpt>
      <trkpt lat="43.06865" lon="-0.07705">
        <ele>647.2</ele>
        <time>2022-02-12T09:40:58Z</time>
      </trkpt>
      <trkpt lat="43.06865" lon="-0.07705">
        <ele>647.2</ele>
        <time>2022-02-12T09:40:59Z</time>
      </trkpt>
      <trkpt lat="43.06865" lon="-0.07705">
        <ele>647</ele>
        <time>2022-02-12T09:41:00Z</time>
      </trkpt>
      <trkpt lat="43.06865" lon="-0.07705">
        <ele>647</ele>
        <time>2022-02-12T09:41:01Z</time>
      </trkpt>
      <trkpt lat="43.06865" lon="-0.07705">
        <ele>647</ele>
        <time>2022-02-12T09:41:02Z</time>
      </trkpt>
      <trkpt lat="43.06865" lon="-0.07705">
        <ele>646.8</ele>
        <time>2022-02-12T09:41:03Z</time>
      </trkpt>
      <trkpt lat="43.06865" lon="-0.07705">
        <ele>646.8</ele>
        <time>2022-02-12T09:41:04Z</time>
      </trkpt>
      <trkpt lat="43.06865" lon="-0.07705">
        <ele>646.6</ele>
        <time>2022-02-12T09:41:05Z</time>
      </trkpt>
      <trkpt lat="43.06865" lon="-0.07705">
        <ele>646.6</ele>
        <time>2022-02-12T09:41:06Z</time>
      </trkpt>
      <trkpt lat="43.06865" lon="-0.07705">
        <ele>646</ele>
        <time>2022-02-12T09:41:07Z</time>
      </trkpt>
      <trkpt lat="43.06866" lon="-0.07705">
        <ele>646</ele>
        <time>2022-02-12T09:41:08Z</time>
      </trkpt>
      <trkpt lat="43.06866" lon="-0.07705">
        <ele>645.8</ele>
        <time>2022-02-12T09:41:09Z</time>
      </trkpt>
      <trkpt lat="43.06866" lon="-0.07705">
        <ele>645.8</ele>
        <time>2022-02-12T09:41:10Z</time>
      </trkpt>
      <trkpt lat="43.06866" lon="-0.07705">
        <ele>645.8</ele>
        <time>2022-02-12T09:41:11Z</time>
      </trkpt>
      <trkpt lat="43.06866" lon="-0.07705">
        <ele>645.6</ele>
        <time>2022-02-12T09:41:12Z</time>
      </trkpt>
      <trkpt lat="43.06866" lon="-0.07705">
        <ele>645.6</ele>
        <time>2022-02-12T09:41:13Z</time>
      </trkpt>
      <trkpt lat="43.06866" lon="-0.07705">
        <ele>645.6</ele>
        <time>2022-02-12T09:41:14Z</time>
      </trkpt>
      <trkpt lat="43.06866" lon="-0.07705">
        <ele>645.4</ele>
        <time>2022-02-12T09:41:15Z</time>
      </trkpt>
      <trkpt lat="43.06866" lon="-0.07705">
        <ele>645.4</ele>
        <time>2022-02-12T09:41:16Z</time>
      </trkpt>
      <trkpt lat="43.06866" lon="-0.07705">
        <ele>645.2</ele>
        <time>2022-02-12T09:41:17Z</time>
      </trkpt>
      <trkpt lat="43.06866" lon="-0.07705">
        <ele>645.2</ele>
        <time>2022-02-12T09:41:18Z</time>
      </trkpt>
      <trkpt lat="43.06866" lon="-0.07705">
        <ele>645.2</ele>
        <time>2022-02-12T09:41:19Z</time>
      </trkpt>
      <trkpt lat="43.06866" lon="-0.07705">
        <ele>645.2</ele>
        <time>2022-02-12T09:41:20Z</time>
      </trkpt>
      <trkpt lat="43.06866" lon="-0.07705">
        <ele>645.2</ele>
        <time>2022-02-12T09:41:21Z</time>
      </trkpt>
      <trkpt lat="43.06866" lon="-0.07705">
        <ele>645.2</ele>
        <time>2022-02-12T09:41:22Z</time>
      </trkpt>
      <trkpt lat="43.06866" lon="-0.07705">
        <ele>645</ele>
        <time>2022-02-12T09:41:23Z</time>
      </trkpt>
      <trkpt lat="43.06866" lon="-0.07705">
        <ele>645</ele>
        <time>2022-02-12T09:41:24Z</time>
      </trkpt>
      <trkpt lat="43.06866" lon="-0.07705">
        <ele>645</ele>
        <time>2022-02-12T09:41:25Z</time>
      </trkpt>
      <trkpt lat="43.06866" lon="-0.07705">
        <ele>645</ele>
        <time>2022-02-12T09:41:26Z</time>
      </trkpt>
      <trkpt lat="43.06866" lon="-0.07705">
        <ele>645</ele>
        <time>2022-02-12T09:41:27Z</time>
      </trkpt>
      <trkpt lat="43.06866" lon="-0.07705">
        <ele>644.8</ele>
        <time>2022-02-12T09:41:28Z</time>
      </trkpt>
      <trkpt lat="43.06866" lon="-0.07705">
        <ele>644.8</ele>
        <time>2022-02-12T09:41:29Z</time>
      </trkpt>
      <trkpt lat="43.06866" lon="-0.07705">
        <ele>644.8</ele>
        <time>2022-02-12T09:41:30Z</time>
      </trkpt>
      <trkpt lat="43.06866" lon="-0.07705">
        <ele>644.8</ele>
        <time>2022-02-12T09:41:31Z</time>
      </trkpt>
      <trkpt lat="43.06866" lon="-0.07705">
        <ele>644.8</ele>
        <time>2022-02-12T09:41:32Z</time>
      </trkpt>
      <trkpt lat="43.06866" lon="-0.07705">
        <ele>644.8</ele>
        <time>2022-02-12T09:41:33Z</time>
      </trkpt>
      <trkpt lat="43.06866" lon="-0.07705">
        <ele>644.8</ele>
        <time>2022-02-12T09:41:34Z</time>
      </trkpt>
      <trkpt lat="43.06866" lon="-0.07705">
        <ele>644.6</ele>
        <time>2022-02-12T09:41:35Z</time>
      </trkpt>
      <trkpt lat="43.06866" lon="-0.07705">
        <ele>644.6</ele>
        <time>2022-02-12T09:41:36Z</time>
      </trkpt>
      <trkpt lat="43.06866" lon="-0.07705">
        <ele>644.6</ele>
        <time>2022-02-12T09:41:37Z</time>
      </trkpt>
      <trkpt lat="43.06866" lon="-0.07705">
        <ele>644.6</ele>
        <time>2022-02-12T09:41:38Z</time>
      </trkpt>
      <trkpt lat="43.06866" lon="-0.07705">
        <ele>644.6</ele>
        <time>2022-02-12T09:41:39Z</time>
      </trkpt>
      <trkpt lat="43.06866" lon="-0.07705">
        <ele>644.6</ele>
        <time>2022-02-12T09:41:40Z</time>
      </trkpt>
      <trkpt lat="43.06866" lon="-0.07705">
        <ele>644.6</ele>
        <time>2022-02-12T09:41:41Z</time>
      </trkpt>
      <trkpt lat="43.06866" lon="-0.07705">
        <ele>644.6</ele>
        <time>2022-02-12T09:41:42Z</time>
      </trkpt>
      <trkpt lat="43.06866" lon="-0.07705">
        <ele>644.6</ele>
        <time>2022-02-12T09:41:43Z</time>
      </trkpt>
      <trkpt lat="43.06866" lon="-0.07705">
        <ele>644.6</ele>
        <time>2022-02-12T09:41:44Z</time>
      </trkpt>
      <trkpt lat="43.06866" lon="-0.07705">
        <ele>644.6</ele>
        <time>2022-02-12T09:41:45Z</time>
      </trkpt>
      <trkpt lat="43.06866" lon="-0.07705">
        <ele>644.6</ele>
        <time>2022-02-12T09:41:46Z</time>
      </trkpt>
      <trkpt lat="43.06866" lon="-0.07705">
        <ele>644.6</ele>
        <time>2022-02-12T09:41:47Z</time>
      </trkpt>
      <trkpt lat="43.06866" lon="-0.07705">
        <ele>644.6</ele>
        <time>2022-02-12T09:41:48Z</time>
      </trkpt>
      <trkpt lat="43.06866" lon="-0.07705">
        <ele>644.6</ele>
        <time>2022-02-12T09:41:49Z</time>
      </trkpt>
      <trkpt lat="43.06866" lon="-0.07705">
        <ele>644.6</ele>
        <time>2022-02-12T09:41:50Z</time>
      </trkpt>
      <trkpt lat="43.06866" lon="-0.07704">
        <ele>644.6</ele>
        <time>2022-02-12T09:41:51Z</time>
      </trkpt>
      <trkpt lat="43.06866" lon="-0.07704">
        <ele>644.6</ele>
        <time>2022-02-12T09:41:52Z</time>
      </trkpt>
      <trkpt lat="43.06866" lon="-0.07704">
        <ele>644.6</ele>
        <time>2022-02-12T09:41:53Z</time>
      </trkpt>
      <trkpt lat="43.06866" lon="-0.07704">
        <ele>644.6</ele>
        <time>2022-02-12T09:41:54Z</time>
      </trkpt>
      <trkpt lat="43.06866" lon="-0.07704">
        <ele>644.6</ele>
        <time>2022-02-12T09:41:55Z</time>
      </trkpt>
      <trkpt lat="43.06866" lon="-0.07704">
        <ele>644.6</ele>
        <time>2022-02-12T09:41:56Z</time>
      </trkpt>
      <trkpt lat="43.06866" lon="-0.07704">
        <ele>644.6</ele>
        <time>2022-02-12T09:41:57Z</time>
      </trkpt>
      <trkpt lat="43.06866" lon="-0.07704">
        <ele>644.6</ele>
        <time>2022-02-12T09:41:58Z</time>
      </trkpt>
      <trkpt lat="43.06866" lon="-0.07704">
        <ele>644.6</ele>
        <time>2022-02-12T09:41:59Z</time>
      </trkpt>
      <trkpt lat="43.06866" lon="-0.07704">
        <ele>644.4</ele>
        <time>2022-02-12T09:42:00Z</time>
      </trkpt>
      <trkpt lat="43.06866" lon="-0.07704">
        <ele>644.4</ele>
        <time>2022-02-12T09:42:01Z</time>
      </trkpt>
      <trkpt lat="43.06866" lon="-0.07703">
        <ele>644.4</ele>
        <time>2022-02-12T09:42:02Z</time>
      </trkpt>
      <trkpt lat="43.06866" lon="-0.07703">
        <ele>644.4</ele>
        <time>2022-02-12T09:42:03Z</time>
      </trkpt>
      <trkpt lat="43.06866" lon="-0.07703">
        <ele>644.4</ele>
        <time>2022-02-12T09:42:04Z</time>
      </trkpt>
      <trkpt lat="43.06866" lon="-0.07703">
        <ele>644.4</ele>
        <time>2022-02-12T09:42:05Z</time>
      </trkpt>
      <trkpt lat="43.06866" lon="-0.07703">
        <ele>644.6</ele>
        <time>2022-02-12T09:42:06Z</time>
      </trkpt>
      <trkpt lat="43.06866" lon="-0.07703">
        <ele>644.6</ele>
        <time>2022-02-12T09:42:07Z</time>
      </trkpt>
      <trkpt lat="43.06866" lon="-0.07703">
        <ele>644.6</ele>
        <time>2022-02-12T09:42:08Z</time>
      </trkpt>
      <trkpt lat="43.06866" lon="-0.07702">
        <ele>644.6</ele>
        <time>2022-02-12T09:42:09Z</time>
      </trkpt>
      <trkpt lat="43.06865" lon="-0.07702">
        <ele>644.6</ele>
        <time>2022-02-12T09:42:10Z</time>
      </trkpt>
      <trkpt lat="43.06865" lon="-0.07702">
        <ele>644.6</ele>
        <time>2022-02-12T09:42:11Z</time>
      </trkpt>
      <trkpt lat="43.06865" lon="-0.07702">
        <ele>644.8</ele>
        <time>2022-02-12T09:42:12Z</time>
      </trkpt>
      <trkpt lat="43.06865" lon="-0.07702">
        <ele>644.8</ele>
        <time>2022-02-12T09:42:13Z</time>
      </trkpt>
      <trkpt lat="43.06865" lon="-0.07702">
        <ele>644.8</ele>
        <time>2022-02-12T09:42:14Z</time>
      </trkpt>
      <trkpt lat="43.06865" lon="-0.07702">
        <ele>644.8</ele>
        <time>2022-02-12T09:42:15Z</time>
      </trkpt>
      <trkpt lat="43.06865" lon="-0.07702">
        <ele>644.8</ele>
        <time>2022-02-12T09:42:16Z</time>
      </trkpt>
      <trkpt lat="43.06865" lon="-0.07702">
        <ele>644.8</ele>
        <time>2022-02-12T09:42:17Z</time>
      </trkpt>
      <trkpt lat="43.06865" lon="-0.07702">
        <ele>644.8</ele>
        <time>2022-02-12T09:42:18Z</time>
      </trkpt>
      <trkpt lat="43.06865" lon="-0.07702">
        <ele>644.8</ele>
        <time>2022-02-12T09:42:19Z</time>
      </trkpt>
      <trkpt lat="43.06865" lon="-0.07702">
        <ele>645</ele>
        <time>2022-02-12T09:42:20Z</time>
      </trkpt>
      <trkpt lat="43.06865" lon="-0.07702">
        <ele>645.2</ele>
        <time>2022-02-12T09:42:21Z</time>
      </trkpt>
      <trkpt lat="43.06865" lon="-0.07702">
        <ele>645.2</ele>
        <time>2022-02-12T09:42:22Z</time>
      </trkpt>
      <trkpt lat="43.06865" lon="-0.07702">
        <ele>645.2</ele>
        <time>2022-02-12T09:42:23Z</time>
      </trkpt>
      <trkpt lat="43.06865" lon="-0.07702">
        <ele>645.4</ele>
        <time>2022-02-12T09:42:24Z</time>
      </trkpt>
      <trkpt lat="43.06865" lon="-0.07702">
        <ele>645.4</ele>
        <time>2022-02-12T09:42:25Z</time>
      </trkpt>
      <trkpt lat="43.06865" lon="-0.07702">
        <ele>645.4</ele>
        <time>2022-02-12T09:42:26Z</time>
      </trkpt>
      <trkpt lat="43.06865" lon="-0.07702">
        <ele>645.6</ele>
        <time>2022-02-12T09:42:27Z</time>
      </trkpt>
      <trkpt lat="43.06865" lon="-0.07702">
        <ele>645.6</ele>
        <time>2022-02-12T09:42:28Z</time>
      </trkpt>
      <trkpt lat="43.06865" lon="-0.07702">
        <ele>645.8</ele>
        <time>2022-02-12T09:42:29Z</time>
      </trkpt>
      <trkpt lat="43.06865" lon="-0.07702">
        <ele>645.8</ele>
        <time>2022-02-12T09:42:30Z</time>
      </trkpt>
      <trkpt lat="43.06865" lon="-0.07702">
        <ele>646</ele>
        <time>2022-02-12T09:42:31Z</time>
      </trkpt>
      <trkpt lat="43.06865" lon="-0.07702">
        <ele>646.2</ele>
        <time>2022-02-12T09:42:32Z</time>
      </trkpt>
      <trkpt lat="43.06865" lon="-0.07702">
        <ele>646.2</ele>
        <time>2022-02-12T09:42:33Z</time>
      </trkpt>
      <trkpt lat="43.06865" lon="-0.07702">
        <ele>646.4</ele>
        <time>2022-02-12T09:42:34Z</time>
      </trkpt>
      <trkpt lat="43.06865" lon="-0.07702">
        <ele>646.4</ele>
        <time>2022-02-12T09:42:35Z</time>
      </trkpt>
      <trkpt lat="43.06865" lon="-0.07702">
        <ele>646.6</ele>
        <time>2022-02-12T09:42:36Z</time>
      </trkpt>
      <trkpt lat="43.06865" lon="-0.07702">
        <ele>646.8</ele>
        <time>2022-02-12T09:42:37Z</time>
      </trkpt>
      <trkpt lat="43.06865" lon="-0.07702">
        <ele>646.8</ele>
        <time>2022-02-12T09:42:38Z</time>
      </trkpt>
      <trkpt lat="43.06865" lon="-0.07702">
        <ele>647</ele>
        <time>2022-02-12T09:42:39Z</time>
      </trkpt>
      <trkpt lat="43.06865" lon="-0.07702">
        <ele>647</ele>
        <time>2022-02-12T09:42:40Z</time>
      </trkpt>
      <trkpt lat="43.06864" lon="-0.07702">
        <ele>647.2</ele>
        <time>2022-02-12T09:42:41Z</time>
      </trkpt>
      <trkpt lat="43.06864" lon="-0.07702">
        <ele>647.2</ele>
        <time>2022-02-12T09:42:42Z</time>
      </trkpt>
      <trkpt lat="43.06864" lon="-0.07702">
        <ele>647.4</ele>
        <time>2022-02-12T09:42:43Z</time>
      </trkpt>
      <trkpt lat="43.06863" lon="-0.07702">
        <ele>647.6</ele>
        <time>2022-02-12T09:42:44Z</time>
      </trkpt>
      <trkpt lat="43.06862" lon="-0.07703">
        <ele>647.8</ele>
        <time>2022-02-12T09:42:45Z</time>
      </trkpt>
      <trkpt lat="43.0686" lon="-0.07704">
        <ele>648</ele>
        <time>2022-02-12T09:42:46Z</time>
      </trkpt>
      <trkpt lat="43.0686" lon="-0.07704">
        <ele>648.4</ele>
        <time>2022-02-12T09:42:47Z</time>
      </trkpt>
      <trkpt lat="43.06859" lon="-0.07704">
        <ele>648.4</ele>
        <time>2022-02-12T09:42:48Z</time>
      </trkpt>
      <trkpt lat="43.06859" lon="-0.07704">
        <ele>648.6</ele>
        <time>2022-02-12T09:42:49Z</time>
      </trkpt>
      <trkpt lat="43.06858" lon="-0.07704">
        <ele>648.8</ele>
        <time>2022-02-12T09:42:50Z</time>
      </trkpt>
      <trkpt lat="43.06857" lon="-0.07704">
        <ele>648.8</ele>
        <time>2022-02-12T09:42:51Z</time>
      </trkpt>
      <trkpt lat="43.06856" lon="-0.07705">
        <ele>649</ele>
        <time>2022-02-12T09:42:52Z</time>
      </trkpt>
      <trkpt lat="43.06855" lon="-0.07705">
        <ele>649</ele>
        <time>2022-02-12T09:42:53Z</time>
      </trkpt>
      <trkpt lat="43.06855" lon="-0.07706">
        <ele>649.2</ele>
        <time>2022-02-12T09:42:54Z</time>
      </trkpt>
      <trkpt lat="43.06854" lon="-0.07707">
        <ele>649.2</ele>
        <time>2022-02-12T09:42:55Z</time>
      </trkpt>
      <trkpt lat="43.06854" lon="-0.07708">
        <ele>649.2</ele>
        <time>2022-02-12T09:42:56Z</time>
      </trkpt>
      <trkpt lat="43.06854" lon="-0.07708">
        <ele>649.2</ele>
        <time>2022-02-12T09:42:57Z</time>
      </trkpt>
      <trkpt lat="43.06854" lon="-0.07708">
        <ele>649.2</ele>
        <time>2022-02-12T09:42:58Z</time>
      </trkpt>
      <trkpt lat="43.06854" lon="-0.07708">
        <ele>649.2</ele>
        <time>2022-02-12T09:42:59Z</time>
      </trkpt>
      <trkpt lat="43.06854" lon="-0.07708">
        <ele>649.2</ele>
        <time>2022-02-12T09:43:00Z</time>
      </trkpt>
      <trkpt lat="43.06854" lon="-0.07708">
        <ele>649.2</ele>
        <time>2022-02-12T09:43:01Z</time>
      </trkpt>
      <trkpt lat="43.06855" lon="-0.07709">
        <ele>649.2</ele>
        <time>2022-02-12T09:43:02Z</time>
      </trkpt>
      <trkpt lat="43.06855" lon="-0.0771">
        <ele>649.2</ele>
        <time>2022-02-12T09:43:03Z</time>
      </trkpt>
      <trkpt lat="43.06856" lon="-0.07712">
        <ele>649.2</ele>
        <time>2022-02-12T09:43:04Z</time>
      </trkpt>
      <trkpt lat="43.06857" lon="-0.07713">
        <ele>649.2</ele>
        <time>2022-02-12T09:43:05Z</time>
      </trkpt>
      <trkpt lat="43.06859" lon="-0.07715">
        <ele>648.8</ele>
        <time>2022-02-12T09:43:06Z</time>
      </trkpt>
      <trkpt lat="43.06862" lon="-0.07718">
        <ele>648.6</ele>
        <time>2022-02-12T09:43:07Z</time>
      </trkpt>
      <trkpt lat="43.06864" lon="-0.0772">
        <ele>648.4</ele>
        <time>2022-02-12T09:43:08Z</time>
      </trkpt>
      <trkpt lat="43.06866" lon="-0.07722">
        <ele>648.2</ele>
        <time>2022-02-12T09:43:09Z</time>
      </trkpt>
      <trkpt lat="43.06868" lon="-0.07724">
        <ele>647.6</ele>
        <time>2022-02-12T09:43:10Z</time>
      </trkpt>
      <trkpt lat="43.0687" lon="-0.07726">
        <ele>647.2</ele>
        <time>2022-02-12T09:43:11Z</time>
      </trkpt>
      <trkpt lat="43.06873" lon="-0.07728">
        <ele>646.8</ele>
        <time>2022-02-12T09:43:12Z</time>
      </trkpt>
      <trkpt lat="43.06876" lon="-0.07729">
        <ele>646.8</ele>
        <time>2022-02-12T09:43:13Z</time>
      </trkpt>
      <trkpt lat="43.06879" lon="-0.0773">
        <ele>646.2</ele>
        <time>2022-02-12T09:43:14Z</time>
      </trkpt>
      <trkpt lat="43.06883" lon="-0.07732">
        <ele>645.8</ele>
        <time>2022-02-12T09:43:15Z</time>
      </trkpt>
      <trkpt lat="43.06887" lon="-0.07735">
        <ele>645</ele>
        <time>2022-02-12T09:43:16Z</time>
      </trkpt>
      <trkpt lat="43.06891" lon="-0.07738">
        <ele>644.8</ele>
        <time>2022-02-12T09:43:17Z</time>
      </trkpt>
      <trkpt lat="43.06896" lon="-0.0774">
        <ele>644.2</ele>
        <time>2022-02-12T09:43:18Z</time>
      </trkpt>
      <trkpt lat="43.06899" lon="-0.07742">
        <ele>643.8</ele>
        <time>2022-02-12T09:43:19Z</time>
      </trkpt>
      <trkpt lat="43.06903" lon="-0.07744">
        <ele>643.2</ele>
        <time>2022-02-12T09:43:20Z</time>
      </trkpt>
      <trkpt lat="43.06908" lon="-0.07746">
        <ele>642.6</ele>
        <time>2022-02-12T09:43:21Z</time>
      </trkpt>
      <trkpt lat="43.06912" lon="-0.07747">
        <ele>642.4</ele>
        <time>2022-02-12T09:43:22Z</time>
      </trkpt>
      <trkpt lat="43.06916" lon="-0.07748">
        <ele>641.8</ele>
        <time>2022-02-12T09:43:23Z</time>
      </trkpt>
      <trkpt lat="43.06919" lon="-0.0775">
        <ele>641.8</ele>
        <time>2022-02-12T09:43:24Z</time>
      </trkpt>
      <trkpt lat="43.06923" lon="-0.07751">
        <ele>641.2</ele>
        <time>2022-02-12T09:43:25Z</time>
      </trkpt>
      <trkpt lat="43.06926" lon="-0.07752">
        <ele>641</ele>
        <time>2022-02-12T09:43:26Z</time>
      </trkpt>
      <trkpt lat="43.06928" lon="-0.07753">
        <ele>640.2</ele>
        <time>2022-02-12T09:43:27Z</time>
      </trkpt>
      <trkpt lat="43.06931" lon="-0.07754">
        <ele>640</ele>
        <time>2022-02-12T09:43:28Z</time>
      </trkpt>
      <trkpt lat="43.06936" lon="-0.07755">
        <ele>639.4</ele>
        <time>2022-02-12T09:43:29Z</time>
      </trkpt>
      <trkpt lat="43.06939" lon="-0.07754">
        <ele>639</ele>
        <time>2022-02-12T09:43:30Z</time>
      </trkpt>
      <trkpt lat="43.06942" lon="-0.07754">
        <ele>638.2</ele>
        <time>2022-02-12T09:43:31Z</time>
      </trkpt>
      <trkpt lat="43.06945" lon="-0.07753">
        <ele>637.6</ele>
        <time>2022-02-12T09:43:32Z</time>
      </trkpt>
      <trkpt lat="43.06947" lon="-0.07751">
        <ele>636.4</ele>
        <time>2022-02-12T09:43:33Z</time>
      </trkpt>
      <trkpt lat="43.06949" lon="-0.07748">
        <ele>636</ele>
        <time>2022-02-12T09:43:34Z</time>
      </trkpt>
      <trkpt lat="43.06948" lon="-0.07745">
        <ele>635</ele>
        <time>2022-02-12T09:43:35Z</time>
      </trkpt>
      <trkpt lat="43.06946" lon="-0.07743">
        <ele>634.6</ele>
        <time>2022-02-12T09:43:36Z</time>
      </trkpt>
      <trkpt lat="43.06944" lon="-0.07742">
        <ele>633.8</ele>
        <time>2022-02-12T09:43:37Z</time>
      </trkpt>
      <trkpt lat="43.0694" lon="-0.07741">
        <ele>633.2</ele>
        <time>2022-02-12T09:43:38Z</time>
      </trkpt>
      <trkpt lat="43.06937" lon="-0.0774">
        <ele>632.6</ele>
        <time>2022-02-12T09:43:39Z</time>
      </trkpt>
      <trkpt lat="43.06932" lon="-0.07739">
        <ele>632.2</ele>
        <time>2022-02-12T09:43:40Z</time>
      </trkpt>
      <trkpt lat="43.06928" lon="-0.07737">
        <ele>631.6</ele>
        <time>2022-02-12T09:43:41Z</time>
      </trkpt>
      <trkpt lat="43.06924" lon="-0.07735">
        <ele>631.2</ele>
        <time>2022-02-12T09:43:42Z</time>
      </trkpt>
      <trkpt lat="43.06919" lon="-0.07733">
        <ele>630.4</ele>
        <time>2022-02-12T09:43:43Z</time>
      </trkpt>
      <trkpt lat="43.06916" lon="-0.0773">
        <ele>630</ele>
        <time>2022-02-12T09:43:44Z</time>
      </trkpt>
      <trkpt lat="43.06912" lon="-0.07727">
        <ele>629.4</ele>
        <time>2022-02-12T09:43:45Z</time>
      </trkpt>
      <trkpt lat="43.06909" lon="-0.07725">
        <ele>628.8</ele>
        <time>2022-02-12T09:43:46Z</time>
      </trkpt>
      <trkpt lat="43.06907" lon="-0.07723">
        <ele>628</ele>
        <time>2022-02-12T09:43:47Z</time>
      </trkpt>
      <trkpt lat="43.06904" lon="-0.07721">
        <ele>627.4</ele>
        <time>2022-02-12T09:43:48Z</time>
      </trkpt>
      <trkpt lat="43.06903" lon="-0.0772">
        <ele>627</ele>
        <time>2022-02-12T09:43:49Z</time>
      </trkpt>
      <trkpt lat="43.06902" lon="-0.07718">
        <ele>626.2</ele>
        <time>2022-02-12T09:43:50Z</time>
      </trkpt>
      <trkpt lat="43.06902" lon="-0.07717">
        <ele>626</ele>
        <time>2022-02-12T09:43:51Z</time>
      </trkpt>
      <trkpt lat="43.06902" lon="-0.07715">
        <ele>625.4</ele>
        <time>2022-02-12T09:43:52Z</time>
      </trkpt>
      <trkpt lat="43.06903" lon="-0.07712">
        <ele>625.2</ele>
        <time>2022-02-12T09:43:53Z</time>
      </trkpt>
      <trkpt lat="43.06903" lon="-0.07711">
        <ele>624.8</ele>
        <time>2022-02-12T09:43:54Z</time>
      </trkpt>
      <trkpt lat="43.06903" lon="-0.07711">
        <ele>624.8</ele>
        <time>2022-02-12T09:43:55Z</time>
      </trkpt>
      <trkpt lat="43.06903" lon="-0.07711">
        <ele>624.6</ele>
        <time>2022-02-12T09:43:56Z</time>
      </trkpt>
      <trkpt lat="43.06903" lon="-0.07711">
        <ele>624.4</ele>
        <time>2022-02-12T09:43:57Z</time>
      </trkpt>
      <trkpt lat="43.06903" lon="-0.07711">
        <ele>624.2</ele>
        <time>2022-02-12T09:43:58Z</time>
      </trkpt>
      <trkpt lat="43.06903" lon="-0.07711">
        <ele>624</ele>
        <time>2022-02-12T09:43:59Z</time>
      </trkpt>
      <trkpt lat="43.06903" lon="-0.07711">
        <ele>624</ele>
        <time>2022-02-12T09:44:00Z</time>
      </trkpt>
      <trkpt lat="43.06903" lon="-0.07711">
        <ele>624</ele>
        <time>2022-02-12T09:44:01Z</time>
      </trkpt>
      <trkpt lat="43.06903" lon="-0.07711">
        <ele>623.8</ele>
        <time>2022-02-12T09:44:02Z</time>
      </trkpt>
      <trkpt lat="43.06903" lon="-0.07711">
        <ele>623.8</ele>
        <time>2022-02-12T09:44:03Z</time>
      </trkpt>
      <trkpt lat="43.06903" lon="-0.07711">
        <ele>623.8</ele>
        <time>2022-02-12T09:44:04Z</time>
      </trkpt>
      <trkpt lat="43.06903" lon="-0.07711">
        <ele>623.8</ele>
        <time>2022-02-12T09:44:05Z</time>
      </trkpt>
      <trkpt lat="43.06903" lon="-0.07711">
        <ele>623.8</ele>
        <time>2022-02-12T09:44:06Z</time>
      </trkpt>
      <trkpt lat="43.06903" lon="-0.07711">
        <ele>623.8</ele>
        <time>2022-02-12T09:44:07Z</time>
      </trkpt>
      <trkpt lat="43.06903" lon="-0.07711">
        <ele>623.8</ele>
        <time>2022-02-12T09:44:08Z</time>
      </trkpt>
      <trkpt lat="43.06903" lon="-0.07711">
        <ele>623.8</ele>
        <time>2022-02-12T09:44:09Z</time>
      </trkpt>
      <trkpt lat="43.06904" lon="-0.07709">
        <ele>623.8</ele>
        <time>2022-02-12T09:44:10Z</time>
      </trkpt>
      <trkpt lat="43.06904" lon="-0.07707">
        <ele>623.8</ele>
        <time>2022-02-12T09:44:11Z</time>
      </trkpt>
      <trkpt lat="43.06903" lon="-0.07705">
        <ele>623.8</ele>
        <time>2022-02-12T09:44:12Z</time>
      </trkpt>
      <trkpt lat="43.06903" lon="-0.07703">
        <ele>623.8</ele>
        <time>2022-02-12T09:44:13Z</time>
      </trkpt>
      <trkpt lat="43.06902" lon="-0.07702">
        <ele>623.8</ele>
        <time>2022-02-12T09:44:14Z</time>
      </trkpt>
      <trkpt lat="43.06901" lon="-0.077">
        <ele>623.8</ele>
        <time>2022-02-12T09:44:15Z</time>
      </trkpt>
      <trkpt lat="43.06901" lon="-0.07698">
        <ele>623.8</ele>
        <time>2022-02-12T09:44:16Z</time>
      </trkpt>
      <trkpt lat="43.069" lon="-0.07696">
        <ele>623.8</ele>
        <time>2022-02-12T09:44:17Z</time>
      </trkpt>
      <trkpt lat="43.06899" lon="-0.07694">
        <ele>623.8</ele>
        <time>2022-02-12T09:44:18Z</time>
      </trkpt>
      <trkpt lat="43.06899" lon="-0.07691">
        <ele>623.8</ele>
        <time>2022-02-12T09:44:19Z</time>
      </trkpt>
      <trkpt lat="43.06899" lon="-0.07688">
        <ele>623.6</ele>
        <time>2022-02-12T09:44:20Z</time>
      </trkpt>
      <trkpt lat="43.06898" lon="-0.07686">
        <ele>623.6</ele>
        <time>2022-02-12T09:44:21Z</time>
      </trkpt>
      <trkpt lat="43.06897" lon="-0.07683">
        <ele>623.4</ele>
        <time>2022-02-12T09:44:22Z</time>
      </trkpt>
      <trkpt lat="43.06896" lon="-0.07679">
        <ele>623.2</ele>
        <time>2022-02-12T09:44:23Z</time>
      </trkpt>
      <trkpt lat="43.06895" lon="-0.07676">
        <ele>623.2</ele>
        <time>2022-02-12T09:44:24Z</time>
      </trkpt>
      <trkpt lat="43.06894" lon="-0.07672">
        <ele>622.8</ele>
        <time>2022-02-12T09:44:25Z</time>
      </trkpt>
      <trkpt lat="43.06894" lon="-0.07669">
        <ele>622.8</ele>
        <time>2022-02-12T09:44:26Z</time>
      </trkpt>
      <trkpt lat="43.06895" lon="-0.07665">
        <ele>622.2</ele>
        <time>2022-02-12T09:44:27Z</time>
      </trkpt>
      <trkpt lat="43.06896" lon="-0.0766">
        <ele>622</ele>
        <time>2022-02-12T09:44:28Z</time>
      </trkpt>
      <trkpt lat="43.06898" lon="-0.07654">
        <ele>621.2</ele>
        <time>2022-02-12T09:44:29Z</time>
      </trkpt>
      <trkpt lat="43.06899" lon="-0.0765">
        <ele>621</ele>
        <time>2022-02-12T09:44:30Z</time>
      </trkpt>
      <trkpt lat="43.06901" lon="-0.07647">
        <ele>620.2</ele>
        <time>2022-02-12T09:44:31Z</time>
      </trkpt>
      <trkpt lat="43.06903" lon="-0.07644">
        <ele>619.8</ele>
        <time>2022-02-12T09:44:32Z</time>
      </trkpt>
      <trkpt lat="43.06904" lon="-0.07641">
        <ele>619.2</ele>
        <time>2022-02-12T09:44:33Z</time>
      </trkpt>
      <trkpt lat="43.06906" lon="-0.07637">
        <ele>618.8</ele>
        <time>2022-02-12T09:44:34Z</time>
      </trkpt>
      <trkpt lat="43.06909" lon="-0.07632">
        <ele>618.2</ele>
        <time>2022-02-12T09:44:35Z</time>
      </trkpt>
      <trkpt lat="43.06913" lon="-0.07628">
        <ele>618</ele>
        <time>2022-02-12T09:44:36Z</time>
      </trkpt>
      <trkpt lat="43.06916" lon="-0.07623">
        <ele>617.4</ele>
        <time>2022-02-12T09:44:37Z</time>
      </trkpt>
      <trkpt lat="43.06917" lon="-0.0762">
        <ele>617.2</ele>
        <time>2022-02-12T09:44:38Z</time>
      </trkpt>
      <trkpt lat="43.06918" lon="-0.07616">
        <ele>616.6</ele>
        <time>2022-02-12T09:44:39Z</time>
      </trkpt>
      <trkpt lat="43.06918" lon="-0.07614">
        <ele>616.4</ele>
        <time>2022-02-12T09:44:40Z</time>
      </trkpt>
      <trkpt lat="43.06918" lon="-0.07611">
        <ele>616</ele>
        <time>2022-02-12T09:44:41Z</time>
      </trkpt>
      <trkpt lat="43.06918" lon="-0.07607">
        <ele>615.6</ele>
        <time>2022-02-12T09:44:42Z</time>
      </trkpt>
      <trkpt lat="43.0692" lon="-0.07604">
        <ele>615.6</ele>
        <time>2022-02-12T09:44:43Z</time>
      </trkpt>
      <trkpt lat="43.06922" lon="-0.07602">
        <ele>615.2</ele>
        <time>2022-02-12T09:44:44Z</time>
      </trkpt>
      <trkpt lat="43.06924" lon="-0.076">
        <ele>615</ele>
        <time>2022-02-12T09:44:45Z</time>
      </trkpt>
      <trkpt lat="43.06926" lon="-0.07599">
        <ele>614.8</ele>
        <time>2022-02-12T09:44:46Z</time>
      </trkpt>
      <trkpt lat="43.06929" lon="-0.07598">
        <ele>614.6</ele>
        <time>2022-02-12T09:44:47Z</time>
      </trkpt>
      <trkpt lat="43.06931" lon="-0.07597">
        <ele>614.4</ele>
        <time>2022-02-12T09:44:48Z</time>
      </trkpt>
      <trkpt lat="43.06934" lon="-0.07596">
        <ele>614.4</ele>
        <time>2022-02-12T09:44:49Z</time>
      </trkpt>
      <trkpt lat="43.06937" lon="-0.07595">
        <ele>614.2</ele>
        <time>2022-02-12T09:44:50Z</time>
      </trkpt>
      <trkpt lat="43.0694" lon="-0.07594">
        <ele>614.2</ele>
        <time>2022-02-12T09:44:51Z</time>
      </trkpt>
      <trkpt lat="43.06943" lon="-0.07593">
        <ele>614</ele>
        <time>2022-02-12T09:44:52Z</time>
      </trkpt>
      <trkpt lat="43.06945" lon="-0.07592">
        <ele>614</ele>
        <time>2022-02-12T09:44:53Z</time>
      </trkpt>
      <trkpt lat="43.06948" lon="-0.07592">
        <ele>613.8</ele>
        <time>2022-02-12T09:44:54Z</time>
      </trkpt>
      <trkpt lat="43.0695" lon="-0.07593">
        <ele>613.6</ele>
        <time>2022-02-12T09:44:55Z</time>
      </trkpt>
      <trkpt lat="43.06953" lon="-0.07594">
        <ele>613.4</ele>
        <time>2022-02-12T09:44:56Z</time>
      </trkpt>
      <trkpt lat="43.06956" lon="-0.07596">
        <ele>613.2</ele>
        <time>2022-02-12T09:44:57Z</time>
      </trkpt>
      <trkpt lat="43.06958" lon="-0.07598">
        <ele>613</ele>
        <time>2022-02-12T09:44:58Z</time>
      </trkpt>
      <trkpt lat="43.06961" lon="-0.076">
        <ele>613</ele>
        <time>2022-02-12T09:44:59Z</time>
      </trkpt>
      <trkpt lat="43.06964" lon="-0.07602">
        <ele>612.8</ele>
        <time>2022-02-12T09:45:00Z</time>
      </trkpt>
      <trkpt lat="43.06966" lon="-0.07603">
        <ele>612.8</ele>
        <time>2022-02-12T09:45:01Z</time>
      </trkpt>
      <trkpt lat="43.06968" lon="-0.07604">
        <ele>612.8</ele>
        <time>2022-02-12T09:45:02Z</time>
      </trkpt>
      <trkpt lat="43.0697" lon="-0.07605">
        <ele>612.8</ele>
        <time>2022-02-12T09:45:03Z</time>
      </trkpt>
      <trkpt lat="43.06971" lon="-0.07606">
        <ele>612.6</ele>
        <time>2022-02-12T09:45:04Z</time>
      </trkpt>
      <trkpt lat="43.06973" lon="-0.07607">
        <ele>612.6</ele>
        <time>2022-02-12T09:45:05Z</time>
      </trkpt>
      <trkpt lat="43.06975" lon="-0.07608">
        <ele>612.6</ele>
        <time>2022-02-12T09:45:06Z</time>
      </trkpt>
      <trkpt lat="43.06976" lon="-0.0761">
        <ele>612.6</ele>
        <time>2022-02-12T09:45:07Z</time>
      </trkpt>
      <trkpt lat="43.06978" lon="-0.07612">
        <ele>612.6</ele>
        <time>2022-02-12T09:45:08Z</time>
      </trkpt>
      <trkpt lat="43.06979" lon="-0.07613">
        <ele>612.6</ele>
        <time>2022-02-12T09:45:09Z</time>
      </trkpt>
      <trkpt lat="43.06981" lon="-0.07613">
        <ele>612.6</ele>
        <time>2022-02-12T09:45:10Z</time>
      </trkpt>
      <trkpt lat="43.06983" lon="-0.07611">
        <ele>612.6</ele>
        <time>2022-02-12T09:45:11Z</time>
      </trkpt>
      <trkpt lat="43.06984" lon="-0.07609">
        <ele>612.6</ele>
        <time>2022-02-12T09:45:12Z</time>
      </trkpt>
      <trkpt lat="43.06984" lon="-0.07607">
        <ele>612.6</ele>
        <time>2022-02-12T09:45:13Z</time>
      </trkpt>
      <trkpt lat="43.06985" lon="-0.07603">
        <ele>612.6</ele>
        <time>2022-02-12T09:45:14Z</time>
      </trkpt>
      <trkpt lat="43.06985" lon="-0.076">
        <ele>612.2</ele>
        <time>2022-02-12T09:45:15Z</time>
      </trkpt>
      <trkpt lat="43.06986" lon="-0.07597">
        <ele>612</ele>
        <time>2022-02-12T09:45:16Z</time>
      </trkpt>
      <trkpt lat="43.06988" lon="-0.07594">
        <ele>611.8</ele>
        <time>2022-02-12T09:45:17Z</time>
      </trkpt>
      <trkpt lat="43.06989" lon="-0.07591">
        <ele>611.6</ele>
        <time>2022-02-12T09:45:18Z</time>
      </trkpt>
      <trkpt lat="43.06991" lon="-0.07588">
        <ele>611.2</ele>
        <time>2022-02-12T09:45:19Z</time>
      </trkpt>
      <trkpt lat="43.06994" lon="-0.07584">
        <ele>611</ele>
        <time>2022-02-12T09:45:20Z</time>
      </trkpt>
      <trkpt lat="43.06996" lon="-0.07582">
        <ele>610.8</ele>
        <time>2022-02-12T09:45:21Z</time>
      </trkpt>
      <trkpt lat="43.06999" lon="-0.07579">
        <ele>610.6</ele>
        <time>2022-02-12T09:45:22Z</time>
      </trkpt>
      <trkpt lat="43.07002" lon="-0.07576">
        <ele>610.2</ele>
        <time>2022-02-12T09:45:23Z</time>
      </trkpt>
      <trkpt lat="43.07005" lon="-0.07574">
        <ele>610</ele>
        <time>2022-02-12T09:45:24Z</time>
      </trkpt>
      <trkpt lat="43.07007" lon="-0.07572">
        <ele>609.8</ele>
        <time>2022-02-12T09:45:25Z</time>
      </trkpt>
      <trkpt lat="43.0701" lon="-0.07569">
        <ele>609.4</ele>
        <time>2022-02-12T09:45:26Z</time>
      </trkpt>
      <trkpt lat="43.07013" lon="-0.07567">
        <ele>609.2</ele>
        <time>2022-02-12T09:45:27Z</time>
      </trkpt>
      <trkpt lat="43.07015" lon="-0.07565">
        <ele>609</ele>
        <time>2022-02-12T09:45:28Z</time>
      </trkpt>
      <trkpt lat="43.07018" lon="-0.07563">
        <ele>608.4</ele>
        <time>2022-02-12T09:45:29Z</time>
      </trkpt>
      <trkpt lat="43.07019" lon="-0.07562">
        <ele>608.4</ele>
        <time>2022-02-12T09:45:30Z</time>
      </trkpt>
      <trkpt lat="43.07021" lon="-0.07561">
        <ele>608</ele>
        <time>2022-02-12T09:45:31Z</time>
      </trkpt>
      <trkpt lat="43.07021" lon="-0.07559">
        <ele>607.8</ele>
        <time>2022-02-12T09:45:32Z</time>
      </trkpt>
      <trkpt lat="43.07021" lon="-0.07557">
        <ele>607.4</ele>
        <time>2022-02-12T09:45:33Z</time>
      </trkpt>
      <trkpt lat="43.0702" lon="-0.07555">
        <ele>607.4</ele>
        <time>2022-02-12T09:45:34Z</time>
      </trkpt>
      <trkpt lat="43.07019" lon="-0.07552">
        <ele>607</ele>
        <time>2022-02-12T09:45:35Z</time>
      </trkpt>
      <trkpt lat="43.07017" lon="-0.07549">
        <ele>606.8</ele>
        <time>2022-02-12T09:45:36Z</time>
      </trkpt>
      <trkpt lat="43.07014" lon="-0.07546">
        <ele>606.6</ele>
        <time>2022-02-12T09:45:37Z</time>
      </trkpt>
      <trkpt lat="43.07012" lon="-0.07543">
        <ele>606.4</ele>
        <time>2022-02-12T09:45:38Z</time>
      </trkpt>
      <trkpt lat="43.0701" lon="-0.07539">
        <ele>606.2</ele>
        <time>2022-02-12T09:45:39Z</time>
      </trkpt>
      <trkpt lat="43.07007" lon="-0.07536">
        <ele>605.8</ele>
        <time>2022-02-12T09:45:40Z</time>
      </trkpt>
      <trkpt lat="43.07004" lon="-0.07532">
        <ele>605.8</ele>
        <time>2022-02-12T09:45:41Z</time>
      </trkpt>
      <trkpt lat="43.07001" lon="-0.07528">
        <ele>605.4</ele>
        <time>2022-02-12T09:45:42Z</time>
      </trkpt>
      <trkpt lat="43.06998" lon="-0.07525">
        <ele>605.4</ele>
        <time>2022-02-12T09:45:43Z</time>
      </trkpt>
      <trkpt lat="43.06995" lon="-0.07522">
        <ele>605.2</ele>
        <time>2022-02-12T09:45:44Z</time>
      </trkpt>
      <trkpt lat="43.06992" lon="-0.07518">
        <ele>605</ele>
        <time>2022-02-12T09:45:45Z</time>
      </trkpt>
      <trkpt lat="43.06988" lon="-0.07515">
        <ele>605</ele>
        <time>2022-02-12T09:45:46Z</time>
      </trkpt>
      <trkpt lat="43.06985" lon="-0.07511">
        <ele>604.8</ele>
        <time>2022-02-12T09:45:47Z</time>
      </trkpt>
      <trkpt lat="43.06981" lon="-0.07508">
        <ele>604.8</ele>
        <time>2022-02-12T09:45:48Z</time>
      </trkpt>
      <trkpt lat="43.06978" lon="-0.07504">
        <ele>604.6</ele>
        <time>2022-02-12T09:45:49Z</time>
      </trkpt>
      <trkpt lat="43.06974" lon="-0.075">
        <ele>604.4</ele>
        <time>2022-02-12T09:45:50Z</time>
      </trkpt>
      <trkpt lat="43.06971" lon="-0.07497">
        <ele>604.2</ele>
        <time>2022-02-12T09:45:51Z</time>
      </trkpt>
      <trkpt lat="43.06967" lon="-0.07493">
        <ele>604</ele>
        <time>2022-02-12T09:45:52Z</time>
      </trkpt>
      <trkpt lat="43.06964" lon="-0.07489">
        <ele>604</ele>
        <time>2022-02-12T09:45:53Z</time>
      </trkpt>
      <trkpt lat="43.06961" lon="-0.07485">
        <ele>603.8</ele>
        <time>2022-02-12T09:45:54Z</time>
      </trkpt>
      <trkpt lat="43.06957" lon="-0.07481">
        <ele>603.6</ele>
        <time>2022-02-12T09:45:55Z</time>
      </trkpt>
      <trkpt lat="43.06953" lon="-0.07477">
        <ele>603.4</ele>
        <time>2022-02-12T09:45:56Z</time>
      </trkpt>
      <trkpt lat="43.0695" lon="-0.07473">
        <ele>603.4</ele>
        <time>2022-02-12T09:45:57Z</time>
      </trkpt>
      <trkpt lat="43.06946" lon="-0.07469">
        <ele>603.2</ele>
        <time>2022-02-12T09:45:58Z</time>
      </trkpt>
      <trkpt lat="43.06943" lon="-0.07466">
        <ele>603.2</ele>
        <time>2022-02-12T09:45:59Z</time>
      </trkpt>
      <trkpt lat="43.06939" lon="-0.07462">
        <ele>603</ele>
        <time>2022-02-12T09:46:00Z</time>
      </trkpt>
      <trkpt lat="43.06936" lon="-0.07459">
        <ele>603</ele>
        <time>2022-02-12T09:46:01Z</time>
      </trkpt>
      <trkpt lat="43.06932" lon="-0.07456">
        <ele>603</ele>
        <time>2022-02-12T09:46:02Z</time>
      </trkpt>
      <trkpt lat="43.06929" lon="-0.07453">
        <ele>603</ele>
        <time>2022-02-12T09:46:03Z</time>
      </trkpt>
      <trkpt lat="43.06927" lon="-0.07451">
        <ele>602.8</ele>
        <time>2022-02-12T09:46:04Z</time>
      </trkpt>
      <trkpt lat="43.06926" lon="-0.07449">
        <ele>602.6</ele>
        <time>2022-02-12T09:46:05Z</time>
      </trkpt>
      <trkpt lat="43.06925" lon="-0.07446">
        <ele>602.6</ele>
        <time>2022-02-12T09:46:06Z</time>
      </trkpt>
      <trkpt lat="43.06925" lon="-0.07444">
        <ele>602.4</ele>
        <time>2022-02-12T09:46:07Z</time>
      </trkpt>
      <trkpt lat="43.06924" lon="-0.07441">
        <ele>602.4</ele>
        <time>2022-02-12T09:46:08Z</time>
      </trkpt>
      <trkpt lat="43.06925" lon="-0.07438">
        <ele>602.2</ele>
        <time>2022-02-12T09:46:09Z</time>
      </trkpt>
      <trkpt lat="43.06925" lon="-0.07434">
        <ele>602.2</ele>
        <time>2022-02-12T09:46:10Z</time>
      </trkpt>
      <trkpt lat="43.06926" lon="-0.0743">
        <ele>602</ele>
        <time>2022-02-12T09:46:11Z</time>
      </trkpt>
      <trkpt lat="43.06926" lon="-0.07425">
        <ele>602</ele>
        <time>2022-02-12T09:46:12Z</time>
      </trkpt>
      <trkpt lat="43.06927" lon="-0.0742">
        <ele>601.6</ele>
        <time>2022-02-12T09:46:13Z</time>
      </trkpt>
      <trkpt lat="43.06928" lon="-0.07416">
        <ele>601.4</ele>
        <time>2022-02-12T09:46:14Z</time>
      </trkpt>
      <trkpt lat="43.0693" lon="-0.07413">
        <ele>600.8</ele>
        <time>2022-02-12T09:46:15Z</time>
      </trkpt>
      <trkpt lat="43.06932" lon="-0.0741">
        <ele>600.4</ele>
        <time>2022-02-12T09:46:16Z</time>
      </trkpt>
      <trkpt lat="43.06934" lon="-0.07407">
        <ele>599.6</ele>
        <time>2022-02-12T09:46:17Z</time>
      </trkpt>
      <trkpt lat="43.06936" lon="-0.07405">
        <ele>599</ele>
        <time>2022-02-12T09:46:18Z</time>
      </trkpt>
      <trkpt lat="43.06938" lon="-0.07403">
        <ele>598</ele>
        <time>2022-02-12T09:46:19Z</time>
      </trkpt>
      <trkpt lat="43.0694" lon="-0.074">
        <ele>597.4</ele>
        <time>2022-02-12T09:46:20Z</time>
      </trkpt>
      <trkpt lat="43.06942" lon="-0.07397">
        <ele>596.8</ele>
        <time>2022-02-12T09:46:21Z</time>
      </trkpt>
      <trkpt lat="43.06943" lon="-0.07395">
        <ele>596.4</ele>
        <time>2022-02-12T09:46:22Z</time>
      </trkpt>
      <trkpt lat="43.06945" lon="-0.0739">
        <ele>595.8</ele>
        <time>2022-02-12T09:46:23Z</time>
      </trkpt>
      <trkpt lat="43.06947" lon="-0.07386">
        <ele>595.2</ele>
        <time>2022-02-12T09:46:24Z</time>
      </trkpt>
      <trkpt lat="43.06949" lon="-0.07381">
        <ele>594.6</ele>
        <time>2022-02-12T09:46:25Z</time>
      </trkpt>
      <trkpt lat="43.06952" lon="-0.07373">
        <ele>594.2</ele>
        <time>2022-02-12T09:46:26Z</time>
      </trkpt>
      <trkpt lat="43.06954" lon="-0.07368">
        <ele>593.8</ele>
        <time>2022-02-12T09:46:27Z</time>
      </trkpt>
      <trkpt lat="43.06956" lon="-0.07361">
        <ele>593</ele>
        <time>2022-02-12T09:46:28Z</time>
      </trkpt>
      <trkpt lat="43.06959" lon="-0.07353">
        <ele>592.2</ele>
        <time>2022-02-12T09:46:29Z</time>
      </trkpt>
      <trkpt lat="43.06962" lon="-0.07345">
        <ele>591.8</ele>
        <time>2022-02-12T09:46:30Z</time>
      </trkpt>
      <trkpt lat="43.06965" lon="-0.07337">
        <ele>591.2</ele>
        <time>2022-02-12T09:46:31Z</time>
      </trkpt>
      <trkpt lat="43.06967" lon="-0.07331">
        <ele>590.6</ele>
        <time>2022-02-12T09:46:32Z</time>
      </trkpt>
      <trkpt lat="43.06969" lon="-0.07324">
        <ele>589.6</ele>
        <time>2022-02-12T09:46:33Z</time>
      </trkpt>
      <trkpt lat="43.0697" lon="-0.07318">
        <ele>588</ele>
        <time>2022-02-12T09:46:34Z</time>
      </trkpt>
      <trkpt lat="43.06971" lon="-0.07313">
        <ele>587.4</ele>
        <time>2022-02-12T09:46:35Z</time>
      </trkpt>
      <trkpt lat="43.06971" lon="-0.07307">
        <ele>586.4</ele>
        <time>2022-02-12T09:46:36Z</time>
      </trkpt>
      <trkpt lat="43.06971" lon="-0.07302">
        <ele>585.8</ele>
        <time>2022-02-12T09:46:37Z</time>
      </trkpt>
      <trkpt lat="43.06971" lon="-0.07297">
        <ele>585</ele>
        <time>2022-02-12T09:46:38Z</time>
      </trkpt>
      <trkpt lat="43.0697" lon="-0.07291">
        <ele>584.4</ele>
        <time>2022-02-12T09:46:39Z</time>
      </trkpt>
      <trkpt lat="43.06968" lon="-0.07283">
        <ele>583.8</ele>
        <time>2022-02-12T09:46:40Z</time>
      </trkpt>
      <trkpt lat="43.06966" lon="-0.07276">
        <ele>583.6</ele>
        <time>2022-02-12T09:46:41Z</time>
      </trkpt>
      <trkpt lat="43.06964" lon="-0.07268">
        <ele>583</ele>
        <time>2022-02-12T09:46:42Z</time>
      </trkpt>
      <trkpt lat="43.06962" lon="-0.07261">
        <ele>582.6</ele>
        <time>2022-02-12T09:46:43Z</time>
      </trkpt>
      <trkpt lat="43.06961" lon="-0.07254">
        <ele>581.8</ele>
        <time>2022-02-12T09:46:44Z</time>
      </trkpt>
      <trkpt lat="43.06961" lon="-0.07246">
        <ele>581.2</ele>
        <time>2022-02-12T09:46:45Z</time>
      </trkpt>
      <trkpt lat="43.06961" lon="-0.0724">
        <ele>579.6</ele>
        <time>2022-02-12T09:46:46Z</time>
      </trkpt>
      <trkpt lat="43.0696" lon="-0.07234">
        <ele>579</ele>
        <time>2022-02-12T09:46:47Z</time>
      </trkpt>
      <trkpt lat="43.0696" lon="-0.07228">
        <ele>578</ele>
        <time>2022-02-12T09:46:48Z</time>
      </trkpt>
      <trkpt lat="43.06961" lon="-0.07223">
        <ele>577.6</ele>
        <time>2022-02-12T09:46:49Z</time>
      </trkpt>
      <trkpt lat="43.06961" lon="-0.07218">
        <ele>576.6</ele>
        <time>2022-02-12T09:46:50Z</time>
      </trkpt>
      <trkpt lat="43.0696" lon="-0.07213">
        <ele>575.8</ele>
        <time>2022-02-12T09:46:51Z</time>
      </trkpt>
      <trkpt lat="43.0696" lon="-0.07209">
        <ele>574</ele>
        <time>2022-02-12T09:46:52Z</time>
      </trkpt>
      <trkpt lat="43.06959" lon="-0.07205">
        <ele>573.4</ele>
        <time>2022-02-12T09:46:53Z</time>
      </trkpt>
      <trkpt lat="43.06959" lon="-0.072">
        <ele>572.2</ele>
        <time>2022-02-12T09:46:54Z</time>
      </trkpt>
      <trkpt lat="43.0696" lon="-0.07194">
        <ele>571.8</ele>
        <time>2022-02-12T09:46:55Z</time>
      </trkpt>
      <trkpt lat="43.06962" lon="-0.07188">
        <ele>571</ele>
        <time>2022-02-12T09:46:56Z</time>
      </trkpt>
      <trkpt lat="43.06964" lon="-0.0718">
        <ele>570.2</ele>
        <time>2022-02-12T09:46:57Z</time>
      </trkpt>
      <trkpt lat="43.06967" lon="-0.07172">
        <ele>569</ele>
        <time>2022-02-12T09:46:58Z</time>
      </trkpt>
      <trkpt lat="43.06968" lon="-0.07163">
        <ele>568.6</ele>
        <time>2022-02-12T09:46:59Z</time>
      </trkpt>
      <trkpt lat="43.06969" lon="-0.07153">
        <ele>567.8</ele>
        <time>2022-02-12T09:47:00Z</time>
      </trkpt>
      <trkpt lat="43.06969" lon="-0.07144">
        <ele>567.4</ele>
        <time>2022-02-12T09:47:01Z</time>
      </trkpt>
      <trkpt lat="43.06968" lon="-0.07135">
        <ele>566.2</ele>
        <time>2022-02-12T09:47:02Z</time>
      </trkpt>
      <trkpt lat="43.06968" lon="-0.07125">
        <ele>564.6</ele>
        <time>2022-02-12T09:47:03Z</time>
      </trkpt>
      <trkpt lat="43.06967" lon="-0.07116">
        <ele>563.6</ele>
        <time>2022-02-12T09:47:04Z</time>
      </trkpt>
      <trkpt lat="43.06965" lon="-0.07108">
        <ele>562.2</ele>
        <time>2022-02-12T09:47:05Z</time>
      </trkpt>
      <trkpt lat="43.06962" lon="-0.07099">
        <ele>561.8</ele>
        <time>2022-02-12T09:47:06Z</time>
      </trkpt>
      <trkpt lat="43.06959" lon="-0.07091">
        <ele>560.4</ele>
        <time>2022-02-12T09:47:07Z</time>
      </trkpt>
      <trkpt lat="43.06957" lon="-0.07082">
        <ele>560</ele>
        <time>2022-02-12T09:47:08Z</time>
      </trkpt>
      <trkpt lat="43.06956" lon="-0.07073">
        <ele>559.2</ele>
        <time>2022-02-12T09:47:09Z</time>
      </trkpt>
      <trkpt lat="43.06955" lon="-0.07064">
        <ele>558.8</ele>
        <time>2022-02-12T09:47:10Z</time>
      </trkpt>
      <trkpt lat="43.06954" lon="-0.07055">
        <ele>557.8</ele>
        <time>2022-02-12T09:47:11Z</time>
      </trkpt>
      <trkpt lat="43.06954" lon="-0.07045">
        <ele>557.4</ele>
        <time>2022-02-12T09:47:12Z</time>
      </trkpt>
      <trkpt lat="43.06953" lon="-0.07034">
        <ele>556.2</ele>
        <time>2022-02-12T09:47:13Z</time>
      </trkpt>
      <trkpt lat="43.06952" lon="-0.07024">
        <ele>555.8</ele>
        <time>2022-02-12T09:47:14Z</time>
      </trkpt>
      <trkpt lat="43.0695" lon="-0.07014">
        <ele>554.8</ele>
        <time>2022-02-12T09:47:15Z</time>
      </trkpt>
      <trkpt lat="43.06949" lon="-0.07004">
        <ele>554.4</ele>
        <time>2022-02-12T09:47:16Z</time>
      </trkpt>
      <trkpt lat="43.06946" lon="-0.06995">
        <ele>553.8</ele>
        <time>2022-02-12T09:47:17Z</time>
      </trkpt>
      <trkpt lat="43.06944" lon="-0.06986">
        <ele>553.4</ele>
        <time>2022-02-12T09:47:18Z</time>
      </trkpt>
      <trkpt lat="43.0694" lon="-0.06977">
        <ele>552.6</ele>
        <time>2022-02-12T09:47:19Z</time>
      </trkpt>
      <trkpt lat="43.06937" lon="-0.0697">
        <ele>552.4</ele>
        <time>2022-02-12T09:47:20Z</time>
      </trkpt>
      <trkpt lat="43.06933" lon="-0.06964">
        <ele>552</ele>
        <time>2022-02-12T09:47:21Z</time>
      </trkpt>
      <trkpt lat="43.0693" lon="-0.06959">
        <ele>551.6</ele>
        <time>2022-02-12T09:47:22Z</time>
      </trkpt>
      <trkpt lat="43.06927" lon="-0.06955">
        <ele>551.2</ele>
        <time>2022-02-12T09:47:23Z</time>
      </trkpt>
      <trkpt lat="43.06925" lon="-0.06951">
        <ele>551</ele>
        <time>2022-02-12T09:47:24Z</time>
      </trkpt>
      <trkpt lat="43.06923" lon="-0.06947">
        <ele>550.8</ele>
        <time>2022-02-12T09:47:25Z</time>
      </trkpt>
      <trkpt lat="43.06921" lon="-0.06944">
        <ele>550.6</ele>
        <time>2022-02-12T09:47:26Z</time>
      </trkpt>
      <trkpt lat="43.06919" lon="-0.0694">
        <ele>550.6</ele>
        <time>2022-02-12T09:47:27Z</time>
      </trkpt>
      <trkpt lat="43.06917" lon="-0.06936">
        <ele>550.6</ele>
        <time>2022-02-12T09:47:28Z</time>
      </trkpt>
      <trkpt lat="43.06915" lon="-0.06932">
        <ele>550.6</ele>
        <time>2022-02-12T09:47:29Z</time>
      </trkpt>
      <trkpt lat="43.06914" lon="-0.06927">
        <ele>550.6</ele>
        <time>2022-02-12T09:47:30Z</time>
      </trkpt>
      <trkpt lat="43.06913" lon="-0.06921">
        <ele>550.4</ele>
        <time>2022-02-12T09:47:31Z</time>
      </trkpt>
      <trkpt lat="43.06912" lon="-0.06914">
        <ele>550.4</ele>
        <time>2022-02-12T09:47:32Z</time>
      </trkpt>
      <trkpt lat="43.06911" lon="-0.06908">
        <ele>550.4</ele>
        <time>2022-02-12T09:47:33Z</time>
      </trkpt>
      <trkpt lat="43.06911" lon="-0.06902">
        <ele>550.4</ele>
        <time>2022-02-12T09:47:34Z</time>
      </trkpt>
      <trkpt lat="43.06911" lon="-0.06896">
        <ele>550.4</ele>
        <time>2022-02-12T09:47:35Z</time>
      </trkpt>
      <trkpt lat="43.06911" lon="-0.06891">
        <ele>550.6</ele>
        <time>2022-02-12T09:47:36Z</time>
      </trkpt>
      <trkpt lat="43.06911" lon="-0.06885">
        <ele>550.6</ele>
        <time>2022-02-12T09:47:37Z</time>
      </trkpt>
      <trkpt lat="43.06912" lon="-0.06879">
        <ele>550.6</ele>
        <time>2022-02-12T09:47:38Z</time>
      </trkpt>
      <trkpt lat="43.06913" lon="-0.06873">
        <ele>550.6</ele>
        <time>2022-02-12T09:47:39Z</time>
      </trkpt>
      <trkpt lat="43.06914" lon="-0.06868">
        <ele>550.6</ele>
        <time>2022-02-12T09:47:40Z</time>
      </trkpt>
      <trkpt lat="43.06915" lon="-0.06863">
        <ele>550.6</ele>
        <time>2022-02-12T09:47:41Z</time>
      </trkpt>
      <trkpt lat="43.06915" lon="-0.06857">
        <ele>550.8</ele>
        <time>2022-02-12T09:47:42Z</time>
      </trkpt>
      <trkpt lat="43.06915" lon="-0.06852">
        <ele>550.8</ele>
        <time>2022-02-12T09:47:43Z</time>
      </trkpt>
      <trkpt lat="43.06916" lon="-0.06846">
        <ele>550.8</ele>
        <time>2022-02-12T09:47:44Z</time>
      </trkpt>
      <trkpt lat="43.06917" lon="-0.0684">
        <ele>550.8</ele>
        <time>2022-02-12T09:47:45Z</time>
      </trkpt>
      <trkpt lat="43.06918" lon="-0.06835">
        <ele>550.8</ele>
        <time>2022-02-12T09:47:46Z</time>
      </trkpt>
      <trkpt lat="43.06919" lon="-0.06829">
        <ele>550.8</ele>
        <time>2022-02-12T09:47:47Z</time>
      </trkpt>
      <trkpt lat="43.0692" lon="-0.06824">
        <ele>551</ele>
        <time>2022-02-12T09:47:48Z</time>
      </trkpt>
      <trkpt lat="43.06922" lon="-0.06818">
        <ele>551</ele>
        <time>2022-02-12T09:47:49Z</time>
      </trkpt>
      <trkpt lat="43.06924" lon="-0.06812">
        <ele>551.2</ele>
        <time>2022-02-12T09:47:50Z</time>
      </trkpt>
      <trkpt lat="43.06925" lon="-0.06806">
        <ele>551.2</ele>
        <time>2022-02-12T09:47:51Z</time>
      </trkpt>
      <trkpt lat="43.06927" lon="-0.068">
        <ele>551.4</ele>
        <time>2022-02-12T09:47:52Z</time>
      </trkpt>
      <trkpt lat="43.06928" lon="-0.06795">
        <ele>551.4</ele>
        <time>2022-02-12T09:47:53Z</time>
      </trkpt>
      <trkpt lat="43.0693" lon="-0.06789">
        <ele>551.4</ele>
        <time>2022-02-12T09:47:54Z</time>
      </trkpt>
      <trkpt lat="43.06931" lon="-0.06784">
        <ele>551.6</ele>
        <time>2022-02-12T09:47:55Z</time>
      </trkpt>
      <trkpt lat="43.06933" lon="-0.06779">
        <ele>551.6</ele>
        <time>2022-02-12T09:47:56Z</time>
      </trkpt>
      <trkpt lat="43.06933" lon="-0.06775">
        <ele>551.6</ele>
        <time>2022-02-12T09:47:57Z</time>
      </trkpt>
      <trkpt lat="43.06935" lon="-0.06771">
        <ele>551.8</ele>
        <time>2022-02-12T09:47:58Z</time>
      </trkpt>
      <trkpt lat="43.06936" lon="-0.06766">
        <ele>551.8</ele>
        <time>2022-02-12T09:47:59Z</time>
      </trkpt>
      <trkpt lat="43.06937" lon="-0.06762">
        <ele>551.8</ele>
        <time>2022-02-12T09:48:00Z</time>
      </trkpt>
      <trkpt lat="43.06938" lon="-0.06759">
        <ele>552</ele>
        <time>2022-02-12T09:48:01Z</time>
      </trkpt>
      <trkpt lat="43.06939" lon="-0.06755">
        <ele>552.2</ele>
        <time>2022-02-12T09:48:02Z</time>
      </trkpt>
      <trkpt lat="43.0694" lon="-0.06751">
        <ele>552.6</ele>
        <time>2022-02-12T09:48:03Z</time>
      </trkpt>
      <trkpt lat="43.06941" lon="-0.06747">
        <ele>552.6</ele>
        <time>2022-02-12T09:48:04Z</time>
      </trkpt>
      <trkpt lat="43.06942" lon="-0.06744">
        <ele>553</ele>
        <time>2022-02-12T09:48:05Z</time>
      </trkpt>
      <trkpt lat="43.06943" lon="-0.0674">
        <ele>553.2</ele>
        <time>2022-02-12T09:48:06Z</time>
      </trkpt>
      <trkpt lat="43.06944" lon="-0.06737">
        <ele>553.8</ele>
        <time>2022-02-12T09:48:07Z</time>
      </trkpt>
      <trkpt lat="43.06945" lon="-0.06734">
        <ele>554</ele>
        <time>2022-02-12T09:48:08Z</time>
      </trkpt>
      <trkpt lat="43.06946" lon="-0.06731">
        <ele>554.4</ele>
        <time>2022-02-12T09:48:09Z</time>
      </trkpt>
      <trkpt lat="43.06947" lon="-0.06728">
        <ele>554.8</ele>
        <time>2022-02-12T09:48:10Z</time>
      </trkpt>
      <trkpt lat="43.06948" lon="-0.06725">
        <ele>555.2</ele>
        <time>2022-02-12T09:48:11Z</time>
      </trkpt>
      <trkpt lat="43.06949" lon="-0.06722">
        <ele>555.4</ele>
        <time>2022-02-12T09:48:12Z</time>
      </trkpt>
      <trkpt lat="43.0695" lon="-0.0672">
        <ele>555.8</ele>
        <time>2022-02-12T09:48:13Z</time>
      </trkpt>
      <trkpt lat="43.0695" lon="-0.06717">
        <ele>556</ele>
        <time>2022-02-12T09:48:14Z</time>
      </trkpt>
      <trkpt lat="43.06952" lon="-0.06715">
        <ele>556.4</ele>
        <time>2022-02-12T09:48:15Z</time>
      </trkpt>
      <trkpt lat="43.06953" lon="-0.06713">
        <ele>556.6</ele>
        <time>2022-02-12T09:48:16Z</time>
      </trkpt>
      <trkpt lat="43.06955" lon="-0.0671">
        <ele>556.8</ele>
        <time>2022-02-12T09:48:17Z</time>
      </trkpt>
      <trkpt lat="43.06957" lon="-0.06708">
        <ele>557</ele>
        <time>2022-02-12T09:48:18Z</time>
      </trkpt>
      <trkpt lat="43.06959" lon="-0.06707">
        <ele>557.2</ele>
        <time>2022-02-12T09:48:19Z</time>
      </trkpt>
      <trkpt lat="43.06961" lon="-0.06706">
        <ele>557.2</ele>
        <time>2022-02-12T09:48:20Z</time>
      </trkpt>
      <trkpt lat="43.06963" lon="-0.06705">
        <ele>557.4</ele>
        <time>2022-02-12T09:48:21Z</time>
      </trkpt>
      <trkpt lat="43.06965" lon="-0.06704">
        <ele>557.4</ele>
        <time>2022-02-12T09:48:22Z</time>
      </trkpt>
      <trkpt lat="43.06968" lon="-0.06703">
        <ele>557.6</ele>
        <time>2022-02-12T09:48:23Z</time>
      </trkpt>
      <trkpt lat="43.0697" lon="-0.06703">
        <ele>557.6</ele>
        <time>2022-02-12T09:48:24Z</time>
      </trkpt>
      <trkpt lat="43.06973" lon="-0.06702">
        <ele>557.8</ele>
        <time>2022-02-12T09:48:25Z</time>
      </trkpt>
      <trkpt lat="43.06976" lon="-0.06702">
        <ele>557.8</ele>
        <time>2022-02-12T09:48:26Z</time>
      </trkpt>
      <trkpt lat="43.06979" lon="-0.06701">
        <ele>558</ele>
        <time>2022-02-12T09:48:27Z</time>
      </trkpt>
      <trkpt lat="43.06982" lon="-0.067">
        <ele>558</ele>
        <time>2022-02-12T09:48:28Z</time>
      </trkpt>
      <trkpt lat="43.06985" lon="-0.06699">
        <ele>558</ele>
        <time>2022-02-12T09:48:29Z</time>
      </trkpt>
      <trkpt lat="43.06988" lon="-0.06698">
        <ele>558</ele>
        <time>2022-02-12T09:48:30Z</time>
      </trkpt>
      <trkpt lat="43.06991" lon="-0.06696">
        <ele>558</ele>
        <time>2022-02-12T09:48:31Z</time>
      </trkpt>
      <trkpt lat="43.06993" lon="-0.06695">
        <ele>558</ele>
        <time>2022-02-12T09:48:32Z</time>
      </trkpt>
      <trkpt lat="43.06994" lon="-0.06694">
        <ele>558</ele>
        <time>2022-02-12T09:48:33Z</time>
      </trkpt>
      <trkpt lat="43.06997" lon="-0.06692">
        <ele>558</ele>
        <time>2022-02-12T09:48:34Z</time>
      </trkpt>
      <trkpt lat="43.06999" lon="-0.06691">
        <ele>558</ele>
        <time>2022-02-12T09:48:35Z</time>
      </trkpt>
      <trkpt lat="43.07" lon="-0.06688">
        <ele>558</ele>
        <time>2022-02-12T09:48:36Z</time>
      </trkpt>
      <trkpt lat="43.07" lon="-0.06684">
        <ele>558</ele>
        <time>2022-02-12T09:48:37Z</time>
      </trkpt>
      <trkpt lat="43.07" lon="-0.06681">
        <ele>558</ele>
        <time>2022-02-12T09:48:38Z</time>
      </trkpt>
      <trkpt lat="43.07" lon="-0.06676">
        <ele>558</ele>
        <time>2022-02-12T09:48:39Z</time>
      </trkpt>
      <trkpt lat="43.07" lon="-0.06672">
        <ele>558</ele>
        <time>2022-02-12T09:48:40Z</time>
      </trkpt>
      <trkpt lat="43.06999" lon="-0.06667">
        <ele>558</ele>
        <time>2022-02-12T09:48:41Z</time>
      </trkpt>
      <trkpt lat="43.06998" lon="-0.06661">
        <ele>557.8</ele>
        <time>2022-02-12T09:48:42Z</time>
      </trkpt>
      <trkpt lat="43.06998" lon="-0.06656">
        <ele>557.8</ele>
        <time>2022-02-12T09:48:43Z</time>
      </trkpt>
      <trkpt lat="43.06999" lon="-0.0665">
        <ele>557.8</ele>
        <time>2022-02-12T09:48:44Z</time>
      </trkpt>
      <trkpt lat="43.06999" lon="-0.06645">
        <ele>557.8</ele>
        <time>2022-02-12T09:48:45Z</time>
      </trkpt>
      <trkpt lat="43.07001" lon="-0.0664">
        <ele>557.6</ele>
        <time>2022-02-12T09:48:46Z</time>
      </trkpt>
      <trkpt lat="43.07001" lon="-0.06635">
        <ele>557.6</ele>
        <time>2022-02-12T09:48:47Z</time>
      </trkpt>
      <trkpt lat="43.07002" lon="-0.06631">
        <ele>557.4</ele>
        <time>2022-02-12T09:48:48Z</time>
      </trkpt>
      <trkpt lat="43.07003" lon="-0.06626">
        <ele>557.4</ele>
        <time>2022-02-12T09:48:49Z</time>
      </trkpt>
      <trkpt lat="43.07004" lon="-0.0662">
        <ele>557.2</ele>
        <time>2022-02-12T09:48:50Z</time>
      </trkpt>
      <trkpt lat="43.07005" lon="-0.06616">
        <ele>557.2</ele>
        <time>2022-02-12T09:48:51Z</time>
      </trkpt>
      <trkpt lat="43.07006" lon="-0.06612">
        <ele>556.8</ele>
        <time>2022-02-12T09:48:52Z</time>
      </trkpt>
      <trkpt lat="43.07006" lon="-0.06608">
        <ele>556.6</ele>
        <time>2022-02-12T09:48:53Z</time>
      </trkpt>
      <trkpt lat="43.07005" lon="-0.06604">
        <ele>556.6</ele>
        <time>2022-02-12T09:48:54Z</time>
      </trkpt>
      <trkpt lat="43.07004" lon="-0.06599">
        <ele>556.4</ele>
        <time>2022-02-12T09:48:55Z</time>
      </trkpt>
      <trkpt lat="43.07003" lon="-0.06594">
        <ele>555.8</ele>
        <time>2022-02-12T09:48:56Z</time>
      </trkpt>
      <trkpt lat="43.07002" lon="-0.06589">
        <ele>555.6</ele>
        <time>2022-02-12T09:48:57Z</time>
      </trkpt>
      <trkpt lat="43.07001" lon="-0.06584">
        <ele>555.2</ele>
        <time>2022-02-12T09:48:58Z</time>
      </trkpt>
      <trkpt lat="43.07" lon="-0.0658">
        <ele>554.4</ele>
        <time>2022-02-12T09:48:59Z</time>
      </trkpt>
      <trkpt lat="43.07" lon="-0.06577">
        <ele>554.2</ele>
        <time>2022-02-12T09:49:00Z</time>
      </trkpt>
      <trkpt lat="43.07001" lon="-0.06573">
        <ele>553.4</ele>
        <time>2022-02-12T09:49:01Z</time>
      </trkpt>
      <trkpt lat="43.07004" lon="-0.0657">
        <ele>553</ele>
        <time>2022-02-12T09:49:02Z</time>
      </trkpt>
      <trkpt lat="43.07006" lon="-0.06566">
        <ele>552.2</ele>
        <time>2022-02-12T09:49:03Z</time>
      </trkpt>
      <trkpt lat="43.07009" lon="-0.06561">
        <ele>552</ele>
        <time>2022-02-12T09:49:04Z</time>
      </trkpt>
      <trkpt lat="43.07012" lon="-0.06556">
        <ele>551.6</ele>
        <time>2022-02-12T09:49:05Z</time>
      </trkpt>
      <trkpt lat="43.07014" lon="-0.06552">
        <ele>551.2</ele>
        <time>2022-02-12T09:49:06Z</time>
      </trkpt>
      <trkpt lat="43.07016" lon="-0.06548">
        <ele>550.8</ele>
        <time>2022-02-12T09:49:07Z</time>
      </trkpt>
      <trkpt lat="43.07018" lon="-0.06545">
        <ele>550.4</ele>
        <time>2022-02-12T09:49:08Z</time>
      </trkpt>
      <trkpt lat="43.0702" lon="-0.06543">
        <ele>549.8</ele>
        <time>2022-02-12T09:49:09Z</time>
      </trkpt>
      <trkpt lat="43.07022" lon="-0.06542">
        <ele>549.4</ele>
        <time>2022-02-12T09:49:10Z</time>
      </trkpt>
      <trkpt lat="43.07025" lon="-0.06541">
        <ele>548.6</ele>
        <time>2022-02-12T09:49:11Z</time>
      </trkpt>
      <trkpt lat="43.07028" lon="-0.06539">
        <ele>548.4</ele>
        <time>2022-02-12T09:49:12Z</time>
      </trkpt>
      <trkpt lat="43.07033" lon="-0.06537">
        <ele>548</ele>
        <time>2022-02-12T09:49:13Z</time>
      </trkpt>
      <trkpt lat="43.07038" lon="-0.06534">
        <ele>547.8</ele>
        <time>2022-02-12T09:49:14Z</time>
      </trkpt>
      <trkpt lat="43.07043" lon="-0.0653">
        <ele>547.4</ele>
        <time>2022-02-12T09:49:15Z</time>
      </trkpt>
      <trkpt lat="43.07049" lon="-0.06525">
        <ele>547.2</ele>
        <time>2022-02-12T09:49:16Z</time>
      </trkpt>
      <trkpt lat="43.07055" lon="-0.06519">
        <ele>546.6</ele>
        <time>2022-02-12T09:49:17Z</time>
      </trkpt>
      <trkpt lat="43.07062" lon="-0.06512">
        <ele>546.4</ele>
        <time>2022-02-12T09:49:18Z</time>
      </trkpt>
      <trkpt lat="43.07069" lon="-0.06505">
        <ele>545.6</ele>
        <time>2022-02-12T09:49:19Z</time>
      </trkpt>
      <trkpt lat="43.07076" lon="-0.06498">
        <ele>545.2</ele>
        <time>2022-02-12T09:49:20Z</time>
      </trkpt>
      <trkpt lat="43.07084" lon="-0.06491">
        <ele>544.2</ele>
        <time>2022-02-12T09:49:21Z</time>
      </trkpt>
      <trkpt lat="43.07091" lon="-0.06485">
        <ele>543.8</ele>
        <time>2022-02-12T09:49:22Z</time>
      </trkpt>
      <trkpt lat="43.07095" lon="-0.06479">
        <ele>542.8</ele>
        <time>2022-02-12T09:49:23Z</time>
      </trkpt>
      <trkpt lat="43.07098" lon="-0.06476">
        <ele>542.2</ele>
        <time>2022-02-12T09:49:24Z</time>
      </trkpt>
      <trkpt lat="43.071" lon="-0.06472">
        <ele>540.8</ele>
        <time>2022-02-12T09:49:25Z</time>
      </trkpt>
      <trkpt lat="43.07101" lon="-0.06469">
        <ele>540.2</ele>
        <time>2022-02-12T09:49:26Z</time>
      </trkpt>
      <trkpt lat="43.07101" lon="-0.06468">
        <ele>539.4</ele>
        <time>2022-02-12T09:49:27Z</time>
      </trkpt>
      <trkpt lat="43.07103" lon="-0.06466">
        <ele>538.2</ele>
        <time>2022-02-12T09:49:28Z</time>
      </trkpt>
      <trkpt lat="43.07104" lon="-0.06465">
        <ele>538.2</ele>
        <time>2022-02-12T09:49:29Z</time>
      </trkpt>
      <trkpt lat="43.07106" lon="-0.06463">
        <ele>538</ele>
        <time>2022-02-12T09:49:30Z</time>
      </trkpt>
      <trkpt lat="43.07108" lon="-0.06461">
        <ele>537.8</ele>
        <time>2022-02-12T09:49:31Z</time>
      </trkpt>
      <trkpt lat="43.07111" lon="-0.06459">
        <ele>537.8</ele>
        <time>2022-02-12T09:49:32Z</time>
      </trkpt>
      <trkpt lat="43.07114" lon="-0.06457">
        <ele>537.6</ele>
        <time>2022-02-12T09:49:33Z</time>
      </trkpt>
      <trkpt lat="43.07117" lon="-0.06455">
        <ele>537.6</ele>
        <time>2022-02-12T09:49:34Z</time>
      </trkpt>
      <trkpt lat="43.07121" lon="-0.06454">
        <ele>537.6</ele>
        <time>2022-02-12T09:49:35Z</time>
      </trkpt>
      <trkpt lat="43.07126" lon="-0.06453">
        <ele>537.6</ele>
        <time>2022-02-12T09:49:36Z</time>
      </trkpt>
      <trkpt lat="43.07131" lon="-0.06453">
        <ele>537.6</ele>
        <time>2022-02-12T09:49:37Z</time>
      </trkpt>
      <trkpt lat="43.07136" lon="-0.06453">
        <ele>537.4</ele>
        <time>2022-02-12T09:49:38Z</time>
      </trkpt>
      <trkpt lat="43.07141" lon="-0.06454">
        <ele>537.2</ele>
        <time>2022-02-12T09:49:39Z</time>
      </trkpt>
      <trkpt lat="43.07147" lon="-0.06455">
        <ele>537.2</ele>
        <time>2022-02-12T09:49:40Z</time>
      </trkpt>
      <trkpt lat="43.07153" lon="-0.06456">
        <ele>537</ele>
        <time>2022-02-12T09:49:41Z</time>
      </trkpt>
      <trkpt lat="43.07159" lon="-0.06457">
        <ele>536.8</ele>
        <time>2022-02-12T09:49:42Z</time>
      </trkpt>
      <trkpt lat="43.07166" lon="-0.06457">
        <ele>536.4</ele>
        <time>2022-02-12T09:49:43Z</time>
      </trkpt>
      <trkpt lat="43.07173" lon="-0.06457">
        <ele>536.4</ele>
        <time>2022-02-12T09:49:44Z</time>
      </trkpt>
      <trkpt lat="43.07181" lon="-0.06458">
        <ele>536.2</ele>
        <time>2022-02-12T09:49:45Z</time>
      </trkpt>
      <trkpt lat="43.07188" lon="-0.06459">
        <ele>535.8</ele>
        <time>2022-02-12T09:49:46Z</time>
      </trkpt>
      <trkpt lat="43.07196" lon="-0.0646">
        <ele>535.6</ele>
        <time>2022-02-12T09:49:47Z</time>
      </trkpt>
      <trkpt lat="43.07203" lon="-0.06462">
        <ele>535</ele>
        <time>2022-02-12T09:49:48Z</time>
      </trkpt>
      <trkpt lat="43.0721" lon="-0.06465">
        <ele>534.6</ele>
        <time>2022-02-12T09:49:49Z</time>
      </trkpt>
      <trkpt lat="43.07218" lon="-0.06468">
        <ele>533.8</ele>
        <time>2022-02-12T09:49:50Z</time>
      </trkpt>
      <trkpt lat="43.07225" lon="-0.06472">
        <ele>533.4</ele>
        <time>2022-02-12T09:49:51Z</time>
      </trkpt>
      <trkpt lat="43.07233" lon="-0.06476">
        <ele>532.6</ele>
        <time>2022-02-12T09:49:52Z</time>
      </trkpt>
      <trkpt lat="43.07241" lon="-0.0648">
        <ele>532.2</ele>
        <time>2022-02-12T09:49:53Z</time>
      </trkpt>
      <trkpt lat="43.07248" lon="-0.06484">
        <ele>531.4</ele>
        <time>2022-02-12T09:49:54Z</time>
      </trkpt>
      <trkpt lat="43.07255" lon="-0.06487">
        <ele>530.8</ele>
        <time>2022-02-12T09:49:55Z</time>
      </trkpt>
      <trkpt lat="43.07262" lon="-0.06489">
        <ele>529.8</ele>
        <time>2022-02-12T09:49:56Z</time>
      </trkpt>
      <trkpt lat="43.07269" lon="-0.0649">
        <ele>528.8</ele>
        <time>2022-02-12T09:49:57Z</time>
      </trkpt>
      <trkpt lat="43.07274" lon="-0.06489">
        <ele>528.2</ele>
        <time>2022-02-12T09:49:58Z</time>
      </trkpt>
      <trkpt lat="43.07278" lon="-0.06489">
        <ele>527.2</ele>
        <time>2022-02-12T09:49:59Z</time>
      </trkpt>
      <trkpt lat="43.07282" lon="-0.06488">
        <ele>526.6</ele>
        <time>2022-02-12T09:50:00Z</time>
      </trkpt>
      <trkpt lat="43.07284" lon="-0.06486">
        <ele>525.4</ele>
        <time>2022-02-12T09:50:01Z</time>
      </trkpt>
      <trkpt lat="43.07286" lon="-0.06484">
        <ele>524.8</ele>
        <time>2022-02-12T09:50:02Z</time>
      </trkpt>
      <trkpt lat="43.07287" lon="-0.06482">
        <ele>523.8</ele>
        <time>2022-02-12T09:50:03Z</time>
      </trkpt>
      <trkpt lat="43.07289" lon="-0.0648">
        <ele>523.6</ele>
        <time>2022-02-12T09:50:04Z</time>
      </trkpt>
      <trkpt lat="43.0729" lon="-0.06477">
        <ele>523</ele>
        <time>2022-02-12T09:50:05Z</time>
      </trkpt>
      <trkpt lat="43.0729" lon="-0.06474">
        <ele>522.8</ele>
        <time>2022-02-12T09:50:06Z</time>
      </trkpt>
      <trkpt lat="43.0729" lon="-0.06471">
        <ele>522.2</ele>
        <time>2022-02-12T09:50:07Z</time>
      </trkpt>
      <trkpt lat="43.0729" lon="-0.06469">
        <ele>522</ele>
        <time>2022-02-12T09:50:08Z</time>
      </trkpt>
      <trkpt lat="43.0729" lon="-0.06465">
        <ele>521.6</ele>
        <time>2022-02-12T09:50:09Z</time>
      </trkpt>
      <trkpt lat="43.0729" lon="-0.06461">
        <ele>521.6</ele>
        <time>2022-02-12T09:50:10Z</time>
      </trkpt>
      <trkpt lat="43.07289" lon="-0.06457">
        <ele>521.4</ele>
        <time>2022-02-12T09:50:11Z</time>
      </trkpt>
      <trkpt lat="43.07289" lon="-0.06452">
        <ele>521.2</ele>
        <time>2022-02-12T09:50:12Z</time>
      </trkpt>
      <trkpt lat="43.0729" lon="-0.06447">
        <ele>521.2</ele>
        <time>2022-02-12T09:50:13Z</time>
      </trkpt>
      <trkpt lat="43.0729" lon="-0.06443">
        <ele>521.2</ele>
        <time>2022-02-12T09:50:14Z</time>
      </trkpt>
      <trkpt lat="43.07291" lon="-0.06438">
        <ele>521</ele>
        <time>2022-02-12T09:50:15Z</time>
      </trkpt>
      <trkpt lat="43.07292" lon="-0.06434">
        <ele>521</ele>
        <time>2022-02-12T09:50:16Z</time>
      </trkpt>
      <trkpt lat="43.07292" lon="-0.0643">
        <ele>521</ele>
        <time>2022-02-12T09:50:17Z</time>
      </trkpt>
      <trkpt lat="43.07293" lon="-0.06425">
        <ele>521</ele>
        <time>2022-02-12T09:50:18Z</time>
      </trkpt>
      <trkpt lat="43.07293" lon="-0.0642">
        <ele>521</ele>
        <time>2022-02-12T09:50:19Z</time>
      </trkpt>
      <trkpt lat="43.07294" lon="-0.06415">
        <ele>521</ele>
        <time>2022-02-12T09:50:20Z</time>
      </trkpt>
      <trkpt lat="43.07294" lon="-0.06411">
        <ele>521</ele>
        <time>2022-02-12T09:50:21Z</time>
      </trkpt>
      <trkpt lat="43.07295" lon="-0.06407">
        <ele>521</ele>
        <time>2022-02-12T09:50:22Z</time>
      </trkpt>
      <trkpt lat="43.07295" lon="-0.06402">
        <ele>521</ele>
        <time>2022-02-12T09:50:23Z</time>
      </trkpt>
      <trkpt lat="43.07296" lon="-0.06397">
        <ele>521</ele>
        <time>2022-02-12T09:50:24Z</time>
      </trkpt>
      <trkpt lat="43.07296" lon="-0.06392">
        <ele>521</ele>
        <time>2022-02-12T09:50:25Z</time>
      </trkpt>
      <trkpt lat="43.07297" lon="-0.06388">
        <ele>521</ele>
        <time>2022-02-12T09:50:26Z</time>
      </trkpt>
      <trkpt lat="43.07297" lon="-0.06383">
        <ele>521</ele>
        <time>2022-02-12T09:50:27Z</time>
      </trkpt>
      <trkpt lat="43.07298" lon="-0.06379">
        <ele>521</ele>
        <time>2022-02-12T09:50:28Z</time>
      </trkpt>
      <trkpt lat="43.07298" lon="-0.06375">
        <ele>521</ele>
        <time>2022-02-12T09:50:29Z</time>
      </trkpt>
      <trkpt lat="43.07299" lon="-0.0637">
        <ele>521</ele>
        <time>2022-02-12T09:50:30Z</time>
      </trkpt>
      <trkpt lat="43.07299" lon="-0.06367">
        <ele>521</ele>
        <time>2022-02-12T09:50:31Z</time>
      </trkpt>
      <trkpt lat="43.07299" lon="-0.06364">
        <ele>521</ele>
        <time>2022-02-12T09:50:32Z</time>
      </trkpt>
      <trkpt lat="43.07299" lon="-0.06359">
        <ele>520.8</ele>
        <time>2022-02-12T09:50:33Z</time>
      </trkpt>
      <trkpt lat="43.07299" lon="-0.06356">
        <ele>521</ele>
        <time>2022-02-12T09:50:34Z</time>
      </trkpt>
      <trkpt lat="43.073" lon="-0.06352">
        <ele>521</ele>
        <time>2022-02-12T09:50:35Z</time>
      </trkpt>
      <trkpt lat="43.073" lon="-0.06348">
        <ele>521</ele>
        <time>2022-02-12T09:50:36Z</time>
      </trkpt>
      <trkpt lat="43.073" lon="-0.06344">
        <ele>521</ele>
        <time>2022-02-12T09:50:37Z</time>
      </trkpt>
      <trkpt lat="43.073" lon="-0.06341">
        <ele>521</ele>
        <time>2022-02-12T09:50:38Z</time>
      </trkpt>
      <trkpt lat="43.07299" lon="-0.06337">
        <ele>521.2</ele>
        <time>2022-02-12T09:50:39Z</time>
      </trkpt>
      <trkpt lat="43.07299" lon="-0.06332">
        <ele>521.2</ele>
        <time>2022-02-12T09:50:40Z</time>
      </trkpt>
      <trkpt lat="43.07299" lon="-0.06327">
        <ele>521.2</ele>
        <time>2022-02-12T09:50:41Z</time>
      </trkpt>
      <trkpt lat="43.07298" lon="-0.06323">
        <ele>521.2</ele>
        <time>2022-02-12T09:50:42Z</time>
      </trkpt>
      <trkpt lat="43.07297" lon="-0.06317">
        <ele>521.2</ele>
        <time>2022-02-12T09:50:43Z</time>
      </trkpt>
      <trkpt lat="43.07297" lon="-0.06314">
        <ele>521.2</ele>
        <time>2022-02-12T09:50:44Z</time>
      </trkpt>
      <trkpt lat="43.07296" lon="-0.06309">
        <ele>521.2</ele>
        <time>2022-02-12T09:50:45Z</time>
      </trkpt>
      <trkpt lat="43.07296" lon="-0.06304">
        <ele>521.4</ele>
        <time>2022-02-12T09:50:46Z</time>
      </trkpt>
      <trkpt lat="43.07296" lon="-0.06299">
        <ele>521.4</ele>
        <time>2022-02-12T09:50:47Z</time>
      </trkpt>
      <trkpt lat="43.07296" lon="-0.06294">
        <ele>521.2</ele>
        <time>2022-02-12T09:50:48Z</time>
      </trkpt>
      <trkpt lat="43.07296" lon="-0.06289">
        <ele>521.2</ele>
        <time>2022-02-12T09:50:49Z</time>
      </trkpt>
      <trkpt lat="43.07297" lon="-0.06284">
        <ele>521.2</ele>
        <time>2022-02-12T09:50:50Z</time>
      </trkpt>
      <trkpt lat="43.07297" lon="-0.06279">
        <ele>521</ele>
        <time>2022-02-12T09:50:51Z</time>
      </trkpt>
      <trkpt lat="43.07298" lon="-0.06275">
        <ele>520.8</ele>
        <time>2022-02-12T09:50:52Z</time>
      </trkpt>
      <trkpt lat="43.07298" lon="-0.0627">
        <ele>520.8</ele>
        <time>2022-02-12T09:50:53Z</time>
      </trkpt>
      <trkpt lat="43.07299" lon="-0.06266">
        <ele>520.6</ele>
        <time>2022-02-12T09:50:54Z</time>
      </trkpt>
      <trkpt lat="43.073" lon="-0.06261">
        <ele>520.6</ele>
        <time>2022-02-12T09:50:55Z</time>
      </trkpt>
      <trkpt lat="43.07301" lon="-0.06257">
        <ele>520.6</ele>
        <time>2022-02-12T09:50:56Z</time>
      </trkpt>
      <trkpt lat="43.07302" lon="-0.06252">
        <ele>520.4</ele>
        <time>2022-02-12T09:50:57Z</time>
      </trkpt>
      <trkpt lat="43.07303" lon="-0.06247">
        <ele>520.4</ele>
        <time>2022-02-12T09:50:58Z</time>
      </trkpt>
      <trkpt lat="43.07304" lon="-0.06243">
        <ele>520.4</ele>
        <time>2022-02-12T09:50:59Z</time>
      </trkpt>
      <trkpt lat="43.07305" lon="-0.06238">
        <ele>520.4</ele>
        <time>2022-02-12T09:51:00Z</time>
      </trkpt>
      <trkpt lat="43.07306" lon="-0.06234">
        <ele>520.4</ele>
        <time>2022-02-12T09:51:01Z</time>
      </trkpt>
      <trkpt lat="43.07306" lon="-0.06229">
        <ele>520.4</ele>
        <time>2022-02-12T09:51:02Z</time>
      </trkpt>
      <trkpt lat="43.07307" lon="-0.06225">
        <ele>520.4</ele>
        <time>2022-02-12T09:51:03Z</time>
      </trkpt>
      <trkpt lat="43.07307" lon="-0.0622">
        <ele>520.4</ele>
        <time>2022-02-12T09:51:04Z</time>
      </trkpt>
      <trkpt lat="43.07308" lon="-0.06215">
        <ele>520.4</ele>
        <time>2022-02-12T09:51:05Z</time>
      </trkpt>
      <trkpt lat="43.07308" lon="-0.0621">
        <ele>520.4</ele>
        <time>2022-02-12T09:51:06Z</time>
      </trkpt>
      <trkpt lat="43.07309" lon="-0.06205">
        <ele>520.4</ele>
        <time>2022-02-12T09:51:07Z</time>
      </trkpt>
      <trkpt lat="43.07309" lon="-0.062">
        <ele>520.4</ele>
        <time>2022-02-12T09:51:08Z</time>
      </trkpt>
      <trkpt lat="43.0731" lon="-0.06195">
        <ele>520.4</ele>
        <time>2022-02-12T09:51:09Z</time>
      </trkpt>
      <trkpt lat="43.07311" lon="-0.06191">
        <ele>520.6</ele>
        <time>2022-02-12T09:51:10Z</time>
      </trkpt>
      <trkpt lat="43.07312" lon="-0.06186">
        <ele>520.6</ele>
        <time>2022-02-12T09:51:11Z</time>
      </trkpt>
      <trkpt lat="43.07312" lon="-0.06181">
        <ele>520.4</ele>
        <time>2022-02-12T09:51:12Z</time>
      </trkpt>
      <trkpt lat="43.07313" lon="-0.06176">
        <ele>520.4</ele>
        <time>2022-02-12T09:51:13Z</time>
      </trkpt>
      <trkpt lat="43.07313" lon="-0.06171">
        <ele>520.4</ele>
        <time>2022-02-12T09:51:14Z</time>
      </trkpt>
      <trkpt lat="43.07314" lon="-0.06166">
        <ele>520.4</ele>
        <time>2022-02-12T09:51:15Z</time>
      </trkpt>
      <trkpt lat="43.07315" lon="-0.06161">
        <ele>520.4</ele>
        <time>2022-02-12T09:51:16Z</time>
      </trkpt>
      <trkpt lat="43.07316" lon="-0.06156">
        <ele>520.4</ele>
        <time>2022-02-12T09:51:17Z</time>
      </trkpt>
      <trkpt lat="43.07317" lon="-0.06151">
        <ele>520.4</ele>
        <time>2022-02-12T09:51:18Z</time>
      </trkpt>
      <trkpt lat="43.07319" lon="-0.06146">
        <ele>520.4</ele>
        <time>2022-02-12T09:51:19Z</time>
      </trkpt>
      <trkpt lat="43.0732" lon="-0.06141">
        <ele>520.4</ele>
        <time>2022-02-12T09:51:20Z</time>
      </trkpt>
      <trkpt lat="43.07322" lon="-0.06135">
        <ele>520.2</ele>
        <time>2022-02-12T09:51:21Z</time>
      </trkpt>
      <trkpt lat="43.07324" lon="-0.0613">
        <ele>520.2</ele>
        <time>2022-02-12T09:51:22Z</time>
      </trkpt>
      <trkpt lat="43.07325" lon="-0.06125">
        <ele>520.2</ele>
        <time>2022-02-12T09:51:23Z</time>
      </trkpt>
      <trkpt lat="43.07326" lon="-0.06121">
        <ele>520</ele>
        <time>2022-02-12T09:51:24Z</time>
      </trkpt>
      <trkpt lat="43.07327" lon="-0.06119">
        <ele>520</ele>
        <time>2022-02-12T09:51:25Z</time>
      </trkpt>
      <trkpt lat="43.07327" lon="-0.06116">
        <ele>520</ele>
        <time>2022-02-12T09:51:26Z</time>
      </trkpt>
      <trkpt lat="43.07328" lon="-0.06114">
        <ele>520</ele>
        <time>2022-02-12T09:51:27Z</time>
      </trkpt>
      <trkpt lat="43.07328" lon="-0.06111">
        <ele>519.8</ele>
        <time>2022-02-12T09:51:28Z</time>
      </trkpt>
      <trkpt lat="43.07329" lon="-0.06107">
        <ele>519.8</ele>
        <time>2022-02-12T09:51:29Z</time>
      </trkpt>
      <trkpt lat="43.0733" lon="-0.06103">
        <ele>519.6</ele>
        <time>2022-02-12T09:51:30Z</time>
      </trkpt>
      <trkpt lat="43.07332" lon="-0.06098">
        <ele>519.6</ele>
        <time>2022-02-12T09:51:31Z</time>
      </trkpt>
      <trkpt lat="43.07334" lon="-0.06092">
        <ele>519.4</ele>
        <time>2022-02-12T09:51:32Z</time>
      </trkpt>
      <trkpt lat="43.07336" lon="-0.06087">
        <ele>519.4</ele>
        <time>2022-02-12T09:51:33Z</time>
      </trkpt>
      <trkpt lat="43.07337" lon="-0.06084">
        <ele>519.2</ele>
        <time>2022-02-12T09:51:34Z</time>
      </trkpt>
      <trkpt lat="43.07339" lon="-0.0608">
        <ele>519</ele>
        <time>2022-02-12T09:51:35Z</time>
      </trkpt>
      <trkpt lat="43.07341" lon="-0.06076">
        <ele>518.6</ele>
        <time>2022-02-12T09:51:36Z</time>
      </trkpt>
      <trkpt lat="43.07342" lon="-0.06072">
        <ele>518.4</ele>
        <time>2022-02-12T09:51:37Z</time>
      </trkpt>
      <trkpt lat="43.07344" lon="-0.06068">
        <ele>518.2</ele>
        <time>2022-02-12T09:51:38Z</time>
      </trkpt>
      <trkpt lat="43.07347" lon="-0.06064">
        <ele>518.2</ele>
        <time>2022-02-12T09:51:39Z</time>
      </trkpt>
      <trkpt lat="43.07349" lon="-0.0606">
        <ele>518</ele>
        <time>2022-02-12T09:51:40Z</time>
      </trkpt>
      <trkpt lat="43.07351" lon="-0.06055">
        <ele>518</ele>
        <time>2022-02-12T09:51:41Z</time>
      </trkpt>
      <trkpt lat="43.07354" lon="-0.06051">
        <ele>518</ele>
        <time>2022-02-12T09:51:42Z</time>
      </trkpt>
      <trkpt lat="43.07356" lon="-0.06047">
        <ele>518</ele>
        <time>2022-02-12T09:51:43Z</time>
      </trkpt>
      <trkpt lat="43.07358" lon="-0.06043">
        <ele>518.2</ele>
        <time>2022-02-12T09:51:44Z</time>
      </trkpt>
      <trkpt lat="43.07361" lon="-0.06039">
        <ele>518.2</ele>
        <time>2022-02-12T09:51:45Z</time>
      </trkpt>
      <trkpt lat="43.07363" lon="-0.06035">
        <ele>518.4</ele>
        <time>2022-02-12T09:51:46Z</time>
      </trkpt>
      <trkpt lat="43.07365" lon="-0.06032">
        <ele>518.2</ele>
        <time>2022-02-12T09:51:47Z</time>
      </trkpt>
      <trkpt lat="43.07367" lon="-0.06028">
        <ele>518.4</ele>
        <time>2022-02-12T09:51:48Z</time>
      </trkpt>
      <trkpt lat="43.07369" lon="-0.06024">
        <ele>518.4</ele>
        <time>2022-02-12T09:51:49Z</time>
      </trkpt>
      <trkpt lat="43.07371" lon="-0.06021">
        <ele>518.6</ele>
        <time>2022-02-12T09:51:50Z</time>
      </trkpt>
      <trkpt lat="43.07373" lon="-0.06018">
        <ele>518.6</ele>
        <time>2022-02-12T09:51:51Z</time>
      </trkpt>
      <trkpt lat="43.07374" lon="-0.06014">
        <ele>518.8</ele>
        <time>2022-02-12T09:51:52Z</time>
      </trkpt>
      <trkpt lat="43.07376" lon="-0.06011">
        <ele>518.8</ele>
        <time>2022-02-12T09:51:53Z</time>
      </trkpt>
      <trkpt lat="43.07377" lon="-0.06008">
        <ele>519</ele>
        <time>2022-02-12T09:51:54Z</time>
      </trkpt>
      <trkpt lat="43.07378" lon="-0.06005">
        <ele>519</ele>
        <time>2022-02-12T09:51:55Z</time>
      </trkpt>
      <trkpt lat="43.07379" lon="-0.06002">
        <ele>519.4</ele>
        <time>2022-02-12T09:51:56Z</time>
      </trkpt>
      <trkpt lat="43.0738" lon="-0.05998">
        <ele>519.6</ele>
        <time>2022-02-12T09:51:57Z</time>
      </trkpt>
      <trkpt lat="43.07382" lon="-0.05995">
        <ele>519.8</ele>
        <time>2022-02-12T09:51:58Z</time>
      </trkpt>
      <trkpt lat="43.07384" lon="-0.05992">
        <ele>519.8</ele>
        <time>2022-02-12T09:51:59Z</time>
      </trkpt>
      <trkpt lat="43.07385" lon="-0.05989">
        <ele>519.8</ele>
        <time>2022-02-12T09:52:00Z</time>
      </trkpt>
      <trkpt lat="43.07386" lon="-0.05986">
        <ele>520</ele>
        <time>2022-02-12T09:52:01Z</time>
      </trkpt>
      <trkpt lat="43.07388" lon="-0.05983">
        <ele>520.2</ele>
        <time>2022-02-12T09:52:02Z</time>
      </trkpt>
      <trkpt lat="43.0739" lon="-0.0598">
        <ele>520.4</ele>
        <time>2022-02-12T09:52:03Z</time>
      </trkpt>
      <trkpt lat="43.07392" lon="-0.05979">
        <ele>520.6</ele>
        <time>2022-02-12T09:52:04Z</time>
      </trkpt>
      <trkpt lat="43.07394" lon="-0.05977">
        <ele>520.8</ele>
        <time>2022-02-12T09:52:05Z</time>
      </trkpt>
      <trkpt lat="43.07395" lon="-0.05975">
        <ele>521</ele>
        <time>2022-02-12T09:52:06Z</time>
      </trkpt>
      <trkpt lat="43.07397" lon="-0.05974">
        <ele>521.2</ele>
        <time>2022-02-12T09:52:07Z</time>
      </trkpt>
      <trkpt lat="43.07398" lon="-0.05973">
        <ele>521.2</ele>
        <time>2022-02-12T09:52:08Z</time>
      </trkpt>
      <trkpt lat="43.074" lon="-0.05971">
        <ele>521.4</ele>
        <time>2022-02-12T09:52:09Z</time>
      </trkpt>
      <trkpt lat="43.07402" lon="-0.05969">
        <ele>521.4</ele>
        <time>2022-02-12T09:52:10Z</time>
      </trkpt>
      <trkpt lat="43.07404" lon="-0.05966">
        <ele>521.6</ele>
        <time>2022-02-12T09:52:11Z</time>
      </trkpt>
      <trkpt lat="43.07406" lon="-0.05963">
        <ele>521.6</ele>
        <time>2022-02-12T09:52:12Z</time>
      </trkpt>
      <trkpt lat="43.07408" lon="-0.05961">
        <ele>521.6</ele>
        <time>2022-02-12T09:52:13Z</time>
      </trkpt>
      <trkpt lat="43.0741" lon="-0.05959">
        <ele>521.6</ele>
        <time>2022-02-12T09:52:14Z</time>
      </trkpt>
      <trkpt lat="43.07411" lon="-0.05957">
        <ele>521.4</ele>
        <time>2022-02-12T09:52:15Z</time>
      </trkpt>
      <trkpt lat="43.07413" lon="-0.05955">
        <ele>521.4</ele>
        <time>2022-02-12T09:52:16Z</time>
      </trkpt>
      <trkpt lat="43.07415" lon="-0.05953">
        <ele>521</ele>
        <time>2022-02-12T09:52:17Z</time>
      </trkpt>
      <trkpt lat="43.07416" lon="-0.0595">
        <ele>520.8</ele>
        <time>2022-02-12T09:52:18Z</time>
      </trkpt>
      <trkpt lat="43.07418" lon="-0.05947">
        <ele>520.4</ele>
        <time>2022-02-12T09:52:19Z</time>
      </trkpt>
      <trkpt lat="43.0742" lon="-0.05945">
        <ele>520.2</ele>
        <time>2022-02-12T09:52:20Z</time>
      </trkpt>
      <trkpt lat="43.07422" lon="-0.05942">
        <ele>519.8</ele>
        <time>2022-02-12T09:52:21Z</time>
      </trkpt>
      <trkpt lat="43.07424" lon="-0.0594">
        <ele>519.4</ele>
        <time>2022-02-12T09:52:22Z</time>
      </trkpt>
      <trkpt lat="43.07425" lon="-0.05939">
        <ele>519.2</ele>
        <time>2022-02-12T09:52:23Z</time>
      </trkpt>
      <trkpt lat="43.07427" lon="-0.05937">
        <ele>518.6</ele>
        <time>2022-02-12T09:52:24Z</time>
      </trkpt>
      <trkpt lat="43.07428" lon="-0.05936">
        <ele>518.2</ele>
        <time>2022-02-12T09:52:25Z</time>
      </trkpt>
      <trkpt lat="43.07428" lon="-0.05935">
        <ele>517.6</ele>
        <time>2022-02-12T09:52:26Z</time>
      </trkpt>
      <trkpt lat="43.07428" lon="-0.05935">
        <ele>517.4</ele>
        <time>2022-02-12T09:52:27Z</time>
      </trkpt>
      <trkpt lat="43.07428" lon="-0.05935">
        <ele>516.8</ele>
        <time>2022-02-12T09:52:28Z</time>
      </trkpt>
      <trkpt lat="43.07428" lon="-0.05935">
        <ele>516.6</ele>
        <time>2022-02-12T09:52:29Z</time>
      </trkpt>
      <trkpt lat="43.07428" lon="-0.05935">
        <ele>516.4</ele>
        <time>2022-02-12T09:52:30Z</time>
      </trkpt>
      <trkpt lat="43.07429" lon="-0.05935">
        <ele>516.2</ele>
        <time>2022-02-12T09:52:31Z</time>
      </trkpt>
      <trkpt lat="43.0743" lon="-0.05934">
        <ele>516.2</ele>
        <time>2022-02-12T09:52:32Z</time>
      </trkpt>
      <trkpt lat="43.07432" lon="-0.05932">
        <ele>516</ele>
        <time>2022-02-12T09:52:33Z</time>
      </trkpt>
      <trkpt lat="43.07434" lon="-0.0593">
        <ele>516</ele>
        <time>2022-02-12T09:52:34Z</time>
      </trkpt>
      <trkpt lat="43.07436" lon="-0.05929">
        <ele>516</ele>
        <time>2022-02-12T09:52:35Z</time>
      </trkpt>
      <trkpt lat="43.07436" lon="-0.05929">
        <ele>515.8</ele>
        <time>2022-02-12T09:52:36Z</time>
      </trkpt>
      <trkpt lat="43.07436" lon="-0.05929">
        <ele>515.6</ele>
        <time>2022-02-12T09:52:37Z</time>
      </trkpt>
      <trkpt lat="43.07436" lon="-0.05929">
        <ele>515.4</ele>
        <time>2022-02-12T09:52:38Z</time>
      </trkpt>
      <trkpt lat="43.07436" lon="-0.05929">
        <ele>515.4</ele>
        <time>2022-02-12T09:52:39Z</time>
      </trkpt>
      <trkpt lat="43.07436" lon="-0.05929">
        <ele>515.2</ele>
        <time>2022-02-12T09:52:40Z</time>
      </trkpt>
      <trkpt lat="43.07436" lon="-0.05929">
        <ele>515</ele>
        <time>2022-02-12T09:52:41Z</time>
      </trkpt>
      <trkpt lat="43.07436" lon="-0.05929">
        <ele>514.8</ele>
        <time>2022-02-12T09:52:42Z</time>
      </trkpt>
      <trkpt lat="43.07436" lon="-0.05929">
        <ele>514.6</ele>
        <time>2022-02-12T09:52:43Z</time>
      </trkpt>
      <trkpt lat="43.07436" lon="-0.05929">
        <ele>514.6</ele>
        <time>2022-02-12T09:52:44Z</time>
      </trkpt>
      <trkpt lat="43.07436" lon="-0.05929">
        <ele>514.6</ele>
        <time>2022-02-12T09:52:45Z</time>
      </trkpt>
      <trkpt lat="43.07436" lon="-0.05929">
        <ele>514.4</ele>
        <time>2022-02-12T09:52:46Z</time>
      </trkpt>
      <trkpt lat="43.07436" lon="-0.05929">
        <ele>514.4</ele>
        <time>2022-02-12T09:52:47Z</time>
      </trkpt>
      <trkpt lat="43.07436" lon="-0.05929">
        <ele>514.4</ele>
        <time>2022-02-12T09:52:48Z</time>
      </trkpt>
      <trkpt lat="43.07436" lon="-0.05929">
        <ele>514.4</ele>
        <time>2022-02-12T09:52:49Z</time>
      </trkpt>
      <trkpt lat="43.07436" lon="-0.05929">
        <ele>514.4</ele>
        <time>2022-02-12T09:52:50Z</time>
      </trkpt>
      <trkpt lat="43.07436" lon="-0.05929">
        <ele>514.4</ele>
        <time>2022-02-12T09:52:51Z</time>
      </trkpt>
      <trkpt lat="43.07436" lon="-0.05929">
        <ele>514.4</ele>
        <time>2022-02-12T09:52:52Z</time>
      </trkpt>
      <trkpt lat="43.07436" lon="-0.05929">
        <ele>514.4</ele>
        <time>2022-02-12T09:52:53Z</time>
      </trkpt>
      <trkpt lat="43.07436" lon="-0.05929">
        <ele>514.4</ele>
        <time>2022-02-12T09:52:54Z</time>
      </trkpt>
      <trkpt lat="43.07436" lon="-0.05929">
        <ele>514.4</ele>
        <time>2022-02-12T09:52:55Z</time>
      </trkpt>
      <trkpt lat="43.07436" lon="-0.05929">
        <ele>514.4</ele>
        <time>2022-02-12T09:52:56Z</time>
      </trkpt>
      <trkpt lat="43.07436" lon="-0.05929">
        <ele>514.4</ele>
        <time>2022-02-12T09:52:57Z</time>
      </trkpt>
      <trkpt lat="43.07436" lon="-0.05929">
        <ele>514.4</ele>
        <time>2022-02-12T09:52:58Z</time>
      </trkpt>
      <trkpt lat="43.07436" lon="-0.05929">
        <ele>514.4</ele>
        <time>2022-02-12T09:52:59Z</time>
      </trkpt>
      <trkpt lat="43.07436" lon="-0.05929">
        <ele>514.4</ele>
        <time>2022-02-12T09:53:00Z</time>
      </trkpt>
      <trkpt lat="43.07436" lon="-0.05929">
        <ele>514.4</ele>
        <time>2022-02-12T09:53:01Z</time>
      </trkpt>
      <trkpt lat="43.07436" lon="-0.05929">
        <ele>514.4</ele>
        <time>2022-02-12T09:53:02Z</time>
      </trkpt>
      <trkpt lat="43.07436" lon="-0.05929">
        <ele>514.4</ele>
        <time>2022-02-12T09:53:03Z</time>
      </trkpt>
      <trkpt lat="43.07436" lon="-0.05929">
        <ele>514.4</ele>
        <time>2022-02-12T09:53:04Z</time>
      </trkpt>
      <trkpt lat="43.07436" lon="-0.05929">
        <ele>514.4</ele>
        <time>2022-02-12T09:53:05Z</time>
      </trkpt>
      <trkpt lat="43.07436" lon="-0.05929">
        <ele>514.4</ele>
        <time>2022-02-12T09:53:06Z</time>
      </trkpt>
      <trkpt lat="43.07436" lon="-0.05929">
        <ele>514.4</ele>
        <time>2022-02-12T09:53:07Z</time>
      </trkpt>
      <trkpt lat="43.07437" lon="-0.05929">
        <ele>514.4</ele>
        <time>2022-02-12T09:53:08Z</time>
      </trkpt>
      <trkpt lat="43.07438" lon="-0.05927">
        <ele>514.4</ele>
        <time>2022-02-12T09:53:09Z</time>
      </trkpt>
      <trkpt lat="43.0744" lon="-0.05926">
        <ele>514.4</ele>
        <time>2022-02-12T09:53:10Z</time>
      </trkpt>
      <trkpt lat="43.07442" lon="-0.05925">
        <ele>514.4</ele>
        <time>2022-02-12T09:53:11Z</time>
      </trkpt>
      <trkpt lat="43.07445" lon="-0.05923">
        <ele>514.4</ele>
        <time>2022-02-12T09:53:12Z</time>
      </trkpt>
      <trkpt lat="43.07448" lon="-0.05921">
        <ele>514.4</ele>
        <time>2022-02-12T09:53:13Z</time>
      </trkpt>
      <trkpt lat="43.07452" lon="-0.05918">
        <ele>514.4</ele>
        <time>2022-02-12T09:53:14Z</time>
      </trkpt>
      <trkpt lat="43.07455" lon="-0.05916">
        <ele>514.2</ele>
        <time>2022-02-12T09:53:15Z</time>
      </trkpt>
      <trkpt lat="43.0746" lon="-0.05914">
        <ele>514</ele>
        <time>2022-02-12T09:53:16Z</time>
      </trkpt>
      <trkpt lat="43.07464" lon="-0.05911">
        <ele>513.8</ele>
        <time>2022-02-12T09:53:17Z</time>
      </trkpt>
      <trkpt lat="43.07468" lon="-0.05908">
        <ele>513.6</ele>
        <time>2022-02-12T09:53:18Z</time>
      </trkpt>
      <trkpt lat="43.07473" lon="-0.05905">
        <ele>513.6</ele>
        <time>2022-02-12T09:53:19Z</time>
      </trkpt>
      <trkpt lat="43.07477" lon="-0.05901">
        <ele>513.2</ele>
        <time>2022-02-12T09:53:20Z</time>
      </trkpt>
      <trkpt lat="43.07481" lon="-0.05898">
        <ele>513</ele>
        <time>2022-02-12T09:53:21Z</time>
      </trkpt>
      <trkpt lat="43.07484" lon="-0.05894">
        <ele>512.2</ele>
        <time>2022-02-12T09:53:22Z</time>
      </trkpt>
      <trkpt lat="43.07488" lon="-0.0589">
        <ele>512</ele>
        <time>2022-02-12T09:53:23Z</time>
      </trkpt>
      <trkpt lat="43.07493" lon="-0.05887">
        <ele>511.2</ele>
        <time>2022-02-12T09:53:24Z</time>
      </trkpt>
      <trkpt lat="43.07498" lon="-0.05883">
        <ele>510.8</ele>
        <time>2022-02-12T09:53:25Z</time>
      </trkpt>
      <trkpt lat="43.07503" lon="-0.0588">
        <ele>510.2</ele>
        <time>2022-02-12T09:53:26Z</time>
      </trkpt>
      <trkpt lat="43.07508" lon="-0.05876">
        <ele>510</ele>
        <time>2022-02-12T09:53:27Z</time>
      </trkpt>
      <trkpt lat="43.07514" lon="-0.05872">
        <ele>509.4</ele>
        <time>2022-02-12T09:53:28Z</time>
      </trkpt>
      <trkpt lat="43.07519" lon="-0.05869">
        <ele>509</ele>
        <time>2022-02-12T09:53:29Z</time>
      </trkpt>
      <trkpt lat="43.07523" lon="-0.05865">
        <ele>508.2</ele>
        <time>2022-02-12T09:53:30Z</time>
      </trkpt>
      <trkpt lat="43.07526" lon="-0.05861">
        <ele>507.6</ele>
        <time>2022-02-12T09:53:31Z</time>
      </trkpt>
      <trkpt lat="43.07528" lon="-0.05856">
        <ele>507</ele>
        <time>2022-02-12T09:53:32Z</time>
      </trkpt>
      <trkpt lat="43.07529" lon="-0.0585">
        <ele>506.2</ele>
        <time>2022-02-12T09:53:33Z</time>
      </trkpt>
      <trkpt lat="43.0753" lon="-0.05845">
        <ele>505.4</ele>
        <time>2022-02-12T09:53:34Z</time>
      </trkpt>
      <trkpt lat="43.0753" lon="-0.05841">
        <ele>505</ele>
        <time>2022-02-12T09:53:35Z</time>
      </trkpt>
      <trkpt lat="43.07531" lon="-0.05837">
        <ele>504.6</ele>
        <time>2022-02-12T09:53:36Z</time>
      </trkpt>
      <trkpt lat="43.07532" lon="-0.05833">
        <ele>504.4</ele>
        <time>2022-02-12T09:53:37Z</time>
      </trkpt>
      <trkpt lat="43.07533" lon="-0.0583">
        <ele>504</ele>
        <time>2022-02-12T09:53:38Z</time>
      </trkpt>
      <trkpt lat="43.07535" lon="-0.05827">
        <ele>504</ele>
        <time>2022-02-12T09:53:39Z</time>
      </trkpt>
      <trkpt lat="43.07536" lon="-0.05824">
        <ele>503.4</ele>
        <time>2022-02-12T09:53:40Z</time>
      </trkpt>
      <trkpt lat="43.07538" lon="-0.05821">
        <ele>502.6</ele>
        <time>2022-02-12T09:53:41Z</time>
      </trkpt>
      <trkpt lat="43.07539" lon="-0.05818">
        <ele>502</ele>
        <time>2022-02-12T09:53:42Z</time>
      </trkpt>
      <trkpt lat="43.07541" lon="-0.05816">
        <ele>501.6</ele>
        <time>2022-02-12T09:53:43Z</time>
      </trkpt>
      <trkpt lat="43.07543" lon="-0.05814">
        <ele>501.2</ele>
        <time>2022-02-12T09:53:44Z</time>
      </trkpt>
      <trkpt lat="43.07544" lon="-0.05812">
        <ele>500.4</ele>
        <time>2022-02-12T09:53:45Z</time>
      </trkpt>
      <trkpt lat="43.07545" lon="-0.0581">
        <ele>500</ele>
        <time>2022-02-12T09:53:46Z</time>
      </trkpt>
      <trkpt lat="43.07546" lon="-0.05808">
        <ele>499.4</ele>
        <time>2022-02-12T09:53:47Z</time>
      </trkpt>
      <trkpt lat="43.07546" lon="-0.05806">
        <ele>499</ele>
        <time>2022-02-12T09:53:48Z</time>
      </trkpt>
      <trkpt lat="43.07546" lon="-0.05804">
        <ele>498.4</ele>
        <time>2022-02-12T09:53:49Z</time>
      </trkpt>
      <trkpt lat="43.07545" lon="-0.05802">
        <ele>498</ele>
        <time>2022-02-12T09:53:50Z</time>
      </trkpt>
      <trkpt lat="43.07544" lon="-0.05801">
        <ele>497.6</ele>
        <time>2022-02-12T09:53:51Z</time>
      </trkpt>
      <trkpt lat="43.07543" lon="-0.058">
        <ele>497.2</ele>
        <time>2022-02-12T09:53:52Z</time>
      </trkpt>
      <trkpt lat="43.07542" lon="-0.05798">
        <ele>496.8</ele>
        <time>2022-02-12T09:53:53Z</time>
      </trkpt>
      <trkpt lat="43.07541" lon="-0.05796">
        <ele>496.4</ele>
        <time>2022-02-12T09:53:54Z</time>
      </trkpt>
      <trkpt lat="43.0754" lon="-0.05794">
        <ele>495.8</ele>
        <time>2022-02-12T09:53:55Z</time>
      </trkpt>
      <trkpt lat="43.07539" lon="-0.05791">
        <ele>495.6</ele>
        <time>2022-02-12T09:53:56Z</time>
      </trkpt>
      <trkpt lat="43.07539" lon="-0.05788">
        <ele>495</ele>
        <time>2022-02-12T09:53:57Z</time>
      </trkpt>
      <trkpt lat="43.07541" lon="-0.05786">
        <ele>494.8</ele>
        <time>2022-02-12T09:53:58Z</time>
      </trkpt>
      <trkpt lat="43.07543" lon="-0.05785">
        <ele>494.4</ele>
        <time>2022-02-12T09:53:59Z</time>
      </trkpt>
      <trkpt lat="43.07547" lon="-0.05784">
        <ele>494.2</ele>
        <time>2022-02-12T09:54:00Z</time>
      </trkpt>
      <trkpt lat="43.0755" lon="-0.05784">
        <ele>493.8</ele>
        <time>2022-02-12T09:54:01Z</time>
      </trkpt>
      <trkpt lat="43.07554" lon="-0.05782">
        <ele>493.4</ele>
        <time>2022-02-12T09:54:02Z</time>
      </trkpt>
      <trkpt lat="43.07559" lon="-0.05781">
        <ele>493.2</ele>
        <time>2022-02-12T09:54:03Z</time>
      </trkpt>
      <trkpt lat="43.07564" lon="-0.0578">
        <ele>493</ele>
        <time>2022-02-12T09:54:04Z</time>
      </trkpt>
      <trkpt lat="43.0757" lon="-0.05778">
        <ele>492.2</ele>
        <time>2022-02-12T09:54:05Z</time>
      </trkpt>
      <trkpt lat="43.07575" lon="-0.05776">
        <ele>492</ele>
        <time>2022-02-12T09:54:06Z</time>
      </trkpt>
      <trkpt lat="43.07581" lon="-0.05774">
        <ele>491.6</ele>
        <time>2022-02-12T09:54:07Z</time>
      </trkpt>
      <trkpt lat="43.07586" lon="-0.05771">
        <ele>491.4</ele>
        <time>2022-02-12T09:54:08Z</time>
      </trkpt>
      <trkpt lat="43.07591" lon="-0.05768">
        <ele>490.8</ele>
        <time>2022-02-12T09:54:09Z</time>
      </trkpt>
      <trkpt lat="43.07596" lon="-0.05765">
        <ele>490.4</ele>
        <time>2022-02-12T09:54:10Z</time>
      </trkpt>
      <trkpt lat="43.07602" lon="-0.0576">
        <ele>490.4</ele>
        <time>2022-02-12T09:54:11Z</time>
      </trkpt>
      <trkpt lat="43.07606" lon="-0.05757">
        <ele>490</ele>
        <time>2022-02-12T09:54:12Z</time>
      </trkpt>
      <trkpt lat="43.07612" lon="-0.05753">
        <ele>489.8</ele>
        <time>2022-02-12T09:54:13Z</time>
      </trkpt>
      <trkpt lat="43.07616" lon="-0.0575">
        <ele>489.6</ele>
        <time>2022-02-12T09:54:14Z</time>
      </trkpt>
      <trkpt lat="43.0762" lon="-0.05746">
        <ele>489.6</ele>
        <time>2022-02-12T09:54:15Z</time>
      </trkpt>
      <trkpt lat="43.07625" lon="-0.05743">
        <ele>489.4</ele>
        <time>2022-02-12T09:54:16Z</time>
      </trkpt>
      <trkpt lat="43.0763" lon="-0.05739">
        <ele>489.4</ele>
        <time>2022-02-12T09:54:17Z</time>
      </trkpt>
      <trkpt lat="43.07633" lon="-0.05736">
        <ele>489.2</ele>
        <time>2022-02-12T09:54:18Z</time>
      </trkpt>
      <trkpt lat="43.07637" lon="-0.05733">
        <ele>489.2</ele>
        <time>2022-02-12T09:54:19Z</time>
      </trkpt>
      <trkpt lat="43.07641" lon="-0.05729">
        <ele>489.2</ele>
        <time>2022-02-12T09:54:20Z</time>
      </trkpt>
      <trkpt lat="43.07645" lon="-0.05725">
        <ele>489.2</ele>
        <time>2022-02-12T09:54:21Z</time>
      </trkpt>
      <trkpt lat="43.07648" lon="-0.05721">
        <ele>489</ele>
        <time>2022-02-12T09:54:22Z</time>
      </trkpt>
      <trkpt lat="43.07651" lon="-0.05716">
        <ele>489</ele>
        <time>2022-02-12T09:54:23Z</time>
      </trkpt>
      <trkpt lat="43.07653" lon="-0.05712">
        <ele>489</ele>
        <time>2022-02-12T09:54:24Z</time>
      </trkpt>
      <trkpt lat="43.07656" lon="-0.05708">
        <ele>489</ele>
        <time>2022-02-12T09:54:25Z</time>
      </trkpt>
      <trkpt lat="43.0766" lon="-0.05703">
        <ele>489.2</ele>
        <time>2022-02-12T09:54:26Z</time>
      </trkpt>
      <trkpt lat="43.07662" lon="-0.057">
        <ele>489.2</ele>
        <time>2022-02-12T09:54:27Z</time>
      </trkpt>
      <trkpt lat="43.07664" lon="-0.05696">
        <ele>489.2</ele>
        <time>2022-02-12T09:54:28Z</time>
      </trkpt>
      <trkpt lat="43.07666" lon="-0.05691">
        <ele>489.2</ele>
        <time>2022-02-12T09:54:29Z</time>
      </trkpt>
      <trkpt lat="43.07668" lon="-0.05688">
        <ele>489.4</ele>
        <time>2022-02-12T09:54:30Z</time>
      </trkpt>
      <trkpt lat="43.0767" lon="-0.05684">
        <ele>489.6</ele>
        <time>2022-02-12T09:54:31Z</time>
      </trkpt>
      <trkpt lat="43.07672" lon="-0.0568">
        <ele>489.8</ele>
        <time>2022-02-12T09:54:32Z</time>
      </trkpt>
      <trkpt lat="43.07674" lon="-0.05677">
        <ele>489.8</ele>
        <time>2022-02-12T09:54:33Z</time>
      </trkpt>
      <trkpt lat="43.07676" lon="-0.05673">
        <ele>490</ele>
        <time>2022-02-12T09:54:34Z</time>
      </trkpt>
      <trkpt lat="43.07678" lon="-0.05669">
        <ele>490</ele>
        <time>2022-02-12T09:54:35Z</time>
      </trkpt>
      <trkpt lat="43.0768" lon="-0.05664">
        <ele>490.2</ele>
        <time>2022-02-12T09:54:36Z</time>
      </trkpt>
      <trkpt lat="43.07682" lon="-0.0566">
        <ele>490.4</ele>
        <time>2022-02-12T09:54:37Z</time>
      </trkpt>
      <trkpt lat="43.07684" lon="-0.05655">
        <ele>490.4</ele>
        <time>2022-02-12T09:54:38Z</time>
      </trkpt>
      <trkpt lat="43.07687" lon="-0.0565">
        <ele>490.6</ele>
        <time>2022-02-12T09:54:39Z</time>
      </trkpt>
      <trkpt lat="43.07689" lon="-0.05645">
        <ele>490.6</ele>
        <time>2022-02-12T09:54:40Z</time>
      </trkpt>
      <trkpt lat="43.07692" lon="-0.05639">
        <ele>490.6</ele>
        <time>2022-02-12T09:54:41Z</time>
      </trkpt>
      <trkpt lat="43.07695" lon="-0.05633">
        <ele>490.6</ele>
        <time>2022-02-12T09:54:42Z</time>
      </trkpt>
      <trkpt lat="43.07698" lon="-0.05626">
        <ele>490.4</ele>
        <time>2022-02-12T09:54:43Z</time>
      </trkpt>
      <trkpt lat="43.07701" lon="-0.05619">
        <ele>490.4</ele>
        <time>2022-02-12T09:54:44Z</time>
      </trkpt>
      <trkpt lat="43.07704" lon="-0.05612">
        <ele>490.2</ele>
        <time>2022-02-12T09:54:45Z</time>
      </trkpt>
      <trkpt lat="43.07707" lon="-0.05605">
        <ele>490</ele>
        <time>2022-02-12T09:54:46Z</time>
      </trkpt>
      <trkpt lat="43.0771" lon="-0.05597">
        <ele>489.2</ele>
        <time>2022-02-12T09:54:47Z</time>
      </trkpt>
      <trkpt lat="43.07714" lon="-0.05589">
        <ele>488.8</ele>
        <time>2022-02-12T09:54:48Z</time>
      </trkpt>
      <trkpt lat="43.07717" lon="-0.0558">
        <ele>488.4</ele>
        <time>2022-02-12T09:54:49Z</time>
      </trkpt>
      <trkpt lat="43.07721" lon="-0.05572">
        <ele>487.6</ele>
        <time>2022-02-12T09:54:50Z</time>
      </trkpt>
      <trkpt lat="43.07726" lon="-0.05563">
        <ele>486.6</ele>
        <time>2022-02-12T09:54:51Z</time>
      </trkpt>
      <trkpt lat="43.0773" lon="-0.05555">
        <ele>486.2</ele>
        <time>2022-02-12T09:54:52Z</time>
      </trkpt>
      <trkpt lat="43.07734" lon="-0.05548">
        <ele>485.8</ele>
        <time>2022-02-12T09:54:53Z</time>
      </trkpt>
      <trkpt lat="43.07737" lon="-0.05542">
        <ele>485.6</ele>
        <time>2022-02-12T09:54:54Z</time>
      </trkpt>
      <trkpt lat="43.0774" lon="-0.05537">
        <ele>484.6</ele>
        <time>2022-02-12T09:54:55Z</time>
      </trkpt>
      <trkpt lat="43.07742" lon="-0.05535">
        <ele>484.2</ele>
        <time>2022-02-12T09:54:56Z</time>
      </trkpt>
      <trkpt lat="43.07744" lon="-0.05534">
        <ele>483.8</ele>
        <time>2022-02-12T09:54:57Z</time>
      </trkpt>
      <trkpt lat="43.07746" lon="-0.05533">
        <ele>483.4</ele>
        <time>2022-02-12T09:54:58Z</time>
      </trkpt>
      <trkpt lat="43.07748" lon="-0.05532">
        <ele>483</ele>
        <time>2022-02-12T09:54:59Z</time>
      </trkpt>
      <trkpt lat="43.0775" lon="-0.05532">
        <ele>482.8</ele>
        <time>2022-02-12T09:55:00Z</time>
      </trkpt>
      <trkpt lat="43.07753" lon="-0.05532">
        <ele>482.8</ele>
        <time>2022-02-12T09:55:01Z</time>
      </trkpt>
      <trkpt lat="43.07755" lon="-0.05533">
        <ele>482.8</ele>
        <time>2022-02-12T09:55:02Z</time>
      </trkpt>
      <trkpt lat="43.07757" lon="-0.05533">
        <ele>482.8</ele>
        <time>2022-02-12T09:55:03Z</time>
      </trkpt>
      <trkpt lat="43.07759" lon="-0.05534">
        <ele>482.8</ele>
        <time>2022-02-12T09:55:04Z</time>
      </trkpt>
      <trkpt lat="43.07761" lon="-0.05534">
        <ele>482.8</ele>
        <time>2022-02-12T09:55:05Z</time>
      </trkpt>
      <trkpt lat="43.07762" lon="-0.05533">
        <ele>482.8</ele>
        <time>2022-02-12T09:55:06Z</time>
      </trkpt>
      <trkpt lat="43.07764" lon="-0.05533">
        <ele>482.8</ele>
        <time>2022-02-12T09:55:07Z</time>
      </trkpt>
      <trkpt lat="43.07764" lon="-0.05534">
        <ele>482.8</ele>
        <time>2022-02-12T09:55:08Z</time>
      </trkpt>
      <trkpt lat="43.07764" lon="-0.05535">
        <ele>482.8</ele>
        <time>2022-02-12T09:55:09Z</time>
      </trkpt>
      <trkpt lat="43.07764" lon="-0.05536">
        <ele>483</ele>
        <time>2022-02-12T09:55:10Z</time>
      </trkpt>
      <trkpt lat="43.07762" lon="-0.05536">
        <ele>483</ele>
        <time>2022-02-12T09:55:11Z</time>
      </trkpt>
      <trkpt lat="43.07761" lon="-0.05536">
        <ele>483.2</ele>
        <time>2022-02-12T09:55:12Z</time>
      </trkpt>
      <trkpt lat="43.07758" lon="-0.05535">
        <ele>483.2</ele>
        <time>2022-02-12T09:55:13Z</time>
      </trkpt>
      <trkpt lat="43.07755" lon="-0.05535">
        <ele>483.2</ele>
        <time>2022-02-12T09:55:14Z</time>
      </trkpt>
      <trkpt lat="43.07753" lon="-0.05535">
        <ele>483.2</ele>
        <time>2022-02-12T09:55:15Z</time>
      </trkpt>
      <trkpt lat="43.0775" lon="-0.05535">
        <ele>483.2</ele>
        <time>2022-02-12T09:55:16Z</time>
      </trkpt>
      <trkpt lat="43.07747" lon="-0.05535">
        <ele>483.2</ele>
        <time>2022-02-12T09:55:17Z</time>
      </trkpt>
      <trkpt lat="43.07745" lon="-0.05535">
        <ele>483</ele>
        <time>2022-02-12T09:55:18Z</time>
      </trkpt>
      <trkpt lat="43.07744" lon="-0.05534">
        <ele>483</ele>
        <time>2022-02-12T09:55:19Z</time>
      </trkpt>
      <trkpt lat="43.07743" lon="-0.05533">
        <ele>483</ele>
        <time>2022-02-12T09:55:20Z</time>
      </trkpt>
      <trkpt lat="43.07743" lon="-0.05533">
        <ele>482.8</ele>
        <time>2022-02-12T09:55:21Z</time>
      </trkpt>
      <trkpt lat="43.07743" lon="-0.05533">
        <ele>482.8</ele>
        <time>2022-02-12T09:55:22Z</time>
      </trkpt>
      <trkpt lat="43.07743" lon="-0.05533">
        <ele>482.6</ele>
        <time>2022-02-12T09:55:23Z</time>
      </trkpt>
      <trkpt lat="43.07743" lon="-0.05533">
        <ele>482.6</ele>
        <time>2022-02-12T09:55:24Z</time>
      </trkpt>
      <trkpt lat="43.07743" lon="-0.05533">
        <ele>482.6</ele>
        <time>2022-02-12T09:55:25Z</time>
      </trkpt>
      <trkpt lat="43.07743" lon="-0.05533">
        <ele>482.4</ele>
        <time>2022-02-12T09:55:26Z</time>
      </trkpt>
      <trkpt lat="43.07743" lon="-0.05533">
        <ele>482.2</ele>
        <time>2022-02-12T09:55:27Z</time>
      </trkpt>
      <trkpt lat="43.07743" lon="-0.05533">
        <ele>482.2</ele>
        <time>2022-02-12T09:55:28Z</time>
      </trkpt>
      <trkpt lat="43.07743" lon="-0.05531">
        <ele>482</ele>
        <time>2022-02-12T09:55:29Z</time>
      </trkpt>
      <trkpt lat="43.07743" lon="-0.05529">
        <ele>481.8</ele>
        <time>2022-02-12T09:55:30Z</time>
      </trkpt>
      <trkpt lat="43.07743" lon="-0.05528">
        <ele>481.4</ele>
        <time>2022-02-12T09:55:31Z</time>
      </trkpt>
      <trkpt lat="43.07743" lon="-0.05528">
        <ele>481.2</ele>
        <time>2022-02-12T09:55:32Z</time>
      </trkpt>
      <trkpt lat="43.07743" lon="-0.05528">
        <ele>481</ele>
        <time>2022-02-12T09:55:33Z</time>
      </trkpt>
      <trkpt lat="43.07744" lon="-0.05526">
        <ele>480.8</ele>
        <time>2022-02-12T09:55:34Z</time>
      </trkpt>
      <trkpt lat="43.07744" lon="-0.05524">
        <ele>480.4</ele>
        <time>2022-02-12T09:55:35Z</time>
      </trkpt>
      <trkpt lat="43.07744" lon="-0.05523">
        <ele>480.2</ele>
        <time>2022-02-12T09:55:36Z</time>
      </trkpt>
      <trkpt lat="43.07745" lon="-0.05521">
        <ele>479.8</ele>
        <time>2022-02-12T09:55:37Z</time>
      </trkpt>
      <trkpt lat="43.07745" lon="-0.05521">
        <ele>479.8</ele>
        <time>2022-02-12T09:55:38Z</time>
      </trkpt>
      <trkpt lat="43.07745" lon="-0.05521">
        <ele>479.8</ele>
        <time>2022-02-12T09:55:39Z</time>
      </trkpt>
      <trkpt lat="43.07745" lon="-0.05521">
        <ele>479.6</ele>
        <time>2022-02-12T09:55:40Z</time>
      </trkpt>
      <trkpt lat="43.07745" lon="-0.05521">
        <ele>479.6</ele>
        <time>2022-02-12T09:55:41Z</time>
      </trkpt>
      <trkpt lat="43.07745" lon="-0.05521">
        <ele>479.6</ele>
        <time>2022-02-12T09:55:42Z</time>
      </trkpt>
      <trkpt lat="43.07745" lon="-0.05521">
        <ele>479.4</ele>
        <time>2022-02-12T09:55:43Z</time>
      </trkpt>
      <trkpt lat="43.07745" lon="-0.05521">
        <ele>479.4</ele>
        <time>2022-02-12T09:55:44Z</time>
      </trkpt>
      <trkpt lat="43.07745" lon="-0.05521">
        <ele>479.4</ele>
        <time>2022-02-12T09:55:45Z</time>
      </trkpt>
      <trkpt lat="43.07745" lon="-0.05521">
        <ele>479.4</ele>
        <time>2022-02-12T09:55:46Z</time>
      </trkpt>
      <trkpt lat="43.07745" lon="-0.05521">
        <ele>479.4</ele>
        <time>2022-02-12T09:55:47Z</time>
      </trkpt>
      <trkpt lat="43.07745" lon="-0.05521">
        <ele>479.4</ele>
        <time>2022-02-12T09:55:48Z</time>
      </trkpt>
      <trkpt lat="43.07745" lon="-0.05521">
        <ele>479.4</ele>
        <time>2022-02-12T09:55:49Z</time>
      </trkpt>
      <trkpt lat="43.07745" lon="-0.05521">
        <ele>479.4</ele>
        <time>2022-02-12T09:55:50Z</time>
      </trkpt>
      <trkpt lat="43.07745" lon="-0.05521">
        <ele>479.4</ele>
        <time>2022-02-12T09:55:51Z</time>
      </trkpt>
      <trkpt lat="43.07745" lon="-0.05521">
        <ele>479.6</ele>
        <time>2022-02-12T09:55:52Z</time>
      </trkpt>
      <trkpt lat="43.07745" lon="-0.05521">
        <ele>479.6</ele>
        <time>2022-02-12T09:55:53Z</time>
      </trkpt>
      <trkpt lat="43.07745" lon="-0.05521">
        <ele>479.6</ele>
        <time>2022-02-12T09:55:54Z</time>
      </trkpt>
      <trkpt lat="43.07745" lon="-0.05521">
        <ele>479.6</ele>
        <time>2022-02-12T09:55:55Z</time>
      </trkpt>
      <trkpt lat="43.07745" lon="-0.05519">
        <ele>479.8</ele>
        <time>2022-02-12T09:55:56Z</time>
      </trkpt>
      <trkpt lat="43.07745" lon="-0.05519">
        <ele>479.8</ele>
        <time>2022-02-12T09:55:57Z</time>
      </trkpt>
      <trkpt lat="43.07746" lon="-0.05518">
        <ele>479.8</ele>
        <time>2022-02-12T09:55:58Z</time>
      </trkpt>
      <trkpt lat="43.07746" lon="-0.05518">
        <ele>479.8</ele>
        <time>2022-02-12T09:55:59Z</time>
      </trkpt>
      <trkpt lat="43.07747" lon="-0.05517">
        <ele>479.8</ele>
        <time>2022-02-12T09:56:00Z</time>
      </trkpt>
      <trkpt lat="43.07747" lon="-0.05517">
        <ele>479.8</ele>
        <time>2022-02-12T09:56:01Z</time>
      </trkpt>
      <trkpt lat="43.07747" lon="-0.05517">
        <ele>480</ele>
        <time>2022-02-12T09:56:02Z</time>
      </trkpt>
      <trkpt lat="43.07748" lon="-0.05517">
        <ele>480</ele>
        <time>2022-02-12T09:56:03Z</time>
      </trkpt>
      <trkpt lat="43.07748" lon="-0.05517">
        <ele>480</ele>
        <time>2022-02-12T09:56:04Z</time>
      </trkpt>
      <trkpt lat="43.07748" lon="-0.05517">
        <ele>479.8</ele>
        <time>2022-02-12T09:56:05Z</time>
      </trkpt>
      <trkpt lat="43.07748" lon="-0.05517">
        <ele>479.8</ele>
        <time>2022-02-12T09:56:06Z</time>
      </trkpt>
      <trkpt lat="43.07749" lon="-0.05516">
        <ele>479.8</ele>
        <time>2022-02-12T09:56:07Z</time>
      </trkpt>
      <trkpt lat="43.0775" lon="-0.05515">
        <ele>479.8</ele>
        <time>2022-02-12T09:56:08Z</time>
      </trkpt>
      <trkpt lat="43.07751" lon="-0.05514">
        <ele>479.8</ele>
        <time>2022-02-12T09:56:09Z</time>
      </trkpt>
      <trkpt lat="43.07752" lon="-0.05513">
        <ele>479.6</ele>
        <time>2022-02-12T09:56:10Z</time>
      </trkpt>
      <trkpt lat="43.07753" lon="-0.05512">
        <ele>479.6</ele>
        <time>2022-02-12T09:56:11Z</time>
      </trkpt>
      <trkpt lat="43.07753" lon="-0.05512">
        <ele>479.6</ele>
        <time>2022-02-12T09:56:12Z</time>
      </trkpt>
      <trkpt lat="43.07755" lon="-0.05511">
        <ele>479.4</ele>
        <time>2022-02-12T09:56:13Z</time>
      </trkpt>
      <trkpt lat="43.07756" lon="-0.0551">
        <ele>479.4</ele>
        <time>2022-02-12T09:56:14Z</time>
      </trkpt>
      <trkpt lat="43.07757" lon="-0.05509">
        <ele>479.4</ele>
        <time>2022-02-12T09:56:15Z</time>
      </trkpt>
      <trkpt lat="43.07759" lon="-0.05508">
        <ele>479.4</ele>
        <time>2022-02-12T09:56:16Z</time>
      </trkpt>
      <trkpt lat="43.0776" lon="-0.05507">
        <ele>479.4</ele>
        <time>2022-02-12T09:56:17Z</time>
      </trkpt>
      <trkpt lat="43.07762" lon="-0.05506">
        <ele>479.4</ele>
        <time>2022-02-12T09:56:18Z</time>
      </trkpt>
      <trkpt lat="43.07763" lon="-0.05505">
        <ele>479.4</ele>
        <time>2022-02-12T09:56:19Z</time>
      </trkpt>
      <trkpt lat="43.07765" lon="-0.05504">
        <ele>479.4</ele>
        <time>2022-02-12T09:56:20Z</time>
      </trkpt>
      <trkpt lat="43.07767" lon="-0.05502">
        <ele>479.4</ele>
        <time>2022-02-12T09:56:21Z</time>
      </trkpt>
      <trkpt lat="43.07769" lon="-0.055">
        <ele>479.4</ele>
        <time>2022-02-12T09:56:22Z</time>
      </trkpt>
      <trkpt lat="43.0777" lon="-0.05499">
        <ele>479.4</ele>
        <time>2022-02-12T09:56:23Z</time>
      </trkpt>
      <trkpt lat="43.07771" lon="-0.05497">
        <ele>479.6</ele>
        <time>2022-02-12T09:56:24Z</time>
      </trkpt>
      <trkpt lat="43.07773" lon="-0.05495">
        <ele>479.6</ele>
        <time>2022-02-12T09:56:25Z</time>
      </trkpt>
      <trkpt lat="43.07774" lon="-0.05494">
        <ele>479.6</ele>
        <time>2022-02-12T09:56:26Z</time>
      </trkpt>
      <trkpt lat="43.07776" lon="-0.05492">
        <ele>479.6</ele>
        <time>2022-02-12T09:56:27Z</time>
      </trkpt>
      <trkpt lat="43.07777" lon="-0.05491">
        <ele>479.6</ele>
        <time>2022-02-12T09:56:28Z</time>
      </trkpt>
      <trkpt lat="43.07779" lon="-0.05489">
        <ele>479.6</ele>
        <time>2022-02-12T09:56:29Z</time>
      </trkpt>
      <trkpt lat="43.0778" lon="-0.05488">
        <ele>479.6</ele>
        <time>2022-02-12T09:56:30Z</time>
      </trkpt>
      <trkpt lat="43.0778" lon="-0.05488">
        <ele>479.6</ele>
        <time>2022-02-12T09:56:31Z</time>
      </trkpt>
      <trkpt lat="43.0778" lon="-0.05488">
        <ele>479.6</ele>
        <time>2022-02-12T09:56:32Z</time>
      </trkpt>
      <trkpt lat="43.07781" lon="-0.05488">
        <ele>479.6</ele>
        <time>2022-02-12T09:56:33Z</time>
      </trkpt>
      <trkpt lat="43.07781" lon="-0.05488">
        <ele>479.6</ele>
        <time>2022-02-12T09:56:34Z</time>
      </trkpt>
      <trkpt lat="43.07782" lon="-0.05487">
        <ele>479.6</ele>
        <time>2022-02-12T09:56:35Z</time>
      </trkpt>
      <trkpt lat="43.07783" lon="-0.05486">
        <ele>479.6</ele>
        <time>2022-02-12T09:56:36Z</time>
      </trkpt>
      <trkpt lat="43.07784" lon="-0.05485">
        <ele>479.6</ele>
        <time>2022-02-12T09:56:37Z</time>
      </trkpt>
      <trkpt lat="43.07785" lon="-0.05483">
        <ele>479.6</ele>
        <time>2022-02-12T09:56:38Z</time>
      </trkpt>
      <trkpt lat="43.07785" lon="-0.05482">
        <ele>479.4</ele>
        <time>2022-02-12T09:56:39Z</time>
      </trkpt>
      <trkpt lat="43.07785" lon="-0.05482">
        <ele>479</ele>
        <time>2022-02-12T09:56:40Z</time>
      </trkpt>
      <trkpt lat="43.07785" lon="-0.05482">
        <ele>478.8</ele>
        <time>2022-02-12T09:56:41Z</time>
      </trkpt>
      <trkpt lat="43.07785" lon="-0.05482">
        <ele>478.8</ele>
        <time>2022-02-12T09:56:42Z</time>
      </trkpt>
      <trkpt lat="43.07785" lon="-0.05482">
        <ele>478.6</ele>
        <time>2022-02-12T09:56:43Z</time>
      </trkpt>
      <trkpt lat="43.07785" lon="-0.05482">
        <ele>478.6</ele>
        <time>2022-02-12T09:56:44Z</time>
      </trkpt>
      <trkpt lat="43.07786" lon="-0.05482">
        <ele>478.6</ele>
        <time>2022-02-12T09:56:45Z</time>
      </trkpt>
      <trkpt lat="43.07786" lon="-0.05482">
        <ele>478.6</ele>
        <time>2022-02-12T09:56:46Z</time>
      </trkpt>
      <trkpt lat="43.07786" lon="-0.05482">
        <ele>478.6</ele>
        <time>2022-02-12T09:56:47Z</time>
      </trkpt>
      <trkpt lat="43.07786" lon="-0.05482">
        <ele>478.6</ele>
        <time>2022-02-12T09:56:48Z</time>
      </trkpt>
      <trkpt lat="43.07787" lon="-0.05482">
        <ele>478.6</ele>
        <time>2022-02-12T09:56:49Z</time>
      </trkpt>
      <trkpt lat="43.07787" lon="-0.05482">
        <ele>478.6</ele>
        <time>2022-02-12T09:56:50Z</time>
      </trkpt>
      <trkpt lat="43.07787" lon="-0.05481">
        <ele>478.6</ele>
        <time>2022-02-12T09:56:51Z</time>
      </trkpt>
      <trkpt lat="43.07788" lon="-0.05481">
        <ele>478.6</ele>
        <time>2022-02-12T09:56:52Z</time>
      </trkpt>
      <trkpt lat="43.07788" lon="-0.05481">
        <ele>478.6</ele>
        <time>2022-02-12T09:56:53Z</time>
      </trkpt>
      <trkpt lat="43.07788" lon="-0.05481">
        <ele>478.6</ele>
        <time>2022-02-12T09:56:54Z</time>
      </trkpt>
      <trkpt lat="43.07788" lon="-0.0548">
        <ele>478.6</ele>
        <time>2022-02-12T09:56:55Z</time>
      </trkpt>
      <trkpt lat="43.0779" lon="-0.05479">
        <ele>478.6</ele>
        <time>2022-02-12T09:56:56Z</time>
      </trkpt>
      <trkpt lat="43.07791" lon="-0.05478">
        <ele>478.6</ele>
        <time>2022-02-12T09:56:57Z</time>
      </trkpt>
      <trkpt lat="43.07792" lon="-0.05477">
        <ele>478.8</ele>
        <time>2022-02-12T09:56:58Z</time>
      </trkpt>
      <trkpt lat="43.07793" lon="-0.05476">
        <ele>478.8</ele>
        <time>2022-02-12T09:56:59Z</time>
      </trkpt>
      <trkpt lat="43.07793" lon="-0.05475">
        <ele>478.8</ele>
        <time>2022-02-12T09:57:00Z</time>
      </trkpt>
      <trkpt lat="43.07794" lon="-0.05475">
        <ele>478.8</ele>
        <time>2022-02-12T09:57:01Z</time>
      </trkpt>
      <trkpt lat="43.07794" lon="-0.05474">
        <ele>478.6</ele>
        <time>2022-02-12T09:57:02Z</time>
      </trkpt>
      <trkpt lat="43.07795" lon="-0.05473">
        <ele>478.6</ele>
        <time>2022-02-12T09:57:03Z</time>
      </trkpt>
      <trkpt lat="43.07795" lon="-0.05472">
        <ele>478.6</ele>
        <time>2022-02-12T09:57:04Z</time>
      </trkpt>
      <trkpt lat="43.07796" lon="-0.05472">
        <ele>478.6</ele>
        <time>2022-02-12T09:57:05Z</time>
      </trkpt>
      <trkpt lat="43.07796" lon="-0.05472">
        <ele>478.4</ele>
        <time>2022-02-12T09:57:06Z</time>
      </trkpt>
      <trkpt lat="43.07796" lon="-0.05472">
        <ele>478.4</ele>
        <time>2022-02-12T09:57:07Z</time>
      </trkpt>
      <trkpt lat="43.07796" lon="-0.05472">
        <ele>478.4</ele>
        <time>2022-02-12T09:57:08Z</time>
      </trkpt>
      <trkpt lat="43.07798" lon="-0.05471">
        <ele>478.4</ele>
        <time>2022-02-12T09:57:09Z</time>
      </trkpt>
      <trkpt lat="43.078" lon="-0.0547">
        <ele>478.4</ele>
        <time>2022-02-12T09:57:10Z</time>
      </trkpt>
      <trkpt lat="43.07801" lon="-0.05468">
        <ele>478.4</ele>
        <time>2022-02-12T09:57:11Z</time>
      </trkpt>
      <trkpt lat="43.07803" lon="-0.05466">
        <ele>478.4</ele>
        <time>2022-02-12T09:57:12Z</time>
      </trkpt>
      <trkpt lat="43.07803" lon="-0.05466">
        <ele>478.4</ele>
        <time>2022-02-12T09:57:13Z</time>
      </trkpt>
      <trkpt lat="43.07805" lon="-0.05463">
        <ele>478.4</ele>
        <time>2022-02-12T09:57:14Z</time>
      </trkpt>
      <trkpt lat="43.07807" lon="-0.05462">
        <ele>478.6</ele>
        <time>2022-02-12T09:57:15Z</time>
      </trkpt>
      <trkpt lat="43.07808" lon="-0.05461">
        <ele>478.6</ele>
        <time>2022-02-12T09:57:16Z</time>
      </trkpt>
      <trkpt lat="43.07809" lon="-0.0546">
        <ele>478.6</ele>
        <time>2022-02-12T09:57:17Z</time>
      </trkpt>
      <trkpt lat="43.07809" lon="-0.0546">
        <ele>478.6</ele>
        <time>2022-02-12T09:57:18Z</time>
      </trkpt>
      <trkpt lat="43.07811" lon="-0.05458">
        <ele>478.6</ele>
        <time>2022-02-12T09:57:19Z</time>
      </trkpt>
      <trkpt lat="43.07812" lon="-0.05457">
        <ele>478.8</ele>
        <time>2022-02-12T09:57:20Z</time>
      </trkpt>
      <trkpt lat="43.07813" lon="-0.05456">
        <ele>478.8</ele>
        <time>2022-02-12T09:57:21Z</time>
      </trkpt>
      <trkpt lat="43.07813" lon="-0.05455">
        <ele>478.8</ele>
        <time>2022-02-12T09:57:22Z</time>
      </trkpt>
      <trkpt lat="43.07813" lon="-0.05455">
        <ele>478.8</ele>
        <time>2022-02-12T09:57:23Z</time>
      </trkpt>
      <trkpt lat="43.07814" lon="-0.05454">
        <ele>478.8</ele>
        <time>2022-02-12T09:57:24Z</time>
      </trkpt>
      <trkpt lat="43.07816" lon="-0.05453">
        <ele>478.8</ele>
        <time>2022-02-12T09:57:25Z</time>
      </trkpt>
      <trkpt lat="43.07816" lon="-0.05453">
        <ele>478.8</ele>
        <time>2022-02-12T09:57:26Z</time>
      </trkpt>
      <trkpt lat="43.07816" lon="-0.05453">
        <ele>479</ele>
        <time>2022-02-12T09:57:27Z</time>
      </trkpt>
      <trkpt lat="43.07816" lon="-0.05453">
        <ele>479</ele>
        <time>2022-02-12T09:57:28Z</time>
      </trkpt>
      <trkpt lat="43.07816" lon="-0.05453">
        <ele>479.6</ele>
        <time>2022-02-12T09:57:29Z</time>
      </trkpt>
      <trkpt lat="43.07816" lon="-0.05453">
        <ele>480</ele>
        <time>2022-02-12T09:57:30Z</time>
      </trkpt>
      <trkpt lat="43.07816" lon="-0.05452">
        <ele>480</ele>
        <time>2022-02-12T09:57:31Z</time>
      </trkpt>
      <trkpt lat="43.07817" lon="-0.05452">
        <ele>480.2</ele>
        <time>2022-02-12T09:57:32Z</time>
      </trkpt>
      <trkpt lat="43.07817" lon="-0.05452">
        <ele>480.2</ele>
        <time>2022-02-12T09:57:33Z</time>
      </trkpt>
      <trkpt lat="43.07818" lon="-0.05451">
        <ele>480.4</ele>
        <time>2022-02-12T09:57:34Z</time>
      </trkpt>
      <trkpt lat="43.07818" lon="-0.05451">
        <ele>480.4</ele>
        <time>2022-02-12T09:57:35Z</time>
      </trkpt>
      <trkpt lat="43.07818" lon="-0.05451">
        <ele>480.4</ele>
        <time>2022-02-12T09:57:36Z</time>
      </trkpt>
      <trkpt lat="43.07819" lon="-0.0545">
        <ele>480.4</ele>
        <time>2022-02-12T09:57:37Z</time>
      </trkpt>
      <trkpt lat="43.0782" lon="-0.05449">
        <ele>480.4</ele>
        <time>2022-02-12T09:57:38Z</time>
      </trkpt>
      <trkpt lat="43.0782" lon="-0.05448">
        <ele>480.4</ele>
        <time>2022-02-12T09:57:39Z</time>
      </trkpt>
      <trkpt lat="43.07821" lon="-0.05448">
        <ele>480.6</ele>
        <time>2022-02-12T09:57:40Z</time>
      </trkpt>
      <trkpt lat="43.07822" lon="-0.05447">
        <ele>480.6</ele>
        <time>2022-02-12T09:57:41Z</time>
      </trkpt>
      <trkpt lat="43.07823" lon="-0.05446">
        <ele>480.6</ele>
        <time>2022-02-12T09:57:42Z</time>
      </trkpt>
      <trkpt lat="43.07824" lon="-0.05445">
        <ele>480.6</ele>
        <time>2022-02-12T09:57:43Z</time>
      </trkpt>
      <trkpt lat="43.07825" lon="-0.05443">
        <ele>480.6</ele>
        <time>2022-02-12T09:57:44Z</time>
      </trkpt>
      <trkpt lat="43.07827" lon="-0.05441">
        <ele>480.6</ele>
        <time>2022-02-12T09:57:45Z</time>
      </trkpt>
      <trkpt lat="43.07828" lon="-0.05439">
        <ele>480.6</ele>
        <time>2022-02-12T09:57:46Z</time>
      </trkpt>
      <trkpt lat="43.0783" lon="-0.05437">
        <ele>480.6</ele>
        <time>2022-02-12T09:57:47Z</time>
      </trkpt>
      <trkpt lat="43.07832" lon="-0.05435">
        <ele>480.6</ele>
        <time>2022-02-12T09:57:48Z</time>
      </trkpt>
      <trkpt lat="43.07833" lon="-0.05433">
        <ele>480.6</ele>
        <time>2022-02-12T09:57:49Z</time>
      </trkpt>
      <trkpt lat="43.07835" lon="-0.05431">
        <ele>480.6</ele>
        <time>2022-02-12T09:57:50Z</time>
      </trkpt>
      <trkpt lat="43.07836" lon="-0.0543">
        <ele>480.6</ele>
        <time>2022-02-12T09:57:51Z</time>
      </trkpt>
      <trkpt lat="43.07838" lon="-0.05429">
        <ele>480.2</ele>
        <time>2022-02-12T09:57:52Z</time>
      </trkpt>
      <trkpt lat="43.07839" lon="-0.05428">
        <ele>479.8</ele>
        <time>2022-02-12T09:57:53Z</time>
      </trkpt>
      <trkpt lat="43.07841" lon="-0.05427">
        <ele>479.4</ele>
        <time>2022-02-12T09:57:54Z</time>
      </trkpt>
      <trkpt lat="43.07843" lon="-0.05425">
        <ele>479.2</ele>
        <time>2022-02-12T09:57:55Z</time>
      </trkpt>
      <trkpt lat="43.07846" lon="-0.05424">
        <ele>479</ele>
        <time>2022-02-12T09:57:56Z</time>
      </trkpt>
      <trkpt lat="43.07847" lon="-0.05423">
        <ele>478.6</ele>
        <time>2022-02-12T09:57:57Z</time>
      </trkpt>
      <trkpt lat="43.07847" lon="-0.05423">
        <ele>478.4</ele>
        <time>2022-02-12T09:57:58Z</time>
      </trkpt>
      <trkpt lat="43.0785" lon="-0.05421">
        <ele>478.2</ele>
        <time>2022-02-12T09:57:59Z</time>
      </trkpt>
      <trkpt lat="43.07852" lon="-0.0542">
        <ele>478</ele>
        <time>2022-02-12T09:58:00Z</time>
      </trkpt>
      <trkpt lat="43.07854" lon="-0.05418">
        <ele>477.8</ele>
        <time>2022-02-12T09:58:01Z</time>
      </trkpt>
      <trkpt lat="43.07856" lon="-0.05417">
        <ele>477.8</ele>
        <time>2022-02-12T09:58:02Z</time>
      </trkpt>
      <trkpt lat="43.07858" lon="-0.05415">
        <ele>477.6</ele>
        <time>2022-02-12T09:58:03Z</time>
      </trkpt>
      <trkpt lat="43.0786" lon="-0.05415">
        <ele>477.4</ele>
        <time>2022-02-12T09:58:04Z</time>
      </trkpt>
      <trkpt lat="43.07862" lon="-0.05414">
        <ele>477.4</ele>
        <time>2022-02-12T09:58:05Z</time>
      </trkpt>
      <trkpt lat="43.07863" lon="-0.05413">
        <ele>477.2</ele>
        <time>2022-02-12T09:58:06Z</time>
      </trkpt>
      <trkpt lat="43.07864" lon="-0.05413">
        <ele>477</ele>
        <time>2022-02-12T09:58:07Z</time>
      </trkpt>
      <trkpt lat="43.07865" lon="-0.05412">
        <ele>476.8</ele>
        <time>2022-02-12T09:58:08Z</time>
      </trkpt>
      <trkpt lat="43.07867" lon="-0.05411">
        <ele>476.8</ele>
        <time>2022-02-12T09:58:09Z</time>
      </trkpt>
      <trkpt lat="43.07867" lon="-0.05411">
        <ele>476.6</ele>
        <time>2022-02-12T09:58:10Z</time>
      </trkpt>
      <trkpt lat="43.07867" lon="-0.05411">
        <ele>476.6</ele>
        <time>2022-02-12T09:58:11Z</time>
      </trkpt>
      <trkpt lat="43.07867" lon="-0.05411">
        <ele>476.4</ele>
        <time>2022-02-12T09:58:12Z</time>
      </trkpt>
      <trkpt lat="43.07867" lon="-0.05411">
        <ele>476.2</ele>
        <time>2022-02-12T09:58:13Z</time>
      </trkpt>
      <trkpt lat="43.07867" lon="-0.05411">
        <ele>476.2</ele>
        <time>2022-02-12T09:58:14Z</time>
      </trkpt>
      <trkpt lat="43.07868" lon="-0.05411">
        <ele>476.2</ele>
        <time>2022-02-12T09:58:15Z</time>
      </trkpt>
      <trkpt lat="43.07868" lon="-0.05412">
        <ele>476.2</ele>
        <time>2022-02-12T09:58:16Z</time>
      </trkpt>
      <trkpt lat="43.07868" lon="-0.05412">
        <ele>476.2</ele>
        <time>2022-02-12T09:58:17Z</time>
      </trkpt>
      <trkpt lat="43.07869" lon="-0.05411">
        <ele>476.2</ele>
        <time>2022-02-12T09:58:18Z</time>
      </trkpt>
      <trkpt lat="43.07869" lon="-0.05411">
        <ele>476.2</ele>
        <time>2022-02-12T09:58:19Z</time>
      </trkpt>
      <trkpt lat="43.07869" lon="-0.05411">
        <ele>476.2</ele>
        <time>2022-02-12T09:58:20Z</time>
      </trkpt>
      <trkpt lat="43.07869" lon="-0.05411">
        <ele>476.4</ele>
        <time>2022-02-12T09:58:21Z</time>
      </trkpt>
      <trkpt lat="43.07869" lon="-0.05411">
        <ele>476.4</ele>
        <time>2022-02-12T09:58:22Z</time>
      </trkpt>
      <trkpt lat="43.07869" lon="-0.05411">
        <ele>476.6</ele>
        <time>2022-02-12T09:58:23Z</time>
      </trkpt>
      <trkpt lat="43.07869" lon="-0.05411">
        <ele>476.8</ele>
        <time>2022-02-12T09:58:24Z</time>
      </trkpt>
      <trkpt lat="43.07869" lon="-0.05411">
        <ele>476.8</ele>
        <time>2022-02-12T09:58:25Z</time>
      </trkpt>
      <trkpt lat="43.07869" lon="-0.05411">
        <ele>477.2</ele>
        <time>2022-02-12T09:58:26Z</time>
      </trkpt>
      <trkpt lat="43.07869" lon="-0.05411">
        <ele>477.2</ele>
        <time>2022-02-12T09:58:27Z</time>
      </trkpt>
      <trkpt lat="43.07869" lon="-0.05411">
        <ele>477.4</ele>
        <time>2022-02-12T09:58:28Z</time>
      </trkpt>
      <trkpt lat="43.07869" lon="-0.05411">
        <ele>477.4</ele>
        <time>2022-02-12T09:58:29Z</time>
      </trkpt>
      <trkpt lat="43.07869" lon="-0.05411">
        <ele>477.4</ele>
        <time>2022-02-12T09:58:30Z</time>
      </trkpt>
      <trkpt lat="43.0787" lon="-0.05411">
        <ele>477.6</ele>
        <time>2022-02-12T09:58:31Z</time>
      </trkpt>
      <trkpt lat="43.0787" lon="-0.05411">
        <ele>477.6</ele>
        <time>2022-02-12T09:58:32Z</time>
      </trkpt>
      <trkpt lat="43.0787" lon="-0.05411">
        <ele>477.8</ele>
        <time>2022-02-12T09:58:33Z</time>
      </trkpt>
      <trkpt lat="43.07872" lon="-0.05412">
        <ele>477.8</ele>
        <time>2022-02-12T09:58:34Z</time>
      </trkpt>
      <trkpt lat="43.07874" lon="-0.05412">
        <ele>477.8</ele>
        <time>2022-02-12T09:58:35Z</time>
      </trkpt>
      <trkpt lat="43.07876" lon="-0.05413">
        <ele>477.8</ele>
        <time>2022-02-12T09:58:36Z</time>
      </trkpt>
      <trkpt lat="43.07879" lon="-0.05414">
        <ele>477.8</ele>
        <time>2022-02-12T09:58:37Z</time>
      </trkpt>
      <trkpt lat="43.07881" lon="-0.05414">
        <ele>478</ele>
        <time>2022-02-12T09:58:38Z</time>
      </trkpt>
      <trkpt lat="43.07884" lon="-0.05414">
        <ele>478</ele>
        <time>2022-02-12T09:58:39Z</time>
      </trkpt>
      <trkpt lat="43.07886" lon="-0.05415">
        <ele>478.2</ele>
        <time>2022-02-12T09:58:40Z</time>
      </trkpt>
      <trkpt lat="43.07888" lon="-0.05415">
        <ele>478.2</ele>
        <time>2022-02-12T09:58:41Z</time>
      </trkpt>
      <trkpt lat="43.07891" lon="-0.05415">
        <ele>478.2</ele>
        <time>2022-02-12T09:58:42Z</time>
      </trkpt>
      <trkpt lat="43.07892" lon="-0.05415">
        <ele>478.4</ele>
        <time>2022-02-12T09:58:43Z</time>
      </trkpt>
      <trkpt lat="43.07894" lon="-0.05414">
        <ele>478.6</ele>
        <time>2022-02-12T09:58:44Z</time>
      </trkpt>
      <trkpt lat="43.07896" lon="-0.05413">
        <ele>478.6</ele>
        <time>2022-02-12T09:58:45Z</time>
      </trkpt>
      <trkpt lat="43.07898" lon="-0.05413">
        <ele>478.6</ele>
        <time>2022-02-12T09:58:46Z</time>
      </trkpt>
      <trkpt lat="43.079" lon="-0.05412">
        <ele>478.6</ele>
        <time>2022-02-12T09:58:47Z</time>
      </trkpt>
      <trkpt lat="43.07902" lon="-0.05411">
        <ele>478.8</ele>
        <time>2022-02-12T09:58:48Z</time>
      </trkpt>
      <trkpt lat="43.07904" lon="-0.0541">
        <ele>478.8</ele>
        <time>2022-02-12T09:58:49Z</time>
      </trkpt>
      <trkpt lat="43.07907" lon="-0.05409">
        <ele>478.8</ele>
        <time>2022-02-12T09:58:50Z</time>
      </trkpt>
      <trkpt lat="43.0791" lon="-0.05408">
        <ele>478.6</ele>
        <time>2022-02-12T09:58:51Z</time>
      </trkpt>
      <trkpt lat="43.07912" lon="-0.05407">
        <ele>478.6</ele>
        <time>2022-02-12T09:58:52Z</time>
      </trkpt>
      <trkpt lat="43.07915" lon="-0.05405">
        <ele>478.6</ele>
        <time>2022-02-12T09:58:53Z</time>
      </trkpt>
      <trkpt lat="43.07918" lon="-0.05403">
        <ele>478.6</ele>
        <time>2022-02-12T09:58:54Z</time>
      </trkpt>
      <trkpt lat="43.0792" lon="-0.05402">
        <ele>478.4</ele>
        <time>2022-02-12T09:58:55Z</time>
      </trkpt>
      <trkpt lat="43.07922" lon="-0.05401">
        <ele>478.4</ele>
        <time>2022-02-12T09:58:56Z</time>
      </trkpt>
      <trkpt lat="43.07923" lon="-0.054">
        <ele>478.4</ele>
        <time>2022-02-12T09:58:57Z</time>
      </trkpt>
      <trkpt lat="43.07924" lon="-0.05399">
        <ele>478.2</ele>
        <time>2022-02-12T09:58:58Z</time>
      </trkpt>
      <trkpt lat="43.07926" lon="-0.05398">
        <ele>478.2</ele>
        <time>2022-02-12T09:58:59Z</time>
      </trkpt>
      <trkpt lat="43.07928" lon="-0.05396">
        <ele>478.2</ele>
        <time>2022-02-12T09:59:00Z</time>
      </trkpt>
      <trkpt lat="43.0793" lon="-0.05394">
        <ele>478.2</ele>
        <time>2022-02-12T09:59:01Z</time>
      </trkpt>
      <trkpt lat="43.07933" lon="-0.05392">
        <ele>478.2</ele>
        <time>2022-02-12T09:59:02Z</time>
      </trkpt>
      <trkpt lat="43.07936" lon="-0.05389">
        <ele>478.2</ele>
        <time>2022-02-12T09:59:03Z</time>
      </trkpt>
      <trkpt lat="43.07937" lon="-0.05387">
        <ele>478.2</ele>
        <time>2022-02-12T09:59:04Z</time>
      </trkpt>
      <trkpt lat="43.07939" lon="-0.05384">
        <ele>478.2</ele>
        <time>2022-02-12T09:59:05Z</time>
      </trkpt>
      <trkpt lat="43.0794" lon="-0.05382">
        <ele>478.4</ele>
        <time>2022-02-12T09:59:06Z</time>
      </trkpt>
      <trkpt lat="43.0794" lon="-0.05382">
        <ele>478.4</ele>
        <time>2022-02-12T09:59:07Z</time>
      </trkpt>
      <trkpt lat="43.07943" lon="-0.05378">
        <ele>478.4</ele>
        <time>2022-02-12T09:59:08Z</time>
      </trkpt>
      <trkpt lat="43.07946" lon="-0.05376">
        <ele>478.6</ele>
        <time>2022-02-12T09:59:09Z</time>
      </trkpt>
      <trkpt lat="43.07947" lon="-0.05375">
        <ele>478.6</ele>
        <time>2022-02-12T09:59:10Z</time>
      </trkpt>
      <trkpt lat="43.07949" lon="-0.05373">
        <ele>478.8</ele>
        <time>2022-02-12T09:59:11Z</time>
      </trkpt>
      <trkpt lat="43.07951" lon="-0.05372">
        <ele>478.8</ele>
        <time>2022-02-12T09:59:12Z</time>
      </trkpt>
      <trkpt lat="43.07953" lon="-0.0537">
        <ele>478.8</ele>
        <time>2022-02-12T09:59:13Z</time>
      </trkpt>
      <trkpt lat="43.07956" lon="-0.05368">
        <ele>479</ele>
        <time>2022-02-12T09:59:14Z</time>
      </trkpt>
      <trkpt lat="43.07958" lon="-0.05367">
        <ele>479</ele>
        <time>2022-02-12T09:59:15Z</time>
      </trkpt>
      <trkpt lat="43.0796" lon="-0.05366">
        <ele>479.4</ele>
        <time>2022-02-12T09:59:16Z</time>
      </trkpt>
      <trkpt lat="43.07962" lon="-0.05367">
        <ele>479.4</ele>
        <time>2022-02-12T09:59:17Z</time>
      </trkpt>
      <trkpt lat="43.07965" lon="-0.05365">
        <ele>479.6</ele>
        <time>2022-02-12T09:59:18Z</time>
      </trkpt>
      <trkpt lat="43.07968" lon="-0.05363">
        <ele>479.6</ele>
        <time>2022-02-12T09:59:19Z</time>
      </trkpt>
      <trkpt lat="43.0797" lon="-0.05359">
        <ele>479.6</ele>
        <time>2022-02-12T09:59:20Z</time>
      </trkpt>
      <trkpt lat="43.07972" lon="-0.05355">
        <ele>479.6</ele>
        <time>2022-02-12T09:59:21Z</time>
      </trkpt>
      <trkpt lat="43.07977" lon="-0.05351">
        <ele>479.6</ele>
        <time>2022-02-12T09:59:22Z</time>
      </trkpt>
      <trkpt lat="43.07982" lon="-0.05348">
        <ele>479.6</ele>
        <time>2022-02-12T09:59:23Z</time>
      </trkpt>
      <trkpt lat="43.07986" lon="-0.05345">
        <ele>479.2</ele>
        <time>2022-02-12T09:59:24Z</time>
      </trkpt>
      <trkpt lat="43.07989" lon="-0.05345">
        <ele>479.2</ele>
        <time>2022-02-12T09:59:25Z</time>
      </trkpt>
      <trkpt lat="43.07991" lon="-0.05344">
        <ele>479</ele>
        <time>2022-02-12T09:59:26Z</time>
      </trkpt>
      <trkpt lat="43.07993" lon="-0.05344">
        <ele>479</ele>
        <time>2022-02-12T09:59:27Z</time>
      </trkpt>
      <trkpt lat="43.07995" lon="-0.05344">
        <ele>479</ele>
        <time>2022-02-12T09:59:28Z</time>
      </trkpt>
      <trkpt lat="43.07995" lon="-0.05344">
        <ele>479</ele>
        <time>2022-02-12T09:59:29Z</time>
      </trkpt>
      <trkpt lat="43.07999" lon="-0.05345">
        <ele>479</ele>
        <time>2022-02-12T09:59:30Z</time>
      </trkpt>
      <trkpt lat="43.08001" lon="-0.05346">
        <ele>479</ele>
        <time>2022-02-12T09:59:31Z</time>
      </trkpt>
      <trkpt lat="43.08003" lon="-0.05347">
        <ele>479</ele>
        <time>2022-02-12T09:59:32Z</time>
      </trkpt>
      <trkpt lat="43.08004" lon="-0.05348">
        <ele>479</ele>
        <time>2022-02-12T09:59:33Z</time>
      </trkpt>
      <trkpt lat="43.08006" lon="-0.05351">
        <ele>479</ele>
        <time>2022-02-12T09:59:34Z</time>
      </trkpt>
      <trkpt lat="43.08008" lon="-0.05352">
        <ele>479.2</ele>
        <time>2022-02-12T09:59:35Z</time>
      </trkpt>
      <trkpt lat="43.08009" lon="-0.05354">
        <ele>479.4</ele>
        <time>2022-02-12T09:59:36Z</time>
      </trkpt>
      <trkpt lat="43.08011" lon="-0.05355">
        <ele>479.6</ele>
        <time>2022-02-12T09:59:37Z</time>
      </trkpt>
      <trkpt lat="43.08013" lon="-0.05357">
        <ele>479.6</ele>
        <time>2022-02-12T09:59:38Z</time>
      </trkpt>
      <trkpt lat="43.08015" lon="-0.05358">
        <ele>479.8</ele>
        <time>2022-02-12T09:59:39Z</time>
      </trkpt>
      <trkpt lat="43.08016" lon="-0.05359">
        <ele>479.8</ele>
        <time>2022-02-12T09:59:40Z</time>
      </trkpt>
      <trkpt lat="43.08018" lon="-0.05361">
        <ele>480.2</ele>
        <time>2022-02-12T09:59:41Z</time>
      </trkpt>
      <trkpt lat="43.08018" lon="-0.05361">
        <ele>480.4</ele>
        <time>2022-02-12T09:59:42Z</time>
      </trkpt>
      <trkpt lat="43.08022" lon="-0.05363">
        <ele>480.6</ele>
        <time>2022-02-12T09:59:43Z</time>
      </trkpt>
      <trkpt lat="43.08024" lon="-0.05365">
        <ele>480.6</ele>
        <time>2022-02-12T09:59:44Z</time>
      </trkpt>
      <trkpt lat="43.08026" lon="-0.05365">
        <ele>480.8</ele>
        <time>2022-02-12T09:59:45Z</time>
      </trkpt>
      <trkpt lat="43.08028" lon="-0.05366">
        <ele>480.8</ele>
        <time>2022-02-12T09:59:46Z</time>
      </trkpt>
      <trkpt lat="43.08031" lon="-0.05366">
        <ele>481</ele>
        <time>2022-02-12T09:59:47Z</time>
      </trkpt>
      <trkpt lat="43.08033" lon="-0.05367">
        <ele>481</ele>
        <time>2022-02-12T09:59:48Z</time>
      </trkpt>
      <trkpt lat="43.08036" lon="-0.05367">
        <ele>481.2</ele>
        <time>2022-02-12T09:59:49Z</time>
      </trkpt>
      <trkpt lat="43.08039" lon="-0.05367">
        <ele>481.2</ele>
        <time>2022-02-12T09:59:50Z</time>
      </trkpt>
      <trkpt lat="43.08041" lon="-0.05367">
        <ele>481.4</ele>
        <time>2022-02-12T09:59:51Z</time>
      </trkpt>
      <trkpt lat="43.08044" lon="-0.05367">
        <ele>481.6</ele>
        <time>2022-02-12T09:59:52Z</time>
      </trkpt>
      <trkpt lat="43.08047" lon="-0.05366">
        <ele>481.6</ele>
        <time>2022-02-12T09:59:53Z</time>
      </trkpt>
      <trkpt lat="43.08049" lon="-0.05366">
        <ele>481.6</ele>
        <time>2022-02-12T09:59:54Z</time>
      </trkpt>
      <trkpt lat="43.08052" lon="-0.05365">
        <ele>481.6</ele>
        <time>2022-02-12T09:59:55Z</time>
      </trkpt>
      <trkpt lat="43.08054" lon="-0.05364">
        <ele>481.6</ele>
        <time>2022-02-12T09:59:56Z</time>
      </trkpt>
      <trkpt lat="43.08055" lon="-0.05363">
        <ele>481.6</ele>
        <time>2022-02-12T09:59:57Z</time>
      </trkpt>
      <trkpt lat="43.08057" lon="-0.05362">
        <ele>481.6</ele>
        <time>2022-02-12T09:59:58Z</time>
      </trkpt>
      <trkpt lat="43.08058" lon="-0.05361">
        <ele>481.6</ele>
        <time>2022-02-12T09:59:59Z</time>
      </trkpt>
      <trkpt lat="43.0806" lon="-0.0536">
        <ele>481.4</ele>
        <time>2022-02-12T10:00:00Z</time>
      </trkpt>
      <trkpt lat="43.08062" lon="-0.0536">
        <ele>481.4</ele>
        <time>2022-02-12T10:00:01Z</time>
      </trkpt>
      <trkpt lat="43.08064" lon="-0.05361">
        <ele>481</ele>
        <time>2022-02-12T10:00:02Z</time>
      </trkpt>
      <trkpt lat="43.08065" lon="-0.05362">
        <ele>481</ele>
        <time>2022-02-12T10:00:03Z</time>
      </trkpt>
      <trkpt lat="43.08067" lon="-0.05363">
        <ele>480.8</ele>
        <time>2022-02-12T10:00:04Z</time>
      </trkpt>
      <trkpt lat="43.08067" lon="-0.05363">
        <ele>480.6</ele>
        <time>2022-02-12T10:00:05Z</time>
      </trkpt>
      <trkpt lat="43.08068" lon="-0.05364">
        <ele>480.2</ele>
        <time>2022-02-12T10:00:06Z</time>
      </trkpt>
      <trkpt lat="43.08069" lon="-0.05365">
        <ele>480</ele>
        <time>2022-02-12T10:00:07Z</time>
      </trkpt>
      <trkpt lat="43.0807" lon="-0.05366">
        <ele>479.6</ele>
        <time>2022-02-12T10:00:08Z</time>
      </trkpt>
      <trkpt lat="43.08071" lon="-0.05367">
        <ele>479.4</ele>
        <time>2022-02-12T10:00:09Z</time>
      </trkpt>
      <trkpt lat="43.08072" lon="-0.05369">
        <ele>479</ele>
        <time>2022-02-12T10:00:10Z</time>
      </trkpt>
      <trkpt lat="43.08074" lon="-0.05369">
        <ele>478.8</ele>
        <time>2022-02-12T10:00:11Z</time>
      </trkpt>
      <trkpt lat="43.08075" lon="-0.0537">
        <ele>478.4</ele>
        <time>2022-02-12T10:00:12Z</time>
      </trkpt>
      <trkpt lat="43.08076" lon="-0.0537">
        <ele>478</ele>
        <time>2022-02-12T10:00:13Z</time>
      </trkpt>
      <trkpt lat="43.08076" lon="-0.0537">
        <ele>477.6</ele>
        <time>2022-02-12T10:00:14Z</time>
      </trkpt>
      <trkpt lat="43.08077" lon="-0.0537">
        <ele>477.4</ele>
        <time>2022-02-12T10:00:15Z</time>
      </trkpt>
      <trkpt lat="43.08078" lon="-0.0537">
        <ele>476.8</ele>
        <time>2022-02-12T10:00:16Z</time>
      </trkpt>
      <trkpt lat="43.08078" lon="-0.0537">
        <ele>476.2</ele>
        <time>2022-02-12T10:00:17Z</time>
      </trkpt>
      <trkpt lat="43.08078" lon="-0.0537">
        <ele>475.8</ele>
        <time>2022-02-12T10:00:18Z</time>
      </trkpt>
      <trkpt lat="43.08078" lon="-0.0537">
        <ele>475.6</ele>
        <time>2022-02-12T10:00:19Z</time>
      </trkpt>
      <trkpt lat="43.0808" lon="-0.05369">
        <ele>475.2</ele>
        <time>2022-02-12T10:00:20Z</time>
      </trkpt>
      <trkpt lat="43.0808" lon="-0.05369">
        <ele>474.8</ele>
        <time>2022-02-12T10:00:21Z</time>
      </trkpt>
      <trkpt lat="43.08082" lon="-0.0537">
        <ele>474.8</ele>
        <time>2022-02-12T10:00:22Z</time>
      </trkpt>
      <trkpt lat="43.08082" lon="-0.0537">
        <ele>474.6</ele>
        <time>2022-02-12T10:00:23Z</time>
      </trkpt>
      <trkpt lat="43.08084" lon="-0.0537">
        <ele>474.6</ele>
        <time>2022-02-12T10:00:24Z</time>
      </trkpt>
      <trkpt lat="43.08086" lon="-0.05369">
        <ele>474.4</ele>
        <time>2022-02-12T10:00:25Z</time>
      </trkpt>
      <trkpt lat="43.08088" lon="-0.05368">
        <ele>474.4</ele>
        <time>2022-02-12T10:00:26Z</time>
      </trkpt>
      <trkpt lat="43.0809" lon="-0.05367">
        <ele>474.2</ele>
        <time>2022-02-12T10:00:27Z</time>
      </trkpt>
      <trkpt lat="43.08093" lon="-0.05366">
        <ele>474.2</ele>
        <time>2022-02-12T10:00:28Z</time>
      </trkpt>
      <trkpt lat="43.08096" lon="-0.05365">
        <ele>474</ele>
        <time>2022-02-12T10:00:29Z</time>
      </trkpt>
      <trkpt lat="43.08098" lon="-0.05364">
        <ele>474</ele>
        <time>2022-02-12T10:00:30Z</time>
      </trkpt>
      <trkpt lat="43.08099" lon="-0.05364">
        <ele>473.6</ele>
        <time>2022-02-12T10:00:31Z</time>
      </trkpt>
      <trkpt lat="43.08104" lon="-0.05363">
        <ele>473.4</ele>
        <time>2022-02-12T10:00:32Z</time>
      </trkpt>
      <trkpt lat="43.08106" lon="-0.05361">
        <ele>473</ele>
        <time>2022-02-12T10:00:33Z</time>
      </trkpt>
      <trkpt lat="43.08107" lon="-0.05359">
        <ele>472.8</ele>
        <time>2022-02-12T10:00:34Z</time>
      </trkpt>
      <trkpt lat="43.08109" lon="-0.05357">
        <ele>472.6</ele>
        <time>2022-02-12T10:00:35Z</time>
      </trkpt>
      <trkpt lat="43.08113" lon="-0.05354">
        <ele>472.4</ele>
        <time>2022-02-12T10:00:36Z</time>
      </trkpt>
      <trkpt lat="43.08116" lon="-0.0535">
        <ele>472</ele>
        <time>2022-02-12T10:00:37Z</time>
      </trkpt>
      <trkpt lat="43.08121" lon="-0.05346">
        <ele>471.8</ele>
        <time>2022-02-12T10:00:38Z</time>
      </trkpt>
      <trkpt lat="43.08127" lon="-0.05341">
        <ele>471.2</ele>
        <time>2022-02-12T10:00:39Z</time>
      </trkpt>
      <trkpt lat="43.08133" lon="-0.05336">
        <ele>470.2</ele>
        <time>2022-02-12T10:00:40Z</time>
      </trkpt>
      <trkpt lat="43.08137" lon="-0.0533">
        <ele>469.8</ele>
        <time>2022-02-12T10:00:41Z</time>
      </trkpt>
      <trkpt lat="43.08141" lon="-0.05326">
        <ele>469.4</ele>
        <time>2022-02-12T10:00:42Z</time>
      </trkpt>
      <trkpt lat="43.08144" lon="-0.05323">
        <ele>469.2</ele>
        <time>2022-02-12T10:00:43Z</time>
      </trkpt>
      <trkpt lat="43.08146" lon="-0.0532">
        <ele>468.6</ele>
        <time>2022-02-12T10:00:44Z</time>
      </trkpt>
      <trkpt lat="43.08147" lon="-0.05317">
        <ele>468.2</ele>
        <time>2022-02-12T10:00:45Z</time>
      </trkpt>
      <trkpt lat="43.08147" lon="-0.05317">
        <ele>467.8</ele>
        <time>2022-02-12T10:00:46Z</time>
      </trkpt>
      <trkpt lat="43.08149" lon="-0.05313">
        <ele>467.6</ele>
        <time>2022-02-12T10:00:47Z</time>
      </trkpt>
      <trkpt lat="43.0815" lon="-0.05311">
        <ele>467.4</ele>
        <time>2022-02-12T10:00:48Z</time>
      </trkpt>
      <trkpt lat="43.08151" lon="-0.0531">
        <ele>467.4</ele>
        <time>2022-02-12T10:00:49Z</time>
      </trkpt>
      <trkpt lat="43.08152" lon="-0.05309">
        <ele>467.2</ele>
        <time>2022-02-12T10:00:50Z</time>
      </trkpt>
      <trkpt lat="43.08154" lon="-0.05308">
        <ele>467</ele>
        <time>2022-02-12T10:00:51Z</time>
      </trkpt>
      <trkpt lat="43.08155" lon="-0.05307">
        <ele>466.4</ele>
        <time>2022-02-12T10:00:52Z</time>
      </trkpt>
      <trkpt lat="43.08157" lon="-0.05306">
        <ele>466</ele>
        <time>2022-02-12T10:00:53Z</time>
      </trkpt>
      <trkpt lat="43.08158" lon="-0.05306">
        <ele>465.6</ele>
        <time>2022-02-12T10:00:54Z</time>
      </trkpt>
      <trkpt lat="43.08158" lon="-0.05305">
        <ele>465.2</ele>
        <time>2022-02-12T10:00:55Z</time>
      </trkpt>
      <trkpt lat="43.08159" lon="-0.05303">
        <ele>464.6</ele>
        <time>2022-02-12T10:00:56Z</time>
      </trkpt>
      <trkpt lat="43.08159" lon="-0.05302">
        <ele>464.4</ele>
        <time>2022-02-12T10:00:57Z</time>
      </trkpt>
      <trkpt lat="43.0816" lon="-0.05301">
        <ele>463.8</ele>
        <time>2022-02-12T10:00:58Z</time>
      </trkpt>
      <trkpt lat="43.08161" lon="-0.053">
        <ele>463.8</ele>
        <time>2022-02-12T10:00:59Z</time>
      </trkpt>
      <trkpt lat="43.08161" lon="-0.053">
        <ele>463.4</ele>
        <time>2022-02-12T10:01:00Z</time>
      </trkpt>
      <trkpt lat="43.08161" lon="-0.053">
        <ele>463.2</ele>
        <time>2022-02-12T10:01:01Z</time>
      </trkpt>
      <trkpt lat="43.08161" lon="-0.053">
        <ele>462.4</ele>
        <time>2022-02-12T10:01:02Z</time>
      </trkpt>
      <trkpt lat="43.08161" lon="-0.05299">
        <ele>462.2</ele>
        <time>2022-02-12T10:01:03Z</time>
      </trkpt>
      <trkpt lat="43.08162" lon="-0.05298">
        <ele>461.2</ele>
        <time>2022-02-12T10:01:04Z</time>
      </trkpt>
      <trkpt lat="43.08162" lon="-0.05297">
        <ele>460.8</ele>
        <time>2022-02-12T10:01:05Z</time>
      </trkpt>
      <trkpt lat="43.08162" lon="-0.05297">
        <ele>460.6</ele>
        <time>2022-02-12T10:01:06Z</time>
      </trkpt>
      <trkpt lat="43.08162" lon="-0.05297">
        <ele>460.4</ele>
        <time>2022-02-12T10:01:07Z</time>
      </trkpt>
      <trkpt lat="43.08162" lon="-0.05297">
        <ele>460.4</ele>
        <time>2022-02-12T10:01:08Z</time>
      </trkpt>
      <trkpt lat="43.08162" lon="-0.05297">
        <ele>460.4</ele>
        <time>2022-02-12T10:01:09Z</time>
      </trkpt>
      <trkpt lat="43.08162" lon="-0.05297">
        <ele>460.2</ele>
        <time>2022-02-12T10:01:10Z</time>
      </trkpt>
      <trkpt lat="43.08162" lon="-0.05297">
        <ele>460.2</ele>
        <time>2022-02-12T10:01:11Z</time>
      </trkpt>
      <trkpt lat="43.08162" lon="-0.05297">
        <ele>460.2</ele>
        <time>2022-02-12T10:01:12Z</time>
      </trkpt>
      <trkpt lat="43.08162" lon="-0.05297">
        <ele>460</ele>
        <time>2022-02-12T10:01:13Z</time>
      </trkpt>
      <trkpt lat="43.08162" lon="-0.05297">
        <ele>460</ele>
        <time>2022-02-12T10:01:14Z</time>
      </trkpt>
      <trkpt lat="43.08162" lon="-0.05297">
        <ele>460</ele>
        <time>2022-02-12T10:01:15Z</time>
      </trkpt>
      <trkpt lat="43.08162" lon="-0.05297">
        <ele>460</ele>
        <time>2022-02-12T10:01:16Z</time>
      </trkpt>
      <trkpt lat="43.08162" lon="-0.05297">
        <ele>460</ele>
        <time>2022-02-12T10:01:17Z</time>
      </trkpt>
      <trkpt lat="43.08162" lon="-0.05297">
        <ele>460</ele>
        <time>2022-02-12T10:01:18Z</time>
      </trkpt>
      <trkpt lat="43.08163" lon="-0.05296">
        <ele>459.8</ele>
        <time>2022-02-12T10:01:19Z</time>
      </trkpt>
      <trkpt lat="43.08163" lon="-0.05294">
        <ele>459.8</ele>
        <time>2022-02-12T10:01:20Z</time>
      </trkpt>
      <trkpt lat="43.08163" lon="-0.05294">
        <ele>459.6</ele>
        <time>2022-02-12T10:01:21Z</time>
      </trkpt>
      <trkpt lat="43.08163" lon="-0.05294">
        <ele>459.6</ele>
        <time>2022-02-12T10:01:22Z</time>
      </trkpt>
      <trkpt lat="43.08163" lon="-0.05294">
        <ele>459.6</ele>
        <time>2022-02-12T10:01:23Z</time>
      </trkpt>
      <trkpt lat="43.08163" lon="-0.05293">
        <ele>459.4</ele>
        <time>2022-02-12T10:01:24Z</time>
      </trkpt>
      <trkpt lat="43.08163" lon="-0.05293">
        <ele>459.2</ele>
        <time>2022-02-12T10:01:25Z</time>
      </trkpt>
      <trkpt lat="43.08163" lon="-0.05293">
        <ele>459.2</ele>
        <time>2022-02-12T10:01:26Z</time>
      </trkpt>
      <trkpt lat="43.08163" lon="-0.05293">
        <ele>459</ele>
        <time>2022-02-12T10:01:27Z</time>
      </trkpt>
      <trkpt lat="43.08163" lon="-0.05293">
        <ele>458.8</ele>
        <time>2022-02-12T10:01:28Z</time>
      </trkpt>
      <trkpt lat="43.08163" lon="-0.05293">
        <ele>458.6</ele>
        <time>2022-02-12T10:01:29Z</time>
      </trkpt>
      <trkpt lat="43.08163" lon="-0.05293">
        <ele>458.4</ele>
        <time>2022-02-12T10:01:30Z</time>
      </trkpt>
      <trkpt lat="43.08163" lon="-0.05293">
        <ele>458.4</ele>
        <time>2022-02-12T10:01:31Z</time>
      </trkpt>
      <trkpt lat="43.08163" lon="-0.05293">
        <ele>458.4</ele>
        <time>2022-02-12T10:01:32Z</time>
      </trkpt>
      <trkpt lat="43.08163" lon="-0.05293">
        <ele>458</ele>
        <time>2022-02-12T10:01:33Z</time>
      </trkpt>
      <trkpt lat="43.08163" lon="-0.05293">
        <ele>458</ele>
        <time>2022-02-12T10:01:34Z</time>
      </trkpt>
      <trkpt lat="43.08164" lon="-0.05292">
        <ele>457.8</ele>
        <time>2022-02-12T10:01:35Z</time>
      </trkpt>
      <trkpt lat="43.08164" lon="-0.05292">
        <ele>457.6</ele>
        <time>2022-02-12T10:01:36Z</time>
      </trkpt>
      <trkpt lat="43.08164" lon="-0.05291">
        <ele>457.4</ele>
        <time>2022-02-12T10:01:37Z</time>
      </trkpt>
      <trkpt lat="43.08165" lon="-0.0529">
        <ele>457.2</ele>
        <time>2022-02-12T10:01:38Z</time>
      </trkpt>
      <trkpt lat="43.08165" lon="-0.05289">
        <ele>457.2</ele>
        <time>2022-02-12T10:01:39Z</time>
      </trkpt>
      <trkpt lat="43.08166" lon="-0.05289">
        <ele>457</ele>
        <time>2022-02-12T10:01:40Z</time>
      </trkpt>
      <trkpt lat="43.08166" lon="-0.05288">
        <ele>456.8</ele>
        <time>2022-02-12T10:01:41Z</time>
      </trkpt>
      <trkpt lat="43.08166" lon="-0.05288">
        <ele>456.8</ele>
        <time>2022-02-12T10:01:42Z</time>
      </trkpt>
      <trkpt lat="43.08166" lon="-0.05288">
        <ele>456.6</ele>
        <time>2022-02-12T10:01:43Z</time>
      </trkpt>
      <trkpt lat="43.08166" lon="-0.05287">
        <ele>456.4</ele>
        <time>2022-02-12T10:01:44Z</time>
      </trkpt>
      <trkpt lat="43.08166" lon="-0.05287">
        <ele>456.4</ele>
        <time>2022-02-12T10:01:45Z</time>
      </trkpt>
      <trkpt lat="43.08166" lon="-0.05286">
        <ele>456</ele>
        <time>2022-02-12T10:01:46Z</time>
      </trkpt>
      <trkpt lat="43.08166" lon="-0.05285">
        <ele>455.8</ele>
        <time>2022-02-12T10:01:47Z</time>
      </trkpt>
      <trkpt lat="43.08166" lon="-0.05284">
        <ele>455.6</ele>
        <time>2022-02-12T10:01:48Z</time>
      </trkpt>
      <trkpt lat="43.08166" lon="-0.05282">
        <ele>455.4</ele>
        <time>2022-02-12T10:01:49Z</time>
      </trkpt>
      <trkpt lat="43.08167" lon="-0.0528">
        <ele>455</ele>
        <time>2022-02-12T10:01:50Z</time>
      </trkpt>
      <trkpt lat="43.08167" lon="-0.05279">
        <ele>454.8</ele>
        <time>2022-02-12T10:01:51Z</time>
      </trkpt>
      <trkpt lat="43.08167" lon="-0.05278">
        <ele>454.6</ele>
        <time>2022-02-12T10:01:52Z</time>
      </trkpt>
      <trkpt lat="43.08167" lon="-0.05277">
        <ele>454.2</ele>
        <time>2022-02-12T10:01:53Z</time>
      </trkpt>
      <trkpt lat="43.08168" lon="-0.05276">
        <ele>454</ele>
        <time>2022-02-12T10:01:54Z</time>
      </trkpt>
      <trkpt lat="43.08168" lon="-0.05276">
        <ele>453.8</ele>
        <time>2022-02-12T10:01:55Z</time>
      </trkpt>
      <trkpt lat="43.08169" lon="-0.05274">
        <ele>453.6</ele>
        <time>2022-02-12T10:01:56Z</time>
      </trkpt>
      <trkpt lat="43.08171" lon="-0.05273">
        <ele>453.2</ele>
        <time>2022-02-12T10:01:57Z</time>
      </trkpt>
      <trkpt lat="43.08174" lon="-0.05271">
        <ele>453</ele>
        <time>2022-02-12T10:01:58Z</time>
      </trkpt>
      <trkpt lat="43.08176" lon="-0.05268">
        <ele>453</ele>
        <time>2022-02-12T10:01:59Z</time>
      </trkpt>
      <trkpt lat="43.08178" lon="-0.05266">
        <ele>453</ele>
        <time>2022-02-12T10:02:00Z</time>
      </trkpt>
      <trkpt lat="43.08181" lon="-0.05265">
        <ele>452.8</ele>
        <time>2022-02-12T10:02:01Z</time>
      </trkpt>
      <trkpt lat="43.08185" lon="-0.05262">
        <ele>452.8</ele>
        <time>2022-02-12T10:02:02Z</time>
      </trkpt>
      <trkpt lat="43.08189" lon="-0.05259">
        <ele>452.6</ele>
        <time>2022-02-12T10:02:03Z</time>
      </trkpt>
      <trkpt lat="43.08192" lon="-0.05256">
        <ele>452.2</ele>
        <time>2022-02-12T10:02:04Z</time>
      </trkpt>
      <trkpt lat="43.08194" lon="-0.05254">
        <ele>452</ele>
        <time>2022-02-12T10:02:05Z</time>
      </trkpt>
      <trkpt lat="43.08196" lon="-0.05252">
        <ele>452</ele>
        <time>2022-02-12T10:02:06Z</time>
      </trkpt>
      <trkpt lat="43.08198" lon="-0.0525">
        <ele>451.8</ele>
        <time>2022-02-12T10:02:07Z</time>
      </trkpt>
      <trkpt lat="43.082" lon="-0.05249">
        <ele>451.6</ele>
        <time>2022-02-12T10:02:08Z</time>
      </trkpt>
      <trkpt lat="43.08201" lon="-0.05249">
        <ele>451.4</ele>
        <time>2022-02-12T10:02:09Z</time>
      </trkpt>
      <trkpt lat="43.08204" lon="-0.05249">
        <ele>451.4</ele>
        <time>2022-02-12T10:02:10Z</time>
      </trkpt>
      <trkpt lat="43.08205" lon="-0.05248">
        <ele>451</ele>
        <time>2022-02-12T10:02:11Z</time>
      </trkpt>
      <trkpt lat="43.08206" lon="-0.05247">
        <ele>450.8</ele>
        <time>2022-02-12T10:02:12Z</time>
      </trkpt>
      <trkpt lat="43.08209" lon="-0.05245">
        <ele>450.6</ele>
        <time>2022-02-12T10:02:13Z</time>
      </trkpt>
      <trkpt lat="43.08213" lon="-0.05242">
        <ele>450.6</ele>
        <time>2022-02-12T10:02:14Z</time>
      </trkpt>
      <trkpt lat="43.08214" lon="-0.0524">
        <ele>450.2</ele>
        <time>2022-02-12T10:02:15Z</time>
      </trkpt>
      <trkpt lat="43.08217" lon="-0.05238">
        <ele>450.2</ele>
        <time>2022-02-12T10:02:16Z</time>
      </trkpt>
      <trkpt lat="43.0822" lon="-0.05237">
        <ele>450</ele>
        <time>2022-02-12T10:02:17Z</time>
      </trkpt>
      <trkpt lat="43.08222" lon="-0.05236">
        <ele>449.6</ele>
        <time>2022-02-12T10:02:18Z</time>
      </trkpt>
      <trkpt lat="43.08225" lon="-0.05235">
        <ele>449.6</ele>
        <time>2022-02-12T10:02:19Z</time>
      </trkpt>
      <trkpt lat="43.08228" lon="-0.05234">
        <ele>449.2</ele>
        <time>2022-02-12T10:02:20Z</time>
      </trkpt>
      <trkpt lat="43.08231" lon="-0.05234">
        <ele>449.2</ele>
        <time>2022-02-12T10:02:21Z</time>
      </trkpt>
      <trkpt lat="43.08233" lon="-0.05236">
        <ele>449</ele>
        <time>2022-02-12T10:02:22Z</time>
      </trkpt>
      <trkpt lat="43.08235" lon="-0.05238">
        <ele>449</ele>
        <time>2022-02-12T10:02:23Z</time>
      </trkpt>
      <trkpt lat="43.08236" lon="-0.0524">
        <ele>448.8</ele>
        <time>2022-02-12T10:02:24Z</time>
      </trkpt>
      <trkpt lat="43.08238" lon="-0.05241">
        <ele>448.8</ele>
        <time>2022-02-12T10:02:25Z</time>
      </trkpt>
      <trkpt lat="43.0824" lon="-0.05242">
        <ele>448.8</ele>
        <time>2022-02-12T10:02:26Z</time>
      </trkpt>
      <trkpt lat="43.08241" lon="-0.05244">
        <ele>448.6</ele>
        <time>2022-02-12T10:02:27Z</time>
      </trkpt>
      <trkpt lat="43.08241" lon="-0.05245">
        <ele>448.6</ele>
        <time>2022-02-12T10:02:28Z</time>
      </trkpt>
      <trkpt lat="43.08242" lon="-0.05246">
        <ele>448.6</ele>
        <time>2022-02-12T10:02:29Z</time>
      </trkpt>
      <trkpt lat="43.08242" lon="-0.05246">
        <ele>448.4</ele>
        <time>2022-02-12T10:02:30Z</time>
      </trkpt>
      <trkpt lat="43.08247" lon="-0.05249">
        <ele>448.4</ele>
        <time>2022-02-12T10:02:31Z</time>
      </trkpt>
      <trkpt lat="43.08251" lon="-0.05249">
        <ele>448.2</ele>
        <time>2022-02-12T10:02:32Z</time>
      </trkpt>
      <trkpt lat="43.08252" lon="-0.05249">
        <ele>448.2</ele>
        <time>2022-02-12T10:02:33Z</time>
      </trkpt>
      <trkpt lat="43.08252" lon="-0.05249">
        <ele>448</ele>
        <time>2022-02-12T10:02:34Z</time>
      </trkpt>
      <trkpt lat="43.08253" lon="-0.05249">
        <ele>447.8</ele>
        <time>2022-02-12T10:02:35Z</time>
      </trkpt>
      <trkpt lat="43.08253" lon="-0.05249">
        <ele>447.4</ele>
        <time>2022-02-12T10:02:36Z</time>
      </trkpt>
      <trkpt lat="43.08253" lon="-0.05249">
        <ele>447</ele>
        <time>2022-02-12T10:02:37Z</time>
      </trkpt>
      <trkpt lat="43.08253" lon="-0.05249">
        <ele>446.6</ele>
        <time>2022-02-12T10:02:38Z</time>
      </trkpt>
      <trkpt lat="43.08253" lon="-0.05249">
        <ele>446.4</ele>
        <time>2022-02-12T10:02:39Z</time>
      </trkpt>
      <trkpt lat="43.08253" lon="-0.05249">
        <ele>446.2</ele>
        <time>2022-02-12T10:02:40Z</time>
      </trkpt>
      <trkpt lat="43.08253" lon="-0.05249">
        <ele>446</ele>
        <time>2022-02-12T10:02:41Z</time>
      </trkpt>
      <trkpt lat="43.08253" lon="-0.05249">
        <ele>446</ele>
        <time>2022-02-12T10:02:42Z</time>
      </trkpt>
      <trkpt lat="43.08253" lon="-0.05249">
        <ele>446</ele>
        <time>2022-02-12T10:02:43Z</time>
      </trkpt>
      <trkpt lat="43.08253" lon="-0.05249">
        <ele>446</ele>
        <time>2022-02-12T10:02:44Z</time>
      </trkpt>
      <trkpt lat="43.08253" lon="-0.05249">
        <ele>446</ele>
        <time>2022-02-12T10:02:45Z</time>
      </trkpt>
      <trkpt lat="43.08253" lon="-0.05249">
        <ele>446</ele>
        <time>2022-02-12T10:02:46Z</time>
      </trkpt>
      <trkpt lat="43.08253" lon="-0.05249">
        <ele>446</ele>
        <time>2022-02-12T10:02:47Z</time>
      </trkpt>
      <trkpt lat="43.08253" lon="-0.05249">
        <ele>446</ele>
        <time>2022-02-12T10:02:48Z</time>
      </trkpt>
      <trkpt lat="43.08253" lon="-0.05249">
        <ele>446.2</ele>
        <time>2022-02-12T10:02:49Z</time>
      </trkpt>
      <trkpt lat="43.08253" lon="-0.05249">
        <ele>446.4</ele>
        <time>2022-02-12T10:02:50Z</time>
      </trkpt>
      <trkpt lat="43.08253" lon="-0.05249">
        <ele>446.6</ele>
        <time>2022-02-12T10:02:51Z</time>
      </trkpt>
      <trkpt lat="43.08253" lon="-0.05249">
        <ele>446.6</ele>
        <time>2022-02-12T10:02:52Z</time>
      </trkpt>
      <trkpt lat="43.08253" lon="-0.05249">
        <ele>446.8</ele>
        <time>2022-02-12T10:02:53Z</time>
      </trkpt>
      <trkpt lat="43.08253" lon="-0.05249">
        <ele>447</ele>
        <time>2022-02-12T10:02:54Z</time>
      </trkpt>
      <trkpt lat="43.08254" lon="-0.05249">
        <ele>447.2</ele>
        <time>2022-02-12T10:02:55Z</time>
      </trkpt>
      <trkpt lat="43.08254" lon="-0.05249">
        <ele>447.2</ele>
        <time>2022-02-12T10:02:56Z</time>
      </trkpt>
      <trkpt lat="43.08254" lon="-0.05249">
        <ele>447.4</ele>
        <time>2022-02-12T10:02:57Z</time>
      </trkpt>
      <trkpt lat="43.08254" lon="-0.05249">
        <ele>447.6</ele>
        <time>2022-02-12T10:02:58Z</time>
      </trkpt>
      <trkpt lat="43.08254" lon="-0.05249">
        <ele>448</ele>
        <time>2022-02-12T10:02:59Z</time>
      </trkpt>
      <trkpt lat="43.08254" lon="-0.05249">
        <ele>448</ele>
        <time>2022-02-12T10:03:00Z</time>
      </trkpt>
      <trkpt lat="43.08254" lon="-0.05249">
        <ele>448.4</ele>
        <time>2022-02-12T10:03:01Z</time>
      </trkpt>
      <trkpt lat="43.08254" lon="-0.05249">
        <ele>448.4</ele>
        <time>2022-02-12T10:03:02Z</time>
      </trkpt>
      <trkpt lat="43.08255" lon="-0.0525">
        <ele>448.6</ele>
        <time>2022-02-12T10:03:03Z</time>
      </trkpt>
      <trkpt lat="43.08257" lon="-0.05251">
        <ele>448.8</ele>
        <time>2022-02-12T10:03:04Z</time>
      </trkpt>
      <trkpt lat="43.08258" lon="-0.05252">
        <ele>448.8</ele>
        <time>2022-02-12T10:03:05Z</time>
      </trkpt>
      <trkpt lat="43.08259" lon="-0.05253">
        <ele>448.8</ele>
        <time>2022-02-12T10:03:06Z</time>
      </trkpt>
      <trkpt lat="43.08261" lon="-0.05254">
        <ele>449</ele>
        <time>2022-02-12T10:03:07Z</time>
      </trkpt>
      <trkpt lat="43.08262" lon="-0.05255">
        <ele>449</ele>
        <time>2022-02-12T10:03:08Z</time>
      </trkpt>
      <trkpt lat="43.08263" lon="-0.05256">
        <ele>449</ele>
        <time>2022-02-12T10:03:09Z</time>
      </trkpt>
      <trkpt lat="43.08264" lon="-0.05256">
        <ele>449</ele>
        <time>2022-02-12T10:03:10Z</time>
      </trkpt>
      <trkpt lat="43.08265" lon="-0.05257">
        <ele>449</ele>
        <time>2022-02-12T10:03:11Z</time>
      </trkpt>
      <trkpt lat="43.08266" lon="-0.05257">
        <ele>449</ele>
        <time>2022-02-12T10:03:12Z</time>
      </trkpt>
      <trkpt lat="43.08266" lon="-0.05257">
        <ele>449</ele>
        <time>2022-02-12T10:03:13Z</time>
      </trkpt>
      <trkpt lat="43.08266" lon="-0.05257">
        <ele>448.8</ele>
        <time>2022-02-12T10:03:14Z</time>
      </trkpt>
      <trkpt lat="43.08266" lon="-0.05257">
        <ele>448.8</ele>
        <time>2022-02-12T10:03:15Z</time>
      </trkpt>
      <trkpt lat="43.08266" lon="-0.05257">
        <ele>448.8</ele>
        <time>2022-02-12T10:03:16Z</time>
      </trkpt>
      <trkpt lat="43.08266" lon="-0.05257">
        <ele>448.8</ele>
        <time>2022-02-12T10:03:17Z</time>
      </trkpt>
      <trkpt lat="43.08266" lon="-0.05257">
        <ele>448.6</ele>
        <time>2022-02-12T10:03:18Z</time>
      </trkpt>
      <trkpt lat="43.08266" lon="-0.05257">
        <ele>448.4</ele>
        <time>2022-02-12T10:03:19Z</time>
      </trkpt>
      <trkpt lat="43.08266" lon="-0.05257">
        <ele>448.2</ele>
        <time>2022-02-12T10:03:20Z</time>
      </trkpt>
      <trkpt lat="43.08266" lon="-0.05257">
        <ele>448</ele>
        <time>2022-02-12T10:03:21Z</time>
      </trkpt>
      <trkpt lat="43.08268" lon="-0.05258">
        <ele>448</ele>
        <time>2022-02-12T10:03:22Z</time>
      </trkpt>
      <trkpt lat="43.08269" lon="-0.05258">
        <ele>447.8</ele>
        <time>2022-02-12T10:03:23Z</time>
      </trkpt>
      <trkpt lat="43.0827" lon="-0.05258">
        <ele>447.8</ele>
        <time>2022-02-12T10:03:24Z</time>
      </trkpt>
      <trkpt lat="43.0827" lon="-0.05258">
        <ele>447.8</ele>
        <time>2022-02-12T10:03:25Z</time>
      </trkpt>
      <trkpt lat="43.0827" lon="-0.05258">
        <ele>447.8</ele>
        <time>2022-02-12T10:03:26Z</time>
      </trkpt>
      <trkpt lat="43.0827" lon="-0.05258">
        <ele>447.6</ele>
        <time>2022-02-12T10:03:27Z</time>
      </trkpt>
      <trkpt lat="43.0827" lon="-0.05258">
        <ele>447.2</ele>
        <time>2022-02-12T10:03:28Z</time>
      </trkpt>
      <trkpt lat="43.0827" lon="-0.05258">
        <ele>447</ele>
        <time>2022-02-12T10:03:29Z</time>
      </trkpt>
      <trkpt lat="43.0827" lon="-0.05258">
        <ele>447</ele>
        <time>2022-02-12T10:03:30Z</time>
      </trkpt>
      <trkpt lat="43.0827" lon="-0.05258">
        <ele>446.6</ele>
        <time>2022-02-12T10:03:31Z</time>
      </trkpt>
      <trkpt lat="43.0827" lon="-0.05258">
        <ele>446.6</ele>
        <time>2022-02-12T10:03:32Z</time>
      </trkpt>
      <trkpt lat="43.0827" lon="-0.05258">
        <ele>446.4</ele>
        <time>2022-02-12T10:03:33Z</time>
      </trkpt>
      <trkpt lat="43.0827" lon="-0.05258">
        <ele>446.4</ele>
        <time>2022-02-12T10:03:34Z</time>
      </trkpt>
      <trkpt lat="43.0827" lon="-0.05258">
        <ele>446.2</ele>
        <time>2022-02-12T10:03:35Z</time>
      </trkpt>
      <trkpt lat="43.0827" lon="-0.05258">
        <ele>446.2</ele>
        <time>2022-02-12T10:03:36Z</time>
      </trkpt>
      <trkpt lat="43.0827" lon="-0.05258">
        <ele>446.2</ele>
        <time>2022-02-12T10:03:37Z</time>
      </trkpt>
      <trkpt lat="43.0827" lon="-0.05258">
        <ele>446.2</ele>
        <time>2022-02-12T10:03:38Z</time>
      </trkpt>
      <trkpt lat="43.0827" lon="-0.05258">
        <ele>446.2</ele>
        <time>2022-02-12T10:03:39Z</time>
      </trkpt>
      <trkpt lat="43.08271" lon="-0.05258">
        <ele>446.2</ele>
        <time>2022-02-12T10:03:40Z</time>
      </trkpt>
      <trkpt lat="43.08271" lon="-0.05258">
        <ele>446</ele>
        <time>2022-02-12T10:03:41Z</time>
      </trkpt>
      <trkpt lat="43.08271" lon="-0.05258">
        <ele>446</ele>
        <time>2022-02-12T10:03:42Z</time>
      </trkpt>
      <trkpt lat="43.08271" lon="-0.05258">
        <ele>445.8</ele>
        <time>2022-02-12T10:03:43Z</time>
      </trkpt>
      <trkpt lat="43.08271" lon="-0.05258">
        <ele>445.8</ele>
        <time>2022-02-12T10:03:44Z</time>
      </trkpt>
      <trkpt lat="43.08271" lon="-0.05258">
        <ele>445.8</ele>
        <time>2022-02-12T10:03:45Z</time>
      </trkpt>
      <trkpt lat="43.08271" lon="-0.05258">
        <ele>445.8</ele>
        <time>2022-02-12T10:03:46Z</time>
      </trkpt>
      <trkpt lat="43.08273" lon="-0.05258">
        <ele>445.4</ele>
        <time>2022-02-12T10:03:47Z</time>
      </trkpt>
      <trkpt lat="43.08273" lon="-0.05258">
        <ele>445.4</ele>
        <time>2022-02-12T10:03:48Z</time>
      </trkpt>
      <trkpt lat="43.08273" lon="-0.05258">
        <ele>445</ele>
        <time>2022-02-12T10:03:49Z</time>
      </trkpt>
      <trkpt lat="43.08273" lon="-0.05258">
        <ele>444.8</ele>
        <time>2022-02-12T10:03:50Z</time>
      </trkpt>
      <trkpt lat="43.08273" lon="-0.05258">
        <ele>444.8</ele>
        <time>2022-02-12T10:03:51Z</time>
      </trkpt>
      <trkpt lat="43.08273" lon="-0.05258">
        <ele>444.6</ele>
        <time>2022-02-12T10:03:52Z</time>
      </trkpt>
      <trkpt lat="43.08273" lon="-0.05258">
        <ele>444.6</ele>
        <time>2022-02-12T10:03:53Z</time>
      </trkpt>
      <trkpt lat="43.08274" lon="-0.05258">
        <ele>444.4</ele>
        <time>2022-02-12T10:03:54Z</time>
      </trkpt>
      <trkpt lat="43.08274" lon="-0.05258">
        <ele>444.4</ele>
        <time>2022-02-12T10:03:55Z</time>
      </trkpt>
      <trkpt lat="43.08275" lon="-0.05258">
        <ele>444.2</ele>
        <time>2022-02-12T10:03:56Z</time>
      </trkpt>
      <trkpt lat="43.08276" lon="-0.05257">
        <ele>444</ele>
        <time>2022-02-12T10:03:57Z</time>
      </trkpt>
      <trkpt lat="43.08276" lon="-0.05257">
        <ele>444</ele>
        <time>2022-02-12T10:03:58Z</time>
      </trkpt>
      <trkpt lat="43.08278" lon="-0.05256">
        <ele>443.8</ele>
        <time>2022-02-12T10:03:59Z</time>
      </trkpt>
      <trkpt lat="43.0828" lon="-0.05255">
        <ele>443.6</ele>
        <time>2022-02-12T10:04:00Z</time>
      </trkpt>
      <trkpt lat="43.08283" lon="-0.05253">
        <ele>443.6</ele>
        <time>2022-02-12T10:04:01Z</time>
      </trkpt>
      <trkpt lat="43.08287" lon="-0.05251">
        <ele>443.2</ele>
        <time>2022-02-12T10:04:02Z</time>
      </trkpt>
      <trkpt lat="43.08292" lon="-0.05248">
        <ele>443</ele>
        <time>2022-02-12T10:04:03Z</time>
      </trkpt>
      <trkpt lat="43.08297" lon="-0.05245">
        <ele>442.6</ele>
        <time>2022-02-12T10:04:04Z</time>
      </trkpt>
      <trkpt lat="43.08302" lon="-0.05243">
        <ele>442.4</ele>
        <time>2022-02-12T10:04:05Z</time>
      </trkpt>
      <trkpt lat="43.08306" lon="-0.05241">
        <ele>442.2</ele>
        <time>2022-02-12T10:04:06Z</time>
      </trkpt>
      <trkpt lat="43.0831" lon="-0.05239">
        <ele>442.2</ele>
        <time>2022-02-12T10:04:07Z</time>
      </trkpt>
      <trkpt lat="43.08313" lon="-0.05237">
        <ele>442</ele>
        <time>2022-02-12T10:04:08Z</time>
      </trkpt>
      <trkpt lat="43.08314" lon="-0.05237">
        <ele>441.8</ele>
        <time>2022-02-12T10:04:09Z</time>
      </trkpt>
      <trkpt lat="43.08315" lon="-0.05236">
        <ele>441.6</ele>
        <time>2022-02-12T10:04:10Z</time>
      </trkpt>
      <trkpt lat="43.08319" lon="-0.05235">
        <ele>441.4</ele>
        <time>2022-02-12T10:04:11Z</time>
      </trkpt>
      <trkpt lat="43.08322" lon="-0.05234">
        <ele>441.2</ele>
        <time>2022-02-12T10:04:12Z</time>
      </trkpt>
      <trkpt lat="43.08325" lon="-0.05234">
        <ele>441.2</ele>
        <time>2022-02-12T10:04:13Z</time>
      </trkpt>
      <trkpt lat="43.08328" lon="-0.05232">
        <ele>441</ele>
        <time>2022-02-12T10:04:14Z</time>
      </trkpt>
      <trkpt lat="43.08331" lon="-0.05231">
        <ele>441</ele>
        <time>2022-02-12T10:04:15Z</time>
      </trkpt>
      <trkpt lat="43.08335" lon="-0.05229">
        <ele>440.8</ele>
        <time>2022-02-12T10:04:16Z</time>
      </trkpt>
      <trkpt lat="43.08339" lon="-0.05228">
        <ele>440.8</ele>
        <time>2022-02-12T10:04:17Z</time>
      </trkpt>
      <trkpt lat="43.08341" lon="-0.05226">
        <ele>440.8</ele>
        <time>2022-02-12T10:04:18Z</time>
      </trkpt>
      <trkpt lat="43.08344" lon="-0.05224">
        <ele>440.8</ele>
        <time>2022-02-12T10:04:19Z</time>
      </trkpt>
      <trkpt lat="43.08347" lon="-0.05223">
        <ele>440.8</ele>
        <time>2022-02-12T10:04:20Z</time>
      </trkpt>
      <trkpt lat="43.08351" lon="-0.05223">
        <ele>440.8</ele>
        <time>2022-02-12T10:04:21Z</time>
      </trkpt>
      <trkpt lat="43.08353" lon="-0.05221">
        <ele>440.8</ele>
        <time>2022-02-12T10:04:22Z</time>
      </trkpt>
      <trkpt lat="43.08356" lon="-0.05219">
        <ele>440.8</ele>
        <time>2022-02-12T10:04:23Z</time>
      </trkpt>
      <trkpt lat="43.08357" lon="-0.05218">
        <ele>440.6</ele>
        <time>2022-02-12T10:04:24Z</time>
      </trkpt>
      <trkpt lat="43.08357" lon="-0.05218">
        <ele>440.4</ele>
        <time>2022-02-12T10:04:25Z</time>
      </trkpt>
      <trkpt lat="43.08357" lon="-0.05218">
        <ele>440.4</ele>
        <time>2022-02-12T10:04:26Z</time>
      </trkpt>
      <trkpt lat="43.08357" lon="-0.05218">
        <ele>440</ele>
        <time>2022-02-12T10:04:27Z</time>
      </trkpt>
      <trkpt lat="43.08357" lon="-0.05217">
        <ele>439.8</ele>
        <time>2022-02-12T10:04:28Z</time>
      </trkpt>
      <trkpt lat="43.08357" lon="-0.05217">
        <ele>439.6</ele>
        <time>2022-02-12T10:04:29Z</time>
      </trkpt>
      <trkpt lat="43.08357" lon="-0.05217">
        <ele>439.6</ele>
        <time>2022-02-12T10:04:30Z</time>
      </trkpt>
      <trkpt lat="43.08357" lon="-0.05217">
        <ele>439.6</ele>
        <time>2022-02-12T10:04:31Z</time>
      </trkpt>
      <trkpt lat="43.08357" lon="-0.05217">
        <ele>439.6</ele>
        <time>2022-02-12T10:04:32Z</time>
      </trkpt>
      <trkpt lat="43.08357" lon="-0.05217">
        <ele>439.4</ele>
        <time>2022-02-12T10:04:33Z</time>
      </trkpt>
      <trkpt lat="43.08358" lon="-0.05216">
        <ele>439.4</ele>
        <time>2022-02-12T10:04:34Z</time>
      </trkpt>
      <trkpt lat="43.08358" lon="-0.05215">
        <ele>439.4</ele>
        <time>2022-02-12T10:04:35Z</time>
      </trkpt>
      <trkpt lat="43.08358" lon="-0.05214">
        <ele>439.4</ele>
        <time>2022-02-12T10:04:36Z</time>
      </trkpt>
      <trkpt lat="43.08359" lon="-0.05214">
        <ele>439.2</ele>
        <time>2022-02-12T10:04:37Z</time>
      </trkpt>
      <trkpt lat="43.08359" lon="-0.05214">
        <ele>439.2</ele>
        <time>2022-02-12T10:04:38Z</time>
      </trkpt>
      <trkpt lat="43.08359" lon="-0.05214">
        <ele>439.2</ele>
        <time>2022-02-12T10:04:39Z</time>
      </trkpt>
      <trkpt lat="43.08359" lon="-0.05214">
        <ele>439</ele>
        <time>2022-02-12T10:04:40Z</time>
      </trkpt>
      <trkpt lat="43.08359" lon="-0.05214">
        <ele>438.8</ele>
        <time>2022-02-12T10:04:41Z</time>
      </trkpt>
      <trkpt lat="43.08359" lon="-0.05214">
        <ele>438.4</ele>
        <time>2022-02-12T10:04:42Z</time>
      </trkpt>
      <trkpt lat="43.08359" lon="-0.05214">
        <ele>438.2</ele>
        <time>2022-02-12T10:04:43Z</time>
      </trkpt>
      <trkpt lat="43.08359" lon="-0.05214">
        <ele>438</ele>
        <time>2022-02-12T10:04:44Z</time>
      </trkpt>
      <trkpt lat="43.08359" lon="-0.05214">
        <ele>437.8</ele>
        <time>2022-02-12T10:04:45Z</time>
      </trkpt>
      <trkpt lat="43.08359" lon="-0.05214">
        <ele>437.8</ele>
        <time>2022-02-12T10:04:46Z</time>
      </trkpt>
      <trkpt lat="43.08359" lon="-0.05214">
        <ele>437.6</ele>
        <time>2022-02-12T10:04:47Z</time>
      </trkpt>
      <trkpt lat="43.08359" lon="-0.05214">
        <ele>437.6</ele>
        <time>2022-02-12T10:04:48Z</time>
      </trkpt>
      <trkpt lat="43.08359" lon="-0.05214">
        <ele>437.4</ele>
        <time>2022-02-12T10:04:49Z</time>
      </trkpt>
      <trkpt lat="43.08359" lon="-0.05214">
        <ele>437.4</ele>
        <time>2022-02-12T10:04:50Z</time>
      </trkpt>
      <trkpt lat="43.08359" lon="-0.05214">
        <ele>437.2</ele>
        <time>2022-02-12T10:04:51Z</time>
      </trkpt>
      <trkpt lat="43.08359" lon="-0.05214">
        <ele>437</ele>
        <time>2022-02-12T10:04:52Z</time>
      </trkpt>
      <trkpt lat="43.08359" lon="-0.05214">
        <ele>437</ele>
        <time>2022-02-12T10:04:53Z</time>
      </trkpt>
      <trkpt lat="43.08359" lon="-0.05213">
        <ele>437</ele>
        <time>2022-02-12T10:04:54Z</time>
      </trkpt>
      <trkpt lat="43.08362" lon="-0.05211">
        <ele>437</ele>
        <time>2022-02-12T10:04:55Z</time>
      </trkpt>
      <trkpt lat="43.08365" lon="-0.05209">
        <ele>436.8</ele>
        <time>2022-02-12T10:04:56Z</time>
      </trkpt>
      <trkpt lat="43.08368" lon="-0.05207">
        <ele>436.8</ele>
        <time>2022-02-12T10:04:57Z</time>
      </trkpt>
      <trkpt lat="43.08371" lon="-0.05205">
        <ele>436.6</ele>
        <time>2022-02-12T10:04:58Z</time>
      </trkpt>
      <trkpt lat="43.08374" lon="-0.05203">
        <ele>436.6</ele>
        <time>2022-02-12T10:04:59Z</time>
      </trkpt>
      <trkpt lat="43.08376" lon="-0.05202">
        <ele>436.4</ele>
        <time>2022-02-12T10:05:00Z</time>
      </trkpt>
      <trkpt lat="43.08377" lon="-0.05201">
        <ele>436.2</ele>
        <time>2022-02-12T10:05:01Z</time>
      </trkpt>
      <trkpt lat="43.08377" lon="-0.05201">
        <ele>436</ele>
        <time>2022-02-12T10:05:02Z</time>
      </trkpt>
      <trkpt lat="43.08378" lon="-0.052">
        <ele>435.8</ele>
        <time>2022-02-12T10:05:03Z</time>
      </trkpt>
      <trkpt lat="43.08378" lon="-0.052">
        <ele>435.8</ele>
        <time>2022-02-12T10:05:04Z</time>
      </trkpt>
      <trkpt lat="43.08378" lon="-0.05199">
        <ele>435.8</ele>
        <time>2022-02-12T10:05:05Z</time>
      </trkpt>
      <trkpt lat="43.08378" lon="-0.05197">
        <ele>435.8</ele>
        <time>2022-02-12T10:05:06Z</time>
      </trkpt>
      <trkpt lat="43.08378" lon="-0.05197">
        <ele>435.8</ele>
        <time>2022-02-12T10:05:07Z</time>
      </trkpt>
      <trkpt lat="43.08378" lon="-0.05197">
        <ele>435.8</ele>
        <time>2022-02-12T10:05:08Z</time>
      </trkpt>
      <trkpt lat="43.08379" lon="-0.05196">
        <ele>435.8</ele>
        <time>2022-02-12T10:05:09Z</time>
      </trkpt>
      <trkpt lat="43.0838" lon="-0.05196">
        <ele>435.8</ele>
        <time>2022-02-12T10:05:10Z</time>
      </trkpt>
      <trkpt lat="43.0838" lon="-0.05195">
        <ele>435.8</ele>
        <time>2022-02-12T10:05:11Z</time>
      </trkpt>
      <trkpt lat="43.08381" lon="-0.05195">
        <ele>435.8</ele>
        <time>2022-02-12T10:05:12Z</time>
      </trkpt>
      <trkpt lat="43.08382" lon="-0.05194">
        <ele>435.6</ele>
        <time>2022-02-12T10:05:13Z</time>
      </trkpt>
      <trkpt lat="43.08383" lon="-0.05192">
        <ele>435.6</ele>
        <time>2022-02-12T10:05:14Z</time>
      </trkpt>
      <trkpt lat="43.08383" lon="-0.05192">
        <ele>435.6</ele>
        <time>2022-02-12T10:05:15Z</time>
      </trkpt>
      <trkpt lat="43.08383" lon="-0.05192">
        <ele>435.6</ele>
        <time>2022-02-12T10:05:16Z</time>
      </trkpt>
      <trkpt lat="43.08383" lon="-0.05192">
        <ele>435.6</ele>
        <time>2022-02-12T10:05:17Z</time>
      </trkpt>
      <trkpt lat="43.08384" lon="-0.05191">
        <ele>435.4</ele>
        <time>2022-02-12T10:05:18Z</time>
      </trkpt>
      <trkpt lat="43.08384" lon="-0.0519">
        <ele>435.2</ele>
        <time>2022-02-12T10:05:19Z</time>
      </trkpt>
      <trkpt lat="43.08384" lon="-0.0519">
        <ele>435</ele>
        <time>2022-02-12T10:05:20Z</time>
      </trkpt>
      <trkpt lat="43.08384" lon="-0.0519">
        <ele>434.6</ele>
        <time>2022-02-12T10:05:21Z</time>
      </trkpt>
      <trkpt lat="43.08385" lon="-0.0519">
        <ele>434.4</ele>
        <time>2022-02-12T10:05:22Z</time>
      </trkpt>
      <trkpt lat="43.08385" lon="-0.0519">
        <ele>434.2</ele>
        <time>2022-02-12T10:05:23Z</time>
      </trkpt>
      <trkpt lat="43.08386" lon="-0.0519">
        <ele>434</ele>
        <time>2022-02-12T10:05:24Z</time>
      </trkpt>
      <trkpt lat="43.08386" lon="-0.05189">
        <ele>434</ele>
        <time>2022-02-12T10:05:25Z</time>
      </trkpt>
      <trkpt lat="43.08386" lon="-0.05188">
        <ele>433.8</ele>
        <time>2022-02-12T10:05:26Z</time>
      </trkpt>
      <trkpt lat="43.08386" lon="-0.05187">
        <ele>433.6</ele>
        <time>2022-02-12T10:05:27Z</time>
      </trkpt>
      <trkpt lat="43.08386" lon="-0.05186">
        <ele>433.4</ele>
        <time>2022-02-12T10:05:28Z</time>
      </trkpt>
      <trkpt lat="43.08386" lon="-0.05186">
        <ele>433.2</ele>
        <time>2022-02-12T10:05:29Z</time>
      </trkpt>
      <trkpt lat="43.08386" lon="-0.05186">
        <ele>432.6</ele>
        <time>2022-02-12T10:05:30Z</time>
      </trkpt>
      <trkpt lat="43.08386" lon="-0.05185">
        <ele>432.4</ele>
        <time>2022-02-12T10:05:31Z</time>
      </trkpt>
      <trkpt lat="43.08385" lon="-0.05184">
        <ele>432.2</ele>
        <time>2022-02-12T10:05:32Z</time>
      </trkpt>
      <trkpt lat="43.08385" lon="-0.05184">
        <ele>432</ele>
        <time>2022-02-12T10:05:33Z</time>
      </trkpt>
      <trkpt lat="43.08385" lon="-0.05183">
        <ele>431.8</ele>
        <time>2022-02-12T10:05:34Z</time>
      </trkpt>
      <trkpt lat="43.08385" lon="-0.05183">
        <ele>431.6</ele>
        <time>2022-02-12T10:05:35Z</time>
      </trkpt>
      <trkpt lat="43.08386" lon="-0.05183">
        <ele>431.4</ele>
        <time>2022-02-12T10:05:36Z</time>
      </trkpt>
      <trkpt lat="43.08386" lon="-0.05182">
        <ele>431.4</ele>
        <time>2022-02-12T10:05:37Z</time>
      </trkpt>
      <trkpt lat="43.08386" lon="-0.05182">
        <ele>431</ele>
        <time>2022-02-12T10:05:38Z</time>
      </trkpt>
      <trkpt lat="43.08386" lon="-0.05182">
        <ele>430.8</ele>
        <time>2022-02-12T10:05:39Z</time>
      </trkpt>
      <trkpt lat="43.08386" lon="-0.05182">
        <ele>430.6</ele>
        <time>2022-02-12T10:05:40Z</time>
      </trkpt>
      <trkpt lat="43.08387" lon="-0.05181">
        <ele>430.4</ele>
        <time>2022-02-12T10:05:41Z</time>
      </trkpt>
      <trkpt lat="43.08388" lon="-0.05179">
        <ele>430.4</ele>
        <time>2022-02-12T10:05:42Z</time>
      </trkpt>
      <trkpt lat="43.08389" lon="-0.05177">
        <ele>430.4</ele>
        <time>2022-02-12T10:05:43Z</time>
      </trkpt>
      <trkpt lat="43.0839" lon="-0.05176">
        <ele>430.2</ele>
        <time>2022-02-12T10:05:44Z</time>
      </trkpt>
      <trkpt lat="43.0839" lon="-0.05175">
        <ele>430.2</ele>
        <time>2022-02-12T10:05:45Z</time>
      </trkpt>
      <trkpt lat="43.0839" lon="-0.05175">
        <ele>429.6</ele>
        <time>2022-02-12T10:05:46Z</time>
      </trkpt>
      <trkpt lat="43.0839" lon="-0.05175">
        <ele>429.4</ele>
        <time>2022-02-12T10:05:47Z</time>
      </trkpt>
      <trkpt lat="43.0839" lon="-0.05175">
        <ele>429.2</ele>
        <time>2022-02-12T10:05:48Z</time>
      </trkpt>
      <trkpt lat="43.0839" lon="-0.05175">
        <ele>429</ele>
        <time>2022-02-12T10:05:49Z</time>
      </trkpt>
      <trkpt lat="43.0839" lon="-0.05175">
        <ele>428.8</ele>
        <time>2022-02-12T10:05:50Z</time>
      </trkpt>
      <trkpt lat="43.0839" lon="-0.05175">
        <ele>428.6</ele>
        <time>2022-02-12T10:05:51Z</time>
      </trkpt>
      <trkpt lat="43.0839" lon="-0.05175">
        <ele>428.4</ele>
        <time>2022-02-12T10:05:52Z</time>
      </trkpt>
      <trkpt lat="43.0839" lon="-0.05175">
        <ele>428.2</ele>
        <time>2022-02-12T10:05:53Z</time>
      </trkpt>
      <trkpt lat="43.0839" lon="-0.05175">
        <ele>428.2</ele>
        <time>2022-02-12T10:05:54Z</time>
      </trkpt>
      <trkpt lat="43.0839" lon="-0.05175">
        <ele>428</ele>
        <time>2022-02-12T10:05:55Z</time>
      </trkpt>
      <trkpt lat="43.0839" lon="-0.05174">
        <ele>427.8</ele>
        <time>2022-02-12T10:05:56Z</time>
      </trkpt>
      <trkpt lat="43.0839" lon="-0.05172">
        <ele>427.6</ele>
        <time>2022-02-12T10:05:57Z</time>
      </trkpt>
      <trkpt lat="43.0839" lon="-0.05171">
        <ele>427.6</ele>
        <time>2022-02-12T10:05:58Z</time>
      </trkpt>
      <trkpt lat="43.0839" lon="-0.0517">
        <ele>427.2</ele>
        <time>2022-02-12T10:05:59Z</time>
      </trkpt>
      <trkpt lat="43.0839" lon="-0.05169">
        <ele>427</ele>
        <time>2022-02-12T10:06:00Z</time>
      </trkpt>
      <trkpt lat="43.0839" lon="-0.05168">
        <ele>426.6</ele>
        <time>2022-02-12T10:06:01Z</time>
      </trkpt>
      <trkpt lat="43.08391" lon="-0.05167">
        <ele>426.4</ele>
        <time>2022-02-12T10:06:02Z</time>
      </trkpt>
      <trkpt lat="43.0839" lon="-0.05165">
        <ele>426</ele>
        <time>2022-02-12T10:06:03Z</time>
      </trkpt>
      <trkpt lat="43.08391" lon="-0.05164">
        <ele>425.8</ele>
        <time>2022-02-12T10:06:04Z</time>
      </trkpt>
      <trkpt lat="43.08391" lon="-0.05163">
        <ele>425.4</ele>
        <time>2022-02-12T10:06:05Z</time>
      </trkpt>
      <trkpt lat="43.08391" lon="-0.05162">
        <ele>425.2</ele>
        <time>2022-02-12T10:06:06Z</time>
      </trkpt>
      <trkpt lat="43.08392" lon="-0.05162">
        <ele>425</ele>
        <time>2022-02-12T10:06:07Z</time>
      </trkpt>
      <trkpt lat="43.08392" lon="-0.05161">
        <ele>425</ele>
        <time>2022-02-12T10:06:08Z</time>
      </trkpt>
      <trkpt lat="43.08392" lon="-0.0516">
        <ele>424.8</ele>
        <time>2022-02-12T10:06:09Z</time>
      </trkpt>
      <trkpt lat="43.08392" lon="-0.0516">
        <ele>424.8</ele>
        <time>2022-02-12T10:06:10Z</time>
      </trkpt>
      <trkpt lat="43.08392" lon="-0.05159">
        <ele>424.6</ele>
        <time>2022-02-12T10:06:11Z</time>
      </trkpt>
      <trkpt lat="43.08393" lon="-0.05159">
        <ele>424.4</ele>
        <time>2022-02-12T10:06:12Z</time>
      </trkpt>
      <trkpt lat="43.08393" lon="-0.05159">
        <ele>424</ele>
        <time>2022-02-12T10:06:13Z</time>
      </trkpt>
      <trkpt lat="43.08393" lon="-0.05159">
        <ele>424</ele>
        <time>2022-02-12T10:06:14Z</time>
      </trkpt>
      <trkpt lat="43.08392" lon="-0.05157">
        <ele>423.6</ele>
        <time>2022-02-12T10:06:15Z</time>
      </trkpt>
      <trkpt lat="43.08392" lon="-0.05156">
        <ele>423.6</ele>
        <time>2022-02-12T10:06:16Z</time>
      </trkpt>
      <trkpt lat="43.08392" lon="-0.05155">
        <ele>423.4</ele>
        <time>2022-02-12T10:06:17Z</time>
      </trkpt>
      <trkpt lat="43.08392" lon="-0.05155">
        <ele>423.2</ele>
        <time>2022-02-12T10:06:18Z</time>
      </trkpt>
      <trkpt lat="43.08392" lon="-0.05155">
        <ele>423</ele>
        <time>2022-02-12T10:06:19Z</time>
      </trkpt>
      <trkpt lat="43.08393" lon="-0.05155">
        <ele>422.6</ele>
        <time>2022-02-12T10:06:20Z</time>
      </trkpt>
      <trkpt lat="43.08395" lon="-0.05153">
        <ele>422.6</ele>
        <time>2022-02-12T10:06:21Z</time>
      </trkpt>
      <trkpt lat="43.08396" lon="-0.05151">
        <ele>422</ele>
        <time>2022-02-12T10:06:22Z</time>
      </trkpt>
      <trkpt lat="43.08398" lon="-0.05149">
        <ele>421.8</ele>
        <time>2022-02-12T10:06:23Z</time>
      </trkpt>
      <trkpt lat="43.084" lon="-0.05148">
        <ele>421.6</ele>
        <time>2022-02-12T10:06:24Z</time>
      </trkpt>
      <trkpt lat="43.08402" lon="-0.05146">
        <ele>421.4</ele>
        <time>2022-02-12T10:06:25Z</time>
      </trkpt>
      <trkpt lat="43.08404" lon="-0.05145">
        <ele>421.2</ele>
        <time>2022-02-12T10:06:26Z</time>
      </trkpt>
      <trkpt lat="43.08405" lon="-0.05143">
        <ele>421.2</ele>
        <time>2022-02-12T10:06:27Z</time>
      </trkpt>
      <trkpt lat="43.08407" lon="-0.05142">
        <ele>421</ele>
        <time>2022-02-12T10:06:28Z</time>
      </trkpt>
      <trkpt lat="43.08409" lon="-0.05141">
        <ele>420.8</ele>
        <time>2022-02-12T10:06:29Z</time>
      </trkpt>
      <trkpt lat="43.0841" lon="-0.0514">
        <ele>420.8</ele>
        <time>2022-02-12T10:06:30Z</time>
      </trkpt>
      <trkpt lat="43.08412" lon="-0.0514">
        <ele>420.8</ele>
        <time>2022-02-12T10:06:31Z</time>
      </trkpt>
      <trkpt lat="43.08412" lon="-0.0514">
        <ele>420.8</ele>
        <time>2022-02-12T10:06:32Z</time>
      </trkpt>
      <trkpt lat="43.08416" lon="-0.05138">
        <ele>420.8</ele>
        <time>2022-02-12T10:06:33Z</time>
      </trkpt>
      <trkpt lat="43.08418" lon="-0.05137">
        <ele>421</ele>
        <time>2022-02-12T10:06:34Z</time>
      </trkpt>
      <trkpt lat="43.08419" lon="-0.05136">
        <ele>421</ele>
        <time>2022-02-12T10:06:35Z</time>
      </trkpt>
      <trkpt lat="43.08421" lon="-0.05134">
        <ele>421</ele>
        <time>2022-02-12T10:06:36Z</time>
      </trkpt>
      <trkpt lat="43.08424" lon="-0.05133">
        <ele>421</ele>
        <time>2022-02-12T10:06:37Z</time>
      </trkpt>
      <trkpt lat="43.08426" lon="-0.05131">
        <ele>421</ele>
        <time>2022-02-12T10:06:38Z</time>
      </trkpt>
      <trkpt lat="43.08429" lon="-0.05131">
        <ele>421</ele>
        <time>2022-02-12T10:06:39Z</time>
      </trkpt>
      <trkpt lat="43.08431" lon="-0.05131">
        <ele>421.2</ele>
        <time>2022-02-12T10:06:40Z</time>
      </trkpt>
      <trkpt lat="43.08434" lon="-0.05131">
        <ele>421.2</ele>
        <time>2022-02-12T10:06:41Z</time>
      </trkpt>
      <trkpt lat="43.08437" lon="-0.0513">
        <ele>421.2</ele>
        <time>2022-02-12T10:06:42Z</time>
      </trkpt>
      <trkpt lat="43.08439" lon="-0.0513">
        <ele>421.2</ele>
        <time>2022-02-12T10:06:43Z</time>
      </trkpt>
      <trkpt lat="43.08443" lon="-0.05129">
        <ele>421.2</ele>
        <time>2022-02-12T10:06:44Z</time>
      </trkpt>
      <trkpt lat="43.08445" lon="-0.05129">
        <ele>421.2</ele>
        <time>2022-02-12T10:06:45Z</time>
      </trkpt>
      <trkpt lat="43.08447" lon="-0.05128">
        <ele>421.2</ele>
        <time>2022-02-12T10:06:46Z</time>
      </trkpt>
      <trkpt lat="43.0845" lon="-0.05127">
        <ele>421.2</ele>
        <time>2022-02-12T10:06:47Z</time>
      </trkpt>
      <trkpt lat="43.08452" lon="-0.05127">
        <ele>421.2</ele>
        <time>2022-02-12T10:06:48Z</time>
      </trkpt>
      <trkpt lat="43.08454" lon="-0.05126">
        <ele>421.2</ele>
        <time>2022-02-12T10:06:49Z</time>
      </trkpt>
      <trkpt lat="43.08457" lon="-0.05125">
        <ele>421.2</ele>
        <time>2022-02-12T10:06:50Z</time>
      </trkpt>
      <trkpt lat="43.08459" lon="-0.05125">
        <ele>421.4</ele>
        <time>2022-02-12T10:06:51Z</time>
      </trkpt>
      <trkpt lat="43.08462" lon="-0.05124">
        <ele>421.4</ele>
        <time>2022-02-12T10:06:52Z</time>
      </trkpt>
      <trkpt lat="43.08464" lon="-0.05123">
        <ele>421.4</ele>
        <time>2022-02-12T10:06:53Z</time>
      </trkpt>
      <trkpt lat="43.08466" lon="-0.05122">
        <ele>421.4</ele>
        <time>2022-02-12T10:06:54Z</time>
      </trkpt>
      <trkpt lat="43.08469" lon="-0.05121">
        <ele>421.4</ele>
        <time>2022-02-12T10:06:55Z</time>
      </trkpt>
      <trkpt lat="43.08471" lon="-0.0512">
        <ele>421.4</ele>
        <time>2022-02-12T10:06:56Z</time>
      </trkpt>
      <trkpt lat="43.08474" lon="-0.05118">
        <ele>421.4</ele>
        <time>2022-02-12T10:06:57Z</time>
      </trkpt>
      <trkpt lat="43.08476" lon="-0.05118">
        <ele>421.4</ele>
        <time>2022-02-12T10:06:58Z</time>
      </trkpt>
      <trkpt lat="43.08479" lon="-0.05118">
        <ele>421.4</ele>
        <time>2022-02-12T10:06:59Z</time>
      </trkpt>
      <trkpt lat="43.08481" lon="-0.05117">
        <ele>421.4</ele>
        <time>2022-02-12T10:07:00Z</time>
      </trkpt>
      <trkpt lat="43.08484" lon="-0.05116">
        <ele>421.4</ele>
        <time>2022-02-12T10:07:01Z</time>
      </trkpt>
      <trkpt lat="43.08487" lon="-0.05114">
        <ele>421.4</ele>
        <time>2022-02-12T10:07:02Z</time>
      </trkpt>
      <trkpt lat="43.08489" lon="-0.05113">
        <ele>421.4</ele>
        <time>2022-02-12T10:07:03Z</time>
      </trkpt>
      <trkpt lat="43.08492" lon="-0.05112">
        <ele>421.4</ele>
        <time>2022-02-12T10:07:04Z</time>
      </trkpt>
      <trkpt lat="43.08495" lon="-0.05111">
        <ele>421.4</ele>
        <time>2022-02-12T10:07:05Z</time>
      </trkpt>
      <trkpt lat="43.08498" lon="-0.0511">
        <ele>421.6</ele>
        <time>2022-02-12T10:07:06Z</time>
      </trkpt>
      <trkpt lat="43.085" lon="-0.05109">
        <ele>421.6</ele>
        <time>2022-02-12T10:07:07Z</time>
      </trkpt>
      <trkpt lat="43.08503" lon="-0.05108">
        <ele>421.6</ele>
        <time>2022-02-12T10:07:08Z</time>
      </trkpt>
      <trkpt lat="43.08506" lon="-0.05107">
        <ele>421.8</ele>
        <time>2022-02-12T10:07:09Z</time>
      </trkpt>
      <trkpt lat="43.08508" lon="-0.05106">
        <ele>421.8</ele>
        <time>2022-02-12T10:07:10Z</time>
      </trkpt>
      <trkpt lat="43.08511" lon="-0.05106">
        <ele>421.8</ele>
        <time>2022-02-12T10:07:11Z</time>
      </trkpt>
      <trkpt lat="43.08514" lon="-0.05105">
        <ele>422</ele>
        <time>2022-02-12T10:07:12Z</time>
      </trkpt>
      <trkpt lat="43.08517" lon="-0.05105">
        <ele>422</ele>
        <time>2022-02-12T10:07:13Z</time>
      </trkpt>
      <trkpt lat="43.0852" lon="-0.05104">
        <ele>422</ele>
        <time>2022-02-12T10:07:14Z</time>
      </trkpt>
      <trkpt lat="43.08523" lon="-0.05103">
        <ele>422</ele>
        <time>2022-02-12T10:07:15Z</time>
      </trkpt>
      <trkpt lat="43.08525" lon="-0.05102">
        <ele>422</ele>
        <time>2022-02-12T10:07:16Z</time>
      </trkpt>
      <trkpt lat="43.08528" lon="-0.05101">
        <ele>422</ele>
        <time>2022-02-12T10:07:17Z</time>
      </trkpt>
      <trkpt lat="43.0853" lon="-0.05101">
        <ele>422.2</ele>
        <time>2022-02-12T10:07:18Z</time>
      </trkpt>
      <trkpt lat="43.08532" lon="-0.051">
        <ele>422.2</ele>
        <time>2022-02-12T10:07:19Z</time>
      </trkpt>
      <trkpt lat="43.08535" lon="-0.051">
        <ele>422.2</ele>
        <time>2022-02-12T10:07:20Z</time>
      </trkpt>
      <trkpt lat="43.08537" lon="-0.05099">
        <ele>422.2</ele>
        <time>2022-02-12T10:07:21Z</time>
      </trkpt>
      <trkpt lat="43.08538" lon="-0.05098">
        <ele>422.2</ele>
        <time>2022-02-12T10:07:22Z</time>
      </trkpt>
      <trkpt lat="43.0854" lon="-0.05097">
        <ele>422.2</ele>
        <time>2022-02-12T10:07:23Z</time>
      </trkpt>
      <trkpt lat="43.08542" lon="-0.05096">
        <ele>422.2</ele>
        <time>2022-02-12T10:07:24Z</time>
      </trkpt>
      <trkpt lat="43.08544" lon="-0.05095">
        <ele>422.2</ele>
        <time>2022-02-12T10:07:25Z</time>
      </trkpt>
      <trkpt lat="43.08545" lon="-0.05093">
        <ele>422.2</ele>
        <time>2022-02-12T10:07:26Z</time>
      </trkpt>
      <trkpt lat="43.08548" lon="-0.05092">
        <ele>422.2</ele>
        <time>2022-02-12T10:07:27Z</time>
      </trkpt>
      <trkpt lat="43.0855" lon="-0.0509">
        <ele>422.4</ele>
        <time>2022-02-12T10:07:28Z</time>
      </trkpt>
      <trkpt lat="43.08552" lon="-0.05089">
        <ele>422.6</ele>
        <time>2022-02-12T10:07:29Z</time>
      </trkpt>
      <trkpt lat="43.08555" lon="-0.05088">
        <ele>422.6</ele>
        <time>2022-02-12T10:07:30Z</time>
      </trkpt>
      <trkpt lat="43.08557" lon="-0.05086">
        <ele>422.8</ele>
        <time>2022-02-12T10:07:31Z</time>
      </trkpt>
      <trkpt lat="43.0856" lon="-0.05085">
        <ele>422.8</ele>
        <time>2022-02-12T10:07:32Z</time>
      </trkpt>
      <trkpt lat="43.08562" lon="-0.05083">
        <ele>423</ele>
        <time>2022-02-12T10:07:33Z</time>
      </trkpt>
      <trkpt lat="43.08565" lon="-0.05082">
        <ele>423</ele>
        <time>2022-02-12T10:07:34Z</time>
      </trkpt>
      <trkpt lat="43.08567" lon="-0.0508">
        <ele>423</ele>
        <time>2022-02-12T10:07:35Z</time>
      </trkpt>
      <trkpt lat="43.0857" lon="-0.05078">
        <ele>423.2</ele>
        <time>2022-02-12T10:07:36Z</time>
      </trkpt>
      <trkpt lat="43.08573" lon="-0.05076">
        <ele>423</ele>
        <time>2022-02-12T10:07:37Z</time>
      </trkpt>
      <trkpt lat="43.08575" lon="-0.05075">
        <ele>423.2</ele>
        <time>2022-02-12T10:07:38Z</time>
      </trkpt>
      <trkpt lat="43.08578" lon="-0.05073">
        <ele>423.2</ele>
        <time>2022-02-12T10:07:39Z</time>
      </trkpt>
      <trkpt lat="43.0858" lon="-0.05071">
        <ele>423.2</ele>
        <time>2022-02-12T10:07:40Z</time>
      </trkpt>
      <trkpt lat="43.08582" lon="-0.0507">
        <ele>423.2</ele>
        <time>2022-02-12T10:07:41Z</time>
      </trkpt>
      <trkpt lat="43.08584" lon="-0.05068">
        <ele>423.2</ele>
        <time>2022-02-12T10:07:42Z</time>
      </trkpt>
      <trkpt lat="43.08586" lon="-0.05065">
        <ele>423</ele>
        <time>2022-02-12T10:07:43Z</time>
      </trkpt>
      <trkpt lat="43.08587" lon="-0.05063">
        <ele>423</ele>
        <time>2022-02-12T10:07:44Z</time>
      </trkpt>
      <trkpt lat="43.08589" lon="-0.0506">
        <ele>423</ele>
        <time>2022-02-12T10:07:45Z</time>
      </trkpt>
      <trkpt lat="43.08592" lon="-0.05058">
        <ele>423</ele>
        <time>2022-02-12T10:07:46Z</time>
      </trkpt>
      <trkpt lat="43.08595" lon="-0.05056">
        <ele>423</ele>
        <time>2022-02-12T10:07:47Z</time>
      </trkpt>
      <trkpt lat="43.08597" lon="-0.05054">
        <ele>422.8</ele>
        <time>2022-02-12T10:07:48Z</time>
      </trkpt>
      <trkpt lat="43.086" lon="-0.05052">
        <ele>422.8</ele>
        <time>2022-02-12T10:07:49Z</time>
      </trkpt>
      <trkpt lat="43.08603" lon="-0.05051">
        <ele>422.8</ele>
        <time>2022-02-12T10:07:50Z</time>
      </trkpt>
      <trkpt lat="43.08606" lon="-0.0505">
        <ele>422.8</ele>
        <time>2022-02-12T10:07:51Z</time>
      </trkpt>
      <trkpt lat="43.08609" lon="-0.0505">
        <ele>422.8</ele>
        <time>2022-02-12T10:07:52Z</time>
      </trkpt>
      <trkpt lat="43.08613" lon="-0.05051">
        <ele>422.8</ele>
        <time>2022-02-12T10:07:53Z</time>
      </trkpt>
      <trkpt lat="43.08616" lon="-0.05052">
        <ele>422.8</ele>
        <time>2022-02-12T10:07:54Z</time>
      </trkpt>
      <trkpt lat="43.0862" lon="-0.05054">
        <ele>422.8</ele>
        <time>2022-02-12T10:07:55Z</time>
      </trkpt>
      <trkpt lat="43.08624" lon="-0.05056">
        <ele>422.8</ele>
        <time>2022-02-12T10:07:56Z</time>
      </trkpt>
      <trkpt lat="43.08628" lon="-0.05058">
        <ele>422.8</ele>
        <time>2022-02-12T10:07:57Z</time>
      </trkpt>
      <trkpt lat="43.08632" lon="-0.0506">
        <ele>422.8</ele>
        <time>2022-02-12T10:07:58Z</time>
      </trkpt>
      <trkpt lat="43.08637" lon="-0.05062">
        <ele>422.8</ele>
        <time>2022-02-12T10:07:59Z</time>
      </trkpt>
      <trkpt lat="43.08642" lon="-0.05064">
        <ele>422.8</ele>
        <time>2022-02-12T10:08:00Z</time>
      </trkpt>
      <trkpt lat="43.08647" lon="-0.05065">
        <ele>422.8</ele>
        <time>2022-02-12T10:08:01Z</time>
      </trkpt>
      <trkpt lat="43.08652" lon="-0.05065">
        <ele>422.8</ele>
        <time>2022-02-12T10:08:02Z</time>
      </trkpt>
      <trkpt lat="43.08656" lon="-0.05066">
        <ele>422.8</ele>
        <time>2022-02-12T10:08:03Z</time>
      </trkpt>
      <trkpt lat="43.08661" lon="-0.05067">
        <ele>422.8</ele>
        <time>2022-02-12T10:08:04Z</time>
      </trkpt>
      <trkpt lat="43.08665" lon="-0.05067">
        <ele>422.8</ele>
        <time>2022-02-12T10:08:05Z</time>
      </trkpt>
      <trkpt lat="43.0867" lon="-0.05068">
        <ele>422.6</ele>
        <time>2022-02-12T10:08:06Z</time>
      </trkpt>
      <trkpt lat="43.08673" lon="-0.05069">
        <ele>422.4</ele>
        <time>2022-02-12T10:08:07Z</time>
      </trkpt>
      <trkpt lat="43.08677" lon="-0.0507">
        <ele>422.4</ele>
        <time>2022-02-12T10:08:08Z</time>
      </trkpt>
      <trkpt lat="43.0868" lon="-0.0507">
        <ele>422.4</ele>
        <time>2022-02-12T10:08:09Z</time>
      </trkpt>
      <trkpt lat="43.08683" lon="-0.0507">
        <ele>422.4</ele>
        <time>2022-02-12T10:08:10Z</time>
      </trkpt>
      <trkpt lat="43.08685" lon="-0.0507">
        <ele>422.4</ele>
        <time>2022-02-12T10:08:11Z</time>
      </trkpt>
      <trkpt lat="43.08688" lon="-0.05071">
        <ele>422.4</ele>
        <time>2022-02-12T10:08:12Z</time>
      </trkpt>
      <trkpt lat="43.0869" lon="-0.05072">
        <ele>422.4</ele>
        <time>2022-02-12T10:08:13Z</time>
      </trkpt>
      <trkpt lat="43.08693" lon="-0.05072">
        <ele>422.6</ele>
        <time>2022-02-12T10:08:14Z</time>
      </trkpt>
      <trkpt lat="43.08696" lon="-0.05073">
        <ele>422.6</ele>
        <time>2022-02-12T10:08:15Z</time>
      </trkpt>
      <trkpt lat="43.08699" lon="-0.05074">
        <ele>422.6</ele>
        <time>2022-02-12T10:08:16Z</time>
      </trkpt>
      <trkpt lat="43.08702" lon="-0.05074">
        <ele>422.8</ele>
        <time>2022-02-12T10:08:17Z</time>
      </trkpt>
      <trkpt lat="43.08705" lon="-0.05076">
        <ele>423</ele>
        <time>2022-02-12T10:08:18Z</time>
      </trkpt>
      <trkpt lat="43.08708" lon="-0.05077">
        <ele>423</ele>
        <time>2022-02-12T10:08:19Z</time>
      </trkpt>
      <trkpt lat="43.08711" lon="-0.05078">
        <ele>423</ele>
        <time>2022-02-12T10:08:20Z</time>
      </trkpt>
      <trkpt lat="43.08713" lon="-0.0508">
        <ele>423.2</ele>
        <time>2022-02-12T10:08:21Z</time>
      </trkpt>
      <trkpt lat="43.08716" lon="-0.05081">
        <ele>423.2</ele>
        <time>2022-02-12T10:08:22Z</time>
      </trkpt>
      <trkpt lat="43.08718" lon="-0.05082">
        <ele>423.4</ele>
        <time>2022-02-12T10:08:23Z</time>
      </trkpt>
      <trkpt lat="43.0872" lon="-0.05084">
        <ele>423.4</ele>
        <time>2022-02-12T10:08:24Z</time>
      </trkpt>
      <trkpt lat="43.08723" lon="-0.05086">
        <ele>423.6</ele>
        <time>2022-02-12T10:08:25Z</time>
      </trkpt>
      <trkpt lat="43.08726" lon="-0.05088">
        <ele>423.6</ele>
        <time>2022-02-12T10:08:26Z</time>
      </trkpt>
      <trkpt lat="43.08728" lon="-0.05091">
        <ele>423.6</ele>
        <time>2022-02-12T10:08:27Z</time>
      </trkpt>
      <trkpt lat="43.08731" lon="-0.05093">
        <ele>423.8</ele>
        <time>2022-02-12T10:08:28Z</time>
      </trkpt>
      <trkpt lat="43.08733" lon="-0.05096">
        <ele>423.8</ele>
        <time>2022-02-12T10:08:29Z</time>
      </trkpt>
      <trkpt lat="43.08734" lon="-0.05097">
        <ele>423.8</ele>
        <time>2022-02-12T10:08:30Z</time>
      </trkpt>
      <trkpt lat="43.08736" lon="-0.05099">
        <ele>424</ele>
        <time>2022-02-12T10:08:31Z</time>
      </trkpt>
      <trkpt lat="43.08737" lon="-0.051">
        <ele>424</ele>
        <time>2022-02-12T10:08:32Z</time>
      </trkpt>
      <trkpt lat="43.08738" lon="-0.05101">
        <ele>424</ele>
        <time>2022-02-12T10:08:33Z</time>
      </trkpt>
      <trkpt lat="43.0874" lon="-0.05103">
        <ele>424.2</ele>
        <time>2022-02-12T10:08:34Z</time>
      </trkpt>
      <trkpt lat="43.08741" lon="-0.05104">
        <ele>424.2</ele>
        <time>2022-02-12T10:08:35Z</time>
      </trkpt>
      <trkpt lat="43.08742" lon="-0.05105">
        <ele>424.2</ele>
        <time>2022-02-12T10:08:36Z</time>
      </trkpt>
      <trkpt lat="43.08744" lon="-0.05107">
        <ele>424.2</ele>
        <time>2022-02-12T10:08:37Z</time>
      </trkpt>
      <trkpt lat="43.08745" lon="-0.05108">
        <ele>424.2</ele>
        <time>2022-02-12T10:08:38Z</time>
      </trkpt>
      <trkpt lat="43.08747" lon="-0.0511">
        <ele>424.2</ele>
        <time>2022-02-12T10:08:39Z</time>
      </trkpt>
      <trkpt lat="43.08749" lon="-0.05112">
        <ele>424.4</ele>
        <time>2022-02-12T10:08:40Z</time>
      </trkpt>
      <trkpt lat="43.0875" lon="-0.05113">
        <ele>424.4</ele>
        <time>2022-02-12T10:08:41Z</time>
      </trkpt>
      <trkpt lat="43.08752" lon="-0.05114">
        <ele>424.4</ele>
        <time>2022-02-12T10:08:42Z</time>
      </trkpt>
      <trkpt lat="43.08754" lon="-0.05115">
        <ele>424.4</ele>
        <time>2022-02-12T10:08:43Z</time>
      </trkpt>
      <trkpt lat="43.08756" lon="-0.05117">
        <ele>424.4</ele>
        <time>2022-02-12T10:08:44Z</time>
      </trkpt>
      <trkpt lat="43.08757" lon="-0.05118">
        <ele>424.4</ele>
        <time>2022-02-12T10:08:45Z</time>
      </trkpt>
      <trkpt lat="43.08759" lon="-0.05119">
        <ele>424.4</ele>
        <time>2022-02-12T10:08:46Z</time>
      </trkpt>
      <trkpt lat="43.0876" lon="-0.05121">
        <ele>424.4</ele>
        <time>2022-02-12T10:08:47Z</time>
      </trkpt>
      <trkpt lat="43.08761" lon="-0.05122">
        <ele>424.4</ele>
        <time>2022-02-12T10:08:48Z</time>
      </trkpt>
      <trkpt lat="43.08762" lon="-0.05124">
        <ele>424.4</ele>
        <time>2022-02-12T10:08:49Z</time>
      </trkpt>
      <trkpt lat="43.08763" lon="-0.05125">
        <ele>424.6</ele>
        <time>2022-02-12T10:08:50Z</time>
      </trkpt>
      <trkpt lat="43.08762" lon="-0.05126">
        <ele>424.4</ele>
        <time>2022-02-12T10:08:51Z</time>
      </trkpt>
      <trkpt lat="43.08762" lon="-0.05127">
        <ele>424.4</ele>
        <time>2022-02-12T10:08:52Z</time>
      </trkpt>
      <trkpt lat="43.08761" lon="-0.05127">
        <ele>424.4</ele>
        <time>2022-02-12T10:08:53Z</time>
      </trkpt>
      <trkpt lat="43.0876" lon="-0.05126">
        <ele>424.4</ele>
        <time>2022-02-12T10:08:54Z</time>
      </trkpt>
      <trkpt lat="43.08759" lon="-0.05124">
        <ele>424.4</ele>
        <time>2022-02-12T10:08:55Z</time>
      </trkpt>
      <trkpt lat="43.08758" lon="-0.05122">
        <ele>424.6</ele>
        <time>2022-02-12T10:08:56Z</time>
      </trkpt>
      <trkpt lat="43.08756" lon="-0.0512">
        <ele>424.6</ele>
        <time>2022-02-12T10:08:57Z</time>
      </trkpt>
      <trkpt lat="43.08754" lon="-0.05119">
        <ele>424.6</ele>
        <time>2022-02-12T10:08:58Z</time>
      </trkpt>
      <trkpt lat="43.08751" lon="-0.05118">
        <ele>424.6</ele>
        <time>2022-02-12T10:08:59Z</time>
      </trkpt>
      <trkpt lat="43.08749" lon="-0.05116">
        <ele>424.6</ele>
        <time>2022-02-12T10:09:00Z</time>
      </trkpt>
      <trkpt lat="43.08747" lon="-0.05113">
        <ele>424.6</ele>
        <time>2022-02-12T10:09:01Z</time>
      </trkpt>
      <trkpt lat="43.08744" lon="-0.05111">
        <ele>424.6</ele>
        <time>2022-02-12T10:09:02Z</time>
      </trkpt>
      <trkpt lat="43.08741" lon="-0.05108">
        <ele>424.6</ele>
        <time>2022-02-12T10:09:03Z</time>
      </trkpt>
      <trkpt lat="43.08739" lon="-0.05105">
        <ele>424.6</ele>
        <time>2022-02-12T10:09:04Z</time>
      </trkpt>
      <trkpt lat="43.08736" lon="-0.05102">
        <ele>424.6</ele>
        <time>2022-02-12T10:09:05Z</time>
      </trkpt>
      <trkpt lat="43.08733" lon="-0.051">
        <ele>424.6</ele>
        <time>2022-02-12T10:09:06Z</time>
      </trkpt>
      <trkpt lat="43.0873" lon="-0.05097">
        <ele>424.6</ele>
        <time>2022-02-12T10:09:07Z</time>
      </trkpt>
      <trkpt lat="43.08727" lon="-0.05094">
        <ele>424.6</ele>
        <time>2022-02-12T10:09:08Z</time>
      </trkpt>
      <trkpt lat="43.08724" lon="-0.05092">
        <ele>424.6</ele>
        <time>2022-02-12T10:09:09Z</time>
      </trkpt>
      <trkpt lat="43.08721" lon="-0.05089">
        <ele>424.6</ele>
        <time>2022-02-12T10:09:10Z</time>
      </trkpt>
      <trkpt lat="43.08718" lon="-0.05087">
        <ele>424.4</ele>
        <time>2022-02-12T10:09:11Z</time>
      </trkpt>
      <trkpt lat="43.08715" lon="-0.05086">
        <ele>424.4</ele>
        <time>2022-02-12T10:09:12Z</time>
      </trkpt>
      <trkpt lat="43.08712" lon="-0.05084">
        <ele>424.4</ele>
        <time>2022-02-12T10:09:13Z</time>
      </trkpt>
      <trkpt lat="43.08709" lon="-0.05083">
        <ele>424.4</ele>
        <time>2022-02-12T10:09:14Z</time>
      </trkpt>
      <trkpt lat="43.08706" lon="-0.05081">
        <ele>424.2</ele>
        <time>2022-02-12T10:09:15Z</time>
      </trkpt>
      <trkpt lat="43.08704" lon="-0.0508">
        <ele>424.2</ele>
        <time>2022-02-12T10:09:16Z</time>
      </trkpt>
      <trkpt lat="43.08701" lon="-0.05079">
        <ele>424</ele>
        <time>2022-02-12T10:09:17Z</time>
      </trkpt>
      <trkpt lat="43.08699" lon="-0.05078">
        <ele>424</ele>
        <time>2022-02-12T10:09:18Z</time>
      </trkpt>
      <trkpt lat="43.08696" lon="-0.05078">
        <ele>423.8</ele>
        <time>2022-02-12T10:09:19Z</time>
      </trkpt>
      <trkpt lat="43.08694" lon="-0.05077">
        <ele>423.8</ele>
        <time>2022-02-12T10:09:20Z</time>
      </trkpt>
      <trkpt lat="43.08692" lon="-0.05077">
        <ele>423.8</ele>
        <time>2022-02-12T10:09:21Z</time>
      </trkpt>
      <trkpt lat="43.08689" lon="-0.05076">
        <ele>423.8</ele>
        <time>2022-02-12T10:09:22Z</time>
      </trkpt>
      <trkpt lat="43.08686" lon="-0.05074">
        <ele>423.6</ele>
        <time>2022-02-12T10:09:23Z</time>
      </trkpt>
      <trkpt lat="43.08684" lon="-0.05073">
        <ele>423.6</ele>
        <time>2022-02-12T10:09:24Z</time>
      </trkpt>
      <trkpt lat="43.08681" lon="-0.05072">
        <ele>423.6</ele>
        <time>2022-02-12T10:09:25Z</time>
      </trkpt>
      <trkpt lat="43.08679" lon="-0.05071">
        <ele>423.4</ele>
        <time>2022-02-12T10:09:26Z</time>
      </trkpt>
      <trkpt lat="43.08676" lon="-0.0507">
        <ele>423.4</ele>
        <time>2022-02-12T10:09:27Z</time>
      </trkpt>
      <trkpt lat="43.08673" lon="-0.05069">
        <ele>423.4</ele>
        <time>2022-02-12T10:09:28Z</time>
      </trkpt>
      <trkpt lat="43.0867" lon="-0.05068">
        <ele>423.2</ele>
        <time>2022-02-12T10:09:29Z</time>
      </trkpt>
      <trkpt lat="43.08666" lon="-0.05068">
        <ele>423.2</ele>
        <time>2022-02-12T10:09:30Z</time>
      </trkpt>
      <trkpt lat="43.08663" lon="-0.05068">
        <ele>423</ele>
        <time>2022-02-12T10:09:31Z</time>
      </trkpt>
      <trkpt lat="43.0866" lon="-0.05067">
        <ele>423</ele>
        <time>2022-02-12T10:09:32Z</time>
      </trkpt>
      <trkpt lat="43.08656" lon="-0.05067">
        <ele>423</ele>
        <time>2022-02-12T10:09:33Z</time>
      </trkpt>
      <trkpt lat="43.08653" lon="-0.05067">
        <ele>422.6</ele>
        <time>2022-02-12T10:09:34Z</time>
      </trkpt>
      <trkpt lat="43.08651" lon="-0.05067">
        <ele>422.4</ele>
        <time>2022-02-12T10:09:35Z</time>
      </trkpt>
      <trkpt lat="43.08648" lon="-0.05066">
        <ele>422.2</ele>
        <time>2022-02-12T10:09:36Z</time>
      </trkpt>
      <trkpt lat="43.08646" lon="-0.05066">
        <ele>422</ele>
        <time>2022-02-12T10:09:37Z</time>
      </trkpt>
      <trkpt lat="43.08644" lon="-0.05065">
        <ele>422</ele>
        <time>2022-02-12T10:09:38Z</time>
      </trkpt>
      <trkpt lat="43.08641" lon="-0.05065">
        <ele>422</ele>
        <time>2022-02-12T10:09:39Z</time>
      </trkpt>
      <trkpt lat="43.08639" lon="-0.05064">
        <ele>422</ele>
        <time>2022-02-12T10:09:40Z</time>
      </trkpt>
      <trkpt lat="43.08637" lon="-0.05065">
        <ele>421.8</ele>
        <time>2022-02-12T10:09:41Z</time>
      </trkpt>
      <trkpt lat="43.08635" lon="-0.05065">
        <ele>421.8</ele>
        <time>2022-02-12T10:09:42Z</time>
      </trkpt>
      <trkpt lat="43.08634" lon="-0.05065">
        <ele>421.8</ele>
        <time>2022-02-12T10:09:43Z</time>
      </trkpt>
      <trkpt lat="43.08632" lon="-0.05064">
        <ele>421.8</ele>
        <time>2022-02-12T10:09:44Z</time>
      </trkpt>
      <trkpt lat="43.0863" lon="-0.05062">
        <ele>421.8</ele>
        <time>2022-02-12T10:09:45Z</time>
      </trkpt>
      <trkpt lat="43.08628" lon="-0.05061">
        <ele>421.8</ele>
        <time>2022-02-12T10:09:46Z</time>
      </trkpt>
      <trkpt lat="43.08626" lon="-0.05061">
        <ele>421.8</ele>
        <time>2022-02-12T10:09:47Z</time>
      </trkpt>
      <trkpt lat="43.08624" lon="-0.0506">
        <ele>421.8</ele>
        <time>2022-02-12T10:09:48Z</time>
      </trkpt>
      <trkpt lat="43.08623" lon="-0.05059">
        <ele>422</ele>
        <time>2022-02-12T10:09:49Z</time>
      </trkpt>
      <trkpt lat="43.08621" lon="-0.05058">
        <ele>422</ele>
        <time>2022-02-12T10:09:50Z</time>
      </trkpt>
      <trkpt lat="43.08619" lon="-0.05057">
        <ele>422</ele>
        <time>2022-02-12T10:09:51Z</time>
      </trkpt>
      <trkpt lat="43.08617" lon="-0.05056">
        <ele>422</ele>
        <time>2022-02-12T10:09:52Z</time>
      </trkpt>
      <trkpt lat="43.08615" lon="-0.05055">
        <ele>422.2</ele>
        <time>2022-02-12T10:09:53Z</time>
      </trkpt>
      <trkpt lat="43.08613" lon="-0.05054">
        <ele>422.4</ele>
        <time>2022-02-12T10:09:54Z</time>
      </trkpt>
      <trkpt lat="43.08611" lon="-0.05053">
        <ele>422.4</ele>
        <time>2022-02-12T10:09:55Z</time>
      </trkpt>
      <trkpt lat="43.08609" lon="-0.05053">
        <ele>422.6</ele>
        <time>2022-02-12T10:09:56Z</time>
      </trkpt>
      <trkpt lat="43.08607" lon="-0.05052">
        <ele>422.8</ele>
        <time>2022-02-12T10:09:57Z</time>
      </trkpt>
      <trkpt lat="43.08605" lon="-0.05053">
        <ele>422.8</ele>
        <time>2022-02-12T10:09:58Z</time>
      </trkpt>
      <trkpt lat="43.08604" lon="-0.05053">
        <ele>423</ele>
        <time>2022-02-12T10:09:59Z</time>
      </trkpt>
      <trkpt lat="43.08602" lon="-0.05054">
        <ele>423</ele>
        <time>2022-02-12T10:10:00Z</time>
      </trkpt>
      <trkpt lat="43.086" lon="-0.05054">
        <ele>423</ele>
        <time>2022-02-12T10:10:01Z</time>
      </trkpt>
      <trkpt lat="43.08599" lon="-0.05055">
        <ele>423.2</ele>
        <time>2022-02-12T10:10:02Z</time>
      </trkpt>
      <trkpt lat="43.08597" lon="-0.05057">
        <ele>423.2</ele>
        <time>2022-02-12T10:10:03Z</time>
      </trkpt>
      <trkpt lat="43.08596" lon="-0.05058">
        <ele>423.2</ele>
        <time>2022-02-12T10:10:04Z</time>
      </trkpt>
      <trkpt lat="43.08595" lon="-0.05059">
        <ele>423.4</ele>
        <time>2022-02-12T10:10:05Z</time>
      </trkpt>
      <trkpt lat="43.08594" lon="-0.0506">
        <ele>423.4</ele>
        <time>2022-02-12T10:10:06Z</time>
      </trkpt>
      <trkpt lat="43.08593" lon="-0.05061">
        <ele>423.4</ele>
        <time>2022-02-12T10:10:07Z</time>
      </trkpt>
      <trkpt lat="43.08592" lon="-0.05062">
        <ele>423.4</ele>
        <time>2022-02-12T10:10:08Z</time>
      </trkpt>
      <trkpt lat="43.08591" lon="-0.05062">
        <ele>423.4</ele>
        <time>2022-02-12T10:10:09Z</time>
      </trkpt>
      <trkpt lat="43.0859" lon="-0.05062">
        <ele>423.6</ele>
        <time>2022-02-12T10:10:10Z</time>
      </trkpt>
      <trkpt lat="43.0859" lon="-0.05061">
        <ele>423.6</ele>
        <time>2022-02-12T10:10:11Z</time>
      </trkpt>
      <trkpt lat="43.08591" lon="-0.0506">
        <ele>423.6</ele>
        <time>2022-02-12T10:10:12Z</time>
      </trkpt>
      <trkpt lat="43.08591" lon="-0.05059">
        <ele>423.6</ele>
        <time>2022-02-12T10:10:13Z</time>
      </trkpt>
      <trkpt lat="43.08591" lon="-0.05059">
        <ele>423.6</ele>
        <time>2022-02-12T10:10:14Z</time>
      </trkpt>
      <trkpt lat="43.08591" lon="-0.05059">
        <ele>423.6</ele>
        <time>2022-02-12T10:10:15Z</time>
      </trkpt>
      <trkpt lat="43.08591" lon="-0.05059">
        <ele>423.6</ele>
        <time>2022-02-12T10:10:16Z</time>
      </trkpt>
      <trkpt lat="43.08591" lon="-0.05059">
        <ele>423.6</ele>
        <time>2022-02-12T10:10:17Z</time>
      </trkpt>
      <trkpt lat="43.08591" lon="-0.05059">
        <ele>423.6</ele>
        <time>2022-02-12T10:10:18Z</time>
      </trkpt>
      <trkpt lat="43.08591" lon="-0.05059">
        <ele>423.6</ele>
        <time>2022-02-12T10:10:19Z</time>
      </trkpt>
      <trkpt lat="43.08591" lon="-0.05059">
        <ele>423.6</ele>
        <time>2022-02-12T10:10:20Z</time>
      </trkpt>
      <trkpt lat="43.08591" lon="-0.05059">
        <ele>423.6</ele>
        <time>2022-02-12T10:10:21Z</time>
      </trkpt>
      <trkpt lat="43.08591" lon="-0.05059">
        <ele>423.6</ele>
        <time>2022-02-12T10:10:22Z</time>
      </trkpt>
      <trkpt lat="43.08591" lon="-0.05059">
        <ele>423.6</ele>
        <time>2022-02-12T10:10:23Z</time>
      </trkpt>
      <trkpt lat="43.08591" lon="-0.05059">
        <ele>423.6</ele>
        <time>2022-02-12T10:10:24Z</time>
      </trkpt>
      <trkpt lat="43.08591" lon="-0.05059">
        <ele>423.6</ele>
        <time>2022-02-12T10:10:25Z</time>
      </trkpt>
      <trkpt lat="43.08591" lon="-0.05059">
        <ele>423.6</ele>
        <time>2022-02-12T10:10:26Z</time>
      </trkpt>
      <trkpt lat="43.08591" lon="-0.05059">
        <ele>423.6</ele>
        <time>2022-02-12T10:10:27Z</time>
      </trkpt>
      <trkpt lat="43.08591" lon="-0.05059">
        <ele>423.6</ele>
        <time>2022-02-12T10:10:28Z</time>
      </trkpt>
      <trkpt lat="43.08593" lon="-0.05058">
        <ele>423.6</ele>
        <time>2022-02-12T10:10:29Z</time>
      </trkpt>
      <trkpt lat="43.08594" lon="-0.05057">
        <ele>423.6</ele>
        <time>2022-02-12T10:10:30Z</time>
      </trkpt>
      <trkpt lat="43.08596" lon="-0.05056">
        <ele>423.6</ele>
        <time>2022-02-12T10:10:31Z</time>
      </trkpt>
      <trkpt lat="43.08598" lon="-0.05054">
        <ele>423.6</ele>
        <time>2022-02-12T10:10:32Z</time>
      </trkpt>
      <trkpt lat="43.086" lon="-0.05053">
        <ele>423.6</ele>
        <time>2022-02-12T10:10:33Z</time>
      </trkpt>
      <trkpt lat="43.08601" lon="-0.05051">
        <ele>423.6</ele>
        <time>2022-02-12T10:10:34Z</time>
      </trkpt>
      <trkpt lat="43.08602" lon="-0.05049">
        <ele>423.6</ele>
        <time>2022-02-12T10:10:35Z</time>
      </trkpt>
      <trkpt lat="43.08603" lon="-0.05047">
        <ele>423.6</ele>
        <time>2022-02-12T10:10:36Z</time>
      </trkpt>
      <trkpt lat="43.08605" lon="-0.05045">
        <ele>423.6</ele>
        <time>2022-02-12T10:10:37Z</time>
      </trkpt>
      <trkpt lat="43.08606" lon="-0.05043">
        <ele>423.6</ele>
        <time>2022-02-12T10:10:38Z</time>
      </trkpt>
      <trkpt lat="43.08607" lon="-0.05041">
        <ele>423.4</ele>
        <time>2022-02-12T10:10:39Z</time>
      </trkpt>
      <trkpt lat="43.08608" lon="-0.0504">
        <ele>423.4</ele>
        <time>2022-02-12T10:10:40Z</time>
      </trkpt>
      <trkpt lat="43.0861" lon="-0.05039">
        <ele>423.2</ele>
        <time>2022-02-12T10:10:41Z</time>
      </trkpt>
      <trkpt lat="43.08611" lon="-0.05038">
        <ele>423.2</ele>
        <time>2022-02-12T10:10:42Z</time>
      </trkpt>
      <trkpt lat="43.08613" lon="-0.05037">
        <ele>423.2</ele>
        <time>2022-02-12T10:10:43Z</time>
      </trkpt>
      <trkpt lat="43.08615" lon="-0.05036">
        <ele>423.2</ele>
        <time>2022-02-12T10:10:44Z</time>
      </trkpt>
      <trkpt lat="43.08617" lon="-0.05035">
        <ele>423</ele>
        <time>2022-02-12T10:10:45Z</time>
      </trkpt>
      <trkpt lat="43.08619" lon="-0.05033">
        <ele>423</ele>
        <time>2022-02-12T10:10:46Z</time>
      </trkpt>
      <trkpt lat="43.08621" lon="-0.05032">
        <ele>423</ele>
        <time>2022-02-12T10:10:47Z</time>
      </trkpt>
      <trkpt lat="43.08623" lon="-0.0503">
        <ele>423</ele>
        <time>2022-02-12T10:10:48Z</time>
      </trkpt>
      <trkpt lat="43.08625" lon="-0.05029">
        <ele>423</ele>
        <time>2022-02-12T10:10:49Z</time>
      </trkpt>
      <trkpt lat="43.08627" lon="-0.05027">
        <ele>423</ele>
        <time>2022-02-12T10:10:50Z</time>
      </trkpt>
      <trkpt lat="43.0863" lon="-0.05024">
        <ele>423</ele>
        <time>2022-02-12T10:10:51Z</time>
      </trkpt>
      <trkpt lat="43.08632" lon="-0.05022">
        <ele>423</ele>
        <time>2022-02-12T10:10:52Z</time>
      </trkpt>
      <trkpt lat="43.08635" lon="-0.05019">
        <ele>423</ele>
        <time>2022-02-12T10:10:53Z</time>
      </trkpt>
      <trkpt lat="43.08637" lon="-0.05017">
        <ele>423</ele>
        <time>2022-02-12T10:10:54Z</time>
      </trkpt>
      <trkpt lat="43.08639" lon="-0.05014">
        <ele>423</ele>
        <time>2022-02-12T10:10:55Z</time>
      </trkpt>
      <trkpt lat="43.08641" lon="-0.05012">
        <ele>423</ele>
        <time>2022-02-12T10:10:56Z</time>
      </trkpt>
      <trkpt lat="43.08642" lon="-0.0501">
        <ele>423</ele>
        <time>2022-02-12T10:10:57Z</time>
      </trkpt>
      <trkpt lat="43.08644" lon="-0.05009">
        <ele>423</ele>
        <time>2022-02-12T10:10:58Z</time>
      </trkpt>
      <trkpt lat="43.08647" lon="-0.05008">
        <ele>422.8</ele>
        <time>2022-02-12T10:10:59Z</time>
      </trkpt>
      <trkpt lat="43.08649" lon="-0.05007">
        <ele>422.8</ele>
        <time>2022-02-12T10:11:00Z</time>
      </trkpt>
      <trkpt lat="43.08652" lon="-0.05007">
        <ele>422.8</ele>
        <time>2022-02-12T10:11:01Z</time>
      </trkpt>
      <trkpt lat="43.08655" lon="-0.05006">
        <ele>422.8</ele>
        <time>2022-02-12T10:11:02Z</time>
      </trkpt>
      <trkpt lat="43.08658" lon="-0.05005">
        <ele>422.8</ele>
        <time>2022-02-12T10:11:03Z</time>
      </trkpt>
      <trkpt lat="43.08661" lon="-0.05004">
        <ele>422.8</ele>
        <time>2022-02-12T10:11:04Z</time>
      </trkpt>
      <trkpt lat="43.08663" lon="-0.05004">
        <ele>422.8</ele>
        <time>2022-02-12T10:11:05Z</time>
      </trkpt>
      <trkpt lat="43.08666" lon="-0.05004">
        <ele>422.6</ele>
        <time>2022-02-12T10:11:06Z</time>
      </trkpt>
      <trkpt lat="43.08669" lon="-0.05004">
        <ele>422.6</ele>
        <time>2022-02-12T10:11:07Z</time>
      </trkpt>
      <trkpt lat="43.08672" lon="-0.05005">
        <ele>422.6</ele>
        <time>2022-02-12T10:11:08Z</time>
      </trkpt>
      <trkpt lat="43.08675" lon="-0.05006">
        <ele>422.6</ele>
        <time>2022-02-12T10:11:09Z</time>
      </trkpt>
      <trkpt lat="43.08678" lon="-0.05007">
        <ele>422.6</ele>
        <time>2022-02-12T10:11:10Z</time>
      </trkpt>
      <trkpt lat="43.08681" lon="-0.05008">
        <ele>422.4</ele>
        <time>2022-02-12T10:11:11Z</time>
      </trkpt>
      <trkpt lat="43.08683" lon="-0.05009">
        <ele>422.4</ele>
        <time>2022-02-12T10:11:12Z</time>
      </trkpt>
      <trkpt lat="43.08686" lon="-0.05009">
        <ele>422.4</ele>
        <time>2022-02-12T10:11:13Z</time>
      </trkpt>
      <trkpt lat="43.08689" lon="-0.0501">
        <ele>422.4</ele>
        <time>2022-02-12T10:11:14Z</time>
      </trkpt>
      <trkpt lat="43.08692" lon="-0.0501">
        <ele>422.4</ele>
        <time>2022-02-12T10:11:15Z</time>
      </trkpt>
      <trkpt lat="43.08695" lon="-0.05011">
        <ele>422.4</ele>
        <time>2022-02-12T10:11:16Z</time>
      </trkpt>
      <trkpt lat="43.08698" lon="-0.05011">
        <ele>422.4</ele>
        <time>2022-02-12T10:11:17Z</time>
      </trkpt>
      <trkpt lat="43.08701" lon="-0.05012">
        <ele>422.4</ele>
        <time>2022-02-12T10:11:18Z</time>
      </trkpt>
      <trkpt lat="43.08705" lon="-0.05013">
        <ele>422.4</ele>
        <time>2022-02-12T10:11:19Z</time>
      </trkpt>
      <trkpt lat="43.08708" lon="-0.05013">
        <ele>422.4</ele>
        <time>2022-02-12T10:11:20Z</time>
      </trkpt>
      <trkpt lat="43.08712" lon="-0.05014">
        <ele>422.4</ele>
        <time>2022-02-12T10:11:21Z</time>
      </trkpt>
      <trkpt lat="43.08715" lon="-0.05015">
        <ele>422.4</ele>
        <time>2022-02-12T10:11:22Z</time>
      </trkpt>
      <trkpt lat="43.08719" lon="-0.05016">
        <ele>422.4</ele>
        <time>2022-02-12T10:11:23Z</time>
      </trkpt>
      <trkpt lat="43.08722" lon="-0.05017">
        <ele>422.4</ele>
        <time>2022-02-12T10:11:24Z</time>
      </trkpt>
      <trkpt lat="43.08726" lon="-0.05019">
        <ele>422.2</ele>
        <time>2022-02-12T10:11:25Z</time>
      </trkpt>
      <trkpt lat="43.08729" lon="-0.0502">
        <ele>422</ele>
        <time>2022-02-12T10:11:26Z</time>
      </trkpt>
      <trkpt lat="43.08732" lon="-0.05021">
        <ele>422</ele>
        <time>2022-02-12T10:11:27Z</time>
      </trkpt>
      <trkpt lat="43.08736" lon="-0.05023">
        <ele>422</ele>
        <time>2022-02-12T10:11:28Z</time>
      </trkpt>
      <trkpt lat="43.08739" lon="-0.05024">
        <ele>421.8</ele>
        <time>2022-02-12T10:11:29Z</time>
      </trkpt>
      <trkpt lat="43.08742" lon="-0.05026">
        <ele>421.8</ele>
        <time>2022-02-12T10:11:30Z</time>
      </trkpt>
      <trkpt lat="43.08745" lon="-0.05027">
        <ele>421.6</ele>
        <time>2022-02-12T10:11:31Z</time>
      </trkpt>
      <trkpt lat="43.08748" lon="-0.05028">
        <ele>421.6</ele>
        <time>2022-02-12T10:11:32Z</time>
      </trkpt>
      <trkpt lat="43.08751" lon="-0.05029">
        <ele>421.6</ele>
        <time>2022-02-12T10:11:33Z</time>
      </trkpt>
      <trkpt lat="43.08754" lon="-0.05031">
        <ele>421.4</ele>
        <time>2022-02-12T10:11:34Z</time>
      </trkpt>
      <trkpt lat="43.08758" lon="-0.05033">
        <ele>421.4</ele>
        <time>2022-02-12T10:11:35Z</time>
      </trkpt>
      <trkpt lat="43.08761" lon="-0.05035">
        <ele>421.2</ele>
        <time>2022-02-12T10:11:36Z</time>
      </trkpt>
      <trkpt lat="43.08764" lon="-0.05037">
        <ele>421.2</ele>
        <time>2022-02-12T10:11:37Z</time>
      </trkpt>
      <trkpt lat="43.08767" lon="-0.05038">
        <ele>421.2</ele>
        <time>2022-02-12T10:11:38Z</time>
      </trkpt>
      <trkpt lat="43.0877" lon="-0.0504">
        <ele>421.2</ele>
        <time>2022-02-12T10:11:39Z</time>
      </trkpt>
      <trkpt lat="43.08773" lon="-0.05042">
        <ele>421.2</ele>
        <time>2022-02-12T10:11:40Z</time>
      </trkpt>
      <trkpt lat="43.08776" lon="-0.05043">
        <ele>421.2</ele>
        <time>2022-02-12T10:11:41Z</time>
      </trkpt>
      <trkpt lat="43.08779" lon="-0.05045">
        <ele>421.2</ele>
        <time>2022-02-12T10:11:42Z</time>
      </trkpt>
      <trkpt lat="43.08782" lon="-0.05048">
        <ele>421</ele>
        <time>2022-02-12T10:11:43Z</time>
      </trkpt>
      <trkpt lat="43.08784" lon="-0.05049">
        <ele>421</ele>
        <time>2022-02-12T10:11:44Z</time>
      </trkpt>
      <trkpt lat="43.08787" lon="-0.05051">
        <ele>421</ele>
        <time>2022-02-12T10:11:45Z</time>
      </trkpt>
      <trkpt lat="43.0879" lon="-0.05051">
        <ele>421</ele>
        <time>2022-02-12T10:11:46Z</time>
      </trkpt>
      <trkpt lat="43.08793" lon="-0.05053">
        <ele>421</ele>
        <time>2022-02-12T10:11:47Z</time>
      </trkpt>
      <trkpt lat="43.08796" lon="-0.05055">
        <ele>421</ele>
        <time>2022-02-12T10:11:48Z</time>
      </trkpt>
      <trkpt lat="43.08799" lon="-0.05057">
        <ele>421</ele>
        <time>2022-02-12T10:11:49Z</time>
      </trkpt>
      <trkpt lat="43.08802" lon="-0.05059">
        <ele>421</ele>
        <time>2022-02-12T10:11:50Z</time>
      </trkpt>
      <trkpt lat="43.08805" lon="-0.05061">
        <ele>421</ele>
        <time>2022-02-12T10:11:51Z</time>
      </trkpt>
      <trkpt lat="43.08807" lon="-0.05063">
        <ele>420.8</ele>
        <time>2022-02-12T10:11:52Z</time>
      </trkpt>
      <trkpt lat="43.0881" lon="-0.05065">
        <ele>420.8</ele>
        <time>2022-02-12T10:11:53Z</time>
      </trkpt>
      <trkpt lat="43.08812" lon="-0.05068">
        <ele>420.8</ele>
        <time>2022-02-12T10:11:54Z</time>
      </trkpt>
      <trkpt lat="43.08814" lon="-0.05071">
        <ele>420.8</ele>
        <time>2022-02-12T10:11:55Z</time>
      </trkpt>
      <trkpt lat="43.08816" lon="-0.05074">
        <ele>420.8</ele>
        <time>2022-02-12T10:11:56Z</time>
      </trkpt>
      <trkpt lat="43.08817" lon="-0.05076">
        <ele>420.8</ele>
        <time>2022-02-12T10:11:57Z</time>
      </trkpt>
      <trkpt lat="43.08818" lon="-0.05079">
        <ele>420.8</ele>
        <time>2022-02-12T10:11:58Z</time>
      </trkpt>
      <trkpt lat="43.08821" lon="-0.05081">
        <ele>420.8</ele>
        <time>2022-02-12T10:11:59Z</time>
      </trkpt>
      <trkpt lat="43.08823" lon="-0.05084">
        <ele>420.8</ele>
        <time>2022-02-12T10:12:00Z</time>
      </trkpt>
      <trkpt lat="43.08826" lon="-0.05086">
        <ele>420.8</ele>
        <time>2022-02-12T10:12:01Z</time>
      </trkpt>
      <trkpt lat="43.08828" lon="-0.05089">
        <ele>420.8</ele>
        <time>2022-02-12T10:12:02Z</time>
      </trkpt>
      <trkpt lat="43.08831" lon="-0.05092">
        <ele>420.8</ele>
        <time>2022-02-12T10:12:03Z</time>
      </trkpt>
      <trkpt lat="43.08833" lon="-0.05095">
        <ele>420.8</ele>
        <time>2022-02-12T10:12:04Z</time>
      </trkpt>
      <trkpt lat="43.08836" lon="-0.05098">
        <ele>420.8</ele>
        <time>2022-02-12T10:12:05Z</time>
      </trkpt>
      <trkpt lat="43.08838" lon="-0.05101">
        <ele>420.8</ele>
        <time>2022-02-12T10:12:06Z</time>
      </trkpt>
      <trkpt lat="43.08841" lon="-0.05104">
        <ele>421</ele>
        <time>2022-02-12T10:12:07Z</time>
      </trkpt>
      <trkpt lat="43.08843" lon="-0.05107">
        <ele>421</ele>
        <time>2022-02-12T10:12:08Z</time>
      </trkpt>
      <trkpt lat="43.08845" lon="-0.0511">
        <ele>421</ele>
        <time>2022-02-12T10:12:09Z</time>
      </trkpt>
      <trkpt lat="43.08847" lon="-0.05114">
        <ele>421</ele>
        <time>2022-02-12T10:12:10Z</time>
      </trkpt>
      <trkpt lat="43.08849" lon="-0.05117">
        <ele>421</ele>
        <time>2022-02-12T10:12:11Z</time>
      </trkpt>
      <trkpt lat="43.0885" lon="-0.0512">
        <ele>420.8</ele>
        <time>2022-02-12T10:12:12Z</time>
      </trkpt>
      <trkpt lat="43.08851" lon="-0.05123">
        <ele>420.8</ele>
        <time>2022-02-12T10:12:13Z</time>
      </trkpt>
      <trkpt lat="43.08852" lon="-0.05126">
        <ele>420.8</ele>
        <time>2022-02-12T10:12:14Z</time>
      </trkpt>
      <trkpt lat="43.08853" lon="-0.05129">
        <ele>420.8</ele>
        <time>2022-02-12T10:12:15Z</time>
      </trkpt>
      <trkpt lat="43.08853" lon="-0.05133">
        <ele>420.8</ele>
        <time>2022-02-12T10:12:16Z</time>
      </trkpt>
      <trkpt lat="43.08854" lon="-0.05136">
        <ele>420.8</ele>
        <time>2022-02-12T10:12:17Z</time>
      </trkpt>
      <trkpt lat="43.08855" lon="-0.0514">
        <ele>420.8</ele>
        <time>2022-02-12T10:12:18Z</time>
      </trkpt>
      <trkpt lat="43.08855" lon="-0.05143">
        <ele>420.8</ele>
        <time>2022-02-12T10:12:19Z</time>
      </trkpt>
      <trkpt lat="43.08856" lon="-0.05147">
        <ele>420.8</ele>
        <time>2022-02-12T10:12:20Z</time>
      </trkpt>
      <trkpt lat="43.08856" lon="-0.0515">
        <ele>421</ele>
        <time>2022-02-12T10:12:21Z</time>
      </trkpt>
      <trkpt lat="43.08856" lon="-0.05153">
        <ele>421</ele>
        <time>2022-02-12T10:12:22Z</time>
      </trkpt>
      <trkpt lat="43.08856" lon="-0.05157">
        <ele>421</ele>
        <time>2022-02-12T10:12:23Z</time>
      </trkpt>
      <trkpt lat="43.08857" lon="-0.05161">
        <ele>421.2</ele>
        <time>2022-02-12T10:12:24Z</time>
      </trkpt>
      <trkpt lat="43.08858" lon="-0.05164">
        <ele>421.2</ele>
        <time>2022-02-12T10:12:25Z</time>
      </trkpt>
      <trkpt lat="43.08858" lon="-0.05167">
        <ele>421.2</ele>
        <time>2022-02-12T10:12:26Z</time>
      </trkpt>
      <trkpt lat="43.08858" lon="-0.0517">
        <ele>421.2</ele>
        <time>2022-02-12T10:12:27Z</time>
      </trkpt>
      <trkpt lat="43.08859" lon="-0.05174">
        <ele>421.4</ele>
        <time>2022-02-12T10:12:28Z</time>
      </trkpt>
      <trkpt lat="43.08859" lon="-0.05177">
        <ele>421.4</ele>
        <time>2022-02-12T10:12:29Z</time>
      </trkpt>
      <trkpt lat="43.0886" lon="-0.05181">
        <ele>421.4</ele>
        <time>2022-02-12T10:12:30Z</time>
      </trkpt>
      <trkpt lat="43.08861" lon="-0.05186">
        <ele>421.4</ele>
        <time>2022-02-12T10:12:31Z</time>
      </trkpt>
      <trkpt lat="43.08862" lon="-0.05191">
        <ele>421.4</ele>
        <time>2022-02-12T10:12:32Z</time>
      </trkpt>
      <trkpt lat="43.08862" lon="-0.05196">
        <ele>421.4</ele>
        <time>2022-02-12T10:12:33Z</time>
      </trkpt>
      <trkpt lat="43.08862" lon="-0.05201">
        <ele>421.4</ele>
        <time>2022-02-12T10:12:34Z</time>
      </trkpt>
      <trkpt lat="43.08862" lon="-0.05205">
        <ele>421.4</ele>
        <time>2022-02-12T10:12:35Z</time>
      </trkpt>
      <trkpt lat="43.08861" lon="-0.05208">
        <ele>421.4</ele>
        <time>2022-02-12T10:12:36Z</time>
      </trkpt>
      <trkpt lat="43.08861" lon="-0.05211">
        <ele>421.4</ele>
        <time>2022-02-12T10:12:37Z</time>
      </trkpt>
      <trkpt lat="43.08861" lon="-0.05214">
        <ele>421.6</ele>
        <time>2022-02-12T10:12:38Z</time>
      </trkpt>
      <trkpt lat="43.08861" lon="-0.05217">
        <ele>421.6</ele>
        <time>2022-02-12T10:12:39Z</time>
      </trkpt>
      <trkpt lat="43.08861" lon="-0.0522">
        <ele>421.6</ele>
        <time>2022-02-12T10:12:40Z</time>
      </trkpt>
      <trkpt lat="43.08861" lon="-0.05223">
        <ele>421.6</ele>
        <time>2022-02-12T10:12:41Z</time>
      </trkpt>
      <trkpt lat="43.08861" lon="-0.05226">
        <ele>421.8</ele>
        <time>2022-02-12T10:12:42Z</time>
      </trkpt>
      <trkpt lat="43.0886" lon="-0.0523">
        <ele>422</ele>
        <time>2022-02-12T10:12:43Z</time>
      </trkpt>
      <trkpt lat="43.0886" lon="-0.05233">
        <ele>422</ele>
        <time>2022-02-12T10:12:44Z</time>
      </trkpt>
      <trkpt lat="43.0886" lon="-0.05237">
        <ele>421.8</ele>
        <time>2022-02-12T10:12:45Z</time>
      </trkpt>
      <trkpt lat="43.0886" lon="-0.05241">
        <ele>421.8</ele>
        <time>2022-02-12T10:12:46Z</time>
      </trkpt>
      <trkpt lat="43.0886" lon="-0.05244">
        <ele>422</ele>
        <time>2022-02-12T10:12:47Z</time>
      </trkpt>
      <trkpt lat="43.0886" lon="-0.05247">
        <ele>422</ele>
        <time>2022-02-12T10:12:48Z</time>
      </trkpt>
      <trkpt lat="43.0886" lon="-0.05251">
        <ele>422.2</ele>
        <time>2022-02-12T10:12:49Z</time>
      </trkpt>
      <trkpt lat="43.0886" lon="-0.05254">
        <ele>422.2</ele>
        <time>2022-02-12T10:12:50Z</time>
      </trkpt>
      <trkpt lat="43.0886" lon="-0.05257">
        <ele>422</ele>
        <time>2022-02-12T10:12:51Z</time>
      </trkpt>
      <trkpt lat="43.0886" lon="-0.05261">
        <ele>422</ele>
        <time>2022-02-12T10:12:52Z</time>
      </trkpt>
      <trkpt lat="43.0886" lon="-0.05265">
        <ele>422</ele>
        <time>2022-02-12T10:12:53Z</time>
      </trkpt>
      <trkpt lat="43.08859" lon="-0.05267">
        <ele>422</ele>
        <time>2022-02-12T10:12:54Z</time>
      </trkpt>
      <trkpt lat="43.08859" lon="-0.0527">
        <ele>422</ele>
        <time>2022-02-12T10:12:55Z</time>
      </trkpt>
      <trkpt lat="43.08859" lon="-0.05272">
        <ele>422.2</ele>
        <time>2022-02-12T10:12:56Z</time>
      </trkpt>
      <trkpt lat="43.08859" lon="-0.05274">
        <ele>422.2</ele>
        <time>2022-02-12T10:12:57Z</time>
      </trkpt>
      <trkpt lat="43.08858" lon="-0.05276">
        <ele>422.2</ele>
        <time>2022-02-12T10:12:58Z</time>
      </trkpt>
      <trkpt lat="43.08859" lon="-0.05279">
        <ele>422.4</ele>
        <time>2022-02-12T10:12:59Z</time>
      </trkpt>
      <trkpt lat="43.08859" lon="-0.05282">
        <ele>422.4</ele>
        <time>2022-02-12T10:13:00Z</time>
      </trkpt>
      <trkpt lat="43.08859" lon="-0.05285">
        <ele>422.6</ele>
        <time>2022-02-12T10:13:01Z</time>
      </trkpt>
      <trkpt lat="43.08859" lon="-0.05287">
        <ele>422.6</ele>
        <time>2022-02-12T10:13:02Z</time>
      </trkpt>
      <trkpt lat="43.08859" lon="-0.05287">
        <ele>422.8</ele>
        <time>2022-02-12T10:13:03Z</time>
      </trkpt>
      <trkpt lat="43.08859" lon="-0.05288">
        <ele>422.8</ele>
        <time>2022-02-12T10:13:04Z</time>
      </trkpt>
      <trkpt lat="43.08858" lon="-0.05289">
        <ele>423</ele>
        <time>2022-02-12T10:13:05Z</time>
      </trkpt>
      <trkpt lat="43.08858" lon="-0.0529">
        <ele>423</ele>
        <time>2022-02-12T10:13:06Z</time>
      </trkpt>
      <trkpt lat="43.08858" lon="-0.05291">
        <ele>423</ele>
        <time>2022-02-12T10:13:07Z</time>
      </trkpt>
      <trkpt lat="43.08857" lon="-0.05291">
        <ele>423</ele>
        <time>2022-02-12T10:13:08Z</time>
      </trkpt>
      <trkpt lat="43.08857" lon="-0.05291">
        <ele>423</ele>
        <time>2022-02-12T10:13:09Z</time>
      </trkpt>
      <trkpt lat="43.08857" lon="-0.05291">
        <ele>423.2</ele>
        <time>2022-02-12T10:13:10Z</time>
      </trkpt>
      <trkpt lat="43.08857" lon="-0.05291">
        <ele>423.2</ele>
        <time>2022-02-12T10:13:11Z</time>
      </trkpt>
      <trkpt lat="43.08857" lon="-0.05291">
        <ele>423.4</ele>
        <time>2022-02-12T10:13:12Z</time>
      </trkpt>
      <trkpt lat="43.08857" lon="-0.05291">
        <ele>423.4</ele>
        <time>2022-02-12T10:13:13Z</time>
      </trkpt>
      <trkpt lat="43.08857" lon="-0.05292">
        <ele>423.6</ele>
        <time>2022-02-12T10:13:14Z</time>
      </trkpt>
      <trkpt lat="43.08856" lon="-0.05292">
        <ele>423.6</ele>
        <time>2022-02-12T10:13:15Z</time>
      </trkpt>
      <trkpt lat="43.08855" lon="-0.05293">
        <ele>423.6</ele>
        <time>2022-02-12T10:13:16Z</time>
      </trkpt>
      <trkpt lat="43.08854" lon="-0.05294">
        <ele>423.8</ele>
        <time>2022-02-12T10:13:17Z</time>
      </trkpt>
      <trkpt lat="43.08853" lon="-0.05294">
        <ele>423.8</ele>
        <time>2022-02-12T10:13:18Z</time>
      </trkpt>
      <trkpt lat="43.08853" lon="-0.05294">
        <ele>424</ele>
        <time>2022-02-12T10:13:19Z</time>
      </trkpt>
      <trkpt lat="43.08852" lon="-0.05294">
        <ele>424</ele>
        <time>2022-02-12T10:13:20Z</time>
      </trkpt>
      <trkpt lat="43.08852" lon="-0.05294">
        <ele>424</ele>
        <time>2022-02-12T10:13:21Z</time>
      </trkpt>
      <trkpt lat="43.08852" lon="-0.05294">
        <ele>424.2</ele>
        <time>2022-02-12T10:13:22Z</time>
      </trkpt>
      <trkpt lat="43.08852" lon="-0.05294">
        <ele>424.2</ele>
        <time>2022-02-12T10:13:23Z</time>
      </trkpt>
      <trkpt lat="43.08852" lon="-0.05294">
        <ele>424.4</ele>
        <time>2022-02-12T10:13:24Z</time>
      </trkpt>
      <trkpt lat="43.08852" lon="-0.05294">
        <ele>424.4</ele>
        <time>2022-02-12T10:13:25Z</time>
      </trkpt>
      <trkpt lat="43.08852" lon="-0.05294">
        <ele>424.6</ele>
        <time>2022-02-12T10:13:26Z</time>
      </trkpt>
      <trkpt lat="43.08852" lon="-0.05294">
        <ele>424.6</ele>
        <time>2022-02-12T10:13:27Z</time>
      </trkpt>
      <trkpt lat="43.08852" lon="-0.05294">
        <ele>424.6</ele>
        <time>2022-02-12T10:13:28Z</time>
      </trkpt>
      <trkpt lat="43.08852" lon="-0.05294">
        <ele>424.6</ele>
        <time>2022-02-12T10:13:29Z</time>
      </trkpt>
      <trkpt lat="43.08852" lon="-0.05294">
        <ele>424.6</ele>
        <time>2022-02-12T10:13:30Z</time>
      </trkpt>
      <trkpt lat="43.08851" lon="-0.05293">
        <ele>424.8</ele>
        <time>2022-02-12T10:13:31Z</time>
      </trkpt>
      <trkpt lat="43.0885" lon="-0.05292">
        <ele>424.8</ele>
        <time>2022-02-12T10:13:32Z</time>
      </trkpt>
      <trkpt lat="43.08848" lon="-0.05291">
        <ele>424.8</ele>
        <time>2022-02-12T10:13:33Z</time>
      </trkpt>
      <trkpt lat="43.08847" lon="-0.0529">
        <ele>425</ele>
        <time>2022-02-12T10:13:34Z</time>
      </trkpt>
      <trkpt lat="43.08846" lon="-0.05289">
        <ele>425</ele>
        <time>2022-02-12T10:13:35Z</time>
      </trkpt>
      <trkpt lat="43.08844" lon="-0.05288">
        <ele>425</ele>
        <time>2022-02-12T10:13:36Z</time>
      </trkpt>
      <trkpt lat="43.08842" lon="-0.05287">
        <ele>425</ele>
        <time>2022-02-12T10:13:37Z</time>
      </trkpt>
      <trkpt lat="43.08841" lon="-0.05286">
        <ele>425</ele>
        <time>2022-02-12T10:13:38Z</time>
      </trkpt>
      <trkpt lat="43.0884" lon="-0.05285">
        <ele>425</ele>
        <time>2022-02-12T10:13:39Z</time>
      </trkpt>
      <trkpt lat="43.08839" lon="-0.05284">
        <ele>425</ele>
        <time>2022-02-12T10:13:40Z</time>
      </trkpt>
      <trkpt lat="43.08838" lon="-0.05282">
        <ele>425</ele>
        <time>2022-02-12T10:13:41Z</time>
      </trkpt>
      <trkpt lat="43.08837" lon="-0.05281">
        <ele>425</ele>
        <time>2022-02-12T10:13:42Z</time>
      </trkpt>
      <trkpt lat="43.08836" lon="-0.05279">
        <ele>425</ele>
        <time>2022-02-12T10:13:43Z</time>
      </trkpt>
      <trkpt lat="43.08835" lon="-0.05278">
        <ele>425</ele>
        <time>2022-02-12T10:13:44Z</time>
      </trkpt>
      <trkpt lat="43.08834" lon="-0.05277">
        <ele>425</ele>
        <time>2022-02-12T10:13:45Z</time>
      </trkpt>
      <trkpt lat="43.08832" lon="-0.05275">
        <ele>425</ele>
        <time>2022-02-12T10:13:46Z</time>
      </trkpt>
      <trkpt lat="43.08831" lon="-0.05275">
        <ele>425</ele>
        <time>2022-02-12T10:13:47Z</time>
      </trkpt>
      <trkpt lat="43.08829" lon="-0.05273">
        <ele>424.8</ele>
        <time>2022-02-12T10:13:48Z</time>
      </trkpt>
      <trkpt lat="43.08828" lon="-0.05273">
        <ele>424.8</ele>
        <time>2022-02-12T10:13:49Z</time>
      </trkpt>
      <trkpt lat="43.08827" lon="-0.05273">
        <ele>424.8</ele>
        <time>2022-02-12T10:13:50Z</time>
      </trkpt>
      <trkpt lat="43.08826" lon="-0.05272">
        <ele>424.8</ele>
        <time>2022-02-12T10:13:51Z</time>
      </trkpt>
      <trkpt lat="43.08825" lon="-0.05272">
        <ele>424.8</ele>
        <time>2022-02-12T10:13:52Z</time>
      </trkpt>
      <trkpt lat="43.08824" lon="-0.05271">
        <ele>424.8</ele>
        <time>2022-02-12T10:13:53Z</time>
      </trkpt>
      <trkpt lat="43.08823" lon="-0.05271">
        <ele>424.8</ele>
        <time>2022-02-12T10:13:54Z</time>
      </trkpt>
      <trkpt lat="43.08822" lon="-0.05271">
        <ele>424.8</ele>
        <time>2022-02-12T10:13:55Z</time>
      </trkpt>
      <trkpt lat="43.08822" lon="-0.05269">
        <ele>424.8</ele>
        <time>2022-02-12T10:13:56Z</time>
      </trkpt>
      <trkpt lat="43.08821" lon="-0.05268">
        <ele>424.8</ele>
        <time>2022-02-12T10:13:57Z</time>
      </trkpt>
      <trkpt lat="43.0882" lon="-0.05267">
        <ele>424.8</ele>
        <time>2022-02-12T10:13:58Z</time>
      </trkpt>
      <trkpt lat="43.08818" lon="-0.05268">
        <ele>424.6</ele>
        <time>2022-02-12T10:13:59Z</time>
      </trkpt>
      <trkpt lat="43.08817" lon="-0.05268">
        <ele>424.8</ele>
        <time>2022-02-12T10:14:00Z</time>
      </trkpt>
      <trkpt lat="43.08815" lon="-0.05267">
        <ele>424.8</ele>
        <time>2022-02-12T10:14:01Z</time>
      </trkpt>
      <trkpt lat="43.08814" lon="-0.05266">
        <ele>424.8</ele>
        <time>2022-02-12T10:14:02Z</time>
      </trkpt>
      <trkpt lat="43.08812" lon="-0.05264">
        <ele>424.8</ele>
        <time>2022-02-12T10:14:03Z</time>
      </trkpt>
      <trkpt lat="43.08811" lon="-0.05263">
        <ele>424.8</ele>
        <time>2022-02-12T10:14:04Z</time>
      </trkpt>
      <trkpt lat="43.08809" lon="-0.05262">
        <ele>424.8</ele>
        <time>2022-02-12T10:14:05Z</time>
      </trkpt>
      <trkpt lat="43.08808" lon="-0.0526">
        <ele>424.8</ele>
        <time>2022-02-12T10:14:06Z</time>
      </trkpt>
      <trkpt lat="43.08806" lon="-0.05257">
        <ele>424.8</ele>
        <time>2022-02-12T10:14:07Z</time>
      </trkpt>
      <trkpt lat="43.08806" lon="-0.05254">
        <ele>425</ele>
        <time>2022-02-12T10:14:08Z</time>
      </trkpt>
      <trkpt lat="43.08805" lon="-0.05251">
        <ele>425</ele>
        <time>2022-02-12T10:14:09Z</time>
      </trkpt>
      <trkpt lat="43.08805" lon="-0.05249">
        <ele>425.2</ele>
        <time>2022-02-12T10:14:10Z</time>
      </trkpt>
      <trkpt lat="43.08805" lon="-0.05246">
        <ele>425.2</ele>
        <time>2022-02-12T10:14:11Z</time>
      </trkpt>
      <trkpt lat="43.08805" lon="-0.05243">
        <ele>425.2</ele>
        <time>2022-02-12T10:14:12Z</time>
      </trkpt>
      <trkpt lat="43.08804" lon="-0.0524">
        <ele>425.2</ele>
        <time>2022-02-12T10:14:13Z</time>
      </trkpt>
      <trkpt lat="43.08803" lon="-0.05238">
        <ele>425.2</ele>
        <time>2022-02-12T10:14:14Z</time>
      </trkpt>
      <trkpt lat="43.08803" lon="-0.05234">
        <ele>425.6</ele>
        <time>2022-02-12T10:14:15Z</time>
      </trkpt>
      <trkpt lat="43.08802" lon="-0.05232">
        <ele>425.4</ele>
        <time>2022-02-12T10:14:16Z</time>
      </trkpt>
      <trkpt lat="43.08801" lon="-0.05229">
        <ele>425.4</ele>
        <time>2022-02-12T10:14:17Z</time>
      </trkpt>
      <trkpt lat="43.08801" lon="-0.05227">
        <ele>425.4</ele>
        <time>2022-02-12T10:14:18Z</time>
      </trkpt>
      <trkpt lat="43.088" lon="-0.05225">
        <ele>425.6</ele>
        <time>2022-02-12T10:14:19Z</time>
      </trkpt>
      <trkpt lat="43.088" lon="-0.05222">
        <ele>425.6</ele>
        <time>2022-02-12T10:14:20Z</time>
      </trkpt>
      <trkpt lat="43.08799" lon="-0.0522">
        <ele>425.6</ele>
        <time>2022-02-12T10:14:21Z</time>
      </trkpt>
      <trkpt lat="43.08799" lon="-0.05218">
        <ele>425.8</ele>
        <time>2022-02-12T10:14:22Z</time>
      </trkpt>
      <trkpt lat="43.08798" lon="-0.05216">
        <ele>425.8</ele>
        <time>2022-02-12T10:14:23Z</time>
      </trkpt>
      <trkpt lat="43.08796" lon="-0.05213">
        <ele>425.8</ele>
        <time>2022-02-12T10:14:24Z</time>
      </trkpt>
      <trkpt lat="43.08795" lon="-0.05211">
        <ele>425.8</ele>
        <time>2022-02-12T10:14:25Z</time>
      </trkpt>
      <trkpt lat="43.08794" lon="-0.05208">
        <ele>425.8</ele>
        <time>2022-02-12T10:14:26Z</time>
      </trkpt>
      <trkpt lat="43.08793" lon="-0.05206">
        <ele>425.8</ele>
        <time>2022-02-12T10:14:27Z</time>
      </trkpt>
      <trkpt lat="43.08792" lon="-0.05203">
        <ele>425.8</ele>
        <time>2022-02-12T10:14:28Z</time>
      </trkpt>
      <trkpt lat="43.08791" lon="-0.05201">
        <ele>426</ele>
        <time>2022-02-12T10:14:29Z</time>
      </trkpt>
      <trkpt lat="43.08791" lon="-0.05199">
        <ele>426</ele>
        <time>2022-02-12T10:14:30Z</time>
      </trkpt>
      <trkpt lat="43.0879" lon="-0.05197">
        <ele>426.2</ele>
        <time>2022-02-12T10:14:31Z</time>
      </trkpt>
      <trkpt lat="43.08789" lon="-0.05194">
        <ele>426.2</ele>
        <time>2022-02-12T10:14:32Z</time>
      </trkpt>
      <trkpt lat="43.08789" lon="-0.05191">
        <ele>426.4</ele>
        <time>2022-02-12T10:14:33Z</time>
      </trkpt>
      <trkpt lat="43.08789" lon="-0.05189">
        <ele>426.6</ele>
        <time>2022-02-12T10:14:34Z</time>
      </trkpt>
      <trkpt lat="43.08788" lon="-0.05185">
        <ele>426.6</ele>
        <time>2022-02-12T10:14:35Z</time>
      </trkpt>
      <trkpt lat="43.08787" lon="-0.05182">
        <ele>426.8</ele>
        <time>2022-02-12T10:14:36Z</time>
      </trkpt>
      <trkpt lat="43.08786" lon="-0.0518">
        <ele>426.8</ele>
        <time>2022-02-12T10:14:37Z</time>
      </trkpt>
      <trkpt lat="43.08785" lon="-0.05178">
        <ele>427</ele>
        <time>2022-02-12T10:14:38Z</time>
      </trkpt>
      <trkpt lat="43.08784" lon="-0.05176">
        <ele>427</ele>
        <time>2022-02-12T10:14:39Z</time>
      </trkpt>
      <trkpt lat="43.08782" lon="-0.05174">
        <ele>427.2</ele>
        <time>2022-02-12T10:14:40Z</time>
      </trkpt>
      <trkpt lat="43.08781" lon="-0.05172">
        <ele>427.2</ele>
        <time>2022-02-12T10:14:41Z</time>
      </trkpt>
      <trkpt lat="43.08779" lon="-0.05171">
        <ele>427.2</ele>
        <time>2022-02-12T10:14:42Z</time>
      </trkpt>
      <trkpt lat="43.08778" lon="-0.05169">
        <ele>427.4</ele>
        <time>2022-02-12T10:14:43Z</time>
      </trkpt>
      <trkpt lat="43.08778" lon="-0.05166">
        <ele>427.4</ele>
        <time>2022-02-12T10:14:44Z</time>
      </trkpt>
      <trkpt lat="43.08778" lon="-0.05164">
        <ele>427.6</ele>
        <time>2022-02-12T10:14:45Z</time>
      </trkpt>
      <trkpt lat="43.0878" lon="-0.05163">
        <ele>427.8</ele>
        <time>2022-02-12T10:14:46Z</time>
      </trkpt>
      <trkpt lat="43.08781" lon="-0.05163">
        <ele>428</ele>
        <time>2022-02-12T10:14:47Z</time>
      </trkpt>
      <trkpt lat="43.08782" lon="-0.05164">
        <ele>428</ele>
        <time>2022-02-12T10:14:48Z</time>
      </trkpt>
      <trkpt lat="43.08782" lon="-0.05164">
        <ele>428</ele>
        <time>2022-02-12T10:14:49Z</time>
      </trkpt>
      <trkpt lat="43.08782" lon="-0.05164">
        <ele>428.2</ele>
        <time>2022-02-12T10:14:50Z</time>
      </trkpt>
      <trkpt lat="43.08782" lon="-0.05164">
        <ele>428.2</ele>
        <time>2022-02-12T10:14:51Z</time>
      </trkpt>
      <trkpt lat="43.08782" lon="-0.05164">
        <ele>428.2</ele>
        <time>2022-02-12T10:14:52Z</time>
      </trkpt>
      <trkpt lat="43.08782" lon="-0.05164">
        <ele>428.2</ele>
        <time>2022-02-12T10:14:53Z</time>
      </trkpt>
      <trkpt lat="43.08782" lon="-0.05164">
        <ele>428.2</ele>
        <time>2022-02-12T10:14:54Z</time>
      </trkpt>
      <trkpt lat="43.08782" lon="-0.05164">
        <ele>428.2</ele>
        <time>2022-02-12T10:14:55Z</time>
      </trkpt>
      <trkpt lat="43.08782" lon="-0.05164">
        <ele>428.2</ele>
        <time>2022-02-12T10:14:56Z</time>
      </trkpt>
      <trkpt lat="43.08782" lon="-0.05164">
        <ele>428.2</ele>
        <time>2022-02-12T10:14:57Z</time>
      </trkpt>
      <trkpt lat="43.08782" lon="-0.05164">
        <ele>428.2</ele>
        <time>2022-02-12T10:14:58Z</time>
      </trkpt>
      <trkpt lat="43.08782" lon="-0.05164">
        <ele>428.2</ele>
        <time>2022-02-12T10:14:59Z</time>
      </trkpt>
      <trkpt lat="43.08782" lon="-0.05164">
        <ele>428.2</ele>
        <time>2022-02-12T10:15:00Z</time>
      </trkpt>
      <trkpt lat="43.08782" lon="-0.05164">
        <ele>428.2</ele>
        <time>2022-02-12T10:15:01Z</time>
      </trkpt>
      <trkpt lat="43.08782" lon="-0.05164">
        <ele>428.2</ele>
        <time>2022-02-12T10:15:02Z</time>
      </trkpt>
      <trkpt lat="43.08782" lon="-0.05164">
        <ele>428.2</ele>
        <time>2022-02-12T10:15:03Z</time>
      </trkpt>
      <trkpt lat="43.08782" lon="-0.05164">
        <ele>428.2</ele>
        <time>2022-02-12T10:15:04Z</time>
      </trkpt>
      <trkpt lat="43.08782" lon="-0.05164">
        <ele>428.2</ele>
        <time>2022-02-12T10:15:05Z</time>
      </trkpt>
      <trkpt lat="43.08782" lon="-0.05164">
        <ele>428</ele>
        <time>2022-02-12T10:15:06Z</time>
      </trkpt>
      <trkpt lat="43.08782" lon="-0.05164">
        <ele>428</ele>
        <time>2022-02-12T10:15:07Z</time>
      </trkpt>
      <trkpt lat="43.08782" lon="-0.05164">
        <ele>428</ele>
        <time>2022-02-12T10:15:08Z</time>
      </trkpt>
      <trkpt lat="43.08782" lon="-0.05164">
        <ele>428</ele>
        <time>2022-02-12T10:15:09Z</time>
      </trkpt>
      <trkpt lat="43.08782" lon="-0.05164">
        <ele>428</ele>
        <time>2022-02-12T10:15:10Z</time>
      </trkpt>
      <trkpt lat="43.08782" lon="-0.05164">
        <ele>428</ele>
        <time>2022-02-12T10:15:11Z</time>
      </trkpt>
      <trkpt lat="43.08782" lon="-0.05164">
        <ele>427.8</ele>
        <time>2022-02-12T10:15:12Z</time>
      </trkpt>
      <trkpt lat="43.08782" lon="-0.05164">
        <ele>427.8</ele>
        <time>2022-02-12T10:15:13Z</time>
      </trkpt>
      <trkpt lat="43.08782" lon="-0.05164">
        <ele>427.8</ele>
        <time>2022-02-12T10:15:14Z</time>
      </trkpt>
      <trkpt lat="43.08782" lon="-0.05164">
        <ele>427.8</ele>
        <time>2022-02-12T10:15:15Z</time>
      </trkpt>
      <trkpt lat="43.08782" lon="-0.05164">
        <ele>427.8</ele>
        <time>2022-02-12T10:15:16Z</time>
      </trkpt>
      <trkpt lat="43.08782" lon="-0.05164">
        <ele>428</ele>
        <time>2022-02-12T10:15:17Z</time>
      </trkpt>
      <trkpt lat="43.08782" lon="-0.05164">
        <ele>428.2</ele>
        <time>2022-02-12T10:15:18Z</time>
      </trkpt>
      <trkpt lat="43.08782" lon="-0.05164">
        <ele>428.2</ele>
        <time>2022-02-12T10:15:19Z</time>
      </trkpt>
      <trkpt lat="43.08782" lon="-0.05164">
        <ele>428.4</ele>
        <time>2022-02-12T10:15:20Z</time>
      </trkpt>
      <trkpt lat="43.08782" lon="-0.05164">
        <ele>428.2</ele>
        <time>2022-02-12T10:15:21Z</time>
      </trkpt>
      <trkpt lat="43.08782" lon="-0.05164">
        <ele>428.4</ele>
        <time>2022-02-12T10:15:22Z</time>
      </trkpt>
      <trkpt lat="43.08782" lon="-0.05164">
        <ele>428.4</ele>
        <time>2022-02-12T10:15:23Z</time>
      </trkpt>
      <trkpt lat="43.08782" lon="-0.05164">
        <ele>428.4</ele>
        <time>2022-02-12T10:15:24Z</time>
      </trkpt>
      <trkpt lat="43.08782" lon="-0.05164">
        <ele>428.4</ele>
        <time>2022-02-12T10:15:25Z</time>
      </trkpt>
      <trkpt lat="43.08782" lon="-0.05164">
        <ele>428.4</ele>
        <time>2022-02-12T10:15:26Z</time>
      </trkpt>
      <trkpt lat="43.08782" lon="-0.05164">
        <ele>428.4</ele>
        <time>2022-02-12T10:15:27Z</time>
      </trkpt>
      <trkpt lat="43.08782" lon="-0.05164">
        <ele>428.4</ele>
        <time>2022-02-12T10:15:28Z</time>
      </trkpt>
      <trkpt lat="43.08782" lon="-0.05164">
        <ele>428.4</ele>
        <time>2022-02-12T10:15:29Z</time>
      </trkpt>
      <trkpt lat="43.08782" lon="-0.05164">
        <ele>428.4</ele>
        <time>2022-02-12T10:15:30Z</time>
      </trkpt>
      <trkpt lat="43.08782" lon="-0.05164">
        <ele>428.2</ele>
        <time>2022-02-12T10:15:31Z</time>
      </trkpt>
      <trkpt lat="43.08782" lon="-0.05164">
        <ele>428.2</ele>
        <time>2022-02-12T10:15:32Z</time>
      </trkpt>
      <trkpt lat="43.08782" lon="-0.05164">
        <ele>428.2</ele>
        <time>2022-02-12T10:15:33Z</time>
      </trkpt>
      <trkpt lat="43.08782" lon="-0.05164">
        <ele>428.2</ele>
        <time>2022-02-12T10:15:34Z</time>
      </trkpt>
      <trkpt lat="43.08782" lon="-0.05164">
        <ele>428.2</ele>
        <time>2022-02-12T10:15:35Z</time>
      </trkpt>
      <trkpt lat="43.08782" lon="-0.05164">
        <ele>428.2</ele>
        <time>2022-02-12T10:15:36Z</time>
      </trkpt>
      <trkpt lat="43.08782" lon="-0.05164">
        <ele>428.2</ele>
        <time>2022-02-12T10:15:37Z</time>
      </trkpt>
      <trkpt lat="43.08782" lon="-0.05164">
        <ele>428.2</ele>
        <time>2022-02-12T10:15:38Z</time>
      </trkpt>
      <trkpt lat="43.08782" lon="-0.05164">
        <ele>428.2</ele>
        <time>2022-02-12T10:15:39Z</time>
      </trkpt>
      <trkpt lat="43.08782" lon="-0.05164">
        <ele>428.2</ele>
        <time>2022-02-12T10:15:40Z</time>
      </trkpt>
      <trkpt lat="43.08782" lon="-0.05164">
        <ele>428.2</ele>
        <time>2022-02-12T10:15:41Z</time>
      </trkpt>
      <trkpt lat="43.08782" lon="-0.05164">
        <ele>428.2</ele>
        <time>2022-02-12T10:15:42Z</time>
      </trkpt>
      <trkpt lat="43.08782" lon="-0.05164">
        <ele>428.2</ele>
        <time>2022-02-12T10:15:43Z</time>
      </trkpt>
      <trkpt lat="43.08782" lon="-0.05164">
        <ele>428.2</ele>
        <time>2022-02-12T10:15:44Z</time>
      </trkpt>
      <trkpt lat="43.08782" lon="-0.05164">
        <ele>428.2</ele>
        <time>2022-02-12T10:15:45Z</time>
      </trkpt>
      <trkpt lat="43.08782" lon="-0.05164">
        <ele>428.2</ele>
        <time>2022-02-12T10:15:46Z</time>
      </trkpt>
      <trkpt lat="43.08782" lon="-0.05164">
        <ele>428.2</ele>
        <time>2022-02-12T10:15:47Z</time>
      </trkpt>
      <trkpt lat="43.08782" lon="-0.05164">
        <ele>428.2</ele>
        <time>2022-02-12T10:15:48Z</time>
      </trkpt>
      <trkpt lat="43.08782" lon="-0.05164">
        <ele>428.2</ele>
        <time>2022-02-12T10:15:49Z</time>
      </trkpt>
      <trkpt lat="43.08782" lon="-0.05164">
        <ele>428.2</ele>
        <time>2022-02-12T10:15:50Z</time>
      </trkpt>
      <trkpt lat="43.08782" lon="-0.05164">
        <ele>428.2</ele>
        <time>2022-02-12T10:15:51Z</time>
      </trkpt>
      <trkpt lat="43.08782" lon="-0.05164">
        <ele>428.2</ele>
        <time>2022-02-12T10:15:52Z</time>
      </trkpt>
      <trkpt lat="43.08782" lon="-0.05164">
        <ele>428.2</ele>
        <time>2022-02-12T10:15:53Z</time>
      </trkpt>
      <trkpt lat="43.08782" lon="-0.05164">
        <ele>428.2</ele>
        <time>2022-02-12T10:15:54Z</time>
      </trkpt>
      <trkpt lat="43.08782" lon="-0.05164">
        <ele>428.2</ele>
        <time>2022-02-12T10:15:55Z</time>
      </trkpt>
      <trkpt lat="43.08782" lon="-0.05164">
        <ele>428.2</ele>
        <time>2022-02-12T10:15:56Z</time>
      </trkpt>
      <trkpt lat="43.08782" lon="-0.05164">
        <ele>428</ele>
        <time>2022-02-12T10:15:57Z</time>
      </trkpt>
      <trkpt lat="43.08782" lon="-0.05164">
        <ele>428.2</ele>
        <time>2022-02-12T10:15:58Z</time>
      </trkpt>
      <trkpt lat="43.08782" lon="-0.05164">
        <ele>428.2</ele>
        <time>2022-02-12T10:15:59Z</time>
      </trkpt>
      <trkpt lat="43.08782" lon="-0.05164">
        <ele>428.2</ele>
        <time>2022-02-12T10:16:00Z</time>
      </trkpt>
      <trkpt lat="43.08782" lon="-0.05164">
        <ele>428</ele>
        <time>2022-02-12T10:16:01Z</time>
      </trkpt>
      <trkpt lat="43.08782" lon="-0.05164">
        <ele>428</ele>
        <time>2022-02-12T10:16:02Z</time>
      </trkpt>
      <trkpt lat="43.08782" lon="-0.05166">
        <ele>428</ele>
        <time>2022-02-12T10:16:03Z</time>
      </trkpt>
      <trkpt lat="43.08783" lon="-0.05169">
        <ele>427.8</ele>
        <time>2022-02-12T10:16:04Z</time>
      </trkpt>
      <trkpt lat="43.08784" lon="-0.05172">
        <ele>427.8</ele>
        <time>2022-02-12T10:16:05Z</time>
      </trkpt>
      <trkpt lat="43.08786" lon="-0.05176">
        <ele>427.8</ele>
        <time>2022-02-12T10:16:06Z</time>
      </trkpt>
      <trkpt lat="43.08788" lon="-0.0518">
        <ele>427.8</ele>
        <time>2022-02-12T10:16:07Z</time>
      </trkpt>
      <trkpt lat="43.0879" lon="-0.05185">
        <ele>427.8</ele>
        <time>2022-02-12T10:16:08Z</time>
      </trkpt>
      <trkpt lat="43.08791" lon="-0.05191">
        <ele>427.8</ele>
        <time>2022-02-12T10:16:09Z</time>
      </trkpt>
      <trkpt lat="43.08793" lon="-0.05197">
        <ele>427.8</ele>
        <time>2022-02-12T10:16:10Z</time>
      </trkpt>
      <trkpt lat="43.08795" lon="-0.05203">
        <ele>427.8</ele>
        <time>2022-02-12T10:16:11Z</time>
      </trkpt>
      <trkpt lat="43.08796" lon="-0.05209">
        <ele>427.4</ele>
        <time>2022-02-12T10:16:12Z</time>
      </trkpt>
      <trkpt lat="43.08797" lon="-0.05216">
        <ele>427.2</ele>
        <time>2022-02-12T10:16:13Z</time>
      </trkpt>
      <trkpt lat="43.08799" lon="-0.05222">
        <ele>427</ele>
        <time>2022-02-12T10:16:14Z</time>
      </trkpt>
      <trkpt lat="43.088" lon="-0.05229">
        <ele>427</ele>
        <time>2022-02-12T10:16:15Z</time>
      </trkpt>
      <trkpt lat="43.08802" lon="-0.05236">
        <ele>426.8</ele>
        <time>2022-02-12T10:16:16Z</time>
      </trkpt>
      <trkpt lat="43.08803" lon="-0.05243">
        <ele>426.6</ele>
        <time>2022-02-12T10:16:17Z</time>
      </trkpt>
      <trkpt lat="43.08806" lon="-0.0525">
        <ele>426.4</ele>
        <time>2022-02-12T10:16:18Z</time>
      </trkpt>
      <trkpt lat="43.08808" lon="-0.05256">
        <ele>426.4</ele>
        <time>2022-02-12T10:16:19Z</time>
      </trkpt>
      <trkpt lat="43.08812" lon="-0.05262">
        <ele>426.2</ele>
        <time>2022-02-12T10:16:20Z</time>
      </trkpt>
      <trkpt lat="43.08815" lon="-0.05267">
        <ele>426</ele>
        <time>2022-02-12T10:16:21Z</time>
      </trkpt>
      <trkpt lat="43.08819" lon="-0.05272">
        <ele>425.8</ele>
        <time>2022-02-12T10:16:22Z</time>
      </trkpt>
      <trkpt lat="43.08824" lon="-0.05276">
        <ele>425.6</ele>
        <time>2022-02-12T10:16:23Z</time>
      </trkpt>
      <trkpt lat="43.08828" lon="-0.0528">
        <ele>425.6</ele>
        <time>2022-02-12T10:16:24Z</time>
      </trkpt>
      <trkpt lat="43.08832" lon="-0.05284">
        <ele>425.6</ele>
        <time>2022-02-12T10:16:25Z</time>
      </trkpt>
      <trkpt lat="43.08836" lon="-0.05288">
        <ele>425.4</ele>
        <time>2022-02-12T10:16:26Z</time>
      </trkpt>
      <trkpt lat="43.0884" lon="-0.05291">
        <ele>425.4</ele>
        <time>2022-02-12T10:16:27Z</time>
      </trkpt>
      <trkpt lat="43.08844" lon="-0.05294">
        <ele>425.4</ele>
        <time>2022-02-12T10:16:28Z</time>
      </trkpt>
      <trkpt lat="43.08848" lon="-0.05297">
        <ele>425.2</ele>
        <time>2022-02-12T10:16:29Z</time>
      </trkpt>
      <trkpt lat="43.08852" lon="-0.05299">
        <ele>425.2</ele>
        <time>2022-02-12T10:16:30Z</time>
      </trkpt>
      <trkpt lat="43.08856" lon="-0.05302">
        <ele>425.2</ele>
        <time>2022-02-12T10:16:31Z</time>
      </trkpt>
      <trkpt lat="43.0886" lon="-0.05304">
        <ele>425.2</ele>
        <time>2022-02-12T10:16:32Z</time>
      </trkpt>
      <trkpt lat="43.08864" lon="-0.05307">
        <ele>425.2</ele>
        <time>2022-02-12T10:16:33Z</time>
      </trkpt>
      <trkpt lat="43.08868" lon="-0.05309">
        <ele>425.2</ele>
        <time>2022-02-12T10:16:34Z</time>
      </trkpt>
      <trkpt lat="43.08872" lon="-0.05311">
        <ele>425</ele>
        <time>2022-02-12T10:16:35Z</time>
      </trkpt>
      <trkpt lat="43.08877" lon="-0.05313">
        <ele>425</ele>
        <time>2022-02-12T10:16:36Z</time>
      </trkpt>
      <trkpt lat="43.08881" lon="-0.05316">
        <ele>425</ele>
        <time>2022-02-12T10:16:37Z</time>
      </trkpt>
      <trkpt lat="43.08885" lon="-0.05318">
        <ele>425</ele>
        <time>2022-02-12T10:16:38Z</time>
      </trkpt>
      <trkpt lat="43.08889" lon="-0.05321">
        <ele>425</ele>
        <time>2022-02-12T10:16:39Z</time>
      </trkpt>
      <trkpt lat="43.08893" lon="-0.05323">
        <ele>425</ele>
        <time>2022-02-12T10:16:40Z</time>
      </trkpt>
      <trkpt lat="43.08897" lon="-0.05325">
        <ele>425</ele>
        <time>2022-02-12T10:16:41Z</time>
      </trkpt>
      <trkpt lat="43.08901" lon="-0.05328">
        <ele>425</ele>
        <time>2022-02-12T10:16:42Z</time>
      </trkpt>
      <trkpt lat="43.08905" lon="-0.0533">
        <ele>425</ele>
        <time>2022-02-12T10:16:43Z</time>
      </trkpt>
      <trkpt lat="43.08909" lon="-0.05332">
        <ele>425</ele>
        <time>2022-02-12T10:16:44Z</time>
      </trkpt>
      <trkpt lat="43.08913" lon="-0.05334">
        <ele>425</ele>
        <time>2022-02-12T10:16:45Z</time>
      </trkpt>
      <trkpt lat="43.08917" lon="-0.05336">
        <ele>425</ele>
        <time>2022-02-12T10:16:46Z</time>
      </trkpt>
      <trkpt lat="43.08921" lon="-0.05338">
        <ele>425</ele>
        <time>2022-02-12T10:16:47Z</time>
      </trkpt>
      <trkpt lat="43.08926" lon="-0.05341">
        <ele>425</ele>
        <time>2022-02-12T10:16:48Z</time>
      </trkpt>
      <trkpt lat="43.0893" lon="-0.05344">
        <ele>425</ele>
        <time>2022-02-12T10:16:49Z</time>
      </trkpt>
      <trkpt lat="43.08935" lon="-0.05347">
        <ele>424.8</ele>
        <time>2022-02-12T10:16:50Z</time>
      </trkpt>
      <trkpt lat="43.08939" lon="-0.05349">
        <ele>424.6</ele>
        <time>2022-02-12T10:16:51Z</time>
      </trkpt>
      <trkpt lat="43.08944" lon="-0.05352">
        <ele>424.4</ele>
        <time>2022-02-12T10:16:52Z</time>
      </trkpt>
      <trkpt lat="43.08949" lon="-0.05354">
        <ele>424.4</ele>
        <time>2022-02-12T10:16:53Z</time>
      </trkpt>
      <trkpt lat="43.08954" lon="-0.05357">
        <ele>424.2</ele>
        <time>2022-02-12T10:16:54Z</time>
      </trkpt>
      <trkpt lat="43.08959" lon="-0.05361">
        <ele>424</ele>
        <time>2022-02-12T10:16:55Z</time>
      </trkpt>
      <trkpt lat="43.08965" lon="-0.05363">
        <ele>423.6</ele>
        <time>2022-02-12T10:16:56Z</time>
      </trkpt>
      <trkpt lat="43.0897" lon="-0.05364">
        <ele>423.4</ele>
        <time>2022-02-12T10:16:57Z</time>
      </trkpt>
      <trkpt lat="43.08975" lon="-0.05364">
        <ele>423.2</ele>
        <time>2022-02-12T10:16:58Z</time>
      </trkpt>
      <trkpt lat="43.08978" lon="-0.05364">
        <ele>423</ele>
        <time>2022-02-12T10:16:59Z</time>
      </trkpt>
      <trkpt lat="43.08981" lon="-0.05364">
        <ele>422.8</ele>
        <time>2022-02-12T10:17:00Z</time>
      </trkpt>
      <trkpt lat="43.08983" lon="-0.05364">
        <ele>422.6</ele>
        <time>2022-02-12T10:17:01Z</time>
      </trkpt>
      <trkpt lat="43.08986" lon="-0.05366">
        <ele>422.4</ele>
        <time>2022-02-12T10:17:02Z</time>
      </trkpt>
      <trkpt lat="43.08988" lon="-0.05368">
        <ele>422.4</ele>
        <time>2022-02-12T10:17:03Z</time>
      </trkpt>
      <trkpt lat="43.08991" lon="-0.05372">
        <ele>422.2</ele>
        <time>2022-02-12T10:17:04Z</time>
      </trkpt>
      <trkpt lat="43.08994" lon="-0.05376">
        <ele>422.2</ele>
        <time>2022-02-12T10:17:05Z</time>
      </trkpt>
      <trkpt lat="43.08997" lon="-0.05379">
        <ele>422</ele>
        <time>2022-02-12T10:17:06Z</time>
      </trkpt>
      <trkpt lat="43.09" lon="-0.05381">
        <ele>422</ele>
        <time>2022-02-12T10:17:07Z</time>
      </trkpt>
      <trkpt lat="43.09004" lon="-0.05384">
        <ele>421.8</ele>
        <time>2022-02-12T10:17:08Z</time>
      </trkpt>
      <trkpt lat="43.09008" lon="-0.05386">
        <ele>421.8</ele>
        <time>2022-02-12T10:17:09Z</time>
      </trkpt>
      <trkpt lat="43.09012" lon="-0.05389">
        <ele>421.8</ele>
        <time>2022-02-12T10:17:10Z</time>
      </trkpt>
      <trkpt lat="43.09015" lon="-0.05391">
        <ele>421.8</ele>
        <time>2022-02-12T10:17:11Z</time>
      </trkpt>
      <trkpt lat="43.0902" lon="-0.05394">
        <ele>422</ele>
        <time>2022-02-12T10:17:12Z</time>
      </trkpt>
      <trkpt lat="43.09024" lon="-0.05397">
        <ele>421.8</ele>
        <time>2022-02-12T10:17:13Z</time>
      </trkpt>
      <trkpt lat="43.09026" lon="-0.05399">
        <ele>422</ele>
        <time>2022-02-12T10:17:14Z</time>
      </trkpt>
      <trkpt lat="43.09031" lon="-0.05401">
        <ele>422</ele>
        <time>2022-02-12T10:17:15Z</time>
      </trkpt>
      <trkpt lat="43.09035" lon="-0.05404">
        <ele>422</ele>
        <time>2022-02-12T10:17:16Z</time>
      </trkpt>
      <trkpt lat="43.09039" lon="-0.05406">
        <ele>422</ele>
        <time>2022-02-12T10:17:17Z</time>
      </trkpt>
      <trkpt lat="43.09042" lon="-0.05408">
        <ele>422</ele>
        <time>2022-02-12T10:17:18Z</time>
      </trkpt>
      <trkpt lat="43.09047" lon="-0.0541">
        <ele>422</ele>
        <time>2022-02-12T10:17:19Z</time>
      </trkpt>
      <trkpt lat="43.09051" lon="-0.05412">
        <ele>421.8</ele>
        <time>2022-02-12T10:17:20Z</time>
      </trkpt>
      <trkpt lat="43.09056" lon="-0.05416">
        <ele>421.8</ele>
        <time>2022-02-12T10:17:21Z</time>
      </trkpt>
      <trkpt lat="43.09061" lon="-0.05418">
        <ele>421.8</ele>
        <time>2022-02-12T10:17:22Z</time>
      </trkpt>
      <trkpt lat="43.09065" lon="-0.05419">
        <ele>421.8</ele>
        <time>2022-02-12T10:17:23Z</time>
      </trkpt>
      <trkpt lat="43.0907" lon="-0.05422">
        <ele>421.8</ele>
        <time>2022-02-12T10:17:24Z</time>
      </trkpt>
      <trkpt lat="43.09074" lon="-0.05425">
        <ele>421.6</ele>
        <time>2022-02-12T10:17:25Z</time>
      </trkpt>
      <trkpt lat="43.09078" lon="-0.05427">
        <ele>421.6</ele>
        <time>2022-02-12T10:17:26Z</time>
      </trkpt>
      <trkpt lat="43.09082" lon="-0.0543">
        <ele>421.6</ele>
        <time>2022-02-12T10:17:27Z</time>
      </trkpt>
      <trkpt lat="43.09085" lon="-0.05431">
        <ele>421.6</ele>
        <time>2022-02-12T10:17:28Z</time>
      </trkpt>
      <trkpt lat="43.09091" lon="-0.05433">
        <ele>421.6</ele>
        <time>2022-02-12T10:17:29Z</time>
      </trkpt>
      <trkpt lat="43.09095" lon="-0.05435">
        <ele>421.6</ele>
        <time>2022-02-12T10:17:30Z</time>
      </trkpt>
      <trkpt lat="43.09099" lon="-0.05438">
        <ele>421.4</ele>
        <time>2022-02-12T10:17:31Z</time>
      </trkpt>
      <trkpt lat="43.09103" lon="-0.0544">
        <ele>421.4</ele>
        <time>2022-02-12T10:17:32Z</time>
      </trkpt>
      <trkpt lat="43.09108" lon="-0.05444">
        <ele>421.4</ele>
        <time>2022-02-12T10:17:33Z</time>
      </trkpt>
      <trkpt lat="43.09113" lon="-0.05446">
        <ele>421.4</ele>
        <time>2022-02-12T10:17:34Z</time>
      </trkpt>
      <trkpt lat="43.09116" lon="-0.05448">
        <ele>421.4</ele>
        <time>2022-02-12T10:17:35Z</time>
      </trkpt>
      <trkpt lat="43.09121" lon="-0.0545">
        <ele>421.4</ele>
        <time>2022-02-12T10:17:36Z</time>
      </trkpt>
      <trkpt lat="43.09126" lon="-0.05454">
        <ele>421.4</ele>
        <time>2022-02-12T10:17:37Z</time>
      </trkpt>
      <trkpt lat="43.09131" lon="-0.05457">
        <ele>421.4</ele>
        <time>2022-02-12T10:17:38Z</time>
      </trkpt>
      <trkpt lat="43.09135" lon="-0.05459">
        <ele>421.2</ele>
        <time>2022-02-12T10:17:39Z</time>
      </trkpt>
      <trkpt lat="43.0914" lon="-0.05462">
        <ele>421.2</ele>
        <time>2022-02-12T10:17:40Z</time>
      </trkpt>
      <trkpt lat="43.09143" lon="-0.05464">
        <ele>421.2</ele>
        <time>2022-02-12T10:17:41Z</time>
      </trkpt>
      <trkpt lat="43.09148" lon="-0.05468">
        <ele>421.2</ele>
        <time>2022-02-12T10:17:42Z</time>
      </trkpt>
      <trkpt lat="43.09153" lon="-0.05471">
        <ele>421.2</ele>
        <time>2022-02-12T10:17:43Z</time>
      </trkpt>
      <trkpt lat="43.09158" lon="-0.05474">
        <ele>421</ele>
        <time>2022-02-12T10:17:44Z</time>
      </trkpt>
      <trkpt lat="43.09163" lon="-0.05476">
        <ele>421</ele>
        <time>2022-02-12T10:17:45Z</time>
      </trkpt>
      <trkpt lat="43.09167" lon="-0.05478">
        <ele>421</ele>
        <time>2022-02-12T10:17:46Z</time>
      </trkpt>
      <trkpt lat="43.09171" lon="-0.05481">
        <ele>421.2</ele>
        <time>2022-02-12T10:17:47Z</time>
      </trkpt>
      <trkpt lat="43.09175" lon="-0.05483">
        <ele>421.2</ele>
        <time>2022-02-12T10:17:48Z</time>
      </trkpt>
      <trkpt lat="43.09178" lon="-0.05485">
        <ele>421.2</ele>
        <time>2022-02-12T10:17:49Z</time>
      </trkpt>
      <trkpt lat="43.09183" lon="-0.05489">
        <ele>421.2</ele>
        <time>2022-02-12T10:17:50Z</time>
      </trkpt>
      <trkpt lat="43.09185" lon="-0.05491">
        <ele>421.2</ele>
        <time>2022-02-12T10:17:51Z</time>
      </trkpt>
      <trkpt lat="43.09187" lon="-0.05495">
        <ele>421.2</ele>
        <time>2022-02-12T10:17:52Z</time>
      </trkpt>
      <trkpt lat="43.0919" lon="-0.05498">
        <ele>421.2</ele>
        <time>2022-02-12T10:17:53Z</time>
      </trkpt>
      <trkpt lat="43.09193" lon="-0.05501">
        <ele>421.4</ele>
        <time>2022-02-12T10:17:54Z</time>
      </trkpt>
      <trkpt lat="43.09195" lon="-0.05504">
        <ele>421.4</ele>
        <time>2022-02-12T10:17:55Z</time>
      </trkpt>
      <trkpt lat="43.09197" lon="-0.05508">
        <ele>421.4</ele>
        <time>2022-02-12T10:17:56Z</time>
      </trkpt>
      <trkpt lat="43.09198" lon="-0.05511">
        <ele>421.6</ele>
        <time>2022-02-12T10:17:57Z</time>
      </trkpt>
      <trkpt lat="43.092" lon="-0.05513">
        <ele>421.6</ele>
        <time>2022-02-12T10:17:58Z</time>
      </trkpt>
      <trkpt lat="43.09202" lon="-0.05516">
        <ele>421.8</ele>
        <time>2022-02-12T10:17:59Z</time>
      </trkpt>
      <trkpt lat="43.09204" lon="-0.05519">
        <ele>422</ele>
        <time>2022-02-12T10:18:00Z</time>
      </trkpt>
      <trkpt lat="43.09206" lon="-0.05522">
        <ele>422.2</ele>
        <time>2022-02-12T10:18:01Z</time>
      </trkpt>
      <trkpt lat="43.09208" lon="-0.05526">
        <ele>422.2</ele>
        <time>2022-02-12T10:18:02Z</time>
      </trkpt>
      <trkpt lat="43.0921" lon="-0.05529">
        <ele>422.4</ele>
        <time>2022-02-12T10:18:03Z</time>
      </trkpt>
      <trkpt lat="43.09212" lon="-0.05533">
        <ele>422.4</ele>
        <time>2022-02-12T10:18:04Z</time>
      </trkpt>
      <trkpt lat="43.09214" lon="-0.05537">
        <ele>422.4</ele>
        <time>2022-02-12T10:18:05Z</time>
      </trkpt>
      <trkpt lat="43.09216" lon="-0.0554">
        <ele>422.6</ele>
        <time>2022-02-12T10:18:06Z</time>
      </trkpt>
      <trkpt lat="43.09218" lon="-0.05544">
        <ele>422.6</ele>
        <time>2022-02-12T10:18:07Z</time>
      </trkpt>
      <trkpt lat="43.0922" lon="-0.05548">
        <ele>422.6</ele>
        <time>2022-02-12T10:18:08Z</time>
      </trkpt>
      <trkpt lat="43.09222" lon="-0.05552">
        <ele>422.6</ele>
        <time>2022-02-12T10:18:09Z</time>
      </trkpt>
      <trkpt lat="43.09225" lon="-0.05555">
        <ele>422.6</ele>
        <time>2022-02-12T10:18:10Z</time>
      </trkpt>
      <trkpt lat="43.09228" lon="-0.05557">
        <ele>422.6</ele>
        <time>2022-02-12T10:18:11Z</time>
      </trkpt>
      <trkpt lat="43.09232" lon="-0.05556">
        <ele>422.6</ele>
        <time>2022-02-12T10:18:12Z</time>
      </trkpt>
      <trkpt lat="43.09235" lon="-0.05554">
        <ele>422.6</ele>
        <time>2022-02-12T10:18:13Z</time>
      </trkpt>
      <trkpt lat="43.09238" lon="-0.05551">
        <ele>422.6</ele>
        <time>2022-02-12T10:18:14Z</time>
      </trkpt>
      <trkpt lat="43.0924" lon="-0.05547">
        <ele>422.6</ele>
        <time>2022-02-12T10:18:15Z</time>
      </trkpt>
      <trkpt lat="43.09242" lon="-0.05543">
        <ele>422.6</ele>
        <time>2022-02-12T10:18:16Z</time>
      </trkpt>
      <trkpt lat="43.09244" lon="-0.0554">
        <ele>422.6</ele>
        <time>2022-02-12T10:18:17Z</time>
      </trkpt>
      <trkpt lat="43.09246" lon="-0.05537">
        <ele>422.6</ele>
        <time>2022-02-12T10:18:18Z</time>
      </trkpt>
      <trkpt lat="43.09249" lon="-0.05534">
        <ele>422.4</ele>
        <time>2022-02-12T10:18:19Z</time>
      </trkpt>
      <trkpt lat="43.09252" lon="-0.0553">
        <ele>422.4</ele>
        <time>2022-02-12T10:18:20Z</time>
      </trkpt>
      <trkpt lat="43.09255" lon="-0.05527">
        <ele>422.2</ele>
        <time>2022-02-12T10:18:21Z</time>
      </trkpt>
      <trkpt lat="43.09258" lon="-0.05523">
        <ele>422.2</ele>
        <time>2022-02-12T10:18:22Z</time>
      </trkpt>
      <trkpt lat="43.09262" lon="-0.05519">
        <ele>422</ele>
        <time>2022-02-12T10:18:23Z</time>
      </trkpt>
      <trkpt lat="43.09266" lon="-0.05516">
        <ele>422</ele>
        <time>2022-02-12T10:18:24Z</time>
      </trkpt>
      <trkpt lat="43.0927" lon="-0.05512">
        <ele>421.8</ele>
        <time>2022-02-12T10:18:25Z</time>
      </trkpt>
      <trkpt lat="43.09274" lon="-0.05508">
        <ele>421.8</ele>
        <time>2022-02-12T10:18:26Z</time>
      </trkpt>
      <trkpt lat="43.09279" lon="-0.05505">
        <ele>421.6</ele>
        <time>2022-02-12T10:18:27Z</time>
      </trkpt>
      <trkpt lat="43.09284" lon="-0.05501">
        <ele>421.4</ele>
        <time>2022-02-12T10:18:28Z</time>
      </trkpt>
      <trkpt lat="43.09289" lon="-0.05498">
        <ele>421.4</ele>
        <time>2022-02-12T10:18:29Z</time>
      </trkpt>
      <trkpt lat="43.09294" lon="-0.05495">
        <ele>421.2</ele>
        <time>2022-02-12T10:18:30Z</time>
      </trkpt>
      <trkpt lat="43.09298" lon="-0.05492">
        <ele>421.2</ele>
        <time>2022-02-12T10:18:31Z</time>
      </trkpt>
      <trkpt lat="43.09302" lon="-0.05489">
        <ele>421</ele>
        <time>2022-02-12T10:18:32Z</time>
      </trkpt>
      <trkpt lat="43.09307" lon="-0.05486">
        <ele>421</ele>
        <time>2022-02-12T10:18:33Z</time>
      </trkpt>
      <trkpt lat="43.09311" lon="-0.05482">
        <ele>420.8</ele>
        <time>2022-02-12T10:18:34Z</time>
      </trkpt>
      <trkpt lat="43.09316" lon="-0.05478">
        <ele>420.8</ele>
        <time>2022-02-12T10:18:35Z</time>
      </trkpt>
      <trkpt lat="43.0932" lon="-0.05475">
        <ele>420.6</ele>
        <time>2022-02-12T10:18:36Z</time>
      </trkpt>
      <trkpt lat="43.09325" lon="-0.05472">
        <ele>420.6</ele>
        <time>2022-02-12T10:18:37Z</time>
      </trkpt>
      <trkpt lat="43.09328" lon="-0.05469">
        <ele>420.4</ele>
        <time>2022-02-12T10:18:38Z</time>
      </trkpt>
      <trkpt lat="43.09332" lon="-0.05464">
        <ele>420.4</ele>
        <time>2022-02-12T10:18:39Z</time>
      </trkpt>
      <trkpt lat="43.09337" lon="-0.0546">
        <ele>420.4</ele>
        <time>2022-02-12T10:18:40Z</time>
      </trkpt>
      <trkpt lat="43.0934" lon="-0.05457">
        <ele>420.4</ele>
        <time>2022-02-12T10:18:41Z</time>
      </trkpt>
      <trkpt lat="43.09345" lon="-0.05452">
        <ele>420.2</ele>
        <time>2022-02-12T10:18:42Z</time>
      </trkpt>
      <trkpt lat="43.09349" lon="-0.05449">
        <ele>420.2</ele>
        <time>2022-02-12T10:18:43Z</time>
      </trkpt>
      <trkpt lat="43.09354" lon="-0.05445">
        <ele>420.2</ele>
        <time>2022-02-12T10:18:44Z</time>
      </trkpt>
      <trkpt lat="43.09357" lon="-0.05441">
        <ele>420.2</ele>
        <time>2022-02-12T10:18:45Z</time>
      </trkpt>
      <trkpt lat="43.09361" lon="-0.05437">
        <ele>420.2</ele>
        <time>2022-02-12T10:18:46Z</time>
      </trkpt>
      <trkpt lat="43.09364" lon="-0.05434">
        <ele>420.2</ele>
        <time>2022-02-12T10:18:47Z</time>
      </trkpt>
      <trkpt lat="43.09368" lon="-0.0543">
        <ele>420.2</ele>
        <time>2022-02-12T10:18:48Z</time>
      </trkpt>
      <trkpt lat="43.09372" lon="-0.05427">
        <ele>420</ele>
        <time>2022-02-12T10:18:49Z</time>
      </trkpt>
      <trkpt lat="43.09376" lon="-0.05423">
        <ele>420</ele>
        <time>2022-02-12T10:18:50Z</time>
      </trkpt>
      <trkpt lat="43.09379" lon="-0.0542">
        <ele>420</ele>
        <time>2022-02-12T10:18:51Z</time>
      </trkpt>
      <trkpt lat="43.09382" lon="-0.05416">
        <ele>420</ele>
        <time>2022-02-12T10:18:52Z</time>
      </trkpt>
      <trkpt lat="43.09385" lon="-0.05412">
        <ele>420.2</ele>
        <time>2022-02-12T10:18:53Z</time>
      </trkpt>
      <trkpt lat="43.09389" lon="-0.05408">
        <ele>420.2</ele>
        <time>2022-02-12T10:18:54Z</time>
      </trkpt>
      <trkpt lat="43.09393" lon="-0.05404">
        <ele>420.2</ele>
        <time>2022-02-12T10:18:55Z</time>
      </trkpt>
      <trkpt lat="43.09397" lon="-0.054">
        <ele>420.2</ele>
        <time>2022-02-12T10:18:56Z</time>
      </trkpt>
      <trkpt lat="43.094" lon="-0.05395">
        <ele>420.2</ele>
        <time>2022-02-12T10:18:57Z</time>
      </trkpt>
      <trkpt lat="43.09402" lon="-0.05392">
        <ele>420.2</ele>
        <time>2022-02-12T10:18:58Z</time>
      </trkpt>
      <trkpt lat="43.09406" lon="-0.05389">
        <ele>420.2</ele>
        <time>2022-02-12T10:18:59Z</time>
      </trkpt>
      <trkpt lat="43.0941" lon="-0.05384">
        <ele>420.2</ele>
        <time>2022-02-12T10:19:00Z</time>
      </trkpt>
      <trkpt lat="43.09414" lon="-0.05381">
        <ele>420.2</ele>
        <time>2022-02-12T10:19:01Z</time>
      </trkpt>
      <trkpt lat="43.09418" lon="-0.05378">
        <ele>420.2</ele>
        <time>2022-02-12T10:19:02Z</time>
      </trkpt>
      <trkpt lat="43.09422" lon="-0.05376">
        <ele>420.2</ele>
        <time>2022-02-12T10:19:03Z</time>
      </trkpt>
      <trkpt lat="43.09427" lon="-0.05373">
        <ele>420.2</ele>
        <time>2022-02-12T10:19:04Z</time>
      </trkpt>
      <trkpt lat="43.09431" lon="-0.05371">
        <ele>420.2</ele>
        <time>2022-02-12T10:19:05Z</time>
      </trkpt>
      <trkpt lat="43.09435" lon="-0.05369">
        <ele>420.2</ele>
        <time>2022-02-12T10:19:06Z</time>
      </trkpt>
      <trkpt lat="43.0944" lon="-0.05367">
        <ele>420.2</ele>
        <time>2022-02-12T10:19:07Z</time>
      </trkpt>
      <trkpt lat="43.09444" lon="-0.05365">
        <ele>420.4</ele>
        <time>2022-02-12T10:19:08Z</time>
      </trkpt>
      <trkpt lat="43.09448" lon="-0.05364">
        <ele>420.4</ele>
        <time>2022-02-12T10:19:09Z</time>
      </trkpt>
      <trkpt lat="43.09453" lon="-0.05362">
        <ele>420.4</ele>
        <time>2022-02-12T10:19:10Z</time>
      </trkpt>
      <trkpt lat="43.09458" lon="-0.05361">
        <ele>420.4</ele>
        <time>2022-02-12T10:19:11Z</time>
      </trkpt>
      <trkpt lat="43.09462" lon="-0.05359">
        <ele>420.6</ele>
        <time>2022-02-12T10:19:12Z</time>
      </trkpt>
      <trkpt lat="43.09465" lon="-0.05357">
        <ele>420.6</ele>
        <time>2022-02-12T10:19:13Z</time>
      </trkpt>
      <trkpt lat="43.09469" lon="-0.05355">
        <ele>420.6</ele>
        <time>2022-02-12T10:19:14Z</time>
      </trkpt>
      <trkpt lat="43.09472" lon="-0.05353">
        <ele>420.6</ele>
        <time>2022-02-12T10:19:15Z</time>
      </trkpt>
      <trkpt lat="43.09475" lon="-0.05351">
        <ele>420.8</ele>
        <time>2022-02-12T10:19:16Z</time>
      </trkpt>
      <trkpt lat="43.09479" lon="-0.0535">
        <ele>420.8</ele>
        <time>2022-02-12T10:19:17Z</time>
      </trkpt>
      <trkpt lat="43.09483" lon="-0.05348">
        <ele>421</ele>
        <time>2022-02-12T10:19:18Z</time>
      </trkpt>
      <trkpt lat="43.09487" lon="-0.05347">
        <ele>421</ele>
        <time>2022-02-12T10:19:19Z</time>
      </trkpt>
      <trkpt lat="43.09491" lon="-0.05345">
        <ele>421.2</ele>
        <time>2022-02-12T10:19:20Z</time>
      </trkpt>
      <trkpt lat="43.09495" lon="-0.05343">
        <ele>421.2</ele>
        <time>2022-02-12T10:19:21Z</time>
      </trkpt>
      <trkpt lat="43.09499" lon="-0.0534">
        <ele>421.2</ele>
        <time>2022-02-12T10:19:22Z</time>
      </trkpt>
      <trkpt lat="43.09504" lon="-0.05338">
        <ele>421.2</ele>
        <time>2022-02-12T10:19:23Z</time>
      </trkpt>
      <trkpt lat="43.09508" lon="-0.05336">
        <ele>421.4</ele>
        <time>2022-02-12T10:19:24Z</time>
      </trkpt>
      <trkpt lat="43.09512" lon="-0.05335">
        <ele>421.4</ele>
        <time>2022-02-12T10:19:25Z</time>
      </trkpt>
      <trkpt lat="43.09516" lon="-0.05334">
        <ele>421.4</ele>
        <time>2022-02-12T10:19:26Z</time>
      </trkpt>
      <trkpt lat="43.09519" lon="-0.05332">
        <ele>421.6</ele>
        <time>2022-02-12T10:19:27Z</time>
      </trkpt>
      <trkpt lat="43.09523" lon="-0.0533">
        <ele>421.6</ele>
        <time>2022-02-12T10:19:28Z</time>
      </trkpt>
      <trkpt lat="43.09526" lon="-0.05327">
        <ele>421.8</ele>
        <time>2022-02-12T10:19:29Z</time>
      </trkpt>
      <trkpt lat="43.09529" lon="-0.05325">
        <ele>421.8</ele>
        <time>2022-02-12T10:19:30Z</time>
      </trkpt>
      <trkpt lat="43.09532" lon="-0.05324">
        <ele>421.8</ele>
        <time>2022-02-12T10:19:31Z</time>
      </trkpt>
      <trkpt lat="43.09535" lon="-0.05323">
        <ele>421.8</ele>
        <time>2022-02-12T10:19:32Z</time>
      </trkpt>
      <trkpt lat="43.09538" lon="-0.05323">
        <ele>422</ele>
        <time>2022-02-12T10:19:33Z</time>
      </trkpt>
      <trkpt lat="43.09541" lon="-0.05324">
        <ele>422</ele>
        <time>2022-02-12T10:19:34Z</time>
      </trkpt>
      <trkpt lat="43.09544" lon="-0.05324">
        <ele>422</ele>
        <time>2022-02-12T10:19:35Z</time>
      </trkpt>
      <trkpt lat="43.09546" lon="-0.05325">
        <ele>422.2</ele>
        <time>2022-02-12T10:19:36Z</time>
      </trkpt>
      <trkpt lat="43.09549" lon="-0.05326">
        <ele>422.2</ele>
        <time>2022-02-12T10:19:37Z</time>
      </trkpt>
      <trkpt lat="43.09551" lon="-0.05327">
        <ele>422.2</ele>
        <time>2022-02-12T10:19:38Z</time>
      </trkpt>
      <trkpt lat="43.09554" lon="-0.05329">
        <ele>422.4</ele>
        <time>2022-02-12T10:19:39Z</time>
      </trkpt>
      <trkpt lat="43.09558" lon="-0.05331">
        <ele>422.4</ele>
        <time>2022-02-12T10:19:40Z</time>
      </trkpt>
      <trkpt lat="43.09562" lon="-0.05332">
        <ele>422.4</ele>
        <time>2022-02-12T10:19:41Z</time>
      </trkpt>
      <trkpt lat="43.09565" lon="-0.05334">
        <ele>422.4</ele>
        <time>2022-02-12T10:19:42Z</time>
      </trkpt>
      <trkpt lat="43.09569" lon="-0.05336">
        <ele>422.4</ele>
        <time>2022-02-12T10:19:43Z</time>
      </trkpt>
      <trkpt lat="43.09572" lon="-0.05338">
        <ele>422.4</ele>
        <time>2022-02-12T10:19:44Z</time>
      </trkpt>
      <trkpt lat="43.09576" lon="-0.0534">
        <ele>422.4</ele>
        <time>2022-02-12T10:19:45Z</time>
      </trkpt>
      <trkpt lat="43.0958" lon="-0.05343">
        <ele>422.4</ele>
        <time>2022-02-12T10:19:46Z</time>
      </trkpt>
      <trkpt lat="43.09584" lon="-0.05346">
        <ele>422.4</ele>
        <time>2022-02-12T10:19:47Z</time>
      </trkpt>
      <trkpt lat="43.09588" lon="-0.05349">
        <ele>422.4</ele>
        <time>2022-02-12T10:19:48Z</time>
      </trkpt>
      <trkpt lat="43.09591" lon="-0.05352">
        <ele>422.4</ele>
        <time>2022-02-12T10:19:49Z</time>
      </trkpt>
      <trkpt lat="43.09594" lon="-0.05355">
        <ele>422.4</ele>
        <time>2022-02-12T10:19:50Z</time>
      </trkpt>
      <trkpt lat="43.09596" lon="-0.05357">
        <ele>422.4</ele>
        <time>2022-02-12T10:19:51Z</time>
      </trkpt>
      <trkpt lat="43.09599" lon="-0.0536">
        <ele>422.4</ele>
        <time>2022-02-12T10:19:52Z</time>
      </trkpt>
      <trkpt lat="43.09601" lon="-0.05362">
        <ele>422.4</ele>
        <time>2022-02-12T10:19:53Z</time>
      </trkpt>
      <trkpt lat="43.09604" lon="-0.05363">
        <ele>422.4</ele>
        <time>2022-02-12T10:19:54Z</time>
      </trkpt>
      <trkpt lat="43.09606" lon="-0.05365">
        <ele>422.4</ele>
        <time>2022-02-12T10:19:55Z</time>
      </trkpt>
      <trkpt lat="43.09608" lon="-0.05368">
        <ele>422.4</ele>
        <time>2022-02-12T10:19:56Z</time>
      </trkpt>
      <trkpt lat="43.0961" lon="-0.05371">
        <ele>422.4</ele>
        <time>2022-02-12T10:19:57Z</time>
      </trkpt>
      <trkpt lat="43.09611" lon="-0.05373">
        <ele>422</ele>
        <time>2022-02-12T10:19:58Z</time>
      </trkpt>
      <trkpt lat="43.09613" lon="-0.05375">
        <ele>422</ele>
        <time>2022-02-12T10:19:59Z</time>
      </trkpt>
      <trkpt lat="43.09615" lon="-0.05377">
        <ele>422</ele>
        <time>2022-02-12T10:20:00Z</time>
      </trkpt>
      <trkpt lat="43.09616" lon="-0.05378">
        <ele>421.8</ele>
        <time>2022-02-12T10:20:01Z</time>
      </trkpt>
      <trkpt lat="43.09618" lon="-0.05379">
        <ele>422</ele>
        <time>2022-02-12T10:20:02Z</time>
      </trkpt>
      <trkpt lat="43.09619" lon="-0.0538">
        <ele>422</ele>
        <time>2022-02-12T10:20:03Z</time>
      </trkpt>
      <trkpt lat="43.09619" lon="-0.0538">
        <ele>421.6</ele>
        <time>2022-02-12T10:20:04Z</time>
      </trkpt>
      <trkpt lat="43.09619" lon="-0.05381">
        <ele>421.6</ele>
        <time>2022-02-12T10:20:05Z</time>
      </trkpt>
      <trkpt lat="43.0962" lon="-0.05381">
        <ele>421.4</ele>
        <time>2022-02-12T10:20:06Z</time>
      </trkpt>
      <trkpt lat="43.09621" lon="-0.05382">
        <ele>421.4</ele>
        <time>2022-02-12T10:20:07Z</time>
      </trkpt>
      <trkpt lat="43.09623" lon="-0.05383">
        <ele>421.4</ele>
        <time>2022-02-12T10:20:08Z</time>
      </trkpt>
      <trkpt lat="43.09624" lon="-0.05384">
        <ele>421.4</ele>
        <time>2022-02-12T10:20:09Z</time>
      </trkpt>
      <trkpt lat="43.09626" lon="-0.05385">
        <ele>421.2</ele>
        <time>2022-02-12T10:20:10Z</time>
      </trkpt>
      <trkpt lat="43.09628" lon="-0.05386">
        <ele>421.2</ele>
        <time>2022-02-12T10:20:11Z</time>
      </trkpt>
      <trkpt lat="43.09629" lon="-0.05386">
        <ele>421.2</ele>
        <time>2022-02-12T10:20:12Z</time>
      </trkpt>
      <trkpt lat="43.09629" lon="-0.05387">
        <ele>421.2</ele>
        <time>2022-02-12T10:20:13Z</time>
      </trkpt>
      <trkpt lat="43.0963" lon="-0.0539">
        <ele>421.2</ele>
        <time>2022-02-12T10:20:14Z</time>
      </trkpt>
      <trkpt lat="43.09632" lon="-0.05392">
        <ele>421.2</ele>
        <time>2022-02-12T10:20:15Z</time>
      </trkpt>
      <trkpt lat="43.09635" lon="-0.05394">
        <ele>421.2</ele>
        <time>2022-02-12T10:20:16Z</time>
      </trkpt>
      <trkpt lat="43.09638" lon="-0.05395">
        <ele>421</ele>
        <time>2022-02-12T10:20:17Z</time>
      </trkpt>
      <trkpt lat="43.09641" lon="-0.05395">
        <ele>421</ele>
        <time>2022-02-12T10:20:18Z</time>
      </trkpt>
      <trkpt lat="43.09645" lon="-0.05398">
        <ele>421</ele>
        <time>2022-02-12T10:20:19Z</time>
      </trkpt>
      <trkpt lat="43.09648" lon="-0.05402">
        <ele>421</ele>
        <time>2022-02-12T10:20:20Z</time>
      </trkpt>
      <trkpt lat="43.0965" lon="-0.05406">
        <ele>421</ele>
        <time>2022-02-12T10:20:21Z</time>
      </trkpt>
      <trkpt lat="43.09653" lon="-0.05416">
        <ele>420.8</ele>
        <time>2022-02-12T10:20:22Z</time>
      </trkpt>
      <trkpt lat="43.09656" lon="-0.05419">
        <ele>420.8</ele>
        <time>2022-02-12T10:20:23Z</time>
      </trkpt>
      <trkpt lat="43.0966" lon="-0.05424">
        <ele>420.8</ele>
        <time>2022-02-12T10:20:24Z</time>
      </trkpt>
      <trkpt lat="43.09663" lon="-0.05426">
        <ele>420.6</ele>
        <time>2022-02-12T10:20:25Z</time>
      </trkpt>
      <trkpt lat="43.09666" lon="-0.05428">
        <ele>420.6</ele>
        <time>2022-02-12T10:20:26Z</time>
      </trkpt>
      <trkpt lat="43.09669" lon="-0.05433">
        <ele>420.6</ele>
        <time>2022-02-12T10:20:27Z</time>
      </trkpt>
      <trkpt lat="43.0967" lon="-0.05436">
        <ele>420.6</ele>
        <time>2022-02-12T10:20:28Z</time>
      </trkpt>
      <trkpt lat="43.09671" lon="-0.0544">
        <ele>420.4</ele>
        <time>2022-02-12T10:20:29Z</time>
      </trkpt>
      <trkpt lat="43.09671" lon="-0.05445">
        <ele>420.4</ele>
        <time>2022-02-12T10:20:30Z</time>
      </trkpt>
      <trkpt lat="43.09671" lon="-0.05451">
        <ele>420.4</ele>
        <time>2022-02-12T10:20:31Z</time>
      </trkpt>
      <trkpt lat="43.0967" lon="-0.05457">
        <ele>420.4</ele>
        <time>2022-02-12T10:20:32Z</time>
      </trkpt>
      <trkpt lat="43.09668" lon="-0.05462">
        <ele>420.4</ele>
        <time>2022-02-12T10:20:33Z</time>
      </trkpt>
      <trkpt lat="43.09666" lon="-0.05468">
        <ele>420.4</ele>
        <time>2022-02-12T10:20:34Z</time>
      </trkpt>
      <trkpt lat="43.09666" lon="-0.05474">
        <ele>420.4</ele>
        <time>2022-02-12T10:20:35Z</time>
      </trkpt>
      <trkpt lat="43.09666" lon="-0.0548">
        <ele>420.4</ele>
        <time>2022-02-12T10:20:36Z</time>
      </trkpt>
      <trkpt lat="43.09666" lon="-0.05486">
        <ele>420.4</ele>
        <time>2022-02-12T10:20:37Z</time>
      </trkpt>
      <trkpt lat="43.09666" lon="-0.05492">
        <ele>420.4</ele>
        <time>2022-02-12T10:20:38Z</time>
      </trkpt>
      <trkpt lat="43.09665" lon="-0.05499">
        <ele>420.4</ele>
        <time>2022-02-12T10:20:39Z</time>
      </trkpt>
      <trkpt lat="43.09665" lon="-0.05503">
        <ele>420.4</ele>
        <time>2022-02-12T10:20:40Z</time>
      </trkpt>
      <trkpt lat="43.09664" lon="-0.05511">
        <ele>420.4</ele>
        <time>2022-02-12T10:20:41Z</time>
      </trkpt>
      <trkpt lat="43.09665" lon="-0.05515">
        <ele>420.4</ele>
        <time>2022-02-12T10:20:42Z</time>
      </trkpt>
      <trkpt lat="43.09664" lon="-0.0552">
        <ele>420.4</ele>
        <time>2022-02-12T10:20:43Z</time>
      </trkpt>
      <trkpt lat="43.09664" lon="-0.05526">
        <ele>420.4</ele>
        <time>2022-02-12T10:20:44Z</time>
      </trkpt>
      <trkpt lat="43.09665" lon="-0.05531">
        <ele>420.4</ele>
        <time>2022-02-12T10:20:45Z</time>
      </trkpt>
      <trkpt lat="43.09665" lon="-0.05535">
        <ele>420.6</ele>
        <time>2022-02-12T10:20:46Z</time>
      </trkpt>
      <trkpt lat="43.09666" lon="-0.05541">
        <ele>420.6</ele>
        <time>2022-02-12T10:20:47Z</time>
      </trkpt>
      <trkpt lat="43.09666" lon="-0.05547">
        <ele>420.6</ele>
        <time>2022-02-12T10:20:48Z</time>
      </trkpt>
      <trkpt lat="43.09667" lon="-0.05551">
        <ele>420.6</ele>
        <time>2022-02-12T10:20:49Z</time>
      </trkpt>
      <trkpt lat="43.09667" lon="-0.05556">
        <ele>420.6</ele>
        <time>2022-02-12T10:20:50Z</time>
      </trkpt>
      <trkpt lat="43.09668" lon="-0.05559">
        <ele>420.8</ele>
        <time>2022-02-12T10:20:51Z</time>
      </trkpt>
      <trkpt lat="43.09669" lon="-0.05565">
        <ele>420.8</ele>
        <time>2022-02-12T10:20:52Z</time>
      </trkpt>
      <trkpt lat="43.0967" lon="-0.0557">
        <ele>420.8</ele>
        <time>2022-02-12T10:20:53Z</time>
      </trkpt>
      <trkpt lat="43.09671" lon="-0.05574">
        <ele>421.2</ele>
        <time>2022-02-12T10:20:54Z</time>
      </trkpt>
      <trkpt lat="43.09672" lon="-0.05578">
        <ele>421.2</ele>
        <time>2022-02-12T10:20:55Z</time>
      </trkpt>
      <trkpt lat="43.09673" lon="-0.05582">
        <ele>421.4</ele>
        <time>2022-02-12T10:20:56Z</time>
      </trkpt>
      <trkpt lat="43.09674" lon="-0.05587">
        <ele>421.6</ele>
        <time>2022-02-12T10:20:57Z</time>
      </trkpt>
      <trkpt lat="43.09675" lon="-0.05592">
        <ele>421.8</ele>
        <time>2022-02-12T10:20:58Z</time>
      </trkpt>
      <trkpt lat="43.09676" lon="-0.05596">
        <ele>422</ele>
        <time>2022-02-12T10:20:59Z</time>
      </trkpt>
      <trkpt lat="43.09678" lon="-0.056">
        <ele>422.2</ele>
        <time>2022-02-12T10:21:00Z</time>
      </trkpt>
      <trkpt lat="43.09679" lon="-0.05605">
        <ele>422.4</ele>
        <time>2022-02-12T10:21:01Z</time>
      </trkpt>
      <trkpt lat="43.0968" lon="-0.05608">
        <ele>422.6</ele>
        <time>2022-02-12T10:21:02Z</time>
      </trkpt>
      <trkpt lat="43.09681" lon="-0.05613">
        <ele>423</ele>
        <time>2022-02-12T10:21:03Z</time>
      </trkpt>
      <trkpt lat="43.09682" lon="-0.05617">
        <ele>423.2</ele>
        <time>2022-02-12T10:21:04Z</time>
      </trkpt>
      <trkpt lat="43.09683" lon="-0.05621">
        <ele>423.6</ele>
        <time>2022-02-12T10:21:05Z</time>
      </trkpt>
      <trkpt lat="43.09685" lon="-0.05627">
        <ele>423.8</ele>
        <time>2022-02-12T10:21:06Z</time>
      </trkpt>
      <trkpt lat="43.09686" lon="-0.05631">
        <ele>424</ele>
        <time>2022-02-12T10:21:07Z</time>
      </trkpt>
      <trkpt lat="43.09688" lon="-0.05635">
        <ele>424</ele>
        <time>2022-02-12T10:21:08Z</time>
      </trkpt>
      <trkpt lat="43.09689" lon="-0.0564">
        <ele>424.4</ele>
        <time>2022-02-12T10:21:09Z</time>
      </trkpt>
      <trkpt lat="43.09688" lon="-0.05647">
        <ele>424.6</ele>
        <time>2022-02-12T10:21:10Z</time>
      </trkpt>
      <trkpt lat="43.09689" lon="-0.05652">
        <ele>425</ele>
        <time>2022-02-12T10:21:11Z</time>
      </trkpt>
      <trkpt lat="43.0969" lon="-0.05656">
        <ele>425.2</ele>
        <time>2022-02-12T10:21:12Z</time>
      </trkpt>
      <trkpt lat="43.09691" lon="-0.05661">
        <ele>425.6</ele>
        <time>2022-02-12T10:21:13Z</time>
      </trkpt>
      <trkpt lat="43.09693" lon="-0.05665">
        <ele>425.6</ele>
        <time>2022-02-12T10:21:14Z</time>
      </trkpt>
      <trkpt lat="43.09694" lon="-0.05669">
        <ele>425.8</ele>
        <time>2022-02-12T10:21:15Z</time>
      </trkpt>
      <trkpt lat="43.09696" lon="-0.05673">
        <ele>426</ele>
        <time>2022-02-12T10:21:16Z</time>
      </trkpt>
      <trkpt lat="43.09697" lon="-0.05678">
        <ele>426.6</ele>
        <time>2022-02-12T10:21:17Z</time>
      </trkpt>
      <trkpt lat="43.09698" lon="-0.05682">
        <ele>426.8</ele>
        <time>2022-02-12T10:21:18Z</time>
      </trkpt>
      <trkpt lat="43.09699" lon="-0.05686">
        <ele>427</ele>
        <time>2022-02-12T10:21:19Z</time>
      </trkpt>
      <trkpt lat="43.09699" lon="-0.05689">
        <ele>427.2</ele>
        <time>2022-02-12T10:21:20Z</time>
      </trkpt>
      <trkpt lat="43.097" lon="-0.05693">
        <ele>427.6</ele>
        <time>2022-02-12T10:21:21Z</time>
      </trkpt>
      <trkpt lat="43.097" lon="-0.05696">
        <ele>427.8</ele>
        <time>2022-02-12T10:21:22Z</time>
      </trkpt>
      <trkpt lat="43.09701" lon="-0.057">
        <ele>428</ele>
        <time>2022-02-12T10:21:23Z</time>
      </trkpt>
      <trkpt lat="43.09702" lon="-0.05703">
        <ele>428.2</ele>
        <time>2022-02-12T10:21:24Z</time>
      </trkpt>
      <trkpt lat="43.09704" lon="-0.05707">
        <ele>428.4</ele>
        <time>2022-02-12T10:21:25Z</time>
      </trkpt>
      <trkpt lat="43.09705" lon="-0.05711">
        <ele>428.8</ele>
        <time>2022-02-12T10:21:26Z</time>
      </trkpt>
      <trkpt lat="43.09706" lon="-0.05716">
        <ele>428.8</ele>
        <time>2022-02-12T10:21:27Z</time>
      </trkpt>
      <trkpt lat="43.09707" lon="-0.0572">
        <ele>429.2</ele>
        <time>2022-02-12T10:21:28Z</time>
      </trkpt>
      <trkpt lat="43.09708" lon="-0.05724">
        <ele>429.4</ele>
        <time>2022-02-12T10:21:29Z</time>
      </trkpt>
      <trkpt lat="43.0971" lon="-0.05729">
        <ele>429.6</ele>
        <time>2022-02-12T10:21:30Z</time>
      </trkpt>
      <trkpt lat="43.0971" lon="-0.05733">
        <ele>429.8</ele>
        <time>2022-02-12T10:21:31Z</time>
      </trkpt>
      <trkpt lat="43.09712" lon="-0.05737">
        <ele>430</ele>
        <time>2022-02-12T10:21:32Z</time>
      </trkpt>
      <trkpt lat="43.09712" lon="-0.05742">
        <ele>430.2</ele>
        <time>2022-02-12T10:21:33Z</time>
      </trkpt>
      <trkpt lat="43.09714" lon="-0.05746">
        <ele>430.6</ele>
        <time>2022-02-12T10:21:34Z</time>
      </trkpt>
      <trkpt lat="43.09715" lon="-0.0575">
        <ele>430.8</ele>
        <time>2022-02-12T10:21:35Z</time>
      </trkpt>
      <trkpt lat="43.09717" lon="-0.05753">
        <ele>431</ele>
        <time>2022-02-12T10:21:36Z</time>
      </trkpt>
      <trkpt lat="43.09718" lon="-0.05756">
        <ele>431.2</ele>
        <time>2022-02-12T10:21:37Z</time>
      </trkpt>
      <trkpt lat="43.09719" lon="-0.0576">
        <ele>431.4</ele>
        <time>2022-02-12T10:21:38Z</time>
      </trkpt>
      <trkpt lat="43.0972" lon="-0.05764">
        <ele>431.6</ele>
        <time>2022-02-12T10:21:39Z</time>
      </trkpt>
      <trkpt lat="43.0972" lon="-0.05767">
        <ele>432</ele>
        <time>2022-02-12T10:21:40Z</time>
      </trkpt>
      <trkpt lat="43.09722" lon="-0.0577">
        <ele>432.2</ele>
        <time>2022-02-12T10:21:41Z</time>
      </trkpt>
      <trkpt lat="43.09723" lon="-0.05773">
        <ele>432.4</ele>
        <time>2022-02-12T10:21:42Z</time>
      </trkpt>
      <trkpt lat="43.09723" lon="-0.05775">
        <ele>432.8</ele>
        <time>2022-02-12T10:21:43Z</time>
      </trkpt>
      <trkpt lat="43.09724" lon="-0.05777">
        <ele>433</ele>
        <time>2022-02-12T10:21:44Z</time>
      </trkpt>
      <trkpt lat="43.09724" lon="-0.05779">
        <ele>433.2</ele>
        <time>2022-02-12T10:21:45Z</time>
      </trkpt>
      <trkpt lat="43.09725" lon="-0.05782">
        <ele>433.2</ele>
        <time>2022-02-12T10:21:46Z</time>
      </trkpt>
      <trkpt lat="43.09725" lon="-0.05785">
        <ele>433.4</ele>
        <time>2022-02-12T10:21:47Z</time>
      </trkpt>
      <trkpt lat="43.09726" lon="-0.05788">
        <ele>433.6</ele>
        <time>2022-02-12T10:21:48Z</time>
      </trkpt>
      <trkpt lat="43.09727" lon="-0.05791">
        <ele>433.6</ele>
        <time>2022-02-12T10:21:49Z</time>
      </trkpt>
      <trkpt lat="43.09728" lon="-0.05795">
        <ele>433.8</ele>
        <time>2022-02-12T10:21:50Z</time>
      </trkpt>
      <trkpt lat="43.09729" lon="-0.05799">
        <ele>434</ele>
        <time>2022-02-12T10:21:51Z</time>
      </trkpt>
      <trkpt lat="43.0973" lon="-0.05803">
        <ele>434.2</ele>
        <time>2022-02-12T10:21:52Z</time>
      </trkpt>
      <trkpt lat="43.0973" lon="-0.05807">
        <ele>434.2</ele>
        <time>2022-02-12T10:21:53Z</time>
      </trkpt>
      <trkpt lat="43.09729" lon="-0.05812">
        <ele>434.4</ele>
        <time>2022-02-12T10:21:54Z</time>
      </trkpt>
      <trkpt lat="43.09729" lon="-0.05817">
        <ele>434.4</ele>
        <time>2022-02-12T10:21:55Z</time>
      </trkpt>
      <trkpt lat="43.09729" lon="-0.0582">
        <ele>434.6</ele>
        <time>2022-02-12T10:21:56Z</time>
      </trkpt>
      <trkpt lat="43.09729" lon="-0.05824">
        <ele>434.6</ele>
        <time>2022-02-12T10:21:57Z</time>
      </trkpt>
      <trkpt lat="43.09728" lon="-0.05828">
        <ele>434.8</ele>
        <time>2022-02-12T10:21:58Z</time>
      </trkpt>
      <trkpt lat="43.09728" lon="-0.05832">
        <ele>435</ele>
        <time>2022-02-12T10:21:59Z</time>
      </trkpt>
      <trkpt lat="43.09727" lon="-0.05837">
        <ele>435</ele>
        <time>2022-02-12T10:22:00Z</time>
      </trkpt>
      <trkpt lat="43.09727" lon="-0.05841">
        <ele>435.2</ele>
        <time>2022-02-12T10:22:01Z</time>
      </trkpt>
      <trkpt lat="43.09728" lon="-0.05844">
        <ele>435.2</ele>
        <time>2022-02-12T10:22:02Z</time>
      </trkpt>
      <trkpt lat="43.09728" lon="-0.05848">
        <ele>435.4</ele>
        <time>2022-02-12T10:22:03Z</time>
      </trkpt>
      <trkpt lat="43.09728" lon="-0.05852">
        <ele>435.4</ele>
        <time>2022-02-12T10:22:04Z</time>
      </trkpt>
      <trkpt lat="43.09728" lon="-0.05855">
        <ele>435.6</ele>
        <time>2022-02-12T10:22:05Z</time>
      </trkpt>
      <trkpt lat="43.09727" lon="-0.05858">
        <ele>435.8</ele>
        <time>2022-02-12T10:22:06Z</time>
      </trkpt>
      <trkpt lat="43.09727" lon="-0.05861">
        <ele>436</ele>
        <time>2022-02-12T10:22:07Z</time>
      </trkpt>
      <trkpt lat="43.09728" lon="-0.05864">
        <ele>436.4</ele>
        <time>2022-02-12T10:22:08Z</time>
      </trkpt>
      <trkpt lat="43.09728" lon="-0.05867">
        <ele>436.4</ele>
        <time>2022-02-12T10:22:09Z</time>
      </trkpt>
      <trkpt lat="43.09728" lon="-0.05869">
        <ele>436.6</ele>
        <time>2022-02-12T10:22:10Z</time>
      </trkpt>
      <trkpt lat="43.09727" lon="-0.05873">
        <ele>436.8</ele>
        <time>2022-02-12T10:22:11Z</time>
      </trkpt>
      <trkpt lat="43.09725" lon="-0.05876">
        <ele>437</ele>
        <time>2022-02-12T10:22:12Z</time>
      </trkpt>
      <trkpt lat="43.09725" lon="-0.0588">
        <ele>437</ele>
        <time>2022-02-12T10:22:13Z</time>
      </trkpt>
      <trkpt lat="43.09725" lon="-0.05883">
        <ele>437.2</ele>
        <time>2022-02-12T10:22:14Z</time>
      </trkpt>
      <trkpt lat="43.09725" lon="-0.05886">
        <ele>437.4</ele>
        <time>2022-02-12T10:22:15Z</time>
      </trkpt>
      <trkpt lat="43.09726" lon="-0.0589">
        <ele>437.4</ele>
        <time>2022-02-12T10:22:16Z</time>
      </trkpt>
      <trkpt lat="43.09725" lon="-0.05892">
        <ele>437.6</ele>
        <time>2022-02-12T10:22:17Z</time>
      </trkpt>
      <trkpt lat="43.09725" lon="-0.05896">
        <ele>437.8</ele>
        <time>2022-02-12T10:22:18Z</time>
      </trkpt>
      <trkpt lat="43.09725" lon="-0.05899">
        <ele>437.8</ele>
        <time>2022-02-12T10:22:19Z</time>
      </trkpt>
      <trkpt lat="43.09725" lon="-0.05902">
        <ele>438.2</ele>
        <time>2022-02-12T10:22:20Z</time>
      </trkpt>
      <trkpt lat="43.09725" lon="-0.05906">
        <ele>438.2</ele>
        <time>2022-02-12T10:22:21Z</time>
      </trkpt>
      <trkpt lat="43.09725" lon="-0.05909">
        <ele>438.4</ele>
        <time>2022-02-12T10:22:22Z</time>
      </trkpt>
      <trkpt lat="43.09725" lon="-0.05912">
        <ele>438.6</ele>
        <time>2022-02-12T10:22:23Z</time>
      </trkpt>
      <trkpt lat="43.09724" lon="-0.05915">
        <ele>439</ele>
        <time>2022-02-12T10:22:24Z</time>
      </trkpt>
      <trkpt lat="43.09725" lon="-0.05918">
        <ele>439</ele>
        <time>2022-02-12T10:22:25Z</time>
      </trkpt>
      <trkpt lat="43.09725" lon="-0.05921">
        <ele>439.4</ele>
        <time>2022-02-12T10:22:26Z</time>
      </trkpt>
      <trkpt lat="43.09724" lon="-0.05925">
        <ele>439.6</ele>
        <time>2022-02-12T10:22:27Z</time>
      </trkpt>
      <trkpt lat="43.09724" lon="-0.05928">
        <ele>439.6</ele>
        <time>2022-02-12T10:22:28Z</time>
      </trkpt>
      <trkpt lat="43.09724" lon="-0.05932">
        <ele>439.8</ele>
        <time>2022-02-12T10:22:29Z</time>
      </trkpt>
      <trkpt lat="43.09724" lon="-0.05935">
        <ele>440</ele>
        <time>2022-02-12T10:22:30Z</time>
      </trkpt>
      <trkpt lat="43.09724" lon="-0.05938">
        <ele>440.2</ele>
        <time>2022-02-12T10:22:31Z</time>
      </trkpt>
      <trkpt lat="43.09724" lon="-0.05942">
        <ele>440.2</ele>
        <time>2022-02-12T10:22:32Z</time>
      </trkpt>
      <trkpt lat="43.09724" lon="-0.05945">
        <ele>440.4</ele>
        <time>2022-02-12T10:22:33Z</time>
      </trkpt>
      <trkpt lat="43.09724" lon="-0.05948">
        <ele>440.6</ele>
        <time>2022-02-12T10:22:34Z</time>
      </trkpt>
      <trkpt lat="43.09724" lon="-0.05953">
        <ele>440.8</ele>
        <time>2022-02-12T10:22:35Z</time>
      </trkpt>
      <trkpt lat="43.09724" lon="-0.05956">
        <ele>440.8</ele>
        <time>2022-02-12T10:22:36Z</time>
      </trkpt>
      <trkpt lat="43.09724" lon="-0.0596">
        <ele>441.2</ele>
        <time>2022-02-12T10:22:37Z</time>
      </trkpt>
      <trkpt lat="43.09724" lon="-0.05963">
        <ele>441.4</ele>
        <time>2022-02-12T10:22:38Z</time>
      </trkpt>
      <trkpt lat="43.09724" lon="-0.05966">
        <ele>441.6</ele>
        <time>2022-02-12T10:22:39Z</time>
      </trkpt>
      <trkpt lat="43.09724" lon="-0.0597">
        <ele>441.8</ele>
        <time>2022-02-12T10:22:40Z</time>
      </trkpt>
      <trkpt lat="43.09724" lon="-0.05973">
        <ele>442</ele>
        <time>2022-02-12T10:22:41Z</time>
      </trkpt>
      <trkpt lat="43.09724" lon="-0.05977">
        <ele>442</ele>
        <time>2022-02-12T10:22:42Z</time>
      </trkpt>
      <trkpt lat="43.09724" lon="-0.0598">
        <ele>442.2</ele>
        <time>2022-02-12T10:22:43Z</time>
      </trkpt>
      <trkpt lat="43.09723" lon="-0.05984">
        <ele>442.4</ele>
        <time>2022-02-12T10:22:44Z</time>
      </trkpt>
      <trkpt lat="43.09724" lon="-0.05988">
        <ele>442.6</ele>
        <time>2022-02-12T10:22:45Z</time>
      </trkpt>
      <trkpt lat="43.09724" lon="-0.05991">
        <ele>442.6</ele>
        <time>2022-02-12T10:22:46Z</time>
      </trkpt>
      <trkpt lat="43.09724" lon="-0.05995">
        <ele>443</ele>
        <time>2022-02-12T10:22:47Z</time>
      </trkpt>
      <trkpt lat="43.09724" lon="-0.05999">
        <ele>443</ele>
        <time>2022-02-12T10:22:48Z</time>
      </trkpt>
      <trkpt lat="43.09724" lon="-0.06002">
        <ele>443.2</ele>
        <time>2022-02-12T10:22:49Z</time>
      </trkpt>
      <trkpt lat="43.09724" lon="-0.06005">
        <ele>443.4</ele>
        <time>2022-02-12T10:22:50Z</time>
      </trkpt>
      <trkpt lat="43.09725" lon="-0.06008">
        <ele>443.4</ele>
        <time>2022-02-12T10:22:51Z</time>
      </trkpt>
      <trkpt lat="43.09725" lon="-0.06012">
        <ele>443.6</ele>
        <time>2022-02-12T10:22:52Z</time>
      </trkpt>
      <trkpt lat="43.09726" lon="-0.06016">
        <ele>443.8</ele>
        <time>2022-02-12T10:22:53Z</time>
      </trkpt>
      <trkpt lat="43.09726" lon="-0.0602">
        <ele>444</ele>
        <time>2022-02-12T10:22:54Z</time>
      </trkpt>
      <trkpt lat="43.09726" lon="-0.06023">
        <ele>444</ele>
        <time>2022-02-12T10:22:55Z</time>
      </trkpt>
      <trkpt lat="43.09727" lon="-0.06027">
        <ele>444.2</ele>
        <time>2022-02-12T10:22:56Z</time>
      </trkpt>
      <trkpt lat="43.09728" lon="-0.06031">
        <ele>444.2</ele>
        <time>2022-02-12T10:22:57Z</time>
      </trkpt>
      <trkpt lat="43.09728" lon="-0.06034">
        <ele>444.2</ele>
        <time>2022-02-12T10:22:58Z</time>
      </trkpt>
      <trkpt lat="43.09729" lon="-0.06038">
        <ele>444.4</ele>
        <time>2022-02-12T10:22:59Z</time>
      </trkpt>
      <trkpt lat="43.09729" lon="-0.06041">
        <ele>444.6</ele>
        <time>2022-02-12T10:23:00Z</time>
      </trkpt>
      <trkpt lat="43.0973" lon="-0.06045">
        <ele>444.6</ele>
        <time>2022-02-12T10:23:01Z</time>
      </trkpt>
      <trkpt lat="43.0973" lon="-0.06048">
        <ele>444.6</ele>
        <time>2022-02-12T10:23:02Z</time>
      </trkpt>
      <trkpt lat="43.09729" lon="-0.06052">
        <ele>444.8</ele>
        <time>2022-02-12T10:23:03Z</time>
      </trkpt>
      <trkpt lat="43.09729" lon="-0.06056">
        <ele>444.8</ele>
        <time>2022-02-12T10:23:04Z</time>
      </trkpt>
      <trkpt lat="43.09729" lon="-0.06061">
        <ele>444.8</ele>
        <time>2022-02-12T10:23:05Z</time>
      </trkpt>
      <trkpt lat="43.09728" lon="-0.06064">
        <ele>445</ele>
        <time>2022-02-12T10:23:06Z</time>
      </trkpt>
      <trkpt lat="43.09728" lon="-0.06068">
        <ele>445.2</ele>
        <time>2022-02-12T10:23:07Z</time>
      </trkpt>
      <trkpt lat="43.09727" lon="-0.06071">
        <ele>445.2</ele>
        <time>2022-02-12T10:23:08Z</time>
      </trkpt>
      <trkpt lat="43.09726" lon="-0.06075">
        <ele>445.2</ele>
        <time>2022-02-12T10:23:09Z</time>
      </trkpt>
      <trkpt lat="43.09725" lon="-0.06078">
        <ele>445.4</ele>
        <time>2022-02-12T10:23:10Z</time>
      </trkpt>
      <trkpt lat="43.09725" lon="-0.06082">
        <ele>445.4</ele>
        <time>2022-02-12T10:23:11Z</time>
      </trkpt>
      <trkpt lat="43.09725" lon="-0.06085">
        <ele>445.4</ele>
        <time>2022-02-12T10:23:12Z</time>
      </trkpt>
      <trkpt lat="43.09725" lon="-0.06089">
        <ele>445.6</ele>
        <time>2022-02-12T10:23:13Z</time>
      </trkpt>
      <trkpt lat="43.09725" lon="-0.06092">
        <ele>445.6</ele>
        <time>2022-02-12T10:23:14Z</time>
      </trkpt>
      <trkpt lat="43.09724" lon="-0.06096">
        <ele>445.8</ele>
        <time>2022-02-12T10:23:15Z</time>
      </trkpt>
      <trkpt lat="43.09724" lon="-0.061">
        <ele>445.8</ele>
        <time>2022-02-12T10:23:16Z</time>
      </trkpt>
      <trkpt lat="43.09725" lon="-0.06104">
        <ele>445.8</ele>
        <time>2022-02-12T10:23:17Z</time>
      </trkpt>
      <trkpt lat="43.09725" lon="-0.06108">
        <ele>445.8</ele>
        <time>2022-02-12T10:23:18Z</time>
      </trkpt>
      <trkpt lat="43.09725" lon="-0.06113">
        <ele>446</ele>
        <time>2022-02-12T10:23:19Z</time>
      </trkpt>
      <trkpt lat="43.09726" lon="-0.06117">
        <ele>446</ele>
        <time>2022-02-12T10:23:20Z</time>
      </trkpt>
      <trkpt lat="43.09726" lon="-0.06121">
        <ele>446</ele>
        <time>2022-02-12T10:23:21Z</time>
      </trkpt>
      <trkpt lat="43.09726" lon="-0.06125">
        <ele>446</ele>
        <time>2022-02-12T10:23:22Z</time>
      </trkpt>
      <trkpt lat="43.09726" lon="-0.0613">
        <ele>446.2</ele>
        <time>2022-02-12T10:23:23Z</time>
      </trkpt>
      <trkpt lat="43.09726" lon="-0.06134">
        <ele>446.2</ele>
        <time>2022-02-12T10:23:24Z</time>
      </trkpt>
      <trkpt lat="43.09726" lon="-0.06139">
        <ele>446.2</ele>
        <time>2022-02-12T10:23:25Z</time>
      </trkpt>
      <trkpt lat="43.09728" lon="-0.06144">
        <ele>446.4</ele>
        <time>2022-02-12T10:23:26Z</time>
      </trkpt>
      <trkpt lat="43.09729" lon="-0.06149">
        <ele>446.6</ele>
        <time>2022-02-12T10:23:27Z</time>
      </trkpt>
      <trkpt lat="43.09729" lon="-0.06152">
        <ele>446.6</ele>
        <time>2022-02-12T10:23:28Z</time>
      </trkpt>
      <trkpt lat="43.0973" lon="-0.06156">
        <ele>446.6</ele>
        <time>2022-02-12T10:23:29Z</time>
      </trkpt>
      <trkpt lat="43.09731" lon="-0.06161">
        <ele>446.8</ele>
        <time>2022-02-12T10:23:30Z</time>
      </trkpt>
      <trkpt lat="43.09731" lon="-0.06165">
        <ele>446.8</ele>
        <time>2022-02-12T10:23:31Z</time>
      </trkpt>
      <trkpt lat="43.0973" lon="-0.06171">
        <ele>446.8</ele>
        <time>2022-02-12T10:23:32Z</time>
      </trkpt>
      <trkpt lat="43.09731" lon="-0.06175">
        <ele>447</ele>
        <time>2022-02-12T10:23:33Z</time>
      </trkpt>
      <trkpt lat="43.09731" lon="-0.06179">
        <ele>447</ele>
        <time>2022-02-12T10:23:34Z</time>
      </trkpt>
      <trkpt lat="43.09732" lon="-0.06183">
        <ele>447.2</ele>
        <time>2022-02-12T10:23:35Z</time>
      </trkpt>
      <trkpt lat="43.09732" lon="-0.06186">
        <ele>447.2</ele>
        <time>2022-02-12T10:23:36Z</time>
      </trkpt>
      <trkpt lat="43.09732" lon="-0.06191">
        <ele>447.4</ele>
        <time>2022-02-12T10:23:37Z</time>
      </trkpt>
      <trkpt lat="43.09733" lon="-0.06195">
        <ele>447.4</ele>
        <time>2022-02-12T10:23:38Z</time>
      </trkpt>
      <trkpt lat="43.09733" lon="-0.06199">
        <ele>447.6</ele>
        <time>2022-02-12T10:23:39Z</time>
      </trkpt>
      <trkpt lat="43.09735" lon="-0.06203">
        <ele>447.6</ele>
        <time>2022-02-12T10:23:40Z</time>
      </trkpt>
      <trkpt lat="43.09736" lon="-0.06208">
        <ele>447.6</ele>
        <time>2022-02-12T10:23:41Z</time>
      </trkpt>
      <trkpt lat="43.09737" lon="-0.06212">
        <ele>448</ele>
        <time>2022-02-12T10:23:42Z</time>
      </trkpt>
      <trkpt lat="43.09737" lon="-0.06216">
        <ele>448</ele>
        <time>2022-02-12T10:23:43Z</time>
      </trkpt>
      <trkpt lat="43.09738" lon="-0.0622">
        <ele>448.2</ele>
        <time>2022-02-12T10:23:44Z</time>
      </trkpt>
      <trkpt lat="43.09739" lon="-0.06224">
        <ele>448.4</ele>
        <time>2022-02-12T10:23:45Z</time>
      </trkpt>
      <trkpt lat="43.09739" lon="-0.06228">
        <ele>448.2</ele>
        <time>2022-02-12T10:23:46Z</time>
      </trkpt>
      <trkpt lat="43.0974" lon="-0.06232">
        <ele>448.6</ele>
        <time>2022-02-12T10:23:47Z</time>
      </trkpt>
      <trkpt lat="43.09741" lon="-0.06235">
        <ele>448.8</ele>
        <time>2022-02-12T10:23:48Z</time>
      </trkpt>
      <trkpt lat="43.09744" lon="-0.06237">
        <ele>449</ele>
        <time>2022-02-12T10:23:49Z</time>
      </trkpt>
      <trkpt lat="43.09744" lon="-0.0624">
        <ele>449</ele>
        <time>2022-02-12T10:23:50Z</time>
      </trkpt>
      <trkpt lat="43.09744" lon="-0.06242">
        <ele>449.2</ele>
        <time>2022-02-12T10:23:51Z</time>
      </trkpt>
      <trkpt lat="43.09744" lon="-0.06244">
        <ele>449.2</ele>
        <time>2022-02-12T10:23:52Z</time>
      </trkpt>
      <trkpt lat="43.09745" lon="-0.06247">
        <ele>449.4</ele>
        <time>2022-02-12T10:23:53Z</time>
      </trkpt>
      <trkpt lat="43.09745" lon="-0.06251">
        <ele>449.6</ele>
        <time>2022-02-12T10:23:54Z</time>
      </trkpt>
      <trkpt lat="43.09746" lon="-0.06255">
        <ele>449.8</ele>
        <time>2022-02-12T10:23:55Z</time>
      </trkpt>
      <trkpt lat="43.09747" lon="-0.06259">
        <ele>450</ele>
        <time>2022-02-12T10:23:56Z</time>
      </trkpt>
      <trkpt lat="43.09747" lon="-0.06263">
        <ele>450</ele>
        <time>2022-02-12T10:23:57Z</time>
      </trkpt>
      <trkpt lat="43.09748" lon="-0.06267">
        <ele>450.2</ele>
        <time>2022-02-12T10:23:58Z</time>
      </trkpt>
      <trkpt lat="43.09749" lon="-0.06271">
        <ele>450.4</ele>
        <time>2022-02-12T10:23:59Z</time>
      </trkpt>
      <trkpt lat="43.09749" lon="-0.06275">
        <ele>450.4</ele>
        <time>2022-02-12T10:24:00Z</time>
      </trkpt>
      <trkpt lat="43.0975" lon="-0.06279">
        <ele>450.6</ele>
        <time>2022-02-12T10:24:01Z</time>
      </trkpt>
      <trkpt lat="43.09751" lon="-0.06283">
        <ele>450.8</ele>
        <time>2022-02-12T10:24:02Z</time>
      </trkpt>
      <trkpt lat="43.09753" lon="-0.06287">
        <ele>451</ele>
        <time>2022-02-12T10:24:03Z</time>
      </trkpt>
      <trkpt lat="43.09753" lon="-0.06291">
        <ele>451</ele>
        <time>2022-02-12T10:24:04Z</time>
      </trkpt>
      <trkpt lat="43.09754" lon="-0.06295">
        <ele>451</ele>
        <time>2022-02-12T10:24:05Z</time>
      </trkpt>
      <trkpt lat="43.09755" lon="-0.06299">
        <ele>451.2</ele>
        <time>2022-02-12T10:24:06Z</time>
      </trkpt>
      <trkpt lat="43.09756" lon="-0.06303">
        <ele>451.4</ele>
        <time>2022-02-12T10:24:07Z</time>
      </trkpt>
      <trkpt lat="43.09757" lon="-0.06308">
        <ele>451.6</ele>
        <time>2022-02-12T10:24:08Z</time>
      </trkpt>
      <trkpt lat="43.09758" lon="-0.06312">
        <ele>451.6</ele>
        <time>2022-02-12T10:24:09Z</time>
      </trkpt>
      <trkpt lat="43.0976" lon="-0.06316">
        <ele>451.6</ele>
        <time>2022-02-12T10:24:10Z</time>
      </trkpt>
      <trkpt lat="43.0976" lon="-0.0632">
        <ele>451.8</ele>
        <time>2022-02-12T10:24:11Z</time>
      </trkpt>
      <trkpt lat="43.09761" lon="-0.06324">
        <ele>451.8</ele>
        <time>2022-02-12T10:24:12Z</time>
      </trkpt>
      <trkpt lat="43.09762" lon="-0.06328">
        <ele>451.8</ele>
        <time>2022-02-12T10:24:13Z</time>
      </trkpt>
      <trkpt lat="43.09763" lon="-0.06332">
        <ele>451.8</ele>
        <time>2022-02-12T10:24:14Z</time>
      </trkpt>
      <trkpt lat="43.09764" lon="-0.06336">
        <ele>452</ele>
        <time>2022-02-12T10:24:15Z</time>
      </trkpt>
      <trkpt lat="43.09766" lon="-0.0634">
        <ele>452</ele>
        <time>2022-02-12T10:24:16Z</time>
      </trkpt>
      <trkpt lat="43.09767" lon="-0.06344">
        <ele>452.2</ele>
        <time>2022-02-12T10:24:17Z</time>
      </trkpt>
      <trkpt lat="43.09768" lon="-0.06348">
        <ele>452.2</ele>
        <time>2022-02-12T10:24:18Z</time>
      </trkpt>
      <trkpt lat="43.09769" lon="-0.06352">
        <ele>452</ele>
        <time>2022-02-12T10:24:19Z</time>
      </trkpt>
      <trkpt lat="43.09769" lon="-0.06356">
        <ele>452.2</ele>
        <time>2022-02-12T10:24:20Z</time>
      </trkpt>
      <trkpt lat="43.09769" lon="-0.06361">
        <ele>452.2</ele>
        <time>2022-02-12T10:24:21Z</time>
      </trkpt>
      <trkpt lat="43.0977" lon="-0.06365">
        <ele>452.2</ele>
        <time>2022-02-12T10:24:22Z</time>
      </trkpt>
      <trkpt lat="43.0977" lon="-0.06369">
        <ele>452.2</ele>
        <time>2022-02-12T10:24:23Z</time>
      </trkpt>
      <trkpt lat="43.09771" lon="-0.06373">
        <ele>452.2</ele>
        <time>2022-02-12T10:24:24Z</time>
      </trkpt>
      <trkpt lat="43.09773" lon="-0.06378">
        <ele>452.4</ele>
        <time>2022-02-12T10:24:25Z</time>
      </trkpt>
      <trkpt lat="43.09774" lon="-0.06383">
        <ele>452.4</ele>
        <time>2022-02-12T10:24:26Z</time>
      </trkpt>
      <trkpt lat="43.09775" lon="-0.06387">
        <ele>452.4</ele>
        <time>2022-02-12T10:24:27Z</time>
      </trkpt>
      <trkpt lat="43.09777" lon="-0.06392">
        <ele>452.4</ele>
        <time>2022-02-12T10:24:28Z</time>
      </trkpt>
      <trkpt lat="43.09778" lon="-0.06397">
        <ele>452.4</ele>
        <time>2022-02-12T10:24:29Z</time>
      </trkpt>
      <trkpt lat="43.0978" lon="-0.06402">
        <ele>452.4</ele>
        <time>2022-02-12T10:24:30Z</time>
      </trkpt>
      <trkpt lat="43.09781" lon="-0.06408">
        <ele>452.4</ele>
        <time>2022-02-12T10:24:31Z</time>
      </trkpt>
      <trkpt lat="43.09783" lon="-0.06412">
        <ele>452.4</ele>
        <time>2022-02-12T10:24:32Z</time>
      </trkpt>
      <trkpt lat="43.09784" lon="-0.06419">
        <ele>452.4</ele>
        <time>2022-02-12T10:24:33Z</time>
      </trkpt>
      <trkpt lat="43.09785" lon="-0.06426">
        <ele>452.2</ele>
        <time>2022-02-12T10:24:34Z</time>
      </trkpt>
      <trkpt lat="43.09786" lon="-0.06433">
        <ele>452.2</ele>
        <time>2022-02-12T10:24:35Z</time>
      </trkpt>
      <trkpt lat="43.09788" lon="-0.0644">
        <ele>452</ele>
        <time>2022-02-12T10:24:36Z</time>
      </trkpt>
      <trkpt lat="43.0979" lon="-0.06447">
        <ele>452</ele>
        <time>2022-02-12T10:24:37Z</time>
      </trkpt>
      <trkpt lat="43.09792" lon="-0.06454">
        <ele>451.8</ele>
        <time>2022-02-12T10:24:38Z</time>
      </trkpt>
      <trkpt lat="43.09793" lon="-0.06461">
        <ele>451.6</ele>
        <time>2022-02-12T10:24:39Z</time>
      </trkpt>
      <trkpt lat="43.09795" lon="-0.06467">
        <ele>451.4</ele>
        <time>2022-02-12T10:24:40Z</time>
      </trkpt>
      <trkpt lat="43.09796" lon="-0.06475">
        <ele>451.2</ele>
        <time>2022-02-12T10:24:41Z</time>
      </trkpt>
      <trkpt lat="43.09798" lon="-0.06482">
        <ele>450.8</ele>
        <time>2022-02-12T10:24:42Z</time>
      </trkpt>
      <trkpt lat="43.09801" lon="-0.06489">
        <ele>450.6</ele>
        <time>2022-02-12T10:24:43Z</time>
      </trkpt>
      <trkpt lat="43.09805" lon="-0.06496">
        <ele>450.4</ele>
        <time>2022-02-12T10:24:44Z</time>
      </trkpt>
      <trkpt lat="43.09809" lon="-0.06502">
        <ele>450.2</ele>
        <time>2022-02-12T10:24:45Z</time>
      </trkpt>
      <trkpt lat="43.09815" lon="-0.06509">
        <ele>449.8</ele>
        <time>2022-02-12T10:24:46Z</time>
      </trkpt>
      <trkpt lat="43.0982" lon="-0.06515">
        <ele>449.2</ele>
        <time>2022-02-12T10:24:47Z</time>
      </trkpt>
      <trkpt lat="43.09825" lon="-0.06522">
        <ele>449</ele>
        <time>2022-02-12T10:24:48Z</time>
      </trkpt>
      <trkpt lat="43.09831" lon="-0.06528">
        <ele>448.6</ele>
        <time>2022-02-12T10:24:49Z</time>
      </trkpt>
      <trkpt lat="43.09837" lon="-0.06534">
        <ele>448.4</ele>
        <time>2022-02-12T10:24:50Z</time>
      </trkpt>
      <trkpt lat="43.09842" lon="-0.06542">
        <ele>447.8</ele>
        <time>2022-02-12T10:24:51Z</time>
      </trkpt>
      <trkpt lat="43.09847" lon="-0.0655">
        <ele>447.8</ele>
        <time>2022-02-12T10:24:52Z</time>
      </trkpt>
      <trkpt lat="43.09851" lon="-0.06559">
        <ele>447.2</ele>
        <time>2022-02-12T10:24:53Z</time>
      </trkpt>
      <trkpt lat="43.09855" lon="-0.06569">
        <ele>446.8</ele>
        <time>2022-02-12T10:24:54Z</time>
      </trkpt>
      <trkpt lat="43.09858" lon="-0.06579">
        <ele>446.4</ele>
        <time>2022-02-12T10:24:55Z</time>
      </trkpt>
      <trkpt lat="43.09861" lon="-0.06589">
        <ele>446</ele>
        <time>2022-02-12T10:24:56Z</time>
      </trkpt>
      <trkpt lat="43.09862" lon="-0.06601">
        <ele>445.6</ele>
        <time>2022-02-12T10:24:57Z</time>
      </trkpt>
      <trkpt lat="43.09863" lon="-0.06612">
        <ele>445.2</ele>
        <time>2022-02-12T10:24:58Z</time>
      </trkpt>
      <trkpt lat="43.09864" lon="-0.06624">
        <ele>444.8</ele>
        <time>2022-02-12T10:24:59Z</time>
      </trkpt>
      <trkpt lat="43.09864" lon="-0.06636">
        <ele>444.6</ele>
        <time>2022-02-12T10:25:00Z</time>
      </trkpt>
      <trkpt lat="43.09865" lon="-0.06648">
        <ele>444.4</ele>
        <time>2022-02-12T10:25:01Z</time>
      </trkpt>
      <trkpt lat="43.09865" lon="-0.0666">
        <ele>444.2</ele>
        <time>2022-02-12T10:25:02Z</time>
      </trkpt>
      <trkpt lat="43.09865" lon="-0.06673">
        <ele>443.6</ele>
        <time>2022-02-12T10:25:03Z</time>
      </trkpt>
      <trkpt lat="43.09864" lon="-0.06685">
        <ele>443.4</ele>
        <time>2022-02-12T10:25:04Z</time>
      </trkpt>
      <trkpt lat="43.09864" lon="-0.06695">
        <ele>442.8</ele>
        <time>2022-02-12T10:25:05Z</time>
      </trkpt>
      <trkpt lat="43.09863" lon="-0.06703">
        <ele>442.6</ele>
        <time>2022-02-12T10:25:06Z</time>
      </trkpt>
      <trkpt lat="43.09862" lon="-0.0671">
        <ele>442.2</ele>
        <time>2022-02-12T10:25:07Z</time>
      </trkpt>
      <trkpt lat="43.09861" lon="-0.06717">
        <ele>441.8</ele>
        <time>2022-02-12T10:25:08Z</time>
      </trkpt>
      <trkpt lat="43.09859" lon="-0.06723">
        <ele>441.2</ele>
        <time>2022-02-12T10:25:09Z</time>
      </trkpt>
      <trkpt lat="43.09857" lon="-0.06731">
        <ele>440.8</ele>
        <time>2022-02-12T10:25:10Z</time>
      </trkpt>
      <trkpt lat="43.09855" lon="-0.06736">
        <ele>440.4</ele>
        <time>2022-02-12T10:25:11Z</time>
      </trkpt>
      <trkpt lat="43.09854" lon="-0.06743">
        <ele>440</ele>
        <time>2022-02-12T10:25:12Z</time>
      </trkpt>
      <trkpt lat="43.09853" lon="-0.06748">
        <ele>439.8</ele>
        <time>2022-02-12T10:25:13Z</time>
      </trkpt>
      <trkpt lat="43.09851" lon="-0.06756">
        <ele>439.6</ele>
        <time>2022-02-12T10:25:14Z</time>
      </trkpt>
      <trkpt lat="43.09849" lon="-0.06762">
        <ele>439.6</ele>
        <time>2022-02-12T10:25:15Z</time>
      </trkpt>
      <trkpt lat="43.09848" lon="-0.06768">
        <ele>439.6</ele>
        <time>2022-02-12T10:25:16Z</time>
      </trkpt>
      <trkpt lat="43.09846" lon="-0.06776">
        <ele>439.4</ele>
        <time>2022-02-12T10:25:17Z</time>
      </trkpt>
      <trkpt lat="43.09844" lon="-0.06783">
        <ele>439.4</ele>
        <time>2022-02-12T10:25:18Z</time>
      </trkpt>
      <trkpt lat="43.09842" lon="-0.0679">
        <ele>439.2</ele>
        <time>2022-02-12T10:25:19Z</time>
      </trkpt>
      <trkpt lat="43.09841" lon="-0.06796">
        <ele>439.2</ele>
        <time>2022-02-12T10:25:20Z</time>
      </trkpt>
      <trkpt lat="43.09838" lon="-0.06804">
        <ele>439</ele>
        <time>2022-02-12T10:25:21Z</time>
      </trkpt>
      <trkpt lat="43.09836" lon="-0.06811">
        <ele>438.8</ele>
        <time>2022-02-12T10:25:22Z</time>
      </trkpt>
      <trkpt lat="43.09834" lon="-0.06818">
        <ele>438.8</ele>
        <time>2022-02-12T10:25:23Z</time>
      </trkpt>
      <trkpt lat="43.09832" lon="-0.06823">
        <ele>438.6</ele>
        <time>2022-02-12T10:25:24Z</time>
      </trkpt>
      <trkpt lat="43.09829" lon="-0.0683">
        <ele>438.6</ele>
        <time>2022-02-12T10:25:25Z</time>
      </trkpt>
      <trkpt lat="43.09826" lon="-0.06838">
        <ele>438.4</ele>
        <time>2022-02-12T10:25:26Z</time>
      </trkpt>
      <trkpt lat="43.09823" lon="-0.06844">
        <ele>438.2</ele>
        <time>2022-02-12T10:25:27Z</time>
      </trkpt>
      <trkpt lat="43.09819" lon="-0.06851">
        <ele>438.2</ele>
        <time>2022-02-12T10:25:28Z</time>
      </trkpt>
      <trkpt lat="43.09817" lon="-0.06856">
        <ele>438</ele>
        <time>2022-02-12T10:25:29Z</time>
      </trkpt>
      <trkpt lat="43.09813" lon="-0.06864">
        <ele>437.8</ele>
        <time>2022-02-12T10:25:30Z</time>
      </trkpt>
      <trkpt lat="43.0981" lon="-0.06871">
        <ele>437.8</ele>
        <time>2022-02-12T10:25:31Z</time>
      </trkpt>
      <trkpt lat="43.09806" lon="-0.06878">
        <ele>437.6</ele>
        <time>2022-02-12T10:25:32Z</time>
      </trkpt>
      <trkpt lat="43.09804" lon="-0.06883">
        <ele>437.4</ele>
        <time>2022-02-12T10:25:33Z</time>
      </trkpt>
      <trkpt lat="43.09799" lon="-0.06891">
        <ele>437.4</ele>
        <time>2022-02-12T10:25:34Z</time>
      </trkpt>
      <trkpt lat="43.09795" lon="-0.06897">
        <ele>437</ele>
        <time>2022-02-12T10:25:35Z</time>
      </trkpt>
      <trkpt lat="43.09791" lon="-0.06901">
        <ele>437</ele>
        <time>2022-02-12T10:25:36Z</time>
      </trkpt>
      <trkpt lat="43.09786" lon="-0.06906">
        <ele>436.8</ele>
        <time>2022-02-12T10:25:37Z</time>
      </trkpt>
      <trkpt lat="43.09781" lon="-0.06911">
        <ele>436.8</ele>
        <time>2022-02-12T10:25:38Z</time>
      </trkpt>
      <trkpt lat="43.09775" lon="-0.06915">
        <ele>436.6</ele>
        <time>2022-02-12T10:25:39Z</time>
      </trkpt>
      <trkpt lat="43.0977" lon="-0.06919">
        <ele>436.6</ele>
        <time>2022-02-12T10:25:40Z</time>
      </trkpt>
      <trkpt lat="43.09764" lon="-0.06922">
        <ele>436.4</ele>
        <time>2022-02-12T10:25:41Z</time>
      </trkpt>
      <trkpt lat="43.09759" lon="-0.06925">
        <ele>436.2</ele>
        <time>2022-02-12T10:25:42Z</time>
      </trkpt>
      <trkpt lat="43.09753" lon="-0.06927">
        <ele>436</ele>
        <time>2022-02-12T10:25:43Z</time>
      </trkpt>
      <trkpt lat="43.09748" lon="-0.06928">
        <ele>435.8</ele>
        <time>2022-02-12T10:25:44Z</time>
      </trkpt>
      <trkpt lat="43.09744" lon="-0.06929">
        <ele>435.4</ele>
        <time>2022-02-12T10:25:45Z</time>
      </trkpt>
      <trkpt lat="43.09738" lon="-0.06928">
        <ele>435.2</ele>
        <time>2022-02-12T10:25:46Z</time>
      </trkpt>
      <trkpt lat="43.09733" lon="-0.06927">
        <ele>435</ele>
        <time>2022-02-12T10:25:47Z</time>
      </trkpt>
      <trkpt lat="43.09729" lon="-0.06925">
        <ele>435</ele>
        <time>2022-02-12T10:25:48Z</time>
      </trkpt>
      <trkpt lat="43.09724" lon="-0.06922">
        <ele>435</ele>
        <time>2022-02-12T10:25:49Z</time>
      </trkpt>
      <trkpt lat="43.0972" lon="-0.06919">
        <ele>434.8</ele>
        <time>2022-02-12T10:25:50Z</time>
      </trkpt>
      <trkpt lat="43.09715" lon="-0.06917">
        <ele>434.6</ele>
        <time>2022-02-12T10:25:51Z</time>
      </trkpt>
      <trkpt lat="43.0971" lon="-0.06914">
        <ele>434.6</ele>
        <time>2022-02-12T10:25:52Z</time>
      </trkpt>
      <trkpt lat="43.09705" lon="-0.06912">
        <ele>434.4</ele>
        <time>2022-02-12T10:25:53Z</time>
      </trkpt>
      <trkpt lat="43.09699" lon="-0.0691">
        <ele>434.4</ele>
        <time>2022-02-12T10:25:54Z</time>
      </trkpt>
      <trkpt lat="43.09694" lon="-0.0691">
        <ele>434.2</ele>
        <time>2022-02-12T10:25:55Z</time>
      </trkpt>
      <trkpt lat="43.09689" lon="-0.0691">
        <ele>434</ele>
        <time>2022-02-12T10:25:56Z</time>
      </trkpt>
      <trkpt lat="43.09685" lon="-0.06911">
        <ele>434</ele>
        <time>2022-02-12T10:25:57Z</time>
      </trkpt>
      <trkpt lat="43.09681" lon="-0.06911">
        <ele>434</ele>
        <time>2022-02-12T10:25:58Z</time>
      </trkpt>
      <trkpt lat="43.09677" lon="-0.06909">
        <ele>434</ele>
        <time>2022-02-12T10:25:59Z</time>
      </trkpt>
      <trkpt lat="43.09675" lon="-0.06908">
        <ele>434</ele>
        <time>2022-02-12T10:26:00Z</time>
      </trkpt>
      <trkpt lat="43.09674" lon="-0.06908">
        <ele>434</ele>
        <time>2022-02-12T10:26:01Z</time>
      </trkpt>
      <trkpt lat="43.09674" lon="-0.06907">
        <ele>434</ele>
        <time>2022-02-12T10:26:02Z</time>
      </trkpt>
      <trkpt lat="43.09674" lon="-0.06907">
        <ele>434</ele>
        <time>2022-02-12T10:26:03Z</time>
      </trkpt>
      <trkpt lat="43.09674" lon="-0.06907">
        <ele>434</ele>
        <time>2022-02-12T10:26:04Z</time>
      </trkpt>
      <trkpt lat="43.09674" lon="-0.06907">
        <ele>434</ele>
        <time>2022-02-12T10:26:05Z</time>
      </trkpt>
      <trkpt lat="43.09674" lon="-0.06907">
        <ele>434</ele>
        <time>2022-02-12T10:26:06Z</time>
      </trkpt>
      <trkpt lat="43.09674" lon="-0.06907">
        <ele>434</ele>
        <time>2022-02-12T10:26:07Z</time>
      </trkpt>
      <trkpt lat="43.09674" lon="-0.06907">
        <ele>434.2</ele>
        <time>2022-02-12T10:26:08Z</time>
      </trkpt>
      <trkpt lat="43.09674" lon="-0.06907">
        <ele>434.2</ele>
        <time>2022-02-12T10:26:09Z</time>
      </trkpt>
      <trkpt lat="43.09674" lon="-0.06907">
        <ele>434.4</ele>
        <time>2022-02-12T10:26:10Z</time>
      </trkpt>
      <trkpt lat="43.09674" lon="-0.06907">
        <ele>434.4</ele>
        <time>2022-02-12T10:26:11Z</time>
      </trkpt>
      <trkpt lat="43.09674" lon="-0.06907">
        <ele>434.4</ele>
        <time>2022-02-12T10:26:12Z</time>
      </trkpt>
      <trkpt lat="43.09674" lon="-0.06907">
        <ele>434.4</ele>
        <time>2022-02-12T10:26:13Z</time>
      </trkpt>
      <trkpt lat="43.09674" lon="-0.06907">
        <ele>434.4</ele>
        <time>2022-02-12T10:26:14Z</time>
      </trkpt>
      <trkpt lat="43.09674" lon="-0.06907">
        <ele>434.4</ele>
        <time>2022-02-12T10:26:15Z</time>
      </trkpt>
      <trkpt lat="43.09674" lon="-0.06907">
        <ele>434.4</ele>
        <time>2022-02-12T10:26:16Z</time>
      </trkpt>
    </trkseg>
  </trk>
</gpx>